<?xml version="1.0" encoding="UTF-8" standalone="no" ?>
<gpx xmlns="http://www.topografix.com/GPX/1/1" xmlns:gpxtpx="http://www.garmin.com/xmlschemas/TrackPointExtension/v1" creator="OruxMaps v.6.0.7 Donate" version="1.1" xmlns:xsi="http://www.w3.org/2001/XMLSchema-instance" xsi:schemaLocation="http://www.topografix.com/GPX/1/1 http://www.topografix.com/GPX/1/1/gpx.xsd">
<metadata>
<name><![CDATA[2015-04-25 10:57]]></name>
<desc><![CDATA[]]></desc>
<link href="http://www.oruxmaps.com">
<text>OruxMaps</text>
</link>
<time>2015-04-25T07:57:35Z</time><bounds maxlat="35.1108707" maxlon="32.5079957" minlat="34.9719597" minlon="32.2820002"/>
</metadata>
<trk>
<name><![CDATA[2015-04-25 10:57]]></name>
<desc><![CDATA[<h1>OruxMaps</h1><br /><hr align="center" width="480" style="height: 2px; width: 517px"/><h2>Name: 2015-04-25 10:57</h2><br /><p>Start time: 04/25/2015 10:57</p><p>Finish time: 04/25/2015 21:42</p><p>Distance: 78.9km (10:44)</p><p>Moving time: 06:41</p><p>Average speed: 7.3km/h</p><p>Avg. Speed Mov.: 11.8km/h</p><p>Max. Speed: 40.6km/h</p><p>Minimum altitude: 5m</p><p>Maximum altitude: 587m</p><p>Ascent speed: 387.8m/h</p><p>Descent speed: -390.1m/h</p><p>Elevation gain: 1615m</p><p>Elevation loss: -1595m</p><p>Ascent time: 04:10</p><p>Descent time: 04:05</p><hr align="center" width="480" style="height: 2px; width: 517px"/>]]></desc>
<type>Undefined</type>
<extensions>
<om:oruxmapsextensions xmlns:om="http://www.oruxmaps.com/oruxmapsextensions/1/0">
<om:ext type="TYPE" subtype="0">0</om:ext>
</om:oruxmapsextensions>
</extensions>
<trkseg>
<trkpt lat="35.1107100" lon="32.5079817">
<ele>13.93</ele>
<time>2015-04-25T07:57:35Z</time>
</trkpt>
<trkpt lat="35.1107564" lon="32.5079766">
<ele>14.65</ele>
<time>2015-04-25T07:59:29Z</time>
</trkpt>
<trkpt lat="35.1107805" lon="32.5079209">
<ele>14.92</ele>
<time>2015-04-25T07:59:39Z</time>
</trkpt>
<trkpt lat="35.1108070" lon="32.5078572">
<ele>14.80</ele>
<time>2015-04-25T07:59:43Z</time>
</trkpt>
<trkpt lat="35.1108279" lon="32.5077878">
<ele>14.85</ele>
<time>2015-04-25T07:59:47Z</time>
</trkpt>
<trkpt lat="35.1108401" lon="32.5077211">
<ele>15.80</ele>
<time>2015-04-25T07:59:51Z</time>
</trkpt>
<trkpt lat="35.1107925" lon="32.5076871">
<ele>15.42</ele>
<time>2015-04-25T07:59:55Z</time>
</trkpt>
<trkpt lat="35.1107511" lon="32.5076575">
<ele>15.49</ele>
<time>2015-04-25T07:59:58Z</time>
</trkpt>
<trkpt lat="35.1106932" lon="32.5076059">
<ele>15.07</ele>
<time>2015-04-25T08:00:00Z</time>
</trkpt>
<trkpt lat="35.1106436" lon="32.5075710">
<ele>14.96</ele>
<time>2015-04-25T08:00:02Z</time>
</trkpt>
<trkpt lat="35.1105991" lon="32.5075244">
<ele>14.93</ele>
<time>2015-04-25T08:00:04Z</time>
</trkpt>
<trkpt lat="35.1105456" lon="32.5074906">
<ele>14.93</ele>
<time>2015-04-25T08:00:06Z</time>
</trkpt>
<trkpt lat="35.1104822" lon="32.5074519">
<ele>14.93</ele>
<time>2015-04-25T08:00:08Z</time>
</trkpt>
<trkpt lat="35.1104198" lon="32.5074070">
<ele>14.93</ele>
<time>2015-04-25T08:00:10Z</time>
</trkpt>
<trkpt lat="35.1103585" lon="32.5073661">
<ele>14.93</ele>
<time>2015-04-25T08:00:12Z</time>
</trkpt>
<trkpt lat="35.1102928" lon="32.5073337">
<ele>14.93</ele>
<time>2015-04-25T08:00:14Z</time>
</trkpt>
<trkpt lat="35.1102206" lon="32.5072818">
<ele>14.93</ele>
<time>2015-04-25T08:00:16Z</time>
</trkpt>
<trkpt lat="35.1101489" lon="32.5072349">
<ele>14.93</ele>
<time>2015-04-25T08:00:18Z</time>
</trkpt>
<trkpt lat="35.1100777" lon="32.5071891">
<ele>14.93</ele>
<time>2015-04-25T08:00:20Z</time>
</trkpt>
<trkpt lat="35.1100051" lon="32.5071424">
<ele>14.93</ele>
<time>2015-04-25T08:00:22Z</time>
</trkpt>
<trkpt lat="35.1099322" lon="32.5070885">
<ele>14.93</ele>
<time>2015-04-25T08:00:24Z</time>
</trkpt>
<trkpt lat="35.1098895" lon="32.5070574">
<ele>14.93</ele>
<time>2015-04-25T08:00:25Z</time>
</trkpt>
<trkpt lat="35.1098500" lon="32.5070295">
<ele>14.93</ele>
<time>2015-04-25T08:00:26Z</time>
</trkpt>
<trkpt lat="35.1097746" lon="32.5069717">
<ele>14.43</ele>
<time>2015-04-25T08:00:28Z</time>
</trkpt>
<trkpt lat="35.1097352" lon="32.5069412">
<ele>14.18</ele>
<time>2015-04-25T08:00:29Z</time>
</trkpt>
<trkpt lat="35.1096634" lon="32.5068916">
<ele>13.99</ele>
<time>2015-04-25T08:00:31Z</time>
</trkpt>
<trkpt lat="35.1095899" lon="32.5068450">
<ele>13.94</ele>
<time>2015-04-25T08:00:33Z</time>
</trkpt>
<trkpt lat="35.1095257" lon="32.5068027">
<ele>13.93</ele>
<time>2015-04-25T08:00:35Z</time>
</trkpt>
<trkpt lat="35.1094621" lon="32.5067609">
<ele>13.93</ele>
<time>2015-04-25T08:00:37Z</time>
</trkpt>
<trkpt lat="35.1094010" lon="32.5067200">
<ele>13.93</ele>
<time>2015-04-25T08:00:39Z</time>
</trkpt>
<trkpt lat="35.1093335" lon="32.5066744">
<ele>13.93</ele>
<time>2015-04-25T08:00:41Z</time>
</trkpt>
<trkpt lat="35.1092515" lon="32.5066095">
<ele>13.93</ele>
<time>2015-04-25T08:00:43Z</time>
</trkpt>
<trkpt lat="35.1092104" lon="32.5065790">
<ele>13.93</ele>
<time>2015-04-25T08:00:44Z</time>
</trkpt>
<trkpt lat="35.1091663" lon="32.5065438">
<ele>13.93</ele>
<time>2015-04-25T08:00:45Z</time>
</trkpt>
<trkpt lat="35.1090827" lon="32.5064916">
<ele>13.93</ele>
<time>2015-04-25T08:00:47Z</time>
</trkpt>
<trkpt lat="35.1090391" lon="32.5064647">
<ele>13.93</ele>
<time>2015-04-25T08:00:48Z</time>
</trkpt>
<trkpt lat="35.1089615" lon="32.5064003">
<ele>13.93</ele>
<time>2015-04-25T08:00:50Z</time>
</trkpt>
<trkpt lat="35.1089194" lon="32.5063745">
<ele>13.93</ele>
<time>2015-04-25T08:00:51Z</time>
</trkpt>
<trkpt lat="35.1088734" lon="32.5063456">
<ele>13.93</ele>
<time>2015-04-25T08:00:52Z</time>
</trkpt>
<trkpt lat="35.1088305" lon="32.5063187">
<ele>13.93</ele>
<time>2015-04-25T08:00:53Z</time>
</trkpt>
<trkpt lat="35.1087549" lon="32.5062666">
<ele>13.68</ele>
<time>2015-04-25T08:00:55Z</time>
</trkpt>
<trkpt lat="35.1087150" lon="32.5062376">
<ele>13.80</ele>
<time>2015-04-25T08:00:56Z</time>
</trkpt>
<trkpt lat="35.1086400" lon="32.5061876">
<ele>13.89</ele>
<time>2015-04-25T08:00:58Z</time>
</trkpt>
<trkpt lat="35.1085976" lon="32.5061569">
<ele>13.91</ele>
<time>2015-04-25T08:00:59Z</time>
</trkpt>
<trkpt lat="35.1085252" lon="32.5061156">
<ele>13.92</ele>
<time>2015-04-25T08:01:01Z</time>
</trkpt>
<trkpt lat="35.1084630" lon="32.5060782">
<ele>13.92</ele>
<time>2015-04-25T08:01:03Z</time>
</trkpt>
<trkpt lat="35.1083927" lon="32.5060211">
<ele>14.17</ele>
<time>2015-04-25T08:01:05Z</time>
</trkpt>
<trkpt lat="35.1083194" lon="32.5059699">
<ele>13.99</ele>
<time>2015-04-25T08:01:07Z</time>
</trkpt>
<trkpt lat="35.1082429" lon="32.5059168">
<ele>13.94</ele>
<time>2015-04-25T08:01:09Z</time>
</trkpt>
<trkpt lat="35.1081733" lon="32.5058674">
<ele>13.93</ele>
<time>2015-04-25T08:01:11Z</time>
</trkpt>
<trkpt lat="35.1081009" lon="32.5058158">
<ele>13.93</ele>
<time>2015-04-25T08:01:13Z</time>
</trkpt>
<trkpt lat="35.1080264" lon="32.5057653">
<ele>13.93</ele>
<time>2015-04-25T08:01:15Z</time>
</trkpt>
<trkpt lat="35.1079486" lon="32.5057155">
<ele>14.68</ele>
<time>2015-04-25T08:01:17Z</time>
</trkpt>
<trkpt lat="35.1078746" lon="32.5056761">
<ele>15.11</ele>
<time>2015-04-25T08:01:19Z</time>
</trkpt>
<trkpt lat="35.1077988" lon="32.5056308">
<ele>14.97</ele>
<time>2015-04-25T08:01:21Z</time>
</trkpt>
<trkpt lat="35.1077181" lon="32.5055750">
<ele>14.94</ele>
<time>2015-04-25T08:01:23Z</time>
</trkpt>
<trkpt lat="35.1076766" lon="32.5055463">
<ele>14.93</ele>
<time>2015-04-25T08:01:24Z</time>
</trkpt>
<trkpt lat="35.1076361" lon="32.5055130">
<ele>14.93</ele>
<time>2015-04-25T08:01:25Z</time>
</trkpt>
<trkpt lat="35.1075976" lon="32.5054839">
<ele>14.93</ele>
<time>2015-04-25T08:01:26Z</time>
</trkpt>
<trkpt lat="35.1075557" lon="32.5054594">
<ele>14.93</ele>
<time>2015-04-25T08:01:27Z</time>
</trkpt>
<trkpt lat="35.1075129" lon="32.5054336">
<ele>14.93</ele>
<time>2015-04-25T08:01:28Z</time>
</trkpt>
<trkpt lat="35.1074768" lon="32.5054002">
<ele>14.93</ele>
<time>2015-04-25T08:01:29Z</time>
</trkpt>
<trkpt lat="35.1074028" lon="32.5053522">
<ele>14.93</ele>
<time>2015-04-25T08:01:31Z</time>
</trkpt>
<trkpt lat="35.1073601" lon="32.5053248">
<ele>14.93</ele>
<time>2015-04-25T08:01:32Z</time>
</trkpt>
<trkpt lat="35.1073186" lon="32.5052978">
<ele>14.93</ele>
<time>2015-04-25T08:01:33Z</time>
</trkpt>
<trkpt lat="35.1072778" lon="32.5052709">
<ele>14.93</ele>
<time>2015-04-25T08:01:34Z</time>
</trkpt>
<trkpt lat="35.1072397" lon="32.5052412">
<ele>14.93</ele>
<time>2015-04-25T08:01:35Z</time>
</trkpt>
<trkpt lat="35.1071927" lon="32.5052093">
<ele>14.93</ele>
<time>2015-04-25T08:01:36Z</time>
</trkpt>
<trkpt lat="35.1071515" lon="32.5051817">
<ele>14.93</ele>
<time>2015-04-25T08:01:37Z</time>
</trkpt>
<trkpt lat="35.1071086" lon="32.5051542">
<ele>14.93</ele>
<time>2015-04-25T08:01:38Z</time>
</trkpt>
<trkpt lat="35.1070608" lon="32.5051193">
<ele>14.93</ele>
<time>2015-04-25T08:01:39Z</time>
</trkpt>
<trkpt lat="35.1070159" lon="32.5050905">
<ele>14.93</ele>
<time>2015-04-25T08:01:40Z</time>
</trkpt>
<trkpt lat="35.1069734" lon="32.5050574">
<ele>14.93</ele>
<time>2015-04-25T08:01:41Z</time>
</trkpt>
<trkpt lat="35.1069322" lon="32.5050298">
<ele>14.93</ele>
<time>2015-04-25T08:01:42Z</time>
</trkpt>
<trkpt lat="35.1068501" lon="32.5049690">
<ele>14.93</ele>
<time>2015-04-25T08:01:44Z</time>
</trkpt>
<trkpt lat="35.1068104" lon="32.5049351">
<ele>14.93</ele>
<time>2015-04-25T08:01:45Z</time>
</trkpt>
<trkpt lat="35.1067651" lon="32.5049032">
<ele>14.93</ele>
<time>2015-04-25T08:01:46Z</time>
</trkpt>
<trkpt lat="35.1067103" lon="32.5048700">
<ele>14.93</ele>
<time>2015-04-25T08:01:47Z</time>
</trkpt>
<trkpt lat="35.1066615" lon="32.5048380">
<ele>14.93</ele>
<time>2015-04-25T08:01:48Z</time>
</trkpt>
<trkpt lat="35.1066172" lon="32.5048107">
<ele>14.93</ele>
<time>2015-04-25T08:01:49Z</time>
</trkpt>
<trkpt lat="35.1065732" lon="32.5047816">
<ele>14.93</ele>
<time>2015-04-25T08:01:50Z</time>
</trkpt>
<trkpt lat="35.1065224" lon="32.5047499">
<ele>14.43</ele>
<time>2015-04-25T08:01:51Z</time>
</trkpt>
<trkpt lat="35.1064744" lon="32.5047180">
<ele>14.18</ele>
<time>2015-04-25T08:01:52Z</time>
</trkpt>
<trkpt lat="35.1064299" lon="32.5046860">
<ele>14.05</ele>
<time>2015-04-25T08:01:53Z</time>
</trkpt>
<trkpt lat="35.1063805" lon="32.5046556">
<ele>13.99</ele>
<time>2015-04-25T08:01:54Z</time>
</trkpt>
<trkpt lat="35.1063349" lon="32.5046152">
<ele>13.96</ele>
<time>2015-04-25T08:01:55Z</time>
</trkpt>
<trkpt lat="35.1062883" lon="32.5045793">
<ele>13.94</ele>
<time>2015-04-25T08:01:56Z</time>
</trkpt>
<trkpt lat="35.1062378" lon="32.5045442">
<ele>13.93</ele>
<time>2015-04-25T08:01:57Z</time>
</trkpt>
<trkpt lat="35.1061934" lon="32.5045150">
<ele>13.93</ele>
<time>2015-04-25T08:01:58Z</time>
</trkpt>
<trkpt lat="35.1061434" lon="32.5044883">
<ele>13.43</ele>
<time>2015-04-25T08:01:59Z</time>
</trkpt>
<trkpt lat="35.1060964" lon="32.5044566">
<ele>13.68</ele>
<time>2015-04-25T08:02:00Z</time>
</trkpt>
<trkpt lat="35.1060556" lon="32.5044288">
<ele>13.80</ele>
<time>2015-04-25T08:02:01Z</time>
</trkpt>
<trkpt lat="35.1060104" lon="32.5043975">
<ele>13.86</ele>
<time>2015-04-25T08:02:02Z</time>
</trkpt>
<trkpt lat="35.1059624" lon="32.5043709">
<ele>13.89</ele>
<time>2015-04-25T08:02:03Z</time>
</trkpt>
<trkpt lat="35.1059132" lon="32.5043427">
<ele>13.91</ele>
<time>2015-04-25T08:02:04Z</time>
</trkpt>
<trkpt lat="35.1058702" lon="32.5043055">
<ele>13.92</ele>
<time>2015-04-25T08:02:05Z</time>
</trkpt>
<trkpt lat="35.1058236" lon="32.5042740">
<ele>13.92</ele>
<time>2015-04-25T08:02:06Z</time>
</trkpt>
<trkpt lat="35.1057766" lon="32.5042480">
<ele>14.42</ele>
<time>2015-04-25T08:02:07Z</time>
</trkpt>
<trkpt lat="35.1057251" lon="32.5042152">
<ele>14.67</ele>
<time>2015-04-25T08:02:08Z</time>
</trkpt>
<trkpt lat="35.1056811" lon="32.5041953">
<ele>14.80</ele>
<time>2015-04-25T08:02:09Z</time>
</trkpt>
<trkpt lat="35.1056321" lon="32.5041687">
<ele>14.86</ele>
<time>2015-04-25T08:02:10Z</time>
</trkpt>
<trkpt lat="35.1055871" lon="32.5041659">
<ele>14.89</ele>
<time>2015-04-25T08:02:11Z</time>
</trkpt>
<trkpt lat="35.1055384" lon="32.5041534">
<ele>14.91</ele>
<time>2015-04-25T08:02:12Z</time>
</trkpt>
<trkpt lat="35.1054868" lon="32.5041329">
<ele>14.92</ele>
<time>2015-04-25T08:02:13Z</time>
</trkpt>
<trkpt lat="35.1054392" lon="32.5041170">
<ele>14.92</ele>
<time>2015-04-25T08:02:14Z</time>
</trkpt>
<trkpt lat="35.1053858" lon="32.5040928">
<ele>15.42</ele>
<time>2015-04-25T08:02:15Z</time>
</trkpt>
<trkpt lat="35.1053312" lon="32.5040749">
<ele>15.67</ele>
<time>2015-04-25T08:02:16Z</time>
</trkpt>
<trkpt lat="35.1052765" lon="32.5040511">
<ele>15.80</ele>
<time>2015-04-25T08:02:17Z</time>
</trkpt>
<trkpt lat="35.1052212" lon="32.5040300">
<ele>15.86</ele>
<time>2015-04-25T08:02:18Z</time>
</trkpt>
<trkpt lat="35.1051685" lon="32.5040197">
<ele>15.89</ele>
<time>2015-04-25T08:02:19Z</time>
</trkpt>
<trkpt lat="35.1051131" lon="32.5040050">
<ele>16.41</ele>
<time>2015-04-25T08:02:20Z</time>
</trkpt>
<trkpt lat="35.1050502" lon="32.5039946">
<ele>16.67</ele>
<time>2015-04-25T08:02:21Z</time>
</trkpt>
<trkpt lat="35.1049967" lon="32.5039844">
<ele>16.80</ele>
<time>2015-04-25T08:02:22Z</time>
</trkpt>
<trkpt lat="35.1049447" lon="32.5039788">
<ele>16.86</ele>
<time>2015-04-25T08:02:23Z</time>
</trkpt>
<trkpt lat="35.1048895" lon="32.5039686">
<ele>16.89</ele>
<time>2015-04-25T08:02:24Z</time>
</trkpt>
<trkpt lat="35.1047969" lon="32.5039540">
<ele>16.67</ele>
<time>2015-04-25T08:02:26Z</time>
</trkpt>
<trkpt lat="35.1047430" lon="32.5039443">
<ele>16.80</ele>
<time>2015-04-25T08:02:27Z</time>
</trkpt>
<trkpt lat="35.1046905" lon="32.5039360">
<ele>16.86</ele>
<time>2015-04-25T08:02:28Z</time>
</trkpt>
<trkpt lat="35.1046362" lon="32.5039241">
<ele>16.89</ele>
<time>2015-04-25T08:02:29Z</time>
</trkpt>
<trkpt lat="35.1045825" lon="32.5039136">
<ele>16.91</ele>
<time>2015-04-25T08:02:30Z</time>
</trkpt>
<trkpt lat="35.1045279" lon="32.5039010">
<ele>16.92</ele>
<time>2015-04-25T08:02:31Z</time>
</trkpt>
<trkpt lat="35.1044695" lon="32.5038855">
<ele>16.92</ele>
<time>2015-04-25T08:02:32Z</time>
</trkpt>
<trkpt lat="35.1044168" lon="32.5038696">
<ele>16.92</ele>
<time>2015-04-25T08:02:33Z</time>
</trkpt>
<trkpt lat="35.1043624" lon="32.5038537">
<ele>16.92</ele>
<time>2015-04-25T08:02:34Z</time>
</trkpt>
<trkpt lat="35.1043104" lon="32.5038341">
<ele>16.92</ele>
<time>2015-04-25T08:02:35Z</time>
</trkpt>
<trkpt lat="35.1042561" lon="32.5038163">
<ele>16.92</ele>
<time>2015-04-25T08:02:36Z</time>
</trkpt>
<trkpt lat="35.1042029" lon="32.5037936">
<ele>16.92</ele>
<time>2015-04-25T08:02:37Z</time>
</trkpt>
<trkpt lat="35.1041521" lon="32.5037724">
<ele>16.92</ele>
<time>2015-04-25T08:02:38Z</time>
</trkpt>
<trkpt lat="35.1041040" lon="32.5037448">
<ele>16.92</ele>
<time>2015-04-25T08:02:39Z</time>
</trkpt>
<trkpt lat="35.1040536" lon="32.5037208">
<ele>16.92</ele>
<time>2015-04-25T08:02:40Z</time>
</trkpt>
<trkpt lat="35.1040039" lon="32.5036986">
<ele>16.42</ele>
<time>2015-04-25T08:02:41Z</time>
</trkpt>
<trkpt lat="35.1039528" lon="32.5036723">
<ele>16.17</ele>
<time>2015-04-25T08:02:42Z</time>
</trkpt>
<trkpt lat="35.1038985" lon="32.5036364">
<ele>16.05</ele>
<time>2015-04-25T08:02:43Z</time>
</trkpt>
<trkpt lat="35.1038475" lon="32.5036054">
<ele>16.49</ele>
<time>2015-04-25T08:02:44Z</time>
</trkpt>
<trkpt lat="35.1037960" lon="32.5035652">
<ele>16.71</ele>
<time>2015-04-25T08:02:45Z</time>
</trkpt>
<trkpt lat="35.1037478" lon="32.5035340">
<ele>16.82</ele>
<time>2015-04-25T08:02:46Z</time>
</trkpt>
<trkpt lat="35.1036964" lon="32.5034977">
<ele>16.87</ele>
<time>2015-04-25T08:02:47Z</time>
</trkpt>
<trkpt lat="35.1036470" lon="32.5034621">
<ele>16.90</ele>
<time>2015-04-25T08:02:48Z</time>
</trkpt>
<trkpt lat="35.1036041" lon="32.5034318">
<ele>16.41</ele>
<time>2015-04-25T08:02:49Z</time>
</trkpt>
<trkpt lat="35.1035571" lon="32.5033943">
<ele>16.17</ele>
<time>2015-04-25T08:02:50Z</time>
</trkpt>
<trkpt lat="35.1035064" lon="32.5033493">
<ele>16.05</ele>
<time>2015-04-25T08:02:51Z</time>
</trkpt>
<trkpt lat="35.1034567" lon="32.5033069">
<ele>15.99</ele>
<time>2015-04-25T08:02:52Z</time>
</trkpt>
<trkpt lat="35.1034003" lon="32.5032798">
<ele>15.96</ele>
<time>2015-04-25T08:02:53Z</time>
</trkpt>
<trkpt lat="35.1033530" lon="32.5032479">
<ele>15.94</ele>
<time>2015-04-25T08:02:54Z</time>
</trkpt>
<trkpt lat="35.1033037" lon="32.5032107">
<ele>15.93</ele>
<time>2015-04-25T08:02:55Z</time>
</trkpt>
<trkpt lat="35.1032522" lon="32.5031742">
<ele>15.93</ele>
<time>2015-04-25T08:02:56Z</time>
</trkpt>
<trkpt lat="35.1032032" lon="32.5031312">
<ele>15.43</ele>
<time>2015-04-25T08:02:57Z</time>
</trkpt>
<trkpt lat="35.1031528" lon="32.5030926">
<ele>15.18</ele>
<time>2015-04-25T08:02:58Z</time>
</trkpt>
<trkpt lat="35.1031130" lon="32.5030467">
<ele>15.05</ele>
<time>2015-04-25T08:02:59Z</time>
</trkpt>
<trkpt lat="35.1030645" lon="32.5030084">
<ele>14.99</ele>
<time>2015-04-25T08:03:00Z</time>
</trkpt>
<trkpt lat="35.1030178" lon="32.5029693">
<ele>14.96</ele>
<time>2015-04-25T08:03:01Z</time>
</trkpt>
<trkpt lat="35.1029756" lon="32.5029343">
<ele>14.94</ele>
<time>2015-04-25T08:03:02Z</time>
</trkpt>
<trkpt lat="35.1029258" lon="32.5029024">
<ele>14.93</ele>
<time>2015-04-25T08:03:03Z</time>
</trkpt>
<trkpt lat="35.1028754" lon="32.5028676">
<ele>14.93</ele>
<time>2015-04-25T08:03:04Z</time>
</trkpt>
<trkpt lat="35.1028272" lon="32.5028302">
<ele>14.93</ele>
<time>2015-04-25T08:03:05Z</time>
</trkpt>
<trkpt lat="35.1027760" lon="32.5027925">
<ele>14.93</ele>
<time>2015-04-25T08:03:06Z</time>
</trkpt>
<trkpt lat="35.1027336" lon="32.5027577">
<ele>14.93</ele>
<time>2015-04-25T08:03:07Z</time>
</trkpt>
<trkpt lat="35.1026786" lon="32.5027348">
<ele>14.93</ele>
<time>2015-04-25T08:03:08Z</time>
</trkpt>
<trkpt lat="35.1026261" lon="32.5026989">
<ele>14.93</ele>
<time>2015-04-25T08:03:09Z</time>
</trkpt>
<trkpt lat="35.1025766" lon="32.5026762">
<ele>14.93</ele>
<time>2015-04-25T08:03:10Z</time>
</trkpt>
<trkpt lat="35.1025242" lon="32.5026466">
<ele>14.93</ele>
<time>2015-04-25T08:03:11Z</time>
</trkpt>
<trkpt lat="35.1024730" lon="32.5026175">
<ele>14.93</ele>
<time>2015-04-25T08:03:12Z</time>
</trkpt>
<trkpt lat="35.1024192" lon="32.5025855">
<ele>14.93</ele>
<time>2015-04-25T08:03:13Z</time>
</trkpt>
<trkpt lat="35.1023659" lon="32.5025551">
<ele>14.93</ele>
<time>2015-04-25T08:03:14Z</time>
</trkpt>
<trkpt lat="35.1023136" lon="32.5025321">
<ele>14.93</ele>
<time>2015-04-25T08:03:15Z</time>
</trkpt>
<trkpt lat="35.1022608" lon="32.5025022">
<ele>14.93</ele>
<time>2015-04-25T08:03:16Z</time>
</trkpt>
<trkpt lat="35.1022054" lon="32.5024751">
<ele>14.43</ele>
<time>2015-04-25T08:03:17Z</time>
</trkpt>
<trkpt lat="35.1021551" lon="32.5024486">
<ele>14.18</ele>
<time>2015-04-25T08:03:18Z</time>
</trkpt>
<trkpt lat="35.1021028" lon="32.5024186">
<ele>14.55</ele>
<time>2015-04-25T08:03:19Z</time>
</trkpt>
<trkpt lat="35.1020482" lon="32.5023898">
<ele>14.74</ele>
<time>2015-04-25T08:03:20Z</time>
</trkpt>
<trkpt lat="35.1019908" lon="32.5023559">
<ele>14.83</ele>
<time>2015-04-25T08:03:21Z</time>
</trkpt>
<trkpt lat="35.1019370" lon="32.5023259">
<ele>14.88</ele>
<time>2015-04-25T08:03:22Z</time>
</trkpt>
<trkpt lat="35.1018870" lon="32.5022852">
<ele>14.90</ele>
<time>2015-04-25T08:03:23Z</time>
</trkpt>
<trkpt lat="35.1018332" lon="32.5022490">
<ele>14.91</ele>
<time>2015-04-25T08:03:24Z</time>
</trkpt>
<trkpt lat="35.1017809" lon="32.5022180">
<ele>14.92</ele>
<time>2015-04-25T08:03:25Z</time>
</trkpt>
<trkpt lat="35.1017348" lon="32.5021900">
<ele>14.92</ele>
<time>2015-04-25T08:03:26Z</time>
</trkpt>
<trkpt lat="35.1016842" lon="32.5021605">
<ele>14.92</ele>
<time>2015-04-25T08:03:27Z</time>
</trkpt>
<trkpt lat="35.1016332" lon="32.5021309">
<ele>14.92</ele>
<time>2015-04-25T08:03:28Z</time>
</trkpt>
<trkpt lat="35.1015812" lon="32.5021060">
<ele>14.42</ele>
<time>2015-04-25T08:03:29Z</time>
</trkpt>
<trkpt lat="35.1015320" lon="32.5020736">
<ele>14.17</ele>
<time>2015-04-25T08:03:30Z</time>
</trkpt>
<trkpt lat="35.1014775" lon="32.5020456">
<ele>14.55</ele>
<time>2015-04-25T08:03:31Z</time>
</trkpt>
<trkpt lat="35.1014253" lon="32.5020147">
<ele>14.74</ele>
<time>2015-04-25T08:03:32Z</time>
</trkpt>
<trkpt lat="35.1013730" lon="32.5019784">
<ele>14.83</ele>
<time>2015-04-25T08:03:33Z</time>
</trkpt>
<trkpt lat="35.1013228" lon="32.5019446">
<ele>14.88</ele>
<time>2015-04-25T08:03:34Z</time>
</trkpt>
<trkpt lat="35.1012685" lon="32.5019123">
<ele>14.40</ele>
<time>2015-04-25T08:03:35Z</time>
</trkpt>
<trkpt lat="35.1012141" lon="32.5018784">
<ele>14.66</ele>
<time>2015-04-25T08:03:36Z</time>
</trkpt>
<trkpt lat="35.1011648" lon="32.5018412">
<ele>14.29</ele>
<time>2015-04-25T08:03:37Z</time>
</trkpt>
<trkpt lat="35.1011152" lon="32.5018053">
<ele>14.11</ele>
<time>2015-04-25T08:03:38Z</time>
</trkpt>
<trkpt lat="35.1010626" lon="32.5017719">
<ele>14.52</ele>
<time>2015-04-25T08:03:39Z</time>
</trkpt>
<trkpt lat="35.1010100" lon="32.5017369">
<ele>14.72</ele>
<time>2015-04-25T08:03:40Z</time>
</trkpt>
<trkpt lat="35.1009588" lon="32.5017037">
<ele>14.32</ele>
<time>2015-04-25T08:03:41Z</time>
</trkpt>
<trkpt lat="35.1009121" lon="32.5016708">
<ele>14.12</ele>
<time>2015-04-25T08:03:42Z</time>
</trkpt>
<trkpt lat="35.1008623" lon="32.5016418">
<ele>14.02</ele>
<time>2015-04-25T08:03:43Z</time>
</trkpt>
<trkpt lat="35.1008000" lon="32.5016083">
<ele>13.97</ele>
<time>2015-04-25T08:03:44Z</time>
</trkpt>
<trkpt lat="35.1007550" lon="32.5015758">
<ele>13.95</ele>
<time>2015-04-25T08:03:45Z</time>
</trkpt>
<trkpt lat="35.1007027" lon="32.5015417">
<ele>13.94</ele>
<time>2015-04-25T08:03:46Z</time>
</trkpt>
<trkpt lat="35.1006590" lon="32.5015053">
<ele>13.93</ele>
<time>2015-04-25T08:03:47Z</time>
</trkpt>
<trkpt lat="35.1006079" lon="32.5014705">
<ele>13.93</ele>
<time>2015-04-25T08:03:48Z</time>
</trkpt>
<trkpt lat="35.1005568" lon="32.5014383">
<ele>13.93</ele>
<time>2015-04-25T08:03:49Z</time>
</trkpt>
<trkpt lat="35.1005110" lon="32.5014041">
<ele>13.93</ele>
<time>2015-04-25T08:03:50Z</time>
</trkpt>
<trkpt lat="35.1004594" lon="32.5013675">
<ele>13.93</ele>
<time>2015-04-25T08:03:51Z</time>
</trkpt>
<trkpt lat="35.1004058" lon="32.5013307">
<ele>13.93</ele>
<time>2015-04-25T08:03:52Z</time>
</trkpt>
<trkpt lat="35.1003515" lon="32.5012804">
<ele>13.43</ele>
<time>2015-04-25T08:03:53Z</time>
</trkpt>
<trkpt lat="35.1002935" lon="32.5012359">
<ele>13.18</ele>
<time>2015-04-25T08:03:54Z</time>
</trkpt>
<trkpt lat="35.1002365" lon="32.5012100">
<ele>13.05</ele>
<time>2015-04-25T08:03:55Z</time>
</trkpt>
<trkpt lat="35.1001800" lon="32.5011716">
<ele>12.99</ele>
<time>2015-04-25T08:03:56Z</time>
</trkpt>
<trkpt lat="35.1001307" lon="32.5011270">
<ele>12.96</ele>
<time>2015-04-25T08:03:57Z</time>
</trkpt>
<trkpt lat="35.1000840" lon="32.5010940">
<ele>12.94</ele>
<time>2015-04-25T08:03:58Z</time>
</trkpt>
<trkpt lat="35.1000348" lon="32.5010638">
<ele>12.93</ele>
<time>2015-04-25T08:03:59Z</time>
</trkpt>
<trkpt lat="35.0999788" lon="32.5010277">
<ele>12.43</ele>
<time>2015-04-25T08:04:00Z</time>
</trkpt>
<trkpt lat="35.0999350" lon="32.5009949">
<ele>12.18</ele>
<time>2015-04-25T08:04:01Z</time>
</trkpt>
<trkpt lat="35.0998851" lon="32.5009583">
<ele>12.05</ele>
<time>2015-04-25T08:04:02Z</time>
</trkpt>
<trkpt lat="35.0998406" lon="32.5009309">
<ele>11.99</ele>
<time>2015-04-25T08:04:03Z</time>
</trkpt>
<trkpt lat="35.0997899" lon="32.5008960">
<ele>11.96</ele>
<time>2015-04-25T08:04:04Z</time>
</trkpt>
<trkpt lat="35.0997402" lon="32.5008597">
<ele>12.44</ele>
<time>2015-04-25T08:04:05Z</time>
</trkpt>
<trkpt lat="35.0996911" lon="32.5008264">
<ele>12.68</ele>
<time>2015-04-25T08:04:06Z</time>
</trkpt>
<trkpt lat="35.0996394" lon="32.5007905">
<ele>13.30</ele>
<time>2015-04-25T08:04:07Z</time>
</trkpt>
<trkpt lat="35.0995878" lon="32.5007549">
<ele>13.61</ele>
<time>2015-04-25T08:04:08Z</time>
</trkpt>
<trkpt lat="35.0995441" lon="32.5007157">
<ele>13.77</ele>
<time>2015-04-25T08:04:09Z</time>
</trkpt>
<trkpt lat="35.0994947" lon="32.5006792">
<ele>13.85</ele>
<time>2015-04-25T08:04:10Z</time>
</trkpt>
<trkpt lat="35.0994493" lon="32.5006460">
<ele>13.89</ele>
<time>2015-04-25T08:04:11Z</time>
</trkpt>
<trkpt lat="35.0994059" lon="32.5006147">
<ele>13.91</ele>
<time>2015-04-25T08:04:12Z</time>
</trkpt>
<trkpt lat="35.0993591" lon="32.5005817">
<ele>13.92</ele>
<time>2015-04-25T08:04:13Z</time>
</trkpt>
<trkpt lat="35.0993148" lon="32.5005514">
<ele>13.92</ele>
<time>2015-04-25T08:04:14Z</time>
</trkpt>
<trkpt lat="35.0992705" lon="32.5005155">
<ele>13.92</ele>
<time>2015-04-25T08:04:15Z</time>
</trkpt>
<trkpt lat="35.0992234" lon="32.5004822">
<ele>13.92</ele>
<time>2015-04-25T08:04:16Z</time>
</trkpt>
<trkpt lat="35.0991740" lon="32.5004518">
<ele>13.92</ele>
<time>2015-04-25T08:04:17Z</time>
</trkpt>
<trkpt lat="35.0991244" lon="32.5004147">
<ele>13.92</ele>
<time>2015-04-25T08:04:18Z</time>
</trkpt>
<trkpt lat="35.0990761" lon="32.5003820">
<ele>14.42</ele>
<time>2015-04-25T08:04:19Z</time>
</trkpt>
<trkpt lat="35.0990262" lon="32.5003455">
<ele>14.67</ele>
<time>2015-04-25T08:04:20Z</time>
</trkpt>
<trkpt lat="35.0989706" lon="32.5003107">
<ele>14.80</ele>
<time>2015-04-25T08:04:21Z</time>
</trkpt>
<trkpt lat="35.0989240" lon="32.5002774">
<ele>14.86</ele>
<time>2015-04-25T08:04:22Z</time>
</trkpt>
<trkpt lat="35.0988802" lon="32.5002396">
<ele>14.39</ele>
<time>2015-04-25T08:04:23Z</time>
</trkpt>
<trkpt lat="35.0988316" lon="32.5002039">
<ele>14.16</ele>
<time>2015-04-25T08:04:24Z</time>
</trkpt>
<trkpt lat="35.0987851" lon="32.5001740">
<ele>14.04</ele>
<time>2015-04-25T08:04:25Z</time>
</trkpt>
<trkpt lat="35.0987346" lon="32.5001456">
<ele>13.98</ele>
<time>2015-04-25T08:04:26Z</time>
</trkpt>
<trkpt lat="35.0986859" lon="32.5001112">
<ele>13.95</ele>
<time>2015-04-25T08:04:27Z</time>
</trkpt>
<trkpt lat="35.0986405" lon="32.5000832">
<ele>14.44</ele>
<time>2015-04-25T08:04:28Z</time>
</trkpt>
<trkpt lat="35.0985920" lon="32.5000505">
<ele>14.68</ele>
<time>2015-04-25T08:04:29Z</time>
</trkpt>
<trkpt lat="35.0985444" lon="32.5000139">
<ele>14.80</ele>
<time>2015-04-25T08:04:30Z</time>
</trkpt>
<trkpt lat="35.0984965" lon="32.4999808">
<ele>14.86</ele>
<time>2015-04-25T08:04:31Z</time>
</trkpt>
<trkpt lat="35.0984521" lon="32.4999516">
<ele>14.89</ele>
<time>2015-04-25T08:04:32Z</time>
</trkpt>
<trkpt lat="35.0984106" lon="32.4999214">
<ele>14.91</ele>
<time>2015-04-25T08:04:33Z</time>
</trkpt>
<trkpt lat="35.0983680" lon="32.4998844">
<ele>14.42</ele>
<time>2015-04-25T08:04:34Z</time>
</trkpt>
<trkpt lat="35.0983242" lon="32.4998529">
<ele>14.17</ele>
<time>2015-04-25T08:04:35Z</time>
</trkpt>
<trkpt lat="35.0982722" lon="32.4998184">
<ele>14.05</ele>
<time>2015-04-25T08:04:36Z</time>
</trkpt>
<trkpt lat="35.0982248" lon="32.4997839">
<ele>13.99</ele>
<time>2015-04-25T08:04:37Z</time>
</trkpt>
<trkpt lat="35.0981784" lon="32.4997466">
<ele>13.96</ele>
<time>2015-04-25T08:04:38Z</time>
</trkpt>
<trkpt lat="35.0981287" lon="32.4997121">
<ele>14.44</ele>
<time>2015-04-25T08:04:39Z</time>
</trkpt>
<trkpt lat="35.0980851" lon="32.4996767">
<ele>14.18</ele>
<time>2015-04-25T08:04:40Z</time>
</trkpt>
<trkpt lat="35.0980399" lon="32.4996460">
<ele>14.05</ele>
<time>2015-04-25T08:04:41Z</time>
</trkpt>
<trkpt lat="35.0979888" lon="32.4996086">
<ele>14.49</ele>
<time>2015-04-25T08:04:42Z</time>
</trkpt>
<trkpt lat="35.0979394" lon="32.4995664">
<ele>14.21</ele>
<time>2015-04-25T08:04:43Z</time>
</trkpt>
<trkpt lat="35.0978892" lon="32.4995306">
<ele>14.07</ele>
<time>2015-04-25T08:04:44Z</time>
</trkpt>
<trkpt lat="35.0978365" lon="32.4995010">
<ele>14.00</ele>
<time>2015-04-25T08:04:45Z</time>
</trkpt>
<trkpt lat="35.0977891" lon="32.4994675">
<ele>13.96</ele>
<time>2015-04-25T08:04:46Z</time>
</trkpt>
<trkpt lat="35.0977428" lon="32.4994354">
<ele>13.94</ele>
<time>2015-04-25T08:04:47Z</time>
</trkpt>
<trkpt lat="35.0976918" lon="32.4993993">
<ele>13.93</ele>
<time>2015-04-25T08:04:48Z</time>
</trkpt>
<trkpt lat="35.0976403" lon="32.4993634">
<ele>14.43</ele>
<time>2015-04-25T08:04:49Z</time>
</trkpt>
<trkpt lat="35.0975895" lon="32.4993272">
<ele>14.68</ele>
<time>2015-04-25T08:04:50Z</time>
</trkpt>
<trkpt lat="35.0975488" lon="32.4992970">
<ele>14.80</ele>
<time>2015-04-25T08:04:51Z</time>
</trkpt>
<trkpt lat="35.0974985" lon="32.4992639">
<ele>14.86</ele>
<time>2015-04-25T08:04:52Z</time>
</trkpt>
<trkpt lat="35.0974500" lon="32.4992318">
<ele>14.89</ele>
<time>2015-04-25T08:04:53Z</time>
</trkpt>
<trkpt lat="35.0974026" lon="32.4991999">
<ele>14.91</ele>
<time>2015-04-25T08:04:54Z</time>
</trkpt>
<trkpt lat="35.0973554" lon="32.4991630">
<ele>14.92</ele>
<time>2015-04-25T08:04:55Z</time>
</trkpt>
<trkpt lat="35.0973003" lon="32.4991298">
<ele>14.92</ele>
<time>2015-04-25T08:04:56Z</time>
</trkpt>
<trkpt lat="35.0972537" lon="32.4991058">
<ele>14.42</ele>
<time>2015-04-25T08:04:57Z</time>
</trkpt>
<trkpt lat="35.0972013" lon="32.4990757">
<ele>14.17</ele>
<time>2015-04-25T08:04:58Z</time>
</trkpt>
<trkpt lat="35.0971581" lon="32.4990307">
<ele>13.55</ele>
<time>2015-04-25T08:04:59Z</time>
</trkpt>
<trkpt lat="35.0971105" lon="32.4989930">
<ele>13.24</ele>
<time>2015-04-25T08:05:00Z</time>
</trkpt>
<trkpt lat="35.0970535" lon="32.4989601">
<ele>13.08</ele>
<time>2015-04-25T08:05:01Z</time>
</trkpt>
<trkpt lat="35.0970029" lon="32.4989266">
<ele>13.00</ele>
<time>2015-04-25T08:05:02Z</time>
</trkpt>
<trkpt lat="35.0969542" lon="32.4988890">
<ele>12.96</ele>
<time>2015-04-25T08:05:03Z</time>
</trkpt>
<trkpt lat="35.0969026" lon="32.4988525">
<ele>12.94</ele>
<time>2015-04-25T08:05:04Z</time>
</trkpt>
<trkpt lat="35.0968549" lon="32.4988184">
<ele>12.93</ele>
<time>2015-04-25T08:05:05Z</time>
</trkpt>
<trkpt lat="35.0968020" lon="32.4987807">
<ele>12.93</ele>
<time>2015-04-25T08:05:06Z</time>
</trkpt>
<trkpt lat="35.0967586" lon="32.4987428">
<ele>13.43</ele>
<time>2015-04-25T08:05:07Z</time>
</trkpt>
<trkpt lat="35.0967104" lon="32.4987055">
<ele>13.68</ele>
<time>2015-04-25T08:05:08Z</time>
</trkpt>
<trkpt lat="35.0966546" lon="32.4986716">
<ele>13.80</ele>
<time>2015-04-25T08:05:09Z</time>
</trkpt>
<trkpt lat="35.0966080" lon="32.4986423">
<ele>13.86</ele>
<time>2015-04-25T08:05:10Z</time>
</trkpt>
<trkpt lat="35.0965600" lon="32.4986169">
<ele>13.89</ele>
<time>2015-04-25T08:05:11Z</time>
</trkpt>
<trkpt lat="35.0965104" lon="32.4985845">
<ele>13.91</ele>
<time>2015-04-25T08:05:12Z</time>
</trkpt>
<trkpt lat="35.0964587" lon="32.4985489">
<ele>13.42</ele>
<time>2015-04-25T08:05:13Z</time>
</trkpt>
<trkpt lat="35.0964101" lon="32.4985119">
<ele>13.17</ele>
<time>2015-04-25T08:05:14Z</time>
</trkpt>
<trkpt lat="35.0963602" lon="32.4984806">
<ele>13.05</ele>
<time>2015-04-25T08:05:15Z</time>
</trkpt>
<trkpt lat="35.0963112" lon="32.4984440">
<ele>12.99</ele>
<time>2015-04-25T08:05:16Z</time>
</trkpt>
<trkpt lat="35.0962672" lon="32.4984127">
<ele>13.46</ele>
<time>2015-04-25T08:05:17Z</time>
</trkpt>
<trkpt lat="35.0962261" lon="32.4983834">
<ele>13.69</ele>
<time>2015-04-25T08:05:18Z</time>
</trkpt>
<trkpt lat="35.0961722" lon="32.4983543">
<ele>13.81</ele>
<time>2015-04-25T08:05:19Z</time>
</trkpt>
<trkpt lat="35.0961222" lon="32.4983156">
<ele>13.87</ele>
<time>2015-04-25T08:05:20Z</time>
</trkpt>
<trkpt lat="35.0960753" lon="32.4982858">
<ele>13.90</ele>
<time>2015-04-25T08:05:21Z</time>
</trkpt>
<trkpt lat="35.0960278" lon="32.4982491">
<ele>14.41</ele>
<time>2015-04-25T08:05:22Z</time>
</trkpt>
<trkpt lat="35.0959816" lon="32.4982231">
<ele>14.17</ele>
<time>2015-04-25T08:05:23Z</time>
</trkpt>
<trkpt lat="35.0959325" lon="32.4981938">
<ele>14.55</ele>
<time>2015-04-25T08:05:24Z</time>
</trkpt>
<trkpt lat="35.0958818" lon="32.4981635">
<ele>14.74</ele>
<time>2015-04-25T08:05:25Z</time>
</trkpt>
<trkpt lat="35.0958416" lon="32.4981332">
<ele>14.83</ele>
<time>2015-04-25T08:05:26Z</time>
</trkpt>
<trkpt lat="35.0957952" lon="32.4981011">
<ele>14.88</ele>
<time>2015-04-25T08:05:27Z</time>
</trkpt>
<trkpt lat="35.0957471" lon="32.4980717">
<ele>14.90</ele>
<time>2015-04-25T08:05:28Z</time>
</trkpt>
<trkpt lat="35.0956999" lon="32.4980439">
<ele>14.91</ele>
<time>2015-04-25T08:05:29Z</time>
</trkpt>
<trkpt lat="35.0956521" lon="32.4980144">
<ele>14.92</ele>
<time>2015-04-25T08:05:30Z</time>
</trkpt>
<trkpt lat="35.0955980" lon="32.4979860">
<ele>14.92</ele>
<time>2015-04-25T08:05:31Z</time>
</trkpt>
<trkpt lat="35.0955493" lon="32.4979544">
<ele>14.92</ele>
<time>2015-04-25T08:05:32Z</time>
</trkpt>
<trkpt lat="35.0955045" lon="32.4979238">
<ele>14.92</ele>
<time>2015-04-25T08:05:33Z</time>
</trkpt>
<trkpt lat="35.0954528" lon="32.4978984">
<ele>14.92</ele>
<time>2015-04-25T08:05:34Z</time>
</trkpt>
<trkpt lat="35.0953990" lon="32.4978732">
<ele>14.92</ele>
<time>2015-04-25T08:05:35Z</time>
</trkpt>
<trkpt lat="35.0953468" lon="32.4978443">
<ele>14.92</ele>
<time>2015-04-25T08:05:36Z</time>
</trkpt>
<trkpt lat="35.0953060" lon="32.4978197">
<ele>14.92</ele>
<time>2015-04-25T08:05:37Z</time>
</trkpt>
<trkpt lat="35.0952631" lon="32.4977979">
<ele>14.92</ele>
<time>2015-04-25T08:05:38Z</time>
</trkpt>
<trkpt lat="35.0952160" lon="32.4977732">
<ele>14.92</ele>
<time>2015-04-25T08:05:39Z</time>
</trkpt>
<trkpt lat="35.0951706" lon="32.4977513">
<ele>14.92</ele>
<time>2015-04-25T08:05:40Z</time>
</trkpt>
<trkpt lat="35.0951120" lon="32.4977212">
<ele>15.42</ele>
<time>2015-04-25T08:05:41Z</time>
</trkpt>
<trkpt lat="35.0950660" lon="32.4976901">
<ele>15.17</ele>
<time>2015-04-25T08:05:42Z</time>
</trkpt>
<trkpt lat="35.0950174" lon="32.4976669">
<ele>15.05</ele>
<time>2015-04-25T08:05:43Z</time>
</trkpt>
<trkpt lat="35.0949627" lon="32.4976368">
<ele>14.99</ele>
<time>2015-04-25T08:05:44Z</time>
</trkpt>
<trkpt lat="35.0949126" lon="32.4976112">
<ele>14.96</ele>
<time>2015-04-25T08:05:45Z</time>
</trkpt>
<trkpt lat="35.0948652" lon="32.4975829">
<ele>14.94</ele>
<time>2015-04-25T08:05:46Z</time>
</trkpt>
<trkpt lat="35.0948176" lon="32.4975539">
<ele>14.93</ele>
<time>2015-04-25T08:05:47Z</time>
</trkpt>
<trkpt lat="35.0947666" lon="32.4975269">
<ele>14.93</ele>
<time>2015-04-25T08:05:48Z</time>
</trkpt>
<trkpt lat="35.0947197" lon="32.4975011">
<ele>14.43</ele>
<time>2015-04-25T08:05:49Z</time>
</trkpt>
<trkpt lat="35.0946726" lon="32.4974767">
<ele>14.68</ele>
<time>2015-04-25T08:05:50Z</time>
</trkpt>
<trkpt lat="35.0946248" lon="32.4974429">
<ele>14.30</ele>
<time>2015-04-25T08:05:51Z</time>
</trkpt>
<trkpt lat="35.0945748" lon="32.4974087">
<ele>14.11</ele>
<time>2015-04-25T08:05:52Z</time>
</trkpt>
<trkpt lat="35.0945276" lon="32.4973816">
<ele>14.02</ele>
<time>2015-04-25T08:05:53Z</time>
</trkpt>
<trkpt lat="35.0944777" lon="32.4973532">
<ele>13.97</ele>
<time>2015-04-25T08:05:54Z</time>
</trkpt>
<trkpt lat="35.0944305" lon="32.4973289">
<ele>14.45</ele>
<time>2015-04-25T08:05:55Z</time>
</trkpt>
<trkpt lat="35.0943812" lon="32.4972997">
<ele>14.69</ele>
<time>2015-04-25T08:05:56Z</time>
</trkpt>
<trkpt lat="35.0943298" lon="32.4972687">
<ele>14.81</ele>
<time>2015-04-25T08:05:57Z</time>
</trkpt>
<trkpt lat="35.0942823" lon="32.4972400">
<ele>14.87</ele>
<time>2015-04-25T08:05:58Z</time>
</trkpt>
<trkpt lat="35.0942333" lon="32.4972107">
<ele>14.90</ele>
<time>2015-04-25T08:05:59Z</time>
</trkpt>
<trkpt lat="35.0941832" lon="32.4971810">
<ele>14.91</ele>
<time>2015-04-25T08:06:00Z</time>
</trkpt>
<trkpt lat="35.0941343" lon="32.4971596">
<ele>14.92</ele>
<time>2015-04-25T08:06:01Z</time>
</trkpt>
<trkpt lat="35.0940829" lon="32.4971335">
<ele>14.92</ele>
<time>2015-04-25T08:06:02Z</time>
</trkpt>
<trkpt lat="35.0940366" lon="32.4971007">
<ele>14.92</ele>
<time>2015-04-25T08:06:03Z</time>
</trkpt>
<trkpt lat="35.0939872" lon="32.4970707">
<ele>14.92</ele>
<time>2015-04-25T08:06:04Z</time>
</trkpt>
<trkpt lat="35.0939366" lon="32.4970417">
<ele>15.42</ele>
<time>2015-04-25T08:06:05Z</time>
</trkpt>
<trkpt lat="35.0938862" lon="32.4970109">
<ele>15.67</ele>
<time>2015-04-25T08:06:06Z</time>
</trkpt>
<trkpt lat="35.0938348" lon="32.4969722">
<ele>15.80</ele>
<time>2015-04-25T08:06:07Z</time>
</trkpt>
<trkpt lat="35.0937827" lon="32.4969366">
<ele>16.36</ele>
<time>2015-04-25T08:06:08Z</time>
</trkpt>
<trkpt lat="35.0937346" lon="32.4968984">
<ele>16.14</ele>
<time>2015-04-25T08:06:09Z</time>
</trkpt>
<trkpt lat="35.0936848" lon="32.4968594">
<ele>16.03</ele>
<time>2015-04-25T08:06:10Z</time>
</trkpt>
<trkpt lat="35.0936399" lon="32.4968230">
<ele>15.98</ele>
<time>2015-04-25T08:06:11Z</time>
</trkpt>
<trkpt lat="35.0935920" lon="32.4967848">
<ele>15.95</ele>
<time>2015-04-25T08:06:12Z</time>
</trkpt>
<trkpt lat="35.0935387" lon="32.4967449">
<ele>16.44</ele>
<time>2015-04-25T08:06:13Z</time>
</trkpt>
<trkpt lat="35.0934935" lon="32.4967060">
<ele>16.68</ele>
<time>2015-04-25T08:06:14Z</time>
</trkpt>
<trkpt lat="35.0934456" lon="32.4966712">
<ele>16.30</ele>
<time>2015-04-25T08:06:15Z</time>
</trkpt>
<trkpt lat="35.0933970" lon="32.4966314">
<ele>16.11</ele>
<time>2015-04-25T08:06:16Z</time>
</trkpt>
<trkpt lat="35.0933507" lon="32.4965992">
<ele>16.02</ele>
<time>2015-04-25T08:06:17Z</time>
</trkpt>
<trkpt lat="35.0933030" lon="32.4965592">
<ele>15.97</ele>
<time>2015-04-25T08:06:18Z</time>
</trkpt>
<trkpt lat="35.0932580" lon="32.4965163">
<ele>15.95</ele>
<time>2015-04-25T08:06:19Z</time>
</trkpt>
<trkpt lat="35.0932073" lon="32.4964760">
<ele>15.94</ele>
<time>2015-04-25T08:06:20Z</time>
</trkpt>
<trkpt lat="35.0931558" lon="32.4964339">
<ele>15.93</ele>
<time>2015-04-25T08:06:21Z</time>
</trkpt>
<trkpt lat="35.0931103" lon="32.4963963">
<ele>15.93</ele>
<time>2015-04-25T08:06:22Z</time>
</trkpt>
<trkpt lat="35.0930669" lon="32.4963574">
<ele>15.93</ele>
<time>2015-04-25T08:06:23Z</time>
</trkpt>
<trkpt lat="35.0930184" lon="32.4963168">
<ele>15.93</ele>
<time>2015-04-25T08:06:24Z</time>
</trkpt>
<trkpt lat="35.0929684" lon="32.4962858">
<ele>15.93</ele>
<time>2015-04-25T08:06:25Z</time>
</trkpt>
<trkpt lat="35.0929199" lon="32.4962465">
<ele>15.93</ele>
<time>2015-04-25T08:06:26Z</time>
</trkpt>
<trkpt lat="35.0928756" lon="32.4962060">
<ele>15.93</ele>
<time>2015-04-25T08:06:27Z</time>
</trkpt>
<trkpt lat="35.0928287" lon="32.4961666">
<ele>15.93</ele>
<time>2015-04-25T08:06:28Z</time>
</trkpt>
<trkpt lat="35.0927875" lon="32.4961341">
<ele>15.93</ele>
<time>2015-04-25T08:06:29Z</time>
</trkpt>
<trkpt lat="35.0927492" lon="32.4961021">
<ele>15.43</ele>
<time>2015-04-25T08:06:30Z</time>
</trkpt>
<trkpt lat="35.0927144" lon="32.4960616">
<ele>15.68</ele>
<time>2015-04-25T08:06:31Z</time>
</trkpt>
<trkpt lat="35.0926707" lon="32.4960266">
<ele>15.80</ele>
<time>2015-04-25T08:06:32Z</time>
</trkpt>
<trkpt lat="35.0926218" lon="32.4959876">
<ele>15.36</ele>
<time>2015-04-25T08:06:33Z</time>
</trkpt>
<trkpt lat="35.0925745" lon="32.4959480">
<ele>15.14</ele>
<time>2015-04-25T08:06:34Z</time>
</trkpt>
<trkpt lat="35.0925267" lon="32.4959177">
<ele>15.03</ele>
<time>2015-04-25T08:06:35Z</time>
</trkpt>
<trkpt lat="35.0924786" lon="32.4958781">
<ele>14.98</ele>
<time>2015-04-25T08:06:36Z</time>
</trkpt>
<trkpt lat="35.0924249" lon="32.4958408">
<ele>14.95</ele>
<time>2015-04-25T08:06:37Z</time>
</trkpt>
<trkpt lat="35.0923791" lon="32.4958034">
<ele>14.94</ele>
<time>2015-04-25T08:06:38Z</time>
</trkpt>
<trkpt lat="35.0923396" lon="32.4957604">
<ele>14.93</ele>
<time>2015-04-25T08:06:39Z</time>
</trkpt>
<trkpt lat="35.0922922" lon="32.4957225">
<ele>14.93</ele>
<time>2015-04-25T08:06:40Z</time>
</trkpt>
<trkpt lat="35.0922503" lon="32.4956762">
<ele>14.93</ele>
<time>2015-04-25T08:06:41Z</time>
</trkpt>
<trkpt lat="35.0922057" lon="32.4956383">
<ele>14.93</ele>
<time>2015-04-25T08:06:42Z</time>
</trkpt>
<trkpt lat="35.0921612" lon="32.4955983">
<ele>14.93</ele>
<time>2015-04-25T08:06:43Z</time>
</trkpt>
<trkpt lat="35.0921149" lon="32.4955578">
<ele>14.93</ele>
<time>2015-04-25T08:06:44Z</time>
</trkpt>
<trkpt lat="35.0920646" lon="32.4955198">
<ele>14.93</ele>
<time>2015-04-25T08:06:45Z</time>
</trkpt>
<trkpt lat="35.0920197" lon="32.4954827">
<ele>14.93</ele>
<time>2015-04-25T08:06:46Z</time>
</trkpt>
<trkpt lat="35.0919688" lon="32.4954398">
<ele>14.93</ele>
<time>2015-04-25T08:06:47Z</time>
</trkpt>
<trkpt lat="35.0919177" lon="32.4953954">
<ele>14.93</ele>
<time>2015-04-25T08:06:48Z</time>
</trkpt>
<trkpt lat="35.0918701" lon="32.4953549">
<ele>14.93</ele>
<time>2015-04-25T08:06:49Z</time>
</trkpt>
<trkpt lat="35.0918192" lon="32.4953109">
<ele>14.93</ele>
<time>2015-04-25T08:06:50Z</time>
</trkpt>
<trkpt lat="35.0917756" lon="32.4952682">
<ele>14.93</ele>
<time>2015-04-25T08:06:51Z</time>
</trkpt>
<trkpt lat="35.0917254" lon="32.4952232">
<ele>14.93</ele>
<time>2015-04-25T08:06:52Z</time>
</trkpt>
<trkpt lat="35.0916761" lon="32.4951770">
<ele>14.93</ele>
<time>2015-04-25T08:06:53Z</time>
</trkpt>
<trkpt lat="35.0916290" lon="32.4951353">
<ele>14.93</ele>
<time>2015-04-25T08:06:54Z</time>
</trkpt>
<trkpt lat="35.0915765" lon="32.4950938">
<ele>15.43</ele>
<time>2015-04-25T08:06:55Z</time>
</trkpt>
<trkpt lat="35.0915246" lon="32.4950495">
<ele>15.68</ele>
<time>2015-04-25T08:06:56Z</time>
</trkpt>
<trkpt lat="35.0914800" lon="32.4950051">
<ele>15.80</ele>
<time>2015-04-25T08:06:57Z</time>
</trkpt>
<trkpt lat="35.0914314" lon="32.4949606">
<ele>15.86</ele>
<time>2015-04-25T08:06:58Z</time>
</trkpt>
<trkpt lat="35.0913765" lon="32.4949191">
<ele>15.39</ele>
<time>2015-04-25T08:06:59Z</time>
</trkpt>
<trkpt lat="35.0913231" lon="32.4948712">
<ele>15.16</ele>
<time>2015-04-25T08:07:00Z</time>
</trkpt>
<trkpt lat="35.0912750" lon="32.4948262">
<ele>15.04</ele>
<time>2015-04-25T08:07:01Z</time>
</trkpt>
<trkpt lat="35.0912317" lon="32.4947808">
<ele>14.98</ele>
<time>2015-04-25T08:07:02Z</time>
</trkpt>
<trkpt lat="35.0911857" lon="32.4947376">
<ele>15.45</ele>
<time>2015-04-25T08:07:03Z</time>
</trkpt>
<trkpt lat="35.0910979" lon="32.4946592">
<ele>15.06</ele>
<time>2015-04-25T08:07:05Z</time>
</trkpt>
<trkpt lat="35.0910504" lon="32.4946145">
<ele>15.49</ele>
<time>2015-04-25T08:07:06Z</time>
</trkpt>
<trkpt lat="35.0909997" lon="32.4945805">
<ele>15.21</ele>
<time>2015-04-25T08:07:07Z</time>
</trkpt>
<trkpt lat="35.0909511" lon="32.4945439">
<ele>15.57</ele>
<time>2015-04-25T08:07:08Z</time>
</trkpt>
<trkpt lat="35.0909119" lon="32.4945096">
<ele>16.25</ele>
<time>2015-04-25T08:07:09Z</time>
</trkpt>
<trkpt lat="35.0908630" lon="32.4944653">
<ele>16.59</ele>
<time>2015-04-25T08:07:10Z</time>
</trkpt>
<trkpt lat="35.0908280" lon="32.4944299">
<ele>16.76</ele>
<time>2015-04-25T08:07:11Z</time>
</trkpt>
<trkpt lat="35.0907917" lon="32.4943910">
<ele>16.84</ele>
<time>2015-04-25T08:07:12Z</time>
</trkpt>
<trkpt lat="35.0907535" lon="32.4943559">
<ele>16.88</ele>
<time>2015-04-25T08:07:13Z</time>
</trkpt>
<trkpt lat="35.0907163" lon="32.4943178">
<ele>16.90</ele>
<time>2015-04-25T08:07:14Z</time>
</trkpt>
<trkpt lat="35.0906386" lon="32.4942526">
<ele>18.42</ele>
<time>2015-04-25T08:07:16Z</time>
</trkpt>
<trkpt lat="35.0905886" lon="32.4942093">
<ele>18.17</ele>
<time>2015-04-25T08:07:17Z</time>
</trkpt>
<trkpt lat="35.0905505" lon="32.4941763">
<ele>18.05</ele>
<time>2015-04-25T08:07:18Z</time>
</trkpt>
<trkpt lat="35.0905140" lon="32.4941381">
<ele>17.99</ele>
<time>2015-04-25T08:07:19Z</time>
</trkpt>
<trkpt lat="35.0904775" lon="32.4940997">
<ele>17.96</ele>
<time>2015-04-25T08:07:20Z</time>
</trkpt>
<trkpt lat="35.0904404" lon="32.4940640">
<ele>17.44</ele>
<time>2015-04-25T08:07:21Z</time>
</trkpt>
<trkpt lat="35.0903984" lon="32.4940306">
<ele>17.18</ele>
<time>2015-04-25T08:07:22Z</time>
</trkpt>
<trkpt lat="35.0903206" lon="32.4939640">
<ele>17.74</ele>
<time>2015-04-25T08:07:24Z</time>
</trkpt>
<trkpt lat="35.0902821" lon="32.4939322">
<ele>18.33</ele>
<time>2015-04-25T08:07:25Z</time>
</trkpt>
<trkpt lat="35.0902434" lon="32.4938945">
<ele>18.63</ele>
<time>2015-04-25T08:07:26Z</time>
</trkpt>
<trkpt lat="35.0902046" lon="32.4938465">
<ele>19.28</ele>
<time>2015-04-25T08:07:27Z</time>
</trkpt>
<trkpt lat="35.0901625" lon="32.4938038">
<ele>19.10</ele>
<time>2015-04-25T08:07:28Z</time>
</trkpt>
<trkpt lat="35.0901229" lon="32.4937579">
<ele>19.01</ele>
<time>2015-04-25T08:07:29Z</time>
</trkpt>
<trkpt lat="35.0900873" lon="32.4937065">
<ele>18.97</ele>
<time>2015-04-25T08:07:30Z</time>
</trkpt>
<trkpt lat="35.0900441" lon="32.4936753">
<ele>18.95</ele>
<time>2015-04-25T08:07:31Z</time>
</trkpt>
<trkpt lat="35.0899993" lon="32.4936391">
<ele>18.44</ele>
<time>2015-04-25T08:07:32Z</time>
</trkpt>
<trkpt lat="35.0899555" lon="32.4935985">
<ele>18.18</ele>
<time>2015-04-25T08:07:33Z</time>
</trkpt>
<trkpt lat="35.0899144" lon="32.4935586">
<ele>18.05</ele>
<time>2015-04-25T08:07:34Z</time>
</trkpt>
<trkpt lat="35.0898718" lon="32.4935109">
<ele>17.99</ele>
<time>2015-04-25T08:07:35Z</time>
</trkpt>
<trkpt lat="35.0898244" lon="32.4934677">
<ele>17.96</ele>
<time>2015-04-25T08:07:36Z</time>
</trkpt>
<trkpt lat="35.0897769" lon="32.4934401">
<ele>17.94</ele>
<time>2015-04-25T08:07:37Z</time>
</trkpt>
<trkpt lat="35.0897293" lon="32.4933953">
<ele>17.93</ele>
<time>2015-04-25T08:07:38Z</time>
</trkpt>
<trkpt lat="35.0896841" lon="32.4933666">
<ele>18.43</ele>
<time>2015-04-25T08:07:39Z</time>
</trkpt>
<trkpt lat="35.0896320" lon="32.4933123">
<ele>18.68</ele>
<time>2015-04-25T08:07:40Z</time>
</trkpt>
<trkpt lat="35.0895798" lon="32.4932701">
<ele>19.30</ele>
<time>2015-04-25T08:07:41Z</time>
</trkpt>
<trkpt lat="35.0895438" lon="32.4932312">
<ele>19.11</ele>
<time>2015-04-25T08:07:42Z</time>
</trkpt>
<trkpt lat="35.0894974" lon="32.4931877">
<ele>19.02</ele>
<time>2015-04-25T08:07:43Z</time>
</trkpt>
<trkpt lat="35.0894573" lon="32.4931460">
<ele>18.47</ele>
<time>2015-04-25T08:07:44Z</time>
</trkpt>
<trkpt lat="35.0894176" lon="32.4931068">
<ele>18.20</ele>
<time>2015-04-25T08:07:45Z</time>
</trkpt>
<trkpt lat="35.0893815" lon="32.4930593">
<ele>18.06</ele>
<time>2015-04-25T08:07:46Z</time>
</trkpt>
<trkpt lat="35.0893420" lon="32.4930214">
<ele>17.49</ele>
<time>2015-04-25T08:07:47Z</time>
</trkpt>
<trkpt lat="35.0893029" lon="32.4929831">
<ele>17.21</ele>
<time>2015-04-25T08:07:48Z</time>
</trkpt>
<trkpt lat="35.0892524" lon="32.4929478">
<ele>17.07</ele>
<time>2015-04-25T08:07:49Z</time>
</trkpt>
<trkpt lat="35.0892066" lon="32.4929057">
<ele>16.50</ele>
<time>2015-04-25T08:07:50Z</time>
</trkpt>
<trkpt lat="35.0891599" lon="32.4928699">
<ele>16.21</ele>
<time>2015-04-25T08:07:51Z</time>
</trkpt>
<trkpt lat="35.0891180" lon="32.4928285">
<ele>16.07</ele>
<time>2015-04-25T08:07:52Z</time>
</trkpt>
<trkpt lat="35.0890682" lon="32.4927950">
<ele>15.50</ele>
<time>2015-04-25T08:07:53Z</time>
</trkpt>
<trkpt lat="35.0889998" lon="32.4927238">
<ele>15.07</ele>
<time>2015-04-25T08:07:55Z</time>
</trkpt>
<trkpt lat="35.0889577" lon="32.4926848">
<ele>15.00</ele>
<time>2015-04-25T08:07:56Z</time>
</trkpt>
<trkpt lat="35.0888855" lon="32.4926088">
<ele>15.69</ele>
<time>2015-04-25T08:07:58Z</time>
</trkpt>
<trkpt lat="35.0888394" lon="32.4925619">
<ele>16.31</ele>
<time>2015-04-25T08:07:59Z</time>
</trkpt>
<trkpt lat="35.0887992" lon="32.4925180">
<ele>16.12</ele>
<time>2015-04-25T08:08:00Z</time>
</trkpt>
<trkpt lat="35.0887515" lon="32.4924789">
<ele>16.02</ele>
<time>2015-04-25T08:08:01Z</time>
</trkpt>
<trkpt lat="35.0887017" lon="32.4924488">
<ele>15.97</ele>
<time>2015-04-25T08:08:02Z</time>
</trkpt>
<trkpt lat="35.0886646" lon="32.4924081">
<ele>16.45</ele>
<time>2015-04-25T08:08:03Z</time>
</trkpt>
<trkpt lat="35.0886220" lon="32.4923637">
<ele>16.19</ele>
<time>2015-04-25T08:08:04Z</time>
</trkpt>
<trkpt lat="35.0885820" lon="32.4923292">
<ele>16.56</ele>
<time>2015-04-25T08:08:05Z</time>
</trkpt>
<trkpt lat="35.0885414" lon="32.4922969">
<ele>17.24</ele>
<time>2015-04-25T08:08:06Z</time>
</trkpt>
<trkpt lat="35.0884987" lon="32.4922561">
<ele>18.08</ele>
<time>2015-04-25T08:08:07Z</time>
</trkpt>
<trkpt lat="35.0884512" lon="32.4922205">
<ele>18.50</ele>
<time>2015-04-25T08:08:08Z</time>
</trkpt>
<trkpt lat="35.0884104" lon="32.4921843">
<ele>18.71</ele>
<time>2015-04-25T08:08:09Z</time>
</trkpt>
<trkpt lat="35.0883648" lon="32.4921482">
<ele>19.32</ele>
<time>2015-04-25T08:08:10Z</time>
</trkpt>
<trkpt lat="35.0883228" lon="32.4921192">
<ele>19.62</ele>
<time>2015-04-25T08:08:11Z</time>
</trkpt>
<trkpt lat="35.0882688" lon="32.4920808">
<ele>19.77</ele>
<time>2015-04-25T08:08:12Z</time>
</trkpt>
<trkpt lat="35.0882233" lon="32.4920353">
<ele>19.35</ele>
<time>2015-04-25T08:08:13Z</time>
</trkpt>
<trkpt lat="35.0881786" lon="32.4920041">
<ele>19.64</ele>
<time>2015-04-25T08:08:14Z</time>
</trkpt>
<trkpt lat="35.0881245" lon="32.4919624">
<ele>19.78</ele>
<time>2015-04-25T08:08:15Z</time>
</trkpt>
<trkpt lat="35.0880785" lon="32.4919276">
<ele>19.85</ele>
<time>2015-04-25T08:08:16Z</time>
</trkpt>
<trkpt lat="35.0880249" lon="32.4918954">
<ele>19.89</ele>
<time>2015-04-25T08:08:17Z</time>
</trkpt>
<trkpt lat="35.0879717" lon="32.4918614">
<ele>19.91</ele>
<time>2015-04-25T08:08:18Z</time>
</trkpt>
<trkpt lat="35.0879230" lon="32.4918259">
<ele>19.92</ele>
<time>2015-04-25T08:08:19Z</time>
</trkpt>
<trkpt lat="35.0878745" lon="32.4917920">
<ele>19.42</ele>
<time>2015-04-25T08:08:20Z</time>
</trkpt>
<trkpt lat="35.0878225" lon="32.4917577">
<ele>19.17</ele>
<time>2015-04-25T08:08:21Z</time>
</trkpt>
<trkpt lat="35.0877792" lon="32.4917327">
<ele>19.05</ele>
<time>2015-04-25T08:08:22Z</time>
</trkpt>
<trkpt lat="35.0877262" lon="32.4917041">
<ele>18.99</ele>
<time>2015-04-25T08:08:23Z</time>
</trkpt>
<trkpt lat="35.0876451" lon="32.4916520">
<ele>19.69</ele>
<time>2015-04-25T08:08:25Z</time>
</trkpt>
<trkpt lat="35.0876044" lon="32.4916185">
<ele>20.31</ele>
<time>2015-04-25T08:08:26Z</time>
</trkpt>
<trkpt lat="35.0875651" lon="32.4915895">
<ele>20.62</ele>
<time>2015-04-25T08:08:27Z</time>
</trkpt>
<trkpt lat="35.0875166" lon="32.4915564">
<ele>20.77</ele>
<time>2015-04-25T08:08:28Z</time>
</trkpt>
<trkpt lat="35.0874287" lon="32.4914925">
<ele>20.39</ele>
<time>2015-04-25T08:08:30Z</time>
</trkpt>
<trkpt lat="35.0873829" lon="32.4914510">
<ele>20.16</ele>
<time>2015-04-25T08:08:31Z</time>
</trkpt>
<trkpt lat="35.0873113" lon="32.4913827">
<ele>18.98</ele>
<time>2015-04-25T08:08:33Z</time>
</trkpt>
<trkpt lat="35.0872596" lon="32.4913526">
<ele>18.95</ele>
<time>2015-04-25T08:08:34Z</time>
</trkpt>
<trkpt lat="35.0872135" lon="32.4913220">
<ele>18.94</ele>
<time>2015-04-25T08:08:35Z</time>
</trkpt>
<trkpt lat="35.0871614" lon="32.4912896">
<ele>19.43</ele>
<time>2015-04-25T08:08:36Z</time>
</trkpt>
<trkpt lat="35.0871149" lon="32.4912568">
<ele>19.18</ele>
<time>2015-04-25T08:08:37Z</time>
</trkpt>
<trkpt lat="35.0870717" lon="32.4912215">
<ele>19.05</ele>
<time>2015-04-25T08:08:38Z</time>
</trkpt>
<trkpt lat="35.0870282" lon="32.4911888">
<ele>18.99</ele>
<time>2015-04-25T08:08:39Z</time>
</trkpt>
<trkpt lat="35.0869754" lon="32.4911473">
<ele>18.96</ele>
<time>2015-04-25T08:08:40Z</time>
</trkpt>
<trkpt lat="35.0869311" lon="32.4911209">
<ele>18.94</ele>
<time>2015-04-25T08:08:41Z</time>
</trkpt>
<trkpt lat="35.0868538" lon="32.4910669">
<ele>19.68</ele>
<time>2015-04-25T08:08:43Z</time>
</trkpt>
<trkpt lat="35.0868067" lon="32.4910261">
<ele>19.30</ele>
<time>2015-04-25T08:08:44Z</time>
</trkpt>
<trkpt lat="35.0867550" lon="32.4909917">
<ele>19.11</ele>
<time>2015-04-25T08:08:45Z</time>
</trkpt>
<trkpt lat="35.0867110" lon="32.4909515">
<ele>19.02</ele>
<time>2015-04-25T08:08:46Z</time>
</trkpt>
<trkpt lat="35.0866588" lon="32.4909124">
<ele>18.97</ele>
<time>2015-04-25T08:08:47Z</time>
</trkpt>
<trkpt lat="35.0866126" lon="32.4908747">
<ele>18.45</ele>
<time>2015-04-25T08:08:48Z</time>
</trkpt>
<trkpt lat="35.0865757" lon="32.4908426">
<ele>18.69</ele>
<time>2015-04-25T08:08:49Z</time>
</trkpt>
<trkpt lat="35.0865284" lon="32.4908058">
<ele>18.81</ele>
<time>2015-04-25T08:08:50Z</time>
</trkpt>
<trkpt lat="35.0864503" lon="32.4907476">
<ele>20.15</ele>
<time>2015-04-25T08:08:52Z</time>
</trkpt>
<trkpt lat="35.0864103" lon="32.4907117">
<ele>20.54</ele>
<time>2015-04-25T08:08:53Z</time>
</trkpt>
<trkpt lat="35.0863678" lon="32.4906717">
<ele>20.23</ele>
<time>2015-04-25T08:08:54Z</time>
</trkpt>
<trkpt lat="35.0863204" lon="32.4906323">
<ele>20.08</ele>
<time>2015-04-25T08:08:55Z</time>
</trkpt>
<trkpt lat="35.0862802" lon="32.4906056">
<ele>20.00</ele>
<time>2015-04-25T08:08:56Z</time>
</trkpt>
<trkpt lat="35.0862357" lon="32.4905671">
<ele>19.96</ele>
<time>2015-04-25T08:08:57Z</time>
</trkpt>
<trkpt lat="35.0861943" lon="32.4905245">
<ele>19.94</ele>
<time>2015-04-25T08:08:58Z</time>
</trkpt>
<trkpt lat="35.0861082" lon="32.4904555">
<ele>20.18</ele>
<time>2015-04-25T08:09:00Z</time>
</trkpt>
<trkpt lat="35.0860675" lon="32.4904155">
<ele>20.05</ele>
<time>2015-04-25T08:09:01Z</time>
</trkpt>
<trkpt lat="35.0860249" lon="32.4903827">
<ele>19.99</ele>
<time>2015-04-25T08:09:02Z</time>
</trkpt>
<trkpt lat="35.0859822" lon="32.4903461">
<ele>20.46</ele>
<time>2015-04-25T08:09:03Z</time>
</trkpt>
<trkpt lat="35.0859390" lon="32.4903084">
<ele>20.69</ele>
<time>2015-04-25T08:09:04Z</time>
</trkpt>
<trkpt lat="35.0858948" lon="32.4902687">
<ele>20.81</ele>
<time>2015-04-25T08:09:05Z</time>
</trkpt>
<trkpt lat="35.0858455" lon="32.4902271">
<ele>20.37</ele>
<time>2015-04-25T08:09:06Z</time>
</trkpt>
<trkpt lat="35.0858105" lon="32.4901912">
<ele>20.15</ele>
<time>2015-04-25T08:09:07Z</time>
</trkpt>
<trkpt lat="35.0857688" lon="32.4901418">
<ele>20.04</ele>
<time>2015-04-25T08:09:08Z</time>
</trkpt>
<trkpt lat="35.0857266" lon="32.4901086">
<ele>20.48</ele>
<time>2015-04-25T08:09:09Z</time>
</trkpt>
<trkpt lat="35.0856870" lon="32.4900698">
<ele>20.20</ele>
<time>2015-04-25T08:09:10Z</time>
</trkpt>
<trkpt lat="35.0856429" lon="32.4900352">
<ele>20.06</ele>
<time>2015-04-25T08:09:11Z</time>
</trkpt>
<trkpt lat="35.0856021" lon="32.4899958">
<ele>19.49</ele>
<time>2015-04-25T08:09:12Z</time>
</trkpt>
<trkpt lat="35.0855568" lon="32.4899569">
<ele>19.71</ele>
<time>2015-04-25T08:09:13Z</time>
</trkpt>
<trkpt lat="35.0855202" lon="32.4899144">
<ele>19.82</ele>
<time>2015-04-25T08:09:14Z</time>
</trkpt>
<trkpt lat="35.0854812" lon="32.4898767">
<ele>19.87</ele>
<time>2015-04-25T08:09:15Z</time>
</trkpt>
<trkpt lat="35.0854390" lon="32.4898306">
<ele>19.90</ele>
<time>2015-04-25T08:09:16Z</time>
</trkpt>
<trkpt lat="35.0854004" lon="32.4897910">
<ele>19.41</ele>
<time>2015-04-25T08:09:17Z</time>
</trkpt>
<trkpt lat="35.0853582" lon="32.4897492">
<ele>19.17</ele>
<time>2015-04-25T08:09:18Z</time>
</trkpt>
<trkpt lat="35.0853101" lon="32.4897148">
<ele>19.05</ele>
<time>2015-04-25T08:09:19Z</time>
</trkpt>
<trkpt lat="35.0852701" lon="32.4896698">
<ele>19.49</ele>
<time>2015-04-25T08:09:20Z</time>
</trkpt>
<trkpt lat="35.0852265" lon="32.4896336">
<ele>19.71</ele>
<time>2015-04-25T08:09:21Z</time>
</trkpt>
<trkpt lat="35.0851845" lon="32.4895903">
<ele>19.82</ele>
<time>2015-04-25T08:09:22Z</time>
</trkpt>
<trkpt lat="35.0851378" lon="32.4895600">
<ele>19.87</ele>
<time>2015-04-25T08:09:23Z</time>
</trkpt>
<trkpt lat="35.0850846" lon="32.4895112">
<ele>19.90</ele>
<time>2015-04-25T08:09:24Z</time>
</trkpt>
<trkpt lat="35.0850393" lon="32.4894680">
<ele>19.91</ele>
<time>2015-04-25T08:09:25Z</time>
</trkpt>
<trkpt lat="35.0849893" lon="32.4894209">
<ele>19.42</ele>
<time>2015-04-25T08:09:26Z</time>
</trkpt>
<trkpt lat="35.0849438" lon="32.4893804">
<ele>18.67</ele>
<time>2015-04-25T08:09:27Z</time>
</trkpt>
<trkpt lat="35.0849059" lon="32.4893497">
<ele>18.80</ele>
<time>2015-04-25T08:09:28Z</time>
</trkpt>
<trkpt lat="35.0848613" lon="32.4893077">
<ele>19.36</ele>
<time>2015-04-25T08:09:29Z</time>
</trkpt>
<trkpt lat="35.0848245" lon="32.4892742">
<ele>19.14</ele>
<time>2015-04-25T08:09:30Z</time>
</trkpt>
<trkpt lat="35.0847800" lon="32.4892445">
<ele>19.03</ele>
<time>2015-04-25T08:09:31Z</time>
</trkpt>
<trkpt lat="35.0847338" lon="32.4891929">
<ele>18.98</ele>
<time>2015-04-25T08:09:32Z</time>
</trkpt>
<trkpt lat="35.0846909" lon="32.4891537">
<ele>18.95</ele>
<time>2015-04-25T08:09:33Z</time>
</trkpt>
<trkpt lat="35.0846451" lon="32.4891171">
<ele>18.94</ele>
<time>2015-04-25T08:09:34Z</time>
</trkpt>
<trkpt lat="35.0845963" lon="32.4890738">
<ele>18.43</ele>
<time>2015-04-25T08:09:35Z</time>
</trkpt>
<trkpt lat="35.0845524" lon="32.4890280">
<ele>18.18</ele>
<time>2015-04-25T08:09:36Z</time>
</trkpt>
<trkpt lat="35.0845118" lon="32.4889902">
<ele>18.05</ele>
<time>2015-04-25T08:09:37Z</time>
</trkpt>
<trkpt lat="35.0844633" lon="32.4889439">
<ele>17.49</ele>
<time>2015-04-25T08:09:38Z</time>
</trkpt>
<trkpt lat="35.0844222" lon="32.4889023">
<ele>16.71</ele>
<time>2015-04-25T08:09:39Z</time>
</trkpt>
<trkpt lat="35.0843754" lon="32.4888637">
<ele>16.82</ele>
<time>2015-04-25T08:09:40Z</time>
</trkpt>
<trkpt lat="35.0843394" lon="32.4888239">
<ele>16.37</ele>
<time>2015-04-25T08:09:41Z</time>
</trkpt>
<trkpt lat="35.0842902" lon="32.4887808">
<ele>16.15</ele>
<time>2015-04-25T08:09:42Z</time>
</trkpt>
<trkpt lat="35.0842468" lon="32.4887471">
<ele>16.54</ele>
<time>2015-04-25T08:09:43Z</time>
</trkpt>
<trkpt lat="35.0842080" lon="32.4887132">
<ele>16.73</ele>
<time>2015-04-25T08:09:44Z</time>
</trkpt>
<trkpt lat="35.0841611" lon="32.4886846">
<ele>17.33</ele>
<time>2015-04-25T08:09:45Z</time>
</trkpt>
<trkpt lat="35.0841199" lon="32.4886444">
<ele>17.13</ele>
<time>2015-04-25T08:09:46Z</time>
</trkpt>
<trkpt lat="35.0840822" lon="32.4886063">
<ele>17.03</ele>
<time>2015-04-25T08:09:47Z</time>
</trkpt>
<trkpt lat="35.0840055" lon="32.4885525">
<ele>16.45</ele>
<time>2015-04-25T08:09:49Z</time>
</trkpt>
<trkpt lat="35.0839666" lon="32.4885232">
<ele>16.19</ele>
<time>2015-04-25T08:09:50Z</time>
</trkpt>
<trkpt lat="35.0839224" lon="32.4884836">
<ele>16.06</ele>
<time>2015-04-25T08:09:51Z</time>
</trkpt>
<trkpt lat="35.0838798" lon="32.4884479">
<ele>15.99</ele>
<time>2015-04-25T08:09:52Z</time>
</trkpt>
<trkpt lat="35.0838391" lon="32.4884125">
<ele>16.46</ele>
<time>2015-04-25T08:09:53Z</time>
</trkpt>
<trkpt lat="35.0837961" lon="32.4883819">
<ele>17.19</ele>
<time>2015-04-25T08:09:54Z</time>
</trkpt>
<trkpt lat="35.0837544" lon="32.4883488">
<ele>18.06</ele>
<time>2015-04-25T08:09:55Z</time>
</trkpt>
<trkpt lat="35.0837075" lon="32.4883178">
<ele>18.49</ele>
<time>2015-04-25T08:09:56Z</time>
</trkpt>
<trkpt lat="35.0836572" lon="32.4882785">
<ele>18.71</ele>
<time>2015-04-25T08:09:57Z</time>
</trkpt>
<trkpt lat="35.0836131" lon="32.4882448">
<ele>18.32</ele>
<time>2015-04-25T08:09:58Z</time>
</trkpt>
<trkpt lat="35.0835686" lon="32.4882139">
<ele>18.62</ele>
<time>2015-04-25T08:09:59Z</time>
</trkpt>
<trkpt lat="35.0834924" lon="32.4881506">
<ele>17.60</ele>
<time>2015-04-25T08:10:01Z</time>
</trkpt>
<trkpt lat="35.0834230" lon="32.4880897">
<ele>16.34</ele>
<time>2015-04-25T08:10:03Z</time>
</trkpt>
<trkpt lat="35.0833819" lon="32.4880542">
<ele>16.63</ele>
<time>2015-04-25T08:10:04Z</time>
</trkpt>
<trkpt lat="35.0833079" lon="32.4880021">
<ele>17.35</ele>
<time>2015-04-25T08:10:06Z</time>
</trkpt>
<trkpt lat="35.0832234" lon="32.4879520">
<ele>19.03</ele>
<time>2015-04-25T08:10:08Z</time>
</trkpt>
<trkpt lat="35.0831855" lon="32.4879143">
<ele>19.48</ele>
<time>2015-04-25T08:10:09Z</time>
</trkpt>
<trkpt lat="35.0831201" lon="32.4878610">
<ele>20.56</ele>
<time>2015-04-25T08:10:11Z</time>
</trkpt>
<trkpt lat="35.0830828" lon="32.4878253">
<ele>20.24</ele>
<time>2015-04-25T08:10:12Z</time>
</trkpt>
<trkpt lat="35.0830325" lon="32.4877991">
<ele>20.08</ele>
<time>2015-04-25T08:10:13Z</time>
</trkpt>
<trkpt lat="35.0829948" lon="32.4877627">
<ele>20.00</ele>
<time>2015-04-25T08:10:14Z</time>
</trkpt>
<trkpt lat="35.0829521" lon="32.4877332">
<ele>19.46</ele>
<time>2015-04-25T08:10:15Z</time>
</trkpt>
<trkpt lat="35.0829087" lon="32.4876920">
<ele>19.19</ele>
<time>2015-04-25T08:10:16Z</time>
</trkpt>
<trkpt lat="35.0828666" lon="32.4876526">
<ele>19.06</ele>
<time>2015-04-25T08:10:17Z</time>
</trkpt>
<trkpt lat="35.0828262" lon="32.4876176">
<ele>18.99</ele>
<time>2015-04-25T08:10:18Z</time>
</trkpt>
<trkpt lat="35.0827857" lon="32.4875931">
<ele>18.96</ele>
<time>2015-04-25T08:10:19Z</time>
</trkpt>
<trkpt lat="35.0827356" lon="32.4875619">
<ele>18.94</ele>
<time>2015-04-25T08:10:20Z</time>
</trkpt>
<trkpt lat="35.0826924" lon="32.4875243">
<ele>18.93</ele>
<time>2015-04-25T08:10:21Z</time>
</trkpt>
<trkpt lat="35.0826504" lon="32.4874878">
<ele>19.43</ele>
<time>2015-04-25T08:10:22Z</time>
</trkpt>
<trkpt lat="35.0826017" lon="32.4874433">
<ele>19.18</ele>
<time>2015-04-25T08:10:23Z</time>
</trkpt>
<trkpt lat="35.0825588" lon="32.4874024">
<ele>19.55</ele>
<time>2015-04-25T08:10:24Z</time>
</trkpt>
<trkpt lat="35.0825146" lon="32.4873566">
<ele>19.24</ele>
<time>2015-04-25T08:10:25Z</time>
</trkpt>
<trkpt lat="35.0824732" lon="32.4873068">
<ele>19.08</ele>
<time>2015-04-25T08:10:26Z</time>
</trkpt>
<trkpt lat="35.0824046" lon="32.4872343">
<ele>18.21</ele>
<time>2015-04-25T08:10:28Z</time>
</trkpt>
<trkpt lat="35.0823216" lon="32.4871708">
<ele>18.25</ele>
<time>2015-04-25T08:10:30Z</time>
</trkpt>
<trkpt lat="35.0822734" lon="32.4871270">
<ele>18.09</ele>
<time>2015-04-25T08:10:31Z</time>
</trkpt>
<trkpt lat="35.0822302" lon="32.4870872">
<ele>18.01</ele>
<time>2015-04-25T08:10:32Z</time>
</trkpt>
<trkpt lat="35.0821892" lon="32.4870503">
<ele>17.47</ele>
<time>2015-04-25T08:10:33Z</time>
</trkpt>
<trkpt lat="35.0821420" lon="32.4870018">
<ele>17.20</ele>
<time>2015-04-25T08:10:34Z</time>
</trkpt>
<trkpt lat="35.0820961" lon="32.4869610">
<ele>17.06</ele>
<time>2015-04-25T08:10:35Z</time>
</trkpt>
<trkpt lat="35.0820489" lon="32.4869206">
<ele>16.99</ele>
<time>2015-04-25T08:10:36Z</time>
</trkpt>
<trkpt lat="35.0820036" lon="32.4868897">
<ele>16.46</ele>
<time>2015-04-25T08:10:37Z</time>
</trkpt>
<trkpt lat="35.0819618" lon="32.4868475">
<ele>15.69</ele>
<time>2015-04-25T08:10:38Z</time>
</trkpt>
<trkpt lat="35.0819160" lon="32.4868101">
<ele>15.81</ele>
<time>2015-04-25T08:10:39Z</time>
</trkpt>
<trkpt lat="35.0818723" lon="32.4867688">
<ele>15.37</ele>
<time>2015-04-25T08:10:40Z</time>
</trkpt>
<trkpt lat="35.0818337" lon="32.4867295">
<ele>15.15</ele>
<time>2015-04-25T08:10:41Z</time>
</trkpt>
<trkpt lat="35.0817956" lon="32.4866924">
<ele>15.04</ele>
<time>2015-04-25T08:10:42Z</time>
</trkpt>
<trkpt lat="35.0817557" lon="32.4866570">
<ele>14.48</ele>
<time>2015-04-25T08:10:43Z</time>
</trkpt>
<trkpt lat="35.0817122" lon="32.4866253">
<ele>14.20</ele>
<time>2015-04-25T08:10:44Z</time>
</trkpt>
<trkpt lat="35.0816766" lon="32.4865906">
<ele>14.56</ele>
<time>2015-04-25T08:10:45Z</time>
</trkpt>
<trkpt lat="35.0816085" lon="32.4865164">
<ele>14.83</ele>
<time>2015-04-25T08:10:47Z</time>
</trkpt>
<trkpt lat="35.0815393" lon="32.4864385">
<ele>14.90</ele>
<time>2015-04-25T08:10:49Z</time>
</trkpt>
<trkpt lat="35.0814814" lon="32.4863692">
<ele>14.67</ele>
<time>2015-04-25T08:10:51Z</time>
</trkpt>
<trkpt lat="35.0814383" lon="32.4863458">
<ele>15.30</ele>
<time>2015-04-25T08:10:52Z</time>
</trkpt>
<trkpt lat="35.0813731" lon="32.4862875">
<ele>17.02</ele>
<time>2015-04-25T08:10:54Z</time>
</trkpt>
<trkpt lat="35.0813360" lon="32.4862536">
<ele>16.97</ele>
<time>2015-04-25T08:10:55Z</time>
</trkpt>
<trkpt lat="35.0812737" lon="32.4862007">
<ele>16.94</ele>
<time>2015-04-25T08:10:57Z</time>
</trkpt>
<trkpt lat="35.0812239" lon="32.4861489">
<ele>17.43</ele>
<time>2015-04-25T08:10:59Z</time>
</trkpt>
<trkpt lat="35.0811604" lon="32.4860897">
<ele>17.80</ele>
<time>2015-04-25T08:11:01Z</time>
</trkpt>
<trkpt lat="35.0810918" lon="32.4860266">
<ele>18.39</ele>
<time>2015-04-25T08:11:03Z</time>
</trkpt>
<trkpt lat="35.0810397" lon="32.4859748">
<ele>18.16</ele>
<time>2015-04-25T08:11:04Z</time>
</trkpt>
<trkpt lat="35.0809516" lon="32.4859182">
<ele>19.73</ele>
<time>2015-04-25T08:11:06Z</time>
</trkpt>
<trkpt lat="35.0809091" lon="32.4858735">
<ele>20.33</ele>
<time>2015-04-25T08:11:07Z</time>
</trkpt>
<trkpt lat="35.0808648" lon="32.4858321">
<ele>20.63</ele>
<time>2015-04-25T08:11:08Z</time>
</trkpt>
<trkpt lat="35.0807876" lon="32.4857656">
<ele>20.85</ele>
<time>2015-04-25T08:11:10Z</time>
</trkpt>
<trkpt lat="35.0807402" lon="32.4857206">
<ele>20.89</ele>
<time>2015-04-25T08:11:11Z</time>
</trkpt>
<trkpt lat="35.0807020" lon="32.4856847">
<ele>20.41</ele>
<time>2015-04-25T08:11:12Z</time>
</trkpt>
<trkpt lat="35.0806649" lon="32.4856435">
<ele>20.17</ele>
<time>2015-04-25T08:11:13Z</time>
</trkpt>
<trkpt lat="35.0806238" lon="32.4856173">
<ele>20.55</ele>
<time>2015-04-25T08:11:14Z</time>
</trkpt>
<trkpt lat="35.0805550" lon="32.4855393">
<ele>20.83</ele>
<time>2015-04-25T08:11:16Z</time>
</trkpt>
<trkpt lat="35.0805100" lon="32.4854977">
<ele>20.38</ele>
<time>2015-04-25T08:11:17Z</time>
</trkpt>
<trkpt lat="35.0804198" lon="32.4854155">
<ele>19.29</ele>
<time>2015-04-25T08:11:19Z</time>
</trkpt>
<trkpt lat="35.0803681" lon="32.4853671">
<ele>19.61</ele>
<time>2015-04-25T08:11:20Z</time>
</trkpt>
<trkpt lat="35.0803234" lon="32.4853231">
<ele>19.77</ele>
<time>2015-04-25T08:11:21Z</time>
</trkpt>
<trkpt lat="35.0802686" lon="32.4852942">
<ele>19.85</ele>
<time>2015-04-25T08:11:22Z</time>
</trkpt>
<trkpt lat="35.0802231" lon="32.4852529">
<ele>19.89</ele>
<time>2015-04-25T08:11:23Z</time>
</trkpt>
<trkpt lat="35.0801783" lon="32.4852039">
<ele>19.41</ele>
<time>2015-04-25T08:11:24Z</time>
</trkpt>
<trkpt lat="35.0801432" lon="32.4851666">
<ele>20.17</ele>
<time>2015-04-25T08:11:25Z</time>
</trkpt>
<trkpt lat="35.0800978" lon="32.4851207">
<ele>20.05</ele>
<time>2015-04-25T08:11:26Z</time>
</trkpt>
<trkpt lat="35.0800556" lon="32.4850765">
<ele>19.99</ele>
<time>2015-04-25T08:11:27Z</time>
</trkpt>
<trkpt lat="35.0800042" lon="32.4850386">
<ele>19.96</ele>
<time>2015-04-25T08:11:28Z</time>
</trkpt>
<trkpt lat="35.0799559" lon="32.4850102">
<ele>19.94</ele>
<time>2015-04-25T08:11:29Z</time>
</trkpt>
<trkpt lat="35.0799089" lon="32.4849627">
<ele>20.43</ele>
<time>2015-04-25T08:11:30Z</time>
</trkpt>
<trkpt lat="35.0798668" lon="32.4849146">
<ele>20.68</ele>
<time>2015-04-25T08:11:31Z</time>
</trkpt>
<trkpt lat="35.0798181" lon="32.4848731">
<ele>19.80</ele>
<time>2015-04-25T08:11:32Z</time>
</trkpt>
<trkpt lat="35.0797649" lon="32.4848227">
<ele>19.86</ele>
<time>2015-04-25T08:11:33Z</time>
</trkpt>
<trkpt lat="35.0797152" lon="32.4847769">
<ele>19.89</ele>
<time>2015-04-25T08:11:34Z</time>
</trkpt>
<trkpt lat="35.0796600" lon="32.4847231">
<ele>19.41</ele>
<time>2015-04-25T08:11:35Z</time>
</trkpt>
<trkpt lat="35.0796103" lon="32.4846786">
<ele>19.67</ele>
<time>2015-04-25T08:11:36Z</time>
</trkpt>
<trkpt lat="35.0795609" lon="32.4846251">
<ele>19.80</ele>
<time>2015-04-25T08:11:37Z</time>
</trkpt>
<trkpt lat="35.0795173" lon="32.4845792">
<ele>19.36</ele>
<time>2015-04-25T08:11:38Z</time>
</trkpt>
<trkpt lat="35.0794773" lon="32.4845272">
<ele>19.14</ele>
<time>2015-04-25T08:11:39Z</time>
</trkpt>
<trkpt lat="35.0794275" lon="32.4844772">
<ele>19.03</ele>
<time>2015-04-25T08:11:40Z</time>
</trkpt>
<trkpt lat="35.0793845" lon="32.4844250">
<ele>18.48</ele>
<time>2015-04-25T08:11:41Z</time>
</trkpt>
<trkpt lat="35.0793468" lon="32.4843932">
<ele>18.20</ele>
<time>2015-04-25T08:11:42Z</time>
</trkpt>
<trkpt lat="35.0793044" lon="32.4843517">
<ele>18.06</ele>
<time>2015-04-25T08:11:43Z</time>
</trkpt>
<trkpt lat="35.0792646" lon="32.4843109">
<ele>17.99</ele>
<time>2015-04-25T08:11:44Z</time>
</trkpt>
<trkpt lat="35.0792250" lon="32.4842611">
<ele>17.96</ele>
<time>2015-04-25T08:11:45Z</time>
</trkpt>
<trkpt lat="35.0791862" lon="32.4842241">
<ele>17.94</ele>
<time>2015-04-25T08:11:46Z</time>
</trkpt>
<trkpt lat="35.0791483" lon="32.4841809">
<ele>17.93</ele>
<time>2015-04-25T08:11:47Z</time>
</trkpt>
<trkpt lat="35.0791132" lon="32.4841368">
<ele>17.93</ele>
<time>2015-04-25T08:11:48Z</time>
</trkpt>
<trkpt lat="35.0790610" lon="32.4840616">
<ele>17.93</ele>
<time>2015-04-25T08:11:50Z</time>
</trkpt>
<trkpt lat="35.0790266" lon="32.4840114">
<ele>17.93</ele>
<time>2015-04-25T08:11:51Z</time>
</trkpt>
<trkpt lat="35.0789850" lon="32.4839779">
<ele>17.93</ele>
<time>2015-04-25T08:11:52Z</time>
</trkpt>
<trkpt lat="35.0789457" lon="32.4839288">
<ele>18.43</ele>
<time>2015-04-25T08:11:53Z</time>
</trkpt>
<trkpt lat="35.0789125" lon="32.4838847">
<ele>18.18</ele>
<time>2015-04-25T08:11:54Z</time>
</trkpt>
<trkpt lat="35.0788809" lon="32.4838427">
<ele>18.05</ele>
<time>2015-04-25T08:11:55Z</time>
</trkpt>
<trkpt lat="35.0788396" lon="32.4837989">
<ele>17.99</ele>
<time>2015-04-25T08:11:56Z</time>
</trkpt>
<trkpt lat="35.0787750" lon="32.4837210">
<ele>17.19</ele>
<time>2015-04-25T08:11:58Z</time>
</trkpt>
<trkpt lat="35.0787345" lon="32.4836803">
<ele>17.06</ele>
<time>2015-04-25T08:11:59Z</time>
</trkpt>
<trkpt lat="35.0787000" lon="32.4836405">
<ele>16.99</ele>
<time>2015-04-25T08:12:00Z</time>
</trkpt>
<trkpt lat="35.0786637" lon="32.4836052">
<ele>16.96</ele>
<time>2015-04-25T08:12:01Z</time>
</trkpt>
<trkpt lat="35.0786258" lon="32.4835623">
<ele>16.94</ele>
<time>2015-04-25T08:12:02Z</time>
</trkpt>
<trkpt lat="35.0785914" lon="32.4835163">
<ele>16.43</ele>
<time>2015-04-25T08:12:03Z</time>
</trkpt>
<trkpt lat="35.0785579" lon="32.4834636">
<ele>16.68</ele>
<time>2015-04-25T08:12:04Z</time>
</trkpt>
<trkpt lat="35.0785177" lon="32.4834174">
<ele>17.30</ele>
<time>2015-04-25T08:12:05Z</time>
</trkpt>
<trkpt lat="35.0784804" lon="32.4833678">
<ele>17.11</ele>
<time>2015-04-25T08:12:06Z</time>
</trkpt>
<trkpt lat="35.0784440" lon="32.4833146">
<ele>17.52</ele>
<time>2015-04-25T08:12:07Z</time>
</trkpt>
<trkpt lat="35.0784012" lon="32.4832664">
<ele>17.22</ele>
<time>2015-04-25T08:12:08Z</time>
</trkpt>
<trkpt lat="35.0783585" lon="32.4832286">
<ele>16.57</ele>
<time>2015-04-25T08:12:09Z</time>
</trkpt>
<trkpt lat="35.0783170" lon="32.4831806">
<ele>16.75</ele>
<time>2015-04-25T08:12:10Z</time>
</trkpt>
<trkpt lat="35.0782816" lon="32.4831375">
<ele>16.34</ele>
<time>2015-04-25T08:12:11Z</time>
</trkpt>
<trkpt lat="35.0782358" lon="32.4830854">
<ele>16.13</ele>
<time>2015-04-25T08:12:12Z</time>
</trkpt>
<trkpt lat="35.0781957" lon="32.4830323">
<ele>15.53</ele>
<time>2015-04-25T08:12:13Z</time>
</trkpt>
<trkpt lat="35.0781603" lon="32.4829889">
<ele>15.73</ele>
<time>2015-04-25T08:12:14Z</time>
</trkpt>
<trkpt lat="35.0781192" lon="32.4829493">
<ele>15.33</ele>
<time>2015-04-25T08:12:15Z</time>
</trkpt>
<trkpt lat="35.0780785" lon="32.4829074">
<ele>15.63</ele>
<time>2015-04-25T08:12:16Z</time>
</trkpt>
<trkpt lat="35.0780399" lon="32.4828584">
<ele>15.28</ele>
<time>2015-04-25T08:12:17Z</time>
</trkpt>
<trkpt lat="35.0780007" lon="32.4828178">
<ele>15.10</ele>
<time>2015-04-25T08:12:18Z</time>
</trkpt>
<trkpt lat="35.0779670" lon="32.4827758">
<ele>15.51</ele>
<time>2015-04-25T08:12:19Z</time>
</trkpt>
<trkpt lat="35.0779298" lon="32.4827328">
<ele>15.72</ele>
<time>2015-04-25T08:12:20Z</time>
</trkpt>
<trkpt lat="35.0778838" lon="32.4826937">
<ele>15.82</ele>
<time>2015-04-25T08:12:21Z</time>
</trkpt>
<trkpt lat="35.0778449" lon="32.4826558">
<ele>15.87</ele>
<time>2015-04-25T08:12:22Z</time>
</trkpt>
<trkpt lat="35.0778029" lon="32.4826209">
<ele>15.90</ele>
<time>2015-04-25T08:12:23Z</time>
</trkpt>
<trkpt lat="35.0777600" lon="32.4825760">
<ele>15.91</ele>
<time>2015-04-25T08:12:24Z</time>
</trkpt>
<trkpt lat="35.0777182" lon="32.4825321">
<ele>15.92</ele>
<time>2015-04-25T08:12:25Z</time>
</trkpt>
<trkpt lat="35.0776554" lon="32.4824551">
<ele>15.42</ele>
<time>2015-04-25T08:12:27Z</time>
</trkpt>
<trkpt lat="35.0776060" lon="32.4824021">
<ele>16.17</ele>
<time>2015-04-25T08:12:28Z</time>
</trkpt>
<trkpt lat="35.0775645" lon="32.4823595">
<ele>16.55</ele>
<time>2015-04-25T08:12:29Z</time>
</trkpt>
<trkpt lat="35.0775233" lon="32.4823165">
<ele>16.74</ele>
<time>2015-04-25T08:12:30Z</time>
</trkpt>
<trkpt lat="35.0774792" lon="32.4822748">
<ele>16.83</ele>
<time>2015-04-25T08:12:31Z</time>
</trkpt>
<trkpt lat="35.0774419" lon="32.4822305">
<ele>16.38</ele>
<time>2015-04-25T08:12:32Z</time>
</trkpt>
<trkpt lat="35.0773971" lon="32.4821984">
<ele>16.15</ele>
<time>2015-04-25T08:12:33Z</time>
</trkpt>
<trkpt lat="35.0773578" lon="32.4821610">
<ele>15.54</ele>
<time>2015-04-25T08:12:34Z</time>
</trkpt>
<trkpt lat="35.0773116" lon="32.4821319">
<ele>15.73</ele>
<time>2015-04-25T08:12:35Z</time>
</trkpt>
<trkpt lat="35.0772698" lon="32.4820926">
<ele>15.83</ele>
<time>2015-04-25T08:12:36Z</time>
</trkpt>
<trkpt lat="35.0772260" lon="32.4820608">
<ele>15.88</ele>
<time>2015-04-25T08:12:37Z</time>
</trkpt>
<trkpt lat="35.0771342" lon="32.4820112">
<ele>15.41</ele>
<time>2015-04-25T08:12:39Z</time>
</trkpt>
<trkpt lat="35.0770920" lon="32.4819902">
<ele>15.17</ele>
<time>2015-04-25T08:12:40Z</time>
</trkpt>
<trkpt lat="35.0770440" lon="32.4819699">
<ele>15.05</ele>
<time>2015-04-25T08:12:41Z</time>
</trkpt>
<trkpt lat="35.0769980" lon="32.4819564">
<ele>14.99</ele>
<time>2015-04-25T08:12:42Z</time>
</trkpt>
<trkpt lat="35.0769150" lon="32.4819187">
<ele>14.94</ele>
<time>2015-04-25T08:12:44Z</time>
</trkpt>
<trkpt lat="35.0768700" lon="32.4818902">
<ele>14.93</ele>
<time>2015-04-25T08:12:45Z</time>
</trkpt>
<trkpt lat="35.0767895" lon="32.4818417">
<ele>14.18</ele>
<time>2015-04-25T08:12:47Z</time>
</trkpt>
<trkpt lat="35.0767358" lon="32.4818203">
<ele>14.55</ele>
<time>2015-04-25T08:12:48Z</time>
</trkpt>
<trkpt lat="35.0766874" lon="32.4817994">
<ele>16.24</ele>
<time>2015-04-25T08:12:49Z</time>
</trkpt>
<trkpt lat="35.0766378" lon="32.4817576">
<ele>17.08</ele>
<time>2015-04-25T08:12:50Z</time>
</trkpt>
<trkpt lat="35.0765564" lon="32.4816865">
<ele>17.71</ele>
<time>2015-04-25T08:12:52Z</time>
</trkpt>
<trkpt lat="35.0765158" lon="32.4816372">
<ele>17.32</ele>
<time>2015-04-25T08:12:53Z</time>
</trkpt>
<trkpt lat="35.0764742" lon="32.4815788">
<ele>17.12</ele>
<time>2015-04-25T08:12:54Z</time>
</trkpt>
<trkpt lat="35.0764324" lon="32.4815233">
<ele>17.52</ele>
<time>2015-04-25T08:12:55Z</time>
</trkpt>
<trkpt lat="35.0763913" lon="32.4814603">
<ele>17.72</ele>
<time>2015-04-25T08:12:56Z</time>
</trkpt>
<trkpt lat="35.0763493" lon="32.4813970">
<ele>17.82</ele>
<time>2015-04-25T08:12:57Z</time>
</trkpt>
<trkpt lat="35.0763162" lon="32.4813402">
<ele>17.37</ele>
<time>2015-04-25T08:12:58Z</time>
</trkpt>
<trkpt lat="35.0762798" lon="32.4812835">
<ele>17.15</ele>
<time>2015-04-25T08:12:59Z</time>
</trkpt>
<trkpt lat="35.0762382" lon="32.4812193">
<ele>16.54</ele>
<time>2015-04-25T08:13:00Z</time>
</trkpt>
<trkpt lat="35.0762067" lon="32.4811639">
<ele>15.73</ele>
<time>2015-04-25T08:13:01Z</time>
</trkpt>
<trkpt lat="35.0761741" lon="32.4811128">
<ele>15.33</ele>
<time>2015-04-25T08:13:02Z</time>
</trkpt>
<trkpt lat="35.0761207" lon="32.4810525">
<ele>15.63</ele>
<time>2015-04-25T08:13:03Z</time>
</trkpt>
<trkpt lat="35.0760821" lon="32.4810045">
<ele>15.28</ele>
<time>2015-04-25T08:13:04Z</time>
</trkpt>
<trkpt lat="35.0760428" lon="32.4809578">
<ele>15.10</ele>
<time>2015-04-25T08:13:05Z</time>
</trkpt>
<trkpt lat="35.0760010" lon="32.4809024">
<ele>15.01</ele>
<time>2015-04-25T08:13:06Z</time>
</trkpt>
<trkpt lat="35.0759636" lon="32.4808674">
<ele>14.47</ele>
<time>2015-04-25T08:13:07Z</time>
</trkpt>
<trkpt lat="35.0759260" lon="32.4808226">
<ele>13.70</ele>
<time>2015-04-25T08:13:08Z</time>
</trkpt>
<trkpt lat="35.0758770" lon="32.4807836">
<ele>14.81</ele>
<time>2015-04-25T08:13:09Z</time>
</trkpt>
<trkpt lat="35.0758406" lon="32.4807437">
<ele>15.37</ele>
<time>2015-04-25T08:13:10Z</time>
</trkpt>
<trkpt lat="35.0757984" lon="32.4806934">
<ele>15.65</ele>
<time>2015-04-25T08:13:11Z</time>
</trkpt>
<trkpt lat="35.0757595" lon="32.4806474">
<ele>15.79</ele>
<time>2015-04-25T08:13:12Z</time>
</trkpt>
<trkpt lat="35.0757098" lon="32.4806063">
<ele>16.36</ele>
<time>2015-04-25T08:13:13Z</time>
</trkpt>
<trkpt lat="35.0756767" lon="32.4805641">
<ele>16.64</ele>
<time>2015-04-25T08:13:14Z</time>
</trkpt>
<trkpt lat="35.0756472" lon="32.4805126">
<ele>16.28</ele>
<time>2015-04-25T08:13:15Z</time>
</trkpt>
<trkpt lat="35.0756059" lon="32.4804710">
<ele>16.10</ele>
<time>2015-04-25T08:13:16Z</time>
</trkpt>
<trkpt lat="35.0755709" lon="32.4804212">
<ele>16.01</ele>
<time>2015-04-25T08:13:17Z</time>
</trkpt>
<trkpt lat="35.0755357" lon="32.4803810">
<ele>15.47</ele>
<time>2015-04-25T08:13:18Z</time>
</trkpt>
<trkpt lat="35.0755029" lon="32.4803349">
<ele>15.20</ele>
<time>2015-04-25T08:13:19Z</time>
</trkpt>
<trkpt lat="35.0754626" lon="32.4802876">
<ele>15.06</ele>
<time>2015-04-25T08:13:20Z</time>
</trkpt>
<trkpt lat="35.0754210" lon="32.4802458">
<ele>14.99</ele>
<time>2015-04-25T08:13:21Z</time>
</trkpt>
<trkpt lat="35.0753710" lon="32.4802109">
<ele>14.96</ele>
<time>2015-04-25T08:13:22Z</time>
</trkpt>
<trkpt lat="35.0753288" lon="32.4801705">
<ele>14.94</ele>
<time>2015-04-25T08:13:23Z</time>
</trkpt>
<trkpt lat="35.0752881" lon="32.4801339">
<ele>14.93</ele>
<time>2015-04-25T08:13:24Z</time>
</trkpt>
<trkpt lat="35.0752547" lon="32.4800939">
<ele>14.93</ele>
<time>2015-04-25T08:13:25Z</time>
</trkpt>
<trkpt lat="35.0752097" lon="32.4800371">
<ele>15.68</ele>
<time>2015-04-25T08:13:27Z</time>
</trkpt>
<trkpt lat="35.0751726" lon="32.4799916">
<ele>13.49</ele>
<time>2015-04-25T08:13:39Z</time>
</trkpt>
<trkpt lat="35.0751271" lon="32.4799489">
<ele>14.25</ele>
<time>2015-04-25T08:13:42Z</time>
</trkpt>
<trkpt lat="35.0750916" lon="32.4799131">
<ele>15.09</ele>
<time>2015-04-25T08:13:45Z</time>
</trkpt>
<trkpt lat="35.0750492" lon="32.4798862">
<ele>15.30</ele>
<time>2015-04-25T08:14:16Z</time>
</trkpt>
<trkpt lat="35.0750224" lon="32.4798335">
<ele>14.76</ele>
<time>2015-04-25T08:14:54Z</time>
</trkpt>
<trkpt lat="35.0749898" lon="32.4797921">
<ele>14.90</ele>
<time>2015-04-25T08:14:57Z</time>
</trkpt>
<trkpt lat="35.0749475" lon="32.4797411">
<ele>14.17</ele>
<time>2015-04-25T08:14:59Z</time>
</trkpt>
<trkpt lat="35.0748878" lon="32.4796747">
<ele>13.99</ele>
<time>2015-04-25T08:15:01Z</time>
</trkpt>
<trkpt lat="35.0748289" lon="32.4796020">
<ele>13.44</ele>
<time>2015-04-25T08:15:03Z</time>
</trkpt>
<trkpt lat="35.0747703" lon="32.4795266">
<ele>13.05</ele>
<time>2015-04-25T08:15:05Z</time>
</trkpt>
<trkpt lat="35.0747103" lon="32.4794571">
<ele>12.96</ele>
<time>2015-04-25T08:15:07Z</time>
</trkpt>
<trkpt lat="35.0746468" lon="32.4793859">
<ele>13.43</ele>
<time>2015-04-25T08:15:09Z</time>
</trkpt>
<trkpt lat="35.0745860" lon="32.4793192">
<ele>13.80</ele>
<time>2015-04-25T08:15:11Z</time>
</trkpt>
<trkpt lat="35.0745254" lon="32.4792590">
<ele>14.39</ele>
<time>2015-04-25T08:15:13Z</time>
</trkpt>
<trkpt lat="35.0744671" lon="32.4792039">
<ele>13.54</ele>
<time>2015-04-25T08:15:15Z</time>
</trkpt>
<trkpt lat="35.0744084" lon="32.4791439">
<ele>14.08</ele>
<time>2015-04-25T08:15:17Z</time>
</trkpt>
<trkpt lat="35.0743499" lon="32.4790891">
<ele>14.71</ele>
<time>2015-04-25T08:15:19Z</time>
</trkpt>
<trkpt lat="35.0742895" lon="32.4790334">
<ele>14.87</ele>
<time>2015-04-25T08:15:21Z</time>
</trkpt>
<trkpt lat="35.0742286" lon="32.4789719">
<ele>15.41</ele>
<time>2015-04-25T08:15:23Z</time>
</trkpt>
<trkpt lat="35.0741822" lon="32.4789242">
<ele>15.17</ele>
<time>2015-04-25T08:15:24Z</time>
</trkpt>
<trkpt lat="35.0741218" lon="32.4788547">
<ele>14.99</ele>
<time>2015-04-25T08:15:26Z</time>
</trkpt>
<trkpt lat="35.0740878" lon="32.4788178">
<ele>14.96</ele>
<time>2015-04-25T08:15:27Z</time>
</trkpt>
<trkpt lat="35.0740320" lon="32.4787583">
<ele>14.93</ele>
<time>2015-04-25T08:15:29Z</time>
</trkpt>
<trkpt lat="35.0739667" lon="32.4786987">
<ele>14.93</ele>
<time>2015-04-25T08:15:31Z</time>
</trkpt>
<trkpt lat="35.0739339" lon="32.4786589">
<ele>14.43</ele>
<time>2015-04-25T08:15:32Z</time>
</trkpt>
<trkpt lat="35.0738687" lon="32.4785884">
<ele>14.05</ele>
<time>2015-04-25T08:15:34Z</time>
</trkpt>
<trkpt lat="35.0738342" lon="32.4785501">
<ele>13.99</ele>
<time>2015-04-25T08:15:35Z</time>
</trkpt>
<trkpt lat="35.0738000" lon="32.4785070">
<ele>13.96</ele>
<time>2015-04-25T08:15:36Z</time>
</trkpt>
<trkpt lat="35.0737594" lon="32.4784642">
<ele>13.44</ele>
<time>2015-04-25T08:15:37Z</time>
</trkpt>
<trkpt lat="35.0737243" lon="32.4784291">
<ele>13.68</ele>
<time>2015-04-25T08:15:38Z</time>
</trkpt>
<trkpt lat="35.0736619" lon="32.4783471">
<ele>13.86</ele>
<time>2015-04-25T08:15:40Z</time>
</trkpt>
<trkpt lat="35.0736299" lon="32.4782952">
<ele>13.39</ele>
<time>2015-04-25T08:15:41Z</time>
</trkpt>
<trkpt lat="35.0735619" lon="32.4782064">
<ele>13.54</ele>
<time>2015-04-25T08:15:43Z</time>
</trkpt>
<trkpt lat="35.0735224" lon="32.4781582">
<ele>13.23</ele>
<time>2015-04-25T08:15:44Z</time>
</trkpt>
<trkpt lat="35.0734768" lon="32.4781152">
<ele>13.08</ele>
<time>2015-04-25T08:15:45Z</time>
</trkpt>
<trkpt lat="35.0734424" lon="32.4780685">
<ele>13.00</ele>
<time>2015-04-25T08:15:46Z</time>
</trkpt>
<trkpt lat="35.0733803" lon="32.4779852">
<ele>12.94</ele>
<time>2015-04-25T08:15:48Z</time>
</trkpt>
<trkpt lat="35.0733114" lon="32.4779134">
<ele>11.68</ele>
<time>2015-04-25T08:15:50Z</time>
</trkpt>
<trkpt lat="35.0732695" lon="32.4778607">
<ele>11.30</ele>
<time>2015-04-25T08:15:51Z</time>
</trkpt>
<trkpt lat="35.0732306" lon="32.4778185">
<ele>11.61</ele>
<time>2015-04-25T08:15:52Z</time>
</trkpt>
<trkpt lat="35.0731972" lon="32.4777675">
<ele>11.27</ele>
<time>2015-04-25T08:15:53Z</time>
</trkpt>
<trkpt lat="35.0731545" lon="32.4777251">
<ele>11.60</ele>
<time>2015-04-25T08:15:54Z</time>
</trkpt>
<trkpt lat="35.0730816" lon="32.4776399">
<ele>11.84</ele>
<time>2015-04-25T08:15:56Z</time>
</trkpt>
<trkpt lat="35.0730255" lon="32.4775564">
<ele>10.65</ele>
<time>2015-04-25T08:15:58Z</time>
</trkpt>
<trkpt lat="35.0729884" lon="32.4775077">
<ele>10.29</ele>
<time>2015-04-25T08:15:59Z</time>
</trkpt>
<trkpt lat="35.0729551" lon="32.4774624">
<ele>9.61</ele>
<time>2015-04-25T08:16:00Z</time>
</trkpt>
<trkpt lat="35.0729128" lon="32.4774117">
<ele>9.77</ele>
<time>2015-04-25T08:16:01Z</time>
</trkpt>
<trkpt lat="35.0728665" lon="32.4773655">
<ele>9.85</ele>
<time>2015-04-25T08:16:02Z</time>
</trkpt>
<trkpt lat="35.0727973" lon="32.4772810">
<ele>10.41</ele>
<time>2015-04-25T08:16:04Z</time>
</trkpt>
<trkpt lat="35.0727669" lon="32.4772370">
<ele>10.67</ele>
<time>2015-04-25T08:16:05Z</time>
</trkpt>
<trkpt lat="35.0727260" lon="32.4772007">
<ele>11.30</ele>
<time>2015-04-25T08:16:06Z</time>
</trkpt>
<trkpt lat="35.0726601" lon="32.4771300">
<ele>11.27</ele>
<time>2015-04-25T08:16:08Z</time>
</trkpt>
<trkpt lat="35.0726206" lon="32.4770890">
<ele>11.60</ele>
<time>2015-04-25T08:16:09Z</time>
</trkpt>
<trkpt lat="35.0725804" lon="32.4770461">
<ele>12.76</ele>
<time>2015-04-25T08:16:10Z</time>
</trkpt>
<trkpt lat="35.0725542" lon="32.4769978">
<ele>13.34</ele>
<time>2015-04-25T08:16:11Z</time>
</trkpt>
<trkpt lat="35.0724971" lon="32.4769126">
<ele>14.28</ele>
<time>2015-04-25T08:16:13Z</time>
</trkpt>
<trkpt lat="35.0724661" lon="32.4768704">
<ele>15.10</ele>
<time>2015-04-25T08:16:14Z</time>
</trkpt>
<trkpt lat="35.0724032" lon="32.4767864">
<ele>15.47</ele>
<time>2015-04-25T08:16:16Z</time>
</trkpt>
<trkpt lat="35.0723688" lon="32.4767463">
<ele>16.20</ele>
<time>2015-04-25T08:16:17Z</time>
</trkpt>
<trkpt lat="35.0723274" lon="32.4767056">
<ele>16.56</ele>
<time>2015-04-25T08:16:18Z</time>
</trkpt>
<trkpt lat="35.0722920" lon="32.4766646">
<ele>16.74</ele>
<time>2015-04-25T08:16:19Z</time>
</trkpt>
<trkpt lat="35.0722488" lon="32.4766291">
<ele>17.33</ele>
<time>2015-04-25T08:16:20Z</time>
</trkpt>
<trkpt lat="35.0721867" lon="32.4765588">
<ele>18.28</ele>
<time>2015-04-25T08:16:22Z</time>
</trkpt>
<trkpt lat="35.0721485" lon="32.4765124">
<ele>19.10</ele>
<time>2015-04-25T08:16:23Z</time>
</trkpt>
<trkpt lat="35.0721131" lon="32.4764657">
<ele>19.01</ele>
<time>2015-04-25T08:16:24Z</time>
</trkpt>
<trkpt lat="35.0720490" lon="32.4763882">
<ele>18.95</ele>
<time>2015-04-25T08:16:26Z</time>
</trkpt>
<trkpt lat="35.0720174" lon="32.4763442">
<ele>18.94</ele>
<time>2015-04-25T08:16:27Z</time>
</trkpt>
<trkpt lat="35.0719767" lon="32.4762974">
<ele>18.93</ele>
<time>2015-04-25T08:16:28Z</time>
</trkpt>
<trkpt lat="35.0719498" lon="32.4762478">
<ele>18.43</ele>
<time>2015-04-25T08:16:29Z</time>
</trkpt>
<trkpt lat="35.0719236" lon="32.4762017">
<ele>18.18</ele>
<time>2015-04-25T08:16:30Z</time>
</trkpt>
<trkpt lat="35.0718648" lon="32.4761360">
<ele>17.24</ele>
<time>2015-04-25T08:16:32Z</time>
</trkpt>
<trkpt lat="35.0718268" lon="32.4760851">
<ele>17.08</ele>
<time>2015-04-25T08:16:33Z</time>
</trkpt>
<trkpt lat="35.0717885" lon="32.4760430">
<ele>16.50</ele>
<time>2015-04-25T08:16:34Z</time>
</trkpt>
<trkpt lat="35.0717606" lon="32.4759958">
<ele>16.21</ele>
<time>2015-04-25T08:16:35Z</time>
</trkpt>
<trkpt lat="35.0717209" lon="32.4759530">
<ele>15.57</ele>
<time>2015-04-25T08:16:36Z</time>
</trkpt>
<trkpt lat="35.0716847" lon="32.4759081">
<ele>15.25</ele>
<time>2015-04-25T08:16:37Z</time>
</trkpt>
<trkpt lat="35.0716476" lon="32.4758606">
<ele>15.09</ele>
<time>2015-04-25T08:16:38Z</time>
</trkpt>
<trkpt lat="35.0716139" lon="32.4758210">
<ele>15.01</ele>
<time>2015-04-25T08:16:39Z</time>
</trkpt>
<trkpt lat="35.0715773" lon="32.4757812">
<ele>14.97</ele>
<time>2015-04-25T08:16:40Z</time>
</trkpt>
<trkpt lat="35.0715335" lon="32.4757342">
<ele>14.95</ele>
<time>2015-04-25T08:16:41Z</time>
</trkpt>
<trkpt lat="35.0715016" lon="32.4756843">
<ele>14.94</ele>
<time>2015-04-25T08:16:42Z</time>
</trkpt>
<trkpt lat="35.0714594" lon="32.4756400">
<ele>14.43</ele>
<time>2015-04-25T08:16:43Z</time>
</trkpt>
<trkpt lat="35.0714220" lon="32.4756025">
<ele>14.18</ele>
<time>2015-04-25T08:16:44Z</time>
</trkpt>
<trkpt lat="35.0713893" lon="32.4755578">
<ele>13.55</ele>
<time>2015-04-25T08:16:45Z</time>
</trkpt>
<trkpt lat="35.0713557" lon="32.4755183">
<ele>13.74</ele>
<time>2015-04-25T08:16:46Z</time>
</trkpt>
<trkpt lat="35.0713170" lon="32.4754715">
<ele>14.33</ele>
<time>2015-04-25T08:16:47Z</time>
</trkpt>
<trkpt lat="35.0712871" lon="32.4754227">
<ele>14.13</ele>
<time>2015-04-25T08:16:48Z</time>
</trkpt>
<trkpt lat="35.0712571" lon="32.4753722">
<ele>14.03</ele>
<time>2015-04-25T08:16:49Z</time>
</trkpt>
<trkpt lat="35.0712266" lon="32.4753248">
<ele>13.98</ele>
<time>2015-04-25T08:16:50Z</time>
</trkpt>
<trkpt lat="35.0711688" lon="32.4752377">
<ele>13.69</ele>
<time>2015-04-25T08:16:52Z</time>
</trkpt>
<trkpt lat="35.0711267" lon="32.4751917">
<ele>14.31</ele>
<time>2015-04-25T08:16:53Z</time>
</trkpt>
<trkpt lat="35.0710892" lon="32.4751529">
<ele>14.62</ele>
<time>2015-04-25T08:16:54Z</time>
</trkpt>
<trkpt lat="35.0710428" lon="32.4751169">
<ele>14.77</ele>
<time>2015-04-25T08:16:55Z</time>
</trkpt>
<trkpt lat="35.0710066" lon="32.4750638">
<ele>14.85</ele>
<time>2015-04-25T08:16:56Z</time>
</trkpt>
<trkpt lat="35.0709616" lon="32.4750206">
<ele>14.89</ele>
<time>2015-04-25T08:16:57Z</time>
</trkpt>
<trkpt lat="35.0709314" lon="32.4749724">
<ele>14.41</ele>
<time>2015-04-25T08:16:58Z</time>
</trkpt>
<trkpt lat="35.0708897" lon="32.4749297">
<ele>14.17</ele>
<time>2015-04-25T08:16:59Z</time>
</trkpt>
<trkpt lat="35.0708522" lon="32.4748778">
<ele>14.05</ele>
<time>2015-04-25T08:17:00Z</time>
</trkpt>
<trkpt lat="35.0708104" lon="32.4748274">
<ele>14.49</ele>
<time>2015-04-25T08:17:01Z</time>
</trkpt>
<trkpt lat="35.0707717" lon="32.4747873">
<ele>14.71</ele>
<time>2015-04-25T08:17:02Z</time>
</trkpt>
<trkpt lat="35.0707201" lon="32.4747453">
<ele>14.32</ele>
<time>2015-04-25T08:17:03Z</time>
</trkpt>
<trkpt lat="35.0706886" lon="32.4747012">
<ele>14.12</ele>
<time>2015-04-25T08:17:04Z</time>
</trkpt>
<trkpt lat="35.0706496" lon="32.4746488">
<ele>14.02</ele>
<time>2015-04-25T08:17:05Z</time>
</trkpt>
<trkpt lat="35.0706215" lon="32.4746047">
<ele>13.97</ele>
<time>2015-04-25T08:17:06Z</time>
</trkpt>
<trkpt lat="35.0705771" lon="32.4745771">
<ele>14.45</ele>
<time>2015-04-25T08:17:07Z</time>
</trkpt>
<trkpt lat="35.0705277" lon="32.4745512">
<ele>15.19</ele>
<time>2015-04-25T08:17:08Z</time>
</trkpt>
<trkpt lat="35.0704878" lon="32.4745090">
<ele>16.06</ele>
<time>2015-04-25T08:17:09Z</time>
</trkpt>
<trkpt lat="35.0704467" lon="32.4744614">
<ele>16.99</ele>
<time>2015-04-25T08:17:10Z</time>
</trkpt>
<trkpt lat="35.0704075" lon="32.4744290">
<ele>17.96</ele>
<time>2015-04-25T08:17:11Z</time>
</trkpt>
<trkpt lat="35.0703647" lon="32.4743781">
<ele>17.94</ele>
<time>2015-04-25T08:17:12Z</time>
</trkpt>
<trkpt lat="35.0703361" lon="32.4743254">
<ele>17.93</ele>
<time>2015-04-25T08:17:13Z</time>
</trkpt>
<trkpt lat="35.0703037" lon="32.4742832">
<ele>17.93</ele>
<time>2015-04-25T08:17:14Z</time>
</trkpt>
<trkpt lat="35.0702671" lon="32.4742397">
<ele>17.93</ele>
<time>2015-04-25T08:17:15Z</time>
</trkpt>
<trkpt lat="35.0702289" lon="32.4742003">
<ele>17.43</ele>
<time>2015-04-25T08:17:16Z</time>
</trkpt>
<trkpt lat="35.0701905" lon="32.4741574">
<ele>17.68</ele>
<time>2015-04-25T08:17:17Z</time>
</trkpt>
<trkpt lat="35.0701606" lon="32.4741089">
<ele>17.30</ele>
<time>2015-04-25T08:17:18Z</time>
</trkpt>
<trkpt lat="35.0701253" lon="32.4740542">
<ele>16.61</ele>
<time>2015-04-25T08:17:19Z</time>
</trkpt>
<trkpt lat="35.0700872" lon="32.4740017">
<ele>16.27</ele>
<time>2015-04-25T08:17:20Z</time>
</trkpt>
<trkpt lat="35.0700559" lon="32.4739583">
<ele>16.10</ele>
<time>2015-04-25T08:17:21Z</time>
</trkpt>
<trkpt lat="35.0699889" lon="32.4738787">
<ele>15.97</ele>
<time>2015-04-25T08:17:23Z</time>
</trkpt>
<trkpt lat="35.0699571" lon="32.4738270">
<ele>15.95</ele>
<time>2015-04-25T08:17:24Z</time>
</trkpt>
<trkpt lat="35.0699162" lon="32.4737898">
<ele>15.94</ele>
<time>2015-04-25T08:17:25Z</time>
</trkpt>
<trkpt lat="35.0698836" lon="32.4737451">
<ele>15.93</ele>
<time>2015-04-25T08:17:26Z</time>
</trkpt>
<trkpt lat="35.0698425" lon="32.4736992">
<ele>15.43</ele>
<time>2015-04-25T08:17:27Z</time>
</trkpt>
<trkpt lat="35.0698105" lon="32.4736549">
<ele>15.18</ele>
<time>2015-04-25T08:17:28Z</time>
</trkpt>
<trkpt lat="35.0697657" lon="32.4736155">
<ele>14.55</ele>
<time>2015-04-25T08:17:29Z</time>
</trkpt>
<trkpt lat="35.0697209" lon="32.4735687">
<ele>14.74</ele>
<time>2015-04-25T08:17:30Z</time>
</trkpt>
<trkpt lat="35.0696900" lon="32.4735256">
<ele>14.83</ele>
<time>2015-04-25T08:17:31Z</time>
</trkpt>
<trkpt lat="35.0696474" lon="32.4734815">
<ele>14.88</ele>
<time>2015-04-25T08:17:32Z</time>
</trkpt>
<trkpt lat="35.0696177" lon="32.4734327">
<ele>14.40</ele>
<time>2015-04-25T08:17:33Z</time>
</trkpt>
<trkpt lat="35.0695373" lon="32.4733632">
<ele>13.54</ele>
<time>2015-04-25T08:17:35Z</time>
</trkpt>
<trkpt lat="35.0694932" lon="32.4733284">
<ele>14.23</ele>
<time>2015-04-25T08:17:36Z</time>
</trkpt>
<trkpt lat="35.0694637" lon="32.4732745">
<ele>14.08</ele>
<time>2015-04-25T08:17:37Z</time>
</trkpt>
<trkpt lat="35.0694369" lon="32.4732151">
<ele>14.00</ele>
<time>2015-04-25T08:17:38Z</time>
</trkpt>
<trkpt lat="35.0694109" lon="32.4731691">
<ele>13.46</ele>
<time>2015-04-25T08:17:39Z</time>
</trkpt>
<trkpt lat="35.0693684" lon="32.4731117">
<ele>13.19</ele>
<time>2015-04-25T08:17:40Z</time>
</trkpt>
<trkpt lat="35.0693381" lon="32.4730606">
<ele>13.06</ele>
<time>2015-04-25T08:17:41Z</time>
</trkpt>
<trkpt lat="35.0693024" lon="32.4730129">
<ele>13.49</ele>
<time>2015-04-25T08:17:42Z</time>
</trkpt>
<trkpt lat="35.0692695" lon="32.4729611">
<ele>13.21</ele>
<time>2015-04-25T08:17:43Z</time>
</trkpt>
<trkpt lat="35.0692334" lon="32.4729114">
<ele>12.57</ele>
<time>2015-04-25T08:17:44Z</time>
</trkpt>
<trkpt lat="35.0691980" lon="32.4728690">
<ele>12.75</ele>
<time>2015-04-25T08:17:45Z</time>
</trkpt>
<trkpt lat="35.0691658" lon="32.4728221">
<ele>12.84</ele>
<time>2015-04-25T08:17:46Z</time>
</trkpt>
<trkpt lat="35.0691269" lon="32.4727870">
<ele>12.38</ele>
<time>2015-04-25T08:17:47Z</time>
</trkpt>
<trkpt lat="35.0690883" lon="32.4727414">
<ele>12.15</ele>
<time>2015-04-25T08:17:48Z</time>
</trkpt>
<trkpt lat="35.0690520" lon="32.4726900">
<ele>12.54</ele>
<time>2015-04-25T08:17:49Z</time>
</trkpt>
<trkpt lat="35.0690094" lon="32.4726400">
<ele>12.73</ele>
<time>2015-04-25T08:17:50Z</time>
</trkpt>
<trkpt lat="35.0689735" lon="32.4725968">
<ele>13.33</ele>
<time>2015-04-25T08:17:51Z</time>
</trkpt>
<trkpt lat="35.0689432" lon="32.4725442">
<ele>13.63</ele>
<time>2015-04-25T08:17:52Z</time>
</trkpt>
<trkpt lat="35.0689099" lon="32.4724912">
<ele>13.78</ele>
<time>2015-04-25T08:17:53Z</time>
</trkpt>
<trkpt lat="35.0688757" lon="32.4724363">
<ele>13.35</ele>
<time>2015-04-25T08:17:54Z</time>
</trkpt>
<trkpt lat="35.0688390" lon="32.4723968">
<ele>13.64</ele>
<time>2015-04-25T08:17:55Z</time>
</trkpt>
<trkpt lat="35.0688000" lon="32.4723490">
<ele>13.78</ele>
<time>2015-04-25T08:17:56Z</time>
</trkpt>
<trkpt lat="35.0687571" lon="32.4723062">
<ele>14.35</ele>
<time>2015-04-25T08:17:57Z</time>
</trkpt>
<trkpt lat="35.0687260" lon="32.4722611">
<ele>14.64</ele>
<time>2015-04-25T08:17:58Z</time>
</trkpt>
<trkpt lat="35.0686678" lon="32.4721701">
<ele>14.35</ele>
<time>2015-04-25T08:18:00Z</time>
</trkpt>
<trkpt lat="35.0686339" lon="32.4721247">
<ele>14.64</ele>
<time>2015-04-25T08:18:01Z</time>
</trkpt>
<trkpt lat="35.0685964" lon="32.4720783">
<ele>14.78</ele>
<time>2015-04-25T08:18:02Z</time>
</trkpt>
<trkpt lat="35.0685652" lon="32.4720320">
<ele>14.85</ele>
<time>2015-04-25T08:18:03Z</time>
</trkpt>
<trkpt lat="35.0685303" lon="32.4719738">
<ele>14.89</ele>
<time>2015-04-25T08:18:04Z</time>
</trkpt>
<trkpt lat="35.0685007" lon="32.4719246">
<ele>14.41</ele>
<time>2015-04-25T08:18:05Z</time>
</trkpt>
<trkpt lat="35.0684675" lon="32.4718831">
<ele>14.67</ele>
<time>2015-04-25T08:18:06Z</time>
</trkpt>
<trkpt lat="35.0684320" lon="32.4718295">
<ele>15.30</ele>
<time>2015-04-25T08:18:07Z</time>
</trkpt>
<trkpt lat="35.0684000" lon="32.4717876">
<ele>15.61</ele>
<time>2015-04-25T08:18:08Z</time>
</trkpt>
<trkpt lat="35.0683643" lon="32.4717433">
<ele>16.27</ele>
<time>2015-04-25T08:18:09Z</time>
</trkpt>
<trkpt lat="35.0683129" lon="32.4716570">
<ele>16.26</ele>
<time>2015-04-25T08:18:11Z</time>
</trkpt>
<trkpt lat="35.0682692" lon="32.4716230">
<ele>16.59</ele>
<time>2015-04-25T08:18:12Z</time>
</trkpt>
<trkpt lat="35.0682002" lon="32.4715502">
<ele>17.09</ele>
<time>2015-04-25T08:18:14Z</time>
</trkpt>
<trkpt lat="35.0681656" lon="32.4715099">
<ele>17.01</ele>
<time>2015-04-25T08:18:15Z</time>
</trkpt>
<trkpt lat="35.0681193" lon="32.4714718">
<ele>17.47</ele>
<time>2015-04-25T08:18:16Z</time>
</trkpt>
<trkpt lat="35.0680838" lon="32.4714270">
<ele>17.70</ele>
<time>2015-04-25T08:18:17Z</time>
</trkpt>
<trkpt lat="35.0680576" lon="32.4713801">
<ele>17.31</ele>
<time>2015-04-25T08:18:18Z</time>
</trkpt>
<trkpt lat="35.0679922" lon="32.4712906">
<ele>17.27</ele>
<time>2015-04-25T08:18:20Z</time>
</trkpt>
<trkpt lat="35.0679502" lon="32.4712493">
<ele>17.10</ele>
<time>2015-04-25T08:18:21Z</time>
</trkpt>
<trkpt lat="35.0679236" lon="32.4711898">
<ele>17.01</ele>
<time>2015-04-25T08:18:22Z</time>
</trkpt>
<trkpt lat="35.0678922" lon="32.4711500">
<ele>16.97</ele>
<time>2015-04-25T08:18:23Z</time>
</trkpt>
<trkpt lat="35.0678669" lon="32.4711032">
<ele>16.95</ele>
<time>2015-04-25T08:18:24Z</time>
</trkpt>
<trkpt lat="35.0678267" lon="32.4710548">
<ele>16.94</ele>
<time>2015-04-25T08:18:25Z</time>
</trkpt>
<trkpt lat="35.0677752" lon="32.4710130">
<ele>17.43</ele>
<time>2015-04-25T08:18:26Z</time>
</trkpt>
<trkpt lat="35.0677443" lon="32.4709709">
<ele>18.18</ele>
<time>2015-04-25T08:18:27Z</time>
</trkpt>
<trkpt lat="35.0677131" lon="32.4709179">
<ele>18.05</ele>
<time>2015-04-25T08:18:28Z</time>
</trkpt>
<trkpt lat="35.0676858" lon="32.4708723">
<ele>17.99</ele>
<time>2015-04-25T08:18:29Z</time>
</trkpt>
<trkpt lat="35.0676480" lon="32.4708221">
<ele>17.96</ele>
<time>2015-04-25T08:18:30Z</time>
</trkpt>
<trkpt lat="35.0676194" lon="32.4707771">
<ele>18.44</ele>
<time>2015-04-25T08:18:31Z</time>
</trkpt>
<trkpt lat="35.0675578" lon="32.4707001">
<ele>19.55</ele>
<time>2015-04-25T08:18:33Z</time>
</trkpt>
<trkpt lat="35.0675248" lon="32.4706569">
<ele>19.74</ele>
<time>2015-04-25T08:18:34Z</time>
</trkpt>
<trkpt lat="35.0674582" lon="32.4705675">
<ele>19.38</ele>
<time>2015-04-25T08:18:36Z</time>
</trkpt>
<trkpt lat="35.0674289" lon="32.4705208">
<ele>18.65</ele>
<time>2015-04-25T08:18:37Z</time>
</trkpt>
<trkpt lat="35.0673936" lon="32.4704706">
<ele>18.29</ele>
<time>2015-04-25T08:18:38Z</time>
</trkpt>
<trkpt lat="35.0673491" lon="32.4704272">
<ele>18.11</ele>
<time>2015-04-25T08:18:39Z</time>
</trkpt>
<trkpt lat="35.0673197" lon="32.4703788">
<ele>17.52</ele>
<time>2015-04-25T08:18:40Z</time>
</trkpt>
<trkpt lat="35.0672866" lon="32.4703334">
<ele>17.22</ele>
<time>2015-04-25T08:18:41Z</time>
</trkpt>
<trkpt lat="35.0672519" lon="32.4702961">
<ele>16.57</ele>
<time>2015-04-25T08:18:42Z</time>
</trkpt>
<trkpt lat="35.0672115" lon="32.4702625">
<ele>16.75</ele>
<time>2015-04-25T08:18:43Z</time>
</trkpt>
<trkpt lat="35.0671664" lon="32.4702097">
<ele>17.34</ele>
<time>2015-04-25T08:18:44Z</time>
</trkpt>
<trkpt lat="35.0671374" lon="32.4701598">
<ele>17.13</ele>
<time>2015-04-25T08:18:45Z</time>
</trkpt>
<trkpt lat="35.0670887" lon="32.4701142">
<ele>17.53</ele>
<time>2015-04-25T08:18:46Z</time>
</trkpt>
<trkpt lat="35.0670512" lon="32.4700769">
<ele>17.23</ele>
<time>2015-04-25T08:18:47Z</time>
</trkpt>
<trkpt lat="35.0670213" lon="32.4700242">
<ele>17.08</ele>
<time>2015-04-25T08:18:48Z</time>
</trkpt>
<trkpt lat="35.0669492" lon="32.4699627">
<ele>16.96</ele>
<time>2015-04-25T08:18:50Z</time>
</trkpt>
<trkpt lat="35.0669158" lon="32.4699191">
<ele>16.94</ele>
<time>2015-04-25T08:18:51Z</time>
</trkpt>
<trkpt lat="35.0668740" lon="32.4698736">
<ele>17.43</ele>
<time>2015-04-25T08:18:52Z</time>
</trkpt>
<trkpt lat="35.0668353" lon="32.4698385">
<ele>17.68</ele>
<time>2015-04-25T08:18:53Z</time>
</trkpt>
<trkpt lat="35.0667960" lon="32.4697757">
<ele>17.80</ele>
<time>2015-04-25T08:18:54Z</time>
</trkpt>
<trkpt lat="35.0667273" lon="32.4697033">
<ele>18.64</ele>
<time>2015-04-25T08:18:56Z</time>
</trkpt>
<trkpt lat="35.0666858" lon="32.4696684">
<ele>18.28</ele>
<time>2015-04-25T08:18:57Z</time>
</trkpt>
<trkpt lat="35.0666414" lon="32.4696236">
<ele>18.10</ele>
<time>2015-04-25T08:18:58Z</time>
</trkpt>
<trkpt lat="35.0666024" lon="32.4695900">
<ele>18.01</ele>
<time>2015-04-25T08:18:59Z</time>
</trkpt>
<trkpt lat="35.0665484" lon="32.4695110">
<ele>18.70</ele>
<time>2015-04-25T08:19:01Z</time>
</trkpt>
<trkpt lat="35.0665068" lon="32.4694737">
<ele>19.31</ele>
<time>2015-04-25T08:19:02Z</time>
</trkpt>
<trkpt lat="35.0664319" lon="32.4694201">
<ele>19.02</ele>
<time>2015-04-25T08:19:04Z</time>
</trkpt>
<trkpt lat="35.0663639" lon="32.4693508">
<ele>18.95</ele>
<time>2015-04-25T08:19:06Z</time>
</trkpt>
<trkpt lat="35.0662950" lon="32.4692837">
<ele>20.43</ele>
<time>2015-04-25T08:19:08Z</time>
</trkpt>
<trkpt lat="35.0662687" lon="32.4692382">
<ele>20.18</ele>
<time>2015-04-25T08:19:09Z</time>
</trkpt>
<trkpt lat="35.0662151" lon="32.4691481">
<ele>19.74</ele>
<time>2015-04-25T08:19:11Z</time>
</trkpt>
<trkpt lat="35.0661864" lon="32.4691030">
<ele>19.83</ele>
<time>2015-04-25T08:19:12Z</time>
</trkpt>
<trkpt lat="35.0661612" lon="32.4690493">
<ele>19.88</ele>
<time>2015-04-25T08:19:13Z</time>
</trkpt>
<trkpt lat="35.0661306" lon="32.4689987">
<ele>19.90</ele>
<time>2015-04-25T08:19:14Z</time>
</trkpt>
<trkpt lat="35.0661055" lon="32.4689433">
<ele>20.41</ele>
<time>2015-04-25T08:19:15Z</time>
</trkpt>
<trkpt lat="35.0660787" lon="32.4688864">
<ele>20.67</ele>
<time>2015-04-25T08:19:16Z</time>
</trkpt>
<trkpt lat="35.0660101" lon="32.4687932">
<ele>20.61</ele>
<time>2015-04-25T08:19:18Z</time>
</trkpt>
<trkpt lat="35.0659775" lon="32.4687384">
<ele>20.77</ele>
<time>2015-04-25T08:19:19Z</time>
</trkpt>
<trkpt lat="35.0659524" lon="32.4686888">
<ele>20.85</ele>
<time>2015-04-25T08:19:20Z</time>
</trkpt>
<trkpt lat="35.0659235" lon="32.4686383">
<ele>20.39</ele>
<time>2015-04-25T08:19:21Z</time>
</trkpt>
<trkpt lat="35.0658891" lon="32.4685827">
<ele>20.16</ele>
<time>2015-04-25T08:19:22Z</time>
</trkpt>
<trkpt lat="35.0658650" lon="32.4685216">
<ele>20.04</ele>
<time>2015-04-25T08:19:23Z</time>
</trkpt>
<trkpt lat="35.0658535" lon="32.4684473">
<ele>18.98</ele>
<time>2015-04-25T08:19:24Z</time>
</trkpt>
<trkpt lat="35.0658355" lon="32.4683902">
<ele>17.95</ele>
<time>2015-04-25T08:19:25Z</time>
</trkpt>
<trkpt lat="35.0658043" lon="32.4683383">
<ele>17.44</ele>
<time>2015-04-25T08:19:26Z</time>
</trkpt>
<trkpt lat="35.0657715" lon="32.4682858">
<ele>16.68</ele>
<time>2015-04-25T08:19:27Z</time>
</trkpt>
<trkpt lat="35.0657367" lon="32.4682264">
<ele>16.80</ele>
<time>2015-04-25T08:19:28Z</time>
</trkpt>
<trkpt lat="35.0657021" lon="32.4681706">
<ele>16.86</ele>
<time>2015-04-25T08:19:29Z</time>
</trkpt>
<trkpt lat="35.0656765" lon="32.4681120">
<ele>16.39</ele>
<time>2015-04-25T08:19:30Z</time>
</trkpt>
<trkpt lat="35.0656434" lon="32.4680500">
<ele>16.66</ele>
<time>2015-04-25T08:19:31Z</time>
</trkpt>
<trkpt lat="35.0656167" lon="32.4679837">
<ele>16.29</ele>
<time>2015-04-25T08:19:32Z</time>
</trkpt>
<trkpt lat="35.0655795" lon="32.4679194">
<ele>16.61</ele>
<time>2015-04-25T08:19:33Z</time>
</trkpt>
<trkpt lat="35.0655482" lon="32.4678554">
<ele>16.27</ele>
<time>2015-04-25T08:19:34Z</time>
</trkpt>
<trkpt lat="35.0655238" lon="32.4678024">
<ele>15.60</ele>
<time>2015-04-25T08:19:35Z</time>
</trkpt>
<trkpt lat="35.0654742" lon="32.4676999">
<ele>14.59</ele>
<time>2015-04-25T08:19:37Z</time>
</trkpt>
<trkpt lat="35.0654421" lon="32.4676459">
<ele>14.26</ele>
<time>2015-04-25T08:19:38Z</time>
</trkpt>
<trkpt lat="35.0654126" lon="32.4675883">
<ele>14.59</ele>
<time>2015-04-25T08:19:39Z</time>
</trkpt>
<trkpt lat="35.0653680" lon="32.4675379">
<ele>14.76</ele>
<time>2015-04-25T08:19:40Z</time>
</trkpt>
<trkpt lat="35.0653427" lon="32.4674800">
<ele>14.84</ele>
<time>2015-04-25T08:19:41Z</time>
</trkpt>
<trkpt lat="35.0653158" lon="32.4674215">
<ele>14.88</ele>
<time>2015-04-25T08:19:42Z</time>
</trkpt>
<trkpt lat="35.0652940" lon="32.4673522">
<ele>14.40</ele>
<time>2015-04-25T08:19:43Z</time>
</trkpt>
<trkpt lat="35.0652719" lon="32.4672968">
<ele>14.16</ele>
<time>2015-04-25T08:19:44Z</time>
</trkpt>
<trkpt lat="35.0652450" lon="32.4672389">
<ele>14.04</ele>
<time>2015-04-25T08:19:45Z</time>
</trkpt>
<trkpt lat="35.0652014" lon="32.4671899">
<ele>15.48</ele>
<time>2015-04-25T08:19:46Z</time>
</trkpt>
<trkpt lat="35.0651714" lon="32.4671291">
<ele>16.20</ele>
<time>2015-04-25T08:19:47Z</time>
</trkpt>
<trkpt lat="35.0651470" lon="32.4670620">
<ele>16.56</ele>
<time>2015-04-25T08:19:48Z</time>
</trkpt>
<trkpt lat="35.0651253" lon="32.4670085">
<ele>16.24</ele>
<time>2015-04-25T08:19:49Z</time>
</trkpt>
<trkpt lat="35.0650966" lon="32.4669481">
<ele>15.58</ele>
<time>2015-04-25T08:19:50Z</time>
</trkpt>
<trkpt lat="35.0650760" lon="32.4668953">
<ele>15.25</ele>
<time>2015-04-25T08:19:51Z</time>
</trkpt>
<trkpt lat="35.0650443" lon="32.4668458">
<ele>15.59</ele>
<time>2015-04-25T08:19:52Z</time>
</trkpt>
<trkpt lat="35.0650097" lon="32.4668005">
<ele>15.76</ele>
<time>2015-04-25T08:19:53Z</time>
</trkpt>
<trkpt lat="35.0649887" lon="32.4667505">
<ele>15.34</ele>
<time>2015-04-25T08:19:54Z</time>
</trkpt>
<trkpt lat="35.0649473" lon="32.4666581">
<ele>15.03</ele>
<time>2015-04-25T08:19:56Z</time>
</trkpt>
<trkpt lat="35.0648990" lon="32.4665745">
<ele>15.95</ele>
<time>2015-04-25T08:19:58Z</time>
</trkpt>
<trkpt lat="35.0648665" lon="32.4665229">
<ele>15.94</ele>
<time>2015-04-25T08:19:59Z</time>
</trkpt>
<trkpt lat="35.0648399" lon="32.4664698">
<ele>15.93</ele>
<time>2015-04-25T08:20:00Z</time>
</trkpt>
<trkpt lat="35.0648086" lon="32.4664194">
<ele>15.43</ele>
<time>2015-04-25T08:20:01Z</time>
</trkpt>
<trkpt lat="35.0647708" lon="32.4663681">
<ele>15.68</ele>
<time>2015-04-25T08:20:02Z</time>
</trkpt>
<trkpt lat="35.0647366" lon="32.4663214">
<ele>15.80</ele>
<time>2015-04-25T08:20:03Z</time>
</trkpt>
<trkpt lat="35.0646883" lon="32.4662719">
<ele>15.86</ele>
<time>2015-04-25T08:20:04Z</time>
</trkpt>
<trkpt lat="35.0646562" lon="32.4662328">
<ele>15.39</ele>
<time>2015-04-25T08:20:05Z</time>
</trkpt>
<trkpt lat="35.0646204" lon="32.4661893">
<ele>15.16</ele>
<time>2015-04-25T08:20:06Z</time>
</trkpt>
<trkpt lat="35.0645826" lon="32.4661384">
<ele>15.04</ele>
<time>2015-04-25T08:20:07Z</time>
</trkpt>
<trkpt lat="35.0645437" lon="32.4660906">
<ele>15.48</ele>
<time>2015-04-25T08:20:08Z</time>
</trkpt>
<trkpt lat="35.0645044" lon="32.4660471">
<ele>15.20</ele>
<time>2015-04-25T08:20:09Z</time>
</trkpt>
<trkpt lat="35.0644625" lon="32.4660024">
<ele>15.06</ele>
<time>2015-04-25T08:20:10Z</time>
</trkpt>
<trkpt lat="35.0644186" lon="32.4659618">
<ele>14.99</ele>
<time>2015-04-25T08:20:11Z</time>
</trkpt>
<trkpt lat="35.0643777" lon="32.4659086">
<ele>15.46</ele>
<time>2015-04-25T08:20:12Z</time>
</trkpt>
<trkpt lat="35.0643360" lon="32.4658686">
<ele>15.19</ele>
<time>2015-04-25T08:20:13Z</time>
</trkpt>
<trkpt lat="35.0642929" lon="32.4658201">
<ele>15.06</ele>
<time>2015-04-25T08:20:14Z</time>
</trkpt>
<trkpt lat="35.0642619" lon="32.4657680">
<ele>14.99</ele>
<time>2015-04-25T08:20:15Z</time>
</trkpt>
<trkpt lat="35.0642137" lon="32.4657402">
<ele>15.46</ele>
<time>2015-04-25T08:20:16Z</time>
</trkpt>
<trkpt lat="35.0641710" lon="32.4656946">
<ele>15.19</ele>
<time>2015-04-25T08:20:17Z</time>
</trkpt>
<trkpt lat="35.0641307" lon="32.4656458">
<ele>15.56</ele>
<time>2015-04-25T08:20:18Z</time>
</trkpt>
<trkpt lat="35.0640911" lon="32.4655995">
<ele>16.24</ele>
<time>2015-04-25T08:20:19Z</time>
</trkpt>
<trkpt lat="35.0640555" lon="32.4655493">
<ele>16.08</ele>
<time>2015-04-25T08:20:20Z</time>
</trkpt>
<trkpt lat="35.0640198" lon="32.4655036">
<ele>16.00</ele>
<time>2015-04-25T08:20:21Z</time>
</trkpt>
<trkpt lat="35.0639856" lon="32.4654495">
<ele>15.96</ele>
<time>2015-04-25T08:20:22Z</time>
</trkpt>
<trkpt lat="35.0639495" lon="32.4654047">
<ele>15.44</ele>
<time>2015-04-25T08:20:23Z</time>
</trkpt>
<trkpt lat="35.0639125" lon="32.4653622">
<ele>15.18</ele>
<time>2015-04-25T08:20:24Z</time>
</trkpt>
<trkpt lat="35.0638685" lon="32.4653365">
<ele>15.05</ele>
<time>2015-04-25T08:20:25Z</time>
</trkpt>
<trkpt lat="35.0638389" lon="32.4652886">
<ele>14.49</ele>
<time>2015-04-25T08:20:26Z</time>
</trkpt>
<trkpt lat="35.0637994" lon="32.4652493">
<ele>14.71</ele>
<time>2015-04-25T08:20:27Z</time>
</trkpt>
<trkpt lat="35.0637612" lon="32.4652023">
<ele>14.82</ele>
<time>2015-04-25T08:20:28Z</time>
</trkpt>
<trkpt lat="35.0637292" lon="32.4651536">
<ele>14.37</ele>
<time>2015-04-25T08:20:29Z</time>
</trkpt>
<trkpt lat="35.0636986" lon="32.4651074">
<ele>14.15</ele>
<time>2015-04-25T08:20:30Z</time>
</trkpt>
<trkpt lat="35.0636581" lon="32.4650653">
<ele>14.04</ele>
<time>2015-04-25T08:20:31Z</time>
</trkpt>
<trkpt lat="35.0636219" lon="32.4650227">
<ele>13.48</ele>
<time>2015-04-25T08:20:32Z</time>
</trkpt>
<trkpt lat="35.0635719" lon="32.4650136">
<ele>12.70</ele>
<time>2015-04-25T08:20:33Z</time>
</trkpt>
<trkpt lat="35.0635237" lon="32.4649687">
<ele>12.31</ele>
<time>2015-04-25T08:20:34Z</time>
</trkpt>
<trkpt lat="35.0634786" lon="32.4649241">
<ele>12.12</ele>
<time>2015-04-25T08:20:35Z</time>
</trkpt>
<trkpt lat="35.0634346" lon="32.4648705">
<ele>12.52</ele>
<time>2015-04-25T08:20:36Z</time>
</trkpt>
<trkpt lat="35.0633901" lon="32.4648238">
<ele>13.22</ele>
<time>2015-04-25T08:20:37Z</time>
</trkpt>
<trkpt lat="35.0633480" lon="32.4647826">
<ele>14.07</ele>
<time>2015-04-25T08:20:38Z</time>
</trkpt>
<trkpt lat="35.0633154" lon="32.4647250">
<ele>14.00</ele>
<time>2015-04-25T08:20:39Z</time>
</trkpt>
<trkpt lat="35.0632796" lon="32.4646750">
<ele>13.96</ele>
<time>2015-04-25T08:20:40Z</time>
</trkpt>
<trkpt lat="35.0632477" lon="32.4646201">
<ele>13.44</ele>
<time>2015-04-25T08:20:41Z</time>
</trkpt>
<trkpt lat="35.0632191" lon="32.4645741">
<ele>12.68</ele>
<time>2015-04-25T08:20:42Z</time>
</trkpt>
<trkpt lat="35.0631904" lon="32.4645249">
<ele>12.30</ele>
<time>2015-04-25T08:20:43Z</time>
</trkpt>
<trkpt lat="35.0631528" lon="32.4644668">
<ele>12.11</ele>
<time>2015-04-25T08:20:44Z</time>
</trkpt>
<trkpt lat="35.0631238" lon="32.4644233">
<ele>12.52</ele>
<time>2015-04-25T08:20:45Z</time>
</trkpt>
<trkpt lat="35.0630804" lon="32.4643744">
<ele>13.22</ele>
<time>2015-04-25T08:20:46Z</time>
</trkpt>
<trkpt lat="35.0630470" lon="32.4643221">
<ele>13.57</ele>
<time>2015-04-25T08:20:47Z</time>
</trkpt>
<trkpt lat="35.0630068" lon="32.4642582">
<ele>13.25</ele>
<time>2015-04-25T08:20:48Z</time>
</trkpt>
<trkpt lat="35.0629630" lon="32.4642018">
<ele>13.09</ele>
<time>2015-04-25T08:20:49Z</time>
</trkpt>
<trkpt lat="35.0629210" lon="32.4641410">
<ele>13.51</ele>
<time>2015-04-25T08:20:50Z</time>
</trkpt>
<trkpt lat="35.0628797" lon="32.4640893">
<ele>13.72</ele>
<time>2015-04-25T08:20:51Z</time>
</trkpt>
<trkpt lat="35.0628476" lon="32.4640396">
<ele>13.32</ele>
<time>2015-04-25T08:20:52Z</time>
</trkpt>
<trkpt lat="35.0628170" lon="32.4639954">
<ele>13.12</ele>
<time>2015-04-25T08:20:53Z</time>
</trkpt>
<trkpt lat="35.0627807" lon="32.4639446">
<ele>12.52</ele>
<time>2015-04-25T08:20:54Z</time>
</trkpt>
<trkpt lat="35.0627523" lon="32.4638947">
<ele>12.22</ele>
<time>2015-04-25T08:20:55Z</time>
</trkpt>
<trkpt lat="35.0627084" lon="32.4638579">
<ele>12.07</ele>
<time>2015-04-25T08:20:56Z</time>
</trkpt>
<trkpt lat="35.0626735" lon="32.4638078">
<ele>11.50</ele>
<time>2015-04-25T08:20:57Z</time>
</trkpt>
<trkpt lat="35.0626343" lon="32.4637503">
<ele>12.21</ele>
<time>2015-04-25T08:20:58Z</time>
</trkpt>
<trkpt lat="35.0626018" lon="32.4637007">
<ele>12.57</ele>
<time>2015-04-25T08:20:59Z</time>
</trkpt>
<trkpt lat="35.0625664" lon="32.4636505">
<ele>12.75</ele>
<time>2015-04-25T08:21:00Z</time>
</trkpt>
<trkpt lat="35.0625331" lon="32.4636025">
<ele>12.34</ele>
<time>2015-04-25T08:21:01Z</time>
</trkpt>
<trkpt lat="35.0624950" lon="32.4635513">
<ele>13.13</ele>
<time>2015-04-25T08:21:02Z</time>
</trkpt>
<trkpt lat="35.0624574" lon="32.4635152">
<ele>13.53</ele>
<time>2015-04-25T08:21:03Z</time>
</trkpt>
<trkpt lat="35.0624326" lon="32.4634685">
<ele>13.73</ele>
<time>2015-04-25T08:21:04Z</time>
</trkpt>
<trkpt lat="35.0623952" lon="32.4634143">
<ele>13.83</ele>
<time>2015-04-25T08:21:05Z</time>
</trkpt>
<trkpt lat="35.0623630" lon="32.4633575">
<ele>13.88</ele>
<time>2015-04-25T08:21:06Z</time>
</trkpt>
<trkpt lat="35.0623290" lon="32.4633054">
<ele>13.90</ele>
<time>2015-04-25T08:21:07Z</time>
</trkpt>
<trkpt lat="35.0622934" lon="32.4632576">
<ele>13.41</ele>
<time>2015-04-25T08:21:08Z</time>
</trkpt>
<trkpt lat="35.0622590" lon="32.4632074">
<ele>13.17</ele>
<time>2015-04-25T08:21:09Z</time>
</trkpt>
<trkpt lat="35.0622240" lon="32.4631516">
<ele>12.55</ele>
<time>2015-04-25T08:21:10Z</time>
</trkpt>
<trkpt lat="35.0621974" lon="32.4630956">
<ele>11.74</ele>
<time>2015-04-25T08:21:11Z</time>
</trkpt>
<trkpt lat="35.0621505" lon="32.4630442">
<ele>12.33</ele>
<time>2015-04-25T08:21:12Z</time>
</trkpt>
<trkpt lat="35.0621112" lon="32.4629877">
<ele>12.13</ele>
<time>2015-04-25T08:21:13Z</time>
</trkpt>
<trkpt lat="35.0620785" lon="32.4629432">
<ele>12.53</ele>
<time>2015-04-25T08:21:14Z</time>
</trkpt>
<trkpt lat="35.0620419" lon="32.4628888">
<ele>12.23</ele>
<time>2015-04-25T08:21:15Z</time>
</trkpt>
<trkpt lat="35.0620103" lon="32.4628303">
<ele>12.08</ele>
<time>2015-04-25T08:21:16Z</time>
</trkpt>
<trkpt lat="35.0619687" lon="32.4627926">
<ele>12.50</ele>
<time>2015-04-25T08:21:17Z</time>
</trkpt>
<trkpt lat="35.0619376" lon="32.4627431">
<ele>12.21</ele>
<time>2015-04-25T08:21:18Z</time>
</trkpt>
<trkpt lat="35.0618987" lon="32.4627032">
<ele>12.57</ele>
<time>2015-04-25T08:21:19Z</time>
</trkpt>
<trkpt lat="35.0618667" lon="32.4626551">
<ele>12.75</ele>
<time>2015-04-25T08:21:20Z</time>
</trkpt>
<trkpt lat="35.0618326" lon="32.4626134">
<ele>12.34</ele>
<time>2015-04-25T08:21:21Z</time>
</trkpt>
<trkpt lat="35.0617916" lon="32.4625643">
<ele>12.13</ele>
<time>2015-04-25T08:21:22Z</time>
</trkpt>
<trkpt lat="35.0617656" lon="32.4625129">
<ele>12.03</ele>
<time>2015-04-25T08:21:23Z</time>
</trkpt>
<trkpt lat="35.0617322" lon="32.4624558">
<ele>11.98</ele>
<time>2015-04-25T08:21:24Z</time>
</trkpt>
<trkpt lat="35.0616957" lon="32.4624047">
<ele>11.95</ele>
<time>2015-04-25T08:21:25Z</time>
</trkpt>
<trkpt lat="35.0616582" lon="32.4623568">
<ele>12.44</ele>
<time>2015-04-25T08:21:26Z</time>
</trkpt>
<trkpt lat="35.0616139" lon="32.4623052">
<ele>12.68</ele>
<time>2015-04-25T08:21:27Z</time>
</trkpt>
<trkpt lat="35.0615783" lon="32.4622627">
<ele>13.30</ele>
<time>2015-04-25T08:21:28Z</time>
</trkpt>
<trkpt lat="35.0615467" lon="32.4622101">
<ele>13.61</ele>
<time>2015-04-25T08:21:29Z</time>
</trkpt>
<trkpt lat="35.0615060" lon="32.4621622">
<ele>13.77</ele>
<time>2015-04-25T08:21:30Z</time>
</trkpt>
<trkpt lat="35.0614744" lon="32.4621188">
<ele>13.85</ele>
<time>2015-04-25T08:21:31Z</time>
</trkpt>
<trkpt lat="35.0614456" lon="32.4620707">
<ele>13.89</ele>
<time>2015-04-25T08:21:32Z</time>
</trkpt>
<trkpt lat="35.0614200" lon="32.4620192">
<ele>13.91</ele>
<time>2015-04-25T08:21:33Z</time>
</trkpt>
<trkpt lat="35.0613893" lon="32.4619713">
<ele>13.92</ele>
<time>2015-04-25T08:21:34Z</time>
</trkpt>
<trkpt lat="35.0613518" lon="32.4619118">
<ele>13.42</ele>
<time>2015-04-25T08:21:35Z</time>
</trkpt>
<trkpt lat="35.0613144" lon="32.4618566">
<ele>13.17</ele>
<time>2015-04-25T08:21:36Z</time>
</trkpt>
<trkpt lat="35.0612675" lon="32.4618154">
<ele>12.55</ele>
<time>2015-04-25T08:21:37Z</time>
</trkpt>
<trkpt lat="35.0612215" lon="32.4617704">
<ele>12.74</ele>
<time>2015-04-25T08:21:38Z</time>
</trkpt>
<trkpt lat="35.0611815" lon="32.4617250">
<ele>13.33</ele>
<time>2015-04-25T08:21:39Z</time>
</trkpt>
<trkpt lat="35.0611425" lon="32.4616710">
<ele>13.13</ele>
<time>2015-04-25T08:21:40Z</time>
</trkpt>
<trkpt lat="35.0611086" lon="32.4616260">
<ele>13.53</ele>
<time>2015-04-25T08:21:41Z</time>
</trkpt>
<trkpt lat="35.0610738" lon="32.4615723">
<ele>13.73</ele>
<time>2015-04-25T08:21:42Z</time>
</trkpt>
<trkpt lat="35.0610479" lon="32.4615238">
<ele>14.33</ele>
<time>2015-04-25T08:21:43Z</time>
</trkpt>
<trkpt lat="35.0610073" lon="32.4614752">
<ele>14.63</ele>
<time>2015-04-25T08:21:44Z</time>
</trkpt>
<trkpt lat="35.0609732" lon="32.4614175">
<ele>14.28</ele>
<time>2015-04-25T08:21:45Z</time>
</trkpt>
<trkpt lat="35.0609342" lon="32.4613611">
<ele>14.60</ele>
<time>2015-04-25T08:21:46Z</time>
</trkpt>
<trkpt lat="35.0609116" lon="32.4613087">
<ele>14.76</ele>
<time>2015-04-25T08:21:47Z</time>
</trkpt>
<trkpt lat="35.0608697" lon="32.4612542">
<ele>14.84</ele>
<time>2015-04-25T08:21:48Z</time>
</trkpt>
<trkpt lat="35.0608366" lon="32.4612064">
<ele>14.88</ele>
<time>2015-04-25T08:21:49Z</time>
</trkpt>
<trkpt lat="35.0608008" lon="32.4611482">
<ele>14.90</ele>
<time>2015-04-25T08:21:50Z</time>
</trkpt>
<trkpt lat="35.0607619" lon="32.4611058">
<ele>15.41</ele>
<time>2015-04-25T08:21:51Z</time>
</trkpt>
<trkpt lat="35.0607313" lon="32.4610530">
<ele>15.17</ele>
<time>2015-04-25T08:21:52Z</time>
</trkpt>
<trkpt lat="35.0606917" lon="32.4609997">
<ele>15.05</ele>
<time>2015-04-25T08:21:53Z</time>
</trkpt>
<trkpt lat="35.0606604" lon="32.4609452">
<ele>15.49</ele>
<time>2015-04-25T08:21:54Z</time>
</trkpt>
<trkpt lat="35.0606336" lon="32.4608911">
<ele>15.21</ele>
<time>2015-04-25T08:21:55Z</time>
</trkpt>
<trkpt lat="35.0605925" lon="32.4608370">
<ele>15.57</ele>
<time>2015-04-25T08:21:56Z</time>
</trkpt>
<trkpt lat="35.0605557" lon="32.4607834">
<ele>15.75</ele>
<time>2015-04-25T08:21:57Z</time>
</trkpt>
<trkpt lat="35.0605229" lon="32.4607287">
<ele>15.34</ele>
<time>2015-04-25T08:21:58Z</time>
</trkpt>
<trkpt lat="35.0605009" lon="32.4606730">
<ele>15.13</ele>
<time>2015-04-25T08:21:59Z</time>
</trkpt>
<trkpt lat="35.0604683" lon="32.4606129">
<ele>15.03</ele>
<time>2015-04-25T08:22:00Z</time>
</trkpt>
<trkpt lat="35.0604432" lon="32.4605559">
<ele>14.48</ele>
<time>2015-04-25T08:22:01Z</time>
</trkpt>
<trkpt lat="35.0604058" lon="32.4605066">
<ele>14.70</ele>
<time>2015-04-25T08:22:02Z</time>
</trkpt>
<trkpt lat="35.0603836" lon="32.4604534">
<ele>14.81</ele>
<time>2015-04-25T08:22:03Z</time>
</trkpt>
<trkpt lat="35.0603611" lon="32.4603944">
<ele>14.87</ele>
<time>2015-04-25T08:22:04Z</time>
</trkpt>
<trkpt lat="35.0603419" lon="32.4603423">
<ele>14.90</ele>
<time>2015-04-25T08:22:05Z</time>
</trkpt>
<trkpt lat="35.0603216" lon="32.4602920">
<ele>14.91</ele>
<time>2015-04-25T08:22:06Z</time>
</trkpt>
<trkpt lat="35.0602828" lon="32.4601925">
<ele>15.42</ele>
<time>2015-04-25T08:22:08Z</time>
</trkpt>
<trkpt lat="35.0602714" lon="32.4601304">
<ele>15.17</ele>
<time>2015-04-25T08:22:09Z</time>
</trkpt>
<trkpt lat="35.0602289" lon="32.4600345">
<ele>15.24</ele>
<time>2015-04-25T08:22:11Z</time>
</trkpt>
<trkpt lat="35.0602039" lon="32.4599682">
<ele>15.08</ele>
<time>2015-04-25T08:22:12Z</time>
</trkpt>
<trkpt lat="35.0601866" lon="32.4599017">
<ele>15.00</ele>
<time>2015-04-25T08:22:13Z</time>
</trkpt>
<trkpt lat="35.0601682" lon="32.4598484">
<ele>14.96</ele>
<time>2015-04-25T08:22:14Z</time>
</trkpt>
<trkpt lat="35.0601561" lon="32.4597829">
<ele>14.94</ele>
<time>2015-04-25T08:22:15Z</time>
</trkpt>
<trkpt lat="35.0601401" lon="32.4597115">
<ele>14.93</ele>
<time>2015-04-25T08:22:16Z</time>
</trkpt>
<trkpt lat="35.0601091" lon="32.4596599">
<ele>15.43</ele>
<time>2015-04-25T08:22:17Z</time>
</trkpt>
<trkpt lat="35.0600861" lon="32.4595988">
<ele>16.18</ele>
<time>2015-04-25T08:22:18Z</time>
</trkpt>
<trkpt lat="35.0600645" lon="32.4595386">
<ele>16.55</ele>
<time>2015-04-25T08:22:19Z</time>
</trkpt>
<trkpt lat="35.0600509" lon="32.4594667">
<ele>16.74</ele>
<time>2015-04-25T08:22:20Z</time>
</trkpt>
<trkpt lat="35.0600346" lon="32.4594065">
<ele>16.83</ele>
<time>2015-04-25T08:22:21Z</time>
</trkpt>
<trkpt lat="35.0600032" lon="32.4593476">
<ele>16.88</ele>
<time>2015-04-25T08:22:22Z</time>
</trkpt>
<trkpt lat="35.0599670" lon="32.4592779">
<ele>16.90</ele>
<time>2015-04-25T08:22:23Z</time>
</trkpt>
<trkpt lat="35.0599402" lon="32.4592114">
<ele>17.41</ele>
<time>2015-04-25T08:22:24Z</time>
</trkpt>
<trkpt lat="35.0599173" lon="32.4591612">
<ele>18.17</ele>
<time>2015-04-25T08:22:25Z</time>
</trkpt>
<trkpt lat="35.0598883" lon="32.4591155">
<ele>18.55</ele>
<time>2015-04-25T08:22:26Z</time>
</trkpt>
<trkpt lat="35.0598217" lon="32.4590184">
<ele>18.83</ele>
<time>2015-04-25T08:22:28Z</time>
</trkpt>
<trkpt lat="35.0597841" lon="32.4589602">
<ele>18.88</ele>
<time>2015-04-25T08:22:29Z</time>
</trkpt>
<trkpt lat="35.0597606" lon="32.4589015">
<ele>18.90</ele>
<time>2015-04-25T08:22:30Z</time>
</trkpt>
<trkpt lat="35.0597277" lon="32.4588482">
<ele>18.91</ele>
<time>2015-04-25T08:22:31Z</time>
</trkpt>
<trkpt lat="35.0596934" lon="32.4588011">
<ele>18.92</ele>
<time>2015-04-25T08:22:32Z</time>
</trkpt>
<trkpt lat="35.0596553" lon="32.4587556">
<ele>18.42</ele>
<time>2015-04-25T08:22:33Z</time>
</trkpt>
<trkpt lat="35.0596187" lon="32.4587095">
<ele>18.17</ele>
<time>2015-04-25T08:22:34Z</time>
</trkpt>
<trkpt lat="35.0595795" lon="32.4586644">
<ele>18.05</ele>
<time>2015-04-25T08:22:35Z</time>
</trkpt>
<trkpt lat="35.0595432" lon="32.4586138">
<ele>17.49</ele>
<time>2015-04-25T08:22:36Z</time>
</trkpt>
<trkpt lat="35.0595016" lon="32.4585622">
<ele>17.21</ele>
<time>2015-04-25T08:22:37Z</time>
</trkpt>
<trkpt lat="35.0594549" lon="32.4585104">
<ele>16.57</ele>
<time>2015-04-25T08:22:38Z</time>
</trkpt>
<trkpt lat="35.0594161" lon="32.4584607">
<ele>16.25</ele>
<time>2015-04-25T08:22:39Z</time>
</trkpt>
<trkpt lat="35.0593751" lon="32.4584256">
<ele>15.59</ele>
<time>2015-04-25T08:22:40Z</time>
</trkpt>
<trkpt lat="35.0593319" lon="32.4583879">
<ele>15.26</ele>
<time>2015-04-25T08:22:41Z</time>
</trkpt>
<trkpt lat="35.0592938" lon="32.4583414">
<ele>14.59</ele>
<time>2015-04-25T08:22:42Z</time>
</trkpt>
<trkpt lat="35.0592560" lon="32.4582943">
<ele>14.26</ele>
<time>2015-04-25T08:22:43Z</time>
</trkpt>
<trkpt lat="35.0592076" lon="32.4582365">
<ele>13.59</ele>
<time>2015-04-25T08:22:44Z</time>
</trkpt>
<trkpt lat="35.0591637" lon="32.4581852">
<ele>13.26</ele>
<time>2015-04-25T08:22:45Z</time>
</trkpt>
<trkpt lat="35.0591136" lon="32.4581331">
<ele>14.09</ele>
<time>2015-04-25T08:22:46Z</time>
</trkpt>
<trkpt lat="35.0590738" lon="32.4580823">
<ele>14.01</ele>
<time>2015-04-25T08:22:47Z</time>
</trkpt>
<trkpt lat="35.0590302" lon="32.4580217">
<ele>13.47</ele>
<time>2015-04-25T08:22:48Z</time>
</trkpt>
<trkpt lat="35.0589872" lon="32.4579750">
<ele>14.20</ele>
<time>2015-04-25T08:22:49Z</time>
</trkpt>
<trkpt lat="35.0589475" lon="32.4579148">
<ele>14.06</ele>
<time>2015-04-25T08:22:50Z</time>
</trkpt>
<trkpt lat="35.0589166" lon="32.4578588">
<ele>13.99</ele>
<time>2015-04-25T08:22:51Z</time>
</trkpt>
<trkpt lat="35.0588685" lon="32.4577904">
<ele>13.96</ele>
<time>2015-04-25T08:22:52Z</time>
</trkpt>
<trkpt lat="35.0588291" lon="32.4577234">
<ele>14.44</ele>
<time>2015-04-25T08:22:53Z</time>
</trkpt>
<trkpt lat="35.0587880" lon="32.4576591">
<ele>14.68</ele>
<time>2015-04-25T08:22:54Z</time>
</trkpt>
<trkpt lat="35.0587449" lon="32.4575880">
<ele>14.80</ele>
<time>2015-04-25T08:22:55Z</time>
</trkpt>
<trkpt lat="35.0587093" lon="32.4575198">
<ele>14.86</ele>
<time>2015-04-25T08:22:56Z</time>
</trkpt>
<trkpt lat="35.0586607" lon="32.4574635">
<ele>15.39</ele>
<time>2015-04-25T08:22:57Z</time>
</trkpt>
<trkpt lat="35.0586224" lon="32.4573995">
<ele>15.66</ele>
<time>2015-04-25T08:22:58Z</time>
</trkpt>
<trkpt lat="35.0585833" lon="32.4573459">
<ele>15.79</ele>
<time>2015-04-25T08:22:59Z</time>
</trkpt>
<trkpt lat="35.0585392" lon="32.4572827">
<ele>15.86</ele>
<time>2015-04-25T08:23:00Z</time>
</trkpt>
<trkpt lat="35.0585046" lon="32.4572215">
<ele>15.39</ele>
<time>2015-04-25T08:23:01Z</time>
</trkpt>
<trkpt lat="35.0584823" lon="32.4571580">
<ele>14.66</ele>
<time>2015-04-25T08:23:02Z</time>
</trkpt>
<trkpt lat="35.0584516" lon="32.4570896">
<ele>14.29</ele>
<time>2015-04-25T08:23:03Z</time>
</trkpt>
<trkpt lat="35.0584242" lon="32.4570250">
<ele>13.61</ele>
<time>2015-04-25T08:23:04Z</time>
</trkpt>
<trkpt lat="35.0583860" lon="32.4569632">
<ele>13.27</ele>
<time>2015-04-25T08:23:05Z</time>
</trkpt>
<trkpt lat="35.0583505" lon="32.4569032">
<ele>13.60</ele>
<time>2015-04-25T08:23:06Z</time>
</trkpt>
<trkpt lat="35.0582912" lon="32.4568112">
<ele>13.84</ele>
<time>2015-04-25T08:23:08Z</time>
</trkpt>
<trkpt lat="35.0582564" lon="32.4567600">
<ele>13.88</ele>
<time>2015-04-25T08:23:09Z</time>
</trkpt>
<trkpt lat="35.0582181" lon="32.4567185">
<ele>14.40</ele>
<time>2015-04-25T08:23:10Z</time>
</trkpt>
<trkpt lat="35.0581889" lon="32.4566637">
<ele>14.66</ele>
<time>2015-04-25T08:23:11Z</time>
</trkpt>
<trkpt lat="35.0581469" lon="32.4566135">
<ele>15.29</ele>
<time>2015-04-25T08:23:12Z</time>
</trkpt>
<trkpt lat="35.0581219" lon="32.4565527">
<ele>15.61</ele>
<time>2015-04-25T08:23:13Z</time>
</trkpt>
<trkpt lat="35.0580971" lon="32.4564819">
<ele>15.27</ele>
<time>2015-04-25T08:23:14Z</time>
</trkpt>
<trkpt lat="35.0580675" lon="32.4564244">
<ele>15.60</ele>
<time>2015-04-25T08:23:15Z</time>
</trkpt>
<trkpt lat="35.0580366" lon="32.4563699">
<ele>16.26</ele>
<time>2015-04-25T08:23:16Z</time>
</trkpt>
<trkpt lat="35.0580072" lon="32.4563108">
<ele>16.09</ele>
<time>2015-04-25T08:23:17Z</time>
</trkpt>
<trkpt lat="35.0579760" lon="32.4562465">
<ele>16.51</ele>
<time>2015-04-25T08:23:18Z</time>
</trkpt>
<trkpt lat="35.0579544" lon="32.4561900">
<ele>16.72</ele>
<time>2015-04-25T08:23:19Z</time>
</trkpt>
<trkpt lat="35.0579282" lon="32.4561277">
<ele>16.82</ele>
<time>2015-04-25T08:23:20Z</time>
</trkpt>
<trkpt lat="35.0578962" lon="32.4560780">
<ele>16.37</ele>
<time>2015-04-25T08:23:21Z</time>
</trkpt>
<trkpt lat="35.0578800" lon="32.4560163">
<ele>15.65</ele>
<time>2015-04-25T08:23:22Z</time>
</trkpt>
<trkpt lat="35.0578530" lon="32.4559720">
<ele>14.79</ele>
<time>2015-04-25T08:23:23Z</time>
</trkpt>
<trkpt lat="35.0578194" lon="32.4559067">
<ele>14.36</ele>
<time>2015-04-25T08:23:24Z</time>
</trkpt>
<trkpt lat="35.0577951" lon="32.4558468">
<ele>14.14</ele>
<time>2015-04-25T08:23:25Z</time>
</trkpt>
<trkpt lat="35.0577646" lon="32.4557957">
<ele>14.03</ele>
<time>2015-04-25T08:23:26Z</time>
</trkpt>
<trkpt lat="35.0577385" lon="32.4557440">
<ele>14.48</ele>
<time>2015-04-25T08:23:27Z</time>
</trkpt>
<trkpt lat="35.0577077" lon="32.4556950">
<ele>15.20</ele>
<time>2015-04-25T08:23:28Z</time>
</trkpt>
<trkpt lat="35.0576775" lon="32.4556480">
<ele>15.06</ele>
<time>2015-04-25T08:23:29Z</time>
</trkpt>
<trkpt lat="35.0576453" lon="32.4555951">
<ele>14.99</ele>
<time>2015-04-25T08:23:30Z</time>
</trkpt>
<trkpt lat="35.0576071" lon="32.4555383">
<ele>14.96</ele>
<time>2015-04-25T08:23:31Z</time>
</trkpt>
<trkpt lat="35.0575662" lon="32.4554781">
<ele>14.44</ele>
<time>2015-04-25T08:23:32Z</time>
</trkpt>
<trkpt lat="35.0575350" lon="32.4554272">
<ele>14.18</ele>
<time>2015-04-25T08:23:33Z</time>
</trkpt>
<trkpt lat="35.0574732" lon="32.4553437">
<ele>14.99</ele>
<time>2015-04-25T08:23:35Z</time>
</trkpt>
<trkpt lat="35.0574433" lon="32.4552966">
<ele>15.46</ele>
<time>2015-04-25T08:23:36Z</time>
</trkpt>
<trkpt lat="35.0574111" lon="32.4552552">
<ele>15.69</ele>
<time>2015-04-25T08:23:37Z</time>
</trkpt>
<trkpt lat="35.0573757" lon="32.4552112">
<ele>15.81</ele>
<time>2015-04-25T08:23:38Z</time>
</trkpt>
<trkpt lat="35.0573118" lon="32.4551488">
<ele>15.90</ele>
<time>2015-04-25T08:23:40Z</time>
</trkpt>
<trkpt lat="35.0572531" lon="32.4551044">
<ele>16.67</ele>
<time>2015-04-25T08:23:42Z</time>
</trkpt>
<trkpt lat="35.0572128" lon="32.4550798">
<ele>16.86</ele>
<time>2015-04-25T08:23:44Z</time>
</trkpt>
<trkpt lat="35.0571695" lon="32.4550535">
<ele>16.91</ele>
<time>2015-04-25T08:23:46Z</time>
</trkpt>
<trkpt lat="35.0571279" lon="32.4550235">
<ele>16.92</ele>
<time>2015-04-25T08:23:48Z</time>
</trkpt>
<trkpt lat="35.0570717" lon="32.4550033">
<ele>17.42</ele>
<time>2015-04-25T08:23:51Z</time>
</trkpt>
<trkpt lat="35.0570460" lon="32.4549514">
<ele>18.88</ele>
<time>2015-04-25T08:23:56Z</time>
</trkpt>
<trkpt lat="35.0570795" lon="32.4548973">
<ele>19.17</ele>
<time>2015-04-25T08:24:00Z</time>
</trkpt>
<trkpt lat="35.0571256" lon="32.4548420">
<ele>17.46</ele>
<time>2015-04-25T08:24:03Z</time>
</trkpt>
<trkpt lat="35.0571822" lon="32.4547702">
<ele>16.56</ele>
<time>2015-04-25T08:24:05Z</time>
</trkpt>
<trkpt lat="35.0572372" lon="32.4546906">
<ele>15.33</ele>
<time>2015-04-25T08:24:07Z</time>
</trkpt>
<trkpt lat="35.0572793" lon="32.4546138">
<ele>15.28</ele>
<time>2015-04-25T08:24:09Z</time>
</trkpt>
<trkpt lat="35.0573081" lon="32.4545522">
<ele>14.51</ele>
<time>2015-04-25T08:24:11Z</time>
</trkpt>
<trkpt lat="35.0573176" lon="32.4544925">
<ele>14.57</ele>
<time>2015-04-25T08:24:13Z</time>
</trkpt>
<trkpt lat="35.0573211" lon="32.4544298">
<ele>13.76</ele>
<time>2015-04-25T08:24:16Z</time>
</trkpt>
<trkpt lat="35.0573648" lon="32.4543985">
<ele>14.40</ele>
<time>2015-04-25T08:24:19Z</time>
</trkpt>
<trkpt lat="35.0574095" lon="32.4543801">
<ele>14.29</ele>
<time>2015-04-25T08:24:21Z</time>
</trkpt>
<trkpt lat="35.0574557" lon="32.4543687">
<ele>14.02</ele>
<time>2015-04-25T08:24:23Z</time>
</trkpt>
<trkpt lat="35.0575112" lon="32.4543623">
<ele>14.56</ele>
<time>2015-04-25T08:24:26Z</time>
</trkpt>
<trkpt lat="35.0575600" lon="32.4543675">
<ele>14.55</ele>
<time>2015-04-25T08:25:05Z</time>
</trkpt>
<trkpt lat="35.0576083" lon="32.4543323">
<ele>14.08</ele>
<time>2015-04-25T08:25:07Z</time>
</trkpt>
<trkpt lat="35.0576692" lon="32.4542912">
<ele>13.46</ele>
<time>2015-04-25T08:25:09Z</time>
</trkpt>
<trkpt lat="35.0577374" lon="32.4542481">
<ele>12.06</ele>
<time>2015-04-25T08:25:11Z</time>
</trkpt>
<trkpt lat="35.0578063" lon="32.4542036">
<ele>13.21</ele>
<time>2015-04-25T08:25:13Z</time>
</trkpt>
<trkpt lat="35.0578751" lon="32.4541549">
<ele>13.25</ele>
<time>2015-04-25T08:25:15Z</time>
</trkpt>
<trkpt lat="35.0579510" lon="32.4541016">
<ele>13.26</ele>
<time>2015-04-25T08:25:17Z</time>
</trkpt>
<trkpt lat="35.0580288" lon="32.4540521">
<ele>13.01</ele>
<time>2015-04-25T08:25:19Z</time>
</trkpt>
<trkpt lat="35.0581031" lon="32.4540042">
<ele>12.95</ele>
<time>2015-04-25T08:25:21Z</time>
</trkpt>
<trkpt lat="35.0581731" lon="32.4539607">
<ele>11.68</ele>
<time>2015-04-25T08:25:23Z</time>
</trkpt>
<trkpt lat="35.0582149" lon="32.4539385">
<ele>10.36</ele>
<time>2015-04-25T08:25:25Z</time>
</trkpt>
<trkpt lat="35.0582558" lon="32.4539019">
<ele>9.83</ele>
<time>2015-04-25T08:25:54Z</time>
</trkpt>
<trkpt lat="35.0583204" lon="32.4538627">
<ele>10.66</ele>
<time>2015-04-25T08:25:57Z</time>
</trkpt>
<trkpt lat="35.0583766" lon="32.4538303">
<ele>10.61</ele>
<time>2015-04-25T08:25:59Z</time>
</trkpt>
<trkpt lat="35.0584347" lon="32.4537969">
<ele>10.85</ele>
<time>2015-04-25T08:26:01Z</time>
</trkpt>
<trkpt lat="35.0584874" lon="32.4537634">
<ele>10.91</ele>
<time>2015-04-25T08:26:03Z</time>
</trkpt>
<trkpt lat="35.0585374" lon="32.4537288">
<ele>11.42</ele>
<time>2015-04-25T08:26:05Z</time>
</trkpt>
<trkpt lat="35.0585801" lon="32.4536990">
<ele>11.30</ele>
<time>2015-04-25T08:26:07Z</time>
</trkpt>
<trkpt lat="35.0586217" lon="32.4536748">
<ele>11.72</ele>
<time>2015-04-25T08:26:10Z</time>
</trkpt>
<trkpt lat="35.0585755" lon="32.4536814">
<ele>10.04</ele>
<time>2015-04-25T08:35:12Z</time>
</trkpt>
<trkpt lat="35.0586216" lon="32.4536880">
<ele>12.05</ele>
<time>2015-04-25T08:38:49Z</time>
</trkpt>
<trkpt lat="35.0585854" lon="32.4536451">
<ele>13.90</ele>
<time>2015-04-25T08:44:01Z</time>
</trkpt>
<trkpt lat="35.0585419" lon="32.4536818">
<ele>11.74</ele>
<time>2015-04-25T08:44:27Z</time>
</trkpt>
<trkpt lat="35.0585025" lon="32.4537143">
<ele>11.90</ele>
<time>2015-04-25T08:44:30Z</time>
</trkpt>
<trkpt lat="35.0584594" lon="32.4537439">
<ele>12.42</ele>
<time>2015-04-25T08:44:32Z</time>
</trkpt>
<trkpt lat="35.0584086" lon="32.4537781">
<ele>13.55</ele>
<time>2015-04-25T08:44:34Z</time>
</trkpt>
<trkpt lat="35.0583538" lon="32.4538157">
<ele>13.08</ele>
<time>2015-04-25T08:44:36Z</time>
</trkpt>
<trkpt lat="35.0582966" lon="32.4538581">
<ele>12.96</ele>
<time>2015-04-25T08:44:38Z</time>
</trkpt>
<trkpt lat="35.0582392" lon="32.4539056">
<ele>12.68</ele>
<time>2015-04-25T08:44:40Z</time>
</trkpt>
<trkpt lat="35.0581786" lon="32.4539537">
<ele>12.86</ele>
<time>2015-04-25T08:44:42Z</time>
</trkpt>
<trkpt lat="35.0581106" lon="32.4539994">
<ele>12.91</ele>
<time>2015-04-25T08:44:44Z</time>
</trkpt>
<trkpt lat="35.0580346" lon="32.4540507">
<ele>11.67</ele>
<time>2015-04-25T08:44:46Z</time>
</trkpt>
<trkpt lat="35.0579910" lon="32.4540812">
<ele>11.30</ele>
<time>2015-04-25T08:44:47Z</time>
</trkpt>
<trkpt lat="35.0579504" lon="32.4541102">
<ele>11.11</ele>
<time>2015-04-25T08:44:48Z</time>
</trkpt>
<trkpt lat="35.0579099" lon="32.4541367">
<ele>11.02</ele>
<time>2015-04-25T08:44:49Z</time>
</trkpt>
<trkpt lat="35.0578337" lon="32.4541844">
<ele>11.20</ele>
<time>2015-04-25T08:44:51Z</time>
</trkpt>
<trkpt lat="35.0577934" lon="32.4542090">
<ele>11.56</ele>
<time>2015-04-25T08:44:52Z</time>
</trkpt>
<trkpt lat="35.0577243" lon="32.4542531">
<ele>11.83</ele>
<time>2015-04-25T08:44:54Z</time>
</trkpt>
<trkpt lat="35.0576532" lon="32.4542952">
<ele>11.90</ele>
<time>2015-04-25T08:44:56Z</time>
</trkpt>
<trkpt lat="35.0575866" lon="32.4543362">
<ele>12.42</ele>
<time>2015-04-25T08:44:58Z</time>
</trkpt>
<trkpt lat="35.0575264" lon="32.4543717">
<ele>12.80</ele>
<time>2015-04-25T08:45:00Z</time>
</trkpt>
<trkpt lat="35.0574800" lon="32.4543593">
<ele>13.91</ele>
<time>2015-04-25T08:45:12Z</time>
</trkpt>
<trkpt lat="35.0574270" lon="32.4543844">
<ele>14.05</ele>
<time>2015-04-25T08:45:17Z</time>
</trkpt>
<trkpt lat="35.0573742" lon="32.4544122">
<ele>13.93</ele>
<time>2015-04-25T08:45:21Z</time>
</trkpt>
<trkpt lat="35.0573347" lon="32.4544426">
<ele>14.43</ele>
<time>2015-04-25T08:45:24Z</time>
</trkpt>
<trkpt lat="35.0573088" lon="32.4545009">
<ele>14.64</ele>
<time>2015-04-25T08:45:28Z</time>
</trkpt>
<trkpt lat="35.0573108" lon="32.4545606">
<ele>15.14</ele>
<time>2015-04-25T08:45:31Z</time>
</trkpt>
<trkpt lat="35.0573179" lon="32.4546252">
<ele>14.08</ele>
<time>2015-04-25T08:45:34Z</time>
</trkpt>
<trkpt lat="35.0572926" lon="32.4546819">
<ele>14.44</ele>
<time>2015-04-25T08:45:37Z</time>
</trkpt>
<trkpt lat="35.0572459" lon="32.4547259">
<ele>13.49</ele>
<time>2015-04-25T08:45:40Z</time>
</trkpt>
<trkpt lat="35.0572010" lon="32.4547549">
<ele>13.82</ele>
<time>2015-04-25T08:45:42Z</time>
</trkpt>
<trkpt lat="35.0571474" lon="32.4547870">
<ele>13.90</ele>
<time>2015-04-25T08:45:44Z</time>
</trkpt>
<trkpt lat="35.0570989" lon="32.4548257">
<ele>13.92</ele>
<time>2015-04-25T08:45:46Z</time>
</trkpt>
<trkpt lat="35.0570505" lon="32.4548579">
<ele>14.67</ele>
<time>2015-04-25T08:45:48Z</time>
</trkpt>
<trkpt lat="35.0570015" lon="32.4548805">
<ele>14.86</ele>
<time>2015-04-25T08:45:50Z</time>
</trkpt>
<trkpt lat="35.0569458" lon="32.4548872">
<ele>14.91</ele>
<time>2015-04-25T08:45:52Z</time>
</trkpt>
<trkpt lat="35.0568862" lon="32.4548807">
<ele>14.17</ele>
<time>2015-04-25T08:45:54Z</time>
</trkpt>
<trkpt lat="35.0568246" lon="32.4548668">
<ele>14.74</ele>
<time>2015-04-25T08:45:56Z</time>
</trkpt>
<trkpt lat="35.0567528" lon="32.4548575">
<ele>14.88</ele>
<time>2015-04-25T08:45:58Z</time>
</trkpt>
<trkpt lat="35.0566734" lon="32.4548527">
<ele>15.41</ele>
<time>2015-04-25T08:46:00Z</time>
</trkpt>
<trkpt lat="35.0565963" lon="32.4548695">
<ele>16.30</ele>
<time>2015-04-25T08:46:02Z</time>
</trkpt>
<trkpt lat="35.0565201" lon="32.4548930">
<ele>16.77</ele>
<time>2015-04-25T08:46:04Z</time>
</trkpt>
<trkpt lat="35.0564476" lon="32.4548913">
<ele>18.14</ele>
<time>2015-04-25T08:46:06Z</time>
</trkpt>
<trkpt lat="35.0563753" lon="32.4548807">
<ele>19.23</ele>
<time>2015-04-25T08:46:08Z</time>
</trkpt>
<trkpt lat="35.0563009" lon="32.4548718">
<ele>19.25</ele>
<time>2015-04-25T08:46:10Z</time>
</trkpt>
<trkpt lat="35.0562471" lon="32.4548580">
<ele>19.09</ele>
<time>2015-04-25T08:46:11Z</time>
</trkpt>
<trkpt lat="35.0561554" lon="32.4548486">
<ele>19.47</ele>
<time>2015-04-25T08:46:13Z</time>
</trkpt>
<trkpt lat="35.0560683" lon="32.4548480">
<ele>19.81</ele>
<time>2015-04-25T08:46:15Z</time>
</trkpt>
<trkpt lat="35.0559831" lon="32.4548330">
<ele>20.65</ele>
<time>2015-04-25T08:46:17Z</time>
</trkpt>
<trkpt lat="35.0559022" lon="32.4548254">
<ele>19.86</ele>
<time>2015-04-25T08:46:19Z</time>
</trkpt>
<trkpt lat="35.0558504" lon="32.4548172">
<ele>19.89</ele>
<time>2015-04-25T08:46:20Z</time>
</trkpt>
<trkpt lat="35.0558057" lon="32.4548071">
<ele>19.41</ele>
<time>2015-04-25T08:46:21Z</time>
</trkpt>
<trkpt lat="35.0557119" lon="32.4548043">
<ele>19.80</ele>
<time>2015-04-25T08:46:23Z</time>
</trkpt>
<trkpt lat="35.0556633" lon="32.4547982">
<ele>19.86</ele>
<time>2015-04-25T08:46:24Z</time>
</trkpt>
<trkpt lat="35.0556098" lon="32.4548063">
<ele>19.89</ele>
<time>2015-04-25T08:46:25Z</time>
</trkpt>
<trkpt lat="35.0555572" lon="32.4548096">
<ele>20.41</ele>
<time>2015-04-25T08:46:26Z</time>
</trkpt>
<trkpt lat="35.0554691" lon="32.4547933">
<ele>20.80</ele>
<time>2015-04-25T08:46:28Z</time>
</trkpt>
<trkpt lat="35.0553708" lon="32.4547741">
<ele>19.64</ele>
<time>2015-04-25T08:46:30Z</time>
</trkpt>
<trkpt lat="35.0553273" lon="32.4547585">
<ele>18.78</ele>
<time>2015-04-25T08:46:31Z</time>
</trkpt>
<trkpt lat="35.0552546" lon="32.4547478">
<ele>18.14</ele>
<time>2015-04-25T08:46:33Z</time>
</trkpt>
<trkpt lat="35.0552085" lon="32.4547388">
<ele>18.03</ele>
<time>2015-04-25T08:46:34Z</time>
</trkpt>
<trkpt lat="35.0551337" lon="32.4547231">
<ele>17.20</ele>
<time>2015-04-25T08:46:36Z</time>
</trkpt>
<trkpt lat="35.0550548" lon="32.4547108">
<ele>16.24</ele>
<time>2015-04-25T08:46:38Z</time>
</trkpt>
<trkpt lat="35.0549781" lon="32.4547002">
<ele>16.00</ele>
<time>2015-04-25T08:46:40Z</time>
</trkpt>
<trkpt lat="35.0549046" lon="32.4546852">
<ele>16.44</ele>
<time>2015-04-25T08:46:42Z</time>
</trkpt>
<trkpt lat="35.0548321" lon="32.4546639">
<ele>16.80</ele>
<time>2015-04-25T08:46:44Z</time>
</trkpt>
<trkpt lat="35.0547577" lon="32.4546467">
<ele>16.89</ele>
<time>2015-04-25T08:46:46Z</time>
</trkpt>
<trkpt lat="35.0546838" lon="32.4546243">
<ele>16.92</ele>
<time>2015-04-25T08:46:48Z</time>
</trkpt>
<trkpt lat="35.0546145" lon="32.4545926">
<ele>17.42</ele>
<time>2015-04-25T08:46:50Z</time>
</trkpt>
<trkpt lat="35.0545518" lon="32.4545509">
<ele>16.80</ele>
<time>2015-04-25T08:46:52Z</time>
</trkpt>
<trkpt lat="35.0544942" lon="32.4544994">
<ele>16.14</ele>
<time>2015-04-25T08:46:54Z</time>
</trkpt>
<trkpt lat="35.0544364" lon="32.4544450">
<ele>16.48</ele>
<time>2015-04-25T08:46:56Z</time>
</trkpt>
<trkpt lat="35.0543822" lon="32.4543891">
<ele>16.81</ele>
<time>2015-04-25T08:46:58Z</time>
</trkpt>
<trkpt lat="35.0543270" lon="32.4543247">
<ele>16.15</ele>
<time>2015-04-25T08:47:00Z</time>
</trkpt>
<trkpt lat="35.0542704" lon="32.4542519">
<ele>16.73</ele>
<time>2015-04-25T08:47:02Z</time>
</trkpt>
<trkpt lat="35.0542417" lon="32.4541933">
<ele>16.33</ele>
<time>2015-04-25T08:47:03Z</time>
</trkpt>
<trkpt lat="35.0541798" lon="32.4541191">
<ele>12.78</ele>
<time>2015-04-25T08:47:05Z</time>
</trkpt>
<trkpt lat="35.0541329" lon="32.4540289">
<ele>12.64</ele>
<time>2015-04-25T08:47:07Z</time>
</trkpt>
<trkpt lat="35.0541061" lon="32.4539841">
<ele>13.28</ele>
<time>2015-04-25T08:47:08Z</time>
</trkpt>
<trkpt lat="35.0540784" lon="32.4539344">
<ele>14.10</ele>
<time>2015-04-25T08:47:09Z</time>
</trkpt>
<trkpt lat="35.0540466" lon="32.4538917">
<ele>15.01</ele>
<time>2015-04-25T08:47:10Z</time>
</trkpt>
<trkpt lat="35.0540188" lon="32.4538367">
<ele>15.97</ele>
<time>2015-04-25T08:47:11Z</time>
</trkpt>
<trkpt lat="35.0539879" lon="32.4537842">
<ele>17.45</ele>
<time>2015-04-25T08:47:12Z</time>
</trkpt>
<trkpt lat="35.0539628" lon="32.4537297">
<ele>17.69</ele>
<time>2015-04-25T08:47:13Z</time>
</trkpt>
<trkpt lat="35.0539381" lon="32.4536776">
<ele>18.31</ele>
<time>2015-04-25T08:47:14Z</time>
</trkpt>
<trkpt lat="35.0539117" lon="32.4536287">
<ele>18.62</ele>
<time>2015-04-25T08:47:15Z</time>
</trkpt>
<trkpt lat="35.0538776" lon="32.4535785">
<ele>20.27</ele>
<time>2015-04-25T08:47:16Z</time>
</trkpt>
<trkpt lat="35.0538442" lon="32.4535236">
<ele>21.10</ele>
<time>2015-04-25T08:47:17Z</time>
</trkpt>
<trkpt lat="35.0538226" lon="32.4534714">
<ele>21.51</ele>
<time>2015-04-25T08:47:18Z</time>
</trkpt>
<trkpt lat="35.0537950" lon="32.4534140">
<ele>21.22</ele>
<time>2015-04-25T08:47:19Z</time>
</trkpt>
<trkpt lat="35.0537757" lon="32.4533636">
<ele>20.57</ele>
<time>2015-04-25T08:47:20Z</time>
</trkpt>
<trkpt lat="35.0537482" lon="32.4533131">
<ele>19.75</ele>
<time>2015-04-25T08:47:21Z</time>
</trkpt>
<trkpt lat="35.0537053" lon="32.4532133">
<ele>18.88</ele>
<time>2015-04-25T08:47:23Z</time>
</trkpt>
<trkpt lat="35.0536749" lon="32.4531535">
<ele>18.90</ele>
<time>2015-04-25T08:47:24Z</time>
</trkpt>
<trkpt lat="35.0536514" lon="32.4530919">
<ele>18.91</ele>
<time>2015-04-25T08:47:25Z</time>
</trkpt>
<trkpt lat="35.0536245" lon="32.4530393">
<ele>18.42</ele>
<time>2015-04-25T08:47:26Z</time>
</trkpt>
<trkpt lat="35.0535980" lon="32.4529780">
<ele>17.67</ele>
<time>2015-04-25T08:47:27Z</time>
</trkpt>
<trkpt lat="35.0535674" lon="32.4529111">
<ele>16.80</ele>
<time>2015-04-25T08:47:28Z</time>
</trkpt>
<trkpt lat="35.0535275" lon="32.4528619">
<ele>17.36</ele>
<time>2015-04-25T08:47:29Z</time>
</trkpt>
<trkpt lat="35.0534943" lon="32.4527974">
<ele>17.14</ele>
<time>2015-04-25T08:47:30Z</time>
</trkpt>
<trkpt lat="35.0534625" lon="32.4527500">
<ele>17.03</ele>
<time>2015-04-25T08:47:31Z</time>
</trkpt>
<trkpt lat="35.0534314" lon="32.4526871">
<ele>16.98</ele>
<time>2015-04-25T08:47:32Z</time>
</trkpt>
<trkpt lat="35.0533973" lon="32.4526342">
<ele>17.45</ele>
<time>2015-04-25T08:47:33Z</time>
</trkpt>
<trkpt lat="35.0533657" lon="32.4525760">
<ele>18.19</ele>
<time>2015-04-25T08:47:34Z</time>
</trkpt>
<trkpt lat="35.0533314" lon="32.4525146">
<ele>18.06</ele>
<time>2015-04-25T08:47:35Z</time>
</trkpt>
<trkpt lat="35.0533046" lon="32.4524534">
<ele>17.99</ele>
<time>2015-04-25T08:47:36Z</time>
</trkpt>
<trkpt lat="35.0532697" lon="32.4523889">
<ele>18.46</ele>
<time>2015-04-25T08:47:37Z</time>
</trkpt>
<trkpt lat="35.0532398" lon="32.4523366">
<ele>18.69</ele>
<time>2015-04-25T08:47:38Z</time>
</trkpt>
<trkpt lat="35.0532126" lon="32.4522781">
<ele>18.31</ele>
<time>2015-04-25T08:47:39Z</time>
</trkpt>
<trkpt lat="35.0531921" lon="32.4522151">
<ele>18.12</ele>
<time>2015-04-25T08:47:40Z</time>
</trkpt>
<trkpt lat="35.0531594" lon="32.4521601">
<ele>18.52</ele>
<time>2015-04-25T08:47:41Z</time>
</trkpt>
<trkpt lat="35.0531295" lon="32.4521010">
<ele>18.72</ele>
<time>2015-04-25T08:47:42Z</time>
</trkpt>
<trkpt lat="35.0531026" lon="32.4520493">
<ele>19.32</ele>
<time>2015-04-25T08:47:43Z</time>
</trkpt>
<trkpt lat="35.0530691" lon="32.4519918">
<ele>19.62</ele>
<time>2015-04-25T08:47:44Z</time>
</trkpt>
<trkpt lat="35.0530469" lon="32.4519393">
<ele>18.27</ele>
<time>2015-04-25T08:47:45Z</time>
</trkpt>
<trkpt lat="35.0529980" lon="32.4518459">
<ele>18.51</ele>
<time>2015-04-25T08:47:47Z</time>
</trkpt>
<trkpt lat="35.0529650" lon="32.4517924">
<ele>19.22</ele>
<time>2015-04-25T08:47:48Z</time>
</trkpt>
<trkpt lat="35.0529188" lon="32.4517034">
<ele>20.25</ele>
<time>2015-04-25T08:47:50Z</time>
</trkpt>
<trkpt lat="35.0528761" lon="32.4516521">
<ele>21.09</ele>
<time>2015-04-25T08:47:51Z</time>
</trkpt>
<trkpt lat="35.0528430" lon="32.4515892">
<ele>21.51</ele>
<time>2015-04-25T08:47:52Z</time>
</trkpt>
<trkpt lat="35.0528165" lon="32.4515249">
<ele>21.72</ele>
<time>2015-04-25T08:47:53Z</time>
</trkpt>
<trkpt lat="35.0527952" lon="32.4514660">
<ele>22.32</ele>
<time>2015-04-25T08:47:54Z</time>
</trkpt>
<trkpt lat="35.0527710" lon="32.4514110">
<ele>22.62</ele>
<time>2015-04-25T08:47:55Z</time>
</trkpt>
<trkpt lat="35.0527420" lon="32.4513471">
<ele>22.77</ele>
<time>2015-04-25T08:47:56Z</time>
</trkpt>
<trkpt lat="35.0527152" lon="32.4512807">
<ele>22.85</ele>
<time>2015-04-25T08:47:57Z</time>
</trkpt>
<trkpt lat="35.0526839" lon="32.4512212">
<ele>22.89</ele>
<time>2015-04-25T08:47:58Z</time>
</trkpt>
<trkpt lat="35.0526570" lon="32.4511574">
<ele>23.41</ele>
<time>2015-04-25T08:47:59Z</time>
</trkpt>
<trkpt lat="35.0526280" lon="32.4510913">
<ele>23.67</ele>
<time>2015-04-25T08:48:00Z</time>
</trkpt>
<trkpt lat="35.0525958" lon="32.4510402">
<ele>24.30</ele>
<time>2015-04-25T08:48:01Z</time>
</trkpt>
<trkpt lat="35.0525713" lon="32.4509720">
<ele>24.61</ele>
<time>2015-04-25T08:48:02Z</time>
</trkpt>
<trkpt lat="35.0525426" lon="32.4509247">
<ele>23.77</ele>
<time>2015-04-25T08:48:03Z</time>
</trkpt>
<trkpt lat="35.0525128" lon="32.4508630">
<ele>23.35</ele>
<time>2015-04-25T08:48:04Z</time>
</trkpt>
<trkpt lat="35.0524866" lon="32.4507973">
<ele>22.64</ele>
<time>2015-04-25T08:48:05Z</time>
</trkpt>
<trkpt lat="35.0524547" lon="32.4507367">
<ele>22.78</ele>
<time>2015-04-25T08:48:06Z</time>
</trkpt>
<trkpt lat="35.0524175" lon="32.4506854">
<ele>22.85</ele>
<time>2015-04-25T08:48:07Z</time>
</trkpt>
<trkpt lat="35.0523919" lon="32.4506316">
<ele>22.89</ele>
<time>2015-04-25T08:48:08Z</time>
</trkpt>
<trkpt lat="35.0523665" lon="32.4505696">
<ele>21.91</ele>
<time>2015-04-25T08:48:09Z</time>
</trkpt>
<trkpt lat="35.0523508" lon="32.4505011">
<ele>20.42</ele>
<time>2015-04-25T08:48:10Z</time>
</trkpt>
<trkpt lat="35.0523029" lon="32.4504101">
<ele>19.80</ele>
<time>2015-04-25T08:48:12Z</time>
</trkpt>
<trkpt lat="35.0522767" lon="32.4503529">
<ele>20.86</ele>
<time>2015-04-25T08:48:13Z</time>
</trkpt>
<trkpt lat="35.0522440" lon="32.4502965">
<ele>21.39</ele>
<time>2015-04-25T08:48:14Z</time>
</trkpt>
<trkpt lat="35.0522200" lon="32.4502491">
<ele>21.16</ele>
<time>2015-04-25T08:48:15Z</time>
</trkpt>
<trkpt lat="35.0521837" lon="32.4501984">
<ele>21.54</ele>
<time>2015-04-25T08:48:16Z</time>
</trkpt>
<trkpt lat="35.0521570" lon="32.4501456">
<ele>21.73</ele>
<time>2015-04-25T08:48:17Z</time>
</trkpt>
<trkpt lat="35.0521213" lon="32.4500905">
<ele>22.33</ele>
<time>2015-04-25T08:48:18Z</time>
</trkpt>
<trkpt lat="35.0521018" lon="32.4500392">
<ele>23.13</ele>
<time>2015-04-25T08:48:19Z</time>
</trkpt>
<trkpt lat="35.0520687" lon="32.4499878">
<ele>23.53</ele>
<time>2015-04-25T08:48:20Z</time>
</trkpt>
<trkpt lat="35.0520413" lon="32.4499244">
<ele>23.73</ele>
<time>2015-04-25T08:48:21Z</time>
</trkpt>
<trkpt lat="35.0519961" lon="32.4498161">
<ele>21.88</ele>
<time>2015-04-25T08:48:23Z</time>
</trkpt>
<trkpt lat="35.0519716" lon="32.4497627">
<ele>21.40</ele>
<time>2015-04-25T08:48:24Z</time>
</trkpt>
<trkpt lat="35.0519470" lon="32.4497132">
<ele>21.16</ele>
<time>2015-04-25T08:48:25Z</time>
</trkpt>
<trkpt lat="35.0519192" lon="32.4496524">
<ele>21.04</ele>
<time>2015-04-25T08:48:26Z</time>
</trkpt>
<trkpt lat="35.0518962" lon="32.4496051">
<ele>21.48</ele>
<time>2015-04-25T08:48:27Z</time>
</trkpt>
<trkpt lat="35.0518690" lon="32.4495435">
<ele>21.70</ele>
<time>2015-04-25T08:48:28Z</time>
</trkpt>
<trkpt lat="35.0518457" lon="32.4494857">
<ele>21.81</ele>
<time>2015-04-25T08:48:29Z</time>
</trkpt>
<trkpt lat="35.0518109" lon="32.4494318">
<ele>21.87</ele>
<time>2015-04-25T08:48:30Z</time>
</trkpt>
<trkpt lat="35.0517830" lon="32.4493727">
<ele>20.90</ele>
<time>2015-04-25T08:48:31Z</time>
</trkpt>
<trkpt lat="35.0517584" lon="32.4493234">
<ele>19.91</ele>
<time>2015-04-25T08:48:32Z</time>
</trkpt>
<trkpt lat="35.0517345" lon="32.4492699">
<ele>19.42</ele>
<time>2015-04-25T08:48:33Z</time>
</trkpt>
<trkpt lat="35.0517128" lon="32.4492201">
<ele>19.17</ele>
<time>2015-04-25T08:48:34Z</time>
</trkpt>
<trkpt lat="35.0516881" lon="32.4491736">
<ele>19.05</ele>
<time>2015-04-25T08:48:35Z</time>
</trkpt>
<trkpt lat="35.0516650" lon="32.4491234">
<ele>18.49</ele>
<time>2015-04-25T08:48:36Z</time>
</trkpt>
<trkpt lat="35.0516371" lon="32.4490687">
<ele>18.21</ele>
<time>2015-04-25T08:48:37Z</time>
</trkpt>
<trkpt lat="35.0516084" lon="32.4490142">
<ele>18.07</ele>
<time>2015-04-25T08:48:38Z</time>
</trkpt>
<trkpt lat="35.0515801" lon="32.4489568">
<ele>18.00</ele>
<time>2015-04-25T08:48:39Z</time>
</trkpt>
<trkpt lat="35.0515492" lon="32.4488972">
<ele>17.96</ele>
<time>2015-04-25T08:48:40Z</time>
</trkpt>
<trkpt lat="35.0515230" lon="32.4488358">
<ele>17.44</ele>
<time>2015-04-25T08:48:41Z</time>
</trkpt>
<trkpt lat="35.0514905" lon="32.4487784">
<ele>17.18</ele>
<time>2015-04-25T08:48:42Z</time>
</trkpt>
<trkpt lat="35.0514673" lon="32.4487240">
<ele>18.05</ele>
<time>2015-04-25T08:48:43Z</time>
</trkpt>
<trkpt lat="35.0514341" lon="32.4486699">
<ele>18.99</ele>
<time>2015-04-25T08:48:44Z</time>
</trkpt>
<trkpt lat="35.0513810" lon="32.4485807">
<ele>20.19</ele>
<time>2015-04-25T08:48:46Z</time>
</trkpt>
<trkpt lat="35.0513619" lon="32.4485295">
<ele>20.06</ele>
<time>2015-04-25T08:48:47Z</time>
</trkpt>
<trkpt lat="35.0513167" lon="32.4484487">
<ele>19.96</ele>
<time>2015-04-25T08:48:49Z</time>
</trkpt>
<trkpt lat="35.0512769" lon="32.4483684">
<ele>19.93</ele>
<time>2015-04-25T08:48:51Z</time>
</trkpt>
<trkpt lat="35.0512379" lon="32.4482753">
<ele>20.43</ele>
<time>2015-04-25T08:48:53Z</time>
</trkpt>
<trkpt lat="35.0512069" lon="32.4481868">
<ele>21.05</ele>
<time>2015-04-25T08:48:55Z</time>
</trkpt>
<trkpt lat="35.0511645" lon="32.4481014">
<ele>20.96</ele>
<time>2015-04-25T08:48:57Z</time>
</trkpt>
<trkpt lat="35.0511187" lon="32.4480254">
<ele>22.93</ele>
<time>2015-04-25T08:48:59Z</time>
</trkpt>
<trkpt lat="35.0510753" lon="32.4479359">
<ele>23.68</ele>
<time>2015-04-25T08:49:01Z</time>
</trkpt>
<trkpt lat="35.0510590" lon="32.4478781">
<ele>24.30</ele>
<time>2015-04-25T08:49:02Z</time>
</trkpt>
<trkpt lat="35.0510344" lon="32.4478282">
<ele>24.61</ele>
<time>2015-04-25T08:49:03Z</time>
</trkpt>
<trkpt lat="35.0510060" lon="32.4477668">
<ele>24.77</ele>
<time>2015-04-25T08:49:04Z</time>
</trkpt>
<trkpt lat="35.0509810" lon="32.4477060">
<ele>24.85</ele>
<time>2015-04-25T08:49:05Z</time>
</trkpt>
<trkpt lat="35.0509682" lon="32.4476506">
<ele>24.39</ele>
<time>2015-04-25T08:49:06Z</time>
</trkpt>
<trkpt lat="35.0509139" lon="32.4475340">
<ele>23.29</ele>
<time>2015-04-25T08:49:08Z</time>
</trkpt>
<trkpt lat="35.0508805" lon="32.4474678">
<ele>23.11</ele>
<time>2015-04-25T08:49:09Z</time>
</trkpt>
<trkpt lat="35.0508451" lon="32.4474179">
<ele>23.52</ele>
<time>2015-04-25T08:49:10Z</time>
</trkpt>
<trkpt lat="35.0508159" lon="32.4473629">
<ele>23.72</ele>
<time>2015-04-25T08:49:11Z</time>
</trkpt>
<trkpt lat="35.0507788" lon="32.4473033">
<ele>23.82</ele>
<time>2015-04-25T08:49:12Z</time>
</trkpt>
<trkpt lat="35.0507391" lon="32.4472421">
<ele>23.37</ele>
<time>2015-04-25T08:49:13Z</time>
</trkpt>
<trkpt lat="35.0507142" lon="32.4471838">
<ele>23.65</ele>
<time>2015-04-25T08:49:14Z</time>
</trkpt>
<trkpt lat="35.0506887" lon="32.4471262">
<ele>23.29</ele>
<time>2015-04-25T08:49:15Z</time>
</trkpt>
<trkpt lat="35.0506634" lon="32.4470762">
<ele>22.61</ele>
<time>2015-04-25T08:49:16Z</time>
</trkpt>
<trkpt lat="35.0506265" lon="32.4470124">
<ele>22.27</ele>
<time>2015-04-25T08:49:17Z</time>
</trkpt>
<trkpt lat="35.0505900" lon="32.4469562">
<ele>21.60</ele>
<time>2015-04-25T08:49:18Z</time>
</trkpt>
<trkpt lat="35.0505562" lon="32.4468987">
<ele>21.26</ele>
<time>2015-04-25T08:49:19Z</time>
</trkpt>
<trkpt lat="35.0505306" lon="32.4468479">
<ele>21.09</ele>
<time>2015-04-25T08:49:20Z</time>
</trkpt>
<trkpt lat="35.0504956" lon="32.4467977">
<ele>21.01</ele>
<time>2015-04-25T08:49:21Z</time>
</trkpt>
<trkpt lat="35.0504673" lon="32.4467421">
<ele>20.47</ele>
<time>2015-04-25T08:49:22Z</time>
</trkpt>
<trkpt lat="35.0504342" lon="32.4466892">
<ele>20.70</ele>
<time>2015-04-25T08:49:23Z</time>
</trkpt>
<trkpt lat="35.0503885" lon="32.4466205">
<ele>20.81</ele>
<time>2015-04-25T08:49:24Z</time>
</trkpt>
<trkpt lat="35.0503443" lon="32.4465608">
<ele>21.37</ele>
<time>2015-04-25T08:49:25Z</time>
</trkpt>
<trkpt lat="35.0503122" lon="32.4465056">
<ele>21.15</ele>
<time>2015-04-25T08:49:26Z</time>
</trkpt>
<trkpt lat="35.0502798" lon="32.4464431">
<ele>21.04</ele>
<time>2015-04-25T08:49:27Z</time>
</trkpt>
<trkpt lat="35.0502416" lon="32.4463792">
<ele>20.98</ele>
<time>2015-04-25T08:49:28Z</time>
</trkpt>
<trkpt lat="35.0502037" lon="32.4463182">
<ele>20.95</ele>
<time>2015-04-25T08:49:29Z</time>
</trkpt>
<trkpt lat="35.0501700" lon="32.4462580">
<ele>21.44</ele>
<time>2015-04-25T08:49:30Z</time>
</trkpt>
<trkpt lat="35.0501378" lon="32.4461820">
<ele>20.18</ele>
<time>2015-04-25T08:49:31Z</time>
</trkpt>
<trkpt lat="35.0500965" lon="32.4461149">
<ele>20.05</ele>
<time>2015-04-25T08:49:32Z</time>
</trkpt>
<trkpt lat="35.0500631" lon="32.4460580">
<ele>20.49</ele>
<time>2015-04-25T08:49:33Z</time>
</trkpt>
<trkpt lat="35.0500215" lon="32.4459983">
<ele>20.21</ele>
<time>2015-04-25T08:49:34Z</time>
</trkpt>
<trkpt lat="35.0499885" lon="32.4459397">
<ele>20.07</ele>
<time>2015-04-25T08:49:35Z</time>
</trkpt>
<trkpt lat="35.0499416" lon="32.4458807">
<ele>19.50</ele>
<time>2015-04-25T08:49:36Z</time>
</trkpt>
<trkpt lat="35.0499053" lon="32.4458215">
<ele>19.71</ele>
<time>2015-04-25T08:49:37Z</time>
</trkpt>
<trkpt lat="35.0498635" lon="32.4457615">
<ele>19.82</ele>
<time>2015-04-25T08:49:38Z</time>
</trkpt>
<trkpt lat="35.0498306" lon="32.4457040">
<ele>19.87</ele>
<time>2015-04-25T08:49:39Z</time>
</trkpt>
<trkpt lat="35.0497896" lon="32.4456454">
<ele>19.90</ele>
<time>2015-04-25T08:49:40Z</time>
</trkpt>
<trkpt lat="35.0497595" lon="32.4455949">
<ele>18.41</ele>
<time>2015-04-25T08:49:41Z</time>
</trkpt>
<trkpt lat="35.0497252" lon="32.4455315">
<ele>17.67</ele>
<time>2015-04-25T08:49:42Z</time>
</trkpt>
<trkpt lat="35.0496893" lon="32.4454724">
<ele>18.30</ele>
<time>2015-04-25T08:49:43Z</time>
</trkpt>
<trkpt lat="35.0496456" lon="32.4454066">
<ele>18.61</ele>
<time>2015-04-25T08:49:44Z</time>
</trkpt>
<trkpt lat="35.0496074" lon="32.4453479">
<ele>19.27</ele>
<time>2015-04-25T08:49:45Z</time>
</trkpt>
<trkpt lat="35.0495650" lon="32.4452865">
<ele>20.10</ele>
<time>2015-04-25T08:49:46Z</time>
</trkpt>
<trkpt lat="35.0495242" lon="32.4452304">
<ele>20.51</ele>
<time>2015-04-25T08:49:47Z</time>
</trkpt>
<trkpt lat="35.0494762" lon="32.4451609">
<ele>20.72</ele>
<time>2015-04-25T08:49:48Z</time>
</trkpt>
<trkpt lat="35.0494381" lon="32.4450995">
<ele>21.32</ele>
<time>2015-04-25T08:49:49Z</time>
</trkpt>
<trkpt lat="35.0494034" lon="32.4450237">
<ele>20.12</ele>
<time>2015-04-25T08:49:50Z</time>
</trkpt>
<trkpt lat="35.0493603" lon="32.4449602">
<ele>18.52</ele>
<time>2015-04-25T08:49:51Z</time>
</trkpt>
<trkpt lat="35.0493233" lon="32.4448963">
<ele>17.22</ele>
<time>2015-04-25T08:49:52Z</time>
</trkpt>
<trkpt lat="35.0492899" lon="32.4448363">
<ele>17.07</ele>
<time>2015-04-25T08:49:53Z</time>
</trkpt>
<trkpt lat="35.0492602" lon="32.4447635">
<ele>16.50</ele>
<time>2015-04-25T08:49:54Z</time>
</trkpt>
<trkpt lat="35.0492188" lon="32.4447015">
<ele>16.71</ele>
<time>2015-04-25T08:49:55Z</time>
</trkpt>
<trkpt lat="35.0491797" lon="32.4446340">
<ele>16.32</ele>
<time>2015-04-25T08:49:56Z</time>
</trkpt>
<trkpt lat="35.0491441" lon="32.4445656">
<ele>16.12</ele>
<time>2015-04-25T08:49:57Z</time>
</trkpt>
<trkpt lat="35.0491114" lon="32.4445084">
<ele>16.52</ele>
<time>2015-04-25T08:49:58Z</time>
</trkpt>
<trkpt lat="35.0490610" lon="32.4444493">
<ele>16.22</ele>
<time>2015-04-25T08:49:59Z</time>
</trkpt>
<trkpt lat="35.0490045" lon="32.4443842">
<ele>16.57</ele>
<time>2015-04-25T08:50:00Z</time>
</trkpt>
<trkpt lat="35.0489665" lon="32.4443314">
<ele>16.75</ele>
<time>2015-04-25T08:50:01Z</time>
</trkpt>
<trkpt lat="35.0489277" lon="32.4442643">
<ele>17.34</ele>
<time>2015-04-25T08:50:02Z</time>
</trkpt>
<trkpt lat="35.0488894" lon="32.4442002">
<ele>17.13</ele>
<time>2015-04-25T08:50:03Z</time>
</trkpt>
<trkpt lat="35.0488457" lon="32.4441340">
<ele>17.53</ele>
<time>2015-04-25T08:50:04Z</time>
</trkpt>
<trkpt lat="35.0487981" lon="32.4440725">
<ele>18.23</ele>
<time>2015-04-25T08:50:05Z</time>
</trkpt>
<trkpt lat="35.0487529" lon="32.4440036">
<ele>18.58</ele>
<time>2015-04-25T08:50:06Z</time>
</trkpt>
<trkpt lat="35.0487132" lon="32.4439417">
<ele>18.75</ele>
<time>2015-04-25T08:50:07Z</time>
</trkpt>
<trkpt lat="35.0486739" lon="32.4438779">
<ele>18.34</ele>
<time>2015-04-25T08:50:08Z</time>
</trkpt>
<trkpt lat="35.0486351" lon="32.4438144">
<ele>18.63</ele>
<time>2015-04-25T08:50:09Z</time>
</trkpt>
<trkpt lat="35.0485938" lon="32.4437482">
<ele>18.78</ele>
<time>2015-04-25T08:50:10Z</time>
</trkpt>
<trkpt lat="35.0485519" lon="32.4436926">
<ele>19.35</ele>
<time>2015-04-25T08:50:11Z</time>
</trkpt>
<trkpt lat="35.0485064" lon="32.4436239">
<ele>19.64</ele>
<time>2015-04-25T08:50:12Z</time>
</trkpt>
<trkpt lat="35.0484733" lon="32.4435632">
<ele>19.78</ele>
<time>2015-04-25T08:50:13Z</time>
</trkpt>
<trkpt lat="35.0484449" lon="32.4435021">
<ele>19.85</ele>
<time>2015-04-25T08:50:14Z</time>
</trkpt>
<trkpt lat="35.0484084" lon="32.4434430">
<ele>19.89</ele>
<time>2015-04-25T08:50:15Z</time>
</trkpt>
<trkpt lat="35.0483806" lon="32.4433813">
<ele>19.41</ele>
<time>2015-04-25T08:50:16Z</time>
</trkpt>
<trkpt lat="35.0483445" lon="32.4433220">
<ele>19.17</ele>
<time>2015-04-25T08:50:17Z</time>
</trkpt>
<trkpt lat="35.0483021" lon="32.4432642">
<ele>18.55</ele>
<time>2015-04-25T08:50:18Z</time>
</trkpt>
<trkpt lat="35.0482707" lon="32.4432055">
<ele>18.24</ele>
<time>2015-04-25T08:50:19Z</time>
</trkpt>
<trkpt lat="35.0482367" lon="32.4431316">
<ele>16.58</ele>
<time>2015-04-25T08:50:20Z</time>
</trkpt>
<trkpt lat="35.0481971" lon="32.4430802">
<ele>15.75</ele>
<time>2015-04-25T08:50:21Z</time>
</trkpt>
<trkpt lat="35.0481526" lon="32.4430209">
<ele>16.34</ele>
<time>2015-04-25T08:50:22Z</time>
</trkpt>
<trkpt lat="35.0481156" lon="32.4429588">
<ele>16.63</ele>
<time>2015-04-25T08:50:23Z</time>
</trkpt>
<trkpt lat="35.0480843" lon="32.4429041">
<ele>16.78</ele>
<time>2015-04-25T08:50:24Z</time>
</trkpt>
<trkpt lat="35.0480516" lon="32.4428403">
<ele>15.85</ele>
<time>2015-04-25T08:50:25Z</time>
</trkpt>
<trkpt lat="35.0480184" lon="32.4427817">
<ele>15.39</ele>
<time>2015-04-25T08:50:26Z</time>
</trkpt>
<trkpt lat="35.0479797" lon="32.4427285">
<ele>15.66</ele>
<time>2015-04-25T08:50:27Z</time>
</trkpt>
<trkpt lat="35.0479439" lon="32.4426651">
<ele>16.29</ele>
<time>2015-04-25T08:50:28Z</time>
</trkpt>
<trkpt lat="35.0479072" lon="32.4426016">
<ele>16.61</ele>
<time>2015-04-25T08:50:29Z</time>
</trkpt>
<trkpt lat="35.0478645" lon="32.4425445">
<ele>16.77</ele>
<time>2015-04-25T08:50:30Z</time>
</trkpt>
<trkpt lat="35.0478242" lon="32.4424981">
<ele>16.85</ele>
<time>2015-04-25T08:50:31Z</time>
</trkpt>
<trkpt lat="35.0477923" lon="32.4424438">
<ele>16.89</ele>
<time>2015-04-25T08:50:32Z</time>
</trkpt>
<trkpt lat="35.0477537" lon="32.4423901">
<ele>17.41</ele>
<time>2015-04-25T08:50:33Z</time>
</trkpt>
<trkpt lat="35.0477191" lon="32.4423488">
<ele>18.17</ele>
<time>2015-04-25T08:50:34Z</time>
</trkpt>
<trkpt lat="35.0476828" lon="32.4423027">
<ele>19.05</ele>
<time>2015-04-25T08:50:35Z</time>
</trkpt>
<trkpt lat="35.0476458" lon="32.4422496">
<ele>19.49</ele>
<time>2015-04-25T08:50:36Z</time>
</trkpt>
<trkpt lat="35.0476099" lon="32.4422079">
<ele>20.21</ele>
<time>2015-04-25T08:50:37Z</time>
</trkpt>
<trkpt lat="35.0475758" lon="32.4421617">
<ele>20.57</ele>
<time>2015-04-25T08:50:38Z</time>
</trkpt>
<trkpt lat="35.0475415" lon="32.4421109">
<ele>19.75</ele>
<time>2015-04-25T08:50:39Z</time>
</trkpt>
<trkpt lat="35.0475049" lon="32.4420636">
<ele>19.34</ele>
<time>2015-04-25T08:50:40Z</time>
</trkpt>
<trkpt lat="35.0474638" lon="32.4420206">
<ele>19.13</ele>
<time>2015-04-25T08:50:41Z</time>
</trkpt>
<trkpt lat="35.0474269" lon="32.4419620">
<ele>17.53</ele>
<time>2015-04-25T08:50:42Z</time>
</trkpt>
<trkpt lat="35.0473845" lon="32.4419071">
<ele>16.73</ele>
<time>2015-04-25T08:50:43Z</time>
</trkpt>
<trkpt lat="35.0473350" lon="32.4418494">
<ele>16.33</ele>
<time>2015-04-25T08:50:44Z</time>
</trkpt>
<trkpt lat="35.0472888" lon="32.4417989">
<ele>16.13</ele>
<time>2015-04-25T08:50:45Z</time>
</trkpt>
<trkpt lat="35.0472408" lon="32.4417466">
<ele>15.53</ele>
<time>2015-04-25T08:50:46Z</time>
</trkpt>
<trkpt lat="35.0471939" lon="32.4417017">
<ele>15.23</ele>
<time>2015-04-25T08:50:47Z</time>
</trkpt>
<trkpt lat="35.0471502" lon="32.4416530">
<ele>15.08</ele>
<time>2015-04-25T08:50:48Z</time>
</trkpt>
<trkpt lat="35.0471044" lon="32.4416102">
<ele>15.50</ele>
<time>2015-04-25T08:50:49Z</time>
</trkpt>
<trkpt lat="35.0470532" lon="32.4415636">
<ele>15.71</ele>
<time>2015-04-25T08:50:50Z</time>
</trkpt>
<trkpt lat="35.0470038" lon="32.4415284">
<ele>15.82</ele>
<time>2015-04-25T08:50:51Z</time>
</trkpt>
<trkpt lat="35.0469505" lon="32.4414862">
<ele>15.87</ele>
<time>2015-04-25T08:50:52Z</time>
</trkpt>
<trkpt lat="35.0468942" lon="32.4414512">
<ele>15.90</ele>
<time>2015-04-25T08:50:53Z</time>
</trkpt>
<trkpt lat="35.0468462" lon="32.4414126">
<ele>15.91</ele>
<time>2015-04-25T08:50:54Z</time>
</trkpt>
<trkpt lat="35.0467900" lon="32.4413865">
<ele>16.42</ele>
<time>2015-04-25T08:50:55Z</time>
</trkpt>
<trkpt lat="35.0467385" lon="32.4413515">
<ele>16.67</ele>
<time>2015-04-25T08:50:56Z</time>
</trkpt>
<trkpt lat="35.0466788" lon="32.4413140">
<ele>17.30</ele>
<time>2015-04-25T08:50:57Z</time>
</trkpt>
<trkpt lat="35.0466255" lon="32.4412774">
<ele>17.61</ele>
<time>2015-04-25T08:50:58Z</time>
</trkpt>
<trkpt lat="35.0465756" lon="32.4412487">
<ele>17.77</ele>
<time>2015-04-25T08:50:59Z</time>
</trkpt>
<trkpt lat="35.0465118" lon="32.4412274">
<ele>18.35</ele>
<time>2015-04-25T08:51:00Z</time>
</trkpt>
<trkpt lat="35.0464656" lon="32.4412012">
<ele>19.14</ele>
<time>2015-04-25T08:51:01Z</time>
</trkpt>
<trkpt lat="35.0464078" lon="32.4411826">
<ele>20.53</ele>
<time>2015-04-25T08:51:02Z</time>
</trkpt>
<trkpt lat="35.0463600" lon="32.4411524">
<ele>19.73</ele>
<time>2015-04-25T08:51:03Z</time>
</trkpt>
<trkpt lat="35.0462728" lon="32.4411294">
<ele>19.13</ele>
<time>2015-04-25T08:51:05Z</time>
</trkpt>
<trkpt lat="35.0461897" lon="32.4410968">
<ele>18.98</ele>
<time>2015-04-25T08:51:07Z</time>
</trkpt>
<trkpt lat="35.0461374" lon="32.4410741">
<ele>18.45</ele>
<time>2015-04-25T08:51:08Z</time>
</trkpt>
<trkpt lat="35.0460938" lon="32.4410548">
<ele>18.19</ele>
<time>2015-04-25T08:51:09Z</time>
</trkpt>
<trkpt lat="35.0460478" lon="32.4410364">
<ele>18.56</ele>
<time>2015-04-25T08:51:10Z</time>
</trkpt>
<trkpt lat="35.0459498" lon="32.4410148">
<ele>19.58</ele>
<time>2015-04-25T08:51:12Z</time>
</trkpt>
<trkpt lat="35.0459062" lon="32.4409936">
<ele>19.25</ele>
<time>2015-04-25T08:51:13Z</time>
</trkpt>
<trkpt lat="35.0458550" lon="32.4409882">
<ele>19.09</ele>
<time>2015-04-25T08:51:14Z</time>
</trkpt>
<trkpt lat="35.0458032" lon="32.4409786">
<ele>19.01</ele>
<time>2015-04-25T08:51:15Z</time>
</trkpt>
<trkpt lat="35.0457495" lon="32.4409777">
<ele>18.97</ele>
<time>2015-04-25T08:51:16Z</time>
</trkpt>
<trkpt lat="35.0456987" lon="32.4409772">
<ele>19.45</ele>
<time>2015-04-25T08:51:17Z</time>
</trkpt>
<trkpt lat="35.0456474" lon="32.4409649">
<ele>19.69</ele>
<time>2015-04-25T08:51:18Z</time>
</trkpt>
<trkpt lat="35.0455933" lon="32.4409486">
<ele>20.31</ele>
<time>2015-04-25T08:51:19Z</time>
</trkpt>
<trkpt lat="35.0455338" lon="32.4409340">
<ele>20.62</ele>
<time>2015-04-25T08:51:20Z</time>
</trkpt>
<trkpt lat="35.0454849" lon="32.4409278">
<ele>20.77</ele>
<time>2015-04-25T08:51:21Z</time>
</trkpt>
<trkpt lat="35.0454279" lon="32.4409150">
<ele>20.85</ele>
<time>2015-04-25T08:51:22Z</time>
</trkpt>
<trkpt lat="35.0453378" lon="32.4409100">
<ele>21.66</ele>
<time>2015-04-25T08:51:24Z</time>
</trkpt>
<trkpt lat="35.0452893" lon="32.4409089">
<ele>21.79</ele>
<time>2015-04-25T08:51:25Z</time>
</trkpt>
<trkpt lat="35.0452436" lon="32.4409062">
<ele>22.36</ele>
<time>2015-04-25T08:51:26Z</time>
</trkpt>
<trkpt lat="35.0451615" lon="32.4409025">
<ele>23.03</ele>
<time>2015-04-25T08:51:28Z</time>
</trkpt>
<trkpt lat="35.0450860" lon="32.4408964">
<ele>23.45</ele>
<time>2015-04-25T08:51:30Z</time>
</trkpt>
<trkpt lat="35.0450143" lon="32.4408875">
<ele>22.81</ele>
<time>2015-04-25T08:51:32Z</time>
</trkpt>
<trkpt lat="35.0449371" lon="32.4408908">
<ele>23.65</ele>
<time>2015-04-25T08:51:34Z</time>
</trkpt>
<trkpt lat="35.0448480" lon="32.4408984">
<ele>23.11</ele>
<time>2015-04-25T08:51:36Z</time>
</trkpt>
<trkpt lat="35.0448030" lon="32.4409039">
<ele>23.02</ele>
<time>2015-04-25T08:51:37Z</time>
</trkpt>
<trkpt lat="35.0447201" lon="32.4408782">
<ele>23.70</ele>
<time>2015-04-25T08:51:39Z</time>
</trkpt>
<trkpt lat="35.0446391" lon="32.4408817">
<ele>23.87</ele>
<time>2015-04-25T08:51:41Z</time>
</trkpt>
<trkpt lat="35.0445587" lon="32.4408715">
<ele>24.41</ele>
<time>2015-04-25T08:51:43Z</time>
</trkpt>
<trkpt lat="35.0444749" lon="32.4408649">
<ele>24.30</ele>
<time>2015-04-25T08:51:45Z</time>
</trkpt>
<trkpt lat="35.0443813" lon="32.4408522">
<ele>24.02</ele>
<time>2015-04-25T08:51:47Z</time>
</trkpt>
<trkpt lat="35.0443338" lon="32.4408571">
<ele>23.97</ele>
<time>2015-04-25T08:51:48Z</time>
</trkpt>
<trkpt lat="35.0442566" lon="32.4408409">
<ele>24.44</ele>
<time>2015-04-25T08:51:50Z</time>
</trkpt>
<trkpt lat="35.0442060" lon="32.4408376">
<ele>24.68</ele>
<time>2015-04-25T08:51:51Z</time>
</trkpt>
<trkpt lat="35.0441558" lon="32.4408401">
<ele>24.80</ele>
<time>2015-04-25T08:51:52Z</time>
</trkpt>
<trkpt lat="35.0440644" lon="32.4408457">
<ele>24.89</ele>
<time>2015-04-25T08:51:54Z</time>
</trkpt>
<trkpt lat="35.0439837" lon="32.4408437">
<ele>24.92</ele>
<time>2015-04-25T08:51:56Z</time>
</trkpt>
<trkpt lat="35.0439376" lon="32.4408602">
<ele>24.42</ele>
<time>2015-04-25T08:51:57Z</time>
</trkpt>
<trkpt lat="35.0438398" lon="32.4408438">
<ele>24.30</ele>
<time>2015-04-25T08:51:59Z</time>
</trkpt>
<trkpt lat="35.0437912" lon="32.4408395">
<ele>24.11</ele>
<time>2015-04-25T08:52:00Z</time>
</trkpt>
<trkpt lat="35.0437040" lon="32.4408254">
<ele>24.47</ele>
<time>2015-04-25T08:52:02Z</time>
</trkpt>
<trkpt lat="35.0436151" lon="32.4408124">
<ele>24.81</ele>
<time>2015-04-25T08:52:04Z</time>
</trkpt>
<trkpt lat="35.0435618" lon="32.4408209">
<ele>25.37</ele>
<time>2015-04-25T08:52:05Z</time>
</trkpt>
<trkpt lat="35.0435079" lon="32.4408213">
<ele>26.15</ele>
<time>2015-04-25T08:52:06Z</time>
</trkpt>
<trkpt lat="35.0434406" lon="32.4408351">
<ele>28.23</ele>
<time>2015-04-25T08:52:08Z</time>
</trkpt>
<trkpt lat="35.0433470" lon="32.4408170">
<ele>29.25</ele>
<time>2015-04-25T08:52:10Z</time>
</trkpt>
<trkpt lat="35.0432660" lon="32.4407931">
<ele>29.76</ele>
<time>2015-04-25T08:52:12Z</time>
</trkpt>
<trkpt lat="35.0432125" lon="32.4407932">
<ele>29.84</ele>
<time>2015-04-25T08:52:13Z</time>
</trkpt>
<trkpt lat="35.0431608" lon="32.4407806">
<ele>29.88</ele>
<time>2015-04-25T08:52:14Z</time>
</trkpt>
<trkpt lat="35.0431154" lon="32.4407630">
<ele>30.40</ele>
<time>2015-04-25T08:52:15Z</time>
</trkpt>
<trkpt lat="35.0430310" lon="32.4407478">
<ele>30.29</ele>
<time>2015-04-25T08:52:17Z</time>
</trkpt>
<trkpt lat="35.0429782" lon="32.4407383">
<ele>29.61</ele>
<time>2015-04-25T08:52:18Z</time>
</trkpt>
<trkpt lat="35.0428927" lon="32.4407172">
<ele>30.35</ele>
<time>2015-04-25T08:52:20Z</time>
</trkpt>
<trkpt lat="35.0428442" lon="32.4407149">
<ele>30.64</ele>
<time>2015-04-25T08:52:21Z</time>
</trkpt>
<trkpt lat="35.0427897" lon="32.4407054">
<ele>30.78</ele>
<time>2015-04-25T08:52:22Z</time>
</trkpt>
<trkpt lat="35.0427404" lon="32.4406981">
<ele>31.35</ele>
<time>2015-04-25T08:52:23Z</time>
</trkpt>
<trkpt lat="35.0426921" lon="32.4406869">
<ele>31.64</ele>
<time>2015-04-25T08:52:24Z</time>
</trkpt>
<trkpt lat="35.0426097" lon="32.4406622">
<ele>31.60</ele>
<time>2015-04-25T08:52:26Z</time>
</trkpt>
<trkpt lat="35.0425255" lon="32.4406295">
<ele>32.09</ele>
<time>2015-04-25T08:52:28Z</time>
</trkpt>
<trkpt lat="35.0424856" lon="32.4405958">
<ele>30.51</ele>
<time>2015-04-25T08:52:29Z</time>
</trkpt>
<trkpt lat="35.0424147" lon="32.4405716">
<ele>29.32</ele>
<time>2015-04-25T08:52:31Z</time>
</trkpt>
<trkpt lat="35.0423624" lon="32.4405524">
<ele>29.12</ele>
<time>2015-04-25T08:52:32Z</time>
</trkpt>
<trkpt lat="35.0422810" lon="32.4405000">
<ele>28.97</ele>
<time>2015-04-25T08:52:34Z</time>
</trkpt>
<trkpt lat="35.0421932" lon="32.4404515">
<ele>28.94</ele>
<time>2015-04-25T08:52:36Z</time>
</trkpt>
<trkpt lat="35.0421501" lon="32.4404275">
<ele>28.43</ele>
<time>2015-04-25T08:52:37Z</time>
</trkpt>
<trkpt lat="35.0420736" lon="32.4403840">
<ele>27.80</ele>
<time>2015-04-25T08:52:39Z</time>
</trkpt>
<trkpt lat="35.0420339" lon="32.4403533">
<ele>27.86</ele>
<time>2015-04-25T08:52:40Z</time>
</trkpt>
<trkpt lat="35.0419556" lon="32.4403099">
<ele>28.66</ele>
<time>2015-04-25T08:52:42Z</time>
</trkpt>
<trkpt lat="35.0419058" lon="32.4402781">
<ele>29.79</ele>
<time>2015-04-25T08:52:43Z</time>
</trkpt>
<trkpt lat="35.0418656" lon="32.4402503">
<ele>30.86</ele>
<time>2015-04-25T08:52:44Z</time>
</trkpt>
<trkpt lat="35.0417992" lon="32.4402011">
<ele>32.16</ele>
<time>2015-04-25T08:52:46Z</time>
</trkpt>
<trkpt lat="35.0417303" lon="32.4401375">
<ele>31.48</ele>
<time>2015-04-25T08:52:48Z</time>
</trkpt>
<trkpt lat="35.0416942" lon="32.4401017">
<ele>31.70</ele>
<time>2015-04-25T08:52:49Z</time>
</trkpt>
<trkpt lat="35.0416318" lon="32.4400326">
<ele>31.87</ele>
<time>2015-04-25T08:52:51Z</time>
</trkpt>
<trkpt lat="35.0415597" lon="32.4399786">
<ele>33.16</ele>
<time>2015-04-25T08:52:53Z</time>
</trkpt>
<trkpt lat="35.0415231" lon="32.4399344">
<ele>34.04</ele>
<time>2015-04-25T08:52:54Z</time>
</trkpt>
<trkpt lat="35.0414543" lon="32.4398616">
<ele>34.70</ele>
<time>2015-04-25T08:52:56Z</time>
</trkpt>
<trkpt lat="35.0414140" lon="32.4398277">
<ele>34.81</ele>
<time>2015-04-25T08:52:57Z</time>
</trkpt>
<trkpt lat="35.0413522" lon="32.4397466">
<ele>35.40</ele>
<time>2015-04-25T08:52:59Z</time>
</trkpt>
<trkpt lat="35.0413254" lon="32.4397009">
<ele>35.16</ele>
<time>2015-04-25T08:53:00Z</time>
</trkpt>
<trkpt lat="35.0412760" lon="32.4396389">
<ele>36.98</ele>
<time>2015-04-25T08:53:02Z</time>
</trkpt>
<trkpt lat="35.0412391" lon="32.4395569">
<ele>38.69</ele>
<time>2015-04-25T08:53:04Z</time>
</trkpt>
<trkpt lat="35.0411980" lon="32.4394998">
<ele>39.37</ele>
<time>2015-04-25T08:53:06Z</time>
</trkpt>
<trkpt lat="35.0411364" lon="32.4394334">
<ele>41.04</ele>
<time>2015-04-25T08:53:08Z</time>
</trkpt>
<trkpt lat="35.0410938" lon="32.4393597">
<ele>41.45</ele>
<time>2015-04-25T08:53:10Z</time>
</trkpt>
<trkpt lat="35.0410456" lon="32.4392795">
<ele>41.31</ele>
<time>2015-04-25T08:53:12Z</time>
</trkpt>
<trkpt lat="35.0410160" lon="32.4392286">
<ele>41.12</ele>
<time>2015-04-25T08:53:13Z</time>
</trkpt>
<trkpt lat="35.0409894" lon="32.4391802">
<ele>41.02</ele>
<time>2015-04-25T08:53:14Z</time>
</trkpt>
<trkpt lat="35.0409649" lon="32.4391290">
<ele>40.97</ele>
<time>2015-04-25T08:53:15Z</time>
</trkpt>
<trkpt lat="35.0409318" lon="32.4390786">
<ele>40.95</ele>
<time>2015-04-25T08:53:16Z</time>
</trkpt>
<trkpt lat="35.0408994" lon="32.4390218">
<ele>41.44</ele>
<time>2015-04-25T08:53:17Z</time>
</trkpt>
<trkpt lat="35.0408775" lon="32.4389591">
<ele>40.18</ele>
<time>2015-04-25T08:53:18Z</time>
</trkpt>
<trkpt lat="35.0408522" lon="32.4389124">
<ele>39.55</ele>
<time>2015-04-25T08:53:19Z</time>
</trkpt>
<trkpt lat="35.0408213" lon="32.4388670">
<ele>39.24</ele>
<time>2015-04-25T08:53:20Z</time>
</trkpt>
<trkpt lat="35.0407764" lon="32.4387853">
<ele>39.75</ele>
<time>2015-04-25T08:53:22Z</time>
</trkpt>
<trkpt lat="35.0407272" lon="32.4386990">
<ele>40.38</ele>
<time>2015-04-25T08:53:24Z</time>
</trkpt>
<trkpt lat="35.0406880" lon="32.4386141">
<ele>40.79</ele>
<time>2015-04-25T08:53:26Z</time>
</trkpt>
<trkpt lat="35.0406481" lon="32.4385334">
<ele>40.64</ele>
<time>2015-04-25T08:53:28Z</time>
</trkpt>
<trkpt lat="35.0406076" lon="32.4384527">
<ele>40.10</ele>
<time>2015-04-25T08:53:30Z</time>
</trkpt>
<trkpt lat="35.0405475" lon="32.4383607">
<ele>39.97</ele>
<time>2015-04-25T08:53:32Z</time>
</trkpt>
<trkpt lat="35.0405254" lon="32.4383128">
<ele>40.45</ele>
<time>2015-04-25T08:53:33Z</time>
</trkpt>
<trkpt lat="35.0405003" lon="32.4382644">
<ele>40.69</ele>
<time>2015-04-25T08:53:34Z</time>
</trkpt>
<trkpt lat="35.0404541" lon="32.4381846">
<ele>42.12</ele>
<time>2015-04-25T08:53:36Z</time>
</trkpt>
<trkpt lat="35.0404311" lon="32.4381335">
<ele>42.02</ele>
<time>2015-04-25T08:53:37Z</time>
</trkpt>
<trkpt lat="35.0403889" lon="32.4380508">
<ele>42.45</ele>
<time>2015-04-25T08:53:39Z</time>
</trkpt>
<trkpt lat="35.0403471" lon="32.4379565">
<ele>42.06</ele>
<time>2015-04-25T08:53:41Z</time>
</trkpt>
<trkpt lat="35.0403282" lon="32.4379024">
<ele>41.99</ele>
<time>2015-04-25T08:53:42Z</time>
</trkpt>
<trkpt lat="35.0403083" lon="32.4378458">
<ele>41.46</ele>
<time>2015-04-25T08:53:43Z</time>
</trkpt>
<trkpt lat="35.0402826" lon="32.4377926">
<ele>41.19</ele>
<time>2015-04-25T08:53:44Z</time>
</trkpt>
<trkpt lat="35.0402492" lon="32.4377358">
<ele>41.56</ele>
<time>2015-04-25T08:53:45Z</time>
</trkpt>
<trkpt lat="35.0402255" lon="32.4376859">
<ele>41.74</ele>
<time>2015-04-25T08:53:46Z</time>
</trkpt>
<trkpt lat="35.0401796" lon="32.4375790">
<ele>40.63</ele>
<time>2015-04-25T08:53:48Z</time>
</trkpt>
<trkpt lat="35.0401538" lon="32.4375298">
<ele>40.28</ele>
<time>2015-04-25T08:53:49Z</time>
</trkpt>
<trkpt lat="35.0401232" lon="32.4374812">
<ele>40.10</ele>
<time>2015-04-25T08:53:50Z</time>
</trkpt>
<trkpt lat="35.0400912" lon="32.4374308">
<ele>40.51</ele>
<time>2015-04-25T08:53:51Z</time>
</trkpt>
<trkpt lat="35.0400602" lon="32.4373856">
<ele>40.72</ele>
<time>2015-04-25T08:53:52Z</time>
</trkpt>
<trkpt lat="35.0400193" lon="32.4373278">
<ele>41.37</ele>
<time>2015-04-25T08:53:54Z</time>
</trkpt>
<trkpt lat="35.0399869" lon="32.4372559">
<ele>41.04</ele>
<time>2015-04-25T08:53:56Z</time>
</trkpt>
<trkpt lat="35.0399470" lon="32.4371736">
<ele>40.20</ele>
<time>2015-04-25T08:53:58Z</time>
</trkpt>
<trkpt lat="35.0399017" lon="32.4370880">
<ele>39.49</ele>
<time>2015-04-25T08:54:00Z</time>
</trkpt>
<trkpt lat="35.0398701" lon="32.4370298">
<ele>39.21</ele>
<time>2015-04-25T08:54:01Z</time>
</trkpt>
<trkpt lat="35.0398440" lon="32.4369832">
<ele>39.57</ele>
<time>2015-04-25T08:54:02Z</time>
</trkpt>
<trkpt lat="35.0397988" lon="32.4368977">
<ele>39.34</ele>
<time>2015-04-25T08:54:04Z</time>
</trkpt>
<trkpt lat="35.0397565" lon="32.4368098">
<ele>38.53</ele>
<time>2015-04-25T08:54:06Z</time>
</trkpt>
<trkpt lat="35.0397089" lon="32.4367232">
<ele>38.08</ele>
<time>2015-04-25T08:54:08Z</time>
</trkpt>
<trkpt lat="35.0396565" lon="32.4366406">
<ele>36.96</ele>
<time>2015-04-25T08:54:10Z</time>
</trkpt>
<trkpt lat="35.0395986" lon="32.4365635">
<ele>36.93</ele>
<time>2015-04-25T08:54:12Z</time>
</trkpt>
<trkpt lat="35.0395386" lon="32.4364911">
<ele>35.43</ele>
<time>2015-04-25T08:54:14Z</time>
</trkpt>
<trkpt lat="35.0394778" lon="32.4364202">
<ele>35.80</ele>
<time>2015-04-25T08:54:16Z</time>
</trkpt>
<trkpt lat="35.0394123" lon="32.4363326">
<ele>35.89</ele>
<time>2015-04-25T08:54:18Z</time>
</trkpt>
<trkpt lat="35.0393478" lon="32.4362475">
<ele>35.42</ele>
<time>2015-04-25T08:54:20Z</time>
</trkpt>
<trkpt lat="35.0392854" lon="32.4361674">
<ele>35.05</ele>
<time>2015-04-25T08:54:22Z</time>
</trkpt>
<trkpt lat="35.0392482" lon="32.4361303">
<ele>34.99</ele>
<time>2015-04-25T08:54:23Z</time>
</trkpt>
<trkpt lat="35.0392112" lon="32.4360968">
<ele>35.46</ele>
<time>2015-04-25T08:54:24Z</time>
</trkpt>
<trkpt lat="35.0391407" lon="32.4360239">
<ele>36.31</ele>
<time>2015-04-25T08:54:26Z</time>
</trkpt>
<trkpt lat="35.0391066" lon="32.4359850">
<ele>36.62</ele>
<time>2015-04-25T08:54:27Z</time>
</trkpt>
<trkpt lat="35.0390715" lon="32.4359360">
<ele>36.77</ele>
<time>2015-04-25T08:54:28Z</time>
</trkpt>
<trkpt lat="35.0390412" lon="32.4358928">
<ele>36.85</ele>
<time>2015-04-25T08:54:29Z</time>
</trkpt>
<trkpt lat="35.0389892" lon="32.4358024">
<ele>37.66</ele>
<time>2015-04-25T08:54:31Z</time>
</trkpt>
<trkpt lat="35.0389624" lon="32.4357464">
<ele>37.79</ele>
<time>2015-04-25T08:54:32Z</time>
</trkpt>
<trkpt lat="35.0389412" lon="32.4356898">
<ele>37.86</ele>
<time>2015-04-25T08:54:33Z</time>
</trkpt>
<trkpt lat="35.0389128" lon="32.4356259">
<ele>37.39</ele>
<time>2015-04-25T08:54:34Z</time>
</trkpt>
<trkpt lat="35.0388873" lon="32.4355660">
<ele>37.16</ele>
<time>2015-04-25T08:54:35Z</time>
</trkpt>
<trkpt lat="35.0388705" lon="32.4354969">
<ele>37.04</ele>
<time>2015-04-25T08:54:36Z</time>
</trkpt>
<trkpt lat="35.0388493" lon="32.4354262">
<ele>36.98</ele>
<time>2015-04-25T08:54:37Z</time>
</trkpt>
<trkpt lat="35.0388344" lon="32.4353664">
<ele>36.95</ele>
<time>2015-04-25T08:54:38Z</time>
</trkpt>
<trkpt lat="35.0388165" lon="32.4353014">
<ele>36.94</ele>
<time>2015-04-25T08:54:39Z</time>
</trkpt>
<trkpt lat="35.0388017" lon="32.4352418">
<ele>36.93</ele>
<time>2015-04-25T08:54:40Z</time>
</trkpt>
<trkpt lat="35.0387864" lon="32.4351857">
<ele>36.93</ele>
<time>2015-04-25T08:54:41Z</time>
</trkpt>
<trkpt lat="35.0387662" lon="32.4351150">
<ele>36.93</ele>
<time>2015-04-25T08:54:42Z</time>
</trkpt>
<trkpt lat="35.0387499" lon="32.4350532">
<ele>36.93</ele>
<time>2015-04-25T08:54:43Z</time>
</trkpt>
<trkpt lat="35.0387306" lon="32.4349869">
<ele>36.93</ele>
<time>2015-04-25T08:54:44Z</time>
</trkpt>
<trkpt lat="35.0387110" lon="32.4349166">
<ele>36.93</ele>
<time>2015-04-25T08:54:45Z</time>
</trkpt>
<trkpt lat="35.0386897" lon="32.4348577">
<ele>36.93</ele>
<time>2015-04-25T08:54:46Z</time>
</trkpt>
<trkpt lat="35.0386699" lon="32.4347891">
<ele>36.93</ele>
<time>2015-04-25T08:54:47Z</time>
</trkpt>
<trkpt lat="35.0386430" lon="32.4347203">
<ele>36.93</ele>
<time>2015-04-25T08:54:48Z</time>
</trkpt>
<trkpt lat="35.0386228" lon="32.4346703">
<ele>36.93</ele>
<time>2015-04-25T08:54:49Z</time>
</trkpt>
<trkpt lat="35.0385957" lon="32.4346116">
<ele>36.93</ele>
<time>2015-04-25T08:54:50Z</time>
</trkpt>
<trkpt lat="35.0385710" lon="32.4345597">
<ele>36.93</ele>
<time>2015-04-25T08:54:51Z</time>
</trkpt>
<trkpt lat="35.0385420" lon="32.4345111">
<ele>36.93</ele>
<time>2015-04-25T08:54:52Z</time>
</trkpt>
<trkpt lat="35.0385124" lon="32.4344583">
<ele>36.92</ele>
<time>2015-04-25T08:54:53Z</time>
</trkpt>
<trkpt lat="35.0384744" lon="32.4344124">
<ele>36.92</ele>
<time>2015-04-25T08:54:54Z</time>
</trkpt>
<trkpt lat="35.0384416" lon="32.4343619">
<ele>36.92</ele>
<time>2015-04-25T08:54:55Z</time>
</trkpt>
<trkpt lat="35.0384007" lon="32.4343117">
<ele>36.92</ele>
<time>2015-04-25T08:54:56Z</time>
</trkpt>
<trkpt lat="35.0383650" lon="32.4342660">
<ele>36.92</ele>
<time>2015-04-25T08:54:57Z</time>
</trkpt>
<trkpt lat="35.0383270" lon="32.4342169">
<ele>36.92</ele>
<time>2015-04-25T08:54:58Z</time>
</trkpt>
<trkpt lat="35.0382968" lon="32.4341738">
<ele>36.92</ele>
<time>2015-04-25T08:54:59Z</time>
</trkpt>
<trkpt lat="35.0382652" lon="32.4341238">
<ele>36.92</ele>
<time>2015-04-25T08:55:00Z</time>
</trkpt>
<trkpt lat="35.0382268" lon="32.4340807">
<ele>36.42</ele>
<time>2015-04-25T08:55:01Z</time>
</trkpt>
<trkpt lat="35.0381936" lon="32.4340423">
<ele>36.17</ele>
<time>2015-04-25T08:55:02Z</time>
</trkpt>
<trkpt lat="35.0381632" lon="32.4339984">
<ele>35.55</ele>
<time>2015-04-25T08:55:03Z</time>
</trkpt>
<trkpt lat="35.0381250" lon="32.4339566">
<ele>35.74</ele>
<time>2015-04-25T08:55:04Z</time>
</trkpt>
<trkpt lat="35.0380940" lon="32.4339140">
<ele>35.83</ele>
<time>2015-04-25T08:55:05Z</time>
</trkpt>
<trkpt lat="35.0380530" lon="32.4338876">
<ele>35.38</ele>
<time>2015-04-25T08:55:06Z</time>
</trkpt>
<trkpt lat="35.0380132" lon="32.4338421">
<ele>35.15</ele>
<time>2015-04-25T08:55:07Z</time>
</trkpt>
<trkpt lat="35.0379785" lon="32.4338062">
<ele>34.54</ele>
<time>2015-04-25T08:55:08Z</time>
</trkpt>
<trkpt lat="35.0379100" lon="32.4337564">
<ele>34.33</ele>
<time>2015-04-25T08:55:10Z</time>
</trkpt>
<trkpt lat="35.0378651" lon="32.4336908">
<ele>33.53</ele>
<time>2015-04-25T08:55:12Z</time>
</trkpt>
<trkpt lat="35.0378094" lon="32.4336168">
<ele>33.08</ele>
<time>2015-04-25T08:55:14Z</time>
</trkpt>
<trkpt lat="35.0377677" lon="32.4335222">
<ele>32.46</ele>
<time>2015-04-25T08:55:16Z</time>
</trkpt>
<trkpt lat="35.0377450" lon="32.4334579">
<ele>32.06</ele>
<time>2015-04-25T08:55:18Z</time>
</trkpt>
<trkpt lat="35.0376966" lon="32.4333849">
<ele>33.21</ele>
<time>2015-04-25T08:55:20Z</time>
</trkpt>
<trkpt lat="35.0376390" lon="32.4333142">
<ele>34.00</ele>
<time>2015-04-25T08:55:22Z</time>
</trkpt>
<trkpt lat="35.0375889" lon="32.4332263">
<ele>34.69</ele>
<time>2015-04-25T08:55:24Z</time>
</trkpt>
<trkpt lat="35.0375629" lon="32.4331567">
<ele>34.81</ele>
<time>2015-04-25T08:55:25Z</time>
</trkpt>
<trkpt lat="35.0375141" lon="32.4330721">
<ele>34.15</ele>
<time>2015-04-25T08:55:27Z</time>
</trkpt>
<trkpt lat="35.0374871" lon="32.4330095">
<ele>33.54</ele>
<time>2015-04-25T08:55:28Z</time>
</trkpt>
<trkpt lat="35.0374571" lon="32.4329673">
<ele>33.23</ele>
<time>2015-04-25T08:55:29Z</time>
</trkpt>
<trkpt lat="35.0374339" lon="32.4328985">
<ele>33.58</ele>
<time>2015-04-25T08:55:30Z</time>
</trkpt>
<trkpt lat="35.0373839" lon="32.4327984">
<ele>32.34</ele>
<time>2015-04-25T08:55:32Z</time>
</trkpt>
<trkpt lat="35.0373464" lon="32.4327091">
<ele>31.28</ele>
<time>2015-04-25T08:55:34Z</time>
</trkpt>
<trkpt lat="35.0373042" lon="32.4326306">
<ele>32.26</ele>
<time>2015-04-25T08:55:36Z</time>
</trkpt>
<trkpt lat="35.0372664" lon="32.4325504">
<ele>33.01</ele>
<time>2015-04-25T08:55:38Z</time>
</trkpt>
<trkpt lat="35.0372277" lon="32.4324857">
<ele>32.19</ele>
<time>2015-04-25T08:55:41Z</time>
</trkpt>
<trkpt lat="35.0372030" lon="32.4324361">
<ele>31.99</ele>
<time>2015-04-25T08:55:43Z</time>
</trkpt>
<trkpt lat="35.0371812" lon="32.4323752">
<ele>32.19</ele>
<time>2015-04-25T08:55:45Z</time>
</trkpt>
<trkpt lat="35.0371658" lon="32.4322943">
<ele>31.99</ele>
<time>2015-04-25T08:55:47Z</time>
</trkpt>
<trkpt lat="35.0371484" lon="32.4321916">
<ele>31.94</ele>
<time>2015-04-25T08:55:49Z</time>
</trkpt>
<trkpt lat="35.0371301" lon="32.4321008">
<ele>31.93</ele>
<time>2015-04-25T08:55:50Z</time>
</trkpt>
<trkpt lat="35.0371175" lon="32.4320384">
<ele>31.93</ele>
<time>2015-04-25T08:55:51Z</time>
</trkpt>
<trkpt lat="35.0371002" lon="32.4319726">
<ele>31.93</ele>
<time>2015-04-25T08:55:52Z</time>
</trkpt>
<trkpt lat="35.0370799" lon="32.4319061">
<ele>31.93</ele>
<time>2015-04-25T08:55:53Z</time>
</trkpt>
<trkpt lat="35.0370538" lon="32.4318371">
<ele>32.43</ele>
<time>2015-04-25T08:55:54Z</time>
</trkpt>
<trkpt lat="35.0370371" lon="32.4317759">
<ele>32.68</ele>
<time>2015-04-25T08:55:55Z</time>
</trkpt>
<trkpt lat="35.0370187" lon="32.4317104">
<ele>32.80</ele>
<time>2015-04-25T08:55:56Z</time>
</trkpt>
<trkpt lat="35.0369956" lon="32.4316485">
<ele>32.36</ele>
<time>2015-04-25T08:55:57Z</time>
</trkpt>
<trkpt lat="35.0369765" lon="32.4315938">
<ele>32.14</ele>
<time>2015-04-25T08:55:58Z</time>
</trkpt>
<trkpt lat="35.0369443" lon="32.4315259">
<ele>31.53</ele>
<time>2015-04-25T08:55:59Z</time>
</trkpt>
<trkpt lat="35.0369200" lon="32.4314604">
<ele>31.23</ele>
<time>2015-04-25T08:56:00Z</time>
</trkpt>
<trkpt lat="35.0368971" lon="32.4313850">
<ele>30.58</ele>
<time>2015-04-25T08:56:01Z</time>
</trkpt>
<trkpt lat="35.0368811" lon="32.4313314">
<ele>30.25</ele>
<time>2015-04-25T08:56:02Z</time>
</trkpt>
<trkpt lat="35.0368553" lon="32.4312786">
<ele>30.09</ele>
<time>2015-04-25T08:56:03Z</time>
</trkpt>
<trkpt lat="35.0368231" lon="32.4312314">
<ele>30.01</ele>
<time>2015-04-25T08:56:04Z</time>
</trkpt>
<trkpt lat="35.0367895" lon="32.4311716">
<ele>29.97</ele>
<time>2015-04-25T08:56:05Z</time>
</trkpt>
<trkpt lat="35.0367700" lon="32.4311201">
<ele>30.45</ele>
<time>2015-04-25T08:56:06Z</time>
</trkpt>
<trkpt lat="35.0367198" lon="32.4310467">
<ele>30.81</ele>
<time>2015-04-25T08:56:08Z</time>
</trkpt>
<trkpt lat="35.0366860" lon="32.4310005">
<ele>30.87</ele>
<time>2015-04-25T08:56:09Z</time>
</trkpt>
<trkpt lat="35.0366594" lon="32.4309548">
<ele>31.40</ele>
<time>2015-04-25T08:56:10Z</time>
</trkpt>
<trkpt lat="35.0366448" lon="32.4308995">
<ele>31.66</ele>
<time>2015-04-25T08:56:11Z</time>
</trkpt>
<trkpt lat="35.0366261" lon="32.4308461">
<ele>31.79</ele>
<time>2015-04-25T08:56:12Z</time>
</trkpt>
<trkpt lat="35.0365854" lon="32.4307477">
<ele>30.89</ele>
<time>2015-04-25T08:56:14Z</time>
</trkpt>
<trkpt lat="35.0365341" lon="32.4306502">
<ele>30.67</ele>
<time>2015-04-25T08:56:16Z</time>
</trkpt>
<trkpt lat="35.0365058" lon="32.4306056">
<ele>30.80</ele>
<time>2015-04-25T08:56:17Z</time>
</trkpt>
<trkpt lat="35.0364654" lon="32.4305253">
<ele>30.89</ele>
<time>2015-04-25T08:56:19Z</time>
</trkpt>
<trkpt lat="35.0364223" lon="32.4304349">
<ele>30.92</ele>
<time>2015-04-25T08:56:21Z</time>
</trkpt>
<trkpt lat="35.0363998" lon="32.4303873">
<ele>31.42</ele>
<time>2015-04-25T08:56:22Z</time>
</trkpt>
<trkpt lat="35.0363647" lon="32.4303046">
<ele>33.80</ele>
<time>2015-04-25T08:56:24Z</time>
</trkpt>
<trkpt lat="35.0363263" lon="32.4302168">
<ele>35.14</ele>
<time>2015-04-25T08:56:26Z</time>
</trkpt>
<trkpt lat="35.0362936" lon="32.4301266">
<ele>34.48</ele>
<time>2015-04-25T08:56:28Z</time>
</trkpt>
<trkpt lat="35.0362592" lon="32.4300334">
<ele>34.31</ele>
<time>2015-04-25T08:56:30Z</time>
</trkpt>
<trkpt lat="35.0362261" lon="32.4299463">
<ele>34.52</ele>
<time>2015-04-25T08:56:32Z</time>
</trkpt>
<trkpt lat="35.0361939" lon="32.4298665">
<ele>34.82</ele>
<time>2015-04-25T08:56:34Z</time>
</trkpt>
<trkpt lat="35.0361593" lon="32.4297934">
<ele>34.90</ele>
<time>2015-04-25T08:56:36Z</time>
</trkpt>
<trkpt lat="35.0361292" lon="32.4297198">
<ele>35.42</ele>
<time>2015-04-25T08:56:38Z</time>
</trkpt>
<trkpt lat="35.0361005" lon="32.4296346">
<ele>36.30</ele>
<time>2015-04-25T08:56:40Z</time>
</trkpt>
<trkpt lat="35.0360721" lon="32.4295407">
<ele>36.77</ele>
<time>2015-04-25T08:56:42Z</time>
</trkpt>
<trkpt lat="35.0360488" lon="32.4294775">
<ele>37.35</ele>
<time>2015-04-25T08:56:43Z</time>
</trkpt>
<trkpt lat="35.0360158" lon="32.4294312">
<ele>37.14</ele>
<time>2015-04-25T08:56:44Z</time>
</trkpt>
<trkpt lat="35.0359744" lon="32.4293618">
<ele>36.48</ele>
<time>2015-04-25T08:56:46Z</time>
</trkpt>
<trkpt lat="35.0359474" lon="32.4292738">
<ele>36.06</ele>
<time>2015-04-25T08:56:48Z</time>
</trkpt>
<trkpt lat="35.0359201" lon="32.4292003">
<ele>36.21</ele>
<time>2015-04-25T08:56:50Z</time>
</trkpt>
<trkpt lat="35.0359118" lon="32.4291377">
<ele>36.00</ele>
<time>2015-04-25T08:56:52Z</time>
</trkpt>
<trkpt lat="35.0358910" lon="32.4290832">
<ele>35.94</ele>
<time>2015-04-25T08:56:54Z</time>
</trkpt>
<trkpt lat="35.0358684" lon="32.4290286">
<ele>37.18</ele>
<time>2015-04-25T08:56:56Z</time>
</trkpt>
<trkpt lat="35.0358483" lon="32.4289724">
<ele>38.24</ele>
<time>2015-04-25T08:56:58Z</time>
</trkpt>
<trkpt lat="35.0358288" lon="32.4289094">
<ele>38.75</ele>
<time>2015-04-25T08:57:00Z</time>
</trkpt>
<trkpt lat="35.0358088" lon="32.4288456">
<ele>37.88</ele>
<time>2015-04-25T08:57:02Z</time>
</trkpt>
<trkpt lat="35.0357872" lon="32.4287851">
<ele>37.66</ele>
<time>2015-04-25T08:57:04Z</time>
</trkpt>
<trkpt lat="35.0357643" lon="32.4287250">
<ele>37.86</ele>
<time>2015-04-25T08:57:06Z</time>
</trkpt>
<trkpt lat="35.0357417" lon="32.4286662">
<ele>37.91</ele>
<time>2015-04-25T08:57:08Z</time>
</trkpt>
<trkpt lat="35.0357151" lon="32.4286143">
<ele>39.17</ele>
<time>2015-04-25T08:57:10Z</time>
</trkpt>
<trkpt lat="35.0356890" lon="32.4285622">
<ele>40.99</ele>
<time>2015-04-25T08:57:12Z</time>
</trkpt>
<trkpt lat="35.0356672" lon="32.4285059">
<ele>40.94</ele>
<time>2015-04-25T08:57:14Z</time>
</trkpt>
<trkpt lat="35.0356316" lon="32.4284394">
<ele>41.30</ele>
<time>2015-04-25T08:57:17Z</time>
</trkpt>
<trkpt lat="35.0356055" lon="32.4283926">
<ele>40.52</ele>
<time>2015-04-25T08:57:19Z</time>
</trkpt>
<trkpt lat="35.0355750" lon="32.4283425">
<ele>39.57</ele>
<time>2015-04-25T08:57:21Z</time>
</trkpt>
<trkpt lat="35.0355374" lon="32.4282958">
<ele>38.59</ele>
<time>2015-04-25T08:57:23Z</time>
</trkpt>
<trkpt lat="35.0354989" lon="32.4282466">
<ele>39.84</ele>
<time>2015-04-25T08:57:25Z</time>
</trkpt>
<trkpt lat="35.0354586" lon="32.4281970">
<ele>40.15</ele>
<time>2015-04-25T08:57:27Z</time>
</trkpt>
<trkpt lat="35.0354125" lon="32.4281580">
<ele>40.48</ele>
<time>2015-04-25T08:57:29Z</time>
</trkpt>
<trkpt lat="35.0353625" lon="32.4281251">
<ele>41.06</ele>
<time>2015-04-25T08:57:31Z</time>
</trkpt>
<trkpt lat="35.0353038" lon="32.4280919">
<ele>42.96</ele>
<time>2015-04-25T08:57:33Z</time>
</trkpt>
<trkpt lat="35.0352480" lon="32.4280651">
<ele>44.18</ele>
<time>2015-04-25T08:57:35Z</time>
</trkpt>
<trkpt lat="35.0351895" lon="32.4280396">
<ele>46.24</ele>
<time>2015-04-25T08:57:37Z</time>
</trkpt>
<trkpt lat="35.0351273" lon="32.4280173">
<ele>48.50</ele>
<time>2015-04-25T08:57:39Z</time>
</trkpt>
<trkpt lat="35.0350647" lon="32.4280019">
<ele>50.32</ele>
<time>2015-04-25T08:57:41Z</time>
</trkpt>
<trkpt lat="35.0350020" lon="32.4279893">
<ele>49.52</ele>
<time>2015-04-25T08:57:43Z</time>
</trkpt>
<trkpt lat="35.0349471" lon="32.4279731">
<ele>47.07</ele>
<time>2015-04-25T08:57:45Z</time>
</trkpt>
<trkpt lat="35.0348968" lon="32.4279702">
<ele>45.71</ele>
<time>2015-04-25T08:57:47Z</time>
</trkpt>
<trkpt lat="35.0348436" lon="32.4279545">
<ele>44.62</ele>
<time>2015-04-25T08:57:49Z</time>
</trkpt>
<trkpt lat="35.0347862" lon="32.4279287">
<ele>43.85</ele>
<time>2015-04-25T08:57:51Z</time>
</trkpt>
<trkpt lat="35.0347307" lon="32.4278959">
<ele>42.41</ele>
<time>2015-04-25T08:57:53Z</time>
</trkpt>
<trkpt lat="35.0346932" lon="32.4278501">
<ele>43.30</ele>
<time>2015-04-25T08:57:55Z</time>
</trkpt>
<trkpt lat="35.0346541" lon="32.4277928">
<ele>43.77</ele>
<time>2015-04-25T08:57:57Z</time>
</trkpt>
<trkpt lat="35.0346105" lon="32.4277423">
<ele>43.14</ele>
<time>2015-04-25T08:57:59Z</time>
</trkpt>
<trkpt lat="35.0345661" lon="32.4276990">
<ele>42.48</ele>
<time>2015-04-25T08:58:01Z</time>
</trkpt>
<trkpt lat="35.0345196" lon="32.4276504">
<ele>41.56</ele>
<time>2015-04-25T08:58:03Z</time>
</trkpt>
<trkpt lat="35.0344674" lon="32.4276017">
<ele>41.58</ele>
<time>2015-04-25T08:58:05Z</time>
</trkpt>
<trkpt lat="35.0344156" lon="32.4275528">
<ele>41.84</ele>
<time>2015-04-25T08:58:07Z</time>
</trkpt>
<trkpt lat="35.0343611" lon="32.4275024">
<ele>41.65</ele>
<time>2015-04-25T08:58:09Z</time>
</trkpt>
<trkpt lat="35.0343083" lon="32.4274537">
<ele>41.11</ele>
<time>2015-04-25T08:58:11Z</time>
</trkpt>
<trkpt lat="35.0342568" lon="32.4274052">
<ele>40.97</ele>
<time>2015-04-25T08:58:13Z</time>
</trkpt>
<trkpt lat="35.0342042" lon="32.4273623">
<ele>41.69</ele>
<time>2015-04-25T08:58:15Z</time>
</trkpt>
<trkpt lat="35.0341462" lon="32.4273272">
<ele>41.12</ele>
<time>2015-04-25T08:58:17Z</time>
</trkpt>
<trkpt lat="35.0340863" lon="32.4272945">
<ele>40.97</ele>
<time>2015-04-25T08:58:19Z</time>
</trkpt>
<trkpt lat="35.0340278" lon="32.4272622">
<ele>40.44</ele>
<time>2015-04-25T08:58:21Z</time>
</trkpt>
<trkpt lat="35.0339680" lon="32.4272414">
<ele>40.05</ele>
<time>2015-04-25T08:58:23Z</time>
</trkpt>
<trkpt lat="35.0339082" lon="32.4272238">
<ele>41.21</ele>
<time>2015-04-25T08:58:25Z</time>
</trkpt>
<trkpt lat="35.0338454" lon="32.4272117">
<ele>42.75</ele>
<time>2015-04-25T08:58:27Z</time>
</trkpt>
<trkpt lat="35.0337838" lon="32.4272002">
<ele>44.13</ele>
<time>2015-04-25T08:58:29Z</time>
</trkpt>
<trkpt lat="35.0337223" lon="32.4271952">
<ele>43.98</ele>
<time>2015-04-25T08:58:31Z</time>
</trkpt>
<trkpt lat="35.0336594" lon="32.4271975">
<ele>43.44</ele>
<time>2015-04-25T08:58:33Z</time>
</trkpt>
<trkpt lat="35.0335956" lon="32.4271961">
<ele>43.55</ele>
<time>2015-04-25T08:58:35Z</time>
</trkpt>
<trkpt lat="35.0335311" lon="32.4272065">
<ele>43.83</ele>
<time>2015-04-25T08:58:37Z</time>
</trkpt>
<trkpt lat="35.0334661" lon="32.4272187">
<ele>44.40</ele>
<time>2015-04-25T08:58:39Z</time>
</trkpt>
<trkpt lat="35.0334018" lon="32.4272351">
<ele>44.04</ele>
<time>2015-04-25T08:58:41Z</time>
</trkpt>
<trkpt lat="35.0333410" lon="32.4272594">
<ele>43.95</ele>
<time>2015-04-25T08:58:43Z</time>
</trkpt>
<trkpt lat="35.0332688" lon="32.4272746">
<ele>43.68</ele>
<time>2015-04-25T08:58:45Z</time>
</trkpt>
<trkpt lat="35.0331954" lon="32.4272731">
<ele>43.80</ele>
<time>2015-04-25T08:58:46Z</time>
</trkpt>
<trkpt lat="35.0331172" lon="32.4272748">
<ele>43.89</ele>
<time>2015-04-25T08:58:48Z</time>
</trkpt>
<trkpt lat="35.0330309" lon="32.4272536">
<ele>43.92</ele>
<time>2015-04-25T08:58:50Z</time>
</trkpt>
<trkpt lat="35.0329738" lon="32.4272359">
<ele>45.92</ele>
<time>2015-04-25T08:58:52Z</time>
</trkpt>
<trkpt lat="35.0329039" lon="32.4272103">
<ele>46.67</ele>
<time>2015-04-25T08:58:54Z</time>
</trkpt>
<trkpt lat="35.0328550" lon="32.4271794">
<ele>47.61</ele>
<time>2015-04-25T08:58:56Z</time>
</trkpt>
<trkpt lat="35.0328134" lon="32.4271570">
<ele>47.85</ele>
<time>2015-04-25T08:58:58Z</time>
</trkpt>
<trkpt lat="35.0327569" lon="32.4271228">
<ele>47.92</ele>
<time>2015-04-25T08:59:01Z</time>
</trkpt>
<trkpt lat="35.0327096" lon="32.4270832">
<ele>47.80</ele>
<time>2015-04-25T08:59:04Z</time>
</trkpt>
<trkpt lat="35.0326654" lon="32.4270488">
<ele>49.17</ele>
<time>2015-04-25T08:59:08Z</time>
</trkpt>
<trkpt lat="35.0326295" lon="32.4269980">
<ele>50.34</ele>
<time>2015-04-25T08:59:13Z</time>
</trkpt>
<trkpt lat="35.0326678" lon="32.4269191">
<ele>48.48</ele>
<time>2015-04-25T08:59:16Z</time>
</trkpt>
<trkpt lat="35.0327243" lon="32.4268469">
<ele>48.06</ele>
<time>2015-04-25T08:59:18Z</time>
</trkpt>
<trkpt lat="35.0327867" lon="32.4267757">
<ele>48.71</ele>
<time>2015-04-25T08:59:20Z</time>
</trkpt>
<trkpt lat="35.0328464" lon="32.4267083">
<ele>48.87</ele>
<time>2015-04-25T08:59:22Z</time>
</trkpt>
<trkpt lat="35.0328967" lon="32.4266462">
<ele>48.16</ele>
<time>2015-04-25T08:59:24Z</time>
</trkpt>
<trkpt lat="35.0329386" lon="32.4265755">
<ele>48.73</ele>
<time>2015-04-25T08:59:26Z</time>
</trkpt>
<trkpt lat="35.0329715" lon="32.4264944">
<ele>48.88</ele>
<time>2015-04-25T08:59:28Z</time>
</trkpt>
<trkpt lat="35.0330094" lon="32.4264345">
<ele>48.40</ele>
<time>2015-04-25T08:59:29Z</time>
</trkpt>
<trkpt lat="35.0330454" lon="32.4263928">
<ele>48.16</ele>
<time>2015-04-25T08:59:30Z</time>
</trkpt>
<trkpt lat="35.0330752" lon="32.4263437">
<ele>47.54</ele>
<time>2015-04-25T08:59:31Z</time>
</trkpt>
<trkpt lat="35.0331074" lon="32.4262921">
<ele>46.73</ele>
<time>2015-04-25T08:59:32Z</time>
</trkpt>
<trkpt lat="35.0331481" lon="32.4262445">
<ele>45.83</ele>
<time>2015-04-25T08:59:33Z</time>
</trkpt>
<trkpt lat="35.0331867" lon="32.4261884">
<ele>45.38</ele>
<time>2015-04-25T08:59:34Z</time>
</trkpt>
<trkpt lat="35.0332176" lon="32.4261354">
<ele>45.15</ele>
<time>2015-04-25T08:59:35Z</time>
</trkpt>
<trkpt lat="35.0332518" lon="32.4260916">
<ele>44.04</ele>
<time>2015-04-25T08:59:36Z</time>
</trkpt>
<trkpt lat="35.0332834" lon="32.4260441">
<ele>42.98</ele>
<time>2015-04-25T08:59:37Z</time>
</trkpt>
<trkpt lat="35.0333184" lon="32.4259991">
<ele>42.45</ele>
<time>2015-04-25T08:59:38Z</time>
</trkpt>
<trkpt lat="35.0333761" lon="32.4259367">
<ele>42.06</ele>
<time>2015-04-25T08:59:40Z</time>
</trkpt>
<trkpt lat="35.0334413" lon="32.4258838">
<ele>41.96</ele>
<time>2015-04-25T08:59:42Z</time>
</trkpt>
<trkpt lat="35.0335012" lon="32.4258427">
<ele>42.18</ele>
<time>2015-04-25T08:59:44Z</time>
</trkpt>
<trkpt lat="35.0335487" lon="32.4258096">
<ele>39.99</ele>
<time>2015-04-25T08:59:46Z</time>
</trkpt>
<trkpt lat="35.0335952" lon="32.4257622">
<ele>39.43</ele>
<time>2015-04-25T08:59:49Z</time>
</trkpt>
<trkpt lat="35.0335940" lon="32.4256882">
<ele>39.11</ele>
<time>2015-04-25T08:59:52Z</time>
</trkpt>
<trkpt lat="35.0335534" lon="32.4256343">
<ele>36.97</ele>
<time>2015-04-25T08:59:54Z</time>
</trkpt>
<trkpt lat="35.0334869" lon="32.4255916">
<ele>35.69</ele>
<time>2015-04-25T08:59:56Z</time>
</trkpt>
<trkpt lat="35.0334165" lon="32.4255578">
<ele>35.37</ele>
<time>2015-04-25T08:59:58Z</time>
</trkpt>
<trkpt lat="35.0333355" lon="32.4255227">
<ele>35.79</ele>
<time>2015-04-25T09:00:00Z</time>
</trkpt>
<trkpt lat="35.0332568" lon="32.4254761">
<ele>35.36</ele>
<time>2015-04-25T09:00:01Z</time>
</trkpt>
<trkpt lat="35.0332020" lon="32.4254452">
<ele>34.64</ele>
<time>2015-04-25T09:00:02Z</time>
</trkpt>
<trkpt lat="35.0331509" lon="32.4254072">
<ele>34.78</ele>
<time>2015-04-25T09:00:03Z</time>
</trkpt>
<trkpt lat="35.0330996" lon="32.4253624">
<ele>34.35</ele>
<time>2015-04-25T09:00:04Z</time>
</trkpt>
<trkpt lat="35.0330423" lon="32.4253218">
<ele>34.14</ele>
<time>2015-04-25T09:00:05Z</time>
</trkpt>
<trkpt lat="35.0329874" lon="32.4252760">
<ele>33.53</ele>
<time>2015-04-25T09:00:06Z</time>
</trkpt>
<trkpt lat="35.0329387" lon="32.4252318">
<ele>32.23</ele>
<time>2015-04-25T09:00:07Z</time>
</trkpt>
<trkpt lat="35.0328858" lon="32.4251944">
<ele>31.58</ele>
<time>2015-04-25T09:00:08Z</time>
</trkpt>
<trkpt lat="35.0328464" lon="32.4251557">
<ele>31.75</ele>
<time>2015-04-25T09:00:09Z</time>
</trkpt>
<trkpt lat="35.0328012" lon="32.4251114">
<ele>32.34</ele>
<time>2015-04-25T09:00:10Z</time>
</trkpt>
<trkpt lat="35.0327594" lon="32.4250738">
<ele>32.63</ele>
<time>2015-04-25T09:00:11Z</time>
</trkpt>
<trkpt lat="35.0327123" lon="32.4250143">
<ele>33.78</ele>
<time>2015-04-25T09:00:12Z</time>
</trkpt>
<trkpt lat="35.0326715" lon="32.4249517">
<ele>34.35</ele>
<time>2015-04-25T09:00:13Z</time>
</trkpt>
<trkpt lat="35.0326316" lon="32.4248903">
<ele>34.14</ele>
<time>2015-04-25T09:00:14Z</time>
</trkpt>
<trkpt lat="35.0325881" lon="32.4248304">
<ele>34.53</ele>
<time>2015-04-25T09:00:15Z</time>
</trkpt>
<trkpt lat="35.0325421" lon="32.4247734">
<ele>34.23</ele>
<time>2015-04-25T09:00:16Z</time>
</trkpt>
<trkpt lat="35.0324993" lon="32.4247122">
<ele>34.08</ele>
<time>2015-04-25T09:00:17Z</time>
</trkpt>
<trkpt lat="35.0324478" lon="32.4246531">
<ele>34.00</ele>
<time>2015-04-25T09:00:18Z</time>
</trkpt>
<trkpt lat="35.0324005" lon="32.4245890">
<ele>33.46</ele>
<time>2015-04-25T09:00:19Z</time>
</trkpt>
<trkpt lat="35.0323569" lon="32.4245257">
<ele>33.19</ele>
<time>2015-04-25T09:00:20Z</time>
</trkpt>
<trkpt lat="35.0323097" lon="32.4244653">
<ele>33.06</ele>
<time>2015-04-25T09:00:21Z</time>
</trkpt>
<trkpt lat="35.0322690" lon="32.4244025">
<ele>32.49</ele>
<time>2015-04-25T09:00:22Z</time>
</trkpt>
<trkpt lat="35.0322208" lon="32.4243346">
<ele>32.21</ele>
<time>2015-04-25T09:00:23Z</time>
</trkpt>
<trkpt lat="35.0321778" lon="32.4242845">
<ele>31.57</ele>
<time>2015-04-25T09:00:24Z</time>
</trkpt>
<trkpt lat="35.0321259" lon="32.4242314">
<ele>30.75</ele>
<time>2015-04-25T09:00:25Z</time>
</trkpt>
<trkpt lat="35.0320837" lon="32.4241817">
<ele>29.84</ele>
<time>2015-04-25T09:00:26Z</time>
</trkpt>
<trkpt lat="35.0320501" lon="32.4241272">
<ele>29.38</ele>
<time>2015-04-25T09:00:27Z</time>
</trkpt>
<trkpt lat="35.0320088" lon="32.4240694">
<ele>29.15</ele>
<time>2015-04-25T09:00:28Z</time>
</trkpt>
<trkpt lat="35.0319721" lon="32.4240222">
<ele>29.04</ele>
<time>2015-04-25T09:00:29Z</time>
</trkpt>
<trkpt lat="35.0319352" lon="32.4239698">
<ele>28.98</ele>
<time>2015-04-25T09:00:30Z</time>
</trkpt>
<trkpt lat="35.0318993" lon="32.4239224">
<ele>28.95</ele>
<time>2015-04-25T09:00:31Z</time>
</trkpt>
<trkpt lat="35.0318654" lon="32.4238760">
<ele>28.94</ele>
<time>2015-04-25T09:00:32Z</time>
</trkpt>
<trkpt lat="35.0318325" lon="32.4238311">
<ele>28.93</ele>
<time>2015-04-25T09:00:33Z</time>
</trkpt>
<trkpt lat="35.0317954" lon="32.4237894">
<ele>28.93</ele>
<time>2015-04-25T09:00:34Z</time>
</trkpt>
<trkpt lat="35.0317293" lon="32.4236973">
<ele>28.93</ele>
<time>2015-04-25T09:00:36Z</time>
</trkpt>
<trkpt lat="35.0316843" lon="32.4236362">
<ele>29.18</ele>
<time>2015-04-25T09:00:38Z</time>
</trkpt>
<trkpt lat="35.0316420" lon="32.4235784">
<ele>28.99</ele>
<time>2015-04-25T09:00:40Z</time>
</trkpt>
<trkpt lat="35.0315971" lon="32.4235397">
<ele>28.94</ele>
<time>2015-04-25T09:00:42Z</time>
</trkpt>
<trkpt lat="35.0315473" lon="32.4234811">
<ele>28.93</ele>
<time>2015-04-25T09:00:44Z</time>
</trkpt>
<trkpt lat="35.0315091" lon="32.4234128">
<ele>28.93</ele>
<time>2015-04-25T09:00:46Z</time>
</trkpt>
<trkpt lat="35.0314560" lon="32.4233636">
<ele>27.68</ele>
<time>2015-04-25T09:00:48Z</time>
</trkpt>
<trkpt lat="35.0314151" lon="32.4233055">
<ele>27.86</ele>
<time>2015-04-25T09:00:50Z</time>
</trkpt>
<trkpt lat="35.0313813" lon="32.4232375">
<ele>31.66</ele>
<time>2015-04-25T09:00:52Z</time>
</trkpt>
<trkpt lat="35.0313479" lon="32.4231672">
<ele>35.36</ele>
<time>2015-04-25T09:00:54Z</time>
</trkpt>
<trkpt lat="35.0313099" lon="32.4231044">
<ele>34.28</ele>
<time>2015-04-25T09:00:56Z</time>
</trkpt>
<trkpt lat="35.0312641" lon="32.4230464">
<ele>34.51</ele>
<time>2015-04-25T09:00:58Z</time>
</trkpt>
<trkpt lat="35.0312141" lon="32.4229916">
<ele>35.32</ele>
<time>2015-04-25T09:01:00Z</time>
</trkpt>
<trkpt lat="35.0311677" lon="32.4229325">
<ele>34.27</ele>
<time>2015-04-25T09:01:02Z</time>
</trkpt>
<trkpt lat="35.0311275" lon="32.4228705">
<ele>35.51</ele>
<time>2015-04-25T09:01:04Z</time>
</trkpt>
<trkpt lat="35.0310975" lon="32.4228058">
<ele>35.82</ele>
<time>2015-04-25T09:01:06Z</time>
</trkpt>
<trkpt lat="35.0310732" lon="32.4227467">
<ele>36.15</ele>
<time>2015-04-25T09:01:08Z</time>
</trkpt>
<trkpt lat="35.0310487" lon="32.4226816">
<ele>33.83</ele>
<time>2015-04-25T09:01:11Z</time>
</trkpt>
<trkpt lat="35.0310272" lon="32.4226167">
<ele>31.11</ele>
<time>2015-04-25T09:01:15Z</time>
</trkpt>
<trkpt lat="35.0310034" lon="32.4225682">
<ele>31.47</ele>
<time>2015-04-25T09:01:17Z</time>
</trkpt>
<trkpt lat="35.0309698" lon="32.4225063">
<ele>31.81</ele>
<time>2015-04-25T09:01:19Z</time>
</trkpt>
<trkpt lat="35.0309350" lon="32.4224361">
<ele>31.40</ele>
<time>2015-04-25T09:01:21Z</time>
</trkpt>
<trkpt lat="35.0309058" lon="32.4223665">
<ele>31.29</ele>
<time>2015-04-25T09:01:23Z</time>
</trkpt>
<trkpt lat="35.0308774" lon="32.4222865">
<ele>31.27</ele>
<time>2015-04-25T09:01:25Z</time>
</trkpt>
<trkpt lat="35.0308445" lon="32.4222068">
<ele>31.01</ele>
<time>2015-04-25T09:01:27Z</time>
</trkpt>
<trkpt lat="35.0308212" lon="32.4221208">
<ele>31.45</ele>
<time>2015-04-25T09:01:29Z</time>
</trkpt>
<trkpt lat="35.0308019" lon="32.4220376">
<ele>32.31</ele>
<time>2015-04-25T09:01:31Z</time>
</trkpt>
<trkpt lat="35.0307808" lon="32.4219445">
<ele>32.27</ele>
<time>2015-04-25T09:01:33Z</time>
</trkpt>
<trkpt lat="35.0307614" lon="32.4218524">
<ele>32.01</ele>
<time>2015-04-25T09:01:35Z</time>
</trkpt>
<trkpt lat="35.0307366" lon="32.4217654">
<ele>31.95</ele>
<time>2015-04-25T09:01:37Z</time>
</trkpt>
<trkpt lat="35.0307126" lon="32.4216858">
<ele>32.43</ele>
<time>2015-04-25T09:01:39Z</time>
</trkpt>
<trkpt lat="35.0306938" lon="32.4215985">
<ele>33.30</ele>
<time>2015-04-25T09:01:41Z</time>
</trkpt>
<trkpt lat="35.0306753" lon="32.4215159">
<ele>33.02</ele>
<time>2015-04-25T09:01:43Z</time>
</trkpt>
<trkpt lat="35.0306497" lon="32.4214274">
<ele>33.70</ele>
<time>2015-04-25T09:01:45Z</time>
</trkpt>
<trkpt lat="35.0306208" lon="32.4213390">
<ele>33.12</ele>
<time>2015-04-25T09:01:47Z</time>
</trkpt>
<trkpt lat="35.0305909" lon="32.4212428">
<ele>33.22</ele>
<time>2015-04-25T09:01:49Z</time>
</trkpt>
<trkpt lat="35.0305605" lon="32.4211504">
<ele>33.00</ele>
<time>2015-04-25T09:01:51Z</time>
</trkpt>
<trkpt lat="35.0305298" lon="32.4210568">
<ele>32.19</ele>
<time>2015-04-25T09:01:53Z</time>
</trkpt>
<trkpt lat="35.0305011" lon="32.4209708">
<ele>31.99</ele>
<time>2015-04-25T09:01:55Z</time>
</trkpt>
<trkpt lat="35.0304737" lon="32.4208829">
<ele>31.94</ele>
<time>2015-04-25T09:01:57Z</time>
</trkpt>
<trkpt lat="35.0304423" lon="32.4208023">
<ele>32.43</ele>
<time>2015-04-25T09:01:59Z</time>
</trkpt>
<trkpt lat="35.0304111" lon="32.4207199">
<ele>32.05</ele>
<time>2015-04-25T09:02:01Z</time>
</trkpt>
<trkpt lat="35.0303779" lon="32.4206434">
<ele>30.71</ele>
<time>2015-04-25T09:02:03Z</time>
</trkpt>
<trkpt lat="35.0303508" lon="32.4205649">
<ele>31.62</ele>
<time>2015-04-25T09:02:05Z</time>
</trkpt>
<trkpt lat="35.0303247" lon="32.4204972">
<ele>31.60</ele>
<time>2015-04-25T09:02:07Z</time>
</trkpt>
<trkpt lat="35.0302956" lon="32.4204453">
<ele>32.09</ele>
<time>2015-04-25T09:02:09Z</time>
</trkpt>
<trkpt lat="35.0302634" lon="32.4203950">
<ele>31.97</ele>
<time>2015-04-25T09:02:11Z</time>
</trkpt>
<trkpt lat="35.0302274" lon="32.4203510">
<ele>31.94</ele>
<time>2015-04-25T09:02:13Z</time>
</trkpt>
<trkpt lat="35.0301794" lon="32.4203039">
<ele>31.18</ele>
<time>2015-04-25T09:02:16Z</time>
</trkpt>
<trkpt lat="35.0301359" lon="32.4202445">
<ele>30.83</ele>
<time>2015-04-25T09:02:19Z</time>
</trkpt>
<trkpt lat="35.0301060" lon="32.4201976">
<ele>29.15</ele>
<time>2015-04-25T09:02:21Z</time>
</trkpt>
<trkpt lat="35.0300810" lon="32.4201421">
<ele>28.73</ele>
<time>2015-04-25T09:02:23Z</time>
</trkpt>
<trkpt lat="35.0300534" lon="32.4200802">
<ele>28.88</ele>
<time>2015-04-25T09:02:25Z</time>
</trkpt>
<trkpt lat="35.0300078" lon="32.4200156">
<ele>28.91</ele>
<time>2015-04-25T09:02:27Z</time>
</trkpt>
<trkpt lat="35.0299539" lon="32.4199546">
<ele>29.42</ele>
<time>2015-04-25T09:02:29Z</time>
</trkpt>
<trkpt lat="35.0299011" lon="32.4198988">
<ele>29.05</ele>
<time>2015-04-25T09:02:31Z</time>
</trkpt>
<trkpt lat="35.0298619" lon="32.4198462">
<ele>27.71</ele>
<time>2015-04-25T09:02:33Z</time>
</trkpt>
<trkpt lat="35.0298375" lon="32.4197930">
<ele>26.64</ele>
<time>2015-04-25T09:03:18Z</time>
</trkpt>
<trkpt lat="35.0298002" lon="32.4197445">
<ele>26.76</ele>
<time>2015-04-25T09:03:23Z</time>
</trkpt>
<trkpt lat="35.0297688" lon="32.4196932">
<ele>26.40</ele>
<time>2015-04-25T09:03:26Z</time>
</trkpt>
<trkpt lat="35.0297451" lon="32.4196437">
<ele>27.23</ele>
<time>2015-04-25T09:03:29Z</time>
</trkpt>
<trkpt lat="35.0297315" lon="32.4195726">
<ele>26.21</ele>
<time>2015-04-25T09:03:32Z</time>
</trkpt>
<trkpt lat="35.0297052" lon="32.4195129">
<ele>26.00</ele>
<time>2015-04-25T09:03:34Z</time>
</trkpt>
<trkpt lat="35.0296647" lon="32.4194481">
<ele>25.94</ele>
<time>2015-04-25T09:03:36Z</time>
</trkpt>
<trkpt lat="35.0296132" lon="32.4193893">
<ele>23.93</ele>
<time>2015-04-25T09:03:38Z</time>
</trkpt>
<trkpt lat="35.0295635" lon="32.4193308">
<ele>23.68</ele>
<time>2015-04-25T09:03:40Z</time>
</trkpt>
<trkpt lat="35.0295176" lon="32.4192732">
<ele>24.36</ele>
<time>2015-04-25T09:03:42Z</time>
</trkpt>
<trkpt lat="35.0294713" lon="32.4192254">
<ele>24.78</ele>
<time>2015-04-25T09:03:44Z</time>
</trkpt>
<trkpt lat="35.0294369" lon="32.4191769">
<ele>23.39</ele>
<time>2015-04-25T09:03:46Z</time>
</trkpt>
<trkpt lat="35.0294684" lon="32.4192177">
<ele>33.67</ele>
<time>2015-04-25T09:04:17Z</time>
</trkpt>
<trkpt lat="35.0295133" lon="32.4192090">
<ele>40.68</ele>
<time>2015-04-25T09:10:16Z</time>
</trkpt>
<trkpt lat="35.0294817" lon="32.4192489">
<ele>35.19</ele>
<time>2015-04-25T09:20:09Z</time>
</trkpt>
<trkpt lat="35.0294835" lon="32.4191901">
<ele>34.97</ele>
<time>2015-04-25T09:20:58Z</time>
</trkpt>
<trkpt lat="35.0294548" lon="32.4191404">
<ele>34.68</ele>
<time>2015-04-25T09:21:01Z</time>
</trkpt>
<trkpt lat="35.0294219" lon="32.4190829">
<ele>34.36</ele>
<time>2015-04-25T09:21:03Z</time>
</trkpt>
<trkpt lat="35.0293816" lon="32.4190046">
<ele>33.28</ele>
<time>2015-04-25T09:21:05Z</time>
</trkpt>
<trkpt lat="35.0293490" lon="32.4189219">
<ele>32.51</ele>
<time>2015-04-25T09:21:07Z</time>
</trkpt>
<trkpt lat="35.0293192" lon="32.4188390">
<ele>31.32</ele>
<time>2015-04-25T09:21:09Z</time>
</trkpt>
<trkpt lat="35.0293044" lon="32.4187671">
<ele>31.52</ele>
<time>2015-04-25T09:21:11Z</time>
</trkpt>
<trkpt lat="35.0293132" lon="32.4186941">
<ele>31.87</ele>
<time>2015-04-25T09:21:14Z</time>
</trkpt>
<trkpt lat="35.0292814" lon="32.4186463">
<ele>32.79</ele>
<time>2015-04-25T09:21:17Z</time>
</trkpt>
<trkpt lat="35.0292317" lon="32.4186501">
<ele>33.66</ele>
<time>2015-04-25T09:21:20Z</time>
</trkpt>
<trkpt lat="35.0291870" lon="32.4186348">
<ele>32.28</ele>
<time>2015-04-25T09:21:24Z</time>
</trkpt>
<trkpt lat="35.0291708" lon="32.4185823">
<ele>31.88</ele>
<time>2015-04-25T09:21:28Z</time>
</trkpt>
<trkpt lat="35.0291329" lon="32.4185353">
<ele>33.36</ele>
<time>2015-04-25T09:22:59Z</time>
</trkpt>
<trkpt lat="35.0291026" lon="32.4184934">
<ele>33.10</ele>
<time>2015-04-25T09:23:02Z</time>
</trkpt>
<trkpt lat="35.0290793" lon="32.4184394">
<ele>32.70</ele>
<time>2015-04-25T09:23:05Z</time>
</trkpt>
<trkpt lat="35.0290529" lon="32.4183832">
<ele>31.27</ele>
<time>2015-04-25T09:23:08Z</time>
</trkpt>
<trkpt lat="35.0290324" lon="32.4183240">
<ele>30.97</ele>
<time>2015-04-25T09:23:11Z</time>
</trkpt>
<trkpt lat="35.0290098" lon="32.4182586">
<ele>30.87</ele>
<time>2015-04-25T09:23:15Z</time>
</trkpt>
<trkpt lat="35.0289600" lon="32.4182022">
<ele>29.54</ele>
<time>2015-04-25T09:23:18Z</time>
</trkpt>
<trkpt lat="35.0289151" lon="32.4181509">
<ele>29.83</ele>
<time>2015-04-25T09:23:20Z</time>
</trkpt>
<trkpt lat="35.0288780" lon="32.4180897">
<ele>31.40</ele>
<time>2015-04-25T09:23:22Z</time>
</trkpt>
<trkpt lat="35.0288529" lon="32.4180302">
<ele>32.04</ele>
<time>2015-04-25T09:23:24Z</time>
</trkpt>
<trkpt lat="35.0288207" lon="32.4179758">
<ele>34.44</ele>
<time>2015-04-25T09:23:27Z</time>
</trkpt>
<trkpt lat="35.0287754" lon="32.4179854">
<ele>37.83</ele>
<time>2015-04-25T09:23:31Z</time>
</trkpt>
<trkpt lat="35.0287530" lon="32.4180368">
<ele>38.79</ele>
<time>2015-04-25T09:23:34Z</time>
</trkpt>
<trkpt lat="35.0287207" lon="32.4180806">
<ele>40.03</ele>
<time>2015-04-25T09:23:37Z</time>
</trkpt>
<trkpt lat="35.0286952" lon="32.4181314">
<ele>39.94</ele>
<time>2015-04-25T09:23:40Z</time>
</trkpt>
<trkpt lat="35.0286698" lon="32.4181874">
<ele>40.30</ele>
<time>2015-04-25T09:23:43Z</time>
</trkpt>
<trkpt lat="35.0286363" lon="32.4182393">
<ele>40.10</ele>
<time>2015-04-25T09:23:46Z</time>
</trkpt>
<trkpt lat="35.0285965" lon="32.4182848">
<ele>41.20</ele>
<time>2015-04-25T09:23:49Z</time>
</trkpt>
<trkpt lat="35.0285513" lon="32.4183258">
<ele>42.58</ele>
<time>2015-04-25T09:23:52Z</time>
</trkpt>
<trkpt lat="35.0285008" lon="32.4183629">
<ele>43.51</ele>
<time>2015-04-25T09:23:55Z</time>
</trkpt>
<trkpt lat="35.0284492" lon="32.4183983">
<ele>43.37</ele>
<time>2015-04-25T09:23:58Z</time>
</trkpt>
<trkpt lat="35.0284063" lon="32.4184281">
<ele>42.48</ele>
<time>2015-04-25T09:24:01Z</time>
</trkpt>
<trkpt lat="35.0283593" lon="32.4184459">
<ele>41.77</ele>
<time>2015-04-25T09:24:05Z</time>
</trkpt>
<trkpt lat="35.0283036" lon="32.4184699">
<ele>43.29</ele>
<time>2015-04-25T09:24:09Z</time>
</trkpt>
<trkpt lat="35.0282549" lon="32.4184959">
<ele>43.35</ele>
<time>2015-04-25T09:24:12Z</time>
</trkpt>
<trkpt lat="35.0281984" lon="32.4185093">
<ele>42.48</ele>
<time>2015-04-25T09:24:15Z</time>
</trkpt>
<trkpt lat="35.0281399" lon="32.4185192">
<ele>41.49</ele>
<time>2015-04-25T09:24:18Z</time>
</trkpt>
<trkpt lat="35.0280976" lon="32.4185468">
<ele>40.50</ele>
<time>2015-04-25T09:24:21Z</time>
</trkpt>
<trkpt lat="35.0280512" lon="32.4185325">
<ele>40.50</ele>
<time>2015-04-25T09:24:24Z</time>
</trkpt>
<trkpt lat="35.0280307" lon="32.4184804">
<ele>40.57</ele>
<time>2015-04-25T09:24:26Z</time>
</trkpt>
<trkpt lat="35.0280103" lon="32.4184081">
<ele>40.59</ele>
<time>2015-04-25T09:24:28Z</time>
</trkpt>
<trkpt lat="35.0279789" lon="32.4183355">
<ele>40.84</ele>
<time>2015-04-25T09:24:30Z</time>
</trkpt>
<trkpt lat="35.0279446" lon="32.4182726">
<ele>40.40</ele>
<time>2015-04-25T09:24:32Z</time>
</trkpt>
<trkpt lat="35.0279129" lon="32.4182214">
<ele>41.29</ele>
<time>2015-04-25T09:24:34Z</time>
</trkpt>
<trkpt lat="35.0278864" lon="32.4181710">
<ele>41.02</ele>
<time>2015-04-25T09:24:36Z</time>
</trkpt>
<trkpt lat="35.0278588" lon="32.4181251">
<ele>41.70</ele>
<time>2015-04-25T09:24:38Z</time>
</trkpt>
<trkpt lat="35.0278163" lon="32.4180640">
<ele>42.27</ele>
<time>2015-04-25T09:24:41Z</time>
</trkpt>
<trkpt lat="35.0277718" lon="32.4180142">
<ele>42.47</ele>
<time>2015-04-25T09:24:44Z</time>
</trkpt>
<trkpt lat="35.0277348" lon="32.4179678">
<ele>43.74</ele>
<time>2015-04-25T09:24:47Z</time>
</trkpt>
<trkpt lat="35.0277032" lon="32.4179185">
<ele>44.40</ele>
<time>2015-04-25T09:24:50Z</time>
</trkpt>
<trkpt lat="35.0276553" lon="32.4178744">
<ele>44.73</ele>
<time>2015-04-25T09:24:53Z</time>
</trkpt>
<trkpt lat="35.0276102" lon="32.4178215">
<ele>45.40</ele>
<time>2015-04-25T09:24:56Z</time>
</trkpt>
<trkpt lat="35.0275660" lon="32.4177726">
<ele>46.36</ele>
<time>2015-04-25T09:24:59Z</time>
</trkpt>
<trkpt lat="35.0275171" lon="32.4177285">
<ele>48.23</ele>
<time>2015-04-25T09:25:02Z</time>
</trkpt>
<trkpt lat="35.0274650" lon="32.4176841">
<ele>49.84</ele>
<time>2015-04-25T09:25:05Z</time>
</trkpt>
<trkpt lat="35.0274154" lon="32.4176418">
<ele>50.79</ele>
<time>2015-04-25T09:25:08Z</time>
</trkpt>
<trkpt lat="35.0273638" lon="32.4176009">
<ele>50.78</ele>
<time>2015-04-25T09:25:11Z</time>
</trkpt>
<trkpt lat="35.0273087" lon="32.4175654">
<ele>50.91</ele>
<time>2015-04-25T09:25:14Z</time>
</trkpt>
<trkpt lat="35.0272495" lon="32.4175405">
<ele>50.42</ele>
<time>2015-04-25T09:25:17Z</time>
</trkpt>
<trkpt lat="35.0271969" lon="32.4175108">
<ele>49.11</ele>
<time>2015-04-25T09:25:20Z</time>
</trkpt>
<trkpt lat="35.0271458" lon="32.4174869">
<ele>49.95</ele>
<time>2015-04-25T09:25:23Z</time>
</trkpt>
<trkpt lat="35.0270928" lon="32.4174611">
<ele>51.18</ele>
<time>2015-04-25T09:25:26Z</time>
</trkpt>
<trkpt lat="35.0270386" lon="32.4174377">
<ele>49.58</ele>
<time>2015-04-25T09:25:29Z</time>
</trkpt>
<trkpt lat="35.0269924" lon="32.4174115">
<ele>50.01</ele>
<time>2015-04-25T09:25:32Z</time>
</trkpt>
<trkpt lat="35.0269426" lon="32.4173854">
<ele>52.19</ele>
<time>2015-04-25T09:25:35Z</time>
</trkpt>
<trkpt lat="35.0268920" lon="32.4173753">
<ele>52.83</ele>
<time>2015-04-25T09:25:38Z</time>
</trkpt>
<trkpt lat="35.0268452" lon="32.4173530">
<ele>53.41</ele>
<time>2015-04-25T09:25:41Z</time>
</trkpt>
<trkpt lat="35.0267967" lon="32.4173314">
<ele>54.74</ele>
<time>2015-04-25T09:25:44Z</time>
</trkpt>
<trkpt lat="35.0267437" lon="32.4173121">
<ele>55.65</ele>
<time>2015-04-25T09:25:47Z</time>
</trkpt>
<trkpt lat="35.0267029" lon="32.4172788">
<ele>54.52</ele>
<time>2015-04-25T09:25:50Z</time>
</trkpt>
<trkpt lat="35.0266594" lon="32.4172494">
<ele>54.00</ele>
<time>2015-04-25T09:25:53Z</time>
</trkpt>
<trkpt lat="35.0266118" lon="32.4172057">
<ele>52.56</ele>
<time>2015-04-25T09:25:56Z</time>
</trkpt>
<trkpt lat="35.0265807" lon="32.4171469">
<ele>54.13</ele>
<time>2015-04-25T09:25:59Z</time>
</trkpt>
<trkpt lat="35.0265502" lon="32.4171004">
<ele>55.58</ele>
<time>2015-04-25T09:26:02Z</time>
</trkpt>
<trkpt lat="35.0265198" lon="32.4170464">
<ele>56.76</ele>
<time>2015-04-25T09:26:05Z</time>
</trkpt>
<trkpt lat="35.0264985" lon="32.4169868">
<ele>57.40</ele>
<time>2015-04-25T09:26:08Z</time>
</trkpt>
<trkpt lat="35.0264696" lon="32.4169374">
<ele>57.36</ele>
<time>2015-04-25T09:26:11Z</time>
</trkpt>
<trkpt lat="35.0264455" lon="32.4168774">
<ele>57.48</ele>
<time>2015-04-25T09:26:14Z</time>
</trkpt>
<trkpt lat="35.0264282" lon="32.4168157">
<ele>58.74</ele>
<time>2015-04-25T09:26:17Z</time>
</trkpt>
<trkpt lat="35.0264082" lon="32.4167655">
<ele>58.15</ele>
<time>2015-04-25T09:26:20Z</time>
</trkpt>
<trkpt lat="35.0263851" lon="32.4167130">
<ele>59.20</ele>
<time>2015-04-25T09:26:23Z</time>
</trkpt>
<trkpt lat="35.0263647" lon="32.4166530">
<ele>59.83</ele>
<time>2015-04-25T09:26:26Z</time>
</trkpt>
<trkpt lat="35.0263341" lon="32.4165958">
<ele>59.16</ele>
<time>2015-04-25T09:26:29Z</time>
</trkpt>
<trkpt lat="35.0262982" lon="32.4165391">
<ele>59.95</ele>
<time>2015-04-25T09:26:32Z</time>
</trkpt>
<trkpt lat="35.0262707" lon="32.4164734">
<ele>60.68</ele>
<time>2015-04-25T09:26:35Z</time>
</trkpt>
<trkpt lat="35.0262462" lon="32.4164055">
<ele>60.89</ele>
<time>2015-04-25T09:26:38Z</time>
</trkpt>
<trkpt lat="35.0262197" lon="32.4163344">
<ele>59.80</ele>
<time>2015-04-25T09:26:41Z</time>
</trkpt>
<trkpt lat="35.0261848" lon="32.4162609">
<ele>59.91</ele>
<time>2015-04-25T09:26:44Z</time>
</trkpt>
<trkpt lat="35.0261621" lon="32.4162086">
<ele>59.92</ele>
<time>2015-04-25T09:26:46Z</time>
</trkpt>
<trkpt lat="35.0261407" lon="32.4161501">
<ele>60.67</ele>
<time>2015-04-25T09:26:48Z</time>
</trkpt>
<trkpt lat="35.0261207" lon="32.4160834">
<ele>60.61</ele>
<time>2015-04-25T09:26:50Z</time>
</trkpt>
<trkpt lat="35.0260914" lon="32.4160079">
<ele>60.85</ele>
<time>2015-04-25T09:26:52Z</time>
</trkpt>
<trkpt lat="35.0260646" lon="32.4159353">
<ele>60.91</ele>
<time>2015-04-25T09:26:54Z</time>
</trkpt>
<trkpt lat="35.0260410" lon="32.4158627">
<ele>60.92</ele>
<time>2015-04-25T09:26:56Z</time>
</trkpt>
<trkpt lat="35.0260163" lon="32.4157909">
<ele>61.67</ele>
<time>2015-04-25T09:26:58Z</time>
</trkpt>
<trkpt lat="35.0259956" lon="32.4157194">
<ele>62.61</ele>
<time>2015-04-25T09:27:00Z</time>
</trkpt>
<trkpt lat="35.0259752" lon="32.4156485">
<ele>62.85</ele>
<time>2015-04-25T09:27:02Z</time>
</trkpt>
<trkpt lat="35.0259541" lon="32.4155753">
<ele>63.66</ele>
<time>2015-04-25T09:27:04Z</time>
</trkpt>
<trkpt lat="35.0259369" lon="32.4155034">
<ele>63.11</ele>
<time>2015-04-25T09:27:06Z</time>
</trkpt>
<trkpt lat="35.0259228" lon="32.4154302">
<ele>63.72</ele>
<time>2015-04-25T09:27:08Z</time>
</trkpt>
<trkpt lat="35.0259101" lon="32.4153620">
<ele>64.62</ele>
<time>2015-04-25T09:27:10Z</time>
</trkpt>
<trkpt lat="35.0258978" lon="32.4152931">
<ele>64.10</ele>
<time>2015-04-25T09:27:12Z</time>
</trkpt>
<trkpt lat="35.0258896" lon="32.4152285">
<ele>63.97</ele>
<time>2015-04-25T09:27:14Z</time>
</trkpt>
<trkpt lat="35.0258759" lon="32.4151625">
<ele>63.94</ele>
<time>2015-04-25T09:27:16Z</time>
</trkpt>
<trkpt lat="35.0258596" lon="32.4150957">
<ele>63.43</ele>
<time>2015-04-25T09:27:18Z</time>
</trkpt>
<trkpt lat="35.0258393" lon="32.4150300">
<ele>63.05</ele>
<time>2015-04-25T09:27:20Z</time>
</trkpt>
<trkpt lat="35.0258172" lon="32.4149647">
<ele>62.21</ele>
<time>2015-04-25T09:27:22Z</time>
</trkpt>
<trkpt lat="35.0257960" lon="32.4149025">
<ele>62.50</ele>
<time>2015-04-25T09:27:24Z</time>
</trkpt>
<trkpt lat="35.0257747" lon="32.4148454">
<ele>62.82</ele>
<time>2015-04-25T09:27:26Z</time>
</trkpt>
<trkpt lat="35.0257510" lon="32.4147702">
<ele>62.04</ele>
<time>2015-04-25T09:27:29Z</time>
</trkpt>
<trkpt lat="35.0257361" lon="32.4146959">
<ele>61.19</ele>
<time>2015-04-25T09:27:32Z</time>
</trkpt>
<trkpt lat="35.0257201" lon="32.4146180">
<ele>60.46</ele>
<time>2015-04-25T09:27:35Z</time>
</trkpt>
<trkpt lat="35.0256956" lon="32.4145661">
<ele>60.06</ele>
<time>2015-04-25T09:27:37Z</time>
</trkpt>
<trkpt lat="35.0256626" lon="32.4145167">
<ele>59.71</ele>
<time>2015-04-25T09:27:39Z</time>
</trkpt>
<trkpt lat="35.0256180" lon="32.4144584">
<ele>59.62</ele>
<time>2015-04-25T09:27:41Z</time>
</trkpt>
<trkpt lat="35.0255324" lon="32.4143602">
<ele>59.85</ele>
<time>2015-04-25T09:27:43Z</time>
</trkpt>
<trkpt lat="35.0254974" lon="32.4143244">
<ele>59.89</ele>
<time>2015-04-25T09:27:44Z</time>
</trkpt>
<trkpt lat="35.0254392" lon="32.4142483">
<ele>60.42</ele>
<time>2015-04-25T09:27:46Z</time>
</trkpt>
<trkpt lat="35.0253823" lon="32.4141763">
<ele>60.80</ele>
<time>2015-04-25T09:27:48Z</time>
</trkpt>
<trkpt lat="35.0253283" lon="32.4140914">
<ele>60.64</ele>
<time>2015-04-25T09:27:50Z</time>
</trkpt>
<trkpt lat="35.0252810" lon="32.4140134">
<ele>60.35</ele>
<time>2015-04-25T09:27:52Z</time>
</trkpt>
<trkpt lat="35.0252325" lon="32.4139417">
<ele>60.03</ele>
<time>2015-04-25T09:27:54Z</time>
</trkpt>
<trkpt lat="35.0251862" lon="32.4138720">
<ele>60.70</ele>
<time>2015-04-25T09:27:56Z</time>
</trkpt>
<trkpt lat="35.0251382" lon="32.4138072">
<ele>61.62</ele>
<time>2015-04-25T09:27:58Z</time>
</trkpt>
<trkpt lat="35.0250936" lon="32.4137425">
<ele>62.10</ele>
<time>2015-04-25T09:28:00Z</time>
</trkpt>
<trkpt lat="35.0250566" lon="32.4136699">
<ele>62.72</ele>
<time>2015-04-25T09:28:02Z</time>
</trkpt>
<trkpt lat="35.0250172" lon="32.4136019">
<ele>62.87</ele>
<time>2015-04-25T09:28:04Z</time>
</trkpt>
<trkpt lat="35.0249796" lon="32.4135373">
<ele>63.16</ele>
<time>2015-04-25T09:28:06Z</time>
</trkpt>
<trkpt lat="35.0249475" lon="32.4134714">
<ele>63.73</ele>
<time>2015-04-25T09:28:08Z</time>
</trkpt>
<trkpt lat="35.0249147" lon="32.4134096">
<ele>63.88</ele>
<time>2015-04-25T09:28:10Z</time>
</trkpt>
<trkpt lat="35.0248812" lon="32.4133522">
<ele>64.41</ele>
<time>2015-04-25T09:28:12Z</time>
</trkpt>
<trkpt lat="35.0248514" lon="32.4132926">
<ele>65.55</ele>
<time>2015-04-25T09:28:14Z</time>
</trkpt>
<trkpt lat="35.0248224" lon="32.4132360">
<ele>66.33</ele>
<time>2015-04-25T09:28:16Z</time>
</trkpt>
<trkpt lat="35.0247971" lon="32.4131826">
<ele>66.53</ele>
<time>2015-04-25T09:28:18Z</time>
</trkpt>
<trkpt lat="35.0247752" lon="32.4131299">
<ele>66.08</ele>
<time>2015-04-25T09:28:20Z</time>
</trkpt>
<trkpt lat="35.0247549" lon="32.4130783">
<ele>65.96</ele>
<time>2015-04-25T09:28:22Z</time>
</trkpt>
<trkpt lat="35.0247284" lon="32.4130286">
<ele>65.93</ele>
<time>2015-04-25T09:28:24Z</time>
</trkpt>
<trkpt lat="35.0247027" lon="32.4129762">
<ele>65.93</ele>
<time>2015-04-25T09:28:26Z</time>
</trkpt>
<trkpt lat="35.0246775" lon="32.4129251">
<ele>66.43</ele>
<time>2015-04-25T09:28:28Z</time>
</trkpt>
<trkpt lat="35.0246560" lon="32.4128722">
<ele>66.80</ele>
<time>2015-04-25T09:28:30Z</time>
</trkpt>
<trkpt lat="35.0246382" lon="32.4128193">
<ele>66.64</ele>
<time>2015-04-25T09:28:32Z</time>
</trkpt>
<trkpt lat="35.0246222" lon="32.4127654">
<ele>67.35</ele>
<time>2015-04-25T09:28:34Z</time>
</trkpt>
<trkpt lat="35.0245931" lon="32.4126958">
<ele>68.73</ele>
<time>2015-04-25T09:28:37Z</time>
</trkpt>
<trkpt lat="35.0245766" lon="32.4126178">
<ele>68.90</ele>
<time>2015-04-25T09:28:40Z</time>
</trkpt>
<trkpt lat="35.0245592" lon="32.4125412">
<ele>70.05</ele>
<time>2015-04-25T09:28:43Z</time>
</trkpt>
<trkpt lat="35.0245489" lon="32.4124866">
<ele>70.21</ele>
<time>2015-04-25T09:28:45Z</time>
</trkpt>
<trkpt lat="35.0245361" lon="32.4124338">
<ele>71.25</ele>
<time>2015-04-25T09:28:47Z</time>
</trkpt>
<trkpt lat="35.0245228" lon="32.4123561">
<ele>73.09</ele>
<time>2015-04-25T09:28:50Z</time>
</trkpt>
<trkpt lat="35.0245152" lon="32.4123018">
<ele>73.72</ele>
<time>2015-04-25T09:28:52Z</time>
</trkpt>
<trkpt lat="35.0245026" lon="32.4122491">
<ele>74.37</ele>
<time>2015-04-25T09:28:54Z</time>
</trkpt>
<trkpt lat="35.0244932" lon="32.4121946">
<ele>74.79</ele>
<time>2015-04-25T09:28:56Z</time>
</trkpt>
<trkpt lat="35.0244763" lon="32.4121212">
<ele>75.41</ele>
<time>2015-04-25T09:28:59Z</time>
</trkpt>
<trkpt lat="35.0244702" lon="32.4120467">
<ele>75.86</ele>
<time>2015-04-25T09:29:02Z</time>
</trkpt>
<trkpt lat="35.0244572" lon="32.4119859">
<ele>76.67</ele>
<time>2015-04-25T09:29:05Z</time>
</trkpt>
<trkpt lat="35.0244386" lon="32.4119269">
<ele>76.16</ele>
<time>2015-04-25T09:29:09Z</time>
</trkpt>
<trkpt lat="35.0244396" lon="32.4118546">
<ele>76.44</ele>
<time>2015-04-25T09:29:13Z</time>
</trkpt>
<trkpt lat="35.0244322" lon="32.4117847">
<ele>75.71</ele>
<time>2015-04-25T09:29:17Z</time>
</trkpt>
<trkpt lat="35.0244184" lon="32.4117320">
<ele>76.02</ele>
<time>2015-04-25T09:29:20Z</time>
</trkpt>
<trkpt lat="35.0243977" lon="32.4116680">
<ele>76.37</ele>
<time>2015-04-25T09:29:24Z</time>
</trkpt>
<trkpt lat="35.0243802" lon="32.4116149">
<ele>76.86</ele>
<time>2015-04-25T09:29:27Z</time>
</trkpt>
<trkpt lat="35.0243394" lon="32.4115481">
<ele>76.92</ele>
<time>2015-04-25T09:29:30Z</time>
</trkpt>
<trkpt lat="35.0243024" lon="32.4114737">
<ele>76.67</ele>
<time>2015-04-25T09:29:32Z</time>
</trkpt>
<trkpt lat="35.0242592" lon="32.4113891">
<ele>76.11</ele>
<time>2015-04-25T09:29:34Z</time>
</trkpt>
<trkpt lat="35.0242227" lon="32.4113144">
<ele>76.02</ele>
<time>2015-04-25T09:29:35Z</time>
</trkpt>
<trkpt lat="35.0241939" lon="32.4112594">
<ele>75.97</ele>
<time>2015-04-25T09:29:36Z</time>
</trkpt>
<trkpt lat="35.0241666" lon="32.4112089">
<ele>75.95</ele>
<time>2015-04-25T09:29:37Z</time>
</trkpt>
<trkpt lat="35.0241431" lon="32.4111522">
<ele>75.94</ele>
<time>2015-04-25T09:29:38Z</time>
</trkpt>
<trkpt lat="35.0241236" lon="32.4110934">
<ele>75.43</ele>
<time>2015-04-25T09:29:39Z</time>
</trkpt>
<trkpt lat="35.0240995" lon="32.4110403">
<ele>75.18</ele>
<time>2015-04-25T09:29:40Z</time>
</trkpt>
<trkpt lat="35.0240813" lon="32.4109791">
<ele>74.55</ele>
<time>2015-04-25T09:29:41Z</time>
</trkpt>
<trkpt lat="35.0240672" lon="32.4109196">
<ele>74.74</ele>
<time>2015-04-25T09:29:42Z</time>
</trkpt>
<trkpt lat="35.0240629" lon="32.4108570">
<ele>74.33</ele>
<time>2015-04-25T09:29:43Z</time>
</trkpt>
<trkpt lat="35.0240622" lon="32.4107930">
<ele>74.13</ele>
<time>2015-04-25T09:29:44Z</time>
</trkpt>
<trkpt lat="35.0240678" lon="32.4106797">
<ele>73.98</ele>
<time>2015-04-25T09:29:46Z</time>
</trkpt>
<trkpt lat="35.0240754" lon="32.4105690">
<ele>74.19</ele>
<time>2015-04-25T09:29:48Z</time>
</trkpt>
<trkpt lat="35.0240810" lon="32.4105093">
<ele>74.06</ele>
<time>2015-04-25T09:29:49Z</time>
</trkpt>
<trkpt lat="35.0240905" lon="32.4104520">
<ele>73.99</ele>
<time>2015-04-25T09:29:50Z</time>
</trkpt>
<trkpt lat="35.0241090" lon="32.4103453">
<ele>73.94</ele>
<time>2015-04-25T09:29:52Z</time>
</trkpt>
<trkpt lat="35.0241197" lon="32.4102352">
<ele>74.68</ele>
<time>2015-04-25T09:29:54Z</time>
</trkpt>
<trkpt lat="35.0241181" lon="32.4101371">
<ele>74.86</ele>
<time>2015-04-25T09:29:56Z</time>
</trkpt>
<trkpt lat="35.0241267" lon="32.4100381">
<ele>75.66</ele>
<time>2015-04-25T09:29:58Z</time>
</trkpt>
<trkpt lat="35.0241305" lon="32.4099447">
<ele>76.36</ele>
<time>2015-04-25T09:30:00Z</time>
</trkpt>
<trkpt lat="35.0241439" lon="32.4098547">
<ele>76.78</ele>
<time>2015-04-25T09:30:02Z</time>
</trkpt>
<trkpt lat="35.0241500" lon="32.4097669">
<ele>76.89</ele>
<time>2015-04-25T09:30:04Z</time>
</trkpt>
<trkpt lat="35.0241517" lon="32.4096827">
<ele>77.67</ele>
<time>2015-04-25T09:30:06Z</time>
</trkpt>
<trkpt lat="35.0241483" lon="32.4096013">
<ele>78.61</ele>
<time>2015-04-25T09:30:08Z</time>
</trkpt>
<trkpt lat="35.0241431" lon="32.4095246">
<ele>79.35</ele>
<time>2015-04-25T09:30:10Z</time>
</trkpt>
<trkpt lat="35.0241449" lon="32.4094472">
<ele>79.03</ele>
<time>2015-04-25T09:30:12Z</time>
</trkpt>
<trkpt lat="35.0241387" lon="32.4093739">
<ele>78.95</ele>
<time>2015-04-25T09:30:14Z</time>
</trkpt>
<trkpt lat="35.0241275" lon="32.4092963">
<ele>78.93</ele>
<time>2015-04-25T09:30:16Z</time>
</trkpt>
<trkpt lat="35.0241213" lon="32.4092284">
<ele>79.68</ele>
<time>2015-04-25T09:30:18Z</time>
</trkpt>
<trkpt lat="35.0241184" lon="32.4091618">
<ele>79.86</ele>
<time>2015-04-25T09:30:20Z</time>
</trkpt>
<trkpt lat="35.0241156" lon="32.4090938">
<ele>80.66</ele>
<time>2015-04-25T09:30:22Z</time>
</trkpt>
<trkpt lat="35.0241126" lon="32.4090276">
<ele>80.86</ele>
<time>2015-04-25T09:30:24Z</time>
</trkpt>
<trkpt lat="35.0241014" lon="32.4089621">
<ele>81.66</ele>
<time>2015-04-25T09:30:26Z</time>
</trkpt>
<trkpt lat="35.0240828" lon="32.4088996">
<ele>81.86</ele>
<time>2015-04-25T09:30:28Z</time>
</trkpt>
<trkpt lat="35.0240673" lon="32.4088447">
<ele>82.41</ele>
<time>2015-04-25T09:30:30Z</time>
</trkpt>
<trkpt lat="35.0240582" lon="32.4087863">
<ele>83.30</ele>
<time>2015-04-25T09:30:32Z</time>
</trkpt>
<trkpt lat="35.0240474" lon="32.4087068">
<ele>83.85</ele>
<time>2015-04-25T09:30:35Z</time>
</trkpt>
<trkpt lat="35.0240287" lon="32.4086512">
<ele>84.66</ele>
<time>2015-04-25T09:30:37Z</time>
</trkpt>
<trkpt lat="35.0240073" lon="32.4085963">
<ele>84.86</ele>
<time>2015-04-25T09:30:39Z</time>
</trkpt>
<trkpt lat="35.0239888" lon="32.4085391">
<ele>84.91</ele>
<time>2015-04-25T09:30:41Z</time>
</trkpt>
<trkpt lat="35.0239640" lon="32.4084840">
<ele>84.92</ele>
<time>2015-04-25T09:30:43Z</time>
</trkpt>
<trkpt lat="35.0239349" lon="32.4084268">
<ele>84.92</ele>
<time>2015-04-25T09:30:45Z</time>
</trkpt>
<trkpt lat="35.0239064" lon="32.4083673">
<ele>84.92</ele>
<time>2015-04-25T09:30:47Z</time>
</trkpt>
<trkpt lat="35.0238745" lon="32.4083070">
<ele>85.67</ele>
<time>2015-04-25T09:30:49Z</time>
</trkpt>
<trkpt lat="35.0238429" lon="32.4082446">
<ele>85.86</ele>
<time>2015-04-25T09:30:51Z</time>
</trkpt>
<trkpt lat="35.0238023" lon="32.4081754">
<ele>86.66</ele>
<time>2015-04-25T09:30:53Z</time>
</trkpt>
<trkpt lat="35.0237603" lon="32.4081048">
<ele>86.11</ele>
<time>2015-04-25T09:30:55Z</time>
</trkpt>
<trkpt lat="35.0237238" lon="32.4080357">
<ele>85.97</ele>
<time>2015-04-25T09:30:57Z</time>
</trkpt>
<trkpt lat="35.0237045" lon="32.4079761">
<ele>84.11</ele>
<time>2015-04-25T09:32:04Z</time>
</trkpt>
<trkpt lat="35.0236822" lon="32.4079154">
<ele>84.70</ele>
<time>2015-04-25T09:32:07Z</time>
</trkpt>
<trkpt lat="35.0236523" lon="32.4078580">
<ele>84.40</ele>
<time>2015-04-25T09:32:10Z</time>
</trkpt>
<trkpt lat="35.0236230" lon="32.4078037">
<ele>83.98</ele>
<time>2015-04-25T09:32:13Z</time>
</trkpt>
<trkpt lat="35.0235976" lon="32.4077558">
<ele>84.69</ele>
<time>2015-04-25T09:32:15Z</time>
</trkpt>
<trkpt lat="35.0235631" lon="32.4076910">
<ele>84.87</ele>
<time>2015-04-25T09:32:17Z</time>
</trkpt>
<trkpt lat="35.0235238" lon="32.4076177">
<ele>84.91</ele>
<time>2015-04-25T09:32:19Z</time>
</trkpt>
<trkpt lat="35.0234801" lon="32.4075379">
<ele>84.92</ele>
<time>2015-04-25T09:32:21Z</time>
</trkpt>
<trkpt lat="35.0234403" lon="32.4074609">
<ele>84.17</ele>
<time>2015-04-25T09:32:23Z</time>
</trkpt>
<trkpt lat="35.0234047" lon="32.4073818">
<ele>84.24</ele>
<time>2015-04-25T09:32:25Z</time>
</trkpt>
<trkpt lat="35.0233696" lon="32.4073125">
<ele>84.75</ele>
<time>2015-04-25T09:32:27Z</time>
</trkpt>
<trkpt lat="35.0233335" lon="32.4072360">
<ele>85.63</ele>
<time>2015-04-25T09:32:29Z</time>
</trkpt>
<trkpt lat="35.0233009" lon="32.4071554">
<ele>86.35</ele>
<time>2015-04-25T09:32:31Z</time>
</trkpt>
<trkpt lat="35.0232658" lon="32.4070731">
<ele>86.78</ele>
<time>2015-04-25T09:32:33Z</time>
</trkpt>
<trkpt lat="35.0232322" lon="32.4069902">
<ele>86.89</ele>
<time>2015-04-25T09:32:35Z</time>
</trkpt>
<trkpt lat="35.0231972" lon="32.4069004">
<ele>86.92</ele>
<time>2015-04-25T09:32:37Z</time>
</trkpt>
<trkpt lat="35.0231658" lon="32.4068142">
<ele>86.17</ele>
<time>2015-04-25T09:32:39Z</time>
</trkpt>
<trkpt lat="35.0231311" lon="32.4067252">
<ele>86.74</ele>
<time>2015-04-25T09:32:41Z</time>
</trkpt>
<trkpt lat="35.0231015" lon="32.4066351">
<ele>86.38</ele>
<time>2015-04-25T09:32:43Z</time>
</trkpt>
<trkpt lat="35.0230686" lon="32.4065408">
<ele>86.04</ele>
<time>2015-04-25T09:32:45Z</time>
</trkpt>
<trkpt lat="35.0230379" lon="32.4064483">
<ele>85.95</ele>
<time>2015-04-25T09:32:47Z</time>
</trkpt>
<trkpt lat="35.0230084" lon="32.4063528">
<ele>85.43</ele>
<time>2015-04-25T09:32:49Z</time>
</trkpt>
<trkpt lat="35.0229812" lon="32.4062210">
<ele>84.30</ele>
<time>2015-04-25T09:32:51Z</time>
</trkpt>
<trkpt lat="35.0229624" lon="32.4061614">
<ele>83.61</ele>
<time>2015-04-25T09:32:52Z</time>
</trkpt>
<trkpt lat="35.0229475" lon="32.4061068">
<ele>83.27</ele>
<time>2015-04-25T09:32:53Z</time>
</trkpt>
<trkpt lat="35.0229319" lon="32.4060494">
<ele>83.10</ele>
<time>2015-04-25T09:32:54Z</time>
</trkpt>
<trkpt lat="35.0229120" lon="32.4059942">
<ele>82.51</ele>
<time>2015-04-25T09:32:55Z</time>
</trkpt>
<trkpt lat="35.0228929" lon="32.4059395">
<ele>82.22</ele>
<time>2015-04-25T09:32:56Z</time>
</trkpt>
<trkpt lat="35.0228828" lon="32.4058842">
<ele>82.07</ele>
<time>2015-04-25T09:32:57Z</time>
</trkpt>
<trkpt lat="35.0228697" lon="32.4058270">
<ele>82.00</ele>
<time>2015-04-25T09:32:58Z</time>
</trkpt>
<trkpt lat="35.0228464" lon="32.4057295">
<ele>82.69</ele>
<time>2015-04-25T09:33:00Z</time>
</trkpt>
<trkpt lat="35.0228362" lon="32.4056735">
<ele>82.81</ele>
<time>2015-04-25T09:33:01Z</time>
</trkpt>
<trkpt lat="35.0228225" lon="32.4055779">
<ele>83.40</ele>
<time>2015-04-25T09:33:03Z</time>
</trkpt>
<trkpt lat="35.0227964" lon="32.4054804">
<ele>84.29</ele>
<time>2015-04-25T09:33:05Z</time>
</trkpt>
<trkpt lat="35.0227700" lon="32.4053871">
<ele>85.52</ele>
<time>2015-04-25T09:33:07Z</time>
</trkpt>
<trkpt lat="35.0227609" lon="32.4053292">
<ele>85.72</ele>
<time>2015-04-25T09:33:08Z</time>
</trkpt>
<trkpt lat="35.0227396" lon="32.4052293">
<ele>85.87</ele>
<time>2015-04-25T09:33:10Z</time>
</trkpt>
<trkpt lat="35.0227255" lon="32.4051763">
<ele>86.40</ele>
<time>2015-04-25T09:33:11Z</time>
</trkpt>
<trkpt lat="35.0227026" lon="32.4050718">
<ele>85.54</ele>
<time>2015-04-25T09:33:13Z</time>
</trkpt>
<trkpt lat="35.0226775" lon="32.4049745">
<ele>85.58</ele>
<time>2015-04-25T09:33:15Z</time>
</trkpt>
<trkpt lat="35.0226606" lon="32.4049219">
<ele>85.25</ele>
<time>2015-04-25T09:33:16Z</time>
</trkpt>
<trkpt lat="35.0226150" lon="32.4048260">
<ele>86.51</ele>
<time>2015-04-25T09:33:18Z</time>
</trkpt>
<trkpt lat="35.0225811" lon="32.4047240">
<ele>86.57</ele>
<time>2015-04-25T09:33:20Z</time>
</trkpt>
<trkpt lat="35.0225678" lon="32.4046693">
<ele>86.75</ele>
<time>2015-04-25T09:33:21Z</time>
</trkpt>
<trkpt lat="35.0225496" lon="32.4046186">
<ele>86.34</ele>
<time>2015-04-25T09:33:22Z</time>
</trkpt>
<trkpt lat="35.0225154" lon="32.4045170">
<ele>86.03</ele>
<time>2015-04-25T09:33:24Z</time>
</trkpt>
<trkpt lat="35.0224728" lon="32.4044133">
<ele>85.95</ele>
<time>2015-04-25T09:33:26Z</time>
</trkpt>
<trkpt lat="35.0224423" lon="32.4043200">
<ele>85.68</ele>
<time>2015-04-25T09:33:28Z</time>
</trkpt>
<trkpt lat="35.0224106" lon="32.4042062">
<ele>86.61</ele>
<time>2015-04-25T09:33:30Z</time>
</trkpt>
<trkpt lat="35.0223795" lon="32.4041060">
<ele>86.85</ele>
<time>2015-04-25T09:33:32Z</time>
</trkpt>
<trkpt lat="35.0223439" lon="32.4040161">
<ele>87.41</ele>
<time>2015-04-25T09:33:34Z</time>
</trkpt>
<trkpt lat="35.0223151" lon="32.4039237">
<ele>87.80</ele>
<time>2015-04-25T09:33:36Z</time>
</trkpt>
<trkpt lat="35.0222874" lon="32.4038282">
<ele>88.64</ele>
<time>2015-04-25T09:33:38Z</time>
</trkpt>
<trkpt lat="35.0222555" lon="32.4037289">
<ele>88.85</ele>
<time>2015-04-25T09:33:40Z</time>
</trkpt>
<trkpt lat="35.0222338" lon="32.4036719">
<ele>88.89</ele>
<time>2015-04-25T09:33:41Z</time>
</trkpt>
<trkpt lat="35.0222033" lon="32.4035615">
<ele>88.67</ele>
<time>2015-04-25T09:33:43Z</time>
</trkpt>
<trkpt lat="35.0221842" lon="32.4035017">
<ele>88.80</ele>
<time>2015-04-25T09:33:44Z</time>
</trkpt>
<trkpt lat="35.0221655" lon="32.4034507">
<ele>89.36</ele>
<time>2015-04-25T09:33:45Z</time>
</trkpt>
<trkpt lat="35.0221467" lon="32.4033823">
<ele>90.14</ele>
<time>2015-04-25T09:33:46Z</time>
</trkpt>
<trkpt lat="35.0221155" lon="32.4032797">
<ele>88.98</ele>
<time>2015-04-25T09:33:48Z</time>
</trkpt>
<trkpt lat="35.0220992" lon="32.4032245">
<ele>88.95</ele>
<time>2015-04-25T09:33:49Z</time>
</trkpt>
<trkpt lat="35.0220836" lon="32.4031578">
<ele>88.94</ele>
<time>2015-04-25T09:33:50Z</time>
</trkpt>
<trkpt lat="35.0220519" lon="32.4030605">
<ele>87.93</ele>
<time>2015-04-25T09:33:52Z</time>
</trkpt>
<trkpt lat="35.0220337" lon="32.4030095">
<ele>87.93</ele>
<time>2015-04-25T09:33:53Z</time>
</trkpt>
<trkpt lat="35.0219931" lon="32.4029093">
<ele>88.18</ele>
<time>2015-04-25T09:33:55Z</time>
</trkpt>
<trkpt lat="35.0219729" lon="32.4028541">
<ele>88.05</ele>
<time>2015-04-25T09:33:56Z</time>
</trkpt>
<trkpt lat="35.0219560" lon="32.4028002">
<ele>87.99</ele>
<time>2015-04-25T09:33:57Z</time>
</trkpt>
<trkpt lat="35.0219229" lon="32.4026983">
<ele>88.19</ele>
<time>2015-04-25T09:33:59Z</time>
</trkpt>
<trkpt lat="35.0218934" lon="32.4025936">
<ele>87.99</ele>
<time>2015-04-25T09:34:01Z</time>
</trkpt>
<trkpt lat="35.0218466" lon="32.4025083">
<ele>89.44</ele>
<time>2015-04-25T09:34:03Z</time>
</trkpt>
<trkpt lat="35.0218233" lon="32.4024266">
<ele>90.05</ele>
<time>2015-04-25T09:34:05Z</time>
</trkpt>
<trkpt lat="35.0218100" lon="32.4023740">
<ele>89.99</ele>
<time>2015-04-25T09:34:06Z</time>
</trkpt>
<trkpt lat="35.0217948" lon="32.4023188">
<ele>90.46</ele>
<time>2015-04-25T09:34:07Z</time>
</trkpt>
<trkpt lat="35.0217725" lon="32.4022674">
<ele>90.19</ele>
<time>2015-04-25T09:34:08Z</time>
</trkpt>
<trkpt lat="35.0217527" lon="32.4022109">
<ele>90.56</ele>
<time>2015-04-25T09:34:09Z</time>
</trkpt>
<trkpt lat="35.0217293" lon="32.4021561">
<ele>90.74</ele>
<time>2015-04-25T09:34:10Z</time>
</trkpt>
<trkpt lat="35.0216996" lon="32.4020499">
<ele>91.88</ele>
<time>2015-04-25T09:34:12Z</time>
</trkpt>
<trkpt lat="35.0216662" lon="32.4019545">
<ele>92.91</ele>
<time>2015-04-25T09:34:14Z</time>
</trkpt>
<trkpt lat="35.0216579" lon="32.4018969">
<ele>92.42</ele>
<time>2015-04-25T09:34:15Z</time>
</trkpt>
<trkpt lat="35.0216405" lon="32.4017976">
<ele>92.05</ele>
<time>2015-04-25T09:34:17Z</time>
</trkpt>
<trkpt lat="35.0216137" lon="32.4016938">
<ele>91.46</ele>
<time>2015-04-25T09:34:19Z</time>
</trkpt>
<trkpt lat="35.0215990" lon="32.4016399">
<ele>91.69</ele>
<time>2015-04-25T09:34:20Z</time>
</trkpt>
<trkpt lat="35.0215820" lon="32.4015862">
<ele>91.31</ele>
<time>2015-04-25T09:34:21Z</time>
</trkpt>
<trkpt lat="35.0215497" lon="32.4014862">
<ele>91.77</ele>
<time>2015-04-25T09:34:23Z</time>
</trkpt>
<trkpt lat="35.0215339" lon="32.4014287">
<ele>91.85</ele>
<time>2015-04-25T09:34:24Z</time>
</trkpt>
<trkpt lat="35.0214973" lon="32.4013301">
<ele>91.91</ele>
<time>2015-04-25T09:34:26Z</time>
</trkpt>
<trkpt lat="35.0214574" lon="32.4012297">
<ele>92.42</ele>
<time>2015-04-25T09:34:28Z</time>
</trkpt>
<trkpt lat="35.0214200" lon="32.4011439">
<ele>92.05</ele>
<time>2015-04-25T09:34:30Z</time>
</trkpt>
<trkpt lat="35.0213821" lon="32.4010605">
<ele>93.21</ele>
<time>2015-04-25T09:34:32Z</time>
</trkpt>
<trkpt lat="35.0213566" lon="32.4010056">
<ele>93.57</ele>
<time>2015-04-25T09:34:33Z</time>
</trkpt>
<trkpt lat="35.0213250" lon="32.4009074">
<ele>93.84</ele>
<time>2015-04-25T09:34:35Z</time>
</trkpt>
<trkpt lat="35.0212860" lon="32.4008258">
<ele>94.40</ele>
<time>2015-04-25T09:34:37Z</time>
</trkpt>
<trkpt lat="35.0212568" lon="32.4007581">
<ele>94.79</ele>
<time>2015-04-25T09:34:39Z</time>
</trkpt>
<trkpt lat="35.0212342" lon="32.4007058">
<ele>94.39</ele>
<time>2015-04-25T09:34:41Z</time>
</trkpt>
<trkpt lat="35.0212200" lon="32.4006520">
<ele>93.48</ele>
<time>2015-04-25T09:34:44Z</time>
</trkpt>
<trkpt lat="35.0212500" lon="32.4006053">
<ele>93.08</ele>
<time>2015-04-25T09:34:48Z</time>
</trkpt>
<trkpt lat="35.0212124" lon="32.4005641">
<ele>89.92</ele>
<time>2015-04-25T09:36:45Z</time>
</trkpt>
<trkpt lat="35.0211738" lon="32.4005175">
<ele>90.42</ele>
<time>2015-04-25T09:36:47Z</time>
</trkpt>
<trkpt lat="35.0211366" lon="32.4004707">
<ele>90.30</ele>
<time>2015-04-25T09:36:49Z</time>
</trkpt>
<trkpt lat="35.0210936" lon="32.4004285">
<ele>90.77</ele>
<time>2015-04-25T09:36:51Z</time>
</trkpt>
<trkpt lat="35.0210361" lon="32.4003882">
<ele>90.89</ele>
<time>2015-04-25T09:36:53Z</time>
</trkpt>
<trkpt lat="35.0209320" lon="32.4003236">
<ele>91.17</ele>
<time>2015-04-25T09:36:55Z</time>
</trkpt>
<trkpt lat="35.0208851" lon="32.4002924">
<ele>91.05</ele>
<time>2015-04-25T09:36:56Z</time>
</trkpt>
<trkpt lat="35.0208421" lon="32.4002666">
<ele>91.49</ele>
<time>2015-04-25T09:36:57Z</time>
</trkpt>
<trkpt lat="35.0207968" lon="32.4002370">
<ele>91.21</ele>
<time>2015-04-25T09:36:58Z</time>
</trkpt>
<trkpt lat="35.0207179" lon="32.4001773">
<ele>90.50</ele>
<time>2015-04-25T09:37:00Z</time>
</trkpt>
<trkpt lat="35.0206767" lon="32.4001427">
<ele>90.71</ele>
<time>2015-04-25T09:37:01Z</time>
</trkpt>
<trkpt lat="35.0206427" lon="32.4001051">
<ele>90.32</ele>
<time>2015-04-25T09:37:02Z</time>
</trkpt>
<trkpt lat="35.0205892" lon="32.4000765">
<ele>90.12</ele>
<time>2015-04-25T09:37:03Z</time>
</trkpt>
<trkpt lat="35.0205329" lon="32.4000406">
<ele>90.02</ele>
<time>2015-04-25T09:37:04Z</time>
</trkpt>
<trkpt lat="35.0204798" lon="32.4000105">
<ele>89.97</ele>
<time>2015-04-25T09:37:05Z</time>
</trkpt>
<trkpt lat="35.0204186" lon="32.3999793">
<ele>89.45</ele>
<time>2015-04-25T09:37:06Z</time>
</trkpt>
<trkpt lat="35.0203610" lon="32.3999454">
<ele>89.19</ele>
<time>2015-04-25T09:37:07Z</time>
</trkpt>
<trkpt lat="35.0202921" lon="32.3999029">
<ele>89.06</ele>
<time>2015-04-25T09:37:08Z</time>
</trkpt>
<trkpt lat="35.0202187" lon="32.3998778">
<ele>88.99</ele>
<time>2015-04-25T09:37:09Z</time>
</trkpt>
<trkpt lat="35.0201472" lon="32.3998586">
<ele>88.46</ele>
<time>2015-04-25T09:37:10Z</time>
</trkpt>
<trkpt lat="35.0200610" lon="32.3998446">
<ele>88.19</ele>
<time>2015-04-25T09:37:11Z</time>
</trkpt>
<trkpt lat="35.0199682" lon="32.3998464">
<ele>88.06</ele>
<time>2015-04-25T09:37:12Z</time>
</trkpt>
<trkpt lat="35.0198723" lon="32.3998536">
<ele>87.49</ele>
<time>2015-04-25T09:37:13Z</time>
</trkpt>
<trkpt lat="35.0197714" lon="32.3998545">
<ele>87.21</ele>
<time>2015-04-25T09:37:14Z</time>
</trkpt>
<trkpt lat="35.0196791" lon="32.3998518">
<ele>86.07</ele>
<time>2015-04-25T09:37:15Z</time>
</trkpt>
<trkpt lat="35.0195658" lon="32.3998364">
<ele>84.50</ele>
<time>2015-04-25T09:37:16Z</time>
</trkpt>
<trkpt lat="35.0194634" lon="32.3997994">
<ele>83.71</ele>
<time>2015-04-25T09:37:17Z</time>
</trkpt>
<trkpt lat="35.0193611" lon="32.3997451">
<ele>82.82</ele>
<time>2015-04-25T09:37:18Z</time>
</trkpt>
<trkpt lat="35.0192742" lon="32.3996740">
<ele>82.37</ele>
<time>2015-04-25T09:37:19Z</time>
</trkpt>
<trkpt lat="35.0191973" lon="32.3996028">
<ele>81.65</ele>
<time>2015-04-25T09:37:20Z</time>
</trkpt>
<trkpt lat="35.0191206" lon="32.3995270">
<ele>81.29</ele>
<time>2015-04-25T09:37:21Z</time>
</trkpt>
<trkpt lat="35.0190453" lon="32.3994501">
<ele>80.61</ele>
<time>2015-04-25T09:37:22Z</time>
</trkpt>
<trkpt lat="35.0189704" lon="32.3993748">
<ele>80.27</ele>
<time>2015-04-25T09:37:23Z</time>
</trkpt>
<trkpt lat="35.0188993" lon="32.3993004">
<ele>80.10</ele>
<time>2015-04-25T09:37:24Z</time>
</trkpt>
<trkpt lat="35.0188328" lon="32.3992219">
<ele>79.51</ele>
<time>2015-04-25T09:37:25Z</time>
</trkpt>
<trkpt lat="35.0187858" lon="32.3991372">
<ele>79.22</ele>
<time>2015-04-25T09:37:26Z</time>
</trkpt>
<trkpt lat="35.0187470" lon="32.3990383">
<ele>79.07</ele>
<time>2015-04-25T09:37:27Z</time>
</trkpt>
<trkpt lat="35.0187320" lon="32.3989314">
<ele>78.50</ele>
<time>2015-04-25T09:37:28Z</time>
</trkpt>
<trkpt lat="35.0187357" lon="32.3988210">
<ele>77.71</ele>
<time>2015-04-25T09:37:29Z</time>
</trkpt>
<trkpt lat="35.0187309" lon="32.3987402">
<ele>77.82</ele>
<time>2015-04-25T09:37:30Z</time>
</trkpt>
<trkpt lat="35.0187314" lon="32.3986613">
<ele>77.37</ele>
<time>2015-04-25T09:37:31Z</time>
</trkpt>
<trkpt lat="35.0187384" lon="32.3985578">
<ele>77.15</ele>
<time>2015-04-25T09:37:32Z</time>
</trkpt>
<trkpt lat="35.0187484" lon="32.3984757">
<ele>77.54</ele>
<time>2015-04-25T09:37:33Z</time>
</trkpt>
<trkpt lat="35.0187704" lon="32.3984154">
<ele>77.73</ele>
<time>2015-04-25T09:37:34Z</time>
</trkpt>
<trkpt lat="35.0188018" lon="32.3983629">
<ele>78.33</ele>
<time>2015-04-25T09:37:35Z</time>
</trkpt>
<trkpt lat="35.0188748" lon="32.3983084">
<ele>80.78</ele>
<time>2015-04-25T09:37:37Z</time>
</trkpt>
<trkpt lat="35.0189205" lon="32.3982736">
<ele>83.64</ele>
<time>2015-04-25T09:37:39Z</time>
</trkpt>
<trkpt lat="35.0189646" lon="32.3982541">
<ele>84.85</ele>
<time>2015-04-25T09:37:41Z</time>
</trkpt>
<trkpt lat="35.0190164" lon="32.3982477">
<ele>85.67</ele>
<time>2015-04-25T09:37:44Z</time>
</trkpt>
<trkpt lat="35.0190690" lon="32.3982321">
<ele>86.39</ele>
<time>2015-04-25T09:37:47Z</time>
</trkpt>
<trkpt lat="35.0191345" lon="32.3982269">
<ele>87.61</ele>
<time>2015-04-25T09:37:50Z</time>
</trkpt>
<trkpt lat="35.0191989" lon="32.3982134">
<ele>87.51</ele>
<time>2015-04-25T09:37:53Z</time>
</trkpt>
<trkpt lat="35.0192653" lon="32.3981903">
<ele>89.62</ele>
<time>2015-04-25T09:37:56Z</time>
</trkpt>
<trkpt lat="35.0193081" lon="32.3981655">
<ele>89.85</ele>
<time>2015-04-25T09:37:58Z</time>
</trkpt>
<trkpt lat="35.0193496" lon="32.3981356">
<ele>91.16</ele>
<time>2015-04-25T09:38:00Z</time>
</trkpt>
<trkpt lat="35.0193916" lon="32.3981083">
<ele>91.23</ele>
<time>2015-04-25T09:38:02Z</time>
</trkpt>
<trkpt lat="35.0194346" lon="32.3980752">
<ele>91.75</ele>
<time>2015-04-25T09:38:04Z</time>
</trkpt>
<trkpt lat="35.0194779" lon="32.3980409">
<ele>91.88</ele>
<time>2015-04-25T09:38:06Z</time>
</trkpt>
<trkpt lat="35.0195219" lon="32.3980065">
<ele>91.91</ele>
<time>2015-04-25T09:38:08Z</time>
</trkpt>
<trkpt lat="35.0195685" lon="32.3979724">
<ele>91.92</ele>
<time>2015-04-25T09:38:10Z</time>
</trkpt>
<trkpt lat="35.0196108" lon="32.3979354">
<ele>91.92</ele>
<time>2015-04-25T09:38:12Z</time>
</trkpt>
<trkpt lat="35.0196505" lon="32.3978999">
<ele>91.17</ele>
<time>2015-04-25T09:38:14Z</time>
</trkpt>
<trkpt lat="35.0196887" lon="32.3978624">
<ele>91.74</ele>
<time>2015-04-25T09:38:16Z</time>
</trkpt>
<trkpt lat="35.0197257" lon="32.3978301">
<ele>91.88</ele>
<time>2015-04-25T09:38:18Z</time>
</trkpt>
<trkpt lat="35.0197857" lon="32.3977941">
<ele>92.67</ele>
<time>2015-04-25T09:38:21Z</time>
</trkpt>
<trkpt lat="35.0198492" lon="32.3977764">
<ele>93.02</ele>
<time>2015-04-25T09:38:24Z</time>
</trkpt>
<trkpt lat="35.0199004" lon="32.3977503">
<ele>92.56</ele>
<time>2015-04-25T09:38:27Z</time>
</trkpt>
<trkpt lat="35.0199582" lon="32.3977427">
<ele>92.00</ele>
<time>2015-04-25T09:38:30Z</time>
</trkpt>
<trkpt lat="35.0200218" lon="32.3977423">
<ele>92.43</ele>
<time>2015-04-25T09:38:33Z</time>
</trkpt>
<trkpt lat="35.0200814" lon="32.3977565">
<ele>94.24</ele>
<time>2015-04-25T09:38:36Z</time>
</trkpt>
<trkpt lat="35.0201419" lon="32.3977743">
<ele>95.46</ele>
<time>2015-04-25T09:38:39Z</time>
</trkpt>
<trkpt lat="35.0202004" lon="32.3977956">
<ele>94.49</ele>
<time>2015-04-25T09:38:42Z</time>
</trkpt>
<trkpt lat="35.0202629" lon="32.3978183">
<ele>94.00</ele>
<time>2015-04-25T09:38:45Z</time>
</trkpt>
<trkpt lat="35.0203270" lon="32.3978415">
<ele>95.31</ele>
<time>2015-04-25T09:38:48Z</time>
</trkpt>
<trkpt lat="35.0203870" lon="32.3978463">
<ele>94.60</ele>
<time>2015-04-25T09:38:51Z</time>
</trkpt>
<trkpt lat="35.0204411" lon="32.3978227">
<ele>94.76</ele>
<time>2015-04-25T09:38:54Z</time>
</trkpt>
<trkpt lat="35.0204952" lon="32.3977905">
<ele>95.53</ele>
<time>2015-04-25T09:38:57Z</time>
</trkpt>
<trkpt lat="35.0205445" lon="32.3977480">
<ele>95.00</ele>
<time>2015-04-25T09:39:00Z</time>
</trkpt>
<trkpt lat="35.0205844" lon="32.3976879">
<ele>95.06</ele>
<time>2015-04-25T09:39:03Z</time>
</trkpt>
<trkpt lat="35.0206159" lon="32.3976179">
<ele>94.44</ele>
<time>2015-04-25T09:39:06Z</time>
</trkpt>
<trkpt lat="35.0206285" lon="32.3975649">
<ele>94.55</ele>
<time>2015-04-25T09:39:08Z</time>
</trkpt>
<trkpt lat="35.0206328" lon="32.3974869">
<ele>96.25</ele>
<time>2015-04-25T09:39:11Z</time>
</trkpt>
<trkpt lat="35.0206212" lon="32.3974109">
<ele>96.84</ele>
<time>2015-04-25T09:39:14Z</time>
</trkpt>
<trkpt lat="35.0205984" lon="32.3973383">
<ele>96.91</ele>
<time>2015-04-25T09:39:17Z</time>
</trkpt>
<trkpt lat="35.0205549" lon="32.3972839">
<ele>98.30</ele>
<time>2015-04-25T09:39:20Z</time>
</trkpt>
<trkpt lat="35.0204990" lon="32.3972519">
<ele>99.72</ele>
<time>2015-04-25T09:39:23Z</time>
</trkpt>
<trkpt lat="35.0204431" lon="32.3972263">
<ele>100.15</ele>
<time>2015-04-25T09:39:26Z</time>
</trkpt>
<trkpt lat="35.0203919" lon="32.3971993">
<ele>99.95</ele>
<time>2015-04-25T09:39:29Z</time>
</trkpt>
<trkpt lat="35.0203552" lon="32.3971612">
<ele>99.93</ele>
<time>2015-04-25T09:39:32Z</time>
</trkpt>
<trkpt lat="35.0203103" lon="32.3971453">
<ele>99.93</ele>
<time>2015-04-25T09:39:35Z</time>
</trkpt>
<trkpt lat="35.0202606" lon="32.3971279">
<ele>100.43</ele>
<time>2015-04-25T09:39:38Z</time>
</trkpt>
<trkpt lat="35.0202093" lon="32.3971049">
<ele>100.61</ele>
<time>2015-04-25T09:39:41Z</time>
</trkpt>
<trkpt lat="35.0201550" lon="32.3970793">
<ele>101.64</ele>
<time>2015-04-25T09:39:44Z</time>
</trkpt>
<trkpt lat="35.0201010" lon="32.3970565">
<ele>102.14</ele>
<time>2015-04-25T09:39:47Z</time>
</trkpt>
<trkpt lat="35.0200407" lon="32.3970501">
<ele>101.95</ele>
<time>2015-04-25T09:39:50Z</time>
</trkpt>
<trkpt lat="35.0199816" lon="32.3970454">
<ele>103.30</ele>
<time>2015-04-25T09:39:53Z</time>
</trkpt>
<trkpt lat="35.0199333" lon="32.3970433">
<ele>103.22</ele>
<time>2015-04-25T09:39:56Z</time>
</trkpt>
<trkpt lat="35.0198824" lon="32.3970502">
<ele>103.96</ele>
<time>2015-04-25T09:39:59Z</time>
</trkpt>
<trkpt lat="35.0198332" lon="32.3970598">
<ele>105.55</ele>
<time>2015-04-25T09:40:02Z</time>
</trkpt>
<trkpt lat="35.0197874" lon="32.3970710">
<ele>105.75</ele>
<time>2015-04-25T09:40:05Z</time>
</trkpt>
<trkpt lat="35.0197398" lon="32.3970736">
<ele>108.03</ele>
<time>2015-04-25T09:40:08Z</time>
</trkpt>
<trkpt lat="35.0196926" lon="32.3970687">
<ele>108.81</ele>
<time>2015-04-25T09:40:11Z</time>
</trkpt>
<trkpt lat="35.0196347" lon="32.3970661">
<ele>110.54</ele>
<time>2015-04-25T09:40:14Z</time>
</trkpt>
<trkpt lat="35.0195765" lon="32.3970560">
<ele>110.00</ele>
<time>2015-04-25T09:40:17Z</time>
</trkpt>
<trkpt lat="35.0195135" lon="32.3970393">
<ele>110.18</ele>
<time>2015-04-25T09:40:20Z</time>
</trkpt>
<trkpt lat="35.0194684" lon="32.3970304">
<ele>109.99</ele>
<time>2015-04-25T09:40:22Z</time>
</trkpt>
<trkpt lat="35.0194233" lon="32.3970182">
<ele>109.94</ele>
<time>2015-04-25T09:40:24Z</time>
</trkpt>
<trkpt lat="35.0193595" lon="32.3970064">
<ele>109.18</ele>
<time>2015-04-25T09:40:27Z</time>
</trkpt>
<trkpt lat="35.0192996" lon="32.3969935">
<ele>108.96</ele>
<time>2015-04-25T09:40:30Z</time>
</trkpt>
<trkpt lat="35.0192509" lon="32.3969853">
<ele>108.93</ele>
<time>2015-04-25T09:40:33Z</time>
</trkpt>
<trkpt lat="35.0192006" lon="32.3969878">
<ele>110.93</ele>
<time>2015-04-25T09:40:36Z</time>
</trkpt>
<trkpt lat="35.0191536" lon="32.3969880">
<ele>112.30</ele>
<time>2015-04-25T09:40:39Z</time>
</trkpt>
<trkpt lat="35.0191064" lon="32.3969806">
<ele>113.60</ele>
<time>2015-04-25T09:40:42Z</time>
</trkpt>
<trkpt lat="35.0190507" lon="32.3969806">
<ele>113.90</ele>
<time>2015-04-25T09:40:46Z</time>
</trkpt>
<trkpt lat="35.0189916" lon="32.3969850">
<ele>113.86</ele>
<time>2015-04-25T09:40:50Z</time>
</trkpt>
<trkpt lat="35.0189377" lon="32.3969813">
<ele>113.54</ele>
<time>2015-04-25T09:40:53Z</time>
</trkpt>
<trkpt lat="35.0188873" lon="32.3969726">
<ele>113.88</ele>
<time>2015-04-25T09:40:56Z</time>
</trkpt>
<trkpt lat="35.0188407" lon="32.3969614">
<ele>115.54</ele>
<time>2015-04-25T09:40:59Z</time>
</trkpt>
<trkpt lat="35.0187959" lon="32.3969544">
<ele>115.38</ele>
<time>2015-04-25T09:41:02Z</time>
</trkpt>
<trkpt lat="35.0187439" lon="32.3969466">
<ele>115.73</ele>
<time>2015-04-25T09:41:05Z</time>
</trkpt>
<trkpt lat="35.0186939" lon="32.3969230">
<ele>115.90</ele>
<time>2015-04-25T09:41:08Z</time>
</trkpt>
<trkpt lat="35.0186514" lon="32.3968992">
<ele>115.42</ele>
<time>2015-04-25T09:41:11Z</time>
</trkpt>
<trkpt lat="35.0185968" lon="32.3968869">
<ele>115.14</ele>
<time>2015-04-25T09:41:15Z</time>
</trkpt>
<trkpt lat="35.0185397" lon="32.3968653">
<ele>114.94</ele>
<time>2015-04-25T09:41:19Z</time>
</trkpt>
<trkpt lat="35.0184917" lon="32.3968591">
<ele>115.43</ele>
<time>2015-04-25T09:41:22Z</time>
</trkpt>
<trkpt lat="35.0184474" lon="32.3968436">
<ele>116.61</ele>
<time>2015-04-25T09:41:25Z</time>
</trkpt>
<trkpt lat="35.0184017" lon="32.3968259">
<ele>116.89</ele>
<time>2015-04-25T09:41:28Z</time>
</trkpt>
<trkpt lat="35.0183554" lon="32.3968152">
<ele>117.42</ele>
<time>2015-04-25T09:41:31Z</time>
</trkpt>
<trkpt lat="35.0182981" lon="32.3968019">
<ele>118.39</ele>
<time>2015-04-25T09:41:35Z</time>
</trkpt>
<trkpt lat="35.0182419" lon="32.3967938">
<ele>118.45</ele>
<time>2015-04-25T09:41:39Z</time>
</trkpt>
<trkpt lat="35.0181974" lon="32.3967790">
<ele>121.37</ele>
<time>2015-04-25T09:41:42Z</time>
</trkpt>
<trkpt lat="35.0181395" lon="32.3967732">
<ele>120.20</ele>
<time>2015-04-25T09:41:46Z</time>
</trkpt>
<trkpt lat="35.0180857" lon="32.3967482">
<ele>121.32</ele>
<time>2015-04-25T09:41:50Z</time>
</trkpt>
<trkpt lat="35.0180342" lon="32.3967219">
<ele>124.20</ele>
<time>2015-04-25T09:41:54Z</time>
</trkpt>
<trkpt lat="35.0179813" lon="32.3967164">
<ele>124.32</ele>
<time>2015-04-25T09:41:58Z</time>
</trkpt>
<trkpt lat="35.0179320" lon="32.3967063">
<ele>125.26</ele>
<time>2015-04-25T09:42:02Z</time>
</trkpt>
<trkpt lat="35.0178834" lon="32.3966807">
<ele>126.76</ele>
<time>2015-04-25T09:42:06Z</time>
</trkpt>
<trkpt lat="35.0178384" lon="32.3966682">
<ele>128.28</ele>
<time>2015-04-25T09:42:09Z</time>
</trkpt>
<trkpt lat="35.0177863" lon="32.3966514">
<ele>128.13</ele>
<time>2015-04-25T09:42:13Z</time>
</trkpt>
<trkpt lat="35.0177384" lon="32.3966690">
<ele>129.38</ele>
<time>2015-04-25T09:42:17Z</time>
</trkpt>
<trkpt lat="35.0176991" lon="32.3967189">
<ele>130.39</ele>
<time>2015-04-25T09:42:21Z</time>
</trkpt>
<trkpt lat="35.0176438" lon="32.3967272">
<ele>132.14</ele>
<time>2015-04-25T09:42:25Z</time>
</trkpt>
<trkpt lat="35.0176144" lon="32.3967688">
<ele>132.58</ele>
<time>2015-04-25T09:42:28Z</time>
</trkpt>
<trkpt lat="35.0175690" lon="32.3967805">
<ele>132.76</ele>
<time>2015-04-25T09:42:31Z</time>
</trkpt>
<trkpt lat="35.0175246" lon="32.3967912">
<ele>133.40</ele>
<time>2015-04-25T09:42:34Z</time>
</trkpt>
<trkpt lat="35.0174691" lon="32.3968062">
<ele>136.08</ele>
<time>2015-04-25T09:42:38Z</time>
</trkpt>
<trkpt lat="35.0174164" lon="32.3967953">
<ele>137.12</ele>
<time>2015-04-25T09:42:42Z</time>
</trkpt>
<trkpt lat="35.0173676" lon="32.3967905">
<ele>135.31</ele>
<time>2015-04-25T09:42:46Z</time>
</trkpt>
<trkpt lat="35.0173180" lon="32.3967883">
<ele>134.57</ele>
<time>2015-04-25T09:42:50Z</time>
</trkpt>
<trkpt lat="35.0172666" lon="32.3967986">
<ele>135.40</ele>
<time>2015-04-25T09:42:54Z</time>
</trkpt>
<trkpt lat="35.0172076" lon="32.3968016">
<ele>137.14</ele>
<time>2015-04-25T09:42:58Z</time>
</trkpt>
<trkpt lat="35.0171619" lon="32.3968120">
<ele>137.83</ele>
<time>2015-04-25T09:43:01Z</time>
</trkpt>
<trkpt lat="35.0171155" lon="32.3968158">
<ele>137.91</ele>
<time>2015-04-25T09:43:04Z</time>
</trkpt>
<trkpt lat="35.0170686" lon="32.3968192">
<ele>138.67</ele>
<time>2015-04-25T09:43:07Z</time>
</trkpt>
<trkpt lat="35.0170180" lon="32.3968142">
<ele>139.64</ele>
<time>2015-04-25T09:43:10Z</time>
</trkpt>
<trkpt lat="35.0169605" lon="32.3968082">
<ele>139.01</ele>
<time>2015-04-25T09:43:13Z</time>
</trkpt>
<trkpt lat="35.0169038" lon="32.3967930">
<ele>140.81</ele>
<time>2015-04-25T09:43:16Z</time>
</trkpt>
<trkpt lat="35.0168483" lon="32.3967799">
<ele>142.29</ele>
<time>2015-04-25T09:43:19Z</time>
</trkpt>
<trkpt lat="35.0167921" lon="32.3967750">
<ele>141.97</ele>
<time>2015-04-25T09:43:22Z</time>
</trkpt>
<trkpt lat="35.0167319" lon="32.3967627">
<ele>141.93</ele>
<time>2015-04-25T09:43:25Z</time>
</trkpt>
<trkpt lat="35.0166728" lon="32.3967422">
<ele>142.30</ele>
<time>2015-04-25T09:43:28Z</time>
</trkpt>
<trkpt lat="35.0166210" lon="32.3967218">
<ele>141.97</ele>
<time>2015-04-25T09:43:31Z</time>
</trkpt>
<trkpt lat="35.0165697" lon="32.3966927">
<ele>141.93</ele>
<time>2015-04-25T09:43:34Z</time>
</trkpt>
<trkpt lat="35.0165202" lon="32.3966582">
<ele>142.68</ele>
<time>2015-04-25T09:43:37Z</time>
</trkpt>
<trkpt lat="35.0164724" lon="32.3966285">
<ele>144.39</ele>
<time>2015-04-25T09:43:40Z</time>
</trkpt>
<trkpt lat="35.0164236" lon="32.3966045">
<ele>144.86</ele>
<time>2015-04-25T09:43:43Z</time>
</trkpt>
<trkpt lat="35.0163733" lon="32.3965716">
<ele>147.54</ele>
<time>2015-04-25T09:43:46Z</time>
</trkpt>
<trkpt lat="35.0163192" lon="32.3965484">
<ele>148.00</ele>
<time>2015-04-25T09:43:49Z</time>
</trkpt>
<trkpt lat="35.0162710" lon="32.3965258">
<ele>148.06</ele>
<time>2015-04-25T09:43:52Z</time>
</trkpt>
<trkpt lat="35.0162302" lon="32.3964985">
<ele>147.94</ele>
<time>2015-04-25T09:43:55Z</time>
</trkpt>
<trkpt lat="35.0161886" lon="32.3964632">
<ele>147.43</ele>
<time>2015-04-25T09:43:58Z</time>
</trkpt>
<trkpt lat="35.0161465" lon="32.3964340">
<ele>147.86</ele>
<time>2015-04-25T09:44:01Z</time>
</trkpt>
<trkpt lat="35.0161054" lon="32.3964049">
<ele>148.79</ele>
<time>2015-04-25T09:44:04Z</time>
</trkpt>
<trkpt lat="35.0160652" lon="32.3963726">
<ele>148.66</ele>
<time>2015-04-25T09:44:07Z</time>
</trkpt>
<trkpt lat="35.0160230" lon="32.3963355">
<ele>149.14</ele>
<time>2015-04-25T09:44:10Z</time>
</trkpt>
<trkpt lat="35.0159740" lon="32.3963084">
<ele>147.95</ele>
<time>2015-04-25T09:44:13Z</time>
</trkpt>
<trkpt lat="35.0159283" lon="32.3962765">
<ele>148.43</ele>
<time>2015-04-25T09:44:16Z</time>
</trkpt>
<trkpt lat="35.0158878" lon="32.3962398">
<ele>148.86</ele>
<time>2015-04-25T09:44:19Z</time>
</trkpt>
<trkpt lat="35.0158458" lon="32.3962050">
<ele>148.92</ele>
<time>2015-04-25T09:44:22Z</time>
</trkpt>
<trkpt lat="35.0158031" lon="32.3961732">
<ele>148.92</ele>
<time>2015-04-25T09:44:25Z</time>
</trkpt>
<trkpt lat="35.0157571" lon="32.3961446">
<ele>149.67</ele>
<time>2015-04-25T09:44:28Z</time>
</trkpt>
<trkpt lat="35.0157103" lon="32.3961144">
<ele>150.39</ele>
<time>2015-04-25T09:44:31Z</time>
</trkpt>
<trkpt lat="35.0156552" lon="32.3960907">
<ele>151.36</ele>
<time>2015-04-25T09:44:34Z</time>
</trkpt>
<trkpt lat="35.0156014" lon="32.3960696">
<ele>151.85</ele>
<time>2015-04-25T09:44:37Z</time>
</trkpt>
<trkpt lat="35.0155526" lon="32.3960441">
<ele>152.42</ele>
<time>2015-04-25T09:44:40Z</time>
</trkpt>
<trkpt lat="35.0155065" lon="32.3960204">
<ele>152.86</ele>
<time>2015-04-25T09:44:43Z</time>
</trkpt>
<trkpt lat="35.0154629" lon="32.3959874">
<ele>153.42</ele>
<time>2015-04-25T09:44:46Z</time>
</trkpt>
<trkpt lat="35.0154168" lon="32.3959552">
<ele>154.61</ele>
<time>2015-04-25T09:44:49Z</time>
</trkpt>
<trkpt lat="35.0153729" lon="32.3959259">
<ele>154.89</ele>
<time>2015-04-25T09:44:52Z</time>
</trkpt>
<trkpt lat="35.0153300" lon="32.3958980">
<ele>155.88</ele>
<time>2015-04-25T09:44:58Z</time>
</trkpt>
<trkpt lat="35.0152851" lon="32.3958763">
<ele>155.92</ele>
<time>2015-04-25T09:45:01Z</time>
</trkpt>
<trkpt lat="35.0152417" lon="32.3958412">
<ele>156.55</ele>
<time>2015-04-25T09:45:04Z</time>
</trkpt>
<trkpt lat="35.0152020" lon="32.3958103">
<ele>157.63</ele>
<time>2015-04-25T09:45:07Z</time>
</trkpt>
<trkpt lat="35.0151580" lon="32.3957814">
<ele>157.89</ele>
<time>2015-04-25T09:45:10Z</time>
</trkpt>
<trkpt lat="35.0151122" lon="32.3957524">
<ele>157.92</ele>
<time>2015-04-25T09:45:13Z</time>
</trkpt>
<trkpt lat="35.0150659" lon="32.3957219">
<ele>158.80</ele>
<time>2015-04-25T09:45:16Z</time>
</trkpt>
<trkpt lat="35.0150176" lon="32.3956922">
<ele>159.66</ele>
<time>2015-04-25T09:45:19Z</time>
</trkpt>
<trkpt lat="35.0149719" lon="32.3956557">
<ele>159.27</ele>
<time>2015-04-25T09:45:22Z</time>
</trkpt>
<trkpt lat="35.0149242" lon="32.3956241">
<ele>158.97</ele>
<time>2015-04-25T09:45:25Z</time>
</trkpt>
<trkpt lat="35.0148766" lon="32.3955910">
<ele>159.81</ele>
<time>2015-04-25T09:45:28Z</time>
</trkpt>
<trkpt lat="35.0148365" lon="32.3955626">
<ele>160.41</ele>
<time>2015-04-25T09:45:31Z</time>
</trkpt>
<trkpt lat="35.0147902" lon="32.3955458">
<ele>161.61</ele>
<time>2015-04-25T09:45:34Z</time>
</trkpt>
<trkpt lat="35.0147378" lon="32.3955280">
<ele>162.39</ele>
<time>2015-04-25T09:45:37Z</time>
</trkpt>
<trkpt lat="35.0146912" lon="32.3955062">
<ele>163.11</ele>
<time>2015-04-25T09:45:40Z</time>
</trkpt>
<trkpt lat="35.0146477" lon="32.3954834">
<ele>162.95</ele>
<time>2015-04-25T09:45:43Z</time>
</trkpt>
<trkpt lat="35.0146016" lon="32.3954606">
<ele>163.80</ele>
<time>2015-04-25T09:45:46Z</time>
</trkpt>
<trkpt lat="35.0145556" lon="32.3954426">
<ele>163.91</ele>
<time>2015-04-25T09:45:49Z</time>
</trkpt>
<trkpt lat="35.0145102" lon="32.3954186">
<ele>163.92</ele>
<time>2015-04-25T09:45:52Z</time>
</trkpt>
<trkpt lat="35.0144652" lon="32.3953966">
<ele>164.67</ele>
<time>2015-04-25T09:45:55Z</time>
</trkpt>
<trkpt lat="35.0144199" lon="32.3953773">
<ele>164.89</ele>
<time>2015-04-25T09:45:58Z</time>
</trkpt>
<trkpt lat="35.0143769" lon="32.3953544">
<ele>165.55</ele>
<time>2015-04-25T09:46:01Z</time>
</trkpt>
<trkpt lat="35.0143317" lon="32.3953294">
<ele>166.38</ele>
<time>2015-04-25T09:46:04Z</time>
</trkpt>
<trkpt lat="35.0142853" lon="32.3953084">
<ele>168.23</ele>
<time>2015-04-25T09:46:07Z</time>
</trkpt>
<trkpt lat="35.0142467" lon="32.3952747">
<ele>168.34</ele>
<time>2015-04-25T09:46:10Z</time>
</trkpt>
<trkpt lat="35.0142110" lon="32.3952400">
<ele>168.48</ele>
<time>2015-04-25T09:46:13Z</time>
</trkpt>
<trkpt lat="35.0141715" lon="32.3952099">
<ele>169.37</ele>
<time>2015-04-25T09:46:16Z</time>
</trkpt>
<trkpt lat="35.0141272" lon="32.3951828">
<ele>169.61</ele>
<time>2015-04-25T09:46:19Z</time>
</trkpt>
<trkpt lat="35.0140792" lon="32.3951444">
<ele>171.16</ele>
<time>2015-04-25T09:46:23Z</time>
</trkpt>
<trkpt lat="35.0140313" lon="32.3951070">
<ele>171.94</ele>
<time>2015-04-25T09:46:27Z</time>
</trkpt>
<trkpt lat="35.0140020" lon="32.3950640">
<ele>171.18</ele>
<time>2015-04-25T09:46:30Z</time>
</trkpt>
<trkpt lat="35.0139732" lon="32.3950208">
<ele>170.96</ele>
<time>2015-04-25T09:46:33Z</time>
</trkpt>
<trkpt lat="35.0139462" lon="32.3949604">
<ele>169.99</ele>
<time>2015-04-25T09:46:37Z</time>
</trkpt>
<trkpt lat="35.0139146" lon="32.3949028">
<ele>170.24</ele>
<time>2015-04-25T09:46:41Z</time>
</trkpt>
<trkpt lat="35.0138875" lon="32.3948577">
<ele>170.09</ele>
<time>2015-04-25T09:46:44Z</time>
</trkpt>
<trkpt lat="35.0138625" lon="32.3948084">
<ele>171.07</ele>
<time>2015-04-25T09:46:47Z</time>
</trkpt>
<trkpt lat="35.0138296" lon="32.3947606">
<ele>173.19</ele>
<time>2015-04-25T09:46:50Z</time>
</trkpt>
<trkpt lat="35.0137991" lon="32.3947121">
<ele>174.33</ele>
<time>2015-04-25T09:46:53Z</time>
</trkpt>
<trkpt lat="35.0137681" lon="32.3946712">
<ele>174.85</ele>
<time>2015-04-25T09:46:56Z</time>
</trkpt>
<trkpt lat="35.0137270" lon="32.3946219">
<ele>175.86</ele>
<time>2015-04-25T09:47:00Z</time>
</trkpt>
<trkpt lat="35.0136862" lon="32.3945683">
<ele>177.17</ele>
<time>2015-04-25T09:47:04Z</time>
</trkpt>
<trkpt lat="35.0136548" lon="32.3945287">
<ele>177.71</ele>
<time>2015-04-25T09:47:07Z</time>
</trkpt>
<trkpt lat="35.0136251" lon="32.3944839">
<ele>179.15</ele>
<time>2015-04-25T09:47:10Z</time>
</trkpt>
<trkpt lat="35.0135884" lon="32.3944310">
<ele>179.88</ele>
<time>2015-04-25T09:47:14Z</time>
</trkpt>
<trkpt lat="35.0135511" lon="32.3943795">
<ele>179.30</ele>
<time>2015-04-25T09:47:18Z</time>
</trkpt>
<trkpt lat="35.0135211" lon="32.3943367">
<ele>178.97</ele>
<time>2015-04-25T09:47:21Z</time>
</trkpt>
<trkpt lat="35.0134913" lon="32.3942728">
<ele>179.68</ele>
<time>2015-04-25T09:47:25Z</time>
</trkpt>
<trkpt lat="35.0134667" lon="32.3942255">
<ele>181.14</ele>
<time>2015-04-25T09:47:28Z</time>
</trkpt>
<trkpt lat="35.0134288" lon="32.3941748">
<ele>181.00</ele>
<time>2015-04-25T09:47:32Z</time>
</trkpt>
<trkpt lat="35.0133950" lon="32.3941221">
<ele>180.80</ele>
<time>2015-04-25T09:47:36Z</time>
</trkpt>
<trkpt lat="35.0133666" lon="32.3940723">
<ele>180.92</ele>
<time>2015-04-25T09:47:40Z</time>
</trkpt>
<trkpt lat="35.0133386" lon="32.3940233">
<ele>180.42</ele>
<time>2015-04-25T09:47:44Z</time>
</trkpt>
<trkpt lat="35.0133081" lon="32.3939678">
<ele>181.21</ele>
<time>2015-04-25T09:47:48Z</time>
</trkpt>
<trkpt lat="35.0132762" lon="32.3939163">
<ele>183.51</ele>
<time>2015-04-25T09:47:52Z</time>
</trkpt>
<trkpt lat="35.0132352" lon="32.3938676">
<ele>182.65</ele>
<time>2015-04-25T09:47:56Z</time>
</trkpt>
<trkpt lat="35.0131987" lon="32.3938159">
<ele>183.22</ele>
<time>2015-04-25T09:48:00Z</time>
</trkpt>
<trkpt lat="35.0131699" lon="32.3937729">
<ele>184.84</ele>
<time>2015-04-25T09:48:03Z</time>
</trkpt>
<trkpt lat="35.0131412" lon="32.3937259">
<ele>185.41</ele>
<time>2015-04-25T09:48:06Z</time>
</trkpt>
<trkpt lat="35.0131053" lon="32.3936737">
<ele>188.39</ele>
<time>2015-04-25T09:48:10Z</time>
</trkpt>
<trkpt lat="35.0130675" lon="32.3936417">
<ele>188.86</ele>
<time>2015-04-25T09:48:13Z</time>
</trkpt>
<trkpt lat="35.0130273" lon="32.3936046">
<ele>188.17</ele>
<time>2015-04-25T09:48:16Z</time>
</trkpt>
<trkpt lat="35.0129820" lon="32.3935626">
<ele>188.07</ele>
<time>2015-04-25T09:48:20Z</time>
</trkpt>
<trkpt lat="35.0129399" lon="32.3935178">
<ele>188.25</ele>
<time>2015-04-25T09:48:24Z</time>
</trkpt>
<trkpt lat="35.0128932" lon="32.3934705">
<ele>188.88</ele>
<time>2015-04-25T09:48:28Z</time>
</trkpt>
<trkpt lat="35.0128530" lon="32.3934312">
<ele>189.67</ele>
<time>2015-04-25T09:48:31Z</time>
</trkpt>
<trkpt lat="35.0128110" lon="32.3933884">
<ele>190.77</ele>
<time>2015-04-25T09:48:34Z</time>
</trkpt>
<trkpt lat="35.0127746" lon="32.3933352">
<ele>190.78</ele>
<time>2015-04-25T09:48:37Z</time>
</trkpt>
<trkpt lat="35.0127380" lon="32.3932810">
<ele>191.03</ele>
<time>2015-04-25T09:48:40Z</time>
</trkpt>
<trkpt lat="35.0126953" lon="32.3932349">
<ele>192.56</ele>
<time>2015-04-25T09:48:43Z</time>
</trkpt>
<trkpt lat="35.0126544" lon="32.3931933">
<ele>193.25</ele>
<time>2015-04-25T09:48:46Z</time>
</trkpt>
<trkpt lat="35.0126132" lon="32.3931541">
<ele>193.84</ele>
<time>2015-04-25T09:48:49Z</time>
</trkpt>
<trkpt lat="35.0125802" lon="32.3931043">
<ele>194.04</ele>
<time>2015-04-25T09:48:52Z</time>
</trkpt>
<trkpt lat="35.0125398" lon="32.3930594">
<ele>194.69</ele>
<time>2015-04-25T09:48:55Z</time>
</trkpt>
<trkpt lat="35.0124967" lon="32.3930177">
<ele>195.40</ele>
<time>2015-04-25T09:48:58Z</time>
</trkpt>
<trkpt lat="35.0124539" lon="32.3929798">
<ele>195.86</ele>
<time>2015-04-25T09:49:01Z</time>
</trkpt>
<trkpt lat="35.0124115" lon="32.3929497">
<ele>195.54</ele>
<time>2015-04-25T09:49:04Z</time>
</trkpt>
<trkpt lat="35.0123664" lon="32.3929211">
<ele>196.38</ele>
<time>2015-04-25T09:49:07Z</time>
</trkpt>
<trkpt lat="35.0123232" lon="32.3928928">
<ele>196.36</ele>
<time>2015-04-25T09:49:10Z</time>
</trkpt>
<trkpt lat="35.0122814" lon="32.3928668">
<ele>197.10</ele>
<time>2015-04-25T09:49:13Z</time>
</trkpt>
<trkpt lat="35.0122329" lon="32.3928527">
<ele>196.44</ele>
<time>2015-04-25T09:49:17Z</time>
</trkpt>
<trkpt lat="35.0121840" lon="32.3928140">
<ele>195.33</ele>
<time>2015-04-25T09:49:21Z</time>
</trkpt>
<trkpt lat="35.0121400" lon="32.3927913">
<ele>195.48</ele>
<time>2015-04-25T09:49:24Z</time>
</trkpt>
<trkpt lat="35.0120861" lon="32.3927594">
<ele>195.62</ele>
<time>2015-04-25T09:49:27Z</time>
</trkpt>
<trkpt lat="35.0120436" lon="32.3927339">
<ele>196.35</ele>
<time>2015-04-25T09:49:29Z</time>
</trkpt>
<trkpt lat="35.0120016" lon="32.3927068">
<ele>197.28</ele>
<time>2015-04-25T09:49:31Z</time>
</trkpt>
<trkpt lat="35.0119617" lon="32.3926765">
<ele>198.51</ele>
<time>2015-04-25T09:49:33Z</time>
</trkpt>
<trkpt lat="35.0119215" lon="32.3926515">
<ele>198.82</ele>
<time>2015-04-25T09:49:35Z</time>
</trkpt>
<trkpt lat="35.0118609" lon="32.3926180">
<ele>199.66</ele>
<time>2015-04-25T09:49:38Z</time>
</trkpt>
<trkpt lat="35.0118184" lon="32.3925948">
<ele>199.11</ele>
<time>2015-04-25T09:49:40Z</time>
</trkpt>
<trkpt lat="35.0117742" lon="32.3925791">
<ele>199.72</ele>
<time>2015-04-25T09:49:42Z</time>
</trkpt>
<trkpt lat="35.0117184" lon="32.3925436">
<ele>199.90</ele>
<time>2015-04-25T09:49:45Z</time>
</trkpt>
<trkpt lat="35.0116630" lon="32.3925072">
<ele>200.30</ele>
<time>2015-04-25T09:49:48Z</time>
</trkpt>
<trkpt lat="35.0116015" lon="32.3924788">
<ele>200.10</ele>
<time>2015-04-25T09:49:51Z</time>
</trkpt>
<trkpt lat="35.0115410" lon="32.3924420">
<ele>199.82</ele>
<time>2015-04-25T09:49:54Z</time>
</trkpt>
<trkpt lat="35.0114980" lon="32.3924199">
<ele>200.65</ele>
<time>2015-04-25T09:49:56Z</time>
</trkpt>
<trkpt lat="35.0114539" lon="32.3923976">
<ele>200.86</ele>
<time>2015-04-25T09:49:58Z</time>
</trkpt>
<trkpt lat="35.0114069" lon="32.3923667">
<ele>200.91</ele>
<time>2015-04-25T09:50:00Z</time>
</trkpt>
<trkpt lat="35.0113549" lon="32.3923356">
<ele>199.92</ele>
<time>2015-04-25T09:50:02Z</time>
</trkpt>
<trkpt lat="35.0113046" lon="32.3923098">
<ele>199.67</ele>
<time>2015-04-25T09:50:04Z</time>
</trkpt>
<trkpt lat="35.0112504" lon="32.3922975">
<ele>196.36</ele>
<time>2015-04-25T09:50:06Z</time>
</trkpt>
<trkpt lat="35.0112025" lon="32.3922759">
<ele>194.53</ele>
<time>2015-04-25T09:50:08Z</time>
</trkpt>
<trkpt lat="35.0111574" lon="32.3922540">
<ele>194.83</ele>
<time>2015-04-25T09:50:10Z</time>
</trkpt>
<trkpt lat="35.0111132" lon="32.3922300">
<ele>195.90</ele>
<time>2015-04-25T09:50:12Z</time>
</trkpt>
<trkpt lat="35.0110661" lon="32.3922114">
<ele>196.67</ele>
<time>2015-04-25T09:50:14Z</time>
</trkpt>
<trkpt lat="35.0110200" lon="32.3921920">
<ele>197.61</ele>
<time>2015-04-25T09:50:16Z</time>
</trkpt>
<trkpt lat="35.0109636" lon="32.3921519">
<ele>199.14</ele>
<time>2015-04-25T09:50:19Z</time>
</trkpt>
<trkpt lat="35.0109208" lon="32.3921277">
<ele>199.73</ele>
<time>2015-04-25T09:50:21Z</time>
</trkpt>
<trkpt lat="35.0108753" lon="32.3921031">
<ele>199.38</ele>
<time>2015-04-25T09:50:23Z</time>
</trkpt>
<trkpt lat="35.0108302" lon="32.3920785">
<ele>198.54</ele>
<time>2015-04-25T09:50:25Z</time>
</trkpt>
<trkpt lat="35.0107856" lon="32.3920553">
<ele>198.08</ele>
<time>2015-04-25T09:50:27Z</time>
</trkpt>
<trkpt lat="35.0107451" lon="32.3920196">
<ele>197.96</ele>
<time>2015-04-25T09:50:29Z</time>
</trkpt>
<trkpt lat="35.0107078" lon="32.3919866">
<ele>198.93</ele>
<time>2015-04-25T09:50:31Z</time>
</trkpt>
<trkpt lat="35.0106706" lon="32.3919535">
<ele>198.93</ele>
<time>2015-04-25T09:50:33Z</time>
</trkpt>
<trkpt lat="35.0106331" lon="32.3919204">
<ele>198.93</ele>
<time>2015-04-25T09:50:35Z</time>
</trkpt>
<trkpt lat="35.0105926" lon="32.3918857">
<ele>200.93</ele>
<time>2015-04-25T09:50:37Z</time>
</trkpt>
<trkpt lat="35.0105378" lon="32.3918422">
<ele>202.93</ele>
<time>2015-04-25T09:50:40Z</time>
</trkpt>
<trkpt lat="35.0104936" lon="32.3918168">
<ele>204.05</ele>
<time>2015-04-25T09:50:43Z</time>
</trkpt>
<trkpt lat="35.0104609" lon="32.3918586">
<ele>206.93</ele>
<time>2015-04-25T09:55:38Z</time>
</trkpt>
<trkpt lat="35.0104940" lon="32.3918215">
<ele>197.96</ele>
<time>2015-04-25T09:59:15Z</time>
</trkpt>
<trkpt lat="35.0104936" lon="32.3917649">
<ele>197.67</ele>
<time>2015-04-25T10:05:20Z</time>
</trkpt>
<trkpt lat="35.0104480" lon="32.3917741">
<ele>197.72</ele>
<time>2015-04-25T10:05:24Z</time>
</trkpt>
<trkpt lat="35.0103961" lon="32.3917848">
<ele>198.27</ele>
<time>2015-04-25T10:05:27Z</time>
</trkpt>
<trkpt lat="35.0103458" lon="32.3917865">
<ele>197.47</ele>
<time>2015-04-25T10:05:30Z</time>
</trkpt>
<trkpt lat="35.0102983" lon="32.3917870">
<ele>198.37</ele>
<time>2015-04-25T10:05:33Z</time>
</trkpt>
<trkpt lat="35.0102537" lon="32.3917945">
<ele>198.86</ele>
<time>2015-04-25T10:05:36Z</time>
</trkpt>
<trkpt lat="35.0101983" lon="32.3918109">
<ele>199.48</ele>
<time>2015-04-25T10:05:40Z</time>
</trkpt>
<trkpt lat="35.0101530" lon="32.3918198">
<ele>201.24</ele>
<time>2015-04-25T10:05:43Z</time>
</trkpt>
<trkpt lat="35.0100985" lon="32.3918274">
<ele>202.34</ele>
<time>2015-04-25T10:05:46Z</time>
</trkpt>
<trkpt lat="35.0100470" lon="32.3918312">
<ele>203.60</ele>
<time>2015-04-25T10:05:49Z</time>
</trkpt>
<trkpt lat="35.0099975" lon="32.3918302">
<ele>204.38</ele>
<time>2015-04-25T10:05:52Z</time>
</trkpt>
<trkpt lat="35.0099491" lon="32.3918267">
<ele>205.61</ele>
<time>2015-04-25T10:05:55Z</time>
</trkpt>
<trkpt lat="35.0098993" lon="32.3918159">
<ele>206.01</ele>
<time>2015-04-25T10:05:58Z</time>
</trkpt>
<trkpt lat="35.0098513" lon="32.3918134">
<ele>205.94</ele>
<time>2015-04-25T10:06:01Z</time>
</trkpt>
<trkpt lat="35.0098070" lon="32.3918027">
<ele>205.05</ele>
<time>2015-04-25T10:06:04Z</time>
</trkpt>
<trkpt lat="35.0097525" lon="32.3917742">
<ele>205.81</ele>
<time>2015-04-25T10:06:08Z</time>
</trkpt>
<trkpt lat="35.0096996" lon="32.3917469">
<ele>209.23</ele>
<time>2015-04-25T10:06:12Z</time>
</trkpt>
<trkpt lat="35.0096587" lon="32.3917171">
<ele>209.84</ele>
<time>2015-04-25T10:06:15Z</time>
</trkpt>
<trkpt lat="35.0096078" lon="32.3916809">
<ele>209.91</ele>
<time>2015-04-25T10:06:18Z</time>
</trkpt>
<trkpt lat="35.0095643" lon="32.3916407">
<ele>211.80</ele>
<time>2015-04-25T10:06:21Z</time>
</trkpt>
<trkpt lat="35.0095209" lon="32.3915935">
<ele>213.10</ele>
<time>2015-04-25T10:06:25Z</time>
</trkpt>
<trkpt lat="35.0094765" lon="32.3915593">
<ele>214.62</ele>
<time>2015-04-25T10:06:29Z</time>
</trkpt>
<trkpt lat="35.0094264" lon="32.3915258">
<ele>214.91</ele>
<time>2015-04-25T10:06:33Z</time>
</trkpt>
<trkpt lat="35.0093758" lon="32.3914856">
<ele>215.24</ele>
<time>2015-04-25T10:06:37Z</time>
</trkpt>
<trkpt lat="35.0093320" lon="32.3914530">
<ele>214.96</ele>
<time>2015-04-25T10:06:40Z</time>
</trkpt>
<trkpt lat="35.0092835" lon="32.3914252">
<ele>215.68</ele>
<time>2015-04-25T10:06:43Z</time>
</trkpt>
<trkpt lat="35.0092276" lon="32.3914038">
<ele>215.14</ele>
<time>2015-04-25T10:06:46Z</time>
</trkpt>
<trkpt lat="35.0091700" lon="32.3914037">
<ele>214.95</ele>
<time>2015-04-25T10:06:49Z</time>
</trkpt>
<trkpt lat="35.0091069" lon="32.3914103">
<ele>214.68</ele>
<time>2015-04-25T10:06:52Z</time>
</trkpt>
<trkpt lat="35.0090424" lon="32.3914159">
<ele>213.52</ele>
<time>2015-04-25T10:06:55Z</time>
</trkpt>
<trkpt lat="35.0089790" lon="32.3914258">
<ele>212.25</ele>
<time>2015-04-25T10:06:58Z</time>
</trkpt>
<trkpt lat="35.0089133" lon="32.3914394">
<ele>212.84</ele>
<time>2015-04-25T10:07:01Z</time>
</trkpt>
<trkpt lat="35.0088686" lon="32.3914510">
<ele>213.65</ele>
<time>2015-04-25T10:07:03Z</time>
</trkpt>
<trkpt lat="35.0088238" lon="32.3914636">
<ele>213.11</ele>
<time>2015-04-25T10:07:05Z</time>
</trkpt>
<trkpt lat="35.0087572" lon="32.3914708">
<ele>214.32</ele>
<time>2015-04-25T10:07:08Z</time>
</trkpt>
<trkpt lat="35.0086984" lon="32.3914746">
<ele>215.72</ele>
<time>2015-04-25T10:07:11Z</time>
</trkpt>
<trkpt lat="35.0086489" lon="32.3914791">
<ele>215.90</ele>
<time>2015-04-25T10:07:14Z</time>
</trkpt>
<trkpt lat="35.0086011" lon="32.3914878">
<ele>217.55</ele>
<time>2015-04-25T10:07:17Z</time>
</trkpt>
<trkpt lat="35.0085545" lon="32.3914978">
<ele>219.75</ele>
<time>2015-04-25T10:07:20Z</time>
</trkpt>
<trkpt lat="35.0084994" lon="32.3914962">
<ele>219.23</ele>
<time>2015-04-25T10:07:24Z</time>
</trkpt>
<trkpt lat="35.0084438" lon="32.3915021">
<ele>219.82</ele>
<time>2015-04-25T10:07:28Z</time>
</trkpt>
<trkpt lat="35.0083861" lon="32.3915069">
<ele>221.48</ele>
<time>2015-04-25T10:07:32Z</time>
</trkpt>
<trkpt lat="35.0083338" lon="32.3915158">
<ele>222.02</ele>
<time>2015-04-25T10:07:36Z</time>
</trkpt>
<trkpt lat="35.0082796" lon="32.3915211">
<ele>221.06</ele>
<time>2015-04-25T10:07:40Z</time>
</trkpt>
<trkpt lat="35.0082226" lon="32.3915237">
<ele>221.12</ele>
<time>2015-04-25T10:07:44Z</time>
</trkpt>
<trkpt lat="35.0081666" lon="32.3915114">
<ele>221.81</ele>
<time>2015-04-25T10:07:48Z</time>
</trkpt>
<trkpt lat="35.0081136" lon="32.3915204">
<ele>221.73</ele>
<time>2015-04-25T10:07:52Z</time>
</trkpt>
<trkpt lat="35.0080543" lon="32.3915213">
<ele>221.91</ele>
<time>2015-04-25T10:07:56Z</time>
</trkpt>
<trkpt lat="35.0079995" lon="32.3915282">
<ele>222.11</ele>
<time>2015-04-25T10:08:00Z</time>
</trkpt>
<trkpt lat="35.0079420" lon="32.3915300">
<ele>222.12</ele>
<time>2015-04-25T10:08:04Z</time>
</trkpt>
<trkpt lat="35.0078902" lon="32.3915417">
<ele>221.44</ele>
<time>2015-04-25T10:08:08Z</time>
</trkpt>
<trkpt lat="35.0078312" lon="32.3915384">
<ele>222.39</ele>
<time>2015-04-25T10:08:12Z</time>
</trkpt>
<trkpt lat="35.0077768" lon="32.3915408">
<ele>222.89</ele>
<time>2015-04-25T10:08:16Z</time>
</trkpt>
<trkpt lat="35.0077265" lon="32.3915410">
<ele>222.92</ele>
<time>2015-04-25T10:08:20Z</time>
</trkpt>
<trkpt lat="35.0076779" lon="32.3915407">
<ele>222.92</ele>
<time>2015-04-25T10:08:24Z</time>
</trkpt>
<trkpt lat="35.0076316" lon="32.3915454">
<ele>224.36</ele>
<time>2015-04-25T10:08:28Z</time>
</trkpt>
<trkpt lat="35.0075857" lon="32.3915501">
<ele>225.51</ele>
<time>2015-04-25T10:08:32Z</time>
</trkpt>
<trkpt lat="35.0075308" lon="32.3915548">
<ele>226.85</ele>
<time>2015-04-25T10:08:37Z</time>
</trkpt>
<trkpt lat="35.0074819" lon="32.3915564">
<ele>227.17</ele>
<time>2015-04-25T10:08:42Z</time>
</trkpt>
<trkpt lat="35.0074304" lon="32.3915570">
<ele>227.68</ele>
<time>2015-04-25T10:08:47Z</time>
</trkpt>
<trkpt lat="35.0073853" lon="32.3915561">
<ele>228.66</ele>
<time>2015-04-25T10:08:51Z</time>
</trkpt>
<trkpt lat="35.0073366" lon="32.3915684">
<ele>229.41</ele>
<time>2015-04-25T10:08:55Z</time>
</trkpt>
<trkpt lat="35.0072871" lon="32.3915725">
<ele>230.77</ele>
<time>2015-04-25T10:08:59Z</time>
</trkpt>
<trkpt lat="35.0072360" lon="32.3915919">
<ele>229.98</ele>
<time>2015-04-25T10:09:03Z</time>
</trkpt>
<trkpt lat="35.0071773" lon="32.3916014">
<ele>230.87</ele>
<time>2015-04-25T10:09:07Z</time>
</trkpt>
<trkpt lat="35.0071301" lon="32.3916138">
<ele>230.92</ele>
<time>2015-04-25T10:09:10Z</time>
</trkpt>
<trkpt lat="35.0070847" lon="32.3916158">
<ele>231.67</ele>
<time>2015-04-25T10:09:13Z</time>
</trkpt>
<trkpt lat="35.0070277" lon="32.3916165">
<ele>231.91</ele>
<time>2015-04-25T10:09:17Z</time>
</trkpt>
<trkpt lat="35.0069722" lon="32.3916042">
<ele>231.92</ele>
<time>2015-04-25T10:09:21Z</time>
</trkpt>
<trkpt lat="35.0069176" lon="32.3915899">
<ele>231.55</ele>
<time>2015-04-25T10:09:25Z</time>
</trkpt>
<trkpt lat="35.0068668" lon="32.3915590">
<ele>230.96</ele>
<time>2015-04-25T10:09:29Z</time>
</trkpt>
<trkpt lat="35.0068224" lon="32.3915153">
<ele>230.93</ele>
<time>2015-04-25T10:09:33Z</time>
</trkpt>
<trkpt lat="35.0067816" lon="32.3914647">
<ele>233.68</ele>
<time>2015-04-25T10:09:37Z</time>
</trkpt>
<trkpt lat="35.0067582" lon="32.3914170">
<ele>235.02</ele>
<time>2015-04-25T10:09:40Z</time>
</trkpt>
<trkpt lat="35.0067367" lon="32.3913660">
<ele>236.69</ele>
<time>2015-04-25T10:09:43Z</time>
</trkpt>
<trkpt lat="35.0067154" lon="32.3913007">
<ele>238.54</ele>
<time>2015-04-25T10:09:47Z</time>
</trkpt>
<trkpt lat="35.0066898" lon="32.3912367">
<ele>239.96</ele>
<time>2015-04-25T10:09:51Z</time>
</trkpt>
<trkpt lat="35.0066692" lon="32.3911710">
<ele>240.61</ele>
<time>2015-04-25T10:09:55Z</time>
</trkpt>
<trkpt lat="35.0066535" lon="32.3911170">
<ele>241.39</ele>
<time>2015-04-25T10:09:58Z</time>
</trkpt>
<trkpt lat="35.0066252" lon="32.3910520">
<ele>243.14</ele>
<time>2015-04-25T10:10:02Z</time>
</trkpt>
<trkpt lat="35.0066016" lon="32.3910023">
<ele>243.83</ele>
<time>2015-04-25T10:10:05Z</time>
</trkpt>
<trkpt lat="35.0065877" lon="32.3909414">
<ele>243.66</ele>
<time>2015-04-25T10:10:08Z</time>
</trkpt>
<trkpt lat="35.0065623" lon="32.3908835">
<ele>244.39</ele>
<time>2015-04-25T10:10:11Z</time>
</trkpt>
<trkpt lat="35.0065394" lon="32.3908256">
<ele>244.86</ele>
<time>2015-04-25T10:10:14Z</time>
</trkpt>
<trkpt lat="35.0065137" lon="32.3907692">
<ele>244.92</ele>
<time>2015-04-25T10:10:17Z</time>
</trkpt>
<trkpt lat="35.0064929" lon="32.3907142">
<ele>245.42</ele>
<time>2015-04-25T10:10:20Z</time>
</trkpt>
<trkpt lat="35.0064713" lon="32.3906621">
<ele>245.86</ele>
<time>2015-04-25T10:10:23Z</time>
</trkpt>
<trkpt lat="35.0064432" lon="32.3906175">
<ele>246.17</ele>
<time>2015-04-25T10:10:26Z</time>
</trkpt>
<trkpt lat="35.0064064" lon="32.3905597">
<ele>246.57</ele>
<time>2015-04-25T10:10:30Z</time>
</trkpt>
<trkpt lat="35.0063634" lon="32.3905107">
<ele>247.22</ele>
<time>2015-04-25T10:10:34Z</time>
</trkpt>
<trkpt lat="35.0063294" lon="32.3904736">
<ele>247.34</ele>
<time>2015-04-25T10:10:37Z</time>
</trkpt>
<trkpt lat="35.0062919" lon="32.3904386">
<ele>246.98</ele>
<time>2015-04-25T10:10:40Z</time>
</trkpt>
<trkpt lat="35.0062422" lon="32.3904024">
<ele>248.30</ele>
<time>2015-04-25T10:10:44Z</time>
</trkpt>
<trkpt lat="35.0061905" lon="32.3903732">
<ele>249.39</ele>
<time>2015-04-25T10:10:48Z</time>
</trkpt>
<trkpt lat="35.0061376" lon="32.3903436">
<ele>250.39</ele>
<time>2015-04-25T10:10:52Z</time>
</trkpt>
<trkpt lat="35.0060977" lon="32.3903144">
<ele>251.02</ele>
<time>2015-04-25T10:10:56Z</time>
</trkpt>
<trkpt lat="35.0060440" lon="32.3902870">
<ele>252.12</ele>
<time>2015-04-25T10:11:01Z</time>
</trkpt>
<trkpt lat="35.0059939" lon="32.3902607">
<ele>252.87</ele>
<time>2015-04-25T10:11:05Z</time>
</trkpt>
<trkpt lat="35.0059398" lon="32.3902302">
<ele>253.05</ele>
<time>2015-04-25T10:11:09Z</time>
</trkpt>
<trkpt lat="35.0058900" lon="32.3902059">
<ele>253.69</ele>
<time>2015-04-25T10:11:12Z</time>
</trkpt>
<trkpt lat="35.0058388" lon="32.3901868">
<ele>252.65</ele>
<time>2015-04-25T10:11:15Z</time>
</trkpt>
<trkpt lat="35.0057920" lon="32.3901645">
<ele>252.02</ele>
<time>2015-04-25T10:11:18Z</time>
</trkpt>
<trkpt lat="35.0057520" lon="32.3901322">
<ele>252.94</ele>
<time>2015-04-25T10:11:21Z</time>
</trkpt>
<trkpt lat="35.0057062" lon="32.3901011">
<ele>254.30</ele>
<time>2015-04-25T10:11:24Z</time>
</trkpt>
<trkpt lat="35.0056645" lon="32.3900521">
<ele>255.39</ele>
<time>2015-04-25T10:11:28Z</time>
</trkpt>
<trkpt lat="35.0056273" lon="32.3900030">
<ele>255.89</ele>
<time>2015-04-25T10:11:32Z</time>
</trkpt>
<trkpt lat="35.0055934" lon="32.3899508">
<ele>256.36</ele>
<time>2015-04-25T10:11:36Z</time>
</trkpt>
<trkpt lat="35.0055674" lon="32.3899054">
<ele>256.73</ele>
<time>2015-04-25T10:11:39Z</time>
</trkpt>
<trkpt lat="35.0055397" lon="32.3898622">
<ele>257.15</ele>
<time>2015-04-25T10:11:42Z</time>
</trkpt>
<trkpt lat="35.0055074" lon="32.3898151">
<ele>257.69</ele>
<time>2015-04-25T10:11:46Z</time>
</trkpt>
<trkpt lat="35.0054778" lon="32.3897598">
<ele>257.91</ele>
<time>2015-04-25T10:11:50Z</time>
</trkpt>
<trkpt lat="35.0054453" lon="32.3897048">
<ele>257.92</ele>
<time>2015-04-25T10:11:53Z</time>
</trkpt>
<trkpt lat="35.0054141" lon="32.3896450">
<ele>259.30</ele>
<time>2015-04-25T10:11:56Z</time>
</trkpt>
<trkpt lat="35.0053872" lon="32.3895776">
<ele>259.10</ele>
<time>2015-04-25T10:11:59Z</time>
</trkpt>
<trkpt lat="35.0053682" lon="32.3895212">
<ele>258.97</ele>
<time>2015-04-25T10:12:01Z</time>
</trkpt>
<trkpt lat="35.0053520" lon="32.3894670">
<ele>258.19</ele>
<time>2015-04-25T10:12:03Z</time>
</trkpt>
<trkpt lat="35.0053167" lon="32.3894046">
<ele>258.83</ele>
<time>2015-04-25T10:12:06Z</time>
</trkpt>
<trkpt lat="35.0052920" lon="32.3893513">
<ele>258.41</ele>
<time>2015-04-25T10:12:09Z</time>
</trkpt>
<trkpt lat="35.0053391" lon="32.3893864">
<ele>257.08</ele>
<time>2015-04-25T10:12:16Z</time>
</trkpt>
<trkpt lat="35.0053470" lon="32.3894496">
<ele>257.46</ele>
<time>2015-04-25T10:12:18Z</time>
</trkpt>
<trkpt lat="35.0053587" lon="32.3895065">
<ele>257.81</ele>
<time>2015-04-25T10:12:20Z</time>
</trkpt>
<trkpt lat="35.0053518" lon="32.3894470">
<ele>256.96</ele>
<time>2015-04-25T10:13:11Z</time>
</trkpt>
<trkpt lat="35.0053271" lon="32.3893644">
<ele>256.93</ele>
<time>2015-04-25T10:13:14Z</time>
</trkpt>
<trkpt lat="35.0053131" lon="32.3892964">
<ele>257.68</ele>
<time>2015-04-25T10:13:16Z</time>
</trkpt>
<trkpt lat="35.0053065" lon="32.3892305">
<ele>258.36</ele>
<time>2015-04-25T10:13:18Z</time>
</trkpt>
<trkpt lat="35.0053017" lon="32.3891659">
<ele>258.78</ele>
<time>2015-04-25T10:13:20Z</time>
</trkpt>
<trkpt lat="35.0052999" lon="32.3890996">
<ele>258.89</ele>
<time>2015-04-25T10:13:22Z</time>
</trkpt>
<trkpt lat="35.0052948" lon="32.3890316">
<ele>259.42</ele>
<time>2015-04-25T10:13:24Z</time>
</trkpt>
<trkpt lat="35.0052863" lon="32.3889678">
<ele>259.80</ele>
<time>2015-04-25T10:13:26Z</time>
</trkpt>
<trkpt lat="35.0052677" lon="32.3889101">
<ele>259.89</ele>
<time>2015-04-25T10:13:28Z</time>
</trkpt>
<trkpt lat="35.0052226" lon="32.3889457">
<ele>259.42</ele>
<time>2015-04-25T10:13:31Z</time>
</trkpt>
<trkpt lat="35.0052705" lon="32.3889776">
<ele>256.45</ele>
<time>2015-04-25T10:13:39Z</time>
</trkpt>
<trkpt lat="35.0052975" lon="32.3889175">
<ele>257.46</ele>
<time>2015-04-25T10:14:02Z</time>
</trkpt>
<trkpt lat="35.0053010" lon="32.3888511">
<ele>259.58</ele>
<time>2015-04-25T10:14:06Z</time>
</trkpt>
<trkpt lat="35.0052821" lon="32.3888004">
<ele>261.65</ele>
<time>2015-04-25T10:14:12Z</time>
</trkpt>
<trkpt lat="35.0052544" lon="32.3887536">
<ele>262.66</ele>
<time>2015-04-25T10:18:27Z</time>
</trkpt>
<trkpt lat="35.0052126" lon="32.3887168">
<ele>262.31</ele>
<time>2015-04-25T10:18:33Z</time>
</trkpt>
<trkpt lat="35.0051920" lon="32.3886652">
<ele>262.93</ele>
<time>2015-04-25T10:18:46Z</time>
</trkpt>
<trkpt lat="35.0051840" lon="32.3886071">
<ele>263.05</ele>
<time>2015-04-25T10:18:51Z</time>
</trkpt>
<trkpt lat="35.0051367" lon="32.3885825">
<ele>263.12</ele>
<time>2015-04-25T10:18:56Z</time>
</trkpt>
<trkpt lat="35.0050887" lon="32.3885954">
<ele>263.69</ele>
<time>2015-04-25T10:19:00Z</time>
</trkpt>
<trkpt lat="35.0050457" lon="32.3886176">
<ele>263.41</ele>
<time>2015-04-25T10:19:04Z</time>
</trkpt>
<trkpt lat="35.0050018" lon="32.3886020">
<ele>263.86</ele>
<time>2015-04-25T10:19:07Z</time>
</trkpt>
<trkpt lat="35.0049561" lon="32.3885689">
<ele>263.17</ele>
<time>2015-04-25T10:19:10Z</time>
</trkpt>
<trkpt lat="35.0049053" lon="32.3885327">
<ele>262.83</ele>
<time>2015-04-25T10:19:13Z</time>
</trkpt>
<trkpt lat="35.0048514" lon="32.3885007">
<ele>263.54</ele>
<time>2015-04-25T10:19:16Z</time>
</trkpt>
<trkpt lat="35.0048038" lon="32.3884704">
<ele>263.83</ele>
<time>2015-04-25T10:19:18Z</time>
</trkpt>
<trkpt lat="35.0047556" lon="32.3884394">
<ele>263.90</ele>
<time>2015-04-25T10:19:20Z</time>
</trkpt>
<trkpt lat="35.0047107" lon="32.3884108">
<ele>263.92</ele>
<time>2015-04-25T10:19:22Z</time>
</trkpt>
<trkpt lat="35.0046619" lon="32.3883861">
<ele>262.67</ele>
<time>2015-04-25T10:19:24Z</time>
</trkpt>
<trkpt lat="35.0046112" lon="32.3883592">
<ele>262.11</ele>
<time>2015-04-25T10:19:26Z</time>
</trkpt>
<trkpt lat="35.0045578" lon="32.3883235">
<ele>262.47</ele>
<time>2015-04-25T10:19:28Z</time>
</trkpt>
<trkpt lat="35.0045070" lon="32.3882767">
<ele>263.56</ele>
<time>2015-04-25T10:19:30Z</time>
</trkpt>
<trkpt lat="35.0044569" lon="32.3882319">
<ele>263.33</ele>
<time>2015-04-25T10:19:32Z</time>
</trkpt>
<trkpt lat="35.0044075" lon="32.3881896">
<ele>263.78</ele>
<time>2015-04-25T10:19:34Z</time>
</trkpt>
<trkpt lat="35.0043618" lon="32.3881383">
<ele>263.89</ele>
<time>2015-04-25T10:19:36Z</time>
</trkpt>
<trkpt lat="35.0043259" lon="32.3880796">
<ele>263.92</ele>
<time>2015-04-25T10:19:38Z</time>
</trkpt>
<trkpt lat="35.0042941" lon="32.3880265">
<ele>263.92</ele>
<time>2015-04-25T10:19:40Z</time>
</trkpt>
<trkpt lat="35.0042577" lon="32.3879765">
<ele>264.42</ele>
<time>2015-04-25T10:19:42Z</time>
</trkpt>
<trkpt lat="35.0042226" lon="32.3879238">
<ele>264.80</ele>
<time>2015-04-25T10:19:44Z</time>
</trkpt>
<trkpt lat="35.0041860" lon="32.3878645">
<ele>264.14</ele>
<time>2015-04-25T10:19:46Z</time>
</trkpt>
<trkpt lat="35.0041494" lon="32.3878068">
<ele>263.98</ele>
<time>2015-04-25T10:19:48Z</time>
</trkpt>
<trkpt lat="35.0041143" lon="32.3877558">
<ele>263.94</ele>
<time>2015-04-25T10:19:50Z</time>
</trkpt>
<trkpt lat="35.0040771" lon="32.3877076">
<ele>264.68</ele>
<time>2015-04-25T10:19:52Z</time>
</trkpt>
<trkpt lat="35.0040354" lon="32.3876633">
<ele>265.61</ele>
<time>2015-04-25T10:19:54Z</time>
</trkpt>
<trkpt lat="35.0039908" lon="32.3876233">
<ele>266.10</ele>
<time>2015-04-25T10:19:56Z</time>
</trkpt>
<trkpt lat="35.0039506" lon="32.3875866">
<ele>266.22</ele>
<time>2015-04-25T10:19:58Z</time>
</trkpt>
<trkpt lat="35.0039146" lon="32.3875496">
<ele>265.50</ele>
<time>2015-04-25T10:20:00Z</time>
</trkpt>
<trkpt lat="35.0038763" lon="32.3875190">
<ele>265.57</ele>
<time>2015-04-25T10:20:02Z</time>
</trkpt>
<trkpt lat="35.0038273" lon="32.3874811">
<ele>265.88</ele>
<time>2015-04-25T10:20:05Z</time>
</trkpt>
<trkpt lat="35.0037898" lon="32.3874314">
<ele>265.42</ele>
<time>2015-04-25T10:20:09Z</time>
</trkpt>
<trkpt lat="35.0037441" lon="32.3873735">
<ele>266.61</ele>
<time>2015-04-25T10:20:12Z</time>
</trkpt>
<trkpt lat="35.0036857" lon="32.3873337">
<ele>267.60</ele>
<time>2015-04-25T10:20:14Z</time>
</trkpt>
<trkpt lat="35.0036256" lon="32.3872906">
<ele>268.59</ele>
<time>2015-04-25T10:20:16Z</time>
</trkpt>
<trkpt lat="35.0035720" lon="32.3872458">
<ele>268.84</ele>
<time>2015-04-25T10:20:18Z</time>
</trkpt>
<trkpt lat="35.0035240" lon="32.3872007">
<ele>269.40</ele>
<time>2015-04-25T10:20:20Z</time>
</trkpt>
<trkpt lat="35.0034791" lon="32.3871584">
<ele>270.04</ele>
<time>2015-04-25T10:20:22Z</time>
</trkpt>
<trkpt lat="35.0034322" lon="32.3871221">
<ele>270.70</ele>
<time>2015-04-25T10:20:24Z</time>
</trkpt>
<trkpt lat="35.0033796" lon="32.3870876">
<ele>270.87</ele>
<time>2015-04-25T10:20:26Z</time>
</trkpt>
<trkpt lat="35.0033304" lon="32.3870500">
<ele>270.91</ele>
<time>2015-04-25T10:20:28Z</time>
</trkpt>
<trkpt lat="35.0032815" lon="32.3870026">
<ele>270.92</ele>
<time>2015-04-25T10:20:30Z</time>
</trkpt>
<trkpt lat="35.0032318" lon="32.3869453">
<ele>271.42</ele>
<time>2015-04-25T10:20:32Z</time>
</trkpt>
<trkpt lat="35.0031895" lon="32.3868846">
<ele>271.80</ele>
<time>2015-04-25T10:20:34Z</time>
</trkpt>
<trkpt lat="35.0031532" lon="32.3868251">
<ele>271.89</ele>
<time>2015-04-25T10:20:36Z</time>
</trkpt>
<trkpt lat="35.0031273" lon="32.3867703">
<ele>271.92</ele>
<time>2015-04-25T10:20:38Z</time>
</trkpt>
<trkpt lat="35.0031025" lon="32.3867149">
<ele>271.42</ele>
<time>2015-04-25T10:20:42Z</time>
</trkpt>
<trkpt lat="35.0030758" lon="32.3866452">
<ele>270.52</ele>
<time>2015-04-25T10:20:46Z</time>
</trkpt>
<trkpt lat="35.0030527" lon="32.3865980">
<ele>270.07</ele>
<time>2015-04-25T10:20:48Z</time>
</trkpt>
<trkpt lat="35.0030261" lon="32.3865452">
<ele>269.46</ele>
<time>2015-04-25T10:20:50Z</time>
</trkpt>
<trkpt lat="35.0029989" lon="32.3864934">
<ele>269.06</ele>
<time>2015-04-25T10:20:52Z</time>
</trkpt>
<trkpt lat="35.0029700" lon="32.3864432">
<ele>267.71</ele>
<time>2015-04-25T10:20:54Z</time>
</trkpt>
<trkpt lat="35.0029443" lon="32.3863927">
<ele>267.37</ele>
<time>2015-04-25T10:20:56Z</time>
</trkpt>
<trkpt lat="35.0029189" lon="32.3863468">
<ele>267.04</ele>
<time>2015-04-25T10:20:58Z</time>
</trkpt>
<trkpt lat="35.0028875" lon="32.3863047">
<ele>265.70</ele>
<time>2015-04-25T10:21:00Z</time>
</trkpt>
<trkpt lat="35.0028520" lon="32.3862551">
<ele>265.87</ele>
<time>2015-04-25T10:21:02Z</time>
</trkpt>
<trkpt lat="35.0028013" lon="32.3861835">
<ele>265.91</ele>
<time>2015-04-25T10:21:04Z</time>
</trkpt>
<trkpt lat="35.0027500" lon="32.3861182">
<ele>265.92</ele>
<time>2015-04-25T10:21:06Z</time>
</trkpt>
<trkpt lat="35.0026953" lon="32.3860664">
<ele>266.42</ele>
<time>2015-04-25T10:21:08Z</time>
</trkpt>
<trkpt lat="35.0026391" lon="32.3860273">
<ele>267.30</ele>
<time>2015-04-25T10:21:10Z</time>
</trkpt>
<trkpt lat="35.0025877" lon="32.3859912">
<ele>267.77</ele>
<time>2015-04-25T10:21:12Z</time>
</trkpt>
<trkpt lat="35.0025419" lon="32.3859627">
<ele>267.14</ele>
<time>2015-04-25T10:21:14Z</time>
</trkpt>
<trkpt lat="35.0024926" lon="32.3859470">
<ele>267.48</ele>
<time>2015-04-25T10:21:16Z</time>
</trkpt>
<trkpt lat="35.0024495" lon="32.3859291">
<ele>267.81</ele>
<time>2015-04-25T10:21:18Z</time>
</trkpt>
<trkpt lat="35.0023849" lon="32.3859275">
<ele>268.04</ele>
<time>2015-04-25T10:21:21Z</time>
</trkpt>
<trkpt lat="35.0023223" lon="32.3859552">
<ele>267.94</ele>
<time>2015-04-25T10:21:24Z</time>
</trkpt>
<trkpt lat="35.0022646" lon="32.3859856">
<ele>269.68</ele>
<time>2015-04-25T10:21:27Z</time>
</trkpt>
<trkpt lat="35.0021986" lon="32.3860090">
<ele>268.64</ele>
<time>2015-04-25T10:21:30Z</time>
</trkpt>
<trkpt lat="35.0021334" lon="32.3860246">
<ele>268.35</ele>
<time>2015-04-25T10:21:32Z</time>
</trkpt>
<trkpt lat="35.0020661" lon="32.3860471">
<ele>267.64</ele>
<time>2015-04-25T10:21:33Z</time>
</trkpt>
<trkpt lat="35.0020136" lon="32.3860647">
<ele>267.28</ele>
<time>2015-04-25T10:21:34Z</time>
</trkpt>
<trkpt lat="35.0019520" lon="32.3860770">
<ele>266.60</ele>
<time>2015-04-25T10:21:35Z</time>
</trkpt>
<trkpt lat="35.0018904" lon="32.3860923">
<ele>266.26</ele>
<time>2015-04-25T10:21:36Z</time>
</trkpt>
<trkpt lat="35.0018294" lon="32.3861058">
<ele>266.09</ele>
<time>2015-04-25T10:21:37Z</time>
</trkpt>
<trkpt lat="35.0017631" lon="32.3861219">
<ele>265.51</ele>
<time>2015-04-25T10:21:38Z</time>
</trkpt>
<trkpt lat="35.0017022" lon="32.3861401">
<ele>265.22</ele>
<time>2015-04-25T10:21:39Z</time>
</trkpt>
<trkpt lat="35.0016341" lon="32.3861624">
<ele>265.07</ele>
<time>2015-04-25T10:21:40Z</time>
</trkpt>
<trkpt lat="35.0015757" lon="32.3861886">
<ele>264.50</ele>
<time>2015-04-25T10:21:41Z</time>
</trkpt>
<trkpt lat="35.0015176" lon="32.3862011">
<ele>264.21</ele>
<time>2015-04-25T10:21:42Z</time>
</trkpt>
<trkpt lat="35.0014546" lon="32.3862186">
<ele>264.07</ele>
<time>2015-04-25T10:21:43Z</time>
</trkpt>
<trkpt lat="35.0013936" lon="32.3862402">
<ele>264.00</ele>
<time>2015-04-25T10:21:44Z</time>
</trkpt>
<trkpt lat="35.0013347" lon="32.3862622">
<ele>264.46</ele>
<time>2015-04-25T10:21:45Z</time>
</trkpt>
<trkpt lat="35.0012924" lon="32.3862914">
<ele>264.19</ele>
<time>2015-04-25T10:21:46Z</time>
</trkpt>
<trkpt lat="35.0012393" lon="32.3863094">
<ele>263.56</ele>
<time>2015-04-25T10:21:47Z</time>
</trkpt>
<trkpt lat="35.0011857" lon="32.3863340">
<ele>263.24</ele>
<time>2015-04-25T10:21:48Z</time>
</trkpt>
<trkpt lat="35.0011322" lon="32.3863735">
<ele>263.08</ele>
<time>2015-04-25T10:21:49Z</time>
</trkpt>
<trkpt lat="35.0010864" lon="32.3864064">
<ele>263.00</ele>
<time>2015-04-25T10:21:50Z</time>
</trkpt>
<trkpt lat="35.0010429" lon="32.3864277">
<ele>262.46</ele>
<time>2015-04-25T10:21:51Z</time>
</trkpt>
<trkpt lat="35.0009969" lon="32.3864516">
<ele>261.69</ele>
<time>2015-04-25T10:21:52Z</time>
</trkpt>
<trkpt lat="35.0009398" lon="32.3864516">
<ele>260.81</ele>
<time>2015-04-25T10:21:53Z</time>
</trkpt>
<trkpt lat="35.0008858" lon="32.3864277">
<ele>260.37</ele>
<time>2015-04-25T10:21:54Z</time>
</trkpt>
<trkpt lat="35.0008412" lon="32.3864008">
<ele>260.15</ele>
<time>2015-04-25T10:21:55Z</time>
</trkpt>
<trkpt lat="35.0008563" lon="32.3863150">
<ele>259.48</ele>
<time>2015-04-25T10:21:57Z</time>
</trkpt>
<trkpt lat="35.0008871" lon="32.3862398">
<ele>260.31</ele>
<time>2015-04-25T10:21:59Z</time>
</trkpt>
<trkpt lat="35.0009144" lon="32.3861755">
<ele>260.77</ele>
<time>2015-04-25T10:22:01Z</time>
</trkpt>
<trkpt lat="35.0009476" lon="32.3861151">
<ele>261.64</ele>
<time>2015-04-25T10:22:03Z</time>
</trkpt>
<trkpt lat="35.0009872" lon="32.3860732">
<ele>262.60</ele>
<time>2015-04-25T10:22:05Z</time>
</trkpt>
<trkpt lat="35.0010285" lon="32.3860270">
<ele>263.38</ele>
<time>2015-04-25T10:22:08Z</time>
</trkpt>
<trkpt lat="35.0010763" lon="32.3859826">
<ele>265.48</ele>
<time>2015-04-25T10:22:11Z</time>
</trkpt>
<trkpt lat="35.0011280" lon="32.3859282">
<ele>266.62</ele>
<time>2015-04-25T10:22:14Z</time>
</trkpt>
<trkpt lat="35.0011616" lon="32.3858881">
<ele>267.60</ele>
<time>2015-04-25T10:22:16Z</time>
</trkpt>
<trkpt lat="35.0011964" lon="32.3858495">
<ele>267.84</ele>
<time>2015-04-25T10:22:18Z</time>
</trkpt>
<trkpt lat="35.0012460" lon="32.3857950">
<ele>269.29</ele>
<time>2015-04-25T10:22:21Z</time>
</trkpt>
<trkpt lat="35.0012925" lon="32.3857379">
<ele>271.97</ele>
<time>2015-04-25T10:22:24Z</time>
</trkpt>
<trkpt lat="35.0013214" lon="32.3856917">
<ele>272.69</ele>
<time>2015-04-25T10:22:26Z</time>
</trkpt>
<trkpt lat="35.0013516" lon="32.3856454">
<ele>272.87</ele>
<time>2015-04-25T10:22:28Z</time>
</trkpt>
<trkpt lat="35.0013864" lon="32.3856039">
<ele>273.66</ele>
<time>2015-04-25T10:22:30Z</time>
</trkpt>
<trkpt lat="35.0014231" lon="32.3855610">
<ele>274.36</ele>
<time>2015-04-25T10:22:32Z</time>
</trkpt>
<trkpt lat="35.0014555" lon="32.3855163">
<ele>274.78</ele>
<time>2015-04-25T10:22:34Z</time>
</trkpt>
<trkpt lat="35.0014828" lon="32.3854710">
<ele>275.39</ele>
<time>2015-04-25T10:22:36Z</time>
</trkpt>
<trkpt lat="35.0015152" lon="32.3854297">
<ele>275.04</ele>
<time>2015-04-25T10:22:38Z</time>
</trkpt>
<trkpt lat="35.0015481" lon="32.3853860">
<ele>275.70</ele>
<time>2015-04-25T10:22:40Z</time>
</trkpt>
<trkpt lat="35.0015718" lon="32.3853341">
<ele>276.62</ele>
<time>2015-04-25T10:22:42Z</time>
</trkpt>
<trkpt lat="35.0015880" lon="32.3852790">
<ele>277.60</ele>
<time>2015-04-25T10:22:44Z</time>
</trkpt>
<trkpt lat="35.0016119" lon="32.3852056">
<ele>278.13</ele>
<time>2015-04-25T10:22:47Z</time>
</trkpt>
<trkpt lat="35.0016181" lon="32.3851400">
<ele>277.95</ele>
<time>2015-04-25T10:22:50Z</time>
</trkpt>
<trkpt lat="35.0016200" lon="32.3850785">
<ele>277.68</ele>
<time>2015-04-25T10:22:53Z</time>
</trkpt>
<trkpt lat="35.0016334" lon="32.3850188">
<ele>277.64</ele>
<time>2015-04-25T10:22:56Z</time>
</trkpt>
<trkpt lat="35.0016400" lon="32.3849598">
<ele>277.51</ele>
<time>2015-04-25T10:22:59Z</time>
</trkpt>
<trkpt lat="35.0016351" lon="32.3848957">
<ele>278.62</ele>
<time>2015-04-25T10:23:02Z</time>
</trkpt>
<trkpt lat="35.0016271" lon="32.3848212">
<ele>280.51</ele>
<time>2015-04-25T10:23:05Z</time>
</trkpt>
<trkpt lat="35.0016172" lon="32.3847661">
<ele>280.82</ele>
<time>2015-04-25T10:23:07Z</time>
</trkpt>
<trkpt lat="35.0016081" lon="32.3847092">
<ele>281.65</ele>
<time>2015-04-25T10:23:09Z</time>
</trkpt>
<trkpt lat="35.0015936" lon="32.3846540">
<ele>281.86</ele>
<time>2015-04-25T10:23:11Z</time>
</trkpt>
<trkpt lat="35.0015753" lon="32.3845974">
<ele>282.66</ele>
<time>2015-04-25T10:23:13Z</time>
</trkpt>
<trkpt lat="35.0015587" lon="32.3845392">
<ele>283.61</ele>
<time>2015-04-25T10:23:15Z</time>
</trkpt>
<trkpt lat="35.0015492" lon="32.3844774">
<ele>283.35</ele>
<time>2015-04-25T10:23:17Z</time>
</trkpt>
<trkpt lat="35.0015416" lon="32.3844214">
<ele>285.03</ele>
<time>2015-04-25T10:23:19Z</time>
</trkpt>
<trkpt lat="35.0015236" lon="32.3843681">
<ele>286.56</ele>
<time>2015-04-25T10:23:22Z</time>
</trkpt>
<trkpt lat="35.0015052" lon="32.3843123">
<ele>286.90</ele>
<time>2015-04-25T10:23:26Z</time>
</trkpt>
<trkpt lat="35.0014758" lon="32.3842500">
<ele>287.86</ele>
<time>2015-04-25T10:23:30Z</time>
</trkpt>
<trkpt lat="35.0014616" lon="32.3841953">
<ele>287.92</ele>
<time>2015-04-25T10:23:33Z</time>
</trkpt>
<trkpt lat="35.0014442" lon="32.3841338">
<ele>286.67</ele>
<time>2015-04-25T10:23:36Z</time>
</trkpt>
<trkpt lat="35.0014234" lon="32.3840751">
<ele>285.77</ele>
<time>2015-04-25T10:23:39Z</time>
</trkpt>
<trkpt lat="35.0014010" lon="32.3840185">
<ele>285.03</ele>
<time>2015-04-25T10:23:42Z</time>
</trkpt>
<trkpt lat="35.0013709" lon="32.3839617">
<ele>286.19</ele>
<time>2015-04-25T10:23:45Z</time>
</trkpt>
<trkpt lat="35.0013304" lon="32.3839114">
<ele>287.58</ele>
<time>2015-04-25T10:23:48Z</time>
</trkpt>
<trkpt lat="35.0012869" lon="32.3838653">
<ele>288.63</ele>
<time>2015-04-25T10:23:51Z</time>
</trkpt>
<trkpt lat="35.0012442" lon="32.3838184">
<ele>289.64</ele>
<time>2015-04-25T10:23:54Z</time>
</trkpt>
<trkpt lat="35.0012065" lon="32.3837693">
<ele>289.39</ele>
<time>2015-04-25T10:23:57Z</time>
</trkpt>
<trkpt lat="35.0011714" lon="32.3837286">
<ele>288.23</ele>
<time>2015-04-25T10:24:00Z</time>
</trkpt>
<trkpt lat="35.0011203" lon="32.3836835">
<ele>288.32</ele>
<time>2015-04-25T10:24:04Z</time>
</trkpt>
<trkpt lat="35.0010824" lon="32.3836512">
<ele>289.22</ele>
<time>2015-04-25T10:24:07Z</time>
</trkpt>
<trkpt lat="35.0010408" lon="32.3836136">
<ele>290.09</ele>
<time>2015-04-25T10:24:10Z</time>
</trkpt>
<trkpt lat="35.0009986" lon="32.3835668">
<ele>290.82</ele>
<time>2015-04-25T10:24:13Z</time>
</trkpt>
<trkpt lat="35.0009563" lon="32.3835203">
<ele>290.66</ele>
<time>2015-04-25T10:24:16Z</time>
</trkpt>
<trkpt lat="35.0009114" lon="32.3834767">
<ele>291.02</ele>
<time>2015-04-25T10:24:19Z</time>
</trkpt>
<trkpt lat="35.0008702" lon="32.3834277">
<ele>292.69</ele>
<time>2015-04-25T10:24:22Z</time>
</trkpt>
<trkpt lat="35.0008361" lon="32.3833765">
<ele>292.77</ele>
<time>2015-04-25T10:24:25Z</time>
</trkpt>
<trkpt lat="35.0007917" lon="32.3833313">
<ele>292.98</ele>
<time>2015-04-25T10:24:29Z</time>
</trkpt>
<trkpt lat="35.0007567" lon="32.3832918">
<ele>293.43</ele>
<time>2015-04-25T10:24:33Z</time>
</trkpt>
<trkpt lat="35.0007271" lon="32.3832416">
<ele>295.21</ele>
<time>2015-04-25T10:24:37Z</time>
</trkpt>
<trkpt lat="35.0006856" lon="32.3831908">
<ele>294.94</ele>
<time>2015-04-25T10:24:41Z</time>
</trkpt>
<trkpt lat="35.0006513" lon="32.3831486">
<ele>294.93</ele>
<time>2015-04-25T10:24:44Z</time>
</trkpt>
<trkpt lat="35.0006167" lon="32.3831056">
<ele>295.55</ele>
<time>2015-04-25T10:24:47Z</time>
</trkpt>
<trkpt lat="35.0005835" lon="32.3830585">
<ele>295.75</ele>
<time>2015-04-25T10:24:50Z</time>
</trkpt>
<trkpt lat="35.0005460" lon="32.3830203">
<ele>296.40</ele>
<time>2015-04-25T10:24:53Z</time>
</trkpt>
<trkpt lat="35.0005053" lon="32.3829866">
<ele>297.98</ele>
<time>2015-04-25T10:24:56Z</time>
</trkpt>
<trkpt lat="35.0004650" lon="32.3829493">
<ele>299.56</ele>
<time>2015-04-25T10:24:59Z</time>
</trkpt>
<trkpt lat="35.0004297" lon="32.3829101">
<ele>299.38</ele>
<time>2015-04-25T10:25:02Z</time>
</trkpt>
<trkpt lat="35.0003994" lon="32.3828644">
<ele>298.61</ele>
<time>2015-04-25T10:25:05Z</time>
</trkpt>
<trkpt lat="35.0003640" lon="32.3828222">
<ele>298.89</ele>
<time>2015-04-25T10:25:08Z</time>
</trkpt>
<trkpt lat="35.0003279" lon="32.3827736">
<ele>297.92</ele>
<time>2015-04-25T10:25:12Z</time>
</trkpt>
<trkpt lat="35.0002870" lon="32.3827234">
<ele>297.11</ele>
<time>2015-04-25T10:25:16Z</time>
</trkpt>
<trkpt lat="35.0002506" lon="32.3826816">
<ele>297.45</ele>
<time>2015-04-25T10:25:19Z</time>
</trkpt>
<trkpt lat="35.0002120" lon="32.3826459">
<ele>297.87</ele>
<time>2015-04-25T10:25:22Z</time>
</trkpt>
<trkpt lat="35.0001725" lon="32.3826155">
<ele>298.29</ele>
<time>2015-04-25T10:25:25Z</time>
</trkpt>
<trkpt lat="35.0001307" lon="32.3825929">
<ele>297.97</ele>
<time>2015-04-25T10:25:28Z</time>
</trkpt>
<trkpt lat="35.0000872" lon="32.3825779">
<ele>299.18</ele>
<time>2015-04-25T10:25:31Z</time>
</trkpt>
<trkpt lat="35.0000293" lon="32.3825523">
<ele>299.88</ele>
<time>2015-04-25T10:25:35Z</time>
</trkpt>
<trkpt lat="34.9999839" lon="32.3825293">
<ele>300.79</ele>
<time>2015-04-25T10:25:38Z</time>
</trkpt>
<trkpt lat="34.9999394" lon="32.3825023">
<ele>301.28</ele>
<time>2015-04-25T10:25:41Z</time>
</trkpt>
<trkpt lat="34.9998907" lon="32.3824696">
<ele>301.09</ele>
<time>2015-04-25T10:25:44Z</time>
</trkpt>
<trkpt lat="34.9998465" lon="32.3824374">
<ele>301.72</ele>
<time>2015-04-25T10:25:46Z</time>
</trkpt>
<trkpt lat="34.9998001" lon="32.3824041">
<ele>302.37</ele>
<time>2015-04-25T10:25:48Z</time>
</trkpt>
<trkpt lat="34.9997568" lon="32.3823725">
<ele>302.79</ele>
<time>2015-04-25T10:25:50Z</time>
</trkpt>
<trkpt lat="34.9997142" lon="32.3823391">
<ele>304.14</ele>
<time>2015-04-25T10:25:52Z</time>
</trkpt>
<trkpt lat="34.9996749" lon="32.3823058">
<ele>305.23</ele>
<time>2015-04-25T10:25:54Z</time>
</trkpt>
<trkpt lat="34.9996403" lon="32.3822700">
<ele>306.50</ele>
<time>2015-04-25T10:25:56Z</time>
</trkpt>
<trkpt lat="34.9995974" lon="32.3822277">
<ele>306.87</ele>
<time>2015-04-25T10:25:59Z</time>
</trkpt>
<trkpt lat="34.9995526" lon="32.3821994">
<ele>307.17</ele>
<time>2015-04-25T10:26:02Z</time>
</trkpt>
<trkpt lat="34.9995083" lon="32.3821720">
<ele>307.83</ele>
<time>2015-04-25T10:26:05Z</time>
</trkpt>
<trkpt lat="34.9994753" lon="32.3821292">
<ele>308.41</ele>
<time>2015-04-25T10:26:08Z</time>
</trkpt>
<trkpt lat="34.9994351" lon="32.3820909">
<ele>309.74</ele>
<time>2015-04-25T10:26:11Z</time>
</trkpt>
<trkpt lat="34.9994028" lon="32.3820441">
<ele>309.15</ele>
<time>2015-04-25T10:26:14Z</time>
</trkpt>
<trkpt lat="34.9993720" lon="32.3819896">
<ele>309.70</ele>
<time>2015-04-25T10:26:17Z</time>
</trkpt>
<trkpt lat="34.9993294" lon="32.3819422">
<ele>310.15</ele>
<time>2015-04-25T10:26:20Z</time>
</trkpt>
<trkpt lat="34.9992812" lon="32.3819075">
<ele>309.95</ele>
<time>2015-04-25T10:26:23Z</time>
</trkpt>
<trkpt lat="34.9992350" lon="32.3818824">
<ele>309.93</ele>
<time>2015-04-25T10:26:26Z</time>
</trkpt>
<trkpt lat="34.9991877" lon="32.3818554">
<ele>309.68</ele>
<time>2015-04-25T10:26:29Z</time>
</trkpt>
<trkpt lat="34.9991398" lon="32.3818257">
<ele>311.27</ele>
<time>2015-04-25T10:26:32Z</time>
</trkpt>
<trkpt lat="34.9990933" lon="32.3817900">
<ele>310.97</ele>
<time>2015-04-25T10:26:35Z</time>
</trkpt>
<trkpt lat="34.9990489" lon="32.3817466">
<ele>311.43</ele>
<time>2015-04-25T10:26:38Z</time>
</trkpt>
<trkpt lat="34.9990094" lon="32.3817079">
<ele>312.11</ele>
<time>2015-04-25T10:26:41Z</time>
</trkpt>
<trkpt lat="34.9989743" lon="32.3816708">
<ele>312.45</ele>
<time>2015-04-25T10:26:44Z</time>
</trkpt>
<trkpt lat="34.9989386" lon="32.3816370">
<ele>312.87</ele>
<time>2015-04-25T10:26:47Z</time>
</trkpt>
<trkpt lat="34.9988911" lon="32.3816246">
<ele>313.36</ele>
<time>2015-04-25T10:26:51Z</time>
</trkpt>
<trkpt lat="34.9988926" lon="32.3816826">
<ele>308.33</ele>
<time>2015-04-25T10:27:27Z</time>
</trkpt>
<trkpt lat="34.9988486" lon="32.3816597">
<ele>308.08</ele>
<time>2015-04-25T10:28:11Z</time>
</trkpt>
<trkpt lat="34.9987953" lon="32.3817009">
<ele>307.68</ele>
<time>2015-04-25T10:28:15Z</time>
</trkpt>
<trkpt lat="34.9987482" lon="32.3817563">
<ele>309.52</ele>
<time>2015-04-25T10:28:18Z</time>
</trkpt>
<trkpt lat="34.9987208" lon="32.3818148">
<ele>310.75</ele>
<time>2015-04-25T10:28:21Z</time>
</trkpt>
<trkpt lat="34.9987059" lon="32.3818846">
<ele>310.65</ele>
<time>2015-04-25T10:28:24Z</time>
</trkpt>
<trkpt lat="34.9986773" lon="32.3819575">
<ele>310.02</ele>
<time>2015-04-25T10:28:27Z</time>
</trkpt>
<trkpt lat="34.9986638" lon="32.3820106">
<ele>309.95</ele>
<time>2015-04-25T10:28:29Z</time>
</trkpt>
<trkpt lat="34.9986544" lon="32.3820815">
<ele>309.93</ele>
<time>2015-04-25T10:28:32Z</time>
</trkpt>
<trkpt lat="34.9986406" lon="32.3821532">
<ele>310.68</ele>
<time>2015-04-25T10:28:35Z</time>
</trkpt>
<trkpt lat="34.9986230" lon="32.3822048">
<ele>310.11</ele>
<time>2015-04-25T10:28:37Z</time>
</trkpt>
<trkpt lat="34.9986037" lon="32.3822834">
<ele>310.70</ele>
<time>2015-04-25T10:28:40Z</time>
</trkpt>
<trkpt lat="34.9985892" lon="32.3823378">
<ele>310.87</ele>
<time>2015-04-25T10:28:42Z</time>
</trkpt>
<trkpt lat="34.9985756" lon="32.3823904">
<ele>310.91</ele>
<time>2015-04-25T10:28:44Z</time>
</trkpt>
<trkpt lat="34.9985540" lon="32.3824660">
<ele>310.05</ele>
<time>2015-04-25T10:28:47Z</time>
</trkpt>
<trkpt lat="34.9985385" lon="32.3825422">
<ele>310.82</ele>
<time>2015-04-25T10:28:50Z</time>
</trkpt>
<trkpt lat="34.9985317" lon="32.3826192">
<ele>310.41</ele>
<time>2015-04-25T10:28:53Z</time>
</trkpt>
<trkpt lat="34.9985223" lon="32.3826904">
<ele>310.11</ele>
<time>2015-04-25T10:28:56Z</time>
</trkpt>
<trkpt lat="34.9985095" lon="32.3827552">
<ele>310.45</ele>
<time>2015-04-25T10:28:59Z</time>
</trkpt>
<trkpt lat="34.9984914" lon="32.3828228">
<ele>311.74</ele>
<time>2015-04-25T10:29:02Z</time>
</trkpt>
<trkpt lat="34.9984631" lon="32.3828829">
<ele>312.28</ele>
<time>2015-04-25T10:29:05Z</time>
</trkpt>
<trkpt lat="34.9984457" lon="32.3829453">
<ele>312.59</ele>
<time>2015-04-25T10:29:08Z</time>
</trkpt>
<trkpt lat="34.9984255" lon="32.3830026">
<ele>312.88</ele>
<time>2015-04-25T10:29:11Z</time>
</trkpt>
<trkpt lat="34.9983997" lon="32.3830688">
<ele>313.42</ele>
<time>2015-04-25T10:29:15Z</time>
</trkpt>
<trkpt lat="34.9983694" lon="32.3831319">
<ele>313.86</ele>
<time>2015-04-25T10:29:18Z</time>
</trkpt>
<trkpt lat="34.9983345" lon="32.3831810">
<ele>314.42</ele>
<time>2015-04-25T10:29:21Z</time>
</trkpt>
<trkpt lat="34.9983168" lon="32.3831206">
<ele>312.96</ele>
<time>2015-04-25T10:31:19Z</time>
</trkpt>
<trkpt lat="34.9983611" lon="32.3830730">
<ele>312.24</ele>
<time>2015-04-25T10:31:23Z</time>
</trkpt>
<trkpt lat="34.9983870" lon="32.3831404">
<ele>311.46</ele>
<time>2015-04-25T10:31:26Z</time>
</trkpt>
<trkpt lat="34.9983543" lon="32.3831940">
<ele>311.06</ele>
<time>2015-04-25T10:31:28Z</time>
</trkpt>
<trkpt lat="34.9983172" lon="32.3832440">
<ele>310.71</ele>
<time>2015-04-25T10:31:30Z</time>
</trkpt>
<trkpt lat="34.9982852" lon="32.3833000">
<ele>310.62</ele>
<time>2015-04-25T10:31:32Z</time>
</trkpt>
<trkpt lat="34.9982477" lon="32.3833521">
<ele>312.35</ele>
<time>2015-04-25T10:31:34Z</time>
</trkpt>
<trkpt lat="34.9982062" lon="32.3833980">
<ele>312.53</ele>
<time>2015-04-25T10:31:36Z</time>
</trkpt>
<trkpt lat="34.9981611" lon="32.3834388">
<ele>312.58</ele>
<time>2015-04-25T10:31:38Z</time>
</trkpt>
<trkpt lat="34.9981154" lon="32.3834655">
<ele>312.84</ele>
<time>2015-04-25T10:31:40Z</time>
</trkpt>
<trkpt lat="34.9980555" lon="32.3834975">
<ele>314.04</ele>
<time>2015-04-25T10:31:43Z</time>
</trkpt>
<trkpt lat="34.9979938" lon="32.3835075">
<ele>313.94</ele>
<time>2015-04-25T10:31:46Z</time>
</trkpt>
<trkpt lat="34.9979355" lon="32.3835154">
<ele>314.80</ele>
<time>2015-04-25T10:31:49Z</time>
</trkpt>
<trkpt lat="34.9978858" lon="32.3835061">
<ele>315.78</ele>
<time>2015-04-25T10:31:52Z</time>
</trkpt>
<trkpt lat="34.9978294" lon="32.3834894">
<ele>316.35</ele>
<time>2015-04-25T10:31:56Z</time>
</trkpt>
<trkpt lat="34.9977869" lon="32.3834509">
<ele>316.26</ele>
<time>2015-04-25T10:32:00Z</time>
</trkpt>
<trkpt lat="34.9977384" lon="32.3834336">
<ele>316.88</ele>
<time>2015-04-25T10:32:04Z</time>
</trkpt>
<trkpt lat="34.9976866" lon="32.3834109">
<ele>317.36</ele>
<time>2015-04-25T10:32:08Z</time>
</trkpt>
<trkpt lat="34.9976404" lon="32.3834018">
<ele>317.85</ele>
<time>2015-04-25T10:32:11Z</time>
</trkpt>
<trkpt lat="34.9975966" lon="32.3833770">
<ele>317.92</ele>
<time>2015-04-25T10:32:14Z</time>
</trkpt>
<trkpt lat="34.9975578" lon="32.3833405">
<ele>317.67</ele>
<time>2015-04-25T10:32:17Z</time>
</trkpt>
<trkpt lat="34.9975172" lon="32.3833056">
<ele>317.89</ele>
<time>2015-04-25T10:32:20Z</time>
</trkpt>
<trkpt lat="34.9974755" lon="32.3832676">
<ele>318.80</ele>
<time>2015-04-25T10:32:23Z</time>
</trkpt>
<trkpt lat="34.9974329" lon="32.3832302">
<ele>319.41</ele>
<time>2015-04-25T10:32:26Z</time>
</trkpt>
<trkpt lat="34.9973813" lon="32.3832019">
<ele>320.36</ele>
<time>2015-04-25T10:32:29Z</time>
</trkpt>
<trkpt lat="34.9973264" lon="32.3831759">
<ele>321.60</ele>
<time>2015-04-25T10:32:32Z</time>
</trkpt>
<trkpt lat="34.9972734" lon="32.3831481">
<ele>322.38</ele>
<time>2015-04-25T10:32:35Z</time>
</trkpt>
<trkpt lat="34.9972219" lon="32.3831138">
<ele>322.86</ele>
<time>2015-04-25T10:32:38Z</time>
</trkpt>
<trkpt lat="34.9971704" lon="32.3830923">
<ele>323.79</ele>
<time>2015-04-25T10:32:41Z</time>
</trkpt>
<trkpt lat="34.9971186" lon="32.3830822">
<ele>324.91</ele>
<time>2015-04-25T10:32:44Z</time>
</trkpt>
<trkpt lat="34.9970670" lon="32.3830662">
<ele>326.55</ele>
<time>2015-04-25T10:32:47Z</time>
</trkpt>
<trkpt lat="34.9970092" lon="32.3830455">
<ele>328.25</ele>
<time>2015-04-25T10:32:50Z</time>
</trkpt>
<trkpt lat="34.9969573" lon="32.3830164">
<ele>328.59</ele>
<time>2015-04-25T10:32:53Z</time>
</trkpt>
<trkpt lat="34.9969082" lon="32.3829941">
<ele>328.01</ele>
<time>2015-04-25T10:32:56Z</time>
</trkpt>
<trkpt lat="34.9968636" lon="32.3829565">
<ele>327.94</ele>
<time>2015-04-25T10:32:59Z</time>
</trkpt>
<trkpt lat="34.9968218" lon="32.3829120">
<ele>327.05</ele>
<time>2015-04-25T10:33:02Z</time>
</trkpt>
<trkpt lat="34.9967852" lon="32.3828626">
<ele>327.19</ele>
<time>2015-04-25T10:33:05Z</time>
</trkpt>
<trkpt lat="34.9967599" lon="32.3828091">
<ele>327.21</ele>
<time>2015-04-25T10:33:08Z</time>
</trkpt>
<trkpt lat="34.9967451" lon="32.3827552">
<ele>325.21</ele>
<time>2015-04-25T10:33:11Z</time>
</trkpt>
<trkpt lat="34.9967456" lon="32.3826977">
<ele>324.21</ele>
<time>2015-04-25T10:33:14Z</time>
</trkpt>
<trkpt lat="34.9967488" lon="32.3826397">
<ele>323.96</ele>
<time>2015-04-25T10:33:17Z</time>
</trkpt>
<trkpt lat="34.9967551" lon="32.3825812">
<ele>323.80</ele>
<time>2015-04-25T10:33:20Z</time>
</trkpt>
<trkpt lat="34.9967580" lon="32.3825199">
<ele>324.78</ele>
<time>2015-04-25T10:33:23Z</time>
</trkpt>
<trkpt lat="34.9967698" lon="32.3824545">
<ele>325.66</ele>
<time>2015-04-25T10:33:26Z</time>
</trkpt>
<trkpt lat="34.9967932" lon="32.3823925">
<ele>325.14</ele>
<time>2015-04-25T10:33:29Z</time>
</trkpt>
<trkpt lat="34.9968190" lon="32.3823266">
<ele>324.20</ele>
<time>2015-04-25T10:33:32Z</time>
</trkpt>
<trkpt lat="34.9968419" lon="32.3822605">
<ele>324.71</ele>
<time>2015-04-25T10:33:35Z</time>
</trkpt>
<trkpt lat="34.9968457" lon="32.3821913">
<ele>324.90</ele>
<time>2015-04-25T10:33:38Z</time>
</trkpt>
<trkpt lat="34.9968284" lon="32.3821332">
<ele>325.42</ele>
<time>2015-04-25T10:33:41Z</time>
</trkpt>
<trkpt lat="34.9967934" lon="32.3820835">
<ele>326.27</ele>
<time>2015-04-25T10:33:45Z</time>
</trkpt>
<trkpt lat="34.9967395" lon="32.3821090">
<ele>326.38</ele>
<time>2015-04-25T10:33:49Z</time>
</trkpt>
<trkpt lat="34.9967108" lon="32.3821724">
<ele>326.36</ele>
<time>2015-04-25T10:33:52Z</time>
</trkpt>
<trkpt lat="34.9966810" lon="32.3822257">
<ele>326.85</ele>
<time>2015-04-25T10:33:55Z</time>
</trkpt>
<trkpt lat="34.9966555" lon="32.3822872">
<ele>328.29</ele>
<time>2015-04-25T10:33:58Z</time>
</trkpt>
<trkpt lat="34.9966208" lon="32.3823382">
<ele>329.85</ele>
<time>2015-04-25T10:34:01Z</time>
</trkpt>
<trkpt lat="34.9965874" lon="32.3823914">
<ele>330.67</ele>
<time>2015-04-25T10:34:04Z</time>
</trkpt>
<trkpt lat="34.9965534" lon="32.3824418">
<ele>331.77</ele>
<time>2015-04-25T10:34:07Z</time>
</trkpt>
<trkpt lat="34.9965138" lon="32.3824716">
<ele>331.66</ele>
<time>2015-04-25T10:34:10Z</time>
</trkpt>
<trkpt lat="34.9964604" lon="32.3824974">
<ele>330.97</ele>
<time>2015-04-25T10:34:14Z</time>
</trkpt>
<trkpt lat="34.9964143" lon="32.3825102">
<ele>332.56</ele>
<time>2015-04-25T10:34:17Z</time>
</trkpt>
<trkpt lat="34.9963732" lon="32.3825357">
<ele>332.88</ele>
<time>2015-04-25T10:34:20Z</time>
</trkpt>
<trkpt lat="34.9963247" lon="32.3825456">
<ele>334.30</ele>
<time>2015-04-25T10:34:24Z</time>
</trkpt>
<trkpt lat="34.9962796" lon="32.3825575">
<ele>337.01</ele>
<time>2015-04-25T10:34:28Z</time>
</trkpt>
<trkpt lat="34.9962318" lon="32.3825550">
<ele>338.62</ele>
<time>2015-04-25T10:34:32Z</time>
</trkpt>
<trkpt lat="34.9961712" lon="32.3825654">
<ele>340.28</ele>
<time>2015-04-25T10:34:36Z</time>
</trkpt>
<trkpt lat="34.9961208" lon="32.3825636">
<ele>340.09</ele>
<time>2015-04-25T10:34:39Z</time>
</trkpt>
<trkpt lat="34.9960676" lon="32.3825524">
<ele>340.82</ele>
<time>2015-04-25T10:34:42Z</time>
</trkpt>
<trkpt lat="34.9960151" lon="32.3825433">
<ele>340.91</ele>
<time>2015-04-25T10:34:45Z</time>
</trkpt>
<trkpt lat="34.9959565" lon="32.3825308">
<ele>341.80</ele>
<time>2015-04-25T10:34:48Z</time>
</trkpt>
<trkpt lat="34.9959028" lon="32.3825218">
<ele>341.91</ele>
<time>2015-04-25T10:34:51Z</time>
</trkpt>
<trkpt lat="34.9958523" lon="32.3825140">
<ele>341.92</ele>
<time>2015-04-25T10:34:54Z</time>
</trkpt>
<trkpt lat="34.9958027" lon="32.3825043">
<ele>342.80</ele>
<time>2015-04-25T10:34:57Z</time>
</trkpt>
<trkpt lat="34.9957771" lon="32.3824460">
<ele>341.53</ele>
<time>2015-04-25T10:35:00Z</time>
</trkpt>
<trkpt lat="34.9957610" lon="32.3823835">
<ele>341.50</ele>
<time>2015-04-25T10:35:03Z</time>
</trkpt>
<trkpt lat="34.9957387" lon="32.3824432">
<ele>339.43</ele>
<time>2015-04-25T10:35:23Z</time>
</trkpt>
<trkpt lat="34.9957112" lon="32.3824970">
<ele>339.71</ele>
<time>2015-04-25T10:35:27Z</time>
</trkpt>
<trkpt lat="34.9956663" lon="32.3825134">
<ele>339.90</ele>
<time>2015-04-25T10:35:30Z</time>
</trkpt>
<trkpt lat="34.9956160" lon="32.3825200">
<ele>339.92</ele>
<time>2015-04-25T10:35:32Z</time>
</trkpt>
<trkpt lat="34.9955710" lon="32.3825368">
<ele>339.92</ele>
<time>2015-04-25T10:35:34Z</time>
</trkpt>
<trkpt lat="34.9955073" lon="32.3825608">
<ele>340.80</ele>
<time>2015-04-25T10:35:37Z</time>
</trkpt>
<trkpt lat="34.9954428" lon="32.3825772">
<ele>341.66</ele>
<time>2015-04-25T10:35:40Z</time>
</trkpt>
<trkpt lat="34.9953767" lon="32.3825885">
<ele>342.39</ele>
<time>2015-04-25T10:35:43Z</time>
</trkpt>
<trkpt lat="34.9953136" lon="32.3825826">
<ele>342.86</ele>
<time>2015-04-25T10:35:46Z</time>
</trkpt>
<trkpt lat="34.9952565" lon="32.3825620">
<ele>343.42</ele>
<time>2015-04-25T10:35:49Z</time>
</trkpt>
<trkpt lat="34.9952037" lon="32.3825502">
<ele>343.86</ele>
<time>2015-04-25T10:35:52Z</time>
</trkpt>
<trkpt lat="34.9951566" lon="32.3825358">
<ele>344.54</ele>
<time>2015-04-25T10:35:55Z</time>
</trkpt>
<trkpt lat="34.9950999" lon="32.3825206">
<ele>345.75</ele>
<time>2015-04-25T10:35:58Z</time>
</trkpt>
<trkpt lat="34.9950361" lon="32.3825090">
<ele>345.90</ele>
<time>2015-04-25T10:36:01Z</time>
</trkpt>
<trkpt lat="34.9949717" lon="32.3824994">
<ele>346.67</ele>
<time>2015-04-25T10:36:04Z</time>
</trkpt>
<trkpt lat="34.9949072" lon="32.3825082">
<ele>347.77</ele>
<time>2015-04-25T10:36:07Z</time>
</trkpt>
<trkpt lat="34.9948488" lon="32.3825051">
<ele>347.91</ele>
<time>2015-04-25T10:36:10Z</time>
</trkpt>
<trkpt lat="34.9947932" lon="32.3825020">
<ele>349.30</ele>
<time>2015-04-25T10:36:13Z</time>
</trkpt>
<trkpt lat="34.9947382" lon="32.3824923">
<ele>349.85</ele>
<time>2015-04-25T10:36:16Z</time>
</trkpt>
<trkpt lat="34.9946872" lon="32.3824751">
<ele>350.79</ele>
<time>2015-04-25T10:36:19Z</time>
</trkpt>
<trkpt lat="34.9946366" lon="32.3824600">
<ele>350.91</ele>
<time>2015-04-25T10:36:22Z</time>
</trkpt>
<trkpt lat="34.9945905" lon="32.3824358">
<ele>351.67</ele>
<time>2015-04-25T10:36:25Z</time>
</trkpt>
<trkpt lat="34.9945419" lon="32.3824034">
<ele>352.39</ele>
<time>2015-04-25T10:36:28Z</time>
</trkpt>
<trkpt lat="34.9944940" lon="32.3823706">
<ele>352.48</ele>
<time>2015-04-25T10:36:31Z</time>
</trkpt>
<trkpt lat="34.9944475" lon="32.3823290">
<ele>353.49</ele>
<time>2015-04-25T10:36:34Z</time>
</trkpt>
<trkpt lat="34.9944040" lon="32.3822717">
<ele>353.87</ele>
<time>2015-04-25T10:36:37Z</time>
</trkpt>
<trkpt lat="34.9943592" lon="32.3822164">
<ele>354.79</ele>
<time>2015-04-25T10:36:40Z</time>
</trkpt>
<trkpt lat="34.9943284" lon="32.3821746">
<ele>355.39</ele>
<time>2015-04-25T10:36:42Z</time>
</trkpt>
<trkpt lat="34.9943004" lon="32.3821299">
<ele>355.79</ele>
<time>2015-04-25T10:36:44Z</time>
</trkpt>
<trkpt lat="34.9942715" lon="32.3820863">
<ele>355.89</ele>
<time>2015-04-25T10:36:46Z</time>
</trkpt>
<trkpt lat="34.9942457" lon="32.3820402">
<ele>356.67</ele>
<time>2015-04-25T10:36:48Z</time>
</trkpt>
<trkpt lat="34.9942224" lon="32.3819897">
<ele>357.36</ele>
<time>2015-04-25T10:36:50Z</time>
</trkpt>
<trkpt lat="34.9942004" lon="32.3819172">
<ele>357.48</ele>
<time>2015-04-25T10:36:53Z</time>
</trkpt>
<trkpt lat="34.9941809" lon="32.3818513">
<ele>357.87</ele>
<time>2015-04-25T10:36:56Z</time>
</trkpt>
<trkpt lat="34.9941737" lon="32.3817783">
<ele>358.79</ele>
<time>2015-04-25T10:36:59Z</time>
</trkpt>
<trkpt lat="34.9941677" lon="32.3817234">
<ele>359.39</ele>
<time>2015-04-25T10:37:01Z</time>
</trkpt>
<trkpt lat="34.9941626" lon="32.3816642">
<ele>359.79</ele>
<time>2015-04-25T10:37:03Z</time>
</trkpt>
<trkpt lat="34.9941550" lon="32.3815849">
<ele>359.91</ele>
<time>2015-04-25T10:37:06Z</time>
</trkpt>
<trkpt lat="34.9941447" lon="32.3815292">
<ele>360.42</ele>
<time>2015-04-25T10:37:08Z</time>
</trkpt>
<trkpt lat="34.9941238" lon="32.3814732">
<ele>360.80</ele>
<time>2015-04-25T10:37:10Z</time>
</trkpt>
<trkpt lat="34.9941034" lon="32.3814185">
<ele>360.89</ele>
<time>2015-04-25T10:37:12Z</time>
</trkpt>
<trkpt lat="34.9940827" lon="32.3813671">
<ele>360.92</ele>
<time>2015-04-25T10:37:14Z</time>
</trkpt>
<trkpt lat="34.9940540" lon="32.3813209">
<ele>361.42</ele>
<time>2015-04-25T10:37:16Z</time>
</trkpt>
<trkpt lat="34.9940243" lon="32.3812744">
<ele>361.80</ele>
<time>2015-04-25T10:37:18Z</time>
</trkpt>
<trkpt lat="34.9939949" lon="32.3812259">
<ele>362.39</ele>
<time>2015-04-25T10:37:20Z</time>
</trkpt>
<trkpt lat="34.9939603" lon="32.3811880">
<ele>362.79</ele>
<time>2015-04-25T10:37:22Z</time>
</trkpt>
<trkpt lat="34.9939110" lon="32.3811572">
<ele>363.41</ele>
<time>2015-04-25T10:37:25Z</time>
</trkpt>
<trkpt lat="34.9938581" lon="32.3811273">
<ele>364.61</ele>
<time>2015-04-25T10:37:28Z</time>
</trkpt>
<trkpt lat="34.9938045" lon="32.3811072">
<ele>365.76</ele>
<time>2015-04-25T10:37:31Z</time>
</trkpt>
<trkpt lat="34.9937477" lon="32.3810971">
<ele>365.90</ele>
<time>2015-04-25T10:37:34Z</time>
</trkpt>
<trkpt lat="34.9936938" lon="32.3810825">
<ele>366.67</ele>
<time>2015-04-25T10:37:37Z</time>
</trkpt>
<trkpt lat="34.9936371" lon="32.3810623">
<ele>367.39</ele>
<time>2015-04-25T10:37:40Z</time>
</trkpt>
<trkpt lat="34.9935810" lon="32.3810381">
<ele>367.86</ele>
<time>2015-04-25T10:37:43Z</time>
</trkpt>
<trkpt lat="34.9935237" lon="32.3810109">
<ele>368.67</ele>
<time>2015-04-25T10:37:46Z</time>
</trkpt>
<trkpt lat="34.9934636" lon="32.3809866">
<ele>369.77</ele>
<time>2015-04-25T10:37:49Z</time>
</trkpt>
<trkpt lat="34.9934079" lon="32.3809614">
<ele>369.91</ele>
<time>2015-04-25T10:37:52Z</time>
</trkpt>
<trkpt lat="34.9933600" lon="32.3809263">
<ele>369.92</ele>
<time>2015-04-25T10:37:55Z</time>
</trkpt>
<trkpt lat="34.9933089" lon="32.3808950">
<ele>370.80</ele>
<time>2015-04-25T10:37:58Z</time>
</trkpt>
<trkpt lat="34.9932556" lon="32.3808672">
<ele>371.42</ele>
<time>2015-04-25T10:38:02Z</time>
</trkpt>
<trkpt lat="34.9932101" lon="32.3808377">
<ele>371.39</ele>
<time>2015-04-25T10:38:06Z</time>
</trkpt>
<trkpt lat="34.9931608" lon="32.3808087">
<ele>371.83</ele>
<time>2015-04-25T10:38:10Z</time>
</trkpt>
<trkpt lat="34.9931167" lon="32.3807656">
<ele>372.86</ele>
<time>2015-04-25T10:38:14Z</time>
</trkpt>
<trkpt lat="34.9930685" lon="32.3807328">
<ele>372.92</ele>
<time>2015-04-25T10:38:18Z</time>
</trkpt>
<trkpt lat="34.9930202" lon="32.3806905">
<ele>373.80</ele>
<time>2015-04-25T10:38:22Z</time>
</trkpt>
<trkpt lat="34.9929806" lon="32.3806560">
<ele>374.78</ele>
<time>2015-04-25T10:38:25Z</time>
</trkpt>
<trkpt lat="34.9929383" lon="32.3806235">
<ele>374.91</ele>
<time>2015-04-25T10:38:28Z</time>
</trkpt>
<trkpt lat="34.9929002" lon="32.3805730">
<ele>374.92</ele>
<time>2015-04-25T10:38:31Z</time>
</trkpt>
<trkpt lat="34.9928639" lon="32.3805279">
<ele>374.92</ele>
<time>2015-04-25T10:38:34Z</time>
</trkpt>
<trkpt lat="34.9928240" lon="32.3804872">
<ele>374.92</ele>
<time>2015-04-25T10:38:37Z</time>
</trkpt>
<trkpt lat="34.9927883" lon="32.3804489">
<ele>374.92</ele>
<time>2015-04-25T10:38:40Z</time>
</trkpt>
<trkpt lat="34.9927442" lon="32.3803985">
<ele>375.80</ele>
<time>2015-04-25T10:38:44Z</time>
</trkpt>
<trkpt lat="34.9927149" lon="32.3803548">
<ele>375.91</ele>
<time>2015-04-25T10:38:47Z</time>
</trkpt>
<trkpt lat="34.9926841" lon="32.3803137">
<ele>376.67</ele>
<time>2015-04-25T10:38:50Z</time>
</trkpt>
<trkpt lat="34.9926446" lon="32.3802750">
<ele>376.03</ele>
<time>2015-04-25T10:38:54Z</time>
</trkpt>
<trkpt lat="34.9926071" lon="32.3802366">
<ele>376.15</ele>
<time>2015-04-25T10:38:59Z</time>
</trkpt>
<trkpt lat="34.9925799" lon="32.3801807">
<ele>374.94</ele>
<time>2015-04-25T10:39:05Z</time>
</trkpt>
<trkpt lat="34.9925415" lon="32.3801476">
<ele>378.11</ele>
<time>2015-04-25T10:43:24Z</time>
</trkpt>
<trkpt lat="34.9925914" lon="32.3801604">
<ele>377.15</ele>
<time>2015-04-25T10:43:42Z</time>
</trkpt>
<trkpt lat="34.9925451" lon="32.3801846">
<ele>376.93</ele>
<time>2015-04-25T10:43:47Z</time>
</trkpt>
<trkpt lat="34.9925156" lon="32.3801268">
<ele>375.30</ele>
<time>2015-04-25T10:43:51Z</time>
</trkpt>
<trkpt lat="34.9924777" lon="32.3800783">
<ele>375.70</ele>
<time>2015-04-25T10:43:55Z</time>
</trkpt>
<trkpt lat="34.9924419" lon="32.3800230">
<ele>375.91</ele>
<time>2015-04-25T10:43:59Z</time>
</trkpt>
<trkpt lat="34.9924038" lon="32.3799751">
<ele>377.74</ele>
<time>2015-04-25T10:44:03Z</time>
</trkpt>
<trkpt lat="34.9923610" lon="32.3799277">
<ele>377.91</ele>
<time>2015-04-25T10:44:07Z</time>
</trkpt>
<trkpt lat="34.9923299" lon="32.3798742">
<ele>378.67</ele>
<time>2015-04-25T10:44:11Z</time>
</trkpt>
<trkpt lat="34.9922984" lon="32.3798342">
<ele>378.52</ele>
<time>2015-04-25T10:44:14Z</time>
</trkpt>
<trkpt lat="34.9922522" lon="32.3797914">
<ele>378.90</ele>
<time>2015-04-25T10:44:18Z</time>
</trkpt>
<trkpt lat="34.9922026" lon="32.3797597">
<ele>379.86</ele>
<time>2015-04-25T10:44:22Z</time>
</trkpt>
<trkpt lat="34.9921575" lon="32.3797250">
<ele>380.42</ele>
<time>2015-04-25T10:44:26Z</time>
</trkpt>
<trkpt lat="34.9921180" lon="32.3796855">
<ele>381.64</ele>
<time>2015-04-25T10:44:30Z</time>
</trkpt>
<trkpt lat="34.9920747" lon="32.3796535">
<ele>381.66</ele>
<time>2015-04-25T10:44:34Z</time>
</trkpt>
<trkpt lat="34.9920254" lon="32.3796216">
<ele>382.03</ele>
<time>2015-04-25T10:44:38Z</time>
</trkpt>
<trkpt lat="34.9919893" lon="32.3795845">
<ele>382.81</ele>
<time>2015-04-25T10:44:41Z</time>
</trkpt>
<trkpt lat="34.9919528" lon="32.3795494">
<ele>383.79</ele>
<time>2015-04-25T10:44:44Z</time>
</trkpt>
<trkpt lat="34.9919174" lon="32.3795122">
<ele>384.78</ele>
<time>2015-04-25T10:44:47Z</time>
</trkpt>
<trkpt lat="34.9918814" lon="32.3794742">
<ele>385.66</ele>
<time>2015-04-25T10:44:50Z</time>
</trkpt>
<trkpt lat="34.9918455" lon="32.3794372">
<ele>386.64</ele>
<time>2015-04-25T10:44:53Z</time>
</trkpt>
<trkpt lat="34.9918085" lon="32.3794052">
<ele>387.64</ele>
<time>2015-04-25T10:44:56Z</time>
</trkpt>
<trkpt lat="34.9917598" lon="32.3793651">
<ele>387.91</ele>
<time>2015-04-25T10:45:00Z</time>
</trkpt>
<trkpt lat="34.9917134" lon="32.3793231">
<ele>388.67</ele>
<time>2015-04-25T10:45:04Z</time>
</trkpt>
<trkpt lat="34.9916829" lon="32.3792809">
<ele>388.89</ele>
<time>2015-04-25T10:45:07Z</time>
</trkpt>
<trkpt lat="34.9916525" lon="32.3792368">
<ele>389.80</ele>
<time>2015-04-25T10:45:10Z</time>
</trkpt>
<trkpt lat="34.9916158" lon="32.3791931">
<ele>391.66</ele>
<time>2015-04-25T10:45:13Z</time>
</trkpt>
<trkpt lat="34.9915802" lon="32.3791518">
<ele>392.14</ele>
<time>2015-04-25T10:45:16Z</time>
</trkpt>
<trkpt lat="34.9915496" lon="32.3791090">
<ele>391.20</ele>
<time>2015-04-25T10:45:19Z</time>
</trkpt>
<trkpt lat="34.9915147" lon="32.3790541">
<ele>391.88</ele>
<time>2015-04-25T10:45:23Z</time>
</trkpt>
<trkpt lat="34.9914775" lon="32.3789985">
<ele>393.42</ele>
<time>2015-04-25T10:45:27Z</time>
</trkpt>
<trkpt lat="34.9914424" lon="32.3789500">
<ele>395.08</ele>
<time>2015-04-25T10:45:31Z</time>
</trkpt>
<trkpt lat="34.9914024" lon="32.3788975">
<ele>395.81</ele>
<time>2015-04-25T10:45:35Z</time>
</trkpt>
<trkpt lat="34.9913643" lon="32.3788498">
<ele>396.11</ele>
<time>2015-04-25T10:45:39Z</time>
</trkpt>
<trkpt lat="34.9913298" lon="32.3787961">
<ele>396.00</ele>
<time>2015-04-25T10:45:43Z</time>
</trkpt>
<trkpt lat="34.9912982" lon="32.3787428">
<ele>394.99</ele>
<time>2015-04-25T10:45:47Z</time>
</trkpt>
<trkpt lat="34.9912598" lon="32.3786859">
<ele>393.99</ele>
<time>2015-04-25T10:45:51Z</time>
</trkpt>
<trkpt lat="34.9912205" lon="32.3786407">
<ele>395.05</ele>
<time>2015-04-25T10:45:55Z</time>
</trkpt>
<trkpt lat="34.9911853" lon="32.3785890">
<ele>395.37</ele>
<time>2015-04-25T10:45:59Z</time>
</trkpt>
<trkpt lat="34.9911500" lon="32.3785468">
<ele>395.33</ele>
<time>2015-04-25T10:46:03Z</time>
</trkpt>
<trkpt lat="34.9911118" lon="32.3785024">
<ele>394.95</ele>
<time>2015-04-25T10:46:07Z</time>
</trkpt>
<trkpt lat="34.9910655" lon="32.3784581">
<ele>396.30</ele>
<time>2015-04-25T10:46:11Z</time>
</trkpt>
<trkpt lat="34.9910246" lon="32.3784281">
<ele>395.97</ele>
<time>2015-04-25T10:46:14Z</time>
</trkpt>
<trkpt lat="34.9909815" lon="32.3784127">
<ele>395.43</ele>
<time>2015-04-25T10:46:17Z</time>
</trkpt>
<trkpt lat="34.9909321" lon="32.3784026">
<ele>394.99</ele>
<time>2015-04-25T10:46:20Z</time>
</trkpt>
<trkpt lat="34.9908762" lon="32.3783925">
<ele>394.81</ele>
<time>2015-04-25T10:46:23Z</time>
</trkpt>
<trkpt lat="34.9908188" lon="32.3783917">
<ele>394.91</ele>
<time>2015-04-25T10:46:26Z</time>
</trkpt>
<trkpt lat="34.9907602" lon="32.3784019">
<ele>395.67</ele>
<time>2015-04-25T10:46:29Z</time>
</trkpt>
<trkpt lat="34.9907028" lon="32.3784160">
<ele>395.89</ele>
<time>2015-04-25T10:46:32Z</time>
</trkpt>
<trkpt lat="34.9906506" lon="32.3784295">
<ele>396.80</ele>
<time>2015-04-25T10:46:35Z</time>
</trkpt>
<trkpt lat="34.9905986" lon="32.3784374">
<ele>397.03</ele>
<time>2015-04-25T10:46:38Z</time>
</trkpt>
<trkpt lat="34.9905477" lon="32.3784471">
<ele>396.81</ele>
<time>2015-04-25T10:46:41Z</time>
</trkpt>
<trkpt lat="34.9904967" lon="32.3784643">
<ele>397.66</ele>
<time>2015-04-25T10:46:44Z</time>
</trkpt>
<trkpt lat="34.9904430" lon="32.3784802">
<ele>398.77</ele>
<time>2015-04-25T10:46:47Z</time>
</trkpt>
<trkpt lat="34.9903895" lon="32.3784884">
<ele>399.16</ele>
<time>2015-04-25T10:46:50Z</time>
</trkpt>
<trkpt lat="34.9903316" lon="32.3784893">
<ele>400.33</ele>
<time>2015-04-25T10:46:53Z</time>
</trkpt>
<trkpt lat="34.9902770" lon="32.3784979">
<ele>400.98</ele>
<time>2015-04-25T10:46:56Z</time>
</trkpt>
<trkpt lat="34.9902241" lon="32.3785038">
<ele>400.06</ele>
<time>2015-04-25T10:46:59Z</time>
</trkpt>
<trkpt lat="34.9901702" lon="32.3785147">
<ele>400.32</ele>
<time>2015-04-25T10:47:02Z</time>
</trkpt>
<trkpt lat="34.9901183" lon="32.3785134">
<ele>399.22</ele>
<time>2015-04-25T10:47:05Z</time>
</trkpt>
<trkpt lat="34.9900670" lon="32.3785143">
<ele>399.46</ele>
<time>2015-04-25T10:47:08Z</time>
</trkpt>
<trkpt lat="34.9900170" lon="32.3785124">
<ele>398.99</ele>
<time>2015-04-25T10:47:11Z</time>
</trkpt>
<trkpt lat="34.9899695" lon="32.3785109">
<ele>398.93</ele>
<time>2015-04-25T10:47:14Z</time>
</trkpt>
<trkpt lat="34.9899229" lon="32.3785091">
<ele>399.80</ele>
<time>2015-04-25T10:47:17Z</time>
</trkpt>
<trkpt lat="34.9898777" lon="32.3784977">
<ele>399.91</ele>
<time>2015-04-25T10:47:20Z</time>
</trkpt>
<trkpt lat="34.9898227" lon="32.3784678">
<ele>400.42</ele>
<time>2015-04-25T10:47:24Z</time>
</trkpt>
<trkpt lat="34.9897677" lon="32.3784534">
<ele>401.83</ele>
<time>2015-04-25T10:47:28Z</time>
</trkpt>
<trkpt lat="34.9897111" lon="32.3784449">
<ele>401.04</ele>
<time>2015-04-25T10:47:32Z</time>
</trkpt>
<trkpt lat="34.9896610" lon="32.3784326">
<ele>401.44</ele>
<time>2015-04-25T10:47:35Z</time>
</trkpt>
<trkpt lat="34.9896091" lon="32.3784062">
<ele>402.11</ele>
<time>2015-04-25T10:47:38Z</time>
</trkpt>
<trkpt lat="34.9895590" lon="32.3783896">
<ele>402.32</ele>
<time>2015-04-25T10:47:41Z</time>
</trkpt>
<trkpt lat="34.9895121" lon="32.3783791">
<ele>403.35</ele>
<time>2015-04-25T10:47:44Z</time>
</trkpt>
<trkpt lat="34.9894672" lon="32.3783771">
<ele>404.35</ele>
<time>2015-04-25T10:47:47Z</time>
</trkpt>
<trkpt lat="34.9894182" lon="32.3783782">
<ele>404.85</ele>
<time>2015-04-25T10:47:50Z</time>
</trkpt>
<trkpt lat="34.9893737" lon="32.3783930">
<ele>405.42</ele>
<time>2015-04-25T10:47:53Z</time>
</trkpt>
<trkpt lat="34.9893268" lon="32.3784371">
<ele>405.89</ele>
<time>2015-04-25T10:47:57Z</time>
</trkpt>
<trkpt lat="34.9892902" lon="32.3784905">
<ele>406.30</ele>
<time>2015-04-25T10:48:01Z</time>
</trkpt>
<trkpt lat="34.9892625" lon="32.3785504">
<ele>407.51</ele>
<time>2015-04-25T10:48:05Z</time>
</trkpt>
<trkpt lat="34.9892401" lon="32.3786129">
<ele>407.02</ele>
<time>2015-04-25T10:48:09Z</time>
</trkpt>
<trkpt lat="34.9892146" lon="32.3786788">
<ele>407.06</ele>
<time>2015-04-25T10:48:13Z</time>
</trkpt>
<trkpt lat="34.9891742" lon="32.3787295">
<ele>406.50</ele>
<time>2015-04-25T10:48:17Z</time>
</trkpt>
<trkpt lat="34.9891357" lon="32.3787598">
<ele>406.12</ele>
<time>2015-04-25T10:48:20Z</time>
</trkpt>
<trkpt lat="34.9890943" lon="32.3787856">
<ele>407.57</ele>
<time>2015-04-25T10:48:23Z</time>
</trkpt>
<trkpt lat="34.9890472" lon="32.3788221">
<ele>408.03</ele>
<time>2015-04-25T10:48:27Z</time>
</trkpt>
<trkpt lat="34.9890041" lon="32.3788666">
<ele>407.93</ele>
<time>2015-04-25T10:48:31Z</time>
</trkpt>
<trkpt lat="34.9889565" lon="32.3788837">
<ele>409.05</ele>
<time>2015-04-25T10:48:34Z</time>
</trkpt>
<trkpt lat="34.9889104" lon="32.3789007">
<ele>410.32</ele>
<time>2015-04-25T10:48:37Z</time>
</trkpt>
<trkpt lat="34.9888655" lon="32.3789232">
<ele>410.10</ele>
<time>2015-04-25T10:48:40Z</time>
</trkpt>
<trkpt lat="34.9888105" lon="32.3789539">
<ele>409.44</ele>
<time>2015-04-25T10:48:44Z</time>
</trkpt>
<trkpt lat="34.9887632" lon="32.3789613">
<ele>411.11</ele>
<time>2015-04-25T10:48:47Z</time>
</trkpt>
<trkpt lat="34.9887121" lon="32.3789752">
<ele>412.94</ele>
<time>2015-04-25T10:48:51Z</time>
</trkpt>
<trkpt lat="34.9886584" lon="32.3789891">
<ele>413.43</ele>
<time>2015-04-25T10:48:55Z</time>
</trkpt>
<trkpt lat="34.9886133" lon="32.3789993">
<ele>413.36</ele>
<time>2015-04-25T10:48:58Z</time>
</trkpt>
<trkpt lat="34.9885689" lon="32.3790187">
<ele>412.98</ele>
<time>2015-04-25T10:49:01Z</time>
</trkpt>
<trkpt lat="34.9885253" lon="32.3790347">
<ele>413.68</ele>
<time>2015-04-25T10:49:04Z</time>
</trkpt>
<trkpt lat="34.9884796" lon="32.3790385">
<ele>413.89</ele>
<time>2015-04-25T10:49:07Z</time>
</trkpt>
<trkpt lat="34.9884325" lon="32.3790440">
<ele>414.80</ele>
<time>2015-04-25T10:49:10Z</time>
</trkpt>
<trkpt lat="34.9883808" lon="32.3790458">
<ele>416.53</ele>
<time>2015-04-25T10:49:13Z</time>
</trkpt>
<trkpt lat="34.9883360" lon="32.3790513">
<ele>416.50</ele>
<time>2015-04-25T10:49:16Z</time>
</trkpt>
<trkpt lat="34.9882901" lon="32.3790510">
<ele>416.37</ele>
<time>2015-04-25T10:49:19Z</time>
</trkpt>
<trkpt lat="34.9882414" lon="32.3790533">
<ele>415.98</ele>
<time>2015-04-25T10:49:22Z</time>
</trkpt>
<trkpt lat="34.9881920" lon="32.3790521">
<ele>417.18</ele>
<time>2015-04-25T10:49:25Z</time>
</trkpt>
<trkpt lat="34.9881433" lon="32.3790495">
<ele>417.71</ele>
<time>2015-04-25T10:49:28Z</time>
</trkpt>
<trkpt lat="34.9880983" lon="32.3790557">
<ele>419.27</ele>
<time>2015-04-25T10:49:31Z</time>
</trkpt>
<trkpt lat="34.9880536" lon="32.3790616">
<ele>418.36</ele>
<time>2015-04-25T10:51:20Z</time>
</trkpt>
<trkpt lat="34.9879956" lon="32.3790758">
<ele>418.66</ele>
<time>2015-04-25T10:51:25Z</time>
</trkpt>
<trkpt lat="34.9879484" lon="32.3790883">
<ele>420.27</ele>
<time>2015-04-25T10:51:28Z</time>
</trkpt>
<trkpt lat="34.9878942" lon="32.3790982">
<ele>420.84</ele>
<time>2015-04-25T10:51:31Z</time>
</trkpt>
<trkpt lat="34.9878386" lon="32.3791118">
<ele>420.54</ele>
<time>2015-04-25T10:51:34Z</time>
</trkpt>
<trkpt lat="34.9877899" lon="32.3791265">
<ele>420.13</ele>
<time>2015-04-25T10:51:37Z</time>
</trkpt>
<trkpt lat="34.9877426" lon="32.3791455">
<ele>420.70</ele>
<time>2015-04-25T10:51:40Z</time>
</trkpt>
<trkpt lat="34.9876946" lon="32.3791613">
<ele>420.77</ele>
<time>2015-04-25T10:51:43Z</time>
</trkpt>
<trkpt lat="34.9876430" lon="32.3791698">
<ele>421.66</ele>
<time>2015-04-25T10:51:46Z</time>
</trkpt>
<trkpt lat="34.9875987" lon="32.3791829">
<ele>421.02</ele>
<time>2015-04-25T10:51:49Z</time>
</trkpt>
<trkpt lat="34.9875529" lon="32.3791955">
<ele>419.05</ele>
<time>2015-04-25T10:59:57Z</time>
</trkpt>
<trkpt lat="34.9875091" lon="32.3792328">
<ele>419.87</ele>
<time>2015-04-25T11:00:01Z</time>
</trkpt>
<trkpt lat="34.9874828" lon="32.3792894">
<ele>421.73</ele>
<time>2015-04-25T11:00:05Z</time>
</trkpt>
<trkpt lat="34.9874735" lon="32.3793442">
<ele>422.78</ele>
<time>2015-04-25T11:00:08Z</time>
</trkpt>
<trkpt lat="34.9874642" lon="32.3794170">
<ele>422.17</ele>
<time>2015-04-25T11:00:12Z</time>
</trkpt>
<trkpt lat="34.9874552" lon="32.3794739">
<ele>422.46</ele>
<time>2015-04-25T11:00:15Z</time>
</trkpt>
<trkpt lat="34.9874448" lon="32.3795326">
<ele>423.37</ele>
<time>2015-04-25T11:00:18Z</time>
</trkpt>
<trkpt lat="34.9874328" lon="32.3795893">
<ele>423.11</ele>
<time>2015-04-25T11:00:21Z</time>
</trkpt>
<trkpt lat="34.9874114" lon="32.3796450">
<ele>424.57</ele>
<time>2015-04-25T11:00:24Z</time>
</trkpt>
<trkpt lat="34.9873902" lon="32.3796980">
<ele>425.38</ele>
<time>2015-04-25T11:00:27Z</time>
</trkpt>
<trkpt lat="34.9873581" lon="32.3797438">
<ele>426.36</ele>
<time>2015-04-25T11:00:30Z</time>
</trkpt>
<trkpt lat="34.9873212" lon="32.3797826">
<ele>426.35</ele>
<time>2015-04-25T11:00:33Z</time>
</trkpt>
<trkpt lat="34.9872855" lon="32.3798197">
<ele>426.48</ele>
<time>2015-04-25T11:00:36Z</time>
</trkpt>
<trkpt lat="34.9872376" lon="32.3798586">
<ele>428.33</ele>
<time>2015-04-25T11:00:40Z</time>
</trkpt>
<trkpt lat="34.9871932" lon="32.3798866">
<ele>428.45</ele>
<time>2015-04-25T11:00:44Z</time>
</trkpt>
<trkpt lat="34.9871519" lon="32.3799242">
<ele>428.58</ele>
<time>2015-04-25T11:00:48Z</time>
</trkpt>
<trkpt lat="34.9871041" lon="32.3799598">
<ele>428.34</ele>
<time>2015-04-25T11:00:52Z</time>
</trkpt>
<trkpt lat="34.9870639" lon="32.3799891">
<ele>428.85</ele>
<time>2015-04-25T11:00:55Z</time>
</trkpt>
<trkpt lat="34.9870139" lon="32.3800040">
<ele>429.79</ele>
<time>2015-04-25T11:00:58Z</time>
</trkpt>
<trkpt lat="34.9869608" lon="32.3800196">
<ele>429.91</ele>
<time>2015-04-25T11:01:01Z</time>
</trkpt>
<trkpt lat="34.9869073" lon="32.3800284">
<ele>430.67</ele>
<time>2015-04-25T11:01:04Z</time>
</trkpt>
<trkpt lat="34.9868566" lon="32.3800383">
<ele>431.64</ele>
<time>2015-04-25T11:01:07Z</time>
</trkpt>
<trkpt lat="34.9868045" lon="32.3800460">
<ele>431.89</ele>
<time>2015-04-25T11:01:10Z</time>
</trkpt>
<trkpt lat="34.9867504" lon="32.3800495">
<ele>432.55</ele>
<time>2015-04-25T11:01:13Z</time>
</trkpt>
<trkpt lat="34.9867064" lon="32.3800700">
<ele>431.63</ele>
<time>2015-04-25T11:01:16Z</time>
</trkpt>
<trkpt lat="34.9866655" lon="32.3800976">
<ele>431.51</ele>
<time>2015-04-25T11:01:19Z</time>
</trkpt>
<trkpt lat="34.9866221" lon="32.3801245">
<ele>432.75</ele>
<time>2015-04-25T11:01:22Z</time>
</trkpt>
<trkpt lat="34.9865828" lon="32.3801516">
<ele>432.03</ele>
<time>2015-04-25T11:01:25Z</time>
</trkpt>
<trkpt lat="34.9865420" lon="32.3801830">
<ele>431.94</ele>
<time>2015-04-25T11:01:28Z</time>
</trkpt>
<trkpt lat="34.9865013" lon="32.3802228">
<ele>433.55</ele>
<time>2015-04-25T11:01:31Z</time>
</trkpt>
<trkpt lat="34.9864552" lon="32.3802602">
<ele>434.75</ele>
<time>2015-04-25T11:01:34Z</time>
</trkpt>
<trkpt lat="34.9864101" lon="32.3802943">
<ele>435.78</ele>
<time>2015-04-25T11:01:37Z</time>
</trkpt>
<trkpt lat="34.9863513" lon="32.3803065">
<ele>435.16</ele>
<time>2015-04-25T11:01:40Z</time>
</trkpt>
<trkpt lat="34.9862960" lon="32.3803271">
<ele>434.95</ele>
<time>2015-04-25T11:01:43Z</time>
</trkpt>
<trkpt lat="34.9862472" lon="32.3803552">
<ele>434.43</ele>
<time>2015-04-25T11:01:46Z</time>
</trkpt>
<trkpt lat="34.9861978" lon="32.3803825">
<ele>435.24</ele>
<time>2015-04-25T11:01:49Z</time>
</trkpt>
<trkpt lat="34.9861454" lon="32.3803960">
<ele>437.09</ele>
<time>2015-04-25T11:01:52Z</time>
</trkpt>
<trkpt lat="34.9860958" lon="32.3804058">
<ele>436.95</ele>
<time>2015-04-25T11:01:55Z</time>
</trkpt>
<trkpt lat="34.9860469" lon="32.3804195">
<ele>436.93</ele>
<time>2015-04-25T11:01:58Z</time>
</trkpt>
<trkpt lat="34.9859992" lon="32.3804243">
<ele>437.68</ele>
<time>2015-04-25T11:02:01Z</time>
</trkpt>
<trkpt lat="34.9859546" lon="32.3804133">
<ele>438.64</ele>
<time>2015-04-25T11:02:04Z</time>
</trkpt>
<trkpt lat="34.9859084" lon="32.3803713">
<ele>437.97</ele>
<time>2015-04-25T11:02:08Z</time>
</trkpt>
<trkpt lat="34.9858736" lon="32.3803350">
<ele>438.06</ele>
<time>2015-04-25T11:02:11Z</time>
</trkpt>
<trkpt lat="34.9858471" lon="32.3802733">
<ele>437.93</ele>
<time>2015-04-25T11:02:15Z</time>
</trkpt>
<trkpt lat="34.9858159" lon="32.3802122">
<ele>438.80</ele>
<time>2015-04-25T11:02:19Z</time>
</trkpt>
<trkpt lat="34.9857824" lon="32.3801752">
<ele>439.41</ele>
<time>2015-04-25T11:02:22Z</time>
</trkpt>
<trkpt lat="34.9857570" lon="32.3801258">
<ele>439.11</ele>
<time>2015-04-25T11:02:25Z</time>
</trkpt>
<trkpt lat="34.9857273" lon="32.3800759">
<ele>440.57</ele>
<time>2015-04-25T11:02:28Z</time>
</trkpt>
<trkpt lat="34.9857085" lon="32.3800140">
<ele>441.13</ele>
<time>2015-04-25T11:02:31Z</time>
</trkpt>
<trkpt lat="34.9856984" lon="32.3799595">
<ele>440.70</ele>
<time>2015-04-25T11:02:34Z</time>
</trkpt>
<trkpt lat="34.9856698" lon="32.3798958">
<ele>442.60</ele>
<time>2015-04-25T11:02:38Z</time>
</trkpt>
<trkpt lat="34.9856378" lon="32.3798484">
<ele>443.38</ele>
<time>2015-04-25T11:02:41Z</time>
</trkpt>
<trkpt lat="34.9856182" lon="32.3797964">
<ele>445.61</ele>
<time>2015-04-25T11:02:44Z</time>
</trkpt>
<trkpt lat="34.9856012" lon="32.3797276">
<ele>445.78</ele>
<time>2015-04-25T11:02:48Z</time>
</trkpt>
<trkpt lat="34.9855683" lon="32.3796691">
<ele>446.42</ele>
<time>2015-04-25T11:02:52Z</time>
</trkpt>
<trkpt lat="34.9855433" lon="32.3796221">
<ele>446.86</ele>
<time>2015-04-25T11:02:55Z</time>
</trkpt>
<trkpt lat="34.9855164" lon="32.3795728">
<ele>447.54</ele>
<time>2015-04-25T11:02:58Z</time>
</trkpt>
<trkpt lat="34.9854887" lon="32.3795236">
<ele>447.75</ele>
<time>2015-04-25T11:03:01Z</time>
</trkpt>
<trkpt lat="34.9854635" lon="32.3794726">
<ele>447.90</ele>
<time>2015-04-25T11:03:04Z</time>
</trkpt>
<trkpt lat="34.9854321" lon="32.3794294">
<ele>447.42</ele>
<time>2015-04-25T11:03:07Z</time>
</trkpt>
<trkpt lat="34.9854114" lon="32.3793772">
<ele>447.49</ele>
<time>2015-04-25T11:03:10Z</time>
</trkpt>
<trkpt lat="34.9853773" lon="32.3793174">
<ele>447.40</ele>
<time>2015-04-25T11:03:14Z</time>
</trkpt>
<trkpt lat="34.9853529" lon="32.3792677">
<ele>446.48</ele>
<time>2015-04-25T11:03:17Z</time>
</trkpt>
<trkpt lat="34.9853206" lon="32.3792277">
<ele>446.87</ele>
<time>2015-04-25T11:03:20Z</time>
</trkpt>
<trkpt lat="34.9852868" lon="32.3791870">
<ele>447.79</ele>
<time>2015-04-25T11:03:23Z</time>
</trkpt>
<trkpt lat="34.9852530" lon="32.3791425">
<ele>447.91</ele>
<time>2015-04-25T11:03:26Z</time>
</trkpt>
<trkpt lat="34.9852206" lon="32.3790973">
<ele>447.92</ele>
<time>2015-04-25T11:03:29Z</time>
</trkpt>
<trkpt lat="34.9851840" lon="32.3790544">
<ele>447.92</ele>
<time>2015-04-25T11:03:32Z</time>
</trkpt>
<trkpt lat="34.9851454" lon="32.3790134">
<ele>447.30</ele>
<time>2015-04-25T11:03:35Z</time>
</trkpt>
<trkpt lat="34.9851040" lon="32.3789812">
<ele>447.72</ele>
<time>2015-04-25T11:03:38Z</time>
</trkpt>
<trkpt lat="34.9850581" lon="32.3789479">
<ele>449.15</ele>
<time>2015-04-25T11:03:41Z</time>
</trkpt>
<trkpt lat="34.9850115" lon="32.3789132">
<ele>449.70</ele>
<time>2015-04-25T11:03:44Z</time>
</trkpt>
<trkpt lat="34.9849721" lon="32.3788760">
<ele>449.90</ele>
<time>2015-04-25T11:03:47Z</time>
</trkpt>
<trkpt lat="34.9849320" lon="32.3788419">
<ele>449.92</ele>
<time>2015-04-25T11:03:50Z</time>
</trkpt>
<trkpt lat="34.9848931" lon="32.3788126">
<ele>451.55</ele>
<time>2015-04-25T11:03:53Z</time>
</trkpt>
<trkpt lat="34.9848490" lon="32.3787943">
<ele>453.25</ele>
<time>2015-04-25T11:03:56Z</time>
</trkpt>
<trkpt lat="34.9847916" lon="32.3787794">
<ele>453.13</ele>
<time>2015-04-25T11:04:00Z</time>
</trkpt>
<trkpt lat="34.9847329" lon="32.3787591">
<ele>454.63</ele>
<time>2015-04-25T11:04:04Z</time>
</trkpt>
<trkpt lat="34.9846887" lon="32.3787470">
<ele>454.89</ele>
<time>2015-04-25T11:04:07Z</time>
</trkpt>
<trkpt lat="34.9846342" lon="32.3787335">
<ele>455.42</ele>
<time>2015-04-25T11:04:11Z</time>
</trkpt>
<trkpt lat="34.9845906" lon="32.3787160">
<ele>456.61</ele>
<time>2015-04-25T11:04:14Z</time>
</trkpt>
<trkpt lat="34.9845486" lon="32.3786941">
<ele>457.76</ele>
<time>2015-04-25T11:04:17Z</time>
</trkpt>
<trkpt lat="34.9844956" lon="32.3786615">
<ele>456.98</ele>
<time>2015-04-25T11:04:21Z</time>
</trkpt>
<trkpt lat="34.9844440" lon="32.3786248">
<ele>456.93</ele>
<time>2015-04-25T11:04:25Z</time>
</trkpt>
<trkpt lat="34.9844017" lon="32.3786001">
<ele>456.93</ele>
<time>2015-04-25T11:04:28Z</time>
</trkpt>
<trkpt lat="34.9843646" lon="32.3785654">
<ele>455.55</ele>
<time>2015-04-25T11:04:31Z</time>
</trkpt>
<trkpt lat="34.9843202" lon="32.3785428">
<ele>455.50</ele>
<time>2015-04-25T11:04:34Z</time>
</trkpt>
<trkpt lat="34.9842733" lon="32.3785302">
<ele>457.12</ele>
<time>2015-04-25T11:04:37Z</time>
</trkpt>
<trkpt lat="34.9842281" lon="32.3785154">
<ele>458.32</ele>
<time>2015-04-25T11:04:40Z</time>
</trkpt>
<trkpt lat="34.9841830" lon="32.3784980">
<ele>460.22</ele>
<time>2015-04-25T11:04:43Z</time>
</trkpt>
<trkpt lat="34.9841333" lon="32.3784815">
<ele>460.34</ele>
<time>2015-04-25T11:04:46Z</time>
</trkpt>
<trkpt lat="34.9840824" lon="32.3784709">
<ele>459.23</ele>
<time>2015-04-25T11:04:49Z</time>
</trkpt>
<trkpt lat="34.9840310" lon="32.3784817">
<ele>461.21</ele>
<time>2015-04-25T11:04:52Z</time>
</trkpt>
<trkpt lat="34.9839932" lon="32.3785260">
<ele>461.09</ele>
<time>2015-04-25T11:04:55Z</time>
</trkpt>
<trkpt lat="34.9839660" lon="32.3785832">
<ele>460.57</ele>
<time>2015-04-25T11:04:58Z</time>
</trkpt>
<trkpt lat="34.9839356" lon="32.3786370">
<ele>461.38</ele>
<time>2015-04-25T11:05:01Z</time>
</trkpt>
<trkpt lat="34.9839111" lon="32.3786902">
<ele>461.36</ele>
<time>2015-04-25T11:05:04Z</time>
</trkpt>
<trkpt lat="34.9838847" lon="32.3787394">
<ele>462.60</ele>
<time>2015-04-25T11:05:07Z</time>
</trkpt>
<trkpt lat="34.9838594" lon="32.3787936">
<ele>462.88</ele>
<time>2015-04-25T11:05:10Z</time>
</trkpt>
<trkpt lat="34.9838249" lon="32.3788413">
<ele>463.29</ele>
<time>2015-04-25T11:05:13Z</time>
</trkpt>
<trkpt lat="34.9837826" lon="32.3789028">
<ele>463.85</ele>
<time>2015-04-25T11:05:16Z</time>
</trkpt>
<trkpt lat="34.9837420" lon="32.3789651">
<ele>463.16</ele>
<time>2015-04-25T11:05:18Z</time>
</trkpt>
<trkpt lat="34.9836969" lon="32.3790275">
<ele>462.98</ele>
<time>2015-04-25T11:05:20Z</time>
</trkpt>
<trkpt lat="34.9836550" lon="32.3790844">
<ele>463.19</ele>
<time>2015-04-25T11:05:22Z</time>
</trkpt>
<trkpt lat="34.9836208" lon="32.3791371">
<ele>463.49</ele>
<time>2015-04-25T11:05:24Z</time>
</trkpt>
<trkpt lat="34.9835888" lon="32.3791792">
<ele>463.57</ele>
<time>2015-04-25T11:05:26Z</time>
</trkpt>
<trkpt lat="34.9835431" lon="32.3792308">
<ele>463.88</ele>
<time>2015-04-25T11:05:29Z</time>
</trkpt>
<trkpt lat="34.9834938" lon="32.3792746">
<ele>464.92</ele>
<time>2015-04-25T11:05:32Z</time>
</trkpt>
<trkpt lat="34.9834398" lon="32.3792965">
<ele>463.30</ele>
<time>2015-04-25T11:05:35Z</time>
</trkpt>
<trkpt lat="34.9833783" lon="32.3793144">
<ele>462.97</ele>
<time>2015-04-25T11:05:38Z</time>
</trkpt>
<trkpt lat="34.9833250" lon="32.3793241">
<ele>464.81</ele>
<time>2015-04-25T11:05:41Z</time>
</trkpt>
<trkpt lat="34.9832760" lon="32.3793347">
<ele>466.66</ele>
<time>2015-04-25T11:05:44Z</time>
</trkpt>
<trkpt lat="34.9832226" lon="32.3793225">
<ele>467.39</ele>
<time>2015-04-25T11:05:47Z</time>
</trkpt>
<trkpt lat="34.9831690" lon="32.3792856">
<ele>469.48</ele>
<time>2015-04-25T11:05:50Z</time>
</trkpt>
<trkpt lat="34.9831297" lon="32.3792347">
<ele>469.37</ele>
<time>2015-04-25T11:05:53Z</time>
</trkpt>
<trkpt lat="34.9830975" lon="32.3791821">
<ele>469.73</ele>
<time>2015-04-25T11:05:56Z</time>
</trkpt>
<trkpt lat="34.9830922" lon="32.3791213">
<ele>470.65</ele>
<time>2015-04-25T11:05:59Z</time>
</trkpt>
<trkpt lat="34.9831026" lon="32.3790601">
<ele>471.64</ele>
<time>2015-04-25T11:06:02Z</time>
</trkpt>
<trkpt lat="34.9831148" lon="32.3789958">
<ele>473.14</ele>
<time>2015-04-25T11:06:05Z</time>
</trkpt>
<trkpt lat="34.9831291" lon="32.3789306">
<ele>472.95</ele>
<time>2015-04-25T11:06:08Z</time>
</trkpt>
<trkpt lat="34.9831434" lon="32.3788683">
<ele>472.80</ele>
<time>2015-04-25T11:06:11Z</time>
</trkpt>
<trkpt lat="34.9831519" lon="32.3788028">
<ele>473.41</ele>
<time>2015-04-25T11:06:14Z</time>
</trkpt>
<trkpt lat="34.9831536" lon="32.3787372">
<ele>472.61</ele>
<time>2015-04-25T11:06:17Z</time>
</trkpt>
<trkpt lat="34.9831653" lon="32.3786760">
<ele>472.01</ele>
<time>2015-04-25T11:06:20Z</time>
</trkpt>
<trkpt lat="34.9831740" lon="32.3786135">
<ele>472.06</ele>
<time>2015-04-25T11:06:23Z</time>
</trkpt>
<trkpt lat="34.9831782" lon="32.3785504">
<ele>472.82</ele>
<time>2015-04-25T11:06:26Z</time>
</trkpt>
<trkpt lat="34.9831686" lon="32.3784823">
<ele>473.79</ele>
<time>2015-04-25T11:06:29Z</time>
</trkpt>
<trkpt lat="34.9831711" lon="32.3784137">
<ele>474.66</ele>
<time>2015-04-25T11:06:32Z</time>
</trkpt>
<trkpt lat="34.9831777" lon="32.3783455">
<ele>475.52</ele>
<time>2015-04-25T11:06:35Z</time>
</trkpt>
<trkpt lat="34.9831864" lon="32.3782748">
<ele>476.37</ele>
<time>2015-04-25T11:06:38Z</time>
</trkpt>
<trkpt lat="34.9832060" lon="32.3782091">
<ele>476.73</ele>
<time>2015-04-25T11:06:41Z</time>
</trkpt>
<trkpt lat="34.9832182" lon="32.3781392">
<ele>478.53</ele>
<time>2015-04-25T11:06:44Z</time>
</trkpt>
<trkpt lat="34.9832200" lon="32.3780691">
<ele>479.00</ele>
<time>2015-04-25T11:06:47Z</time>
</trkpt>
<trkpt lat="34.9832322" lon="32.3780002">
<ele>478.93</ele>
<time>2015-04-25T11:06:50Z</time>
</trkpt>
<trkpt lat="34.9832481" lon="32.3779310">
<ele>477.93</ele>
<time>2015-04-25T11:06:53Z</time>
</trkpt>
<trkpt lat="34.9832611" lon="32.3778627">
<ele>478.80</ele>
<time>2015-04-25T11:06:56Z</time>
</trkpt>
<trkpt lat="34.9832808" lon="32.3777986">
<ele>479.78</ele>
<time>2015-04-25T11:06:59Z</time>
</trkpt>
<trkpt lat="34.9833050" lon="32.3777295">
<ele>479.16</ele>
<time>2015-04-25T11:07:02Z</time>
</trkpt>
<trkpt lat="34.9833194" lon="32.3776593">
<ele>479.45</ele>
<time>2015-04-25T11:07:05Z</time>
</trkpt>
<trkpt lat="34.9833284" lon="32.3775938">
<ele>479.87</ele>
<time>2015-04-25T11:07:08Z</time>
</trkpt>
<trkpt lat="34.9833463" lon="32.3775342">
<ele>481.29</ele>
<time>2015-04-25T11:07:11Z</time>
</trkpt>
<trkpt lat="34.9833800" lon="32.3774790">
<ele>481.85</ele>
<time>2015-04-25T11:07:14Z</time>
</trkpt>
<trkpt lat="34.9834173" lon="32.3774375">
<ele>482.79</ele>
<time>2015-04-25T11:07:17Z</time>
</trkpt>
<trkpt lat="34.9834560" lon="32.3774018">
<ele>482.91</ele>
<time>2015-04-25T11:07:20Z</time>
</trkpt>
<trkpt lat="34.9834917" lon="32.3773592">
<ele>482.42</ele>
<time>2015-04-25T11:07:23Z</time>
</trkpt>
<trkpt lat="34.9835348" lon="32.3773214">
<ele>482.86</ele>
<time>2015-04-25T11:07:26Z</time>
</trkpt>
<trkpt lat="34.9835736" lon="32.3772772">
<ele>482.92</ele>
<time>2015-04-25T11:07:29Z</time>
</trkpt>
<trkpt lat="34.9836136" lon="32.3772286">
<ele>482.67</ele>
<time>2015-04-25T11:07:32Z</time>
</trkpt>
<trkpt lat="34.9836532" lon="32.3771785">
<ele>483.39</ele>
<time>2015-04-25T11:07:35Z</time>
</trkpt>
<trkpt lat="34.9836937" lon="32.3771354">
<ele>484.36</ele>
<time>2015-04-25T11:07:38Z</time>
</trkpt>
<trkpt lat="34.9837302" lon="32.3770930">
<ele>486.23</ele>
<time>2015-04-25T11:07:41Z</time>
</trkpt>
<trkpt lat="34.9837699" lon="32.3770531">
<ele>487.34</ele>
<time>2015-04-25T11:07:44Z</time>
</trkpt>
<trkpt lat="34.9838042" lon="32.3770089">
<ele>487.35</ele>
<time>2015-04-25T11:07:47Z</time>
</trkpt>
<trkpt lat="34.9838492" lon="32.3769723">
<ele>486.98</ele>
<time>2015-04-25T11:07:50Z</time>
</trkpt>
<trkpt lat="34.9838791" lon="32.3769189">
<ele>486.68</ele>
<time>2015-04-25T11:07:53Z</time>
</trkpt>
<trkpt lat="34.9839108" lon="32.3768597">
<ele>485.52</ele>
<time>2015-04-25T11:07:56Z</time>
</trkpt>
<trkpt lat="34.9839520" lon="32.3768043">
<ele>483.37</ele>
<time>2015-04-25T11:07:59Z</time>
</trkpt>
<trkpt lat="34.9839828" lon="32.3767436">
<ele>483.36</ele>
<time>2015-04-25T11:08:02Z</time>
</trkpt>
<trkpt lat="34.9840075" lon="32.3766806">
<ele>483.85</ele>
<time>2015-04-25T11:08:05Z</time>
</trkpt>
<trkpt lat="34.9840283" lon="32.3766153">
<ele>485.29</ele>
<time>2015-04-25T11:08:08Z</time>
</trkpt>
<trkpt lat="34.9840508" lon="32.3765518">
<ele>485.72</ele>
<time>2015-04-25T11:08:11Z</time>
</trkpt>
<trkpt lat="34.9840718" lon="32.3764838">
<ele>485.90</ele>
<time>2015-04-25T11:08:14Z</time>
</trkpt>
<trkpt lat="34.9840898" lon="32.3764127">
<ele>486.42</ele>
<time>2015-04-25T11:08:17Z</time>
</trkpt>
<trkpt lat="34.9841113" lon="32.3763435">
<ele>489.11</ele>
<time>2015-04-25T11:08:20Z</time>
</trkpt>
<trkpt lat="34.9841293" lon="32.3762823">
<ele>489.57</ele>
<time>2015-04-25T11:08:23Z</time>
</trkpt>
<trkpt lat="34.9841361" lon="32.3762252">
<ele>489.01</ele>
<time>2015-04-25T11:08:26Z</time>
</trkpt>
<trkpt lat="34.9841356" lon="32.3761641">
<ele>490.56</ele>
<time>2015-04-25T11:08:29Z</time>
</trkpt>
<trkpt lat="34.9841261" lon="32.3761056">
<ele>491.63</ele>
<time>2015-04-25T11:08:32Z</time>
</trkpt>
<trkpt lat="34.9841168" lon="32.3760441">
<ele>492.76</ele>
<time>2015-04-25T11:08:35Z</time>
</trkpt>
<trkpt lat="34.9841014" lon="32.3759784">
<ele>493.78</ele>
<time>2015-04-25T11:08:38Z</time>
</trkpt>
<trkpt lat="34.9840834" lon="32.3759139">
<ele>494.78</ele>
<time>2015-04-25T11:08:41Z</time>
</trkpt>
<trkpt lat="34.9840599" lon="32.3758557">
<ele>495.41</ele>
<time>2015-04-25T11:08:44Z</time>
</trkpt>
<trkpt lat="34.9840319" lon="32.3757997">
<ele>495.86</ele>
<time>2015-04-25T11:08:47Z</time>
</trkpt>
<trkpt lat="34.9839981" lon="32.3757471">
<ele>497.17</ele>
<time>2015-04-25T11:08:50Z</time>
</trkpt>
<trkpt lat="34.9839684" lon="32.3756937">
<ele>497.33</ele>
<time>2015-04-25T11:08:53Z</time>
</trkpt>
<trkpt lat="34.9839500" lon="32.3756362">
<ele>496.98</ele>
<time>2015-04-25T11:08:56Z</time>
</trkpt>
<trkpt lat="34.9839327" lon="32.3755683">
<ele>494.49</ele>
<time>2015-04-25T11:09:00Z</time>
</trkpt>
<trkpt lat="34.9838974" lon="32.3755200">
<ele>494.96</ele>
<time>2015-04-25T11:09:04Z</time>
</trkpt>
<trkpt lat="34.9838515" lon="32.3755043">
<ele>495.80</ele>
<time>2015-04-25T11:09:07Z</time>
</trkpt>
<trkpt lat="34.9838172" lon="32.3754684">
<ele>496.66</ele>
<time>2015-04-25T11:09:10Z</time>
</trkpt>
<trkpt lat="34.9837842" lon="32.3754193">
<ele>496.66</ele>
<time>2015-04-25T11:09:14Z</time>
</trkpt>
<trkpt lat="34.9837443" lon="32.3753797">
<ele>497.42</ele>
<time>2015-04-25T11:09:19Z</time>
</trkpt>
<trkpt lat="34.9837060" lon="32.3753314">
<ele>498.66</ele>
<time>2015-04-25T11:09:24Z</time>
</trkpt>
<trkpt lat="34.9836783" lon="32.3752758">
<ele>500.66</ele>
<time>2015-04-25T11:09:28Z</time>
</trkpt>
<trkpt lat="34.9836640" lon="32.3752136">
<ele>501.80</ele>
<time>2015-04-25T11:09:36Z</time>
</trkpt>
<trkpt lat="34.9836494" lon="32.3751605">
<ele>502.17</ele>
<time>2015-04-25T11:09:40Z</time>
</trkpt>
<trkpt lat="34.9836268" lon="32.3750999">
<ele>502.94</ele>
<time>2015-04-25T11:09:44Z</time>
</trkpt>
<trkpt lat="34.9836086" lon="32.3750477">
<ele>503.43</ele>
<time>2015-04-25T11:09:48Z</time>
</trkpt>
<trkpt lat="34.9835812" lon="32.3749907">
<ele>503.91</ele>
<time>2015-04-25T11:09:53Z</time>
</trkpt>
<trkpt lat="34.9835676" lon="32.3749271">
<ele>504.89</ele>
<time>2015-04-25T11:09:58Z</time>
</trkpt>
<trkpt lat="34.9835471" lon="32.3748677">
<ele>504.92</ele>
<time>2015-04-25T11:10:03Z</time>
</trkpt>
<trkpt lat="34.9835198" lon="32.3748084">
<ele>504.86</ele>
<time>2015-04-25T11:10:08Z</time>
</trkpt>
<trkpt lat="34.9834961" lon="32.3747606">
<ele>505.11</ele>
<time>2015-04-25T11:10:12Z</time>
</trkpt>
<trkpt lat="34.9834698" lon="32.3747051">
<ele>506.62</ele>
<time>2015-04-25T11:10:17Z</time>
</trkpt>
<trkpt lat="34.9834282" lon="32.3746803">
<ele>507.80</ele>
<time>2015-04-25T11:10:27Z</time>
</trkpt>
<trkpt lat="34.9833944" lon="32.3746400">
<ele>507.80</ele>
<time>2015-04-25T11:10:32Z</time>
</trkpt>
<trkpt lat="34.9833498" lon="32.3746140">
<ele>508.80</ele>
<time>2015-04-25T11:10:37Z</time>
</trkpt>
<trkpt lat="34.9833028" lon="32.3745890">
<ele>508.70</ele>
<time>2015-04-25T11:10:43Z</time>
</trkpt>
<trkpt lat="34.9832584" lon="32.3745703">
<ele>511.32</ele>
<time>2015-04-25T11:10:48Z</time>
</trkpt>
<trkpt lat="34.9832138" lon="32.3745546">
<ele>513.34</ele>
<time>2015-04-25T11:10:54Z</time>
</trkpt>
<trkpt lat="34.9831678" lon="32.3745422">
<ele>515.32</ele>
<time>2015-04-25T11:11:01Z</time>
</trkpt>
<trkpt lat="34.9831223" lon="32.3745254">
<ele>516.29</ele>
<time>2015-04-25T11:11:08Z</time>
</trkpt>
<trkpt lat="34.9830798" lon="32.3745001">
<ele>517.17</ele>
<time>2015-04-25T11:11:14Z</time>
</trkpt>
<trkpt lat="34.9830314" lon="32.3745001">
<ele>516.80</ele>
<time>2015-04-25T11:11:20Z</time>
</trkpt>
<trkpt lat="34.9829886" lon="32.3744815">
<ele>513.93</ele>
<time>2015-04-25T11:11:42Z</time>
</trkpt>
<trkpt lat="34.9829435" lon="32.3744742">
<ele>513.92</ele>
<time>2015-04-25T11:11:47Z</time>
</trkpt>
<trkpt lat="34.9828958" lon="32.3744798">
<ele>515.39</ele>
<time>2015-04-25T11:11:52Z</time>
</trkpt>
<trkpt lat="34.9828450" lon="32.3744629">
<ele>515.16</ele>
<time>2015-04-25T11:11:59Z</time>
</trkpt>
<trkpt lat="34.9827920" lon="32.3744594">
<ele>515.40</ele>
<time>2015-04-25T11:12:04Z</time>
</trkpt>
<trkpt lat="34.9827374" lon="32.3744460">
<ele>516.85</ele>
<time>2015-04-25T11:12:09Z</time>
</trkpt>
<trkpt lat="34.9826929" lon="32.3744366">
<ele>517.86</ele>
<time>2015-04-25T11:12:13Z</time>
</trkpt>
<trkpt lat="34.9826372" lon="32.3744262">
<ele>518.64</ele>
<time>2015-04-25T11:12:18Z</time>
</trkpt>
<trkpt lat="34.9825926" lon="32.3744172">
<ele>519.03</ele>
<time>2015-04-25T11:12:22Z</time>
</trkpt>
<trkpt lat="34.9825454" lon="32.3744036">
<ele>520.24</ele>
<time>2015-04-25T11:12:26Z</time>
</trkpt>
<trkpt lat="34.9824984" lon="32.3743962">
<ele>521.13</ele>
<time>2015-04-25T11:12:30Z</time>
</trkpt>
<trkpt lat="34.9824475" lon="32.3743856">
<ele>520.93</ele>
<time>2015-04-25T11:12:35Z</time>
</trkpt>
<trkpt lat="34.9823938" lon="32.3743812">
<ele>521.89</ele>
<time>2015-04-25T11:12:40Z</time>
</trkpt>
<trkpt lat="34.9823467" lon="32.3743843">
<ele>523.30</ele>
<time>2015-04-25T11:12:44Z</time>
</trkpt>
<trkpt lat="34.9822961" lon="32.3743854">
<ele>523.91</ele>
<time>2015-04-25T11:12:49Z</time>
</trkpt>
<trkpt lat="34.9822434" lon="32.3743922">
<ele>525.61</ele>
<time>2015-04-25T11:12:55Z</time>
</trkpt>
<trkpt lat="34.9821920" lon="32.3743779">
<ele>526.60</ele>
<time>2015-04-25T11:13:00Z</time>
</trkpt>
<trkpt lat="34.9821410" lon="32.3743591">
<ele>526.91</ele>
<time>2015-04-25T11:13:05Z</time>
</trkpt>
<trkpt lat="34.9820960" lon="32.3743193">
<ele>527.67</ele>
<time>2015-04-25T11:13:10Z</time>
</trkpt>
<trkpt lat="34.9820581" lon="32.3742895">
<ele>529.60</ele>
<time>2015-04-25T11:13:14Z</time>
</trkpt>
<trkpt lat="34.9820185" lon="32.3742633">
<ele>531.28</ele>
<time>2015-04-25T11:13:18Z</time>
</trkpt>
<trkpt lat="34.9819762" lon="32.3742364">
<ele>532.63</ele>
<time>2015-04-25T11:13:22Z</time>
</trkpt>
<trkpt lat="34.9819356" lon="32.3741982">
<ele>532.54</ele>
<time>2015-04-25T11:13:27Z</time>
</trkpt>
<trkpt lat="34.9818968" lon="32.3741702">
<ele>531.01</ele>
<time>2015-04-25T11:13:32Z</time>
</trkpt>
<trkpt lat="34.9818519" lon="32.3741523">
<ele>530.21</ele>
<time>2015-04-25T11:13:38Z</time>
</trkpt>
<trkpt lat="34.9818104" lon="32.3741259">
<ele>530.15</ele>
<time>2015-04-25T11:13:44Z</time>
</trkpt>
<trkpt lat="34.9817602" lon="32.3741062">
<ele>529.93</ele>
<time>2015-04-25T11:13:51Z</time>
</trkpt>
<trkpt lat="34.9817088" lon="32.3740947">
<ele>531.55</ele>
<time>2015-04-25T11:13:56Z</time>
</trkpt>
<trkpt lat="34.9816597" lon="32.3740792">
<ele>533.29</ele>
<time>2015-04-25T11:14:01Z</time>
</trkpt>
<trkpt lat="34.9816182" lon="32.3740561">
<ele>532.94</ele>
<time>2015-04-25T11:14:06Z</time>
</trkpt>
<trkpt lat="34.9815735" lon="32.3740387">
<ele>534.77</ele>
<time>2015-04-25T11:14:11Z</time>
</trkpt>
<trkpt lat="34.9815292" lon="32.3740200">
<ele>536.11</ele>
<time>2015-04-25T11:14:16Z</time>
</trkpt>
<trkpt lat="34.9814916" lon="32.3739887">
<ele>535.21</ele>
<time>2015-04-25T11:14:21Z</time>
</trkpt>
<trkpt lat="34.9814581" lon="32.3739419">
<ele>534.90</ele>
<time>2015-04-25T11:14:26Z</time>
</trkpt>
<trkpt lat="34.9814250" lon="32.3738969">
<ele>534.77</ele>
<time>2015-04-25T11:14:31Z</time>
</trkpt>
<trkpt lat="34.9813850" lon="32.3738600">
<ele>537.26</ele>
<time>2015-04-25T11:14:36Z</time>
</trkpt>
<trkpt lat="34.9813446" lon="32.3738196">
<ele>536.65</ele>
<time>2015-04-25T11:14:41Z</time>
</trkpt>
<trkpt lat="34.9813030" lon="32.3737792">
<ele>538.66</ele>
<time>2015-04-25T11:14:58Z</time>
</trkpt>
<trkpt lat="34.9812588" lon="32.3737386">
<ele>539.17</ele>
<time>2015-04-25T11:15:03Z</time>
</trkpt>
<trkpt lat="34.9812230" lon="32.3737052">
<ele>538.94</ele>
<time>2015-04-25T11:15:07Z</time>
</trkpt>
<trkpt lat="34.9811783" lon="32.3736852">
<ele>539.43</ele>
<time>2015-04-25T11:15:11Z</time>
</trkpt>
<trkpt lat="34.9811311" lon="32.3736743">
<ele>540.77</ele>
<time>2015-04-25T11:15:15Z</time>
</trkpt>
<trkpt lat="34.9810853" lon="32.3736798">
<ele>541.60</ele>
<time>2015-04-25T11:15:19Z</time>
</trkpt>
<trkpt lat="34.9810314" lon="32.3736826">
<ele>542.41</ele>
<time>2015-04-25T11:15:24Z</time>
</trkpt>
<trkpt lat="34.9809859" lon="32.3736802">
<ele>542.78</ele>
<time>2015-04-25T11:15:29Z</time>
</trkpt>
<trkpt lat="34.9809374" lon="32.3736999">
<ele>543.52</ele>
<time>2015-04-25T11:15:35Z</time>
</trkpt>
<trkpt lat="34.9808949" lon="32.3737315">
<ele>542.64</ele>
<time>2015-04-25T11:15:48Z</time>
</trkpt>
<trkpt lat="34.9808532" lon="32.3737587">
<ele>542.51</ele>
<time>2015-04-25T11:15:51Z</time>
</trkpt>
<trkpt lat="34.9808045" lon="32.3737783">
<ele>541.12</ele>
<time>2015-04-25T11:15:54Z</time>
</trkpt>
<trkpt lat="34.9807477" lon="32.3737975">
<ele>541.82</ele>
<time>2015-04-25T11:15:57Z</time>
</trkpt>
<trkpt lat="34.9806876" lon="32.3738215">
<ele>540.66</ele>
<time>2015-04-25T11:16:00Z</time>
</trkpt>
<trkpt lat="34.9806309" lon="32.3738478">
<ele>539.89</ele>
<time>2015-04-25T11:16:03Z</time>
</trkpt>
<trkpt lat="34.9805881" lon="32.3738659">
<ele>540.42</ele>
<time>2015-04-25T11:16:05Z</time>
</trkpt>
<trkpt lat="34.9805250" lon="32.3738960">
<ele>540.86</ele>
<time>2015-04-25T11:16:08Z</time>
</trkpt>
<trkpt lat="34.9804803" lon="32.3739132">
<ele>540.91</ele>
<time>2015-04-25T11:16:10Z</time>
</trkpt>
<trkpt lat="34.9804367" lon="32.3739270">
<ele>541.17</ele>
<time>2015-04-25T11:16:12Z</time>
</trkpt>
<trkpt lat="34.9803931" lon="32.3739458">
<ele>541.74</ele>
<time>2015-04-25T11:16:14Z</time>
</trkpt>
<trkpt lat="34.9803502" lon="32.3739629">
<ele>541.88</ele>
<time>2015-04-25T11:16:16Z</time>
</trkpt>
<trkpt lat="34.9802929" lon="32.3739903">
<ele>542.42</ele>
<time>2015-04-25T11:16:19Z</time>
</trkpt>
<trkpt lat="34.9802521" lon="32.3740170">
<ele>542.80</ele>
<time>2015-04-25T11:16:21Z</time>
</trkpt>
<trkpt lat="34.9801963" lon="32.3740475">
<ele>542.91</ele>
<time>2015-04-25T11:16:24Z</time>
</trkpt>
<trkpt lat="34.9801504" lon="32.3740568">
<ele>542.10</ele>
<time>2015-04-25T11:17:06Z</time>
</trkpt>
<trkpt lat="34.9801033" lon="32.3740681">
<ele>542.67</ele>
<time>2015-04-25T11:17:21Z</time>
</trkpt>
<trkpt lat="34.9800582" lon="32.3740871">
<ele>541.72</ele>
<time>2015-04-25T11:17:30Z</time>
</trkpt>
<trkpt lat="34.9800119" lon="32.3741090">
<ele>541.90</ele>
<time>2015-04-25T11:17:33Z</time>
</trkpt>
<trkpt lat="34.9799524" lon="32.3741389">
<ele>541.92</ele>
<time>2015-04-25T11:17:36Z</time>
</trkpt>
<trkpt lat="34.9798937" lon="32.3741628">
<ele>541.05</ele>
<time>2015-04-25T11:17:39Z</time>
</trkpt>
<trkpt lat="34.9798490" lon="32.3741838">
<ele>540.96</ele>
<time>2015-04-25T11:17:41Z</time>
</trkpt>
<trkpt lat="34.9798027" lon="32.3742052">
<ele>540.68</ele>
<time>2015-04-25T11:17:43Z</time>
</trkpt>
<trkpt lat="34.9797562" lon="32.3742300">
<ele>541.36</ele>
<time>2015-04-25T11:17:45Z</time>
</trkpt>
<trkpt lat="34.9797123" lon="32.3742493">
<ele>542.03</ele>
<time>2015-04-25T11:17:47Z</time>
</trkpt>
<trkpt lat="34.9796681" lon="32.3742651">
<ele>542.70</ele>
<time>2015-04-25T11:17:49Z</time>
</trkpt>
<trkpt lat="34.9796126" lon="32.3742973">
<ele>542.02</ele>
<time>2015-04-25T11:17:52Z</time>
</trkpt>
<trkpt lat="34.9795663" lon="32.3743339">
<ele>541.56</ele>
<time>2015-04-25T11:17:55Z</time>
</trkpt>
<trkpt lat="34.9795171" lon="32.3743699">
<ele>541.75</ele>
<time>2015-04-25T11:17:58Z</time>
</trkpt>
<trkpt lat="34.9794625" lon="32.3744073">
<ele>543.15</ele>
<time>2015-04-25T11:18:01Z</time>
</trkpt>
<trkpt lat="34.9794018" lon="32.3744404">
<ele>543.83</ele>
<time>2015-04-25T11:18:04Z</time>
</trkpt>
<trkpt lat="34.9793455" lon="32.3744762">
<ele>543.04</ele>
<time>2015-04-25T11:18:07Z</time>
</trkpt>
<trkpt lat="34.9792859" lon="32.3745089">
<ele>543.69</ele>
<time>2015-04-25T11:18:10Z</time>
</trkpt>
<trkpt lat="34.9792291" lon="32.3745529">
<ele>543.52</ele>
<time>2015-04-25T11:18:13Z</time>
</trkpt>
<trkpt lat="34.9791814" lon="32.3745944">
<ele>543.75</ele>
<time>2015-04-25T11:18:16Z</time>
</trkpt>
<trkpt lat="34.9791447" lon="32.3746315">
<ele>543.90</ele>
<time>2015-04-25T11:18:19Z</time>
</trkpt>
<trkpt lat="34.9791067" lon="32.3746738">
<ele>544.05</ele>
<time>2015-04-25T11:18:22Z</time>
</trkpt>
<trkpt lat="34.9790666" lon="32.3747209">
<ele>544.44</ele>
<time>2015-04-25T11:18:25Z</time>
</trkpt>
<trkpt lat="34.9790275" lon="32.3747701">
<ele>545.74</ele>
<time>2015-04-25T11:18:28Z</time>
</trkpt>
<trkpt lat="34.9789897" lon="32.3748123">
<ele>546.15</ele>
<time>2015-04-25T11:18:31Z</time>
</trkpt>
<trkpt lat="34.9789517" lon="32.3748589">
<ele>548.08</ele>
<time>2015-04-25T11:18:34Z</time>
</trkpt>
<trkpt lat="34.9789166" lon="32.3749031">
<ele>548.82</ele>
<time>2015-04-25T11:18:37Z</time>
</trkpt>
<trkpt lat="34.9788828" lon="32.3749403">
<ele>550.91</ele>
<time>2015-04-25T11:18:40Z</time>
</trkpt>
<trkpt lat="34.9788439" lon="32.3749743">
<ele>552.17</ele>
<time>2015-04-25T11:18:43Z</time>
</trkpt>
<trkpt lat="34.9787999" lon="32.3750116">
<ele>554.21</ele>
<time>2015-04-25T11:18:46Z</time>
</trkpt>
<trkpt lat="34.9787551" lon="32.3750417">
<ele>554.84</ele>
<time>2015-04-25T11:18:49Z</time>
</trkpt>
<trkpt lat="34.9787137" lon="32.3750733">
<ele>554.04</ele>
<time>2015-04-25T11:18:52Z</time>
</trkpt>
<trkpt lat="34.9786741" lon="32.3751090">
<ele>554.06</ele>
<time>2015-04-25T11:18:55Z</time>
</trkpt>
<trkpt lat="34.9786223" lon="32.3751371">
<ele>553.93</ele>
<time>2015-04-25T11:18:59Z</time>
</trkpt>
<trkpt lat="34.9785682" lon="32.3751613">
<ele>554.86</ele>
<time>2015-04-25T11:19:03Z</time>
</trkpt>
<trkpt lat="34.9785202" lon="32.3751884">
<ele>554.92</ele>
<time>2015-04-25T11:19:07Z</time>
</trkpt>
<trkpt lat="34.9784713" lon="32.3752140">
<ele>554.67</ele>
<time>2015-04-25T11:19:11Z</time>
</trkpt>
<trkpt lat="34.9784281" lon="32.3752312">
<ele>554.97</ele>
<time>2015-04-25T11:19:15Z</time>
</trkpt>
<trkpt lat="34.9783808" lon="32.3752482">
<ele>555.62</ele>
<time>2015-04-25T11:19:19Z</time>
</trkpt>
<trkpt lat="34.9783296" lon="32.3752658">
<ele>555.91</ele>
<time>2015-04-25T11:19:23Z</time>
</trkpt>
<trkpt lat="34.9782857" lon="32.3752806">
<ele>556.42</ele>
<time>2015-04-25T11:19:26Z</time>
</trkpt>
<trkpt lat="34.9782401" lon="32.3752953">
<ele>556.86</ele>
<time>2015-04-25T11:19:29Z</time>
</trkpt>
<trkpt lat="34.9781942" lon="32.3752986">
<ele>557.67</ele>
<time>2015-04-25T11:19:32Z</time>
</trkpt>
<trkpt lat="34.9781474" lon="32.3753014">
<ele>557.39</ele>
<time>2015-04-25T11:19:35Z</time>
</trkpt>
<trkpt lat="34.9781002" lon="32.3753116">
<ele>557.86</ele>
<time>2015-04-25T11:19:38Z</time>
</trkpt>
<trkpt lat="34.9780523" lon="32.3753224">
<ele>557.92</ele>
<time>2015-04-25T11:19:41Z</time>
</trkpt>
<trkpt lat="34.9780030" lon="32.3753253">
<ele>557.92</ele>
<time>2015-04-25T11:19:44Z</time>
</trkpt>
<trkpt lat="34.9779528" lon="32.3753220">
<ele>558.80</ele>
<time>2015-04-25T11:19:47Z</time>
</trkpt>
<trkpt lat="34.9778998" lon="32.3753183">
<ele>559.78</ele>
<time>2015-04-25T11:19:50Z</time>
</trkpt>
<trkpt lat="34.9778441" lon="32.3753152">
<ele>560.78</ele>
<time>2015-04-25T11:19:53Z</time>
</trkpt>
<trkpt lat="34.9777852" lon="32.3753182">
<ele>561.78</ele>
<time>2015-04-25T11:19:56Z</time>
</trkpt>
<trkpt lat="34.9777225" lon="32.3753148">
<ele>561.91</ele>
<time>2015-04-25T11:19:59Z</time>
</trkpt>
<trkpt lat="34.9776550" lon="32.3753061">
<ele>563.30</ele>
<time>2015-04-25T11:20:02Z</time>
</trkpt>
<trkpt lat="34.9776092" lon="32.3752990">
<ele>563.77</ele>
<time>2015-04-25T11:20:04Z</time>
</trkpt>
<trkpt lat="34.9775632" lon="32.3752918">
<ele>564.39</ele>
<time>2015-04-25T11:20:06Z</time>
</trkpt>
<trkpt lat="34.9775151" lon="32.3752843">
<ele>564.29</ele>
<time>2015-04-25T11:20:08Z</time>
</trkpt>
<trkpt lat="34.9774702" lon="32.3752778">
<ele>564.02</ele>
<time>2015-04-25T11:20:10Z</time>
</trkpt>
<trkpt lat="34.9774151" lon="32.3752651">
<ele>564.31</ele>
<time>2015-04-25T11:20:13Z</time>
</trkpt>
<trkpt lat="34.9773631" lon="32.3752664">
<ele>563.97</ele>
<time>2015-04-25T11:20:16Z</time>
</trkpt>
<trkpt lat="34.9773114" lon="32.3752691">
<ele>562.81</ele>
<time>2015-04-25T11:20:19Z</time>
</trkpt>
<trkpt lat="34.9772578" lon="32.3752564">
<ele>563.54</ele>
<time>2015-04-25T11:20:22Z</time>
</trkpt>
<trkpt lat="34.9772042" lon="32.3752428">
<ele>563.88</ele>
<time>2015-04-25T11:20:25Z</time>
</trkpt>
<trkpt lat="34.9771493" lon="32.3752375">
<ele>564.67</ele>
<time>2015-04-25T11:20:28Z</time>
</trkpt>
<trkpt lat="34.9770939" lon="32.3752348">
<ele>565.64</ele>
<time>2015-04-25T11:20:31Z</time>
</trkpt>
<trkpt lat="34.9770372" lon="32.3752262">
<ele>566.76</ele>
<time>2015-04-25T11:20:34Z</time>
</trkpt>
<trkpt lat="34.9769813" lon="32.3752175">
<ele>566.40</ele>
<time>2015-04-25T11:20:37Z</time>
</trkpt>
<trkpt lat="34.9769331" lon="32.3751945">
<ele>566.48</ele>
<time>2015-04-25T11:20:40Z</time>
</trkpt>
<trkpt lat="34.9768825" lon="32.3751746">
<ele>568.24</ele>
<time>2015-04-25T11:20:43Z</time>
</trkpt>
<trkpt lat="34.9768282" lon="32.3751540">
<ele>568.84</ele>
<time>2015-04-25T11:20:46Z</time>
</trkpt>
<trkpt lat="34.9767788" lon="32.3751252">
<ele>568.91</ele>
<time>2015-04-25T11:20:49Z</time>
</trkpt>
<trkpt lat="34.9767307" lon="32.3751009">
<ele>568.92</ele>
<time>2015-04-25T11:20:52Z</time>
</trkpt>
<trkpt lat="34.9766795" lon="32.3750897">
<ele>570.30</ele>
<time>2015-04-25T11:20:55Z</time>
</trkpt>
<trkpt lat="34.9766245" lon="32.3750776">
<ele>571.60</ele>
<time>2015-04-25T11:20:58Z</time>
</trkpt>
<trkpt lat="34.9765632" lon="32.3750749">
<ele>572.76</ele>
<time>2015-04-25T11:21:01Z</time>
</trkpt>
<trkpt lat="34.9765034" lon="32.3750598">
<ele>573.03</ele>
<time>2015-04-25T11:21:04Z</time>
</trkpt>
<trkpt lat="34.9764509" lon="32.3750310">
<ele>573.81</ele>
<time>2015-04-25T11:21:07Z</time>
</trkpt>
<trkpt lat="34.9764001" lon="32.3750032">
<ele>573.41</ele>
<time>2015-04-25T11:21:10Z</time>
</trkpt>
<trkpt lat="34.9763484" lon="32.3749816">
<ele>572.99</ele>
<time>2015-04-25T11:21:13Z</time>
</trkpt>
<trkpt lat="34.9762939" lon="32.3749638">
<ele>574.56</ele>
<time>2015-04-25T11:21:16Z</time>
</trkpt>
<trkpt lat="34.9762424" lon="32.3749473">
<ele>574.00</ele>
<time>2015-04-25T11:21:19Z</time>
</trkpt>
<trkpt lat="34.9761878" lon="32.3749272">
<ele>575.06</ele>
<time>2015-04-25T11:21:22Z</time>
</trkpt>
<trkpt lat="34.9761272" lon="32.3749173">
<ele>574.94</ele>
<time>2015-04-25T11:21:25Z</time>
</trkpt>
<trkpt lat="34.9760683" lon="32.3748950">
<ele>575.18</ele>
<time>2015-04-25T11:21:28Z</time>
</trkpt>
<trkpt lat="34.9760154" lon="32.3748763">
<ele>575.46</ele>
<time>2015-04-25T11:21:31Z</time>
</trkpt>
<trkpt lat="34.9759607" lon="32.3748635">
<ele>575.62</ele>
<time>2015-04-25T11:21:34Z</time>
</trkpt>
<trkpt lat="34.9759020" lon="32.3748569">
<ele>576.39</ele>
<time>2015-04-25T11:21:37Z</time>
</trkpt>
<trkpt lat="34.9758461" lon="32.3748498">
<ele>576.61</ele>
<time>2015-04-25T11:21:40Z</time>
</trkpt>
<trkpt lat="34.9757959" lon="32.3748310">
<ele>575.51</ele>
<time>2015-04-25T11:21:43Z</time>
</trkpt>
<trkpt lat="34.9757423" lon="32.3748203">
<ele>575.25</ele>
<time>2015-04-25T11:21:46Z</time>
</trkpt>
<trkpt lat="34.9756863" lon="32.3748100">
<ele>575.84</ele>
<time>2015-04-25T11:21:49Z</time>
</trkpt>
<trkpt lat="34.9756311" lon="32.3748050">
<ele>575.91</ele>
<time>2015-04-25T11:21:52Z</time>
</trkpt>
<trkpt lat="34.9755754" lon="32.3747963">
<ele>576.80</ele>
<time>2015-04-25T11:21:55Z</time>
</trkpt>
<trkpt lat="34.9755245" lon="32.3747731">
<ele>577.66</ele>
<time>2015-04-25T11:21:58Z</time>
</trkpt>
<trkpt lat="34.9754804" lon="32.3747476">
<ele>576.64</ele>
<time>2015-04-25T11:22:01Z</time>
</trkpt>
<trkpt lat="34.9754338" lon="32.3747184">
<ele>576.76</ele>
<time>2015-04-25T11:22:04Z</time>
</trkpt>
<trkpt lat="34.9753808" lon="32.3746900">
<ele>576.90</ele>
<time>2015-04-25T11:22:07Z</time>
</trkpt>
<trkpt lat="34.9753275" lon="32.3746569">
<ele>576.42</ele>
<time>2015-04-25T11:22:10Z</time>
</trkpt>
<trkpt lat="34.9752666" lon="32.3746279">
<ele>577.24</ele>
<time>2015-04-25T11:22:13Z</time>
</trkpt>
<trkpt lat="34.9752068" lon="32.3745914">
<ele>578.59</ele>
<time>2015-04-25T11:22:16Z</time>
</trkpt>
<trkpt lat="34.9751578" lon="32.3745444">
<ele>579.76</ele>
<time>2015-04-25T11:22:19Z</time>
</trkpt>
<trkpt lat="34.9751150" lon="32.3744846">
<ele>580.40</ele>
<time>2015-04-25T11:22:22Z</time>
</trkpt>
<trkpt lat="34.9750716" lon="32.3744251">
<ele>581.36</ele>
<time>2015-04-25T11:22:25Z</time>
</trkpt>
<trkpt lat="34.9750283" lon="32.3743663">
<ele>581.73</ele>
<time>2015-04-25T11:22:28Z</time>
</trkpt>
<trkpt lat="34.9749832" lon="32.3743105">
<ele>582.03</ele>
<time>2015-04-25T11:22:31Z</time>
</trkpt>
<trkpt lat="34.9749373" lon="32.3742622">
<ele>581.81</ele>
<time>2015-04-25T11:22:34Z</time>
</trkpt>
<trkpt lat="34.9748947" lon="32.3742136">
<ele>582.41</ele>
<time>2015-04-25T11:22:37Z</time>
</trkpt>
<trkpt lat="34.9748659" lon="32.3741601">
<ele>583.24</ele>
<time>2015-04-25T11:22:40Z</time>
</trkpt>
<trkpt lat="34.9748209" lon="32.3741221">
<ele>584.96</ele>
<time>2015-04-25T11:22:43Z</time>
</trkpt>
<trkpt lat="34.9747789" lon="32.3740761">
<ele>583.68</ele>
<time>2015-04-25T11:22:46Z</time>
</trkpt>
<trkpt lat="34.9747404" lon="32.3740237">
<ele>583.02</ele>
<time>2015-04-25T11:22:49Z</time>
</trkpt>
<trkpt lat="34.9746922" lon="32.3739783">
<ele>583.31</ele>
<time>2015-04-25T11:22:52Z</time>
</trkpt>
<trkpt lat="34.9746443" lon="32.3739473">
<ele>581.60</ele>
<time>2015-04-25T11:22:55Z</time>
</trkpt>
<trkpt lat="34.9745994" lon="32.3739356">
<ele>581.01</ele>
<time>2015-04-25T11:22:58Z</time>
</trkpt>
<trkpt lat="34.9745463" lon="32.3739360">
<ele>581.06</ele>
<time>2015-04-25T11:23:01Z</time>
</trkpt>
<trkpt lat="34.9744887" lon="32.3739439">
<ele>580.44</ele>
<time>2015-04-25T11:23:04Z</time>
</trkpt>
<trkpt lat="34.9744309" lon="32.3739489">
<ele>580.74</ele>
<time>2015-04-25T11:23:07Z</time>
</trkpt>
<trkpt lat="34.9743705" lon="32.3739641">
<ele>580.78</ele>
<time>2015-04-25T11:23:10Z</time>
</trkpt>
<trkpt lat="34.9743176" lon="32.3739869">
<ele>580.78</ele>
<time>2015-04-25T11:23:13Z</time>
</trkpt>
<trkpt lat="34.9742708" lon="32.3739969">
<ele>580.91</ele>
<time>2015-04-25T11:23:16Z</time>
</trkpt>
<trkpt lat="34.9742148" lon="32.3740110">
<ele>581.80</ele>
<time>2015-04-25T11:23:19Z</time>
</trkpt>
<trkpt lat="34.9741545" lon="32.3740332">
<ele>581.41</ele>
<time>2015-04-25T11:23:22Z</time>
</trkpt>
<trkpt lat="34.9740977" lon="32.3740529">
<ele>581.36</ele>
<time>2015-04-25T11:23:25Z</time>
</trkpt>
<trkpt lat="34.9740425" lon="32.3740802">
<ele>581.48</ele>
<time>2015-04-25T11:23:28Z</time>
</trkpt>
<trkpt lat="34.9739862" lon="32.3741105">
<ele>581.12</ele>
<time>2015-04-25T11:23:31Z</time>
</trkpt>
<trkpt lat="34.9739252" lon="32.3741432">
<ele>580.20</ele>
<time>2015-04-25T11:23:34Z</time>
</trkpt>
<trkpt lat="34.9738659" lon="32.3741612">
<ele>578.33</ele>
<time>2015-04-25T11:23:37Z</time>
</trkpt>
<trkpt lat="34.9738059" lon="32.3741862">
<ele>578.73</ele>
<time>2015-04-25T11:23:40Z</time>
</trkpt>
<trkpt lat="34.9737438" lon="32.3742154">
<ele>579.15</ele>
<time>2015-04-25T11:23:43Z</time>
</trkpt>
<trkpt lat="34.9736991" lon="32.3742285">
<ele>578.23</ele>
<time>2015-04-25T11:23:45Z</time>
</trkpt>
<trkpt lat="34.9736509" lon="32.3742322">
<ele>578.00</ele>
<time>2015-04-25T11:23:47Z</time>
</trkpt>
<trkpt lat="34.9735992" lon="32.3742341">
<ele>578.44</ele>
<time>2015-04-25T11:23:49Z</time>
</trkpt>
<trkpt lat="34.9735448" lon="32.3742330">
<ele>578.80</ele>
<time>2015-04-25T11:23:51Z</time>
</trkpt>
<trkpt lat="34.9734910" lon="32.3742316">
<ele>579.39</ele>
<time>2015-04-25T11:23:53Z</time>
</trkpt>
<trkpt lat="34.9734369" lon="32.3742282">
<ele>579.79</ele>
<time>2015-04-25T11:23:55Z</time>
</trkpt>
<trkpt lat="34.9733768" lon="32.3742285">
<ele>579.89</ele>
<time>2015-04-25T11:23:57Z</time>
</trkpt>
<trkpt lat="34.9733141" lon="32.3742267">
<ele>579.92</ele>
<time>2015-04-25T11:23:59Z</time>
</trkpt>
<trkpt lat="34.9732529" lon="32.3742310">
<ele>579.92</ele>
<time>2015-04-25T11:24:01Z</time>
</trkpt>
<trkpt lat="34.9731940" lon="32.3742403">
<ele>580.67</ele>
<time>2015-04-25T11:24:03Z</time>
</trkpt>
<trkpt lat="34.9731333" lon="32.3742520">
<ele>581.36</ele>
<time>2015-04-25T11:24:05Z</time>
</trkpt>
<trkpt lat="34.9730732" lon="32.3742637">
<ele>581.28</ele>
<time>2015-04-25T11:24:07Z</time>
</trkpt>
<trkpt lat="34.9730140" lon="32.3742768">
<ele>581.01</ele>
<time>2015-04-25T11:24:09Z</time>
</trkpt>
<trkpt lat="34.9729585" lon="32.3742930">
<ele>580.95</ele>
<time>2015-04-25T11:24:11Z</time>
</trkpt>
<trkpt lat="34.9728977" lon="32.3743134">
<ele>580.68</ele>
<time>2015-04-25T11:24:13Z</time>
</trkpt>
<trkpt lat="34.9728388" lon="32.3743328">
<ele>580.86</ele>
<time>2015-04-25T11:24:15Z</time>
</trkpt>
<trkpt lat="34.9727823" lon="32.3743482">
<ele>581.66</ele>
<time>2015-04-25T11:24:17Z</time>
</trkpt>
<trkpt lat="34.9727318" lon="32.3743646">
<ele>581.86</ele>
<time>2015-04-25T11:24:19Z</time>
</trkpt>
<trkpt lat="34.9726820" lon="32.3743832">
<ele>582.66</ele>
<time>2015-04-25T11:24:21Z</time>
</trkpt>
<trkpt lat="34.9726380" lon="32.3743954">
<ele>582.11</ele>
<time>2015-04-25T11:24:23Z</time>
</trkpt>
<trkpt lat="34.9725938" lon="32.3744074">
<ele>581.97</ele>
<time>2015-04-25T11:24:25Z</time>
</trkpt>
<trkpt lat="34.9725258" lon="32.3744209">
<ele>582.43</ele>
<time>2015-04-25T11:24:28Z</time>
</trkpt>
<trkpt lat="34.9724596" lon="32.3744333">
<ele>581.74</ele>
<time>2015-04-25T11:24:31Z</time>
</trkpt>
<trkpt lat="34.9723992" lon="32.3744482">
<ele>581.90</ele>
<time>2015-04-25T11:24:34Z</time>
</trkpt>
<trkpt lat="34.9723360" lon="32.3744647">
<ele>582.80</ele>
<time>2015-04-25T11:24:37Z</time>
</trkpt>
<trkpt lat="34.9722739" lon="32.3744789">
<ele>582.91</ele>
<time>2015-04-25T11:24:40Z</time>
</trkpt>
<trkpt lat="34.9722087" lon="32.3744942">
<ele>583.42</ele>
<time>2015-04-25T11:24:43Z</time>
</trkpt>
<trkpt lat="34.9721604" lon="32.3745056">
<ele>583.80</ele>
<time>2015-04-25T11:24:45Z</time>
</trkpt>
<trkpt lat="34.9721123" lon="32.3745119">
<ele>583.89</ele>
<time>2015-04-25T11:24:47Z</time>
</trkpt>
<trkpt lat="34.9720615" lon="32.3745064">
<ele>583.92</ele>
<time>2015-04-25T11:24:50Z</time>
</trkpt>
<trkpt lat="34.9720188" lon="32.3745330">
<ele>587.17</ele>
<time>2015-04-25T11:40:04Z</time>
</trkpt>
<trkpt lat="34.9720670" lon="32.3745187">
<ele>587.17</ele>
<time>2015-04-25T11:40:11Z</time>
</trkpt>
<trkpt lat="34.9720236" lon="32.3745368">
<ele>585.05</ele>
<time>2015-04-25T11:48:24Z</time>
</trkpt>
<trkpt lat="34.9719809" lon="32.3745714">
<ele>585.12</ele>
<time>2015-04-25T11:48:29Z</time>
</trkpt>
<trkpt lat="34.9719597" lon="32.3745151">
<ele>584.07</ele>
<time>2015-04-25T11:48:32Z</time>
</trkpt>
<trkpt lat="34.9719883" lon="32.3744509">
<ele>583.46</ele>
<time>2015-04-25T11:48:34Z</time>
</trkpt>
<trkpt lat="34.9720350" lon="32.3743901">
<ele>582.31</ele>
<time>2015-04-25T11:48:36Z</time>
</trkpt>
<trkpt lat="34.9720875" lon="32.3743248">
<ele>581.52</ele>
<time>2015-04-25T11:48:38Z</time>
</trkpt>
<trkpt lat="34.9721479" lon="32.3742586">
<ele>580.82</ele>
<time>2015-04-25T11:48:40Z</time>
</trkpt>
<trkpt lat="34.9722159" lon="32.3742012">
<ele>580.90</ele>
<time>2015-04-25T11:48:42Z</time>
</trkpt>
<trkpt lat="34.9722849" lon="32.3741497">
<ele>580.67</ele>
<time>2015-04-25T11:48:44Z</time>
</trkpt>
<trkpt lat="34.9723558" lon="32.3741062">
<ele>580.86</ele>
<time>2015-04-25T11:48:46Z</time>
</trkpt>
<trkpt lat="34.9724396" lon="32.3740779">
<ele>578.66</ele>
<time>2015-04-25T11:48:48Z</time>
</trkpt>
<trkpt lat="34.9724850" lon="32.3740687">
<ele>577.79</ele>
<time>2015-04-25T11:48:49Z</time>
</trkpt>
<trkpt lat="34.9725818" lon="32.3740691">
<ele>576.36</ele>
<time>2015-04-25T11:48:50Z</time>
</trkpt>
<trkpt lat="34.9726310" lon="32.3740504">
<ele>575.14</ele>
<time>2015-04-25T11:48:51Z</time>
</trkpt>
<trkpt lat="34.9726936" lon="32.3740122">
<ele>574.03</ele>
<time>2015-04-25T11:48:52Z</time>
</trkpt>
<trkpt lat="34.9727618" lon="32.3739641">
<ele>572.98</ele>
<time>2015-04-25T11:48:53Z</time>
</trkpt>
<trkpt lat="34.9728289" lon="32.3739107">
<ele>572.95</ele>
<time>2015-04-25T11:48:54Z</time>
</trkpt>
<trkpt lat="34.9728876" lon="32.3738559">
<ele>572.94</ele>
<time>2015-04-25T11:48:55Z</time>
</trkpt>
<trkpt lat="34.9729493" lon="32.3737954">
<ele>572.93</ele>
<time>2015-04-25T11:48:56Z</time>
</trkpt>
<trkpt lat="34.9730064" lon="32.3737326">
<ele>572.93</ele>
<time>2015-04-25T11:48:57Z</time>
</trkpt>
<trkpt lat="34.9730570" lon="32.3736744">
<ele>573.43</ele>
<time>2015-04-25T11:48:58Z</time>
</trkpt>
<trkpt lat="34.9731071" lon="32.3736184">
<ele>573.68</ele>
<time>2015-04-25T11:48:59Z</time>
</trkpt>
<trkpt lat="34.9731704" lon="32.3735652">
<ele>573.30</ele>
<time>2015-04-25T11:49:00Z</time>
</trkpt>
<trkpt lat="34.9732330" lon="32.3735122">
<ele>573.11</ele>
<time>2015-04-25T11:49:01Z</time>
</trkpt>
<trkpt lat="34.9732940" lon="32.3734707">
<ele>572.52</ele>
<time>2015-04-25T11:49:02Z</time>
</trkpt>
<trkpt lat="34.9733627" lon="32.3734343">
<ele>571.72</ele>
<time>2015-04-25T11:49:03Z</time>
</trkpt>
<trkpt lat="34.9734332" lon="32.3733933">
<ele>570.82</ele>
<time>2015-04-25T11:49:04Z</time>
</trkpt>
<trkpt lat="34.9734913" lon="32.3733471">
<ele>569.87</ele>
<time>2015-04-25T11:49:05Z</time>
</trkpt>
<trkpt lat="34.9735435" lon="32.3732995">
<ele>568.40</ele>
<time>2015-04-25T11:49:06Z</time>
</trkpt>
<trkpt lat="34.9735814" lon="32.3732600">
<ele>568.16</ele>
<time>2015-04-25T11:49:07Z</time>
</trkpt>
<trkpt lat="34.9736273" lon="32.3732012">
<ele>568.04</ele>
<time>2015-04-25T11:49:08Z</time>
</trkpt>
<trkpt lat="34.9736798" lon="32.3731527">
<ele>567.48</ele>
<time>2015-04-25T11:49:09Z</time>
</trkpt>
<trkpt lat="34.9737363" lon="32.3730937">
<ele>566.70</ele>
<time>2015-04-25T11:49:10Z</time>
</trkpt>
<trkpt lat="34.9738053" lon="32.3730182">
<ele>565.81</ele>
<time>2015-04-25T11:49:11Z</time>
</trkpt>
<trkpt lat="34.9738611" lon="32.3729329">
<ele>564.37</ele>
<time>2015-04-25T11:49:12Z</time>
</trkpt>
<trkpt lat="34.9739130" lon="32.3728533">
<ele>563.15</ele>
<time>2015-04-25T11:49:13Z</time>
</trkpt>
<trkpt lat="34.9739726" lon="32.3727603">
<ele>562.54</ele>
<time>2015-04-25T11:49:14Z</time>
</trkpt>
<trkpt lat="34.9740140" lon="32.3726594">
<ele>561.73</ele>
<time>2015-04-25T11:49:15Z</time>
</trkpt>
<trkpt lat="34.9740662" lon="32.3725647">
<ele>561.33</ele>
<time>2015-04-25T11:49:16Z</time>
</trkpt>
<trkpt lat="34.9740932" lon="32.3724622">
<ele>561.13</ele>
<time>2015-04-25T11:49:17Z</time>
</trkpt>
<trkpt lat="34.9741192" lon="32.3723620">
<ele>560.53</ele>
<time>2015-04-25T11:49:18Z</time>
</trkpt>
<trkpt lat="34.9741338" lon="32.3722559">
<ele>560.73</ele>
<time>2015-04-25T11:49:19Z</time>
</trkpt>
<trkpt lat="34.9741444" lon="32.3721617">
<ele>560.83</ele>
<time>2015-04-25T11:49:20Z</time>
</trkpt>
<trkpt lat="34.9741625" lon="32.3720717">
<ele>560.38</ele>
<time>2015-04-25T11:49:21Z</time>
</trkpt>
<trkpt lat="34.9741770" lon="32.3719737">
<ele>560.15</ele>
<time>2015-04-25T11:49:22Z</time>
</trkpt>
<trkpt lat="34.9741994" lon="32.3719201">
<ele>559.54</ele>
<time>2015-04-25T11:49:23Z</time>
</trkpt>
<trkpt lat="34.9742293" lon="32.3718538">
<ele>558.73</ele>
<time>2015-04-25T11:49:24Z</time>
</trkpt>
<trkpt lat="34.9742478" lon="32.3717994">
<ele>557.83</ele>
<time>2015-04-25T11:49:25Z</time>
</trkpt>
<trkpt lat="34.9742777" lon="32.3717493">
<ele>557.65</ele>
<time>2015-04-25T11:49:27Z</time>
</trkpt>
<trkpt lat="34.9742912" lon="32.3716890">
<ele>559.30</ele>
<time>2015-04-25T11:50:43Z</time>
</trkpt>
<trkpt lat="34.9743171" lon="32.3716204">
<ele>559.02</ele>
<time>2015-04-25T11:50:45Z</time>
</trkpt>
<trkpt lat="34.9743457" lon="32.3715383">
<ele>557.95</ele>
<time>2015-04-25T11:50:47Z</time>
</trkpt>
<trkpt lat="34.9743829" lon="32.3714450">
<ele>556.68</ele>
<time>2015-04-25T11:50:49Z</time>
</trkpt>
<trkpt lat="34.9744067" lon="32.3713970">
<ele>556.30</ele>
<time>2015-04-25T11:50:50Z</time>
</trkpt>
<trkpt lat="34.9744494" lon="32.3713238">
<ele>556.11</ele>
<time>2015-04-25T11:50:51Z</time>
</trkpt>
<trkpt lat="34.9744804" lon="32.3712616">
<ele>555.52</ele>
<time>2015-04-25T11:50:52Z</time>
</trkpt>
<trkpt lat="34.9745160" lon="32.3712053">
<ele>555.22</ele>
<time>2015-04-25T11:50:53Z</time>
</trkpt>
<trkpt lat="34.9745468" lon="32.3711506">
<ele>554.57</ele>
<time>2015-04-25T11:50:54Z</time>
</trkpt>
<trkpt lat="34.9745824" lon="32.3710849">
<ele>553.75</ele>
<time>2015-04-25T11:50:55Z</time>
</trkpt>
<trkpt lat="34.9746210" lon="32.3710220">
<ele>553.34</ele>
<time>2015-04-25T11:50:56Z</time>
</trkpt>
<trkpt lat="34.9746590" lon="32.3709446">
<ele>553.13</ele>
<time>2015-04-25T11:50:57Z</time>
</trkpt>
<trkpt lat="34.9747129" lon="32.3708736">
<ele>551.53</ele>
<time>2015-04-25T11:50:58Z</time>
</trkpt>
<trkpt lat="34.9747559" lon="32.3708019">
<ele>550.73</ele>
<time>2015-04-25T11:50:59Z</time>
</trkpt>
<trkpt lat="34.9748012" lon="32.3707228">
<ele>549.33</ele>
<time>2015-04-25T11:51:00Z</time>
</trkpt>
<trkpt lat="34.9748485" lon="32.3706500">
<ele>548.13</ele>
<time>2015-04-25T11:51:01Z</time>
</trkpt>
<trkpt lat="34.9749117" lon="32.3705832">
<ele>546.03</ele>
<time>2015-04-25T11:51:02Z</time>
</trkpt>
<trkpt lat="34.9749598" lon="32.3705119">
<ele>544.48</ele>
<time>2015-04-25T11:51:03Z</time>
</trkpt>
<trkpt lat="34.9750060" lon="32.3704404">
<ele>543.20</ele>
<time>2015-04-25T11:51:04Z</time>
</trkpt>
<trkpt lat="34.9750593" lon="32.3703574">
<ele>542.06</ele>
<time>2015-04-25T11:51:05Z</time>
</trkpt>
<trkpt lat="34.9751037" lon="32.3702715">
<ele>540.49</ele>
<time>2015-04-25T11:51:06Z</time>
</trkpt>
<trkpt lat="34.9751489" lon="32.3701827">
<ele>539.71</ele>
<time>2015-04-25T11:51:07Z</time>
</trkpt>
<trkpt lat="34.9751926" lon="32.3700869">
<ele>539.32</ele>
<time>2015-04-25T11:51:08Z</time>
</trkpt>
<trkpt lat="34.9752446" lon="32.3699960">
<ele>539.12</ele>
<time>2015-04-25T11:51:09Z</time>
</trkpt>
<trkpt lat="34.9752940" lon="32.3699047">
<ele>539.02</ele>
<time>2015-04-25T11:51:10Z</time>
</trkpt>
<trkpt lat="34.9753570" lon="32.3698203">
<ele>538.97</ele>
<time>2015-04-25T11:51:11Z</time>
</trkpt>
<trkpt lat="34.9754143" lon="32.3697301">
<ele>538.45</ele>
<time>2015-04-25T11:51:12Z</time>
</trkpt>
<trkpt lat="34.9754782" lon="32.3696451">
<ele>538.19</ele>
<time>2015-04-25T11:51:13Z</time>
</trkpt>
<trkpt lat="34.9755334" lon="32.3695585">
<ele>537.56</ele>
<time>2015-04-25T11:51:14Z</time>
</trkpt>
<trkpt lat="34.9755849" lon="32.3694863">
<ele>536.74</ele>
<time>2015-04-25T11:51:15Z</time>
</trkpt>
<trkpt lat="34.9756325" lon="32.3693814">
<ele>536.33</ele>
<time>2015-04-25T11:51:16Z</time>
</trkpt>
<trkpt lat="34.9756669" lon="32.3692800">
<ele>536.13</ele>
<time>2015-04-25T11:51:17Z</time>
</trkpt>
<trkpt lat="34.9756925" lon="32.3691745">
<ele>535.53</ele>
<time>2015-04-25T11:51:18Z</time>
</trkpt>
<trkpt lat="34.9757046" lon="32.3690717">
<ele>534.73</ele>
<time>2015-04-25T11:51:19Z</time>
</trkpt>
<trkpt lat="34.9757006" lon="32.3689794">
<ele>534.83</ele>
<time>2015-04-25T11:51:20Z</time>
</trkpt>
<trkpt lat="34.9756919" lon="32.3688986">
<ele>534.88</ele>
<time>2015-04-25T11:51:21Z</time>
</trkpt>
<trkpt lat="34.9756803" lon="32.3688235">
<ele>535.40</ele>
<time>2015-04-25T11:51:22Z</time>
</trkpt>
<trkpt lat="34.9756660" lon="32.3687475">
<ele>535.66</ele>
<time>2015-04-25T11:51:23Z</time>
</trkpt>
<trkpt lat="34.9756605" lon="32.3686797">
<ele>535.79</ele>
<time>2015-04-25T11:51:24Z</time>
</trkpt>
<trkpt lat="34.9756570" lon="32.3686002">
<ele>535.86</ele>
<time>2015-04-25T11:51:25Z</time>
</trkpt>
<trkpt lat="34.9756507" lon="32.3685245">
<ele>535.89</ele>
<time>2015-04-25T11:51:26Z</time>
</trkpt>
<trkpt lat="34.9756386" lon="32.3684433">
<ele>535.91</ele>
<time>2015-04-25T11:51:27Z</time>
</trkpt>
<trkpt lat="34.9756306" lon="32.3683680">
<ele>536.92</ele>
<time>2015-04-25T11:51:28Z</time>
</trkpt>
<trkpt lat="34.9756281" lon="32.3682864">
<ele>537.42</ele>
<time>2015-04-25T11:51:29Z</time>
</trkpt>
<trkpt lat="34.9756339" lon="32.3682086">
<ele>537.17</ele>
<time>2015-04-25T11:51:30Z</time>
</trkpt>
<trkpt lat="34.9756384" lon="32.3681408">
<ele>537.55</ele>
<time>2015-04-25T11:51:31Z</time>
</trkpt>
<trkpt lat="34.9756521" lon="32.3680591">
<ele>537.24</ele>
<time>2015-04-25T11:51:32Z</time>
</trkpt>
<trkpt lat="34.9756661" lon="32.3679860">
<ele>537.08</ele>
<time>2015-04-25T11:51:33Z</time>
</trkpt>
<trkpt lat="34.9756818" lon="32.3679013">
<ele>537.00</ele>
<time>2015-04-25T11:51:34Z</time>
</trkpt>
<trkpt lat="34.9756995" lon="32.3678097">
<ele>536.96</ele>
<time>2015-04-25T11:51:35Z</time>
</trkpt>
<trkpt lat="34.9757055" lon="32.3677187">
<ele>536.44</ele>
<time>2015-04-25T11:51:36Z</time>
</trkpt>
<trkpt lat="34.9757019" lon="32.3676354">
<ele>536.68</ele>
<time>2015-04-25T11:51:37Z</time>
</trkpt>
<trkpt lat="34.9756988" lon="32.3675608">
<ele>536.80</ele>
<time>2015-04-25T11:51:38Z</time>
</trkpt>
<trkpt lat="34.9757004" lon="32.3674882">
<ele>536.36</ele>
<time>2015-04-25T11:51:39Z</time>
</trkpt>
<trkpt lat="34.9757323" lon="32.3674095">
<ele>535.64</ele>
<time>2015-04-25T11:51:40Z</time>
</trkpt>
<trkpt lat="34.9757516" lon="32.3673323">
<ele>535.28</ele>
<time>2015-04-25T11:51:41Z</time>
</trkpt>
<trkpt lat="34.9757803" lon="32.3672532">
<ele>535.10</ele>
<time>2015-04-25T11:51:42Z</time>
</trkpt>
<trkpt lat="34.9758126" lon="32.3671741">
<ele>535.02</ele>
<time>2015-04-25T11:51:43Z</time>
</trkpt>
<trkpt lat="34.9758525" lon="32.3670942">
<ele>534.47</ele>
<time>2015-04-25T11:51:44Z</time>
</trkpt>
<trkpt lat="34.9759060" lon="32.3670168">
<ele>533.70</ele>
<time>2015-04-25T11:51:45Z</time>
</trkpt>
<trkpt lat="34.9759531" lon="32.3669373">
<ele>532.81</ele>
<time>2015-04-25T11:51:46Z</time>
</trkpt>
<trkpt lat="34.9760029" lon="32.3668650">
<ele>533.37</ele>
<time>2015-04-25T11:51:47Z</time>
</trkpt>
<trkpt lat="34.9760541" lon="32.3667828">
<ele>533.65</ele>
<time>2015-04-25T11:51:48Z</time>
</trkpt>
<trkpt lat="34.9761058" lon="32.3667115">
<ele>533.79</ele>
<time>2015-04-25T11:51:49Z</time>
</trkpt>
<trkpt lat="34.9761490" lon="32.3666328">
<ele>533.36</ele>
<time>2015-04-25T11:51:50Z</time>
</trkpt>
<trkpt lat="34.9762056" lon="32.3665592">
<ele>533.14</ele>
<time>2015-04-25T11:51:51Z</time>
</trkpt>
<trkpt lat="34.9762682" lon="32.3665037">
<ele>532.53</ele>
<time>2015-04-25T11:51:52Z</time>
</trkpt>
<trkpt lat="34.9763268" lon="32.3664459">
<ele>532.23</ele>
<time>2015-04-25T11:51:53Z</time>
</trkpt>
<trkpt lat="34.9763756" lon="32.3663808">
<ele>532.08</ele>
<time>2015-04-25T11:51:54Z</time>
</trkpt>
<trkpt lat="34.9764176" lon="32.3663175">
<ele>531.50</ele>
<time>2015-04-25T11:51:55Z</time>
</trkpt>
<trkpt lat="34.9764596" lon="32.3662409">
<ele>531.21</ele>
<time>2015-04-25T11:51:56Z</time>
</trkpt>
<trkpt lat="34.9764966" lon="32.3661724">
<ele>530.57</ele>
<time>2015-04-25T11:51:57Z</time>
</trkpt>
<trkpt lat="34.9765299" lon="32.3661122">
<ele>530.75</ele>
<time>2015-04-25T11:51:58Z</time>
</trkpt>
<trkpt lat="34.9765518" lon="32.3660534">
<ele>530.34</ele>
<time>2015-04-25T11:51:59Z</time>
</trkpt>
<trkpt lat="34.9765778" lon="32.3659978">
<ele>530.63</ele>
<time>2015-04-25T11:52:00Z</time>
</trkpt>
<trkpt lat="34.9765944" lon="32.3659387">
<ele>530.78</ele>
<time>2015-04-25T11:52:01Z</time>
</trkpt>
<trkpt lat="34.9766233" lon="32.3658827">
<ele>530.35</ele>
<time>2015-04-25T11:52:02Z</time>
</trkpt>
<trkpt lat="34.9766456" lon="32.3658170">
<ele>530.14</ele>
<time>2015-04-25T11:52:03Z</time>
</trkpt>
<trkpt lat="34.9766614" lon="32.3657399">
<ele>529.03</ele>
<time>2015-04-25T11:52:04Z</time>
</trkpt>
<trkpt lat="34.9766720" lon="32.3656537">
<ele>528.48</ele>
<time>2015-04-25T11:52:05Z</time>
</trkpt>
<trkpt lat="34.9766859" lon="32.3655667">
<ele>527.20</ele>
<time>2015-04-25T11:52:06Z</time>
</trkpt>
<trkpt lat="34.9767064" lon="32.3654784">
<ele>526.06</ele>
<time>2015-04-25T11:52:07Z</time>
</trkpt>
<trkpt lat="34.9767257" lon="32.3653926">
<ele>524.99</ele>
<time>2015-04-25T11:52:08Z</time>
</trkpt>
<trkpt lat="34.9767519" lon="32.3653112">
<ele>524.96</ele>
<time>2015-04-25T11:52:09Z</time>
</trkpt>
<trkpt lat="34.9767844" lon="32.3652390">
<ele>524.94</ele>
<time>2015-04-25T11:52:10Z</time>
</trkpt>
<trkpt lat="34.9768069" lon="32.3651628">
<ele>524.93</ele>
<time>2015-04-25T11:52:11Z</time>
</trkpt>
<trkpt lat="34.9768602" lon="32.3650930">
<ele>524.93</ele>
<time>2015-04-25T11:52:12Z</time>
</trkpt>
<trkpt lat="34.9769000" lon="32.3650208">
<ele>524.93</ele>
<time>2015-04-25T11:52:13Z</time>
</trkpt>
<trkpt lat="34.9769388" lon="32.3649612">
<ele>524.93</ele>
<time>2015-04-25T11:52:14Z</time>
</trkpt>
<trkpt lat="34.9769687" lon="32.3649025">
<ele>524.93</ele>
<time>2015-04-25T11:52:15Z</time>
</trkpt>
<trkpt lat="34.9769956" lon="32.3648396">
<ele>525.43</ele>
<time>2015-04-25T11:52:16Z</time>
</trkpt>
<trkpt lat="34.9770235" lon="32.3647736">
<ele>525.68</ele>
<time>2015-04-25T11:52:17Z</time>
</trkpt>
<trkpt lat="34.9770454" lon="32.3647023">
<ele>525.80</ele>
<time>2015-04-25T11:52:18Z</time>
</trkpt>
<trkpt lat="34.9770523" lon="32.3646367">
<ele>525.86</ele>
<time>2015-04-25T11:52:19Z</time>
</trkpt>
<trkpt lat="34.9770700" lon="32.3645557">
<ele>525.89</ele>
<time>2015-04-25T11:52:20Z</time>
</trkpt>
<trkpt lat="34.9770876" lon="32.3644899">
<ele>525.91</ele>
<time>2015-04-25T11:52:21Z</time>
</trkpt>
<trkpt lat="34.9771144" lon="32.3644249">
<ele>526.42</ele>
<time>2015-04-25T11:52:22Z</time>
</trkpt>
<trkpt lat="34.9771256" lon="32.3643524">
<ele>526.67</ele>
<time>2015-04-25T11:52:23Z</time>
</trkpt>
<trkpt lat="34.9771344" lon="32.3642848">
<ele>527.30</ele>
<time>2015-04-25T11:52:24Z</time>
</trkpt>
<trkpt lat="34.9771431" lon="32.3642138">
<ele>527.11</ele>
<time>2015-04-25T11:52:25Z</time>
</trkpt>
<trkpt lat="34.9771508" lon="32.3641324">
<ele>527.02</ele>
<time>2015-04-25T11:52:26Z</time>
</trkpt>
<trkpt lat="34.9771592" lon="32.3640632">
<ele>526.97</ele>
<time>2015-04-25T11:52:27Z</time>
</trkpt>
<trkpt lat="34.9771790" lon="32.3639993">
<ele>525.95</ele>
<time>2015-04-25T11:52:28Z</time>
</trkpt>
<trkpt lat="34.9771949" lon="32.3639245">
<ele>524.94</ele>
<time>2015-04-25T11:52:29Z</time>
</trkpt>
<trkpt lat="34.9772084" lon="32.3638496">
<ele>524.93</ele>
<time>2015-04-25T11:52:30Z</time>
</trkpt>
<trkpt lat="34.9772332" lon="32.3637844">
<ele>525.43</ele>
<time>2015-04-25T11:52:31Z</time>
</trkpt>
<trkpt lat="34.9772560" lon="32.3637239">
<ele>525.68</ele>
<time>2015-04-25T11:52:32Z</time>
</trkpt>
<trkpt lat="34.9772676" lon="32.3636560">
<ele>526.30</ele>
<time>2015-04-25T11:52:33Z</time>
</trkpt>
<trkpt lat="34.9772846" lon="32.3636034">
<ele>526.61</ele>
<time>2015-04-25T11:52:34Z</time>
</trkpt>
<trkpt lat="34.9772917" lon="32.3635481">
<ele>526.77</ele>
<time>2015-04-25T11:52:35Z</time>
</trkpt>
<trkpt lat="34.9773124" lon="32.3634471">
<ele>526.89</ele>
<time>2015-04-25T11:52:37Z</time>
</trkpt>
<trkpt lat="34.9773459" lon="32.3633726">
<ele>526.67</ele>
<time>2015-04-25T11:52:39Z</time>
</trkpt>
<trkpt lat="34.9773639" lon="32.3633051">
<ele>526.11</ele>
<time>2015-04-25T11:52:41Z</time>
</trkpt>
<trkpt lat="34.9773968" lon="32.3632302">
<ele>525.97</ele>
<time>2015-04-25T11:52:43Z</time>
</trkpt>
<trkpt lat="34.9774157" lon="32.3631281">
<ele>525.94</ele>
<time>2015-04-25T11:52:45Z</time>
</trkpt>
<trkpt lat="34.9774445" lon="32.3630422">
<ele>525.93</ele>
<time>2015-04-25T11:52:47Z</time>
</trkpt>
<trkpt lat="34.9774788" lon="32.3629536">
<ele>525.93</ele>
<time>2015-04-25T11:52:49Z</time>
</trkpt>
<trkpt lat="34.9775085" lon="32.3628708">
<ele>525.18</ele>
<time>2015-04-25T11:52:51Z</time>
</trkpt>
<trkpt lat="34.9775400" lon="32.3627879">
<ele>525.74</ele>
<time>2015-04-25T11:52:53Z</time>
</trkpt>
<trkpt lat="34.9775753" lon="32.3627148">
<ele>525.88</ele>
<time>2015-04-25T11:52:55Z</time>
</trkpt>
<trkpt lat="34.9776123" lon="32.3626419">
<ele>526.66</ele>
<time>2015-04-25T11:52:57Z</time>
</trkpt>
<trkpt lat="34.9776458" lon="32.3625710">
<ele>527.61</ele>
<time>2015-04-25T11:52:59Z</time>
</trkpt>
<trkpt lat="34.9776791" lon="32.3624969">
<ele>527.85</ele>
<time>2015-04-25T11:53:01Z</time>
</trkpt>
<trkpt lat="34.9777077" lon="32.3624280">
<ele>527.91</ele>
<time>2015-04-25T11:53:03Z</time>
</trkpt>
<trkpt lat="34.9777395" lon="32.3623676">
<ele>528.42</ele>
<time>2015-04-25T11:53:05Z</time>
</trkpt>
<trkpt lat="34.9777787" lon="32.3623120">
<ele>527.55</ele>
<time>2015-04-25T11:53:07Z</time>
</trkpt>
<trkpt lat="34.9778197" lon="32.3622471">
<ele>527.58</ele>
<time>2015-04-25T11:53:09Z</time>
</trkpt>
<trkpt lat="34.9778552" lon="32.3621822">
<ele>527.34</ele>
<time>2015-04-25T11:53:11Z</time>
</trkpt>
<trkpt lat="34.9778848" lon="32.3621125">
<ele>527.03</ele>
<time>2015-04-25T11:53:13Z</time>
</trkpt>
<trkpt lat="34.9779119" lon="32.3620440">
<ele>526.95</ele>
<time>2015-04-25T11:53:15Z</time>
</trkpt>
<trkpt lat="34.9779338" lon="32.3619671">
<ele>526.93</ele>
<time>2015-04-25T11:53:17Z</time>
</trkpt>
<trkpt lat="34.9779557" lon="32.3618924">
<ele>528.18</ele>
<time>2015-04-25T11:53:19Z</time>
</trkpt>
<trkpt lat="34.9779790" lon="32.3618151">
<ele>528.74</ele>
<time>2015-04-25T11:53:21Z</time>
</trkpt>
<trkpt lat="34.9780034" lon="32.3617339">
<ele>527.63</ele>
<time>2015-04-25T11:53:23Z</time>
</trkpt>
<trkpt lat="34.9780396" lon="32.3616462">
<ele>527.10</ele>
<time>2015-04-25T11:53:25Z</time>
</trkpt>
<trkpt lat="34.9780732" lon="32.3615727">
<ele>527.01</ele>
<time>2015-04-25T11:53:26Z</time>
</trkpt>
<trkpt lat="34.9781022" lon="32.3615292">
<ele>526.97</ele>
<time>2015-04-25T11:53:27Z</time>
</trkpt>
<trkpt lat="34.9781373" lon="32.3614804">
<ele>526.45</ele>
<time>2015-04-25T11:53:28Z</time>
</trkpt>
<trkpt lat="34.9781845" lon="32.3614395">
<ele>526.69</ele>
<time>2015-04-25T11:53:29Z</time>
</trkpt>
<trkpt lat="34.9782225" lon="32.3613910">
<ele>526.81</ele>
<time>2015-04-25T11:53:30Z</time>
</trkpt>
<trkpt lat="34.9782569" lon="32.3613342">
<ele>526.37</ele>
<time>2015-04-25T11:53:31Z</time>
</trkpt>
<trkpt lat="34.9782927" lon="32.3612753">
<ele>525.65</ele>
<time>2015-04-25T11:53:32Z</time>
</trkpt>
<trkpt lat="34.9783241" lon="32.3612346">
<ele>525.79</ele>
<time>2015-04-25T11:53:33Z</time>
</trkpt>
<trkpt lat="34.9783485" lon="32.3611750">
<ele>525.86</ele>
<time>2015-04-25T11:53:34Z</time>
</trkpt>
<trkpt lat="34.9783682" lon="32.3611225">
<ele>525.89</ele>
<time>2015-04-25T11:53:35Z</time>
</trkpt>
<trkpt lat="34.9783942" lon="32.3610542">
<ele>525.41</ele>
<time>2015-04-25T11:53:36Z</time>
</trkpt>
<trkpt lat="34.9784194" lon="32.3609989">
<ele>525.17</ele>
<time>2015-04-25T11:53:37Z</time>
</trkpt>
<trkpt lat="34.9784544" lon="32.3609430">
<ele>525.55</ele>
<time>2015-04-25T11:53:38Z</time>
</trkpt>
<trkpt lat="34.9784874" lon="32.3608894">
<ele>525.74</ele>
<time>2015-04-25T11:53:39Z</time>
</trkpt>
<trkpt lat="34.9785252" lon="32.3608295">
<ele>525.33</ele>
<time>2015-04-25T11:53:40Z</time>
</trkpt>
<trkpt lat="34.9785641" lon="32.3607651">
<ele>525.13</ele>
<time>2015-04-25T11:53:41Z</time>
</trkpt>
<trkpt lat="34.9786112" lon="32.3606981">
<ele>525.03</ele>
<time>2015-04-25T11:53:42Z</time>
</trkpt>
<trkpt lat="34.9786563" lon="32.3606222">
<ele>524.98</ele>
<time>2015-04-25T11:53:43Z</time>
</trkpt>
<trkpt lat="34.9787088" lon="32.3605652">
<ele>524.95</ele>
<time>2015-04-25T11:53:44Z</time>
</trkpt>
<trkpt lat="34.9787569" lon="32.3604983">
<ele>524.44</ele>
<time>2015-04-25T11:53:45Z</time>
</trkpt>
<trkpt lat="34.9788017" lon="32.3604448">
<ele>524.68</ele>
<time>2015-04-25T11:53:46Z</time>
</trkpt>
<trkpt lat="34.9788477" lon="32.3603865">
<ele>524.80</ele>
<time>2015-04-25T11:53:47Z</time>
</trkpt>
<trkpt lat="34.9788842" lon="32.3603308">
<ele>524.86</ele>
<time>2015-04-25T11:53:48Z</time>
</trkpt>
<trkpt lat="34.9789158" lon="32.3602730">
<ele>524.39</ele>
<time>2015-04-25T11:53:49Z</time>
</trkpt>
<trkpt lat="34.9789502" lon="32.3602196">
<ele>524.16</ele>
<time>2015-04-25T11:53:50Z</time>
</trkpt>
<trkpt lat="34.9789820" lon="32.3601450">
<ele>523.54</ele>
<time>2015-04-25T11:53:51Z</time>
</trkpt>
<trkpt lat="34.9790078" lon="32.3600760">
<ele>523.23</ele>
<time>2015-04-25T11:53:52Z</time>
</trkpt>
<trkpt lat="34.9790462" lon="32.3600052">
<ele>523.08</ele>
<time>2015-04-25T11:53:53Z</time>
</trkpt>
<trkpt lat="34.9790875" lon="32.3599432">
<ele>523.50</ele>
<time>2015-04-25T11:53:54Z</time>
</trkpt>
<trkpt lat="34.9791211" lon="32.3598861">
<ele>523.21</ele>
<time>2015-04-25T11:53:55Z</time>
</trkpt>
<trkpt lat="34.9791558" lon="32.3598217">
<ele>522.57</ele>
<time>2015-04-25T11:53:56Z</time>
</trkpt>
<trkpt lat="34.9791718" lon="32.3597405">
<ele>522.25</ele>
<time>2015-04-25T11:53:57Z</time>
</trkpt>
<trkpt lat="34.9792042" lon="32.3596591">
<ele>522.09</ele>
<time>2015-04-25T11:53:58Z</time>
</trkpt>
<trkpt lat="34.9792210" lon="32.3595780">
<ele>521.51</ele>
<time>2015-04-25T11:53:59Z</time>
</trkpt>
<trkpt lat="34.9792474" lon="32.3594954">
<ele>520.22</ele>
<time>2015-04-25T11:54:00Z</time>
</trkpt>
<trkpt lat="34.9792748" lon="32.3594209">
<ele>519.57</ele>
<time>2015-04-25T11:54:01Z</time>
</trkpt>
<trkpt lat="34.9793172" lon="32.3593450">
<ele>518.75</ele>
<time>2015-04-25T11:54:02Z</time>
</trkpt>
<trkpt lat="34.9793454" lon="32.3592722">
<ele>518.34</ele>
<time>2015-04-25T11:54:03Z</time>
</trkpt>
<trkpt lat="34.9793800" lon="32.3591802">
<ele>517.63</ele>
<time>2015-04-25T11:54:04Z</time>
</trkpt>
<trkpt lat="34.9794098" lon="32.3591043">
<ele>517.28</ele>
<time>2015-04-25T11:54:05Z</time>
</trkpt>
<trkpt lat="34.9794422" lon="32.3590313">
<ele>517.60</ele>
<time>2015-04-25T11:54:06Z</time>
</trkpt>
<trkpt lat="34.9794702" lon="32.3589452">
<ele>517.26</ele>
<time>2015-04-25T11:54:07Z</time>
</trkpt>
<trkpt lat="34.9794903" lon="32.3588542">
<ele>516.59</ele>
<time>2015-04-25T11:54:08Z</time>
</trkpt>
<trkpt lat="34.9795194" lon="32.3587642">
<ele>516.26</ele>
<time>2015-04-25T11:54:09Z</time>
</trkpt>
<trkpt lat="34.9795436" lon="32.3586724">
<ele>516.09</ele>
<time>2015-04-25T11:54:10Z</time>
</trkpt>
<trkpt lat="34.9795633" lon="32.3585879">
<ele>515.01</ele>
<time>2015-04-25T11:54:11Z</time>
</trkpt>
<trkpt lat="34.9795911" lon="32.3584871">
<ele>514.47</ele>
<time>2015-04-25T11:54:12Z</time>
</trkpt>
<trkpt lat="34.9796115" lon="32.3583996">
<ele>513.70</ele>
<time>2015-04-25T11:54:13Z</time>
</trkpt>
<trkpt lat="34.9796454" lon="32.3583195">
<ele>512.81</ele>
<time>2015-04-25T11:54:14Z</time>
</trkpt>
<trkpt lat="34.9796621" lon="32.3582353">
<ele>511.87</ele>
<time>2015-04-25T11:54:15Z</time>
</trkpt>
<trkpt lat="34.9796850" lon="32.3581535">
<ele>511.40</ele>
<time>2015-04-25T11:54:16Z</time>
</trkpt>
<trkpt lat="34.9797067" lon="32.3580625">
<ele>510.66</ele>
<time>2015-04-25T11:54:17Z</time>
</trkpt>
<trkpt lat="34.9797410" lon="32.3579840">
<ele>510.29</ele>
<time>2015-04-25T11:54:18Z</time>
</trkpt>
<trkpt lat="34.9797720" lon="32.3579116">
<ele>510.11</ele>
<time>2015-04-25T11:54:19Z</time>
</trkpt>
<trkpt lat="34.9798106" lon="32.3578320">
<ele>510.52</ele>
<time>2015-04-25T11:54:20Z</time>
</trkpt>
<trkpt lat="34.9798300" lon="32.3577512">
<ele>510.72</ele>
<time>2015-04-25T11:54:21Z</time>
</trkpt>
<trkpt lat="34.9798418" lon="32.3576636">
<ele>510.82</ele>
<time>2015-04-25T11:54:22Z</time>
</trkpt>
<trkpt lat="34.9798590" lon="32.3575864">
<ele>511.37</ele>
<time>2015-04-25T11:54:23Z</time>
</trkpt>
<trkpt lat="34.9798862" lon="32.3575086">
<ele>511.65</ele>
<time>2015-04-25T11:54:24Z</time>
</trkpt>
<trkpt lat="34.9799165" lon="32.3574312">
<ele>511.29</ele>
<time>2015-04-25T11:54:25Z</time>
</trkpt>
<trkpt lat="34.9799323" lon="32.3573474">
<ele>511.11</ele>
<time>2015-04-25T11:54:26Z</time>
</trkpt>
<trkpt lat="34.9799540" lon="32.3572840">
<ele>511.52</ele>
<time>2015-04-25T11:54:27Z</time>
</trkpt>
<trkpt lat="34.9799745" lon="32.3572137">
<ele>511.22</ele>
<time>2015-04-25T11:54:28Z</time>
</trkpt>
<trkpt lat="34.9800010" lon="32.3571465">
<ele>511.07</ele>
<time>2015-04-25T11:54:29Z</time>
</trkpt>
<trkpt lat="34.9800336" lon="32.3570908">
<ele>510.50</ele>
<time>2015-04-25T11:54:30Z</time>
</trkpt>
<trkpt lat="34.9800557" lon="32.3570128">
<ele>509.71</ele>
<time>2015-04-25T11:54:31Z</time>
</trkpt>
<trkpt lat="34.9800852" lon="32.3569314">
<ele>509.32</ele>
<time>2015-04-25T11:54:32Z</time>
</trkpt>
<trkpt lat="34.9801194" lon="32.3568508">
<ele>508.62</ele>
<time>2015-04-25T11:54:33Z</time>
</trkpt>
<trkpt lat="34.9801569" lon="32.3567777">
<ele>507.77</ele>
<time>2015-04-25T11:54:34Z</time>
</trkpt>
<trkpt lat="34.9801956" lon="32.3567108">
<ele>507.35</ele>
<time>2015-04-25T11:54:35Z</time>
</trkpt>
<trkpt lat="34.9802343" lon="32.3566389">
<ele>506.64</ele>
<time>2015-04-25T11:54:36Z</time>
</trkpt>
<trkpt lat="34.9802674" lon="32.3565681">
<ele>506.28</ele>
<time>2015-04-25T11:54:37Z</time>
</trkpt>
<trkpt lat="34.9803096" lon="32.3565054">
<ele>506.10</ele>
<time>2015-04-25T11:54:38Z</time>
</trkpt>
<trkpt lat="34.9803481" lon="32.3564523">
<ele>505.51</ele>
<time>2015-04-25T11:54:39Z</time>
</trkpt>
<trkpt lat="34.9803878" lon="32.3563961">
<ele>505.22</ele>
<time>2015-04-25T11:54:40Z</time>
</trkpt>
<trkpt lat="34.9804233" lon="32.3563421">
<ele>505.57</ele>
<time>2015-04-25T11:54:41Z</time>
</trkpt>
<trkpt lat="34.9804436" lon="32.3562781">
<ele>505.75</ele>
<time>2015-04-25T11:54:42Z</time>
</trkpt>
<trkpt lat="34.9804664" lon="32.3562276">
<ele>505.84</ele>
<time>2015-04-25T11:54:43Z</time>
</trkpt>
<trkpt lat="34.9804922" lon="32.3561663">
<ele>505.88</ele>
<time>2015-04-25T11:54:44Z</time>
</trkpt>
<trkpt lat="34.9805226" lon="32.3561158">
<ele>506.40</ele>
<time>2015-04-25T11:54:45Z</time>
</trkpt>
<trkpt lat="34.9805563" lon="32.3560275">
<ele>505.54</ele>
<time>2015-04-25T11:54:47Z</time>
</trkpt>
<trkpt lat="34.9806077" lon="32.3559538">
<ele>505.83</ele>
<time>2015-04-25T11:54:49Z</time>
</trkpt>
<trkpt lat="34.9806592" lon="32.3558692">
<ele>505.15</ele>
<time>2015-04-25T11:54:51Z</time>
</trkpt>
<trkpt lat="34.9806972" lon="32.3558218">
<ele>505.04</ele>
<time>2015-04-25T11:54:52Z</time>
</trkpt>
<trkpt lat="34.9807351" lon="32.3557763">
<ele>504.98</ele>
<time>2015-04-25T11:54:53Z</time>
</trkpt>
<trkpt lat="34.9807694" lon="32.3557244">
<ele>505.45</ele>
<time>2015-04-25T11:54:54Z</time>
</trkpt>
<trkpt lat="34.9808336" lon="32.3556381">
<ele>505.81</ele>
<time>2015-04-25T11:54:56Z</time>
</trkpt>
<trkpt lat="34.9808692" lon="32.3555970">
<ele>505.87</ele>
<time>2015-04-25T11:54:57Z</time>
</trkpt>
<trkpt lat="34.9809076" lon="32.3555499">
<ele>506.40</ele>
<time>2015-04-25T11:54:58Z</time>
</trkpt>
<trkpt lat="34.9809523" lon="32.3555121">
<ele>506.66</ele>
<time>2015-04-25T11:54:59Z</time>
</trkpt>
<trkpt lat="34.9809919" lon="32.3554745">
<ele>506.79</ele>
<time>2015-04-25T11:55:00Z</time>
</trkpt>
<trkpt lat="34.9810316" lon="32.3554366">
<ele>506.86</ele>
<time>2015-04-25T11:55:01Z</time>
</trkpt>
<trkpt lat="34.9810776" lon="32.3553980">
<ele>506.89</ele>
<time>2015-04-25T11:55:02Z</time>
</trkpt>
<trkpt lat="34.9811220" lon="32.3553617">
<ele>506.41</ele>
<time>2015-04-25T11:55:03Z</time>
</trkpt>
<trkpt lat="34.9811656" lon="32.3553314">
<ele>505.67</ele>
<time>2015-04-25T11:55:04Z</time>
</trkpt>
<trkpt lat="34.9812102" lon="32.3552932">
<ele>505.30</ele>
<time>2015-04-25T11:55:05Z</time>
</trkpt>
<trkpt lat="34.9812514" lon="32.3552562">
<ele>505.11</ele>
<time>2015-04-25T11:55:06Z</time>
</trkpt>
<trkpt lat="34.9812912" lon="32.3552222">
<ele>505.52</ele>
<time>2015-04-25T11:55:07Z</time>
</trkpt>
<trkpt lat="34.9813609" lon="32.3551536">
<ele>506.07</ele>
<time>2015-04-25T11:55:09Z</time>
</trkpt>
<trkpt lat="34.9814331" lon="32.3550998">
<ele>506.46</ele>
<time>2015-04-25T11:55:11Z</time>
</trkpt>
<trkpt lat="34.9814919" lon="32.3550186">
<ele>507.56</ele>
<time>2015-04-25T11:55:13Z</time>
</trkpt>
<trkpt lat="34.9815436" lon="32.3549421">
<ele>508.33</ele>
<time>2015-04-25T11:55:15Z</time>
</trkpt>
<trkpt lat="34.9815626" lon="32.3548670">
<ele>508.78</ele>
<time>2015-04-25T11:55:17Z</time>
</trkpt>
<trkpt lat="34.9816041" lon="32.3548081">
<ele>508.14</ele>
<time>2015-04-25T11:55:19Z</time>
</trkpt>
<trkpt lat="34.9816535" lon="32.3547432">
<ele>507.23</ele>
<time>2015-04-25T11:55:21Z</time>
</trkpt>
<trkpt lat="34.9817013" lon="32.3546861">
<ele>506.75</ele>
<time>2015-04-25T11:55:23Z</time>
</trkpt>
<trkpt lat="34.9817571" lon="32.3546370">
<ele>507.38</ele>
<time>2015-04-25T11:55:25Z</time>
</trkpt>
<trkpt lat="34.9818152" lon="32.3546359">
<ele>507.54</ele>
<time>2015-04-25T11:55:27Z</time>
</trkpt>
<trkpt lat="34.9818598" lon="32.3546437">
<ele>508.83</ele>
<time>2015-04-25T11:55:29Z</time>
</trkpt>
<trkpt lat="34.9819171" lon="32.3546646">
<ele>508.98</ele>
<time>2015-04-25T11:55:33Z</time>
</trkpt>
<trkpt lat="34.9819589" lon="32.3547036">
<ele>507.99</ele>
<time>2015-04-25T11:55:37Z</time>
</trkpt>
<trkpt lat="34.9820054" lon="32.3547127">
<ele>505.81</ele>
<time>2015-04-25T11:55:40Z</time>
</trkpt>
<trkpt lat="34.9820612" lon="32.3547164">
<ele>507.29</ele>
<time>2015-04-25T11:55:44Z</time>
</trkpt>
<trkpt lat="34.9821111" lon="32.3546992">
<ele>508.39</ele>
<time>2015-04-25T11:55:48Z</time>
</trkpt>
<trkpt lat="34.9821639" lon="32.3546593">
<ele>507.64</ele>
<time>2015-04-25T11:55:52Z</time>
</trkpt>
<trkpt lat="34.9822021" lon="32.3546236">
<ele>507.01</ele>
<time>2015-04-25T11:55:55Z</time>
</trkpt>
<trkpt lat="34.9822423" lon="32.3545907">
<ele>506.94</ele>
<time>2015-04-25T11:55:58Z</time>
</trkpt>
<trkpt lat="34.9822835" lon="32.3545500">
<ele>506.05</ele>
<time>2015-04-25T11:56:01Z</time>
</trkpt>
<trkpt lat="34.9823196" lon="32.3545040">
<ele>505.69</ele>
<time>2015-04-25T11:56:04Z</time>
</trkpt>
<trkpt lat="34.9823439" lon="32.3544549">
<ele>503.42</ele>
<time>2015-04-25T12:03:23Z</time>
</trkpt>
<trkpt lat="34.9823771" lon="32.3544069">
<ele>502.55</ele>
<time>2015-04-25T12:03:25Z</time>
</trkpt>
<trkpt lat="34.9824028" lon="32.3543348">
<ele>501.58</ele>
<time>2015-04-25T12:03:27Z</time>
</trkpt>
<trkpt lat="34.9824268" lon="32.3542294">
<ele>500.09</ele>
<time>2015-04-25T12:03:29Z</time>
</trkpt>
<trkpt lat="34.9824283" lon="32.3541561">
<ele>499.01</ele>
<time>2015-04-25T12:03:30Z</time>
</trkpt>
<trkpt lat="34.9824450" lon="32.3541020">
<ele>497.97</ele>
<time>2015-04-25T12:03:31Z</time>
</trkpt>
<trkpt lat="34.9824628" lon="32.3540449">
<ele>496.95</ele>
<time>2015-04-25T12:03:32Z</time>
</trkpt>
<trkpt lat="34.9824798" lon="32.3539837">
<ele>496.44</ele>
<time>2015-04-25T12:03:33Z</time>
</trkpt>
<trkpt lat="34.9825000" lon="32.3539269">
<ele>495.68</ele>
<time>2015-04-25T12:03:34Z</time>
</trkpt>
<trkpt lat="34.9825183" lon="32.3538540">
<ele>494.80</ele>
<time>2015-04-25T12:03:35Z</time>
</trkpt>
<trkpt lat="34.9825391" lon="32.3537844">
<ele>493.86</ele>
<time>2015-04-25T12:03:36Z</time>
</trkpt>
<trkpt lat="34.9825493" lon="32.3537184">
<ele>493.89</ele>
<time>2015-04-25T12:03:37Z</time>
</trkpt>
<trkpt lat="34.9825624" lon="32.3536493">
<ele>493.91</ele>
<time>2015-04-25T12:03:38Z</time>
</trkpt>
<trkpt lat="34.9825572" lon="32.3535561">
<ele>493.17</ele>
<time>2015-04-25T12:03:40Z</time>
</trkpt>
<trkpt lat="34.9825656" lon="32.3534954">
<ele>492.46</ele>
<time>2015-04-25T12:03:43Z</time>
</trkpt>
<trkpt lat="34.9825627" lon="32.3534182">
<ele>491.49</ele>
<time>2015-04-25T12:03:46Z</time>
</trkpt>
<trkpt lat="34.9825562" lon="32.3533568">
<ele>490.71</ele>
<time>2015-04-25T12:03:47Z</time>
</trkpt>
<trkpt lat="34.9825557" lon="32.3532433">
<ele>489.12</ele>
<time>2015-04-25T12:03:49Z</time>
</trkpt>
<trkpt lat="34.9825634" lon="32.3531246">
<ele>487.72</ele>
<time>2015-04-25T12:03:51Z</time>
</trkpt>
<trkpt lat="34.9825654" lon="32.3530630">
<ele>487.32</ele>
<time>2015-04-25T12:03:52Z</time>
</trkpt>
<trkpt lat="34.9825871" lon="32.3530099">
<ele>486.62</ele>
<time>2015-04-25T12:03:53Z</time>
</trkpt>
<trkpt lat="34.9826026" lon="32.3529562">
<ele>486.27</ele>
<time>2015-04-25T12:03:54Z</time>
</trkpt>
<trkpt lat="34.9826588" lon="32.3529160">
<ele>485.60</ele>
<time>2015-04-25T12:03:55Z</time>
</trkpt>
<trkpt lat="34.9826994" lon="32.3528676">
<ele>485.26</ele>
<time>2015-04-25T12:03:56Z</time>
</trkpt>
<trkpt lat="34.9827592" lon="32.3528213">
<ele>484.59</ele>
<time>2015-04-25T12:03:57Z</time>
</trkpt>
<trkpt lat="34.9828026" lon="32.3527773">
<ele>483.76</ele>
<time>2015-04-25T12:03:58Z</time>
</trkpt>
<trkpt lat="34.9828422" lon="32.3527370">
<ele>482.63</ele>
<time>2015-04-25T12:04:00Z</time>
</trkpt>
<trkpt lat="34.9828789" lon="32.3526968">
<ele>483.92</ele>
<time>2015-04-25T12:04:37Z</time>
</trkpt>
<trkpt lat="34.9829231" lon="32.3526279">
<ele>483.17</ele>
<time>2015-04-25T12:04:39Z</time>
</trkpt>
<trkpt lat="34.9829530" lon="32.3525857">
<ele>483.05</ele>
<time>2015-04-25T12:04:40Z</time>
</trkpt>
<trkpt lat="34.9829884" lon="32.3525405">
<ele>482.99</ele>
<time>2015-04-25T12:04:41Z</time>
</trkpt>
<trkpt lat="34.9830187" lon="32.3524948">
<ele>482.46</ele>
<time>2015-04-25T12:04:42Z</time>
</trkpt>
<trkpt lat="34.9830565" lon="32.3524441">
<ele>482.69</ele>
<time>2015-04-25T12:04:43Z</time>
</trkpt>
<trkpt lat="34.9830912" lon="32.3523916">
<ele>482.81</ele>
<time>2015-04-25T12:04:44Z</time>
</trkpt>
<trkpt lat="34.9831311" lon="32.3523328">
<ele>482.87</ele>
<time>2015-04-25T12:04:45Z</time>
</trkpt>
<trkpt lat="34.9831649" lon="32.3522818">
<ele>482.90</ele>
<time>2015-04-25T12:04:46Z</time>
</trkpt>
<trkpt lat="34.9832084" lon="32.3522299">
<ele>482.91</ele>
<time>2015-04-25T12:04:47Z</time>
</trkpt>
<trkpt lat="34.9832472" lon="32.3521809">
<ele>482.92</ele>
<time>2015-04-25T12:04:48Z</time>
</trkpt>
<trkpt lat="34.9832963" lon="32.3521261">
<ele>482.92</ele>
<time>2015-04-25T12:04:49Z</time>
</trkpt>
<trkpt lat="34.9833385" lon="32.3520746">
<ele>482.92</ele>
<time>2015-04-25T12:04:50Z</time>
</trkpt>
<trkpt lat="34.9833832" lon="32.3520296">
<ele>482.42</ele>
<time>2015-04-25T12:04:51Z</time>
</trkpt>
<trkpt lat="34.9834192" lon="32.3519760">
<ele>482.67</ele>
<time>2015-04-25T12:04:52Z</time>
</trkpt>
<trkpt lat="34.9834565" lon="32.3519279">
<ele>482.30</ele>
<time>2015-04-25T12:04:53Z</time>
</trkpt>
<trkpt lat="34.9834887" lon="32.3518787">
<ele>482.61</ele>
<time>2015-04-25T12:04:54Z</time>
</trkpt>
<trkpt lat="34.9835203" lon="32.3518341">
<ele>482.77</ele>
<time>2015-04-25T12:04:55Z</time>
</trkpt>
<trkpt lat="34.9835541" lon="32.3517868">
<ele>482.85</ele>
<time>2015-04-25T12:04:56Z</time>
</trkpt>
<trkpt lat="34.9835911" lon="32.3517151">
<ele>484.16</ele>
<time>2015-04-25T12:04:58Z</time>
</trkpt>
<trkpt lat="34.9836252" lon="32.3516460">
<ele>484.73</ele>
<time>2015-04-25T12:05:00Z</time>
</trkpt>
<trkpt lat="34.9836558" lon="32.3515710">
<ele>485.63</ele>
<time>2015-04-25T12:05:02Z</time>
</trkpt>
<trkpt lat="34.9836795" lon="32.3514988">
<ele>485.10</ele>
<time>2015-04-25T12:05:04Z</time>
</trkpt>
<trkpt lat="34.9836788" lon="32.3514119">
<ele>485.72</ele>
<time>2015-04-25T12:05:06Z</time>
</trkpt>
<trkpt lat="34.9837002" lon="32.3513326">
<ele>485.87</ele>
<time>2015-04-25T12:05:08Z</time>
</trkpt>
<trkpt lat="34.9837185" lon="32.3512624">
<ele>486.66</ele>
<time>2015-04-25T12:05:10Z</time>
</trkpt>
<trkpt lat="34.9837445" lon="32.3511983">
<ele>486.86</ele>
<time>2015-04-25T12:05:12Z</time>
</trkpt>
<trkpt lat="34.9837730" lon="32.3511352">
<ele>487.41</ele>
<time>2015-04-25T12:05:14Z</time>
</trkpt>
<trkpt lat="34.9837936" lon="32.3510666">
<ele>487.80</ele>
<time>2015-04-25T12:05:16Z</time>
</trkpt>
<trkpt lat="34.9838302" lon="32.3510042">
<ele>488.39</ele>
<time>2015-04-25T12:05:18Z</time>
</trkpt>
<trkpt lat="34.9838631" lon="32.3509335">
<ele>488.79</ele>
<time>2015-04-25T12:05:20Z</time>
</trkpt>
<trkpt lat="34.9838966" lon="32.3508657">
<ele>488.89</ele>
<time>2015-04-25T12:05:22Z</time>
</trkpt>
<trkpt lat="34.9839296" lon="32.3507976">
<ele>489.67</ele>
<time>2015-04-25T12:05:24Z</time>
</trkpt>
<trkpt lat="34.9839687" lon="32.3507284">
<ele>490.61</ele>
<time>2015-04-25T12:05:26Z</time>
</trkpt>
<trkpt lat="34.9840156" lon="32.3506672">
<ele>491.60</ele>
<time>2015-04-25T12:05:28Z</time>
</trkpt>
<trkpt lat="34.9840825" lon="32.3506296">
<ele>491.84</ele>
<time>2015-04-25T12:05:30Z</time>
</trkpt>
<trkpt lat="34.9841536" lon="32.3506277">
<ele>490.65</ele>
<time>2015-04-25T12:05:32Z</time>
</trkpt>
<trkpt lat="34.9842188" lon="32.3506098">
<ele>490.11</ele>
<time>2015-04-25T12:05:34Z</time>
</trkpt>
<trkpt lat="34.9842861" lon="32.3505878">
<ele>489.22</ele>
<time>2015-04-25T12:05:36Z</time>
</trkpt>
<trkpt lat="34.9843283" lon="32.3505628">
<ele>489.07</ele>
<time>2015-04-25T12:05:37Z</time>
</trkpt>
<trkpt lat="34.9843673" lon="32.3505350">
<ele>488.50</ele>
<time>2015-04-25T12:05:38Z</time>
</trkpt>
<trkpt lat="34.9844052" lon="32.3504944">
<ele>488.21</ele>
<time>2015-04-25T12:05:39Z</time>
</trkpt>
<trkpt lat="34.9844438" lon="32.3504659">
<ele>488.07</ele>
<time>2015-04-25T12:05:40Z</time>
</trkpt>
<trkpt lat="34.9844891" lon="32.3504368">
<ele>488.00</ele>
<time>2015-04-25T12:05:41Z</time>
</trkpt>
<trkpt lat="34.9845639" lon="32.3503982">
<ele>487.94</ele>
<time>2015-04-25T12:05:43Z</time>
</trkpt>
<trkpt lat="34.9846511" lon="32.3503713">
<ele>487.93</ele>
<time>2015-04-25T12:05:45Z</time>
</trkpt>
<trkpt lat="34.9846991" lon="32.3503585">
<ele>487.93</ele>
<time>2015-04-25T12:05:46Z</time>
</trkpt>
<trkpt lat="34.9847877" lon="32.3503353">
<ele>487.18</ele>
<time>2015-04-25T12:05:48Z</time>
</trkpt>
<trkpt lat="34.9848373" lon="32.3503202">
<ele>487.05</ele>
<time>2015-04-25T12:05:49Z</time>
</trkpt>
<trkpt lat="34.9849242" lon="32.3502957">
<ele>486.96</ele>
<time>2015-04-25T12:05:51Z</time>
</trkpt>
<trkpt lat="34.9849703" lon="32.3502808">
<ele>487.44</ele>
<time>2015-04-25T12:05:52Z</time>
</trkpt>
<trkpt lat="34.9850405" lon="32.3502433">
<ele>487.80</ele>
<time>2015-04-25T12:05:54Z</time>
</trkpt>
<trkpt lat="34.9850830" lon="32.3502132">
<ele>488.64</ele>
<time>2015-04-25T12:05:56Z</time>
</trkpt>
<trkpt lat="34.9851245" lon="32.3501760">
<ele>489.60</ele>
<time>2015-04-25T12:05:58Z</time>
</trkpt>
<trkpt lat="34.9851758" lon="32.3501366">
<ele>489.84</ele>
<time>2015-04-25T12:06:00Z</time>
</trkpt>
<trkpt lat="34.9852243" lon="32.3501140">
<ele>490.65</ele>
<time>2015-04-25T12:06:02Z</time>
</trkpt>
<trkpt lat="34.9852694" lon="32.3500999">
<ele>490.36</ele>
<time>2015-04-25T12:06:04Z</time>
</trkpt>
<trkpt lat="34.9853402" lon="32.3500905">
<ele>489.23</ele>
<time>2015-04-25T12:06:07Z</time>
</trkpt>
<trkpt lat="34.9854195" lon="32.3500967">
<ele>488.50</ele>
<time>2015-04-25T12:06:09Z</time>
</trkpt>
<trkpt lat="34.9855046" lon="32.3501068">
<ele>488.07</ele>
<time>2015-04-25T12:06:11Z</time>
</trkpt>
<trkpt lat="34.9855997" lon="32.3500980">
<ele>487.96</ele>
<time>2015-04-25T12:06:13Z</time>
</trkpt>
<trkpt lat="34.9856770" lon="32.3500716">
<ele>487.93</ele>
<time>2015-04-25T12:06:15Z</time>
</trkpt>
<trkpt lat="34.9857447" lon="32.3500408">
<ele>487.93</ele>
<time>2015-04-25T12:06:17Z</time>
</trkpt>
<trkpt lat="34.9858174" lon="32.3500078">
<ele>487.93</ele>
<time>2015-04-25T12:06:19Z</time>
</trkpt>
<trkpt lat="34.9858952" lon="32.3499618">
<ele>487.18</ele>
<time>2015-04-25T12:06:21Z</time>
</trkpt>
<trkpt lat="34.9859652" lon="32.3499062">
<ele>486.99</ele>
<time>2015-04-25T12:06:23Z</time>
</trkpt>
<trkpt lat="34.9860281" lon="32.3498365">
<ele>487.44</ele>
<time>2015-04-25T12:06:25Z</time>
</trkpt>
<trkpt lat="34.9860767" lon="32.3497696">
<ele>487.80</ele>
<time>2015-04-25T12:06:27Z</time>
</trkpt>
<trkpt lat="34.9861233" lon="32.3497057">
<ele>487.89</ele>
<time>2015-04-25T12:06:29Z</time>
</trkpt>
<trkpt lat="34.9861693" lon="32.3496379">
<ele>487.42</ele>
<time>2015-04-25T12:06:31Z</time>
</trkpt>
<trkpt lat="34.9862289" lon="32.3495534">
<ele>487.05</ele>
<time>2015-04-25T12:06:33Z</time>
</trkpt>
<trkpt lat="34.9862615" lon="32.3495097">
<ele>486.49</ele>
<time>2015-04-25T12:06:34Z</time>
</trkpt>
<trkpt lat="34.9862920" lon="32.3494689">
<ele>486.21</ele>
<time>2015-04-25T12:06:35Z</time>
</trkpt>
<trkpt lat="34.9863480" lon="32.3494057">
<ele>486.00</ele>
<time>2015-04-25T12:06:37Z</time>
</trkpt>
<trkpt lat="34.9864070" lon="32.3493492">
<ele>485.44</ele>
<time>2015-04-25T12:06:39Z</time>
</trkpt>
<trkpt lat="34.9864761" lon="32.3492892">
<ele>485.05</ele>
<time>2015-04-25T12:06:41Z</time>
</trkpt>
<trkpt lat="34.9865138" lon="32.3492558">
<ele>484.99</ele>
<time>2015-04-25T12:06:42Z</time>
</trkpt>
<trkpt lat="34.9865527" lon="32.3492260">
<ele>485.46</ele>
<time>2015-04-25T12:06:43Z</time>
</trkpt>
<trkpt lat="34.9865919" lon="32.3491910">
<ele>485.69</ele>
<time>2015-04-25T12:06:44Z</time>
</trkpt>
<trkpt lat="34.9866303" lon="32.3491507">
<ele>485.31</ele>
<time>2015-04-25T12:06:45Z</time>
</trkpt>
<trkpt lat="34.9866683" lon="32.3491064">
<ele>485.12</ele>
<time>2015-04-25T12:06:46Z</time>
</trkpt>
<trkpt lat="34.9867012" lon="32.3490555">
<ele>485.02</ele>
<time>2015-04-25T12:06:47Z</time>
</trkpt>
<trkpt lat="34.9867396" lon="32.3490245">
<ele>484.97</ele>
<time>2015-04-25T12:06:48Z</time>
</trkpt>
<trkpt lat="34.9868034" lon="32.3489542">
<ele>484.94</ele>
<time>2015-04-25T12:06:50Z</time>
</trkpt>
<trkpt lat="34.9868640" lon="32.3488840">
<ele>484.18</ele>
<time>2015-04-25T12:06:52Z</time>
</trkpt>
<trkpt lat="34.9869198" lon="32.3488076">
<ele>484.74</ele>
<time>2015-04-25T12:06:54Z</time>
</trkpt>
<trkpt lat="34.9869662" lon="32.3487352">
<ele>484.13</ele>
<time>2015-04-25T12:06:56Z</time>
</trkpt>
<trkpt lat="34.9869992" lon="32.3486962">
<ele>484.92</ele>
<time>2015-04-25T12:08:31Z</time>
</trkpt>
<trkpt lat="34.9870483" lon="32.3486577">
<ele>488.05</ele>
<time>2015-04-25T12:08:34Z</time>
</trkpt>
<trkpt lat="34.9870980" lon="32.3486248">
<ele>490.96</ele>
<time>2015-04-25T12:08:36Z</time>
</trkpt>
<trkpt lat="34.9871412" lon="32.3485767">
<ele>493.68</ele>
<time>2015-04-25T12:08:38Z</time>
</trkpt>
<trkpt lat="34.9871892" lon="32.3485184">
<ele>494.61</ele>
<time>2015-04-25T12:08:40Z</time>
</trkpt>
<trkpt lat="34.9872411" lon="32.3484472">
<ele>495.60</ele>
<time>2015-04-25T12:08:42Z</time>
</trkpt>
<trkpt lat="34.9872917" lon="32.3483630">
<ele>495.09</ele>
<time>2015-04-25T12:08:44Z</time>
</trkpt>
<trkpt lat="34.9873508" lon="32.3482457">
<ele>494.22</ele>
<time>2015-04-25T12:08:46Z</time>
</trkpt>
<trkpt lat="34.9874019" lon="32.3481560">
<ele>494.50</ele>
<time>2015-04-25T12:08:48Z</time>
</trkpt>
<trkpt lat="34.9874447" lon="32.3480721">
<ele>495.07</ele>
<time>2015-04-25T12:08:50Z</time>
</trkpt>
<trkpt lat="34.9874855" lon="32.3479901">
<ele>495.46</ele>
<time>2015-04-25T12:08:52Z</time>
</trkpt>
<trkpt lat="34.9875400" lon="32.3479103">
<ele>495.31</ele>
<time>2015-04-25T12:08:54Z</time>
</trkpt>
<trkpt lat="34.9875985" lon="32.3478398">
<ele>494.52</ele>
<time>2015-04-25T12:08:56Z</time>
</trkpt>
<trkpt lat="34.9876605" lon="32.3477748">
<ele>493.57</ele>
<time>2015-04-25T12:08:58Z</time>
</trkpt>
<trkpt lat="34.9877235" lon="32.3477110">
<ele>492.59</ele>
<time>2015-04-25T12:09:00Z</time>
</trkpt>
<trkpt lat="34.9877853" lon="32.3476371">
<ele>492.09</ele>
<time>2015-04-25T12:09:02Z</time>
</trkpt>
<trkpt lat="34.9878218" lon="32.3476008">
<ele>491.51</ele>
<time>2015-04-25T12:09:03Z</time>
</trkpt>
<trkpt lat="34.9878711" lon="32.3475553">
<ele>490.57</ele>
<time>2015-04-25T12:09:05Z</time>
</trkpt>
<trkpt lat="34.9879181" lon="32.3475062">
<ele>489.59</ele>
<time>2015-04-25T12:09:07Z</time>
</trkpt>
<trkpt lat="34.9879871" lon="32.3474850">
<ele>489.09</ele>
<time>2015-04-25T12:09:09Z</time>
</trkpt>
<trkpt lat="34.9880384" lon="32.3474780">
<ele>488.47</ele>
<time>2015-04-25T12:09:11Z</time>
</trkpt>
<trkpt lat="34.9881071" lon="32.3474720">
<ele>488.06</ele>
<time>2015-04-25T12:09:13Z</time>
</trkpt>
<trkpt lat="34.9881700" lon="32.3474858">
<ele>487.21</ele>
<time>2015-04-25T12:09:15Z</time>
</trkpt>
<trkpt lat="34.9882331" lon="32.3474978">
<ele>487.00</ele>
<time>2015-04-25T12:09:17Z</time>
</trkpt>
<trkpt lat="34.9883006" lon="32.3474872">
<ele>486.19</ele>
<time>2015-04-25T12:09:19Z</time>
</trkpt>
<trkpt lat="34.9883446" lon="32.3474536">
<ele>486.06</ele>
<time>2015-04-25T12:09:20Z</time>
</trkpt>
<trkpt lat="34.9884125" lon="32.3474112">
<ele>486.21</ele>
<time>2015-04-25T12:09:22Z</time>
</trkpt>
<trkpt lat="34.9884791" lon="32.3473811">
<ele>485.25</ele>
<time>2015-04-25T12:09:24Z</time>
</trkpt>
<trkpt lat="34.9885262" lon="32.3473729">
<ele>485.26</ele>
<time>2015-04-25T12:09:26Z</time>
</trkpt>
<trkpt lat="34.9885904" lon="32.3473865">
<ele>484.47</ele>
<time>2015-04-25T12:09:29Z</time>
</trkpt>
<trkpt lat="34.9886474" lon="32.3473834">
<ele>483.24</ele>
<time>2015-04-25T12:09:32Z</time>
</trkpt>
<trkpt lat="34.9887124" lon="32.3473790">
<ele>481.99</ele>
<time>2015-04-25T12:10:20Z</time>
</trkpt>
<trkpt lat="34.9887696" lon="32.3473669">
<ele>482.19</ele>
<time>2015-04-25T12:10:22Z</time>
</trkpt>
<trkpt lat="34.9888405" lon="32.3473531">
<ele>482.74</ele>
<time>2015-04-25T12:10:24Z</time>
</trkpt>
<trkpt lat="34.9889171" lon="32.3473371">
<ele>482.88</ele>
<time>2015-04-25T12:10:26Z</time>
</trkpt>
<trkpt lat="34.9890029" lon="32.3473276">
<ele>482.16</ele>
<time>2015-04-25T12:10:28Z</time>
</trkpt>
<trkpt lat="34.9890520" lon="32.3473298">
<ele>482.04</ele>
<time>2015-04-25T12:10:29Z</time>
</trkpt>
<trkpt lat="34.9891330" lon="32.3473342">
<ele>481.98</ele>
<time>2015-04-25T12:10:30Z</time>
</trkpt>
<trkpt lat="34.9891878" lon="32.3473399">
<ele>481.45</ele>
<time>2015-04-25T12:10:31Z</time>
</trkpt>
<trkpt lat="34.9892506" lon="32.3473423">
<ele>480.69</ele>
<time>2015-04-25T12:10:32Z</time>
</trkpt>
<trkpt lat="34.9893149" lon="32.3473332">
<ele>479.31</ele>
<time>2015-04-25T12:10:33Z</time>
</trkpt>
<trkpt lat="34.9893848" lon="32.3473269">
<ele>478.12</ele>
<time>2015-04-25T12:10:34Z</time>
</trkpt>
<trkpt lat="34.9894570" lon="32.3472894">
<ele>477.02</ele>
<time>2015-04-25T12:10:35Z</time>
</trkpt>
<trkpt lat="34.9895338" lon="32.3472641">
<ele>475.97</ele>
<time>2015-04-25T12:10:36Z</time>
</trkpt>
<trkpt lat="34.9896095" lon="32.3472326">
<ele>474.95</ele>
<time>2015-04-25T12:10:37Z</time>
</trkpt>
<trkpt lat="34.9896701" lon="32.3471763">
<ele>473.44</ele>
<time>2015-04-25T12:10:38Z</time>
</trkpt>
<trkpt lat="34.9897325" lon="32.3471097">
<ele>472.68</ele>
<time>2015-04-25T12:10:39Z</time>
</trkpt>
<trkpt lat="34.9897760" lon="32.3470476">
<ele>471.80</ele>
<time>2015-04-25T12:10:40Z</time>
</trkpt>
<trkpt lat="34.9898247" lon="32.3469960">
<ele>470.86</ele>
<time>2015-04-25T12:10:41Z</time>
</trkpt>
<trkpt lat="34.9898831" lon="32.3469707">
<ele>470.39</ele>
<time>2015-04-25T12:10:42Z</time>
</trkpt>
<trkpt lat="34.9899383" lon="32.3469472">
<ele>469.66</ele>
<time>2015-04-25T12:10:43Z</time>
</trkpt>
<trkpt lat="34.9900090" lon="32.3469407">
<ele>469.29</ele>
<time>2015-04-25T12:10:44Z</time>
</trkpt>
<trkpt lat="34.9900793" lon="32.3469357">
<ele>469.11</ele>
<time>2015-04-25T12:10:45Z</time>
</trkpt>
<trkpt lat="34.9901596" lon="32.3469207">
<ele>469.52</ele>
<time>2015-04-25T12:10:46Z</time>
</trkpt>
<trkpt lat="34.9902314" lon="32.3468823">
<ele>470.22</ele>
<time>2015-04-25T12:10:47Z</time>
</trkpt>
<trkpt lat="34.9903038" lon="32.3468626">
<ele>470.07</ele>
<time>2015-04-25T12:10:48Z</time>
</trkpt>
<trkpt lat="34.9903734" lon="32.3468408">
<ele>470.50</ele>
<time>2015-04-25T12:10:49Z</time>
</trkpt>
<trkpt lat="34.9904503" lon="32.3468400">
<ele>471.21</ele>
<time>2015-04-25T12:10:50Z</time>
</trkpt>
<trkpt lat="34.9905111" lon="32.3468255">
<ele>471.07</ele>
<time>2015-04-25T12:10:51Z</time>
</trkpt>
<trkpt lat="34.9905940" lon="32.3468092">
<ele>471.50</ele>
<time>2015-04-25T12:10:52Z</time>
</trkpt>
<trkpt lat="34.9906548" lon="32.3467646">
<ele>471.71</ele>
<time>2015-04-25T12:10:53Z</time>
</trkpt>
<trkpt lat="34.9907053" lon="32.3467223">
<ele>471.82</ele>
<time>2015-04-25T12:10:54Z</time>
</trkpt>
<trkpt lat="34.9907526" lon="32.3466666">
<ele>472.37</ele>
<time>2015-04-25T12:10:55Z</time>
</trkpt>
<trkpt lat="34.9907920" lon="32.3466074">
<ele>472.15</ele>
<time>2015-04-25T12:10:56Z</time>
</trkpt>
<trkpt lat="34.9908282" lon="32.3465605">
<ele>471.04</ele>
<time>2015-04-25T12:10:57Z</time>
</trkpt>
<trkpt lat="34.9908690" lon="32.3465018">
<ele>469.98</ele>
<time>2015-04-25T12:10:58Z</time>
</trkpt>
<trkpt lat="34.9909124" lon="32.3464477">
<ele>468.95</ele>
<time>2015-04-25T12:10:59Z</time>
</trkpt>
<trkpt lat="34.9909617" lon="32.3463960">
<ele>468.44</ele>
<time>2015-04-25T12:11:00Z</time>
</trkpt>
<trkpt lat="34.9910305" lon="32.3463654">
<ele>468.68</ele>
<time>2015-04-25T12:11:01Z</time>
</trkpt>
<trkpt lat="34.9910805" lon="32.3463371">
<ele>468.80</ele>
<time>2015-04-25T12:11:02Z</time>
</trkpt>
<trkpt lat="34.9911275" lon="32.3463160">
<ele>468.86</ele>
<time>2015-04-25T12:11:03Z</time>
</trkpt>
<trkpt lat="34.9912259" lon="32.3463191">
<ele>470.89</ele>
<time>2015-04-25T12:11:04Z</time>
</trkpt>
<trkpt lat="34.9912856" lon="32.3462961">
<ele>472.91</ele>
<time>2015-04-25T12:11:05Z</time>
</trkpt>
<trkpt lat="34.9913485" lon="32.3462829">
<ele>475.42</ele>
<time>2015-04-25T12:11:06Z</time>
</trkpt>
<trkpt lat="34.9914061" lon="32.3462658">
<ele>476.67</ele>
<time>2015-04-25T12:11:07Z</time>
</trkpt>
<trkpt lat="34.9914606" lon="32.3462222">
<ele>475.80</ele>
<time>2015-04-25T12:11:08Z</time>
</trkpt>
<trkpt lat="34.9915245" lon="32.3461942">
<ele>474.86</ele>
<time>2015-04-25T12:11:09Z</time>
</trkpt>
<trkpt lat="34.9915825" lon="32.3461805">
<ele>473.89</ele>
<time>2015-04-25T12:11:10Z</time>
</trkpt>
<trkpt lat="34.9916503" lon="32.3461686">
<ele>472.91</ele>
<time>2015-04-25T12:11:11Z</time>
</trkpt>
<trkpt lat="34.9917202" lon="32.3461511">
<ele>472.42</ele>
<time>2015-04-25T12:11:12Z</time>
</trkpt>
<trkpt lat="34.9917713" lon="32.3461495">
<ele>472.17</ele>
<time>2015-04-25T12:11:13Z</time>
</trkpt>
<trkpt lat="34.9918214" lon="32.3461517">
<ele>471.55</ele>
<time>2015-04-25T12:11:14Z</time>
</trkpt>
<trkpt lat="34.9918894" lon="32.3461333">
<ele>471.08</ele>
<time>2015-04-25T12:11:16Z</time>
</trkpt>
<trkpt lat="34.9919421" lon="32.3461335">
<ele>470.21</ele>
<time>2015-04-25T12:11:18Z</time>
</trkpt>
<trkpt lat="34.9919799" lon="32.3460998">
<ele>468.92</ele>
<time>2015-04-25T12:11:58Z</time>
</trkpt>
<trkpt lat="34.9920144" lon="32.3460588">
<ele>464.92</ele>
<time>2015-04-25T12:14:40Z</time>
</trkpt>
<trkpt lat="34.9920728" lon="32.3460080">
<ele>463.67</ele>
<time>2015-04-25T12:14:42Z</time>
</trkpt>
<trkpt lat="34.9921260" lon="32.3459557">
<ele>462.36</ele>
<time>2015-04-25T12:14:44Z</time>
</trkpt>
<trkpt lat="34.9921778" lon="32.3459124">
<ele>461.28</ele>
<time>2015-04-25T12:14:46Z</time>
</trkpt>
<trkpt lat="34.9922274" lon="32.3458725">
<ele>461.01</ele>
<time>2015-04-25T12:14:48Z</time>
</trkpt>
<trkpt lat="34.9922788" lon="32.3458421">
<ele>460.95</ele>
<time>2015-04-25T12:14:50Z</time>
</trkpt>
<trkpt lat="34.9923297" lon="32.3458110">
<ele>460.43</ele>
<time>2015-04-25T12:14:52Z</time>
</trkpt>
<trkpt lat="34.9923813" lon="32.3457767">
<ele>460.80</ele>
<time>2015-04-25T12:14:54Z</time>
</trkpt>
<trkpt lat="34.9924382" lon="32.3457416">
<ele>460.14</ele>
<time>2015-04-25T12:14:56Z</time>
</trkpt>
<trkpt lat="34.9924981" lon="32.3457080">
<ele>459.48</ele>
<time>2015-04-25T12:14:58Z</time>
</trkpt>
<trkpt lat="34.9925537" lon="32.3456763">
<ele>458.56</ele>
<time>2015-04-25T12:15:00Z</time>
</trkpt>
<trkpt lat="34.9926011" lon="32.3456434">
<ele>457.58</ele>
<time>2015-04-25T12:15:02Z</time>
</trkpt>
<trkpt lat="34.9926506" lon="32.3456186">
<ele>456.59</ele>
<time>2015-04-25T12:15:04Z</time>
</trkpt>
<trkpt lat="34.9926971" lon="32.3455950">
<ele>456.09</ele>
<time>2015-04-25T12:15:06Z</time>
</trkpt>
<trkpt lat="34.9927492" lon="32.3455806">
<ele>455.97</ele>
<time>2015-04-25T12:15:08Z</time>
</trkpt>
<trkpt lat="34.9928048" lon="32.3455665">
<ele>455.94</ele>
<time>2015-04-25T12:15:10Z</time>
</trkpt>
<trkpt lat="34.9928579" lon="32.3455443">
<ele>454.68</ele>
<time>2015-04-25T12:15:12Z</time>
</trkpt>
<trkpt lat="34.9929111" lon="32.3455141">
<ele>452.86</ele>
<time>2015-04-25T12:15:14Z</time>
</trkpt>
<trkpt lat="34.9929689" lon="32.3454849">
<ele>451.66</ele>
<time>2015-04-25T12:15:16Z</time>
</trkpt>
<trkpt lat="34.9930292" lon="32.3454499">
<ele>449.11</ele>
<time>2015-04-25T12:15:18Z</time>
</trkpt>
<trkpt lat="34.9930903" lon="32.3454034">
<ele>448.22</ele>
<time>2015-04-25T12:15:20Z</time>
</trkpt>
<trkpt lat="34.9931342" lon="32.3453377">
<ele>448.00</ele>
<time>2015-04-25T12:15:22Z</time>
</trkpt>
<trkpt lat="34.9931543" lon="32.3452663">
<ele>449.19</ele>
<time>2015-04-25T12:15:24Z</time>
</trkpt>
<trkpt lat="34.9931673" lon="32.3451998">
<ele>448.99</ele>
<time>2015-04-25T12:15:26Z</time>
</trkpt>
<trkpt lat="34.9931441" lon="32.3451405">
<ele>447.69</ele>
<time>2015-04-25T12:15:28Z</time>
</trkpt>
<trkpt lat="34.9931062" lon="32.3450782">
<ele>445.87</ele>
<time>2015-04-25T12:15:30Z</time>
</trkpt>
<trkpt lat="34.9930473" lon="32.3449512">
<ele>445.41</ele>
<time>2015-04-25T12:15:32Z</time>
</trkpt>
<trkpt lat="34.9930631" lon="32.3448553">
<ele>445.05</ele>
<time>2015-04-25T12:15:34Z</time>
</trkpt>
<trkpt lat="34.9931138" lon="32.3447615">
<ele>443.71</ele>
<time>2015-04-25T12:15:36Z</time>
</trkpt>
<trkpt lat="34.9931529" lon="32.3447085">
<ele>442.82</ele>
<time>2015-04-25T12:15:37Z</time>
</trkpt>
<trkpt lat="34.9931901" lon="32.3446772">
<ele>442.37</ele>
<time>2015-04-25T12:15:38Z</time>
</trkpt>
<trkpt lat="34.9932390" lon="32.3446562">
<ele>442.15</ele>
<time>2015-04-25T12:15:39Z</time>
</trkpt>
<trkpt lat="34.9932951" lon="32.3446339">
<ele>442.04</ele>
<time>2015-04-25T12:15:40Z</time>
</trkpt>
<trkpt lat="34.9933745" lon="32.3445746">
<ele>441.95</ele>
<time>2015-04-25T12:15:42Z</time>
</trkpt>
<trkpt lat="34.9934163" lon="32.3445346">
<ele>442.44</ele>
<time>2015-04-25T12:15:43Z</time>
</trkpt>
<trkpt lat="34.9934686" lon="32.3445036">
<ele>442.18</ele>
<time>2015-04-25T12:15:44Z</time>
</trkpt>
<trkpt lat="34.9935207" lon="32.3444382">
<ele>441.49</ele>
<time>2015-04-25T12:15:46Z</time>
</trkpt>
<trkpt lat="34.9935540" lon="32.3443737">
<ele>439.32</ele>
<time>2015-04-25T12:15:48Z</time>
</trkpt>
<trkpt lat="34.9935820" lon="32.3442853">
<ele>439.02</ele>
<time>2015-04-25T12:15:50Z</time>
</trkpt>
<trkpt lat="34.9935823" lon="32.3442036">
<ele>438.20</ele>
<time>2015-04-25T12:15:52Z</time>
</trkpt>
<trkpt lat="34.9935541" lon="32.3441102">
<ele>439.49</ele>
<time>2015-04-25T12:15:54Z</time>
</trkpt>
<trkpt lat="34.9935183" lon="32.3440312">
<ele>438.82</ele>
<time>2015-04-25T12:15:56Z</time>
</trkpt>
<trkpt lat="34.9934957" lon="32.3439499">
<ele>437.65</ele>
<time>2015-04-25T12:15:58Z</time>
</trkpt>
<trkpt lat="34.9935137" lon="32.3438699">
<ele>437.11</ele>
<time>2015-04-25T12:16:00Z</time>
</trkpt>
<trkpt lat="34.9935630" lon="32.3438246">
<ele>436.97</ele>
<time>2015-04-25T12:16:02Z</time>
</trkpt>
<trkpt lat="34.9936374" lon="32.3438077">
<ele>434.94</ele>
<time>2015-04-25T12:16:04Z</time>
</trkpt>
<trkpt lat="34.9937243" lon="32.3438386">
<ele>434.43</ele>
<time>2015-04-25T12:16:05Z</time>
</trkpt>
<trkpt lat="34.9937758" lon="32.3438380">
<ele>433.68</ele>
<time>2015-04-25T12:16:06Z</time>
</trkpt>
<trkpt lat="34.9938351" lon="32.3438423">
<ele>433.30</ele>
<time>2015-04-25T12:16:07Z</time>
</trkpt>
<trkpt lat="34.9938866" lon="32.3438443">
<ele>433.61</ele>
<time>2015-04-25T12:16:08Z</time>
</trkpt>
<trkpt lat="34.9939318" lon="32.3438459">
<ele>433.77</ele>
<time>2015-04-25T12:16:09Z</time>
</trkpt>
<trkpt lat="34.9939837" lon="32.3438359">
<ele>433.85</ele>
<time>2015-04-25T12:16:10Z</time>
</trkpt>
<trkpt lat="34.9940671" lon="32.3438420">
<ele>433.91</ele>
<time>2015-04-25T12:16:12Z</time>
</trkpt>
<trkpt lat="34.9941227" lon="32.3438563">
<ele>434.92</ele>
<time>2015-04-25T12:16:13Z</time>
</trkpt>
<trkpt lat="34.9941686" lon="32.3438665">
<ele>434.92</ele>
<time>2015-04-25T12:16:14Z</time>
</trkpt>
<trkpt lat="34.9942169" lon="32.3438806">
<ele>434.42</ele>
<time>2015-04-25T12:16:15Z</time>
</trkpt>
<trkpt lat="34.9942616" lon="32.3439043">
<ele>432.67</ele>
<time>2015-04-25T12:16:16Z</time>
</trkpt>
<trkpt lat="34.9943086" lon="32.3439372">
<ele>431.80</ele>
<time>2015-04-25T12:16:17Z</time>
</trkpt>
<trkpt lat="34.9943489" lon="32.3439807">
<ele>431.36</ele>
<time>2015-04-25T12:16:18Z</time>
</trkpt>
<trkpt lat="34.9943880" lon="32.3440268">
<ele>431.14</ele>
<time>2015-04-25T12:16:19Z</time>
</trkpt>
<trkpt lat="34.9944266" lon="32.3440818">
<ele>431.53</ele>
<time>2015-04-25T12:16:20Z</time>
</trkpt>
<trkpt lat="34.9944604" lon="32.3441331">
<ele>431.23</ele>
<time>2015-04-25T12:16:21Z</time>
</trkpt>
<trkpt lat="34.9945072" lon="32.3441804">
<ele>430.58</ele>
<time>2015-04-25T12:16:22Z</time>
</trkpt>
<trkpt lat="34.9945534" lon="32.3442137">
<ele>430.75</ele>
<time>2015-04-25T12:16:23Z</time>
</trkpt>
<trkpt lat="34.9945900" lon="32.3442596">
<ele>430.84</ele>
<time>2015-04-25T12:16:24Z</time>
</trkpt>
<trkpt lat="34.9946271" lon="32.3442950">
<ele>430.88</ele>
<time>2015-04-25T12:16:25Z</time>
</trkpt>
<trkpt lat="34.9946775" lon="32.3443214">
<ele>430.90</ele>
<time>2015-04-25T12:16:26Z</time>
</trkpt>
<trkpt lat="34.9947236" lon="32.3443519">
<ele>430.91</ele>
<time>2015-04-25T12:16:27Z</time>
</trkpt>
<trkpt lat="34.9947744" lon="32.3443850">
<ele>431.42</ele>
<time>2015-04-25T12:16:28Z</time>
</trkpt>
<trkpt lat="34.9948360" lon="32.3444016">
<ele>431.67</ele>
<time>2015-04-25T12:16:29Z</time>
</trkpt>
<trkpt lat="34.9948873" lon="32.3444318">
<ele>431.30</ele>
<time>2015-04-25T12:16:30Z</time>
</trkpt>
<trkpt lat="34.9949443" lon="32.3444592">
<ele>430.11</ele>
<time>2015-04-25T12:16:31Z</time>
</trkpt>
<trkpt lat="34.9950071" lon="32.3444758">
<ele>429.52</ele>
<time>2015-04-25T12:16:32Z</time>
</trkpt>
<trkpt lat="34.9950645" lon="32.3445136">
<ele>428.72</ele>
<time>2015-04-25T12:16:33Z</time>
</trkpt>
<trkpt lat="34.9950944" lon="32.3445697">
<ele>428.82</ele>
<time>2015-04-25T12:16:34Z</time>
</trkpt>
<trkpt lat="34.9951039" lon="32.3446382">
<ele>428.37</ele>
<time>2015-04-25T12:16:35Z</time>
</trkpt>
<trkpt lat="34.9951234" lon="32.3446935">
<ele>428.15</ele>
<time>2015-04-25T12:16:36Z</time>
</trkpt>
<trkpt lat="34.9951137" lon="32.3447540">
<ele>428.54</ele>
<time>2015-04-25T12:16:37Z</time>
</trkpt>
<trkpt lat="34.9951014" lon="32.3448086">
<ele>428.23</ele>
<time>2015-04-25T12:16:38Z</time>
</trkpt>
<trkpt lat="34.9951042" lon="32.3448654">
<ele>428.08</ele>
<time>2015-04-25T12:16:39Z</time>
</trkpt>
<trkpt lat="34.9951002" lon="32.3449759">
<ele>427.46</ele>
<time>2015-04-25T12:16:41Z</time>
</trkpt>
<trkpt lat="34.9951170" lon="32.3450299">
<ele>427.19</ele>
<time>2015-04-25T12:16:42Z</time>
</trkpt>
<trkpt lat="34.9951585" lon="32.3451106">
<ele>426.49</ele>
<time>2015-04-25T12:16:44Z</time>
</trkpt>
<trkpt lat="34.9952013" lon="32.3452177">
<ele>425.32</ele>
<time>2015-04-25T12:16:46Z</time>
</trkpt>
<trkpt lat="34.9952247" lon="32.3452647">
<ele>424.62</ele>
<time>2015-04-25T12:16:47Z</time>
</trkpt>
<trkpt lat="34.9952630" lon="32.3453266">
<ele>423.35</ele>
<time>2015-04-25T12:16:49Z</time>
</trkpt>
<trkpt lat="34.9952840" lon="32.3453788">
<ele>423.03</ele>
<time>2015-04-25T12:16:51Z</time>
</trkpt>
<trkpt lat="34.9953351" lon="32.3454153">
<ele>422.95</ele>
<time>2015-04-25T12:16:53Z</time>
</trkpt>
<trkpt lat="34.9953774" lon="32.3454521">
<ele>422.93</ele>
<time>2015-04-25T12:16:55Z</time>
</trkpt>
<trkpt lat="34.9954419" lon="32.3454734">
<ele>423.43</ele>
<time>2015-04-25T12:16:57Z</time>
</trkpt>
<trkpt lat="34.9955079" lon="32.3454850">
<ele>424.55</ele>
<time>2015-04-25T12:16:59Z</time>
</trkpt>
<trkpt lat="34.9955851" lon="32.3454689">
<ele>420.83</ele>
<time>2015-04-25T12:17:01Z</time>
</trkpt>
<trkpt lat="34.9956607" lon="32.3454453">
<ele>418.90</ele>
<time>2015-04-25T12:17:03Z</time>
</trkpt>
<trkpt lat="34.9957356" lon="32.3454104">
<ele>418.41</ele>
<time>2015-04-25T12:17:04Z</time>
</trkpt>
<trkpt lat="34.9957874" lon="32.3453862">
<ele>418.67</ele>
<time>2015-04-25T12:17:05Z</time>
</trkpt>
<trkpt lat="34.9958572" lon="32.3453602">
<ele>418.80</ele>
<time>2015-04-25T12:17:06Z</time>
</trkpt>
<trkpt lat="34.9959005" lon="32.3453212">
<ele>418.86</ele>
<time>2015-04-25T12:17:07Z</time>
</trkpt>
<trkpt lat="34.9959548" lon="32.3452714">
<ele>418.89</ele>
<time>2015-04-25T12:17:08Z</time>
</trkpt>
<trkpt lat="34.9960052" lon="32.3452386">
<ele>418.91</ele>
<time>2015-04-25T12:17:09Z</time>
</trkpt>
<trkpt lat="34.9960525" lon="32.3452041">
<ele>418.42</ele>
<time>2015-04-25T12:17:10Z</time>
</trkpt>
<trkpt lat="34.9961025" lon="32.3451709">
<ele>418.17</ele>
<time>2015-04-25T12:17:11Z</time>
</trkpt>
<trkpt lat="34.9961607" lon="32.3451475">
<ele>417.55</ele>
<time>2015-04-25T12:17:12Z</time>
</trkpt>
<trkpt lat="34.9962263" lon="32.3451178">
<ele>416.74</ele>
<time>2015-04-25T12:17:13Z</time>
</trkpt>
<trkpt lat="34.9962885" lon="32.3450792">
<ele>415.83</ele>
<time>2015-04-25T12:17:14Z</time>
</trkpt>
<trkpt lat="34.9963499" lon="32.3450538">
<ele>415.88</ele>
<time>2015-04-25T12:17:15Z</time>
</trkpt>
<trkpt lat="34.9964207" lon="32.3450217">
<ele>415.40</ele>
<time>2015-04-25T12:17:16Z</time>
</trkpt>
<trkpt lat="34.9964761" lon="32.3449690">
<ele>414.66</ele>
<time>2015-04-25T12:17:17Z</time>
</trkpt>
<trkpt lat="34.9965134" lon="32.3449383">
<ele>414.29</ele>
<time>2015-04-25T12:17:18Z</time>
</trkpt>
<trkpt lat="34.9965372" lon="32.3448433">
<ele>413.27</ele>
<time>2015-04-25T12:17:20Z</time>
</trkpt>
<trkpt lat="34.9965698" lon="32.3447665">
<ele>414.26</ele>
<time>2015-04-25T12:17:22Z</time>
</trkpt>
<trkpt lat="34.9965811" lon="32.3446721">
<ele>414.76</ele>
<time>2015-04-25T12:17:24Z</time>
</trkpt>
<trkpt lat="34.9965844" lon="32.3445822">
<ele>414.88</ele>
<time>2015-04-25T12:17:26Z</time>
</trkpt>
<trkpt lat="34.9965768" lon="32.3445272">
<ele>412.54</ele>
<time>2015-04-25T12:17:29Z</time>
</trkpt>
<trkpt lat="34.9965774" lon="32.3444718">
<ele>408.43</ele>
<time>2015-04-25T12:22:56Z</time>
</trkpt>
<trkpt lat="34.9965863" lon="32.3444124">
<ele>408.05</ele>
<time>2015-04-25T12:22:58Z</time>
</trkpt>
<trkpt lat="34.9966055" lon="32.3443456">
<ele>407.46</ele>
<time>2015-04-25T12:23:00Z</time>
</trkpt>
<trkpt lat="34.9966396" lon="32.3442569">
<ele>407.06</ele>
<time>2015-04-25T12:23:02Z</time>
</trkpt>
<trkpt lat="34.9966703" lon="32.3441752">
<ele>406.49</ele>
<time>2015-04-25T12:23:03Z</time>
</trkpt>
<trkpt lat="34.9966870" lon="32.3441075">
<ele>406.21</ele>
<time>2015-04-25T12:23:04Z</time>
</trkpt>
<trkpt lat="34.9967076" lon="32.3440495">
<ele>405.57</ele>
<time>2015-04-25T12:23:05Z</time>
</trkpt>
<trkpt lat="34.9967268" lon="32.3439922">
<ele>405.25</ele>
<time>2015-04-25T12:23:06Z</time>
</trkpt>
<trkpt lat="34.9967500" lon="32.3439408">
<ele>405.09</ele>
<time>2015-04-25T12:23:07Z</time>
</trkpt>
<trkpt lat="34.9967579" lon="32.3438762">
<ele>404.51</ele>
<time>2015-04-25T12:23:08Z</time>
</trkpt>
<trkpt lat="34.9967713" lon="32.3438034">
<ele>403.72</ele>
<time>2015-04-25T12:23:09Z</time>
</trkpt>
<trkpt lat="34.9967782" lon="32.3437153">
<ele>402.82</ele>
<time>2015-04-25T12:23:10Z</time>
</trkpt>
<trkpt lat="34.9967945" lon="32.3436130">
<ele>401.37</ele>
<time>2015-04-25T12:23:11Z</time>
</trkpt>
<trkpt lat="34.9967972" lon="32.3435232">
<ele>400.15</ele>
<time>2015-04-25T12:23:12Z</time>
</trkpt>
<trkpt lat="34.9968057" lon="32.3434315">
<ele>399.04</ele>
<time>2015-04-25T12:23:13Z</time>
</trkpt>
<trkpt lat="34.9968056" lon="32.3433484">
<ele>398.48</ele>
<time>2015-04-25T12:23:14Z</time>
</trkpt>
<trkpt lat="34.9968088" lon="32.3432661">
<ele>397.70</ele>
<time>2015-04-25T12:23:15Z</time>
</trkpt>
<trkpt lat="34.9968123" lon="32.3431851">
<ele>397.31</ele>
<time>2015-04-25T12:23:16Z</time>
</trkpt>
<trkpt lat="34.9968153" lon="32.3431105">
<ele>397.12</ele>
<time>2015-04-25T12:23:17Z</time>
</trkpt>
<trkpt lat="34.9968204" lon="32.3430319">
<ele>397.02</ele>
<time>2015-04-25T12:23:18Z</time>
</trkpt>
<trkpt lat="34.9968288" lon="32.3429548">
<ele>396.47</ele>
<time>2015-04-25T12:23:19Z</time>
</trkpt>
<trkpt lat="34.9968454" lon="32.3428721">
<ele>395.70</ele>
<time>2015-04-25T12:23:20Z</time>
</trkpt>
<trkpt lat="34.9968616" lon="32.3427929">
<ele>395.81</ele>
<time>2015-04-25T12:23:21Z</time>
</trkpt>
<trkpt lat="34.9968790" lon="32.3427204">
<ele>395.37</ele>
<time>2015-04-25T12:23:22Z</time>
</trkpt>
<trkpt lat="34.9969043" lon="32.3426506">
<ele>395.65</ele>
<time>2015-04-25T12:23:23Z</time>
</trkpt>
<trkpt lat="34.9969236" lon="32.3425871">
<ele>395.29</ele>
<time>2015-04-25T12:23:24Z</time>
</trkpt>
<trkpt lat="34.9969581" lon="32.3425201">
<ele>395.11</ele>
<time>2015-04-25T12:23:25Z</time>
</trkpt>
<trkpt lat="34.9969890" lon="32.3424663">
<ele>395.52</ele>
<time>2015-04-25T12:23:26Z</time>
</trkpt>
<trkpt lat="34.9970162" lon="32.3424072">
<ele>395.22</ele>
<time>2015-04-25T12:23:27Z</time>
</trkpt>
<trkpt lat="34.9970252" lon="32.3423345">
<ele>395.07</ele>
<time>2015-04-25T12:23:28Z</time>
</trkpt>
<trkpt lat="34.9970386" lon="32.3422494">
<ele>394.00</ele>
<time>2015-04-25T12:23:29Z</time>
</trkpt>
<trkpt lat="34.9970591" lon="32.3421738">
<ele>392.46</ele>
<time>2015-04-25T12:23:30Z</time>
</trkpt>
<trkpt lat="34.9970933" lon="32.3421148">
<ele>390.69</ele>
<time>2015-04-25T12:23:31Z</time>
</trkpt>
<trkpt lat="34.9971406" lon="32.3420788">
<ele>389.81</ele>
<time>2015-04-25T12:23:32Z</time>
</trkpt>
<trkpt lat="34.9971944" lon="32.3420459">
<ele>388.87</ele>
<time>2015-04-25T12:23:33Z</time>
</trkpt>
<trkpt lat="34.9972511" lon="32.3420182">
<ele>388.40</ele>
<time>2015-04-25T12:23:34Z</time>
</trkpt>
<trkpt lat="34.9972976" lon="32.3419720">
<ele>388.66</ele>
<time>2015-04-25T12:23:35Z</time>
</trkpt>
<trkpt lat="34.9973546" lon="32.3419150">
<ele>389.29</ele>
<time>2015-04-25T12:23:36Z</time>
</trkpt>
<trkpt lat="34.9974085" lon="32.3418766">
<ele>388.61</ele>
<time>2015-04-25T12:23:37Z</time>
</trkpt>
<trkpt lat="34.9974845" lon="32.3418245">
<ele>388.27</ele>
<time>2015-04-25T12:23:38Z</time>
</trkpt>
<trkpt lat="34.9975401" lon="32.3417764">
<ele>388.10</ele>
<time>2015-04-25T12:23:39Z</time>
</trkpt>
<trkpt lat="34.9976040" lon="32.3417254">
<ele>386.51</ele>
<time>2015-04-25T12:23:40Z</time>
</trkpt>
<trkpt lat="34.9976711" lon="32.3416828">
<ele>385.72</ele>
<time>2015-04-25T12:23:41Z</time>
</trkpt>
<trkpt lat="34.9977554" lon="32.3416637">
<ele>385.82</ele>
<time>2015-04-25T12:23:42Z</time>
</trkpt>
<trkpt lat="34.9978300" lon="32.3416529">
<ele>385.37</ele>
<time>2015-04-25T12:23:43Z</time>
</trkpt>
<trkpt lat="34.9979065" lon="32.3416403">
<ele>385.15</ele>
<time>2015-04-25T12:23:44Z</time>
</trkpt>
<trkpt lat="34.9979739" lon="32.3416281">
<ele>384.54</ele>
<time>2015-04-25T12:23:45Z</time>
</trkpt>
<trkpt lat="34.9980289" lon="32.3416121">
<ele>383.73</ele>
<time>2015-04-25T12:23:46Z</time>
</trkpt>
<trkpt lat="34.9980825" lon="32.3415978">
<ele>383.33</ele>
<time>2015-04-25T12:23:47Z</time>
</trkpt>
<trkpt lat="34.9981622" lon="32.3415863">
<ele>383.13</ele>
<time>2015-04-25T12:23:48Z</time>
</trkpt>
<trkpt lat="34.9982346" lon="32.3415748">
<ele>383.03</ele>
<time>2015-04-25T12:23:49Z</time>
</trkpt>
<trkpt lat="34.9983018" lon="32.3415738">
<ele>382.98</ele>
<time>2015-04-25T12:23:50Z</time>
</trkpt>
<trkpt lat="34.9983716" lon="32.3415677">
<ele>382.95</ele>
<time>2015-04-25T12:23:51Z</time>
</trkpt>
<trkpt lat="34.9984463" lon="32.3415832">
<ele>382.94</ele>
<time>2015-04-25T12:23:52Z</time>
</trkpt>
<trkpt lat="34.9985186" lon="32.3415561">
<ele>381.93</ele>
<time>2015-04-25T12:23:53Z</time>
</trkpt>
<trkpt lat="34.9985718" lon="32.3415549">
<ele>381.43</ele>
<time>2015-04-25T12:23:54Z</time>
</trkpt>
<trkpt lat="34.9986304" lon="32.3415581">
<ele>381.18</ele>
<time>2015-04-25T12:23:55Z</time>
</trkpt>
<trkpt lat="34.9986997" lon="32.3415540">
<ele>381.55</ele>
<time>2015-04-25T12:23:56Z</time>
</trkpt>
<trkpt lat="34.9987651" lon="32.3415384">
<ele>381.74</ele>
<time>2015-04-25T12:23:57Z</time>
</trkpt>
<trkpt lat="34.9988249" lon="32.3415035">
<ele>381.33</ele>
<time>2015-04-25T12:23:58Z</time>
</trkpt>
<trkpt lat="34.9988915" lon="32.3414846">
<ele>380.63</ele>
<time>2015-04-25T12:23:59Z</time>
</trkpt>
<trkpt lat="34.9989624" lon="32.3414506">
<ele>379.78</ele>
<time>2015-04-25T12:24:00Z</time>
</trkpt>
<trkpt lat="34.9990418" lon="32.3414099">
<ele>379.35</ele>
<time>2015-04-25T12:24:01Z</time>
</trkpt>
<trkpt lat="34.9991181" lon="32.3413750">
<ele>379.14</ele>
<time>2015-04-25T12:24:02Z</time>
</trkpt>
<trkpt lat="34.9991791" lon="32.3413427">
<ele>379.03</ele>
<time>2015-04-25T12:24:03Z</time>
</trkpt>
<trkpt lat="34.9992395" lon="32.3413044">
<ele>378.98</ele>
<time>2015-04-25T12:24:04Z</time>
</trkpt>
<trkpt lat="34.9992826" lon="32.3412786">
<ele>378.95</ele>
<time>2015-04-25T12:24:05Z</time>
</trkpt>
<trkpt lat="34.9993361" lon="32.3412731">
<ele>379.44</ele>
<time>2015-04-25T12:24:06Z</time>
</trkpt>
<trkpt lat="34.9994180" lon="32.3412760">
<ele>381.05</ele>
<time>2015-04-25T12:24:08Z</time>
</trkpt>
<trkpt lat="34.9994816" lon="32.3412971">
<ele>382.46</ele>
<time>2015-04-25T12:24:10Z</time>
</trkpt>
<trkpt lat="34.9995294" lon="32.3413464">
<ele>383.56</ele>
<time>2015-04-25T12:24:12Z</time>
</trkpt>
<trkpt lat="34.9995662" lon="32.3414088">
<ele>383.83</ele>
<time>2015-04-25T12:24:14Z</time>
</trkpt>
<trkpt lat="34.9995903" lon="32.3414910">
<ele>385.15</ele>
<time>2015-04-25T12:24:16Z</time>
</trkpt>
<trkpt lat="34.9996034" lon="32.3415607">
<ele>386.48</ele>
<time>2015-04-25T12:24:18Z</time>
</trkpt>
<trkpt lat="34.9996289" lon="32.3416216">
<ele>387.56</ele>
<time>2015-04-25T12:24:20Z</time>
</trkpt>
<trkpt lat="34.9996594" lon="32.3416791">
<ele>387.83</ele>
<time>2015-04-25T12:24:22Z</time>
</trkpt>
<trkpt lat="34.9997025" lon="32.3417315">
<ele>386.65</ele>
<time>2015-04-25T12:24:24Z</time>
</trkpt>
<trkpt lat="34.9997429" lon="32.3417832">
<ele>384.86</ele>
<time>2015-04-25T12:24:26Z</time>
</trkpt>
<trkpt lat="34.9997797" lon="32.3418203">
<ele>384.91</ele>
<time>2015-04-25T12:24:28Z</time>
</trkpt>
<trkpt lat="34.9998386" lon="32.3418408">
<ele>386.17</ele>
<time>2015-04-25T12:24:31Z</time>
</trkpt>
<trkpt lat="34.9999014" lon="32.3418350">
<ele>386.69</ele>
<time>2015-04-25T12:24:35Z</time>
</trkpt>
<trkpt lat="34.9999531" lon="32.3418301">
<ele>388.37</ele>
<time>2015-04-25T12:24:37Z</time>
</trkpt>
<trkpt lat="35.0000029" lon="32.3418360">
<ele>388.04</ele>
<time>2015-04-25T12:24:39Z</time>
</trkpt>
<trkpt lat="35.0000559" lon="32.3418818">
<ele>390.06</ele>
<time>2015-04-25T12:24:42Z</time>
</trkpt>
<trkpt lat="35.0000571" lon="32.3419513">
<ele>391.94</ele>
<time>2015-04-25T12:24:45Z</time>
</trkpt>
<trkpt lat="35.0000801" lon="32.3420312">
<ele>391.68</ele>
<time>2015-04-25T12:24:48Z</time>
</trkpt>
<trkpt lat="35.0000939" lon="32.3421022">
<ele>391.61</ele>
<time>2015-04-25T12:24:50Z</time>
</trkpt>
<trkpt lat="35.0001078" lon="32.3421864">
<ele>391.10</ele>
<time>2015-04-25T12:24:52Z</time>
</trkpt>
<trkpt lat="35.0001263" lon="32.3422642">
<ele>390.97</ele>
<time>2015-04-25T12:24:54Z</time>
</trkpt>
<trkpt lat="35.0001544" lon="32.3423392">
<ele>390.94</ele>
<time>2015-04-25T12:24:56Z</time>
</trkpt>
<trkpt lat="35.0002065" lon="32.3424061">
<ele>390.93</ele>
<time>2015-04-25T12:24:58Z</time>
</trkpt>
<trkpt lat="35.0002847" lon="32.3424379">
<ele>389.18</ele>
<time>2015-04-25T12:25:00Z</time>
</trkpt>
<trkpt lat="35.0003757" lon="32.3424238">
<ele>389.05</ele>
<time>2015-04-25T12:25:01Z</time>
</trkpt>
<trkpt lat="35.0004647" lon="32.3423852">
<ele>388.46</ele>
<time>2015-04-25T12:25:03Z</time>
</trkpt>
<trkpt lat="35.0004962" lon="32.3423452">
<ele>388.19</ele>
<time>2015-04-25T12:25:04Z</time>
</trkpt>
<trkpt lat="35.0005264" lon="32.3422964">
<ele>388.06</ele>
<time>2015-04-25T12:25:05Z</time>
</trkpt>
<trkpt lat="35.0005689" lon="32.3422381">
<ele>387.49</ele>
<time>2015-04-25T12:25:06Z</time>
</trkpt>
<trkpt lat="35.0006005" lon="32.3421657">
<ele>387.21</ele>
<time>2015-04-25T12:25:07Z</time>
</trkpt>
<trkpt lat="35.0006125" lon="32.3420927">
<ele>387.07</ele>
<time>2015-04-25T12:25:08Z</time>
</trkpt>
<trkpt lat="35.0006300" lon="32.3420020">
<ele>387.00</ele>
<time>2015-04-25T12:25:09Z</time>
</trkpt>
<trkpt lat="35.0006689" lon="32.3419268">
<ele>387.46</ele>
<time>2015-04-25T12:25:10Z</time>
</trkpt>
<trkpt lat="35.0007067" lon="32.3418415">
<ele>387.69</ele>
<time>2015-04-25T12:25:11Z</time>
</trkpt>
<trkpt lat="35.0007466" lon="32.3417687">
<ele>387.31</ele>
<time>2015-04-25T12:25:12Z</time>
</trkpt>
<trkpt lat="35.0008083" lon="32.3416993">
<ele>387.12</ele>
<time>2015-04-25T12:25:13Z</time>
</trkpt>
<trkpt lat="35.0008536" lon="32.3416157">
<ele>387.02</ele>
<time>2015-04-25T12:25:14Z</time>
</trkpt>
<trkpt lat="35.0009067" lon="32.3415668">
<ele>386.47</ele>
<time>2015-04-25T12:25:15Z</time>
</trkpt>
<trkpt lat="35.0009437" lon="32.3415056">
<ele>386.20</ele>
<time>2015-04-25T12:25:16Z</time>
</trkpt>
<trkpt lat="35.0009637" lon="32.3414502">
<ele>385.56</ele>
<time>2015-04-25T12:25:17Z</time>
</trkpt>
<trkpt lat="35.0010034" lon="32.3413649">
<ele>384.74</ele>
<time>2015-04-25T12:25:18Z</time>
</trkpt>
<trkpt lat="35.0010363" lon="32.3412804">
<ele>383.83</ele>
<time>2015-04-25T12:25:19Z</time>
</trkpt>
<trkpt lat="35.0010626" lon="32.3412179">
<ele>383.88</ele>
<time>2015-04-25T12:25:20Z</time>
</trkpt>
<trkpt lat="35.0010899" lon="32.3411657">
<ele>383.90</ele>
<time>2015-04-25T12:25:21Z</time>
</trkpt>
<trkpt lat="35.0011411" lon="32.3411698">
<ele>384.17</ele>
<time>2015-04-25T12:25:23Z</time>
</trkpt>
<trkpt lat="35.0011996" lon="32.3411807">
<ele>381.74</ele>
<time>2015-04-25T12:25:25Z</time>
</trkpt>
<trkpt lat="35.0012583" lon="32.3411662">
<ele>380.83</ele>
<time>2015-04-25T12:25:26Z</time>
</trkpt>
<trkpt lat="35.0013068" lon="32.3411489">
<ele>379.88</ele>
<time>2015-04-25T12:25:27Z</time>
</trkpt>
<trkpt lat="35.0013637" lon="32.3411268">
<ele>378.90</ele>
<time>2015-04-25T12:25:28Z</time>
</trkpt>
<trkpt lat="35.0014157" lon="32.3411037">
<ele>378.41</ele>
<time>2015-04-25T12:25:29Z</time>
</trkpt>
<trkpt lat="35.0014654" lon="32.3410784">
<ele>377.17</ele>
<time>2015-04-25T12:25:30Z</time>
</trkpt>
<trkpt lat="35.0015186" lon="32.3410454">
<ele>375.55</ele>
<time>2015-04-25T12:25:31Z</time>
</trkpt>
<trkpt lat="35.0015968" lon="32.3410177">
<ele>373.74</ele>
<time>2015-04-25T12:25:32Z</time>
</trkpt>
<trkpt lat="35.0016906" lon="32.3409881">
<ele>373.83</ele>
<time>2015-04-25T12:25:33Z</time>
</trkpt>
<trkpt lat="35.0017745" lon="32.3409604">
<ele>373.38</ele>
<time>2015-04-25T12:25:34Z</time>
</trkpt>
<trkpt lat="35.0018612" lon="32.3409286">
<ele>372.65</ele>
<time>2015-04-25T12:25:35Z</time>
</trkpt>
<trkpt lat="35.0019500" lon="32.3408888">
<ele>373.79</ele>
<time>2015-04-25T12:25:36Z</time>
</trkpt>
<trkpt lat="35.0020245" lon="32.3408460">
<ele>374.36</ele>
<time>2015-04-25T12:25:37Z</time>
</trkpt>
<trkpt lat="35.0020945" lon="32.3408003">
<ele>374.64</ele>
<time>2015-04-25T12:25:38Z</time>
</trkpt>
<trkpt lat="35.0021485" lon="32.3407663">
<ele>374.78</ele>
<time>2015-04-25T12:25:39Z</time>
</trkpt>
<trkpt lat="35.0022054" lon="32.3407307">
<ele>375.35</ele>
<time>2015-04-25T12:25:40Z</time>
</trkpt>
<trkpt lat="35.0022535" lon="32.3406953">
<ele>376.14</ele>
<time>2015-04-25T12:25:41Z</time>
</trkpt>
<trkpt lat="35.0023196" lon="32.3406641">
<ele>376.53</ele>
<time>2015-04-25T12:25:42Z</time>
</trkpt>
<trkpt lat="35.0023699" lon="32.3406403">
<ele>377.23</ele>
<time>2015-04-25T12:25:43Z</time>
</trkpt>
<trkpt lat="35.0024142" lon="32.3405730">
<ele>378.50</ele>
<time>2015-04-25T12:25:45Z</time>
</trkpt>
<trkpt lat="35.0024569" lon="32.3405345">
<ele>379.32</ele>
<time>2015-04-25T12:25:47Z</time>
</trkpt>
<trkpt lat="35.0025154" lon="32.3404682">
<ele>379.35</ele>
<time>2015-04-25T12:25:50Z</time>
</trkpt>
<trkpt lat="35.0025546" lon="32.3404115">
<ele>380.23</ele>
<time>2015-04-25T12:25:53Z</time>
</trkpt>
<trkpt lat="35.0025991" lon="32.3403726">
<ele>379.09</ele>
<time>2015-04-25T12:25:56Z</time>
</trkpt>
<trkpt lat="35.0026399" lon="32.3403378">
<ele>378.57</ele>
<time>2015-04-25T12:25:59Z</time>
</trkpt>
<trkpt lat="35.0026864" lon="32.3403143">
<ele>378.76</ele>
<time>2015-04-25T12:26:02Z</time>
</trkpt>
<trkpt lat="35.0027369" lon="32.3402799">
<ele>380.03</ele>
<time>2015-04-25T12:26:05Z</time>
</trkpt>
<trkpt lat="35.0027810" lon="32.3402597">
<ele>380.70</ele>
<time>2015-04-25T12:26:07Z</time>
</trkpt>
<trkpt lat="35.0028236" lon="32.3402408">
<ele>381.87</ele>
<time>2015-04-25T12:26:09Z</time>
</trkpt>
<trkpt lat="35.0028740" lon="32.3402289">
<ele>382.66</ele>
<time>2015-04-25T12:26:11Z</time>
</trkpt>
<trkpt lat="35.0029310" lon="32.3402165">
<ele>383.61</ele>
<time>2015-04-25T12:26:13Z</time>
</trkpt>
<trkpt lat="35.0029861" lon="32.3402095">
<ele>383.10</ele>
<time>2015-04-25T12:26:15Z</time>
</trkpt>
<trkpt lat="35.0030391" lon="32.3402038">
<ele>382.97</ele>
<time>2015-04-25T12:26:17Z</time>
</trkpt>
<trkpt lat="35.0030904" lon="32.3402017">
<ele>383.69</ele>
<time>2015-04-25T12:26:19Z</time>
</trkpt>
<trkpt lat="35.0031458" lon="32.3401992">
<ele>383.12</ele>
<time>2015-04-25T12:26:21Z</time>
</trkpt>
<trkpt lat="35.0031985" lon="32.3401926">
<ele>383.22</ele>
<time>2015-04-25T12:26:23Z</time>
</trkpt>
<trkpt lat="35.0032539" lon="32.3401751">
<ele>383.75</ele>
<time>2015-04-25T12:26:25Z</time>
</trkpt>
<trkpt lat="35.0033071" lon="32.3401496">
<ele>383.13</ele>
<time>2015-04-25T12:26:27Z</time>
</trkpt>
<trkpt lat="35.0033651" lon="32.3401314">
<ele>382.48</ele>
<time>2015-04-25T12:26:29Z</time>
</trkpt>
<trkpt lat="35.0034171" lon="32.3401198">
<ele>382.56</ele>
<time>2015-04-25T12:26:31Z</time>
</trkpt>
<trkpt lat="35.0034664" lon="32.3401117">
<ele>382.08</ele>
<time>2015-04-25T12:26:33Z</time>
</trkpt>
<trkpt lat="35.0035239" lon="32.3401141">
<ele>381.21</ele>
<time>2015-04-25T12:26:35Z</time>
</trkpt>
<trkpt lat="35.0036053" lon="32.3401286">
<ele>381.00</ele>
<time>2015-04-25T12:26:37Z</time>
</trkpt>
<trkpt lat="35.0036775" lon="32.3401483">
<ele>380.96</ele>
<time>2015-04-25T12:26:38Z</time>
</trkpt>
<trkpt lat="35.0037235" lon="32.3401598">
<ele>380.94</ele>
<time>2015-04-25T12:26:39Z</time>
</trkpt>
<trkpt lat="35.0037755" lon="32.3401725">
<ele>380.18</ele>
<time>2015-04-25T12:26:41Z</time>
</trkpt>
<trkpt lat="35.0038335" lon="32.3401744">
<ele>379.21</ele>
<time>2015-04-25T12:26:44Z</time>
</trkpt>
<trkpt lat="35.0038942" lon="32.3401834">
<ele>380.69</ele>
<time>2015-04-25T12:26:48Z</time>
</trkpt>
<trkpt lat="35.0039439" lon="32.3401932">
<ele>380.77</ele>
<time>2015-04-25T12:26:51Z</time>
</trkpt>
<trkpt lat="35.0039953" lon="32.3401967">
<ele>381.28</ele>
<time>2015-04-25T12:26:54Z</time>
</trkpt>
<trkpt lat="35.0040542" lon="32.3401931">
<ele>381.72</ele>
<time>2015-04-25T12:26:57Z</time>
</trkpt>
<trkpt lat="35.0041140" lon="32.3401813">
<ele>382.15</ele>
<time>2015-04-25T12:27:00Z</time>
</trkpt>
<trkpt lat="35.0041736" lon="32.3401644">
<ele>382.83</ele>
<time>2015-04-25T12:27:03Z</time>
</trkpt>
<trkpt lat="35.0042202" lon="32.3401494">
<ele>383.40</ele>
<time>2015-04-25T12:27:05Z</time>
</trkpt>
<trkpt lat="35.0042815" lon="32.3401341">
<ele>382.54</ele>
<time>2015-04-25T12:27:07Z</time>
</trkpt>
<trkpt lat="35.0043712" lon="32.3401100">
<ele>381.58</ele>
<time>2015-04-25T12:27:09Z</time>
</trkpt>
<trkpt lat="35.0044546" lon="32.3400884">
<ele>381.25</ele>
<time>2015-04-25T12:27:10Z</time>
</trkpt>
<trkpt lat="35.0045474" lon="32.3400798">
<ele>381.01</ele>
<time>2015-04-25T12:27:12Z</time>
</trkpt>
<trkpt lat="35.0045992" lon="32.3400797">
<ele>380.97</ele>
<time>2015-04-25T12:27:13Z</time>
</trkpt>
<trkpt lat="35.0046487" lon="32.3400777">
<ele>381.45</ele>
<time>2015-04-25T12:27:14Z</time>
</trkpt>
<trkpt lat="35.0047093" lon="32.3400842">
<ele>381.69</ele>
<time>2015-04-25T12:27:15Z</time>
</trkpt>
<trkpt lat="35.0047980" lon="32.3400786">
<ele>381.87</ele>
<time>2015-04-25T12:27:17Z</time>
</trkpt>
<trkpt lat="35.0048776" lon="32.3400646">
<ele>383.16</ele>
<time>2015-04-25T12:27:19Z</time>
</trkpt>
<trkpt lat="35.0049468" lon="32.3400482">
<ele>383.73</ele>
<time>2015-04-25T12:27:21Z</time>
</trkpt>
<trkpt lat="35.0050272" lon="32.3400264">
<ele>384.38</ele>
<time>2015-04-25T12:27:23Z</time>
</trkpt>
<trkpt lat="35.0050926" lon="32.3399971">
<ele>384.79</ele>
<time>2015-04-25T12:27:25Z</time>
</trkpt>
<trkpt lat="35.0051619" lon="32.3399705">
<ele>386.39</ele>
<time>2015-04-25T12:27:27Z</time>
</trkpt>
<trkpt lat="35.0052196" lon="32.3399209">
<ele>388.04</ele>
<time>2015-04-25T12:27:29Z</time>
</trkpt>
<trkpt lat="35.0052581" lon="32.3398529">
<ele>389.45</ele>
<time>2015-04-25T12:27:31Z</time>
</trkpt>
<trkpt lat="35.0052910" lon="32.3397924">
<ele>389.31</ele>
<time>2015-04-25T12:27:33Z</time>
</trkpt>
<trkpt lat="35.0053284" lon="32.3397459">
<ele>388.02</ele>
<time>2015-04-25T12:27:35Z</time>
</trkpt>
<trkpt lat="35.0053717" lon="32.3397038">
<ele>389.20</ele>
<time>2015-04-25T12:27:37Z</time>
</trkpt>
<trkpt lat="35.0054398" lon="32.3396754">
<ele>388.33</ele>
<time>2015-04-25T12:27:40Z</time>
</trkpt>
<trkpt lat="35.0054896" lon="32.3396508">
<ele>386.78</ele>
<time>2015-04-25T12:27:42Z</time>
</trkpt>
<trkpt lat="35.0055336" lon="32.3396196">
<ele>386.14</ele>
<time>2015-04-25T12:27:44Z</time>
</trkpt>
<trkpt lat="35.0055737" lon="32.3395809">
<ele>385.73</ele>
<time>2015-04-25T12:27:46Z</time>
</trkpt>
<trkpt lat="35.0056108" lon="32.3395334">
<ele>386.88</ele>
<time>2015-04-25T12:27:48Z</time>
</trkpt>
<trkpt lat="35.0056486" lon="32.3394847">
<ele>385.66</ele>
<time>2015-04-25T12:27:50Z</time>
</trkpt>
<trkpt lat="35.0057189" lon="32.3394493">
<ele>386.61</ele>
<time>2015-04-25T12:27:52Z</time>
</trkpt>
<trkpt lat="35.0057660" lon="32.3394351">
<ele>387.77</ele>
<time>2015-04-25T12:27:53Z</time>
</trkpt>
<trkpt lat="35.0058124" lon="32.3394169">
<ele>387.85</ele>
<time>2015-04-25T12:27:54Z</time>
</trkpt>
<trkpt lat="35.0058962" lon="32.3393749">
<ele>387.89</ele>
<time>2015-04-25T12:27:55Z</time>
</trkpt>
<trkpt lat="35.0059300" lon="32.3393315">
<ele>386.91</ele>
<time>2015-04-25T12:27:56Z</time>
</trkpt>
<trkpt lat="35.0059672" lon="32.3392864">
<ele>386.42</ele>
<time>2015-04-25T12:27:57Z</time>
</trkpt>
<trkpt lat="35.0059698" lon="32.3392240">
<ele>385.67</ele>
<time>2015-04-25T12:27:58Z</time>
</trkpt>
<trkpt lat="35.0060036" lon="32.3391290">
<ele>385.11</ele>
<time>2015-04-25T12:28:00Z</time>
</trkpt>
<trkpt lat="35.0060526" lon="32.3390696">
<ele>383.47</ele>
<time>2015-04-25T12:28:02Z</time>
</trkpt>
<trkpt lat="35.0061111" lon="32.3390483">
<ele>384.56</ele>
<time>2015-04-25T12:28:04Z</time>
</trkpt>
<trkpt lat="35.0061697" lon="32.3390460">
<ele>383.58</ele>
<time>2015-04-25T12:28:06Z</time>
</trkpt>
<trkpt lat="35.0062404" lon="32.3390675">
<ele>383.84</ele>
<time>2015-04-25T12:28:08Z</time>
</trkpt>
<trkpt lat="35.0063021" lon="32.3390910">
<ele>383.15</ele>
<time>2015-04-25T12:28:10Z</time>
</trkpt>
<trkpt lat="35.0063599" lon="32.3391134">
<ele>382.23</ele>
<time>2015-04-25T12:28:12Z</time>
</trkpt>
<trkpt lat="35.0064192" lon="32.3391280">
<ele>380.75</ele>
<time>2015-04-25T12:28:14Z</time>
</trkpt>
<trkpt lat="35.0064848" lon="32.3391360">
<ele>378.88</ele>
<time>2015-04-25T12:28:16Z</time>
</trkpt>
<trkpt lat="35.0065601" lon="32.3391399">
<ele>378.16</ele>
<time>2015-04-25T12:28:18Z</time>
</trkpt>
<trkpt lat="35.0066482" lon="32.3391518">
<ele>377.98</ele>
<time>2015-04-25T12:28:20Z</time>
</trkpt>
<trkpt lat="35.0067194" lon="32.3391790">
<ele>377.95</ele>
<time>2015-04-25T12:28:21Z</time>
</trkpt>
<trkpt lat="35.0067736" lon="32.3391958">
<ele>377.44</ele>
<time>2015-04-25T12:28:22Z</time>
</trkpt>
<trkpt lat="35.0068315" lon="32.3392166">
<ele>377.18</ele>
<time>2015-04-25T12:28:23Z</time>
</trkpt>
<trkpt lat="35.0068978" lon="32.3392441">
<ele>377.05</ele>
<time>2015-04-25T12:28:24Z</time>
</trkpt>
<trkpt lat="35.0069633" lon="32.3392665">
<ele>376.99</ele>
<time>2015-04-25T12:28:25Z</time>
</trkpt>
<trkpt lat="35.0070339" lon="32.3392917">
<ele>376.46</ele>
<time>2015-04-25T12:28:26Z</time>
</trkpt>
<trkpt lat="35.0071115" lon="32.3393247">
<ele>376.69</ele>
<time>2015-04-25T12:28:27Z</time>
</trkpt>
<trkpt lat="35.0071846" lon="32.3393623">
<ele>376.31</ele>
<time>2015-04-25T12:28:28Z</time>
</trkpt>
<trkpt lat="35.0072590" lon="32.3394040">
<ele>375.62</ele>
<time>2015-04-25T12:28:29Z</time>
</trkpt>
<trkpt lat="35.0073146" lon="32.3394558">
<ele>374.27</ele>
<time>2015-04-25T12:28:30Z</time>
</trkpt>
<trkpt lat="35.0073738" lon="32.3394993">
<ele>373.60</ele>
<time>2015-04-25T12:28:31Z</time>
</trkpt>
<trkpt lat="35.0074499" lon="32.3395258">
<ele>373.26</ele>
<time>2015-04-25T12:28:32Z</time>
</trkpt>
<trkpt lat="35.0075293" lon="32.3395455">
<ele>372.09</ele>
<time>2015-04-25T12:28:33Z</time>
</trkpt>
<trkpt lat="35.0075749" lon="32.3395150">
<ele>371.01</ele>
<time>2015-04-25T12:28:34Z</time>
</trkpt>
<trkpt lat="35.0076114" lon="32.3394675">
<ele>369.97</ele>
<time>2015-04-25T12:28:35Z</time>
</trkpt>
<trkpt lat="35.0076635" lon="32.3394133">
<ele>369.95</ele>
<time>2015-04-25T12:28:36Z</time>
</trkpt>
<trkpt lat="35.0077021" lon="32.3393587">
<ele>369.94</ele>
<time>2015-04-25T12:28:37Z</time>
</trkpt>
<trkpt lat="35.0077496" lon="32.3393064">
<ele>370.43</ele>
<time>2015-04-25T12:28:38Z</time>
</trkpt>
<trkpt lat="35.0078028" lon="32.3392648">
<ele>370.18</ele>
<time>2015-04-25T12:28:39Z</time>
</trkpt>
<trkpt lat="35.0078602" lon="32.3392295">
<ele>370.55</ele>
<time>2015-04-25T12:28:40Z</time>
</trkpt>
<trkpt lat="35.0079170" lon="32.3391901">
<ele>371.24</ele>
<time>2015-04-25T12:28:41Z</time>
</trkpt>
<trkpt lat="35.0079743" lon="32.3391489">
<ele>371.58</ele>
<time>2015-04-25T12:28:42Z</time>
</trkpt>
<trkpt lat="35.0080083" lon="32.3391085">
<ele>371.75</ele>
<time>2015-04-25T12:28:43Z</time>
</trkpt>
<trkpt lat="35.0080766" lon="32.3390755">
<ele>371.63</ele>
<time>2015-04-25T12:28:45Z</time>
</trkpt>
<trkpt lat="35.0081313" lon="32.3390460">
<ele>373.10</ele>
<time>2015-04-25T12:28:47Z</time>
</trkpt>
<trkpt lat="35.0081950" lon="32.3390179">
<ele>374.72</ele>
<time>2015-04-25T12:28:49Z</time>
</trkpt>
<trkpt lat="35.0082390" lon="32.3389898">
<ele>375.12</ele>
<time>2015-04-25T12:28:51Z</time>
</trkpt>
<trkpt lat="35.0082920" lon="32.3389642">
<ele>374.72</ele>
<time>2015-04-25T12:28:53Z</time>
</trkpt>
<trkpt lat="35.0083488" lon="32.3389545">
<ele>374.87</ele>
<time>2015-04-25T12:28:55Z</time>
</trkpt>
<trkpt lat="35.0084055" lon="32.3389408">
<ele>374.91</ele>
<time>2015-04-25T12:28:57Z</time>
</trkpt>
<trkpt lat="35.0084710" lon="32.3389252">
<ele>374.17</ele>
<time>2015-04-25T12:28:59Z</time>
</trkpt>
<trkpt lat="35.0085382" lon="32.3389110">
<ele>374.49</ele>
<time>2015-04-25T12:29:01Z</time>
</trkpt>
<trkpt lat="35.0086074" lon="32.3388960">
<ele>375.32</ele>
<time>2015-04-25T12:29:03Z</time>
</trkpt>
<trkpt lat="35.0086819" lon="32.3388822">
<ele>375.02</ele>
<time>2015-04-25T12:29:05Z</time>
</trkpt>
<trkpt lat="35.0087600" lon="32.3388757">
<ele>374.95</ele>
<time>2015-04-25T12:29:07Z</time>
</trkpt>
<trkpt lat="35.0088401" lon="32.3388736">
<ele>374.93</ele>
<time>2015-04-25T12:29:09Z</time>
</trkpt>
<trkpt lat="35.0089097" lon="32.3388668">
<ele>376.43</ele>
<time>2015-04-25T12:29:11Z</time>
</trkpt>
<trkpt lat="35.0089720" lon="32.3388563">
<ele>376.80</ele>
<time>2015-04-25T12:29:13Z</time>
</trkpt>
<trkpt lat="35.0090286" lon="32.3388463">
<ele>376.14</ele>
<time>2015-04-25T12:29:15Z</time>
</trkpt>
<trkpt lat="35.0090842" lon="32.3388329">
<ele>376.73</ele>
<time>2015-04-25T12:29:17Z</time>
</trkpt>
<trkpt lat="35.0091330" lon="32.3388088">
<ele>377.63</ele>
<time>2015-04-25T12:29:19Z</time>
</trkpt>
<trkpt lat="35.0091738" lon="32.3387756">
<ele>377.35</ele>
<time>2015-04-25T12:29:21Z</time>
</trkpt>
<trkpt lat="35.0092060" lon="32.3387366">
<ele>377.03</ele>
<time>2015-04-25T12:29:23Z</time>
</trkpt>
<trkpt lat="35.0092346" lon="32.3386886">
<ele>376.95</ele>
<time>2015-04-25T12:29:25Z</time>
</trkpt>
<trkpt lat="35.0092607" lon="32.3386416">
<ele>376.93</ele>
<time>2015-04-25T12:29:27Z</time>
</trkpt>
<trkpt lat="35.0092899" lon="32.3385694">
<ele>376.18</ele>
<time>2015-04-25T12:29:30Z</time>
</trkpt>
<trkpt lat="35.0093134" lon="32.3384968">
<ele>376.71</ele>
<time>2015-04-25T12:29:33Z</time>
</trkpt>
<trkpt lat="35.0093560" lon="32.3384357">
<ele>376.15</ele>
<time>2015-04-25T12:29:36Z</time>
</trkpt>
<trkpt lat="35.0094080" lon="32.3384110">
<ele>377.23</ele>
<time>2015-04-25T12:29:38Z</time>
</trkpt>
<trkpt lat="35.0094684" lon="32.3384057">
<ele>378.25</ele>
<time>2015-04-25T12:29:40Z</time>
</trkpt>
<trkpt lat="35.0095237" lon="32.3384239">
<ele>379.51</ele>
<time>2015-04-25T12:29:42Z</time>
</trkpt>
<trkpt lat="35.0095729" lon="32.3384578">
<ele>380.57</ele>
<time>2015-04-25T12:29:44Z</time>
</trkpt>
<trkpt lat="35.0096175" lon="32.3385077">
<ele>381.34</ele>
<time>2015-04-25T12:29:46Z</time>
</trkpt>
<trkpt lat="35.0096617" lon="32.3385665">
<ele>381.28</ele>
<time>2015-04-25T12:29:48Z</time>
</trkpt>
<trkpt lat="35.0097051" lon="32.3386393">
<ele>381.01</ele>
<time>2015-04-25T12:29:50Z</time>
</trkpt>
<trkpt lat="35.0097470" lon="32.3387188">
<ele>380.70</ele>
<time>2015-04-25T12:29:52Z</time>
</trkpt>
<trkpt lat="35.0097935" lon="32.3387931">
<ele>381.37</ele>
<time>2015-04-25T12:29:54Z</time>
</trkpt>
<trkpt lat="35.0098592" lon="32.3388253">
<ele>381.79</ele>
<time>2015-04-25T12:29:56Z</time>
</trkpt>
<trkpt lat="35.0099261" lon="32.3387932">
<ele>381.39</ele>
<time>2015-04-25T12:29:58Z</time>
</trkpt>
<trkpt lat="35.0099809" lon="32.3387262">
<ele>380.29</ele>
<time>2015-04-25T12:30:00Z</time>
</trkpt>
<trkpt lat="35.0100190" lon="32.3386376">
<ele>380.02</ele>
<time>2015-04-25T12:30:02Z</time>
</trkpt>
<trkpt lat="35.0100568" lon="32.3385494">
<ele>379.20</ele>
<time>2015-04-25T12:30:04Z</time>
</trkpt>
<trkpt lat="35.0101038" lon="32.3384744">
<ele>378.99</ele>
<time>2015-04-25T12:30:06Z</time>
</trkpt>
<trkpt lat="35.0101821" lon="32.3384361">
<ele>378.19</ele>
<time>2015-04-25T12:30:08Z</time>
</trkpt>
<trkpt lat="35.0102439" lon="32.3384062">
<ele>377.99</ele>
<time>2015-04-25T12:30:10Z</time>
</trkpt>
<trkpt lat="35.0102951" lon="32.3383823">
<ele>377.93</ele>
<time>2015-04-25T12:30:13Z</time>
</trkpt>
<trkpt lat="35.0103403" lon="32.3383449">
<ele>377.93</ele>
<time>2015-04-25T12:30:16Z</time>
</trkpt>
<trkpt lat="35.0103809" lon="32.3383051">
<ele>377.93</ele>
<time>2015-04-25T12:30:18Z</time>
</trkpt>
<trkpt lat="35.0104246" lon="32.3382564">
<ele>377.93</ele>
<time>2015-04-25T12:30:20Z</time>
</trkpt>
<trkpt lat="35.0104804" lon="32.3381956">
<ele>377.93</ele>
<time>2015-04-25T12:30:22Z</time>
</trkpt>
<trkpt lat="35.0105450" lon="32.3381322">
<ele>379.18</ele>
<time>2015-04-25T12:30:24Z</time>
</trkpt>
<trkpt lat="35.0106087" lon="32.3380710">
<ele>380.49</ele>
<time>2015-04-25T12:30:26Z</time>
</trkpt>
<trkpt lat="35.0106585" lon="32.3380040">
<ele>381.32</ele>
<time>2015-04-25T12:30:28Z</time>
</trkpt>
<trkpt lat="35.0106866" lon="32.3379254">
<ele>382.52</ele>
<time>2015-04-25T12:30:30Z</time>
</trkpt>
<trkpt lat="35.0106907" lon="32.3378390">
<ele>382.32</ele>
<time>2015-04-25T12:30:32Z</time>
</trkpt>
<trkpt lat="35.0106756" lon="32.3377514">
<ele>381.52</ele>
<time>2015-04-25T12:30:34Z</time>
</trkpt>
<trkpt lat="35.0106508" lon="32.3376648">
<ele>380.32</ele>
<time>2015-04-25T12:30:36Z</time>
</trkpt>
<trkpt lat="35.0106224" lon="32.3375763">
<ele>379.52</ele>
<time>2015-04-25T12:30:38Z</time>
</trkpt>
<trkpt lat="35.0105777" lon="32.3375188">
<ele>378.73</ele>
<time>2015-04-25T12:30:39Z</time>
</trkpt>
<trkpt lat="35.0105502" lon="32.3374716">
<ele>378.33</ele>
<time>2015-04-25T12:30:40Z</time>
</trkpt>
<trkpt lat="35.0105230" lon="32.3374256">
<ele>378.12</ele>
<time>2015-04-25T12:30:41Z</time>
</trkpt>
<trkpt lat="35.0104820" lon="32.3373785">
<ele>377.02</ele>
<time>2015-04-25T12:30:42Z</time>
</trkpt>
<trkpt lat="35.0104439" lon="32.3373380">
<ele>375.98</ele>
<time>2015-04-25T12:30:43Z</time>
</trkpt>
<trkpt lat="35.0103987" lon="32.3372854">
<ele>375.95</ele>
<time>2015-04-25T12:30:44Z</time>
</trkpt>
<trkpt lat="35.0103580" lon="32.3372257">
<ele>375.44</ele>
<time>2015-04-25T12:30:45Z</time>
</trkpt>
<trkpt lat="35.0103426" lon="32.3371618">
<ele>374.68</ele>
<time>2015-04-25T12:30:46Z</time>
</trkpt>
<trkpt lat="35.0103703" lon="32.3370766">
<ele>373.86</ele>
<time>2015-04-25T12:30:48Z</time>
</trkpt>
<trkpt lat="35.0103995" lon="32.3370193">
<ele>373.89</ele>
<time>2015-04-25T12:30:49Z</time>
</trkpt>
<trkpt lat="35.0104380" lon="32.3369604">
<ele>372.91</ele>
<time>2015-04-25T12:30:50Z</time>
</trkpt>
<trkpt lat="35.0104785" lon="32.3369153">
<ele>372.92</ele>
<time>2015-04-25T12:30:51Z</time>
</trkpt>
<trkpt lat="35.0105187" lon="32.3368563">
<ele>372.92</ele>
<time>2015-04-25T12:30:52Z</time>
</trkpt>
<trkpt lat="35.0105551" lon="32.3367944">
<ele>372.92</ele>
<time>2015-04-25T12:30:53Z</time>
</trkpt>
<trkpt lat="35.0106050" lon="32.3367396">
<ele>372.92</ele>
<time>2015-04-25T12:30:54Z</time>
</trkpt>
<trkpt lat="35.0106513" lon="32.3366790">
<ele>372.92</ele>
<time>2015-04-25T12:30:55Z</time>
</trkpt>
<trkpt lat="35.0107015" lon="32.3366272">
<ele>372.92</ele>
<time>2015-04-25T12:30:56Z</time>
</trkpt>
<trkpt lat="35.0107450" lon="32.3365730">
<ele>372.92</ele>
<time>2015-04-25T12:30:57Z</time>
</trkpt>
<trkpt lat="35.0107893" lon="32.3365192">
<ele>372.92</ele>
<time>2015-04-25T12:30:58Z</time>
</trkpt>
<trkpt lat="35.0108424" lon="32.3364664">
<ele>372.92</ele>
<time>2015-04-25T12:30:59Z</time>
</trkpt>
<trkpt lat="35.0109063" lon="32.3364241">
<ele>372.92</ele>
<time>2015-04-25T12:31:00Z</time>
</trkpt>
<trkpt lat="35.0109645" lon="32.3363778">
<ele>373.42</ele>
<time>2015-04-25T12:31:01Z</time>
</trkpt>
<trkpt lat="35.0110210" lon="32.3363257">
<ele>373.17</ele>
<time>2015-04-25T12:31:02Z</time>
</trkpt>
<trkpt lat="35.0110679" lon="32.3362629">
<ele>373.05</ele>
<time>2015-04-25T12:31:03Z</time>
</trkpt>
<trkpt lat="35.0111194" lon="32.3362147">
<ele>372.49</ele>
<time>2015-04-25T12:31:04Z</time>
</trkpt>
<trkpt lat="35.0111628" lon="32.3361631">
<ele>372.21</ele>
<time>2015-04-25T12:31:05Z</time>
</trkpt>
<trkpt lat="35.0112207" lon="32.3361139">
<ele>372.07</ele>
<time>2015-04-25T12:31:06Z</time>
</trkpt>
<trkpt lat="35.0112667" lon="32.3360899">
<ele>372.50</ele>
<time>2015-04-25T12:31:07Z</time>
</trkpt>
<trkpt lat="35.0113176" lon="32.3360704">
<ele>372.71</ele>
<time>2015-04-25T12:31:08Z</time>
</trkpt>
<trkpt lat="35.0113660" lon="32.3360568">
<ele>373.32</ele>
<time>2015-04-25T12:31:09Z</time>
</trkpt>
<trkpt lat="35.0114184" lon="32.3360580">
<ele>374.12</ele>
<time>2015-04-25T12:31:10Z</time>
</trkpt>
<trkpt lat="35.0114993" lon="32.3360581">
<ele>373.47</ele>
<time>2015-04-25T12:31:12Z</time>
</trkpt>
<trkpt lat="35.0115813" lon="32.3360509">
<ele>373.56</ele>
<time>2015-04-25T12:31:14Z</time>
</trkpt>
<trkpt lat="35.0116552" lon="32.3360394">
<ele>374.08</ele>
<time>2015-04-25T12:31:16Z</time>
</trkpt>
<trkpt lat="35.0117225" lon="32.3360190">
<ele>374.46</ele>
<time>2015-04-25T12:31:18Z</time>
</trkpt>
<trkpt lat="35.0117978" lon="32.3359960">
<ele>374.81</ele>
<time>2015-04-25T12:31:20Z</time>
</trkpt>
<trkpt lat="35.0118881" lon="32.3359500">
<ele>373.65</ele>
<time>2015-04-25T12:31:22Z</time>
</trkpt>
<trkpt lat="35.0119337" lon="32.3359248">
<ele>373.29</ele>
<time>2015-04-25T12:31:23Z</time>
</trkpt>
<trkpt lat="35.0119830" lon="32.3358936">
<ele>373.11</ele>
<time>2015-04-25T12:31:24Z</time>
</trkpt>
<trkpt lat="35.0120399" lon="32.3358719">
<ele>373.02</ele>
<time>2015-04-25T12:31:25Z</time>
</trkpt>
<trkpt lat="35.0120912" lon="32.3358428">
<ele>372.97</ele>
<time>2015-04-25T12:31:26Z</time>
</trkpt>
<trkpt lat="35.0121440" lon="32.3358273">
<ele>372.45</ele>
<time>2015-04-25T12:31:27Z</time>
</trkpt>
<trkpt lat="35.0121976" lon="32.3358054">
<ele>372.19</ele>
<time>2015-04-25T12:31:28Z</time>
</trkpt>
<trkpt lat="35.0122461" lon="32.3357802">
<ele>372.56</ele>
<time>2015-04-25T12:31:29Z</time>
</trkpt>
<trkpt lat="35.0122987" lon="32.3357657">
<ele>372.74</ele>
<time>2015-04-25T12:31:30Z</time>
</trkpt>
<trkpt lat="35.0123471" lon="32.3357451">
<ele>372.33</ele>
<time>2015-04-25T12:31:31Z</time>
</trkpt>
<trkpt lat="35.0123915" lon="32.3357269">
<ele>372.13</ele>
<time>2015-04-25T12:31:32Z</time>
</trkpt>
<trkpt lat="35.0124984" lon="32.3356940">
<ele>371.48</ele>
<time>2015-04-25T12:31:34Z</time>
</trkpt>
<trkpt lat="35.0125455" lon="32.3356785">
<ele>371.20</ele>
<time>2015-04-25T12:31:35Z</time>
</trkpt>
<trkpt lat="35.0125895" lon="32.3356637">
<ele>370.56</ele>
<time>2015-04-25T12:31:36Z</time>
</trkpt>
<trkpt lat="35.0126408" lon="32.3356440">
<ele>369.74</ele>
<time>2015-04-25T12:31:37Z</time>
</trkpt>
<trkpt lat="35.0126936" lon="32.3356022">
<ele>368.83</ele>
<time>2015-04-25T12:31:38Z</time>
</trkpt>
<trkpt lat="35.0127565" lon="32.3355718">
<ele>367.88</ele>
<time>2015-04-25T12:31:39Z</time>
</trkpt>
<trkpt lat="35.0128310" lon="32.3355466">
<ele>367.40</ele>
<time>2015-04-25T12:31:40Z</time>
</trkpt>
<trkpt lat="35.0128992" lon="32.3355235">
<ele>366.66</ele>
<time>2015-04-25T12:31:41Z</time>
</trkpt>
<trkpt lat="35.0129658" lon="32.3355048">
<ele>366.29</ele>
<time>2015-04-25T12:31:42Z</time>
</trkpt>
<trkpt lat="35.0130291" lon="32.3354918">
<ele>366.11</ele>
<time>2015-04-25T12:31:43Z</time>
</trkpt>
<trkpt lat="35.0130901" lon="32.3354798">
<ele>366.02</ele>
<time>2015-04-25T12:31:44Z</time>
</trkpt>
<trkpt lat="35.0131434" lon="32.3354647">
<ele>366.47</ele>
<time>2015-04-25T12:31:45Z</time>
</trkpt>
<trkpt lat="35.0132000" lon="32.3354486">
<ele>366.70</ele>
<time>2015-04-25T12:31:46Z</time>
</trkpt>
<trkpt lat="35.0132501" lon="32.3354341">
<ele>366.81</ele>
<time>2015-04-25T12:31:47Z</time>
</trkpt>
<trkpt lat="35.0133065" lon="32.3354165">
<ele>366.87</ele>
<time>2015-04-25T12:31:48Z</time>
</trkpt>
<trkpt lat="35.0133534" lon="32.3354055">
<ele>366.90</ele>
<time>2015-04-25T12:31:49Z</time>
</trkpt>
<trkpt lat="35.0134472" lon="32.3353605">
<ele>367.67</ele>
<time>2015-04-25T12:31:51Z</time>
</trkpt>
<trkpt lat="35.0134924" lon="32.3353412">
<ele>367.80</ele>
<time>2015-04-25T12:31:52Z</time>
</trkpt>
<trkpt lat="35.0135513" lon="32.3353231">
<ele>367.86</ele>
<time>2015-04-25T12:31:53Z</time>
</trkpt>
<trkpt lat="35.0136066" lon="32.3352929">
<ele>367.39</ele>
<time>2015-04-25T12:31:54Z</time>
</trkpt>
<trkpt lat="35.0136502" lon="32.3352623">
<ele>366.16</ele>
<time>2015-04-25T12:31:55Z</time>
</trkpt>
<trkpt lat="35.0137186" lon="32.3352212">
<ele>365.54</ele>
<time>2015-04-25T12:31:56Z</time>
</trkpt>
<trkpt lat="35.0137951" lon="32.3351876">
<ele>364.73</ele>
<time>2015-04-25T12:31:57Z</time>
</trkpt>
<trkpt lat="35.0138637" lon="32.3351527">
<ele>364.83</ele>
<time>2015-04-25T12:31:58Z</time>
</trkpt>
<trkpt lat="35.0139338" lon="32.3351278">
<ele>364.38</ele>
<time>2015-04-25T12:31:59Z</time>
</trkpt>
<trkpt lat="35.0140107" lon="32.3351035">
<ele>364.65</ele>
<time>2015-04-25T12:32:00Z</time>
</trkpt>
<trkpt lat="35.0141026" lon="32.3350789">
<ele>364.79</ele>
<time>2015-04-25T12:32:01Z</time>
</trkpt>
<trkpt lat="35.0141658" lon="32.3350590">
<ele>364.36</ele>
<time>2015-04-25T12:32:02Z</time>
</trkpt>
<trkpt lat="35.0142246" lon="32.3350477">
<ele>363.64</ele>
<time>2015-04-25T12:32:03Z</time>
</trkpt>
<trkpt lat="35.0143012" lon="32.3350430">
<ele>363.28</ele>
<time>2015-04-25T12:32:04Z</time>
</trkpt>
<trkpt lat="35.0143586" lon="32.3350466">
<ele>363.10</ele>
<time>2015-04-25T12:32:05Z</time>
</trkpt>
<trkpt lat="35.0144187" lon="32.3350647">
<ele>363.01</ele>
<time>2015-04-25T12:32:06Z</time>
</trkpt>
<trkpt lat="35.0144880" lon="32.3350660">
<ele>362.47</ele>
<time>2015-04-25T12:32:07Z</time>
</trkpt>
<trkpt lat="35.0145484" lon="32.3350682">
<ele>361.70</ele>
<time>2015-04-25T12:32:08Z</time>
</trkpt>
<trkpt lat="35.0146072" lon="32.3350712">
<ele>360.81</ele>
<time>2015-04-25T12:32:09Z</time>
</trkpt>
<trkpt lat="35.0146717" lon="32.3350699">
<ele>360.37</ele>
<time>2015-04-25T12:32:10Z</time>
</trkpt>
<trkpt lat="35.0147238" lon="32.3350715">
<ele>360.15</ele>
<time>2015-04-25T12:32:11Z</time>
</trkpt>
<trkpt lat="35.0147848" lon="32.3350747">
<ele>360.04</ele>
<time>2015-04-25T12:32:12Z</time>
</trkpt>
<trkpt lat="35.0148485" lon="32.3350733">
<ele>359.48</ele>
<time>2015-04-25T12:32:13Z</time>
</trkpt>
<trkpt lat="35.0149222" lon="32.3350779">
<ele>359.20</ele>
<time>2015-04-25T12:32:14Z</time>
</trkpt>
<trkpt lat="35.0149982" lon="32.3350835">
<ele>359.06</ele>
<time>2015-04-25T12:32:15Z</time>
</trkpt>
<trkpt lat="35.0150728" lon="32.3350895">
<ele>358.49</ele>
<time>2015-04-25T12:32:16Z</time>
</trkpt>
<trkpt lat="35.0151400" lon="32.3350978">
<ele>357.71</ele>
<time>2015-04-25T12:32:17Z</time>
</trkpt>
<trkpt lat="35.0152091" lon="32.3351117">
<ele>356.82</ele>
<time>2015-04-25T12:32:18Z</time>
</trkpt>
<trkpt lat="35.0152877" lon="32.3351261">
<ele>355.87</ele>
<time>2015-04-25T12:32:19Z</time>
</trkpt>
<trkpt lat="35.0153674" lon="32.3351335">
<ele>354.90</ele>
<time>2015-04-25T12:32:20Z</time>
</trkpt>
<trkpt lat="35.0154451" lon="32.3351259">
<ele>355.91</ele>
<time>2015-04-25T12:32:21Z</time>
</trkpt>
<trkpt lat="35.0155179" lon="32.3351196">
<ele>356.42</ele>
<time>2015-04-25T12:32:22Z</time>
</trkpt>
<trkpt lat="35.0155811" lon="32.3351064">
<ele>356.17</ele>
<time>2015-04-25T12:32:23Z</time>
</trkpt>
<trkpt lat="35.0156386" lon="32.3350808">
<ele>356.05</ele>
<time>2015-04-25T12:32:24Z</time>
</trkpt>
<trkpt lat="35.0157114" lon="32.3350570">
<ele>355.49</ele>
<time>2015-04-25T12:32:25Z</time>
</trkpt>
<trkpt lat="35.0157663" lon="32.3350137">
<ele>354.71</ele>
<time>2015-04-25T12:32:26Z</time>
</trkpt>
<trkpt lat="35.0158175" lon="32.3349613">
<ele>354.32</ele>
<time>2015-04-25T12:32:27Z</time>
</trkpt>
<trkpt lat="35.0158808" lon="32.3348959">
<ele>353.12</ele>
<time>2015-04-25T12:32:28Z</time>
</trkpt>
<trkpt lat="35.0159347" lon="32.3348278">
<ele>352.52</ele>
<time>2015-04-25T12:32:29Z</time>
</trkpt>
<trkpt lat="35.0159732" lon="32.3347654">
<ele>351.72</ele>
<time>2015-04-25T12:32:30Z</time>
</trkpt>
<trkpt lat="35.0160048" lon="32.3347041">
<ele>351.32</ele>
<time>2015-04-25T12:32:31Z</time>
</trkpt>
<trkpt lat="35.0160417" lon="32.3346401">
<ele>351.12</ele>
<time>2015-04-25T12:32:32Z</time>
</trkpt>
<trkpt lat="35.0160815" lon="32.3345663">
<ele>350.52</ele>
<time>2015-04-25T12:32:33Z</time>
</trkpt>
<trkpt lat="35.0161394" lon="32.3345160">
<ele>350.22</ele>
<time>2015-04-25T12:32:34Z</time>
</trkpt>
<trkpt lat="35.0161951" lon="32.3344710">
<ele>350.07</ele>
<time>2015-04-25T12:32:35Z</time>
</trkpt>
<trkpt lat="35.0162539" lon="32.3344643">
<ele>350.00</ele>
<time>2015-04-25T12:32:36Z</time>
</trkpt>
<trkpt lat="35.0162970" lon="32.3344342">
<ele>349.46</ele>
<time>2015-04-25T12:32:37Z</time>
</trkpt>
<trkpt lat="35.0163567" lon="32.3344110">
<ele>348.69</ele>
<time>2015-04-25T12:32:38Z</time>
</trkpt>
<trkpt lat="35.0164115" lon="32.3343812">
<ele>347.81</ele>
<time>2015-04-25T12:32:39Z</time>
</trkpt>
<trkpt lat="35.0164538" lon="32.3343431">
<ele>346.37</ele>
<time>2015-04-25T12:32:40Z</time>
</trkpt>
<trkpt lat="35.0165010" lon="32.3343127">
<ele>346.15</ele>
<time>2015-04-25T12:32:41Z</time>
</trkpt>
<trkpt lat="35.0165650" lon="32.3342674">
<ele>345.98</ele>
<time>2015-04-25T12:32:43Z</time>
</trkpt>
<trkpt lat="35.0166100" lon="32.3342330">
<ele>345.94</ele>
<time>2015-04-25T12:32:45Z</time>
</trkpt>
<trkpt lat="35.0166517" lon="32.3341938">
<ele>345.80</ele>
<time>2015-04-25T12:32:48Z</time>
</trkpt>
<trkpt lat="35.0167046" lon="32.3341695">
<ele>348.03</ele>
<time>2015-04-25T12:32:51Z</time>
</trkpt>
<trkpt lat="35.0167646" lon="32.3341398">
<ele>349.56</ele>
<time>2015-04-25T12:32:54Z</time>
</trkpt>
<trkpt lat="35.0168136" lon="32.3341056">
<ele>350.38</ele>
<time>2015-04-25T12:32:57Z</time>
</trkpt>
<trkpt lat="35.0168611" lon="32.3340988">
<ele>352.23</ele>
<time>2015-04-25T12:33:00Z</time>
</trkpt>
<trkpt lat="35.0169168" lon="32.3340866">
<ele>353.82</ele>
<time>2015-04-25T12:33:04Z</time>
</trkpt>
<trkpt lat="35.0169675" lon="32.3340606">
<ele>354.67</ele>
<time>2015-04-25T12:33:09Z</time>
</trkpt>
<trkpt lat="35.0170156" lon="32.3340430">
<ele>354.66</ele>
<time>2015-04-25T12:33:13Z</time>
</trkpt>
<trkpt lat="35.0170685" lon="32.3340403">
<ele>355.66</ele>
<time>2015-04-25T12:33:17Z</time>
</trkpt>
<trkpt lat="35.0171142" lon="32.3340271">
<ele>355.41</ele>
<time>2015-04-25T12:33:21Z</time>
</trkpt>
<trkpt lat="35.0171591" lon="32.3340123">
<ele>355.83</ele>
<time>2015-04-25T12:33:25Z</time>
</trkpt>
<trkpt lat="35.0172087" lon="32.3340006">
<ele>357.29</ele>
<time>2015-04-25T12:33:29Z</time>
</trkpt>
<trkpt lat="35.0172532" lon="32.3339776">
<ele>358.39</ele>
<time>2015-04-25T12:33:33Z</time>
</trkpt>
<trkpt lat="35.0173013" lon="32.3339538">
<ele>359.83</ele>
<time>2015-04-25T12:33:37Z</time>
</trkpt>
<trkpt lat="35.0173456" lon="32.3339330">
<ele>360.79</ele>
<time>2015-04-25T12:33:41Z</time>
</trkpt>
<trkpt lat="35.0173899" lon="32.3339041">
<ele>361.67</ele>
<time>2015-04-25T12:33:45Z</time>
</trkpt>
<trkpt lat="35.0174320" lon="32.3338674">
<ele>361.91</ele>
<time>2015-04-25T12:33:49Z</time>
</trkpt>
<trkpt lat="35.0174713" lon="32.3338263">
<ele>361.92</ele>
<time>2015-04-25T12:33:52Z</time>
</trkpt>
<trkpt lat="35.0175159" lon="32.3337807">
<ele>362.05</ele>
<time>2015-04-25T12:33:55Z</time>
</trkpt>
<trkpt lat="35.0175504" lon="32.3337456">
<ele>361.93</ele>
<time>2015-04-25T12:33:59Z</time>
</trkpt>
<trkpt lat="35.0175966" lon="32.3337096">
<ele>362.92</ele>
<time>2015-04-25T12:41:23Z</time>
</trkpt>
<trkpt lat="35.0176420" lon="32.3336660">
<ele>363.86</ele>
<time>2015-04-25T12:41:27Z</time>
</trkpt>
<trkpt lat="35.0176936" lon="32.3336292">
<ele>363.92</ele>
<time>2015-04-25T12:41:31Z</time>
</trkpt>
<trkpt lat="35.0177401" lon="32.3335924">
<ele>364.80</ele>
<time>2015-04-25T12:41:34Z</time>
</trkpt>
<trkpt lat="35.0177844" lon="32.3335478">
<ele>364.41</ele>
<time>2015-04-25T12:41:37Z</time>
</trkpt>
<trkpt lat="35.0178265" lon="32.3335047">
<ele>364.86</ele>
<time>2015-04-25T12:41:40Z</time>
</trkpt>
<trkpt lat="35.0178705" lon="32.3334658">
<ele>365.04</ele>
<time>2015-04-25T12:41:43Z</time>
</trkpt>
<trkpt lat="35.0179037" lon="32.3334161">
<ele>365.81</ele>
<time>2015-04-25T12:41:46Z</time>
</trkpt>
<trkpt lat="35.0179314" lon="32.3333644">
<ele>365.66</ele>
<time>2015-04-25T12:41:49Z</time>
</trkpt>
<trkpt lat="35.0179544" lon="32.3333139">
<ele>365.27</ele>
<time>2015-04-25T12:41:52Z</time>
</trkpt>
<trkpt lat="35.0179706" lon="32.3332597">
<ele>365.09</ele>
<time>2015-04-25T12:41:55Z</time>
</trkpt>
<trkpt lat="35.0179832" lon="32.3331994">
<ele>365.70</ele>
<time>2015-04-25T12:41:58Z</time>
</trkpt>
<trkpt lat="35.0179999" lon="32.3331339">
<ele>365.02</ele>
<time>2015-04-25T12:42:01Z</time>
</trkpt>
<trkpt lat="35.0180202" lon="32.3330787">
<ele>365.06</ele>
<time>2015-04-25T12:42:04Z</time>
</trkpt>
<trkpt lat="35.0180358" lon="32.3330264">
<ele>364.94</ele>
<time>2015-04-25T12:42:07Z</time>
</trkpt>
<trkpt lat="35.0180534" lon="32.3329728">
<ele>367.93</ele>
<time>2015-04-25T12:42:10Z</time>
</trkpt>
<trkpt lat="35.0180700" lon="32.3329128">
<ele>369.68</ele>
<time>2015-04-25T12:42:13Z</time>
</trkpt>
<trkpt lat="35.0180897" lon="32.3328532">
<ele>368.39</ele>
<time>2015-04-25T12:42:16Z</time>
</trkpt>
<trkpt lat="35.0181246" lon="32.3327904">
<ele>367.61</ele>
<time>2015-04-25T12:42:19Z</time>
</trkpt>
<trkpt lat="35.0181654" lon="32.3327249">
<ele>367.10</ele>
<time>2015-04-25T12:42:21Z</time>
</trkpt>
<trkpt lat="35.0181968" lon="32.3326754">
<ele>367.01</ele>
<time>2015-04-25T12:42:22Z</time>
</trkpt>
<trkpt lat="35.0182608" lon="32.3325862">
<ele>366.47</ele>
<time>2015-04-25T12:42:23Z</time>
</trkpt>
<trkpt lat="35.0183114" lon="32.3325280">
<ele>365.70</ele>
<time>2015-04-25T12:42:24Z</time>
</trkpt>
<trkpt lat="35.0183648" lon="32.3324578">
<ele>364.81</ele>
<time>2015-04-25T12:42:25Z</time>
</trkpt>
<trkpt lat="35.0184130" lon="32.3323886">
<ele>363.87</ele>
<time>2015-04-25T12:42:26Z</time>
</trkpt>
<trkpt lat="35.0184737" lon="32.3323054">
<ele>363.40</ele>
<time>2015-04-25T12:42:27Z</time>
</trkpt>
<trkpt lat="35.0185325" lon="32.3322293">
<ele>362.66</ele>
<time>2015-04-25T12:42:28Z</time>
</trkpt>
<trkpt lat="35.0185900" lon="32.3321568">
<ele>361.79</ele>
<time>2015-04-25T12:42:29Z</time>
</trkpt>
<trkpt lat="35.0186439" lon="32.3320948">
<ele>361.36</ele>
<time>2015-04-25T12:42:30Z</time>
</trkpt>
<trkpt lat="35.0186889" lon="32.3320400">
<ele>361.14</ele>
<time>2015-04-25T12:42:31Z</time>
</trkpt>
<trkpt lat="35.0187337" lon="32.3319945">
<ele>361.53</ele>
<time>2015-04-25T12:42:32Z</time>
</trkpt>
<trkpt lat="35.0187647" lon="32.3319520">
<ele>361.23</ele>
<time>2015-04-25T12:42:33Z</time>
</trkpt>
<trkpt lat="35.0188288" lon="32.3318873">
<ele>360.50</ele>
<time>2015-04-25T12:42:35Z</time>
</trkpt>
<trkpt lat="35.0188627" lon="32.3318497">
<ele>360.71</ele>
<time>2015-04-25T12:42:36Z</time>
</trkpt>
<trkpt lat="35.0188933" lon="32.3318033">
<ele>360.32</ele>
<time>2015-04-25T12:42:37Z</time>
</trkpt>
<trkpt lat="35.0189284" lon="32.3317590">
<ele>360.12</ele>
<time>2015-04-25T12:42:38Z</time>
</trkpt>
<trkpt lat="35.0189683" lon="32.3316980">
<ele>360.02</ele>
<time>2015-04-25T12:42:39Z</time>
</trkpt>
<trkpt lat="35.0190117" lon="32.3316460">
<ele>358.97</ele>
<time>2015-04-25T12:42:40Z</time>
</trkpt>
<trkpt lat="35.0190551" lon="32.3315969">
<ele>357.95</ele>
<time>2015-04-25T12:42:41Z</time>
</trkpt>
<trkpt lat="35.0190964" lon="32.3315387">
<ele>358.44</ele>
<time>2015-04-25T12:42:42Z</time>
</trkpt>
<trkpt lat="35.0191372" lon="32.3314886">
<ele>358.68</ele>
<time>2015-04-25T12:42:43Z</time>
</trkpt>
<trkpt lat="35.0191731" lon="32.3314442">
<ele>358.30</ele>
<time>2015-04-25T12:42:44Z</time>
</trkpt>
<trkpt lat="35.0192188" lon="32.3313954">
<ele>358.11</ele>
<time>2015-04-25T12:42:45Z</time>
</trkpt>
<trkpt lat="35.0192558" lon="32.3313483">
<ele>358.02</ele>
<time>2015-04-25T12:42:46Z</time>
</trkpt>
<trkpt lat="35.0193078" lon="32.3313207">
<ele>357.47</ele>
<time>2015-04-25T12:42:47Z</time>
</trkpt>
<trkpt lat="35.0193644" lon="32.3312857">
<ele>356.70</ele>
<time>2015-04-25T12:42:48Z</time>
</trkpt>
<trkpt lat="35.0194173" lon="32.3312548">
<ele>356.31</ele>
<time>2015-04-25T12:42:49Z</time>
</trkpt>
<trkpt lat="35.0194564" lon="32.3312240">
<ele>355.62</ele>
<time>2015-04-25T12:42:50Z</time>
</trkpt>
<trkpt lat="35.0195027" lon="32.3311910">
<ele>355.27</ele>
<time>2015-04-25T12:42:51Z</time>
</trkpt>
<trkpt lat="35.0195526" lon="32.3311541">
<ele>355.10</ele>
<time>2015-04-25T12:42:52Z</time>
</trkpt>
<trkpt lat="35.0195936" lon="32.3311184">
<ele>355.01</ele>
<time>2015-04-25T12:42:53Z</time>
</trkpt>
<trkpt lat="35.0196680" lon="32.3310704">
<ele>354.70</ele>
<time>2015-04-25T12:42:55Z</time>
</trkpt>
<trkpt lat="35.0197115" lon="32.3310290">
<ele>353.37</ele>
<time>2015-04-25T12:42:57Z</time>
</trkpt>
<trkpt lat="35.0197564" lon="32.3309999">
<ele>351.79</ele>
<time>2015-04-25T12:42:59Z</time>
</trkpt>
<trkpt lat="35.0198111" lon="32.3309386">
<ele>350.39</ele>
<time>2015-04-25T12:43:01Z</time>
</trkpt>
<trkpt lat="35.0198413" lon="32.3308973">
<ele>350.66</ele>
<time>2015-04-25T12:43:02Z</time>
</trkpt>
<trkpt lat="35.0198917" lon="32.3308176">
<ele>350.36</ele>
<time>2015-04-25T12:43:04Z</time>
</trkpt>
<trkpt lat="35.0199223" lon="32.3306991">
<ele>348.53</ele>
<time>2015-04-25T12:43:06Z</time>
</trkpt>
<trkpt lat="35.0199315" lon="32.3306332">
<ele>348.23</ele>
<time>2015-04-25T12:43:07Z</time>
</trkpt>
<trkpt lat="35.0199227" lon="32.3305401">
<ele>348.08</ele>
<time>2015-04-25T12:43:08Z</time>
</trkpt>
<trkpt lat="35.0199225" lon="32.3304515">
<ele>347.50</ele>
<time>2015-04-25T12:43:09Z</time>
</trkpt>
<trkpt lat="35.0199497" lon="32.3303772">
<ele>347.21</ele>
<time>2015-04-25T12:43:10Z</time>
</trkpt>
<trkpt lat="35.0199728" lon="32.3303056">
<ele>347.07</ele>
<time>2015-04-25T12:43:11Z</time>
</trkpt>
<trkpt lat="35.0200247" lon="32.3302376">
<ele>347.00</ele>
<time>2015-04-25T12:43:12Z</time>
</trkpt>
<trkpt lat="35.0200664" lon="32.3302078">
<ele>346.46</ele>
<time>2015-04-25T12:43:13Z</time>
</trkpt>
<trkpt lat="35.0201196" lon="32.3301667">
<ele>345.69</ele>
<time>2015-04-25T12:43:14Z</time>
</trkpt>
<trkpt lat="35.0201604" lon="32.3301258">
<ele>345.31</ele>
<time>2015-04-25T12:43:15Z</time>
</trkpt>
<trkpt lat="35.0202051" lon="32.3300856">
<ele>345.12</ele>
<time>2015-04-25T12:43:16Z</time>
</trkpt>
<trkpt lat="35.0202509" lon="32.3300525">
<ele>345.02</ele>
<time>2015-04-25T12:43:17Z</time>
</trkpt>
<trkpt lat="35.0202935" lon="32.3300070">
<ele>344.97</ele>
<time>2015-04-25T12:43:18Z</time>
</trkpt>
<trkpt lat="35.0203735" lon="32.3299275">
<ele>343.69</ele>
<time>2015-04-25T12:43:20Z</time>
</trkpt>
<trkpt lat="35.0204099" lon="32.3298930">
<ele>342.81</ele>
<time>2015-04-25T12:43:21Z</time>
</trkpt>
<trkpt lat="35.0204528" lon="32.3298566">
<ele>342.87</ele>
<time>2015-04-25T12:43:22Z</time>
</trkpt>
<trkpt lat="35.0204926" lon="32.3298304">
<ele>342.40</ele>
<time>2015-04-25T12:43:23Z</time>
</trkpt>
<trkpt lat="35.0205377" lon="32.3298103">
<ele>341.66</ele>
<time>2015-04-25T12:43:24Z</time>
</trkpt>
<trkpt lat="35.0205960" lon="32.3297898">
<ele>340.79</ele>
<time>2015-04-25T12:43:25Z</time>
</trkpt>
<trkpt lat="35.0206542" lon="32.3297656">
<ele>339.86</ele>
<time>2015-04-25T12:43:26Z</time>
</trkpt>
<trkpt lat="35.0207171" lon="32.3297430">
<ele>339.39</ele>
<time>2015-04-25T12:43:27Z</time>
</trkpt>
<trkpt lat="35.0207875" lon="32.3297058">
<ele>339.66</ele>
<time>2015-04-25T12:43:28Z</time>
</trkpt>
<trkpt lat="35.0208566" lon="32.3296759">
<ele>339.29</ele>
<time>2015-04-25T12:43:29Z</time>
</trkpt>
<trkpt lat="35.0209190" lon="32.3296244">
<ele>338.61</ele>
<time>2015-04-25T12:43:30Z</time>
</trkpt>
<trkpt lat="35.0209867" lon="32.3295790">
<ele>337.77</ele>
<time>2015-04-25T12:43:31Z</time>
</trkpt>
<trkpt lat="35.0210566" lon="32.3295240">
<ele>336.85</ele>
<time>2015-04-25T12:43:32Z</time>
</trkpt>
<trkpt lat="35.0211252" lon="32.3294778">
<ele>335.89</ele>
<time>2015-04-25T12:43:33Z</time>
</trkpt>
<trkpt lat="35.0211980" lon="32.3294335">
<ele>335.41</ele>
<time>2015-04-25T12:43:34Z</time>
</trkpt>
<trkpt lat="35.0212714" lon="32.3293915">
<ele>334.67</ele>
<time>2015-04-25T12:43:35Z</time>
</trkpt>
<trkpt lat="35.0213358" lon="32.3293422">
<ele>333.80</ele>
<time>2015-04-25T12:43:36Z</time>
</trkpt>
<trkpt lat="35.0213978" lon="32.3293022">
<ele>333.36</ele>
<time>2015-04-25T12:43:37Z</time>
</trkpt>
<trkpt lat="35.0214596" lon="32.3292671">
<ele>333.14</ele>
<time>2015-04-25T12:43:38Z</time>
</trkpt>
<trkpt lat="35.0215304" lon="32.3292639">
<ele>332.53</ele>
<time>2015-04-25T12:43:39Z</time>
</trkpt>
<trkpt lat="35.0216089" lon="32.3292644">
<ele>331.73</ele>
<time>2015-04-25T12:43:40Z</time>
</trkpt>
<trkpt lat="35.0216640" lon="32.3292702">
<ele>331.83</ele>
<time>2015-04-25T12:43:41Z</time>
</trkpt>
<trkpt lat="35.0217224" lon="32.3292848">
<ele>331.38</ele>
<time>2015-04-25T12:43:42Z</time>
</trkpt>
<trkpt lat="35.0218001" lon="32.3292907">
<ele>331.15</ele>
<time>2015-04-25T12:43:43Z</time>
</trkpt>
<trkpt lat="35.0218751" lon="32.3293043">
<ele>330.54</ele>
<time>2015-04-25T12:43:44Z</time>
</trkpt>
<trkpt lat="35.0219434" lon="32.3292988">
<ele>330.23</ele>
<time>2015-04-25T12:43:45Z</time>
</trkpt>
<trkpt lat="35.0220108" lon="32.3292899">
<ele>330.08</ele>
<time>2015-04-25T12:43:46Z</time>
</trkpt>
<trkpt lat="35.0220907" lon="32.3292895">
<ele>329.00</ele>
<time>2015-04-25T12:43:47Z</time>
</trkpt>
<trkpt lat="35.0221811" lon="32.3292734">
<ele>328.46</ele>
<time>2015-04-25T12:43:48Z</time>
</trkpt>
<trkpt lat="35.0222660" lon="32.3292483">
<ele>327.69</ele>
<time>2015-04-25T12:43:49Z</time>
</trkpt>
<trkpt lat="35.0223562" lon="32.3292144">
<ele>327.31</ele>
<time>2015-04-25T12:43:50Z</time>
</trkpt>
<trkpt lat="35.0224368" lon="32.3291790">
<ele>326.62</ele>
<time>2015-04-25T12:43:51Z</time>
</trkpt>
<trkpt lat="35.0225212" lon="32.3291502">
<ele>325.77</ele>
<time>2015-04-25T12:43:52Z</time>
</trkpt>
<trkpt lat="35.0226024" lon="32.3291111">
<ele>324.85</ele>
<time>2015-04-25T12:43:53Z</time>
</trkpt>
<trkpt lat="35.0226744" lon="32.3290802">
<ele>324.39</ele>
<time>2015-04-25T12:43:54Z</time>
</trkpt>
<trkpt lat="35.0227486" lon="32.3290524">
<ele>324.66</ele>
<time>2015-04-25T12:43:55Z</time>
</trkpt>
<trkpt lat="35.0228212" lon="32.3290326">
<ele>325.29</ele>
<time>2015-04-25T12:43:56Z</time>
</trkpt>
<trkpt lat="35.0228898" lon="32.3290198">
<ele>325.11</ele>
<time>2015-04-25T12:43:57Z</time>
</trkpt>
<trkpt lat="35.0229484" lon="32.3290067">
<ele>325.02</ele>
<time>2015-04-25T12:43:58Z</time>
</trkpt>
<trkpt lat="35.0230013" lon="32.3289866">
<ele>324.97</ele>
<time>2015-04-25T12:43:59Z</time>
</trkpt>
<trkpt lat="35.0230461" lon="32.3289750">
<ele>325.45</ele>
<time>2015-04-25T12:44:00Z</time>
</trkpt>
<trkpt lat="35.0230911" lon="32.3289479">
<ele>326.69</ele>
<time>2015-04-25T12:44:01Z</time>
</trkpt>
<trkpt lat="35.0231390" lon="32.3289307">
<ele>328.31</ele>
<time>2015-04-25T12:44:02Z</time>
</trkpt>
<trkpt lat="35.0231896" lon="32.3288827">
<ele>328.77</ele>
<time>2015-04-25T12:44:04Z</time>
</trkpt>
<trkpt lat="35.0232313" lon="32.3288409">
<ele>330.39</ele>
<time>2015-04-25T12:44:06Z</time>
</trkpt>
<trkpt lat="35.0232760" lon="32.3287922">
<ele>331.73</ele>
<time>2015-04-25T12:44:09Z</time>
</trkpt>
<trkpt lat="35.0232855" lon="32.3287342">
<ele>331.90</ele>
<time>2015-04-25T12:44:12Z</time>
</trkpt>
<trkpt lat="35.0233005" lon="32.3286655">
<ele>334.30</ele>
<time>2015-04-25T12:44:16Z</time>
</trkpt>
<trkpt lat="35.0233446" lon="32.3286292">
<ele>333.57</ele>
<time>2015-04-25T12:44:20Z</time>
</trkpt>
<trkpt lat="35.0233581" lon="32.3285701">
<ele>333.20</ele>
<time>2015-04-25T12:44:25Z</time>
</trkpt>
<trkpt lat="35.0233470" lon="32.3285062">
<ele>333.82</ele>
<time>2015-04-25T12:44:29Z</time>
</trkpt>
<trkpt lat="35.0233449" lon="32.3284429">
<ele>332.67</ele>
<time>2015-04-25T12:44:33Z</time>
</trkpt>
<trkpt lat="35.0233453" lon="32.3283717">
<ele>331.97</ele>
<time>2015-04-25T12:44:37Z</time>
</trkpt>
<trkpt lat="35.0233515" lon="32.3283160">
<ele>332.18</ele>
<time>2015-04-25T12:44:40Z</time>
</trkpt>
<trkpt lat="35.0233677" lon="32.3282578">
<ele>334.50</ele>
<time>2015-04-25T12:44:44Z</time>
</trkpt>
<trkpt lat="35.0234110" lon="32.3282234">
<ele>334.90</ele>
<time>2015-04-25T12:44:48Z</time>
</trkpt>
<trkpt lat="35.0234633" lon="32.3282038">
<ele>335.11</ele>
<time>2015-04-25T12:44:52Z</time>
</trkpt>
<trkpt lat="35.0235100" lon="32.3281763">
<ele>334.44</ele>
<time>2015-04-25T12:44:56Z</time>
</trkpt>
<trkpt lat="35.0235527" lon="32.3281584">
<ele>335.64</ele>
<time>2015-04-25T12:45:00Z</time>
</trkpt>
<trkpt lat="35.0236021" lon="32.3281308">
<ele>335.91</ele>
<time>2015-04-25T12:45:04Z</time>
</trkpt>
<trkpt lat="35.0236564" lon="32.3281011">
<ele>335.99</ele>
<time>2015-04-25T12:45:08Z</time>
</trkpt>
<trkpt lat="35.0236974" lon="32.3280777">
<ele>335.06</ele>
<time>2015-04-25T12:45:11Z</time>
</trkpt>
<trkpt lat="35.0237461" lon="32.3280482">
<ele>336.75</ele>
<time>2015-04-25T12:45:15Z</time>
</trkpt>
<trkpt lat="35.0237809" lon="32.3280013">
<ele>337.85</ele>
<time>2015-04-25T12:45:19Z</time>
</trkpt>
<trkpt lat="35.0238058" lon="32.3279486">
<ele>338.67</ele>
<time>2015-04-25T12:45:23Z</time>
</trkpt>
<trkpt lat="35.0238343" lon="32.3278935">
<ele>338.35</ele>
<time>2015-04-25T12:45:27Z</time>
</trkpt>
<trkpt lat="35.0238718" lon="32.3278326">
<ele>339.33</ele>
<time>2015-04-25T12:45:31Z</time>
</trkpt>
<trkpt lat="35.0238994" lon="32.3277810">
<ele>341.35</ele>
<time>2015-04-25T12:45:34Z</time>
</trkpt>
<trkpt lat="35.0239252" lon="32.3277147">
<ele>342.08</ele>
<time>2015-04-25T12:45:38Z</time>
</trkpt>
<trkpt lat="35.0239614" lon="32.3276582">
<ele>341.75</ele>
<time>2015-04-25T12:45:42Z</time>
</trkpt>
<trkpt lat="35.0239970" lon="32.3275990">
<ele>341.91</ele>
<time>2015-04-25T12:45:46Z</time>
</trkpt>
<trkpt lat="35.0240390" lon="32.3275638">
<ele>342.80</ele>
<time>2015-04-25T12:45:49Z</time>
</trkpt>
<trkpt lat="35.0240943" lon="32.3275370">
<ele>343.91</ele>
<time>2015-04-25T12:45:52Z</time>
</trkpt>
<trkpt lat="35.0241569" lon="32.3275170">
<ele>345.92</ele>
<time>2015-04-25T12:45:55Z</time>
</trkpt>
<trkpt lat="35.0242230" lon="32.3274964">
<ele>346.42</ele>
<time>2015-04-25T12:45:57Z</time>
</trkpt>
<trkpt lat="35.0242833" lon="32.3274782">
<ele>346.80</ele>
<time>2015-04-25T12:45:59Z</time>
</trkpt>
<trkpt lat="35.0243364" lon="32.3274621">
<ele>346.89</ele>
<time>2015-04-25T12:46:01Z</time>
</trkpt>
<trkpt lat="35.0243992" lon="32.3274511">
<ele>346.92</ele>
<time>2015-04-25T12:46:04Z</time>
</trkpt>
<trkpt lat="35.0244486" lon="32.3274465">
<ele>346.42</ele>
<time>2015-04-25T12:46:07Z</time>
</trkpt>
<trkpt lat="35.0245011" lon="32.3274561">
<ele>345.99</ele>
<time>2015-04-25T12:46:10Z</time>
</trkpt>
<trkpt lat="35.0245510" lon="32.3274498">
<ele>346.43</ele>
<time>2015-04-25T12:46:13Z</time>
</trkpt>
<trkpt lat="35.0245949" lon="32.3274208">
<ele>346.86</ele>
<time>2015-04-25T12:46:16Z</time>
</trkpt>
<trkpt lat="35.0246370" lon="32.3273898">
<ele>346.42</ele>
<time>2015-04-25T12:46:19Z</time>
</trkpt>
<trkpt lat="35.0246723" lon="32.3273552">
<ele>347.36</ele>
<time>2015-04-25T12:46:22Z</time>
</trkpt>
<trkpt lat="35.0247162" lon="32.3273139">
<ele>348.51</ele>
<time>2015-04-25T12:46:26Z</time>
</trkpt>
<trkpt lat="35.0247698" lon="32.3272818">
<ele>348.40</ele>
<time>2015-04-25T12:46:30Z</time>
</trkpt>
<trkpt lat="35.0248175" lon="32.3272417">
<ele>347.95</ele>
<time>2015-04-25T12:46:34Z</time>
</trkpt>
<trkpt lat="35.0248456" lon="32.3271976">
<ele>347.05</ele>
<time>2015-04-25T12:46:37Z</time>
</trkpt>
<trkpt lat="35.0248595" lon="32.3271320">
<ele>349.56</ele>
<time>2015-04-25T12:46:41Z</time>
</trkpt>
<trkpt lat="35.0248532" lon="32.3270732">
<ele>349.88</ele>
<time>2015-04-25T12:46:44Z</time>
</trkpt>
<trkpt lat="35.0248367" lon="32.3270015">
<ele>349.92</ele>
<time>2015-04-25T12:46:47Z</time>
</trkpt>
<trkpt lat="35.0248288" lon="32.3269436">
<ele>348.67</ele>
<time>2015-04-25T12:46:49Z</time>
</trkpt>
<trkpt lat="35.0248347" lon="32.3268796">
<ele>347.61</ele>
<time>2015-04-25T12:46:51Z</time>
</trkpt>
<trkpt lat="35.0248676" lon="32.3268224">
<ele>346.60</ele>
<time>2015-04-25T12:46:53Z</time>
</trkpt>
<trkpt lat="35.0249264" lon="32.3268008">
<ele>345.34</ele>
<time>2015-04-25T12:46:55Z</time>
</trkpt>
<trkpt lat="35.0249873" lon="32.3268061">
<ele>344.28</ele>
<time>2015-04-25T12:46:57Z</time>
</trkpt>
<trkpt lat="35.0250458" lon="32.3268337">
<ele>344.26</ele>
<time>2015-04-25T12:46:59Z</time>
</trkpt>
<trkpt lat="35.0250959" lon="32.3268687">
<ele>344.01</ele>
<time>2015-04-25T12:47:01Z</time>
</trkpt>
<trkpt lat="35.0251469" lon="32.3269018">
<ele>344.31</ele>
<time>2015-04-25T12:47:04Z</time>
</trkpt>
<trkpt lat="35.0252002" lon="32.3269295">
<ele>344.47</ele>
<time>2015-04-25T12:47:07Z</time>
</trkpt>
<trkpt lat="35.0252477" lon="32.3269548">
<ele>344.62</ele>
<time>2015-04-25T12:47:10Z</time>
</trkpt>
<trkpt lat="35.0252956" lon="32.3269667">
<ele>344.91</ele>
<time>2015-04-25T12:47:14Z</time>
</trkpt>
<trkpt lat="35.0253492" lon="32.3269804">
<ele>346.36</ele>
<time>2015-04-25T12:49:04Z</time>
</trkpt>
<trkpt lat="35.0254079" lon="32.3269740">
<ele>346.89</ele>
<time>2015-04-25T12:49:08Z</time>
</trkpt>
<trkpt lat="35.0254593" lon="32.3269223">
<ele>346.92</ele>
<time>2015-04-25T12:49:11Z</time>
</trkpt>
<trkpt lat="35.0254852" lon="32.3268468">
<ele>348.05</ele>
<time>2015-04-25T12:49:14Z</time>
</trkpt>
<trkpt lat="35.0255088" lon="32.3267744">
<ele>347.94</ele>
<time>2015-04-25T12:49:17Z</time>
</trkpt>
<trkpt lat="35.0255424" lon="32.3267046">
<ele>347.43</ele>
<time>2015-04-25T12:49:20Z</time>
</trkpt>
<trkpt lat="35.0255741" lon="32.3266640">
<ele>346.55</ele>
<time>2015-04-25T12:49:22Z</time>
</trkpt>
<trkpt lat="35.0256128" lon="32.3266359">
<ele>346.08</ele>
<time>2015-04-25T12:49:24Z</time>
</trkpt>
<trkpt lat="35.0256745" lon="32.3266177">
<ele>345.07</ele>
<time>2015-04-25T12:49:27Z</time>
</trkpt>
<trkpt lat="35.0257368" lon="32.3266199">
<ele>344.94</ele>
<time>2015-04-25T12:49:30Z</time>
</trkpt>
<trkpt lat="35.0258027" lon="32.3266421">
<ele>345.43</ele>
<time>2015-04-25T12:49:33Z</time>
</trkpt>
<trkpt lat="35.0258436" lon="32.3266709">
<ele>345.05</ele>
<time>2015-04-25T12:49:35Z</time>
</trkpt>
<trkpt lat="35.0258815" lon="32.3267040">
<ele>345.71</ele>
<time>2015-04-25T12:49:37Z</time>
</trkpt>
<trkpt lat="35.0259209" lon="32.3267365">
<ele>345.87</ele>
<time>2015-04-25T12:49:39Z</time>
</trkpt>
<trkpt lat="35.0259588" lon="32.3267734">
<ele>345.91</ele>
<time>2015-04-25T12:49:41Z</time>
</trkpt>
<trkpt lat="35.0260159" lon="32.3268142">
<ele>347.17</ele>
<time>2015-04-25T12:49:44Z</time>
</trkpt>
<trkpt lat="35.0260778" lon="32.3268250">
<ele>347.83</ele>
<time>2015-04-25T12:49:47Z</time>
</trkpt>
<trkpt lat="35.0261414" lon="32.3268098">
<ele>347.16</ele>
<time>2015-04-25T12:49:50Z</time>
</trkpt>
<trkpt lat="35.0261851" lon="32.3267931">
<ele>347.73</ele>
<time>2015-04-25T12:49:52Z</time>
</trkpt>
<trkpt lat="35.0262299" lon="32.3267783">
<ele>348.38</ele>
<time>2015-04-25T12:49:54Z</time>
</trkpt>
<trkpt lat="35.0262744" lon="32.3267602">
<ele>348.79</ele>
<time>2015-04-25T12:49:56Z</time>
</trkpt>
<trkpt lat="35.0263178" lon="32.3267420">
<ele>349.64</ele>
<time>2015-04-25T12:49:58Z</time>
</trkpt>
<trkpt lat="35.0263687" lon="32.3267244">
<ele>349.53</ele>
<time>2015-04-25T12:50:02Z</time>
</trkpt>
<trkpt lat="35.0264126" lon="32.3266934">
<ele>350.65</ele>
<time>2015-04-25T12:50:06Z</time>
</trkpt>
<trkpt lat="35.0264528" lon="32.3266454">
<ele>350.85</ele>
<time>2015-04-25T12:50:10Z</time>
</trkpt>
<trkpt lat="35.0264820" lon="32.3266020">
<ele>350.92</ele>
<time>2015-04-25T12:50:13Z</time>
</trkpt>
<trkpt lat="35.0265172" lon="32.3265422">
<ele>351.80</ele>
<time>2015-04-25T12:50:16Z</time>
</trkpt>
<trkpt lat="35.0265418" lon="32.3264730">
<ele>351.91</ele>
<time>2015-04-25T12:50:19Z</time>
</trkpt>
<trkpt lat="35.0265638" lon="32.3264095">
<ele>351.92</ele>
<time>2015-04-25T12:50:21Z</time>
</trkpt>
<trkpt lat="35.0265860" lon="32.3263401">
<ele>351.92</ele>
<time>2015-04-25T12:50:23Z</time>
</trkpt>
<trkpt lat="35.0266057" lon="32.3262715">
<ele>352.42</ele>
<time>2015-04-25T12:50:25Z</time>
</trkpt>
<trkpt lat="35.0266227" lon="32.3261968">
<ele>352.05</ele>
<time>2015-04-25T12:50:27Z</time>
</trkpt>
<trkpt lat="35.0266457" lon="32.3261096">
<ele>351.96</ele>
<time>2015-04-25T12:50:29Z</time>
</trkpt>
<trkpt lat="35.0266754" lon="32.3260342">
<ele>351.93</ele>
<time>2015-04-25T12:50:31Z</time>
</trkpt>
<trkpt lat="35.0267092" lon="32.3259845">
<ele>351.18</ele>
<time>2015-04-25T12:50:33Z</time>
</trkpt>
<trkpt lat="35.0267542" lon="32.3259528">
<ele>350.96</ele>
<time>2015-04-25T12:50:36Z</time>
</trkpt>
<trkpt lat="35.0268070" lon="32.3259560">
<ele>350.93</ele>
<time>2015-04-25T12:50:40Z</time>
</trkpt>
<trkpt lat="35.0268654" lon="32.3259628">
<ele>350.93</ele>
<time>2015-04-25T12:50:44Z</time>
</trkpt>
<trkpt lat="35.0269222" lon="32.3259662">
<ele>351.80</ele>
<time>2015-04-25T12:50:47Z</time>
</trkpt>
<trkpt lat="35.0269845" lon="32.3259720">
<ele>351.91</ele>
<time>2015-04-25T12:50:50Z</time>
</trkpt>
<trkpt lat="35.0270448" lon="32.3259742">
<ele>352.42</ele>
<time>2015-04-25T12:50:53Z</time>
</trkpt>
<trkpt lat="35.0271000" lon="32.3259864">
<ele>352.86</ele>
<time>2015-04-25T12:50:56Z</time>
</trkpt>
<trkpt lat="35.0271569" lon="32.3260060">
<ele>352.92</ele>
<time>2015-04-25T12:50:59Z</time>
</trkpt>
<trkpt lat="35.0272146" lon="32.3260346">
<ele>352.92</ele>
<time>2015-04-25T12:51:02Z</time>
</trkpt>
<trkpt lat="35.0272681" lon="32.3260791">
<ele>353.17</ele>
<time>2015-04-25T12:51:05Z</time>
</trkpt>
<trkpt lat="35.0273060" lon="32.3261192">
<ele>352.49</ele>
<time>2015-04-25T12:51:07Z</time>
</trkpt>
<trkpt lat="35.0273402" lon="32.3261608">
<ele>352.07</ele>
<time>2015-04-25T12:51:09Z</time>
</trkpt>
<trkpt lat="35.0273847" lon="32.3262174">
<ele>351.94</ele>
<time>2015-04-25T12:51:12Z</time>
</trkpt>
<trkpt lat="35.0274320" lon="32.3262647">
<ele>351.93</ele>
<time>2015-04-25T12:51:15Z</time>
</trkpt>
<trkpt lat="35.0274708" lon="32.3263141">
<ele>351.93</ele>
<time>2015-04-25T12:51:18Z</time>
</trkpt>
<trkpt lat="35.0275191" lon="32.3263504">
<ele>351.55</ele>
<time>2015-04-25T12:51:21Z</time>
</trkpt>
<trkpt lat="35.0275766" lon="32.3263634">
<ele>352.75</ele>
<time>2015-04-25T12:51:24Z</time>
</trkpt>
<trkpt lat="35.0276420" lon="32.3263514">
<ele>353.65</ele>
<time>2015-04-25T12:51:27Z</time>
</trkpt>
<trkpt lat="35.0276919" lon="32.3263396">
<ele>353.86</ele>
<time>2015-04-25T12:51:29Z</time>
</trkpt>
<trkpt lat="35.0277496" lon="32.3263253">
<ele>353.41</ele>
<time>2015-04-25T12:51:31Z</time>
</trkpt>
<trkpt lat="35.0278095" lon="32.3263084">
<ele>353.30</ele>
<time>2015-04-25T12:51:33Z</time>
</trkpt>
<trkpt lat="35.0278673" lon="32.3262931">
<ele>353.77</ele>
<time>2015-04-25T12:51:35Z</time>
</trkpt>
<trkpt lat="35.0279243" lon="32.3262856">
<ele>354.64</ele>
<time>2015-04-25T12:51:37Z</time>
</trkpt>
<trkpt lat="35.0279812" lon="32.3262830">
<ele>355.35</ele>
<time>2015-04-25T12:51:39Z</time>
</trkpt>
<trkpt lat="35.0280363" lon="32.3262866">
<ele>356.53</ele>
<time>2015-04-25T12:51:41Z</time>
</trkpt>
<trkpt lat="35.0280873" lon="32.3262990">
<ele>356.83</ele>
<time>2015-04-25T12:51:43Z</time>
</trkpt>
<trkpt lat="35.0281348" lon="32.3263168">
<ele>357.15</ele>
<time>2015-04-25T12:51:45Z</time>
</trkpt>
<trkpt lat="35.0281849" lon="32.3263381">
<ele>357.23</ele>
<time>2015-04-25T12:51:47Z</time>
</trkpt>
<trkpt lat="35.0282408" lon="32.3263614">
<ele>357.00</ele>
<time>2015-04-25T12:51:49Z</time>
</trkpt>
<trkpt lat="35.0283036" lon="32.3263861">
<ele>356.94</ele>
<time>2015-04-25T12:51:51Z</time>
</trkpt>
<trkpt lat="35.0283670" lon="32.3263999">
<ele>356.93</ele>
<time>2015-04-25T12:51:53Z</time>
</trkpt>
<trkpt lat="35.0284308" lon="32.3264015">
<ele>357.68</ele>
<time>2015-04-25T12:51:55Z</time>
</trkpt>
<trkpt lat="35.0284877" lon="32.3263931">
<ele>357.86</ele>
<time>2015-04-25T12:51:57Z</time>
</trkpt>
<trkpt lat="35.0285352" lon="32.3263831">
<ele>357.91</ele>
<time>2015-04-25T12:51:59Z</time>
</trkpt>
<trkpt lat="35.0285817" lon="32.3263845">
<ele>358.67</ele>
<time>2015-04-25T12:52:01Z</time>
</trkpt>
<trkpt lat="35.0286420" lon="32.3264044">
<ele>358.02</ele>
<time>2015-04-25T12:52:04Z</time>
</trkpt>
<trkpt lat="35.0286942" lon="32.3264248">
<ele>357.94</ele>
<time>2015-04-25T12:52:07Z</time>
</trkpt>
<trkpt lat="35.0287466" lon="32.3264624">
<ele>358.68</ele>
<time>2015-04-25T12:52:10Z</time>
</trkpt>
<trkpt lat="35.0287826" lon="32.3265054">
<ele>358.36</ele>
<time>2015-04-25T12:52:12Z</time>
</trkpt>
<trkpt lat="35.0288113" lon="32.3265540">
<ele>358.03</ele>
<time>2015-04-25T12:52:14Z</time>
</trkpt>
<trkpt lat="35.0288322" lon="32.3266092">
<ele>357.45</ele>
<time>2015-04-25T12:52:16Z</time>
</trkpt>
<trkpt lat="35.0288607" lon="32.3266576">
<ele>357.06</ele>
<time>2015-04-25T12:52:18Z</time>
</trkpt>
<trkpt lat="35.0288993" lon="32.3266980">
<ele>356.96</ele>
<time>2015-04-25T12:52:20Z</time>
</trkpt>
<trkpt lat="35.0289438" lon="32.3267335">
<ele>356.93</ele>
<time>2015-04-25T12:52:22Z</time>
</trkpt>
<trkpt lat="35.0289926" lon="32.3267652">
<ele>356.93</ele>
<time>2015-04-25T12:52:24Z</time>
</trkpt>
<trkpt lat="35.0290424" lon="32.3267933">
<ele>357.68</ele>
<time>2015-04-25T12:52:26Z</time>
</trkpt>
<trkpt lat="35.0290900" lon="32.3268194">
<ele>357.86</ele>
<time>2015-04-25T12:52:28Z</time>
</trkpt>
<trkpt lat="35.0291382" lon="32.3268456">
<ele>357.91</ele>
<time>2015-04-25T12:52:30Z</time>
</trkpt>
<trkpt lat="35.0291860" lon="32.3268736">
<ele>358.67</ele>
<time>2015-04-25T12:52:32Z</time>
</trkpt>
<trkpt lat="35.0292314" lon="32.3269016">
<ele>359.36</ele>
<time>2015-04-25T12:52:34Z</time>
</trkpt>
<trkpt lat="35.0292747" lon="32.3269293">
<ele>359.78</ele>
<time>2015-04-25T12:52:36Z</time>
</trkpt>
<trkpt lat="35.0293233" lon="32.3269554">
<ele>359.89</ele>
<time>2015-04-25T12:52:38Z</time>
</trkpt>
<trkpt lat="35.0293787" lon="32.3269829">
<ele>359.92</ele>
<time>2015-04-25T12:52:40Z</time>
</trkpt>
<trkpt lat="35.0294283" lon="32.3270125">
<ele>359.92</ele>
<time>2015-04-25T12:52:42Z</time>
</trkpt>
<trkpt lat="35.0294876" lon="32.3270424">
<ele>359.92</ele>
<time>2015-04-25T12:52:45Z</time>
</trkpt>
<trkpt lat="35.0295462" lon="32.3270745">
<ele>360.67</ele>
<time>2015-04-25T12:52:48Z</time>
</trkpt>
<trkpt lat="35.0296055" lon="32.3271038">
<ele>360.02</ele>
<time>2015-04-25T12:52:51Z</time>
</trkpt>
<trkpt lat="35.0296492" lon="32.3271258">
<ele>360.70</ele>
<time>2015-04-25T12:52:53Z</time>
</trkpt>
<trkpt lat="35.0296988" lon="32.3271576">
<ele>360.90</ele>
<time>2015-04-25T12:52:56Z</time>
</trkpt>
<trkpt lat="35.0297382" lon="32.3271856">
<ele>360.92</ele>
<time>2015-04-25T12:52:59Z</time>
</trkpt>
<trkpt lat="35.0297802" lon="32.3272238">
<ele>360.42</ele>
<time>2015-04-25T12:53:02Z</time>
</trkpt>
<trkpt lat="35.0298279" lon="32.3272594">
<ele>360.61</ele>
<time>2015-04-25T12:53:05Z</time>
</trkpt>
<trkpt lat="35.0298787" lon="32.3273032">
<ele>360.64</ele>
<time>2015-04-25T12:53:08Z</time>
</trkpt>
<trkpt lat="35.0299295" lon="32.3273488">
<ele>361.64</ele>
<time>2015-04-25T12:53:11Z</time>
</trkpt>
<trkpt lat="35.0299695" lon="32.3273750">
<ele>362.60</ele>
<time>2015-04-25T12:53:13Z</time>
</trkpt>
<trkpt lat="35.0300148" lon="32.3274094">
<ele>362.84</ele>
<time>2015-04-25T12:53:15Z</time>
</trkpt>
<trkpt lat="35.0300623" lon="32.3274443">
<ele>363.40</ele>
<time>2015-04-25T12:53:17Z</time>
</trkpt>
<trkpt lat="35.0301042" lon="32.3274720">
<ele>363.79</ele>
<time>2015-04-25T12:53:19Z</time>
</trkpt>
<trkpt lat="35.0301624" lon="32.3275124">
<ele>364.28</ele>
<time>2015-04-25T12:53:22Z</time>
</trkpt>
<trkpt lat="35.0302249" lon="32.3275454">
<ele>363.97</ele>
<time>2015-04-25T12:53:25Z</time>
</trkpt>
<trkpt lat="35.0302832" lon="32.3275760">
<ele>363.93</ele>
<time>2015-04-25T12:53:28Z</time>
</trkpt>
<trkpt lat="35.0303388" lon="32.3276103">
<ele>364.80</ele>
<time>2015-04-25T12:53:31Z</time>
</trkpt>
<trkpt lat="35.0303914" lon="32.3276526">
<ele>364.91</ele>
<time>2015-04-25T12:53:34Z</time>
</trkpt>
<trkpt lat="35.0304486" lon="32.3276861">
<ele>364.92</ele>
<time>2015-04-25T12:53:37Z</time>
</trkpt>
<trkpt lat="35.0304928" lon="32.3277063">
<ele>366.05</ele>
<time>2015-04-25T12:53:40Z</time>
</trkpt>
<trkpt lat="35.0305417" lon="32.3277268">
<ele>368.37</ele>
<time>2015-04-25T12:53:44Z</time>
</trkpt>
<trkpt lat="35.0305912" lon="32.3277332">
<ele>370.14</ele>
<time>2015-04-25T12:53:48Z</time>
</trkpt>
<trkpt lat="35.0306434" lon="32.3277430">
<ele>370.13</ele>
<time>2015-04-25T12:53:52Z</time>
</trkpt>
<trkpt lat="35.0306945" lon="32.3277352">
<ele>370.20</ele>
<time>2015-04-25T12:53:55Z</time>
</trkpt>
<trkpt lat="35.0307382" lon="32.3277186">
<ele>369.99</ele>
<time>2015-04-25T12:53:57Z</time>
</trkpt>
<trkpt lat="35.0307968" lon="32.3276903">
<ele>370.43</ele>
<time>2015-04-25T12:54:00Z</time>
</trkpt>
<trkpt lat="35.0308469" lon="32.3276465">
<ele>369.24</ele>
<time>2015-04-25T12:54:03Z</time>
</trkpt>
<trkpt lat="35.0309011" lon="32.3276042">
<ele>369.84</ele>
<time>2015-04-25T12:54:06Z</time>
</trkpt>
<trkpt lat="35.0309381" lon="32.3275724">
<ele>369.90</ele>
<time>2015-04-25T12:54:08Z</time>
</trkpt>
<trkpt lat="35.0309934" lon="32.3275314">
<ele>369.05</ele>
<time>2015-04-25T12:54:11Z</time>
</trkpt>
<trkpt lat="35.0310492" lon="32.3274944">
<ele>369.57</ele>
<time>2015-04-25T12:54:14Z</time>
</trkpt>
<trkpt lat="35.0311042" lon="32.3274683">
<ele>369.38</ele>
<time>2015-04-25T12:54:17Z</time>
</trkpt>
<trkpt lat="35.0311725" lon="32.3274414">
<ele>368.98</ele>
<time>2015-04-25T12:54:20Z</time>
</trkpt>
<trkpt lat="35.0312356" lon="32.3274154">
<ele>368.94</ele>
<time>2015-04-25T12:54:22Z</time>
</trkpt>
<trkpt lat="35.0313022" lon="32.3273860">
<ele>368.93</ele>
<time>2015-04-25T12:54:24Z</time>
</trkpt>
<trkpt lat="35.0313650" lon="32.3273613">
<ele>368.68</ele>
<time>2015-04-25T12:54:26Z</time>
</trkpt>
<trkpt lat="35.0314285" lon="32.3273458">
<ele>368.86</ele>
<time>2015-04-25T12:54:28Z</time>
</trkpt>
<trkpt lat="35.0314942" lon="32.3273316">
<ele>368.91</ele>
<time>2015-04-25T12:54:30Z</time>
</trkpt>
<trkpt lat="35.0315616" lon="32.3273235">
<ele>368.92</ele>
<time>2015-04-25T12:54:32Z</time>
</trkpt>
<trkpt lat="35.0316256" lon="32.3273209">
<ele>368.42</ele>
<time>2015-04-25T12:54:34Z</time>
</trkpt>
<trkpt lat="35.0316898" lon="32.3273160">
<ele>368.30</ele>
<time>2015-04-25T12:54:36Z</time>
</trkpt>
<trkpt lat="35.0317762" lon="32.3273128">
<ele>367.52</ele>
<time>2015-04-25T12:54:38Z</time>
</trkpt>
<trkpt lat="35.0318379" lon="32.3273272">
<ele>367.22</ele>
<time>2015-04-25T12:54:39Z</time>
</trkpt>
<trkpt lat="35.0318808" lon="32.3273534">
<ele>367.07</ele>
<time>2015-04-25T12:54:40Z</time>
</trkpt>
<trkpt lat="35.0319677" lon="32.3273929">
<ele>366.96</ele>
<time>2015-04-25T12:54:42Z</time>
</trkpt>
<trkpt lat="35.0320131" lon="32.3273918">
<ele>367.44</ele>
<time>2015-04-25T12:54:43Z</time>
</trkpt>
<trkpt lat="35.0320636" lon="32.3273851">
<ele>367.18</ele>
<time>2015-04-25T12:54:44Z</time>
</trkpt>
<trkpt lat="35.0321154" lon="32.3273822">
<ele>367.05</ele>
<time>2015-04-25T12:54:45Z</time>
</trkpt>
<trkpt lat="35.0322000" lon="32.3273847">
<ele>367.71</ele>
<time>2015-04-25T12:54:47Z</time>
</trkpt>
<trkpt lat="35.0322648" lon="32.3273710">
<ele>368.37</ele>
<time>2015-04-25T12:54:49Z</time>
</trkpt>
<trkpt lat="35.0323154" lon="32.3273489">
<ele>369.54</ele>
<time>2015-04-25T12:54:51Z</time>
</trkpt>
<trkpt lat="35.0323603" lon="32.3273290">
<ele>370.58</ele>
<time>2015-04-25T12:54:53Z</time>
</trkpt>
<trkpt lat="35.0324234" lon="32.3273101">
<ele>370.63</ele>
<time>2015-04-25T12:54:56Z</time>
</trkpt>
<trkpt lat="35.0324857" lon="32.3272818">
<ele>370.89</ele>
<time>2015-04-25T12:54:59Z</time>
</trkpt>
<trkpt lat="35.0325443" lon="32.3272649">
<ele>370.92</ele>
<time>2015-04-25T12:55:01Z</time>
</trkpt>
<trkpt lat="35.0326075" lon="32.3272573">
<ele>371.42</ele>
<time>2015-04-25T12:55:03Z</time>
</trkpt>
<trkpt lat="35.0326649" lon="32.3272494">
<ele>371.30</ele>
<time>2015-04-25T12:55:05Z</time>
</trkpt>
<trkpt lat="35.0327195" lon="32.3272348">
<ele>371.77</ele>
<time>2015-04-25T12:55:07Z</time>
</trkpt>
<trkpt lat="35.0327825" lon="32.3272162">
<ele>371.89</ele>
<time>2015-04-25T12:55:09Z</time>
</trkpt>
<trkpt lat="35.0328431" lon="32.3272007">
<ele>372.42</ele>
<time>2015-04-25T12:55:11Z</time>
</trkpt>
<trkpt lat="35.0329045" lon="32.3271876">
<ele>372.30</ele>
<time>2015-04-25T12:55:13Z</time>
</trkpt>
<trkpt lat="35.0329659" lon="32.3271752">
<ele>372.02</ele>
<time>2015-04-25T12:55:15Z</time>
</trkpt>
<trkpt lat="35.0330422" lon="32.3271512">
<ele>371.95</ele>
<time>2015-04-25T12:55:17Z</time>
</trkpt>
<trkpt lat="35.0331122" lon="32.3271300">
<ele>372.68</ele>
<time>2015-04-25T12:55:19Z</time>
</trkpt>
<trkpt lat="35.0331780" lon="32.3271077">
<ele>373.61</ele>
<time>2015-04-25T12:55:21Z</time>
</trkpt>
<trkpt lat="35.0332532" lon="32.3270928">
<ele>372.60</ele>
<time>2015-04-25T12:55:23Z</time>
</trkpt>
<trkpt lat="35.0333296" lon="32.3270814">
<ele>372.09</ele>
<time>2015-04-25T12:55:25Z</time>
</trkpt>
<trkpt lat="35.0333997" lon="32.3270772">
<ele>372.47</ele>
<time>2015-04-25T12:55:27Z</time>
</trkpt>
<trkpt lat="35.0334696" lon="32.3270761">
<ele>372.81</ele>
<time>2015-04-25T12:55:29Z</time>
</trkpt>
<trkpt lat="35.0335390" lon="32.3270725">
<ele>373.65</ele>
<time>2015-04-25T12:55:31Z</time>
</trkpt>
<trkpt lat="35.0336126" lon="32.3270606">
<ele>373.86</ele>
<time>2015-04-25T12:55:33Z</time>
</trkpt>
<trkpt lat="35.0336879" lon="32.3270463">
<ele>374.91</ele>
<time>2015-04-25T12:55:35Z</time>
</trkpt>
<trkpt lat="35.0337594" lon="32.3270332">
<ele>376.42</ele>
<time>2015-04-25T12:55:37Z</time>
</trkpt>
<trkpt lat="35.0338271" lon="32.3270191">
<ele>376.80</ele>
<time>2015-04-25T12:55:39Z</time>
</trkpt>
<trkpt lat="35.0338985" lon="32.3269831">
<ele>378.14</ele>
<time>2015-04-25T12:55:41Z</time>
</trkpt>
<trkpt lat="35.0339625" lon="32.3269421">
<ele>378.98</ele>
<time>2015-04-25T12:55:43Z</time>
</trkpt>
<trkpt lat="35.0340244" lon="32.3269072">
<ele>379.94</ele>
<time>2015-04-25T12:55:45Z</time>
</trkpt>
<trkpt lat="35.0340776" lon="32.3268804">
<ele>380.93</ele>
<time>2015-04-25T12:55:47Z</time>
</trkpt>
<trkpt lat="35.0341245" lon="32.3268558">
<ele>383.68</ele>
<time>2015-04-25T12:55:49Z</time>
</trkpt>
<trkpt lat="35.0341721" lon="32.3268380">
<ele>386.39</ele>
<time>2015-04-25T12:55:52Z</time>
</trkpt>
<trkpt lat="35.0342231" lon="32.3268414">
<ele>376.95</ele>
<time>2015-04-25T12:56:13Z</time>
</trkpt>
<trkpt lat="35.0342716" lon="32.3268325">
<ele>377.18</ele>
<time>2015-04-25T12:56:15Z</time>
</trkpt>
<trkpt lat="35.0343205" lon="32.3268264">
<ele>376.99</ele>
<time>2015-04-25T12:56:17Z</time>
</trkpt>
<trkpt lat="35.0343692" lon="32.3268285">
<ele>377.69</ele>
<time>2015-04-25T12:56:19Z</time>
</trkpt>
<trkpt lat="35.0344206" lon="32.3268357">
<ele>377.65</ele>
<time>2015-04-25T12:56:22Z</time>
</trkpt>
<trkpt lat="35.0344745" lon="32.3268380">
<ele>376.53</ele>
<time>2015-04-25T12:56:26Z</time>
</trkpt>
<trkpt lat="35.0345227" lon="32.3268462">
<ele>375.88</ele>
<time>2015-04-25T12:56:29Z</time>
</trkpt>
<trkpt lat="35.0345797" lon="32.3268671">
<ele>376.17</ele>
<time>2015-04-25T12:56:32Z</time>
</trkpt>
<trkpt lat="35.0346277" lon="32.3268772">
<ele>375.71</ele>
<time>2015-04-25T12:56:35Z</time>
</trkpt>
<trkpt lat="35.0346748" lon="32.3268866">
<ele>375.90</ele>
<time>2015-04-25T12:56:38Z</time>
</trkpt>
<trkpt lat="35.0347241" lon="32.3268825">
<ele>376.17</ele>
<time>2015-04-25T12:56:41Z</time>
</trkpt>
<trkpt lat="35.0347802" lon="32.3268798">
<ele>375.08</ele>
<time>2015-04-25T12:56:44Z</time>
</trkpt>
<trkpt lat="35.0348473" lon="32.3268829">
<ele>375.69</ele>
<time>2015-04-25T12:56:47Z</time>
</trkpt>
<trkpt lat="35.0349040" lon="32.3268963">
<ele>376.27</ele>
<time>2015-04-25T12:56:50Z</time>
</trkpt>
<trkpt lat="35.0349680" lon="32.3269053">
<ele>376.84</ele>
<time>2015-04-25T12:56:53Z</time>
</trkpt>
<trkpt lat="35.0350168" lon="32.3269082">
<ele>376.90</ele>
<time>2015-04-25T12:56:55Z</time>
</trkpt>
<trkpt lat="35.0350795" lon="32.3269085">
<ele>377.42</ele>
<time>2015-04-25T12:56:57Z</time>
</trkpt>
<trkpt lat="35.0351478" lon="32.3268982">
<ele>377.80</ele>
<time>2015-04-25T12:56:59Z</time>
</trkpt>
<trkpt lat="35.0352134" lon="32.3268796">
<ele>378.39</ele>
<time>2015-04-25T12:57:01Z</time>
</trkpt>
<trkpt lat="35.0352801" lon="32.3268616">
<ele>378.29</ele>
<time>2015-04-25T12:57:03Z</time>
</trkpt>
<trkpt lat="35.0353550" lon="32.3268260">
<ele>377.52</ele>
<time>2015-04-25T12:57:05Z</time>
</trkpt>
<trkpt lat="35.0354140" lon="32.3267708">
<ele>376.57</ele>
<time>2015-04-25T12:57:07Z</time>
</trkpt>
<trkpt lat="35.0354528" lon="32.3267164">
<ele>376.09</ele>
<time>2015-04-25T12:57:09Z</time>
</trkpt>
<trkpt lat="35.0354906" lon="32.3266704">
<ele>375.97</ele>
<time>2015-04-25T12:57:11Z</time>
</trkpt>
<trkpt lat="35.0355274" lon="32.3266338">
<ele>375.94</ele>
<time>2015-04-25T12:57:13Z</time>
</trkpt>
<trkpt lat="35.0355721" lon="32.3266056">
<ele>376.80</ele>
<time>2015-04-25T12:57:16Z</time>
</trkpt>
<trkpt lat="35.0356253" lon="32.3265805">
<ele>377.66</ele>
<time>2015-04-25T12:57:19Z</time>
</trkpt>
<trkpt lat="35.0356818" lon="32.3265511">
<ele>378.27</ele>
<time>2015-04-25T12:57:22Z</time>
</trkpt>
<trkpt lat="35.0357258" lon="32.3265229">
<ele>379.26</ele>
<time>2015-04-25T12:57:24Z</time>
</trkpt>
<trkpt lat="35.0357759" lon="32.3264897">
<ele>379.51</ele>
<time>2015-04-25T12:57:26Z</time>
</trkpt>
<trkpt lat="35.0358241" lon="32.3264530">
<ele>379.82</ele>
<time>2015-04-25T12:57:28Z</time>
</trkpt>
<trkpt lat="35.0358691" lon="32.3264184">
<ele>379.90</ele>
<time>2015-04-25T12:57:30Z</time>
</trkpt>
<trkpt lat="35.0359095" lon="32.3263868">
<ele>379.92</ele>
<time>2015-04-25T12:57:32Z</time>
</trkpt>
<trkpt lat="35.0359485" lon="32.3263565">
<ele>379.67</ele>
<time>2015-04-25T12:57:34Z</time>
</trkpt>
<trkpt lat="35.0359870" lon="32.3263194">
<ele>379.36</ele>
<time>2015-04-25T12:57:36Z</time>
</trkpt>
<trkpt lat="35.0360244" lon="32.3262754">
<ele>379.78</ele>
<time>2015-04-25T12:57:38Z</time>
</trkpt>
<trkpt lat="35.0360643" lon="32.3262373">
<ele>379.64</ele>
<time>2015-04-25T12:57:40Z</time>
</trkpt>
<trkpt lat="35.0361057" lon="32.3262066">
<ele>379.85</ele>
<time>2015-04-25T12:57:42Z</time>
</trkpt>
<trkpt lat="35.0361458" lon="32.3261710">
<ele>379.79</ele>
<time>2015-04-25T12:57:45Z</time>
</trkpt>
<trkpt lat="35.0361899" lon="32.3261376">
<ele>379.91</ele>
<time>2015-04-25T12:57:48Z</time>
</trkpt>
<trkpt lat="35.0362351" lon="32.3261089">
<ele>381.30</ele>
<time>2015-04-25T12:57:51Z</time>
</trkpt>
<trkpt lat="35.0362868" lon="32.3260907">
<ele>381.35</ele>
<time>2015-04-25T12:57:54Z</time>
</trkpt>
<trkpt lat="35.0363583" lon="32.3260734">
<ele>380.28</ele>
<time>2015-04-25T12:57:56Z</time>
</trkpt>
<trkpt lat="35.0364067" lon="32.3260607">
<ele>379.60</ele>
<time>2015-04-25T12:57:57Z</time>
</trkpt>
<trkpt lat="35.0364883" lon="32.3260211">
<ele>377.84</ele>
<time>2015-04-25T12:57:59Z</time>
</trkpt>
<trkpt lat="35.0365501" lon="32.3259576">
<ele>376.65</ele>
<time>2015-04-25T12:58:01Z</time>
</trkpt>
<trkpt lat="35.0365769" lon="32.3259126">
<ele>376.29</ele>
<time>2015-04-25T12:58:02Z</time>
</trkpt>
<trkpt lat="35.0366244" lon="32.3257879">
<ele>375.52</ele>
<time>2015-04-25T12:58:04Z</time>
</trkpt>
<trkpt lat="35.0366630" lon="32.3257270">
<ele>375.22</ele>
<time>2015-04-25T12:58:05Z</time>
</trkpt>
<trkpt lat="35.0367012" lon="32.3256806">
<ele>374.57</ele>
<time>2015-04-25T12:58:06Z</time>
</trkpt>
<trkpt lat="35.0367495" lon="32.3256374">
<ele>374.25</ele>
<time>2015-04-25T12:58:07Z</time>
</trkpt>
<trkpt lat="35.0367956" lon="32.3255996">
<ele>374.09</ele>
<time>2015-04-25T12:58:08Z</time>
</trkpt>
<trkpt lat="35.0368354" lon="32.3255617">
<ele>374.01</ele>
<time>2015-04-25T12:58:09Z</time>
</trkpt>
<trkpt lat="35.0368782" lon="32.3255118">
<ele>373.47</ele>
<time>2015-04-25T12:58:10Z</time>
</trkpt>
<trkpt lat="35.0369050" lon="32.3254615">
<ele>373.20</ele>
<time>2015-04-25T12:58:11Z</time>
</trkpt>
<trkpt lat="35.0369330" lon="32.3254001">
<ele>373.06</ele>
<time>2015-04-25T12:58:12Z</time>
</trkpt>
<trkpt lat="35.0369560" lon="32.3253315">
<ele>372.49</ele>
<time>2015-04-25T12:58:13Z</time>
</trkpt>
<trkpt lat="35.0369720" lon="32.3252607">
<ele>372.71</ele>
<time>2015-04-25T12:58:14Z</time>
</trkpt>
<trkpt lat="35.0369764" lon="32.3251892">
<ele>372.32</ele>
<time>2015-04-25T12:58:15Z</time>
</trkpt>
<trkpt lat="35.0369742" lon="32.3251156">
<ele>372.62</ele>
<time>2015-04-25T12:58:16Z</time>
</trkpt>
<trkpt lat="35.0369615" lon="32.3250401">
<ele>372.27</ele>
<time>2015-04-25T12:58:17Z</time>
</trkpt>
<trkpt lat="35.0369546" lon="32.3249533">
<ele>372.10</ele>
<time>2015-04-25T12:58:18Z</time>
</trkpt>
<trkpt lat="35.0369634" lon="32.3248674">
<ele>372.01</ele>
<time>2015-04-25T12:58:19Z</time>
</trkpt>
<trkpt lat="35.0369715" lon="32.3247791">
<ele>371.47</ele>
<time>2015-04-25T12:58:20Z</time>
</trkpt>
<trkpt lat="35.0369862" lon="32.3246854">
<ele>371.20</ele>
<time>2015-04-25T12:58:21Z</time>
</trkpt>
<trkpt lat="35.0370040" lon="32.3245962">
<ele>371.06</ele>
<time>2015-04-25T12:58:22Z</time>
</trkpt>
<trkpt lat="35.0370235" lon="32.3245024">
<ele>370.99</ele>
<time>2015-04-25T12:58:23Z</time>
</trkpt>
<trkpt lat="35.0370308" lon="32.3244144">
<ele>370.96</ele>
<time>2015-04-25T12:58:24Z</time>
</trkpt>
<trkpt lat="35.0370638" lon="32.3243444">
<ele>370.94</ele>
<time>2015-04-25T12:58:25Z</time>
</trkpt>
<trkpt lat="35.0370954" lon="32.3242796">
<ele>371.93</ele>
<time>2015-04-25T12:58:26Z</time>
</trkpt>
<trkpt lat="35.0371379" lon="32.3242382">
<ele>372.93</ele>
<time>2015-04-25T12:58:27Z</time>
</trkpt>
<trkpt lat="35.0372129" lon="32.3241906">
<ele>374.18</ele>
<time>2015-04-25T12:58:29Z</time>
</trkpt>
<trkpt lat="35.0372496" lon="32.3241582">
<ele>375.99</ele>
<time>2015-04-25T12:58:31Z</time>
</trkpt>
<trkpt lat="35.0372922" lon="32.3241289">
<ele>375.94</ele>
<time>2015-04-25T12:58:33Z</time>
</trkpt>
<trkpt lat="35.0373339" lon="32.3241022">
<ele>377.43</ele>
<time>2015-04-25T12:58:36Z</time>
</trkpt>
<trkpt lat="35.0373760" lon="32.3240810">
<ele>378.74</ele>
<time>2015-04-25T12:58:39Z</time>
</trkpt>
<trkpt lat="35.0374323" lon="32.3240784">
<ele>378.98</ele>
<time>2015-04-25T12:58:44Z</time>
</trkpt>
<trkpt lat="35.0374850" lon="32.3240876">
<ele>379.18</ele>
<time>2015-04-25T12:58:48Z</time>
</trkpt>
<trkpt lat="35.0375359" lon="32.3240987">
<ele>380.07</ele>
<time>2015-04-25T12:58:52Z</time>
</trkpt>
<trkpt lat="35.0375856" lon="32.3241324">
<ele>380.87</ele>
<time>2015-04-25T12:58:56Z</time>
</trkpt>
<trkpt lat="35.0376372" lon="32.3241564">
<ele>381.17</ele>
<time>2015-04-25T12:59:00Z</time>
</trkpt>
<trkpt lat="35.0376962" lon="32.3241754">
<ele>380.96</ele>
<time>2015-04-25T12:59:03Z</time>
</trkpt>
<trkpt lat="35.0377495" lon="32.3241872">
<ele>381.68</ele>
<time>2015-04-25T12:59:06Z</time>
</trkpt>
<trkpt lat="35.0378074" lon="32.3241988">
<ele>381.89</ele>
<time>2015-04-25T12:59:09Z</time>
</trkpt>
<trkpt lat="35.0378694" lon="32.3242015">
<ele>381.42</ele>
<time>2015-04-25T12:59:12Z</time>
</trkpt>
<trkpt lat="35.0379144" lon="32.3241949">
<ele>381.05</ele>
<time>2015-04-25T12:59:14Z</time>
</trkpt>
<trkpt lat="35.0379621" lon="32.3241752">
<ele>380.96</ele>
<time>2015-04-25T12:59:16Z</time>
</trkpt>
<trkpt lat="35.0380010" lon="32.3241444">
<ele>380.18</ele>
<time>2015-04-25T12:59:18Z</time>
</trkpt>
<trkpt lat="35.0380434" lon="32.3240821">
<ele>378.33</ele>
<time>2015-04-25T12:59:21Z</time>
</trkpt>
<trkpt lat="35.0380764" lon="32.3240071">
<ele>377.28</ele>
<time>2015-04-25T12:59:23Z</time>
</trkpt>
<trkpt lat="35.0380987" lon="32.3239551">
<ele>376.60</ele>
<time>2015-04-25T12:59:24Z</time>
</trkpt>
<trkpt lat="35.0381216" lon="32.3238980">
<ele>376.26</ele>
<time>2015-04-25T12:59:25Z</time>
</trkpt>
<trkpt lat="35.0381429" lon="32.3238268">
<ele>375.59</ele>
<time>2015-04-25T12:59:26Z</time>
</trkpt>
<trkpt lat="35.0381682" lon="32.3237594">
<ele>374.76</ele>
<time>2015-04-25T12:59:27Z</time>
</trkpt>
<trkpt lat="35.0381912" lon="32.3236955">
<ele>374.34</ele>
<time>2015-04-25T12:59:28Z</time>
</trkpt>
<trkpt lat="35.0382185" lon="32.3236352">
<ele>373.63</ele>
<time>2015-04-25T12:59:29Z</time>
</trkpt>
<trkpt lat="35.0382563" lon="32.3235755">
<ele>373.28</ele>
<time>2015-04-25T12:59:30Z</time>
</trkpt>
<trkpt lat="35.0382923" lon="32.3235284">
<ele>373.10</ele>
<time>2015-04-25T12:59:31Z</time>
</trkpt>
<trkpt lat="35.0383449" lon="32.3234912">
<ele>372.51</ele>
<time>2015-04-25T12:59:32Z</time>
</trkpt>
<trkpt lat="35.0383923" lon="32.3234780">
<ele>372.22</ele>
<time>2015-04-25T12:59:33Z</time>
</trkpt>
<trkpt lat="35.0384712" lon="32.3234521">
<ele>371.50</ele>
<time>2015-04-25T12:59:35Z</time>
</trkpt>
<trkpt lat="35.0385262" lon="32.3234131">
<ele>371.32</ele>
<time>2015-04-25T12:59:37Z</time>
</trkpt>
<trkpt lat="35.0385802" lon="32.3233792">
<ele>371.77</ele>
<time>2015-04-25T12:59:39Z</time>
</trkpt>
<trkpt lat="35.0386337" lon="32.3233429">
<ele>371.89</ele>
<time>2015-04-25T12:59:41Z</time>
</trkpt>
<trkpt lat="35.0386896" lon="32.3232928">
<ele>371.92</ele>
<time>2015-04-25T12:59:43Z</time>
</trkpt>
<trkpt lat="35.0387431" lon="32.3232284">
<ele>372.67</ele>
<time>2015-04-25T12:59:45Z</time>
</trkpt>
<trkpt lat="35.0387830" lon="32.3231595">
<ele>372.86</ele>
<time>2015-04-25T12:59:47Z</time>
</trkpt>
<trkpt lat="35.0388236" lon="32.3230824">
<ele>372.91</ele>
<time>2015-04-25T12:59:49Z</time>
</trkpt>
<trkpt lat="35.0388685" lon="32.3230122">
<ele>372.42</ele>
<time>2015-04-25T12:59:51Z</time>
</trkpt>
<trkpt lat="35.0389293" lon="32.3229504">
<ele>372.05</ele>
<time>2015-04-25T12:59:53Z</time>
</trkpt>
<trkpt lat="35.0390023" lon="32.3229064">
<ele>371.46</ele>
<time>2015-04-25T12:59:55Z</time>
</trkpt>
<trkpt lat="35.0390677" lon="32.3229147">
<ele>371.19</ele>
<time>2015-04-25T12:59:56Z</time>
</trkpt>
<trkpt lat="35.0391194" lon="32.3229118">
<ele>371.56</ele>
<time>2015-04-25T12:59:57Z</time>
</trkpt>
<trkpt lat="35.0391761" lon="32.3228988">
<ele>371.74</ele>
<time>2015-04-25T12:59:58Z</time>
</trkpt>
<trkpt lat="35.0392308" lon="32.3228914">
<ele>371.83</ele>
<time>2015-04-25T12:59:59Z</time>
</trkpt>
<trkpt lat="35.0393160" lon="32.3228809">
<ele>372.40</ele>
<time>2015-04-25T13:00:01Z</time>
</trkpt>
<trkpt lat="35.0393696" lon="32.3228584">
<ele>374.48</ele>
<time>2015-04-25T13:00:04Z</time>
</trkpt>
<trkpt lat="35.0394246" lon="32.3228708">
<ele>380.89</ele>
<time>2015-04-25T13:01:10Z</time>
</trkpt>
<trkpt lat="35.0394712" lon="32.3228742">
<ele>380.55</ele>
<time>2015-04-25T13:01:13Z</time>
</trkpt>
<trkpt lat="35.0395196" lon="32.3228842">
<ele>382.25</ele>
<time>2015-04-25T13:01:16Z</time>
</trkpt>
<trkpt lat="35.0395762" lon="32.3228892">
<ele>383.72</ele>
<time>2015-04-25T13:01:19Z</time>
</trkpt>
<trkpt lat="35.0396302" lon="32.3228975">
<ele>383.52</ele>
<time>2015-04-25T13:01:22Z</time>
</trkpt>
<trkpt lat="35.0396902" lon="32.3229216">
<ele>383.37</ele>
<time>2015-04-25T13:01:25Z</time>
</trkpt>
<trkpt lat="35.0397340" lon="32.3229342">
<ele>384.29</ele>
<time>2015-04-25T13:01:27Z</time>
</trkpt>
<trkpt lat="35.0397807" lon="32.3229459">
<ele>384.77</ele>
<time>2015-04-25T13:01:29Z</time>
</trkpt>
<trkpt lat="35.0398467" lon="32.3229584">
<ele>385.03</ele>
<time>2015-04-25T13:01:32Z</time>
</trkpt>
<trkpt lat="35.0399052" lon="32.3229696">
<ele>383.56</ele>
<time>2015-04-25T13:01:35Z</time>
</trkpt>
<trkpt lat="35.0399639" lon="32.3229854">
<ele>382.25</ele>
<time>2015-04-25T13:01:38Z</time>
</trkpt>
<trkpt lat="35.0400280" lon="32.3230018">
<ele>381.97</ele>
<time>2015-04-25T13:01:41Z</time>
</trkpt>
<trkpt lat="35.0400947" lon="32.3229962">
<ele>381.06</ele>
<time>2015-04-25T13:01:44Z</time>
</trkpt>
<trkpt lat="35.0401548" lon="32.3229878">
<ele>380.21</ele>
<time>2015-04-25T13:01:46Z</time>
</trkpt>
<trkpt lat="35.0402830" lon="32.3229522">
<ele>380.75</ele>
<time>2015-04-25T13:01:48Z</time>
</trkpt>
<trkpt lat="35.0403337" lon="32.3229393">
<ele>381.34</ele>
<time>2015-04-25T13:01:49Z</time>
</trkpt>
<trkpt lat="35.0404214" lon="32.3229214">
<ele>382.28</ele>
<time>2015-04-25T13:01:51Z</time>
</trkpt>
<trkpt lat="35.0404898" lon="32.3229139">
<ele>383.26</ele>
<time>2015-04-25T13:01:53Z</time>
</trkpt>
<trkpt lat="35.0405456" lon="32.3229015">
<ele>383.76</ele>
<time>2015-04-25T13:01:55Z</time>
</trkpt>
<trkpt lat="35.0406102" lon="32.3228590">
<ele>383.38</ele>
<time>2015-04-25T13:01:57Z</time>
</trkpt>
<trkpt lat="35.0406567" lon="32.3228393">
<ele>382.65</ele>
<time>2015-04-25T13:01:58Z</time>
</trkpt>
<trkpt lat="35.0407002" lon="32.3227943">
<ele>382.29</ele>
<time>2015-04-25T13:01:59Z</time>
</trkpt>
<trkpt lat="35.0407486" lon="32.3227549">
<ele>382.61</ele>
<time>2015-04-25T13:02:00Z</time>
</trkpt>
<trkpt lat="35.0408068" lon="32.3227252">
<ele>382.77</ele>
<time>2015-04-25T13:02:01Z</time>
</trkpt>
<trkpt lat="35.0408628" lon="32.3226776">
<ele>381.85</ele>
<time>2015-04-25T13:02:02Z</time>
</trkpt>
<trkpt lat="35.0409209" lon="32.3226526">
<ele>382.39</ele>
<time>2015-04-25T13:02:03Z</time>
</trkpt>
<trkpt lat="35.0409849" lon="32.3226267">
<ele>382.66</ele>
<time>2015-04-25T13:02:04Z</time>
</trkpt>
<trkpt lat="35.0410399" lon="32.3226087">
<ele>382.29</ele>
<time>2015-04-25T13:02:05Z</time>
</trkpt>
<trkpt lat="35.0411088" lon="32.3225891">
<ele>381.61</ele>
<time>2015-04-25T13:02:06Z</time>
</trkpt>
<trkpt lat="35.0411584" lon="32.3225813">
<ele>381.77</ele>
<time>2015-04-25T13:02:07Z</time>
</trkpt>
<trkpt lat="35.0412068" lon="32.3225753">
<ele>381.85</ele>
<time>2015-04-25T13:02:08Z</time>
</trkpt>
<trkpt lat="35.0412489" lon="32.3225555">
<ele>381.66</ele>
<time>2015-04-25T13:02:10Z</time>
</trkpt>
<trkpt lat="35.0412602" lon="32.3225009">
<ele>380.24</ele>
<time>2015-04-25T13:02:20Z</time>
</trkpt>
<trkpt lat="35.0412936" lon="32.3225669">
<ele>376.99</ele>
<time>2015-04-25T13:02:59Z</time>
</trkpt>
<trkpt lat="35.0413548" lon="32.3225980">
<ele>376.69</ele>
<time>2015-04-25T13:03:01Z</time>
</trkpt>
<trkpt lat="35.0414351" lon="32.3226104">
<ele>377.62</ele>
<time>2015-04-25T13:03:03Z</time>
</trkpt>
<trkpt lat="35.0415040" lon="32.3226252">
<ele>378.35</ele>
<time>2015-04-25T13:03:05Z</time>
</trkpt>
<trkpt lat="35.0415605" lon="32.3226434">
<ele>378.78</ele>
<time>2015-04-25T13:03:07Z</time>
</trkpt>
<trkpt lat="35.0416199" lon="32.3226577">
<ele>379.89</ele>
<time>2015-04-25T13:03:09Z</time>
</trkpt>
<trkpt lat="35.0416812" lon="32.3226687">
<ele>380.42</ele>
<time>2015-04-25T13:03:11Z</time>
</trkpt>
<trkpt lat="35.0417771" lon="32.3226776">
<ele>380.80</ele>
<time>2015-04-25T13:03:13Z</time>
</trkpt>
<trkpt lat="35.0418291" lon="32.3226816">
<ele>380.86</ele>
<time>2015-04-25T13:03:14Z</time>
</trkpt>
<trkpt lat="35.0418832" lon="32.3226851">
<ele>379.89</ele>
<time>2015-04-25T13:03:15Z</time>
</trkpt>
<trkpt lat="35.0419416" lon="32.3226933">
<ele>379.41</ele>
<time>2015-04-25T13:03:16Z</time>
</trkpt>
<trkpt lat="35.0419965" lon="32.3226974">
<ele>379.17</ele>
<time>2015-04-25T13:03:17Z</time>
</trkpt>
<trkpt lat="35.0420868" lon="32.3227163">
<ele>378.99</ele>
<time>2015-04-25T13:03:19Z</time>
</trkpt>
<trkpt lat="35.0421348" lon="32.3227357">
<ele>378.46</ele>
<time>2015-04-25T13:03:20Z</time>
</trkpt>
<trkpt lat="35.0421868" lon="32.3227499">
<ele>378.19</ele>
<time>2015-04-25T13:03:21Z</time>
</trkpt>
<trkpt lat="35.0422349" lon="32.3227691">
<ele>377.56</ele>
<time>2015-04-25T13:03:22Z</time>
</trkpt>
<trkpt lat="35.0422838" lon="32.3228023">
<ele>376.74</ele>
<time>2015-04-25T13:03:23Z</time>
</trkpt>
<trkpt lat="35.0423264" lon="32.3228360">
<ele>376.83</ele>
<time>2015-04-25T13:03:24Z</time>
</trkpt>
<trkpt lat="35.0423699" lon="32.3228580">
<ele>376.38</ele>
<time>2015-04-25T13:03:25Z</time>
</trkpt>
<trkpt lat="35.0424155" lon="32.3228798">
<ele>376.15</ele>
<time>2015-04-25T13:03:26Z</time>
</trkpt>
<trkpt lat="35.0424749" lon="32.3229480">
<ele>375.48</ele>
<time>2015-04-25T13:03:28Z</time>
</trkpt>
<trkpt lat="35.0425359" lon="32.3230037">
<ele>375.06</ele>
<time>2015-04-25T13:03:30Z</time>
</trkpt>
<trkpt lat="35.0426226" lon="32.3230375">
<ele>375.21</ele>
<time>2015-04-25T13:03:32Z</time>
</trkpt>
<trkpt lat="35.0427047" lon="32.3230570">
<ele>375.75</ele>
<time>2015-04-25T13:03:34Z</time>
</trkpt>
<trkpt lat="35.0427473" lon="32.3230750">
<ele>374.84</ele>
<time>2015-04-25T13:03:35Z</time>
</trkpt>
<trkpt lat="35.0428275" lon="32.3231008">
<ele>373.90</ele>
<time>2015-04-25T13:03:37Z</time>
</trkpt>
<trkpt lat="35.0428960" lon="32.3231358">
<ele>372.92</ele>
<time>2015-04-25T13:03:39Z</time>
</trkpt>
<trkpt lat="35.0429390" lon="32.3231591">
<ele>372.42</ele>
<time>2015-04-25T13:03:40Z</time>
</trkpt>
<trkpt lat="35.0429816" lon="32.3231839">
<ele>371.67</ele>
<time>2015-04-25T13:03:41Z</time>
</trkpt>
<trkpt lat="35.0430304" lon="32.3232203">
<ele>372.30</ele>
<time>2015-04-25T13:03:42Z</time>
</trkpt>
<trkpt lat="35.0430764" lon="32.3232592">
<ele>371.61</ele>
<time>2015-04-25T13:03:43Z</time>
</trkpt>
<trkpt lat="35.0431243" lon="32.3232887">
<ele>370.77</ele>
<time>2015-04-25T13:03:44Z</time>
</trkpt>
<trkpt lat="35.0431704" lon="32.3233043">
<ele>370.35</ele>
<time>2015-04-25T13:03:45Z</time>
</trkpt>
<trkpt lat="35.0432423" lon="32.3232885">
<ele>370.03</ele>
<time>2015-04-25T13:03:47Z</time>
</trkpt>
<trkpt lat="35.0433228" lon="32.3232456">
<ele>369.20</ele>
<time>2015-04-25T13:03:49Z</time>
</trkpt>
<trkpt lat="35.0433734" lon="32.3232185">
<ele>369.06</ele>
<time>2015-04-25T13:03:50Z</time>
</trkpt>
<trkpt lat="35.0434191" lon="32.3231948">
<ele>368.49</ele>
<time>2015-04-25T13:03:51Z</time>
</trkpt>
<trkpt lat="35.0434660" lon="32.3231777">
<ele>367.71</ele>
<time>2015-04-25T13:03:52Z</time>
</trkpt>
<trkpt lat="35.0435118" lon="32.3231572">
<ele>367.32</ele>
<time>2015-04-25T13:03:53Z</time>
</trkpt>
<trkpt lat="35.0435621" lon="32.3231431">
<ele>367.12</ele>
<time>2015-04-25T13:03:54Z</time>
</trkpt>
<trkpt lat="35.0436198" lon="32.3231180">
<ele>367.02</ele>
<time>2015-04-25T13:03:55Z</time>
</trkpt>
<trkpt lat="35.0436769" lon="32.3230919">
<ele>366.97</ele>
<time>2015-04-25T13:03:56Z</time>
</trkpt>
<trkpt lat="35.0437261" lon="32.3230623">
<ele>366.95</ele>
<time>2015-04-25T13:03:57Z</time>
</trkpt>
<trkpt lat="35.0437898" lon="32.3230127">
<ele>367.18</ele>
<time>2015-04-25T13:03:59Z</time>
</trkpt>
<trkpt lat="35.0438482" lon="32.3229732">
<ele>366.74</ele>
<time>2015-04-25T13:04:01Z</time>
</trkpt>
<trkpt lat="35.0438992" lon="32.3229763">
<ele>366.88</ele>
<time>2015-04-25T13:04:03Z</time>
</trkpt>
<trkpt lat="35.0439601" lon="32.3229904">
<ele>366.16</ele>
<time>2015-04-25T13:04:05Z</time>
</trkpt>
<trkpt lat="35.0440292" lon="32.3229743">
<ele>367.23</ele>
<time>2015-04-25T13:04:07Z</time>
</trkpt>
<trkpt lat="35.0440993" lon="32.3229340">
<ele>367.50</ele>
<time>2015-04-25T13:04:09Z</time>
</trkpt>
<trkpt lat="35.0441728" lon="32.3228850">
<ele>366.32</ele>
<time>2015-04-25T13:04:11Z</time>
</trkpt>
<trkpt lat="35.0442271" lon="32.3228610">
<ele>366.12</ele>
<time>2015-04-25T13:04:12Z</time>
</trkpt>
<trkpt lat="35.0442768" lon="32.3228352">
<ele>366.02</ele>
<time>2015-04-25T13:04:13Z</time>
</trkpt>
<trkpt lat="35.0443733" lon="32.3228049">
<ele>362.95</ele>
<time>2015-04-25T13:04:15Z</time>
</trkpt>
<trkpt lat="35.0444265" lon="32.3227868">
<ele>362.44</ele>
<time>2015-04-25T13:04:16Z</time>
</trkpt>
<trkpt lat="35.0444728" lon="32.3227798">
<ele>362.68</ele>
<time>2015-04-25T13:04:17Z</time>
</trkpt>
<trkpt lat="35.0445296" lon="32.3227783">
<ele>362.80</ele>
<time>2015-04-25T13:04:18Z</time>
</trkpt>
<trkpt lat="35.0446138" lon="32.3227845">
<ele>362.89</ele>
<time>2015-04-25T13:04:20Z</time>
</trkpt>
<trkpt lat="35.0446861" lon="32.3228056">
<ele>362.92</ele>
<time>2015-04-25T13:04:22Z</time>
</trkpt>
<trkpt lat="35.0447665" lon="32.3228469">
<ele>362.67</ele>
<time>2015-04-25T13:04:24Z</time>
</trkpt>
<trkpt lat="35.0448170" lon="32.3228703">
<ele>362.11</ele>
<time>2015-04-25T13:04:26Z</time>
</trkpt>
<trkpt lat="35.0448699" lon="32.3228880">
<ele>363.47</ele>
<time>2015-04-25T13:04:28Z</time>
</trkpt>
<trkpt lat="35.0449261" lon="32.3228970">
<ele>362.31</ele>
<time>2015-04-25T13:04:30Z</time>
</trkpt>
<trkpt lat="35.0449899" lon="32.3228964">
<ele>361.27</ele>
<time>2015-04-25T13:04:32Z</time>
</trkpt>
<trkpt lat="35.0450501" lon="32.3228844">
<ele>360.51</ele>
<time>2015-04-25T13:04:34Z</time>
</trkpt>
<trkpt lat="35.0451103" lon="32.3228673">
<ele>361.57</ele>
<time>2015-04-25T13:04:36Z</time>
</trkpt>
<trkpt lat="35.0451671" lon="32.3228640">
<ele>362.84</ele>
<time>2015-04-25T13:04:38Z</time>
</trkpt>
<trkpt lat="35.0452180" lon="32.3228738">
<ele>362.90</ele>
<time>2015-04-25T13:04:40Z</time>
</trkpt>
<trkpt lat="35.0452626" lon="32.3228897">
<ele>363.42</ele>
<time>2015-04-25T13:04:42Z</time>
</trkpt>
<trkpt lat="35.0453012" lon="32.3229293">
<ele>363.30</ele>
<time>2015-04-25T13:04:44Z</time>
</trkpt>
<trkpt lat="35.0453316" lon="32.3229922">
<ele>362.02</ele>
<time>2015-04-25T13:04:46Z</time>
</trkpt>
<trkpt lat="35.0453594" lon="32.3230659">
<ele>361.20</ele>
<time>2015-04-25T13:04:48Z</time>
</trkpt>
<trkpt lat="35.0453887" lon="32.3231461">
<ele>361.24</ele>
<time>2015-04-25T13:04:50Z</time>
</trkpt>
<trkpt lat="35.0454262" lon="32.3232276">
<ele>361.50</ele>
<time>2015-04-25T13:04:52Z</time>
</trkpt>
<trkpt lat="35.0454703" lon="32.3233049">
<ele>362.82</ele>
<time>2015-04-25T13:04:54Z</time>
</trkpt>
<trkpt lat="35.0455223" lon="32.3233816">
<ele>363.65</ele>
<time>2015-04-25T13:04:56Z</time>
</trkpt>
<trkpt lat="35.0455732" lon="32.3234585">
<ele>363.79</ele>
<time>2015-04-25T13:04:57Z</time>
</trkpt>
<trkpt lat="35.0456117" lon="32.3234952">
<ele>363.86</ele>
<time>2015-04-25T13:04:58Z</time>
</trkpt>
<trkpt lat="35.0456763" lon="32.3235500">
<ele>364.16</ele>
<time>2015-04-25T13:05:00Z</time>
</trkpt>
<trkpt lat="35.0457239" lon="32.3235816">
<ele>363.98</ele>
<time>2015-04-25T13:05:02Z</time>
</trkpt>
<trkpt lat="35.0457827" lon="32.3236137">
<ele>364.44</ele>
<time>2015-04-25T13:05:04Z</time>
</trkpt>
<trkpt lat="35.0458372" lon="32.3236312">
<ele>365.55</ele>
<time>2015-04-25T13:05:06Z</time>
</trkpt>
<trkpt lat="35.0458938" lon="32.3236571">
<ele>364.58</ele>
<time>2015-04-25T13:05:08Z</time>
</trkpt>
<trkpt lat="35.0459577" lon="32.3236697">
<ele>363.84</ele>
<time>2015-04-25T13:05:10Z</time>
</trkpt>
<trkpt lat="35.0460182" lon="32.3236652">
<ele>361.90</ele>
<time>2015-04-25T13:05:12Z</time>
</trkpt>
<trkpt lat="35.0460725" lon="32.3236399">
<ele>361.17</ele>
<time>2015-04-25T13:05:14Z</time>
</trkpt>
<trkpt lat="35.0461611" lon="32.3235410">
<ele>358.49</ele>
<time>2015-04-25T13:05:16Z</time>
</trkpt>
<trkpt lat="35.0462042" lon="32.3234891">
<ele>357.21</ele>
<time>2015-04-25T13:05:17Z</time>
</trkpt>
<trkpt lat="35.0462405" lon="32.3234485">
<ele>355.57</ele>
<time>2015-04-25T13:05:18Z</time>
</trkpt>
<trkpt lat="35.0462757" lon="32.3234128">
<ele>354.25</ele>
<time>2015-04-25T13:05:19Z</time>
</trkpt>
<trkpt lat="35.0463259" lon="32.3233607">
<ele>353.09</ele>
<time>2015-04-25T13:05:20Z</time>
</trkpt>
<trkpt lat="35.0463733" lon="32.3233139">
<ele>352.51</ele>
<time>2015-04-25T13:05:21Z</time>
</trkpt>
<trkpt lat="35.0464407" lon="32.3232654">
<ele>352.22</ele>
<time>2015-04-25T13:05:22Z</time>
</trkpt>
<trkpt lat="35.0465078" lon="32.3232222">
<ele>351.07</ele>
<time>2015-04-25T13:05:23Z</time>
</trkpt>
<trkpt lat="35.0465784" lon="32.3231834">
<ele>351.00</ele>
<time>2015-04-25T13:05:24Z</time>
</trkpt>
<trkpt lat="35.0466572" lon="32.3231686">
<ele>350.96</ele>
<time>2015-04-25T13:05:25Z</time>
</trkpt>
<trkpt lat="35.0467442" lon="32.3231374">
<ele>349.94</ele>
<time>2015-04-25T13:05:26Z</time>
</trkpt>
<trkpt lat="35.0468154" lon="32.3231084">
<ele>349.93</ele>
<time>2015-04-25T13:05:27Z</time>
</trkpt>
<trkpt lat="35.0468847" lon="32.3230742">
<ele>349.43</ele>
<time>2015-04-25T13:05:28Z</time>
</trkpt>
<trkpt lat="35.0469620" lon="32.3230294">
<ele>348.68</ele>
<time>2015-04-25T13:05:29Z</time>
</trkpt>
<trkpt lat="35.0470238" lon="32.3229796">
<ele>348.30</ele>
<time>2015-04-25T13:05:30Z</time>
</trkpt>
<trkpt lat="35.0470890" lon="32.3229323">
<ele>347.61</ele>
<time>2015-04-25T13:05:31Z</time>
</trkpt>
<trkpt lat="35.0471689" lon="32.3228619">
<ele>346.77</ele>
<time>2015-04-25T13:05:32Z</time>
</trkpt>
<trkpt lat="35.0472418" lon="32.3228032">
<ele>346.35</ele>
<time>2015-04-25T13:05:33Z</time>
</trkpt>
<trkpt lat="35.0473130" lon="32.3227613">
<ele>345.64</ele>
<time>2015-04-25T13:05:34Z</time>
</trkpt>
<trkpt lat="35.0474025" lon="32.3227411">
<ele>345.28</ele>
<time>2015-04-25T13:05:35Z</time>
</trkpt>
<trkpt lat="35.0474870" lon="32.3227404">
<ele>344.60</ele>
<time>2015-04-25T13:05:36Z</time>
</trkpt>
<trkpt lat="35.0475734" lon="32.3227438">
<ele>343.76</ele>
<time>2015-04-25T13:05:37Z</time>
</trkpt>
<trkpt lat="35.0476512" lon="32.3227356">
<ele>343.84</ele>
<time>2015-04-25T13:05:38Z</time>
</trkpt>
<trkpt lat="35.0477179" lon="32.3227280">
<ele>344.38</ele>
<time>2015-04-25T13:05:39Z</time>
</trkpt>
<trkpt lat="35.0477796" lon="32.3227104">
<ele>345.15</ele>
<time>2015-04-25T13:05:40Z</time>
</trkpt>
<trkpt lat="35.0478276" lon="32.3226944">
<ele>345.54</ele>
<time>2015-04-25T13:05:41Z</time>
</trkpt>
<trkpt lat="35.0479067" lon="32.3226490">
<ele>345.33</ele>
<time>2015-04-25T13:05:43Z</time>
</trkpt>
<trkpt lat="35.0479879" lon="32.3226196">
<ele>345.03</ele>
<time>2015-04-25T13:05:45Z</time>
</trkpt>
<trkpt lat="35.0480474" lon="32.3225876">
<ele>345.70</ele>
<time>2015-04-25T13:05:47Z</time>
</trkpt>
<trkpt lat="35.0481144" lon="32.3225767">
<ele>345.37</ele>
<time>2015-04-25T13:05:49Z</time>
</trkpt>
<trkpt lat="35.0481651" lon="32.3225643">
<ele>345.54</ele>
<time>2015-04-25T13:05:51Z</time>
</trkpt>
<trkpt lat="35.0482336" lon="32.3225696">
<ele>345.75</ele>
<time>2015-04-25T13:05:54Z</time>
</trkpt>
<trkpt lat="35.0482851" lon="32.3225913">
<ele>345.88</ele>
<time>2015-04-25T13:05:56Z</time>
</trkpt>
<trkpt lat="35.0483322" lon="32.3226205">
<ele>346.41</ele>
<time>2015-04-25T13:05:58Z</time>
</trkpt>
<trkpt lat="35.0483797" lon="32.3226593">
<ele>347.30</ele>
<time>2015-04-25T13:06:00Z</time>
</trkpt>
<trkpt lat="35.0484168" lon="32.3227013">
<ele>348.52</ele>
<time>2015-04-25T13:06:02Z</time>
</trkpt>
<trkpt lat="35.0484462" lon="32.3227575">
<ele>348.00</ele>
<time>2015-04-25T13:06:05Z</time>
</trkpt>
<trkpt lat="35.0484669" lon="32.3228200">
<ele>348.43</ele>
<time>2015-04-25T13:06:10Z</time>
</trkpt>
<trkpt lat="35.0485031" lon="32.3228670">
<ele>349.52</ele>
<time>2015-04-25T13:06:14Z</time>
</trkpt>
<trkpt lat="35.0485196" lon="32.3229222">
<ele>350.96</ele>
<time>2015-04-25T13:06:18Z</time>
</trkpt>
<trkpt lat="35.0485545" lon="32.3229685">
<ele>350.89</ele>
<time>2015-04-25T13:06:23Z</time>
</trkpt>
<trkpt lat="35.0485832" lon="32.3230281">
<ele>351.42</ele>
<time>2015-04-25T13:06:28Z</time>
</trkpt>
<trkpt lat="35.0486160" lon="32.3230746">
<ele>352.77</ele>
<time>2015-04-25T13:06:32Z</time>
</trkpt>
<trkpt lat="35.0486462" lon="32.3231236">
<ele>350.60</ele>
<time>2015-04-25T13:06:36Z</time>
</trkpt>
<trkpt lat="35.0486824" lon="32.3231727">
<ele>348.90</ele>
<time>2015-04-25T13:06:40Z</time>
</trkpt>
<trkpt lat="35.0487213" lon="32.3232211">
<ele>348.92</ele>
<time>2015-04-25T13:06:44Z</time>
</trkpt>
<trkpt lat="35.0487652" lon="32.3232598">
<ele>348.17</ele>
<time>2015-04-25T13:06:48Z</time>
</trkpt>
<trkpt lat="35.0488050" lon="32.3233080">
<ele>347.94</ele>
<time>2015-04-25T13:06:52Z</time>
</trkpt>
<trkpt lat="35.0488444" lon="32.3233351">
<ele>348.68</ele>
<time>2015-04-25T13:06:55Z</time>
</trkpt>
<trkpt lat="35.0488844" lon="32.3233603">
<ele>349.64</ele>
<time>2015-04-25T13:06:58Z</time>
</trkpt>
<trkpt lat="35.0489301" lon="32.3233907">
<ele>349.91</ele>
<time>2015-04-25T13:07:02Z</time>
</trkpt>
<trkpt lat="35.0489782" lon="32.3234268">
<ele>350.86</ele>
<time>2015-04-25T13:07:06Z</time>
</trkpt>
<trkpt lat="35.0490197" lon="32.3234519">
<ele>350.92</ele>
<time>2015-04-25T13:07:09Z</time>
</trkpt>
<trkpt lat="35.0490650" lon="32.3234684">
<ele>351.80</ele>
<time>2015-04-25T13:07:12Z</time>
</trkpt>
<trkpt lat="35.0491080" lon="32.3234911">
<ele>352.66</ele>
<time>2015-04-25T13:07:15Z</time>
</trkpt>
<trkpt lat="35.0491636" lon="32.3235153">
<ele>353.85</ele>
<time>2015-04-25T13:07:19Z</time>
</trkpt>
<trkpt lat="35.0492135" lon="32.3235331">
<ele>354.17</ele>
<time>2015-04-25T13:07:23Z</time>
</trkpt>
<trkpt lat="35.0492654" lon="32.3235487">
<ele>354.88</ele>
<time>2015-04-25T13:07:27Z</time>
</trkpt>
<trkpt lat="35.0493113" lon="32.3235423">
<ele>354.92</ele>
<time>2015-04-25T13:07:32Z</time>
</trkpt>
<trkpt lat="35.0493592" lon="32.3235414">
<ele>356.30</ele>
<time>2015-04-25T13:07:37Z</time>
</trkpt>
<trkpt lat="35.0494129" lon="32.3235370">
<ele>357.66</ele>
<time>2015-04-25T13:07:42Z</time>
</trkpt>
<trkpt lat="35.0494584" lon="32.3235393">
<ele>359.28</ele>
<time>2015-04-25T13:07:46Z</time>
</trkpt>
<trkpt lat="35.0495138" lon="32.3235318">
<ele>361.62</ele>
<time>2015-04-25T13:07:51Z</time>
</trkpt>
<trkpt lat="35.0495646" lon="32.3235221">
<ele>360.47</ele>
<time>2015-04-25T13:07:55Z</time>
</trkpt>
<trkpt lat="35.0496094" lon="32.3235073">
<ele>360.77</ele>
<time>2015-04-25T13:07:59Z</time>
</trkpt>
<trkpt lat="35.0496584" lon="32.3234830">
<ele>364.35</ele>
<time>2015-04-25T13:08:03Z</time>
</trkpt>
<trkpt lat="35.0497095" lon="32.3234687">
<ele>367.33</ele>
<time>2015-04-25T13:08:07Z</time>
</trkpt>
<trkpt lat="35.0497496" lon="32.3234408">
<ele>367.76</ele>
<time>2015-04-25T13:08:11Z</time>
</trkpt>
<trkpt lat="35.0497942" lon="32.3233949">
<ele>366.40</ele>
<time>2015-04-25T13:08:20Z</time>
</trkpt>
<trkpt lat="35.0498298" lon="32.3233531">
<ele>365.86</ele>
<time>2015-04-25T13:08:23Z</time>
</trkpt>
<trkpt lat="35.0498638" lon="32.3233062">
<ele>366.79</ele>
<time>2015-04-25T13:08:26Z</time>
</trkpt>
<trkpt lat="35.0498953" lon="32.3232651">
<ele>369.41</ele>
<time>2015-04-25T13:08:29Z</time>
</trkpt>
<trkpt lat="35.0499293" lon="32.3232140">
<ele>369.61</ele>
<time>2015-04-25T13:08:32Z</time>
</trkpt>
<trkpt lat="35.0499670" lon="32.3231592">
<ele>368.64</ele>
<time>2015-04-25T13:08:35Z</time>
</trkpt>
<trkpt lat="35.0499969" lon="32.3231169">
<ele>368.10</ele>
<time>2015-04-25T13:08:37Z</time>
</trkpt>
<trkpt lat="35.0500269" lon="32.3230702">
<ele>367.97</ele>
<time>2015-04-25T13:08:39Z</time>
</trkpt>
<trkpt lat="35.0500564" lon="32.3230199">
<ele>368.19</ele>
<time>2015-04-25T13:08:41Z</time>
</trkpt>
<trkpt lat="35.0500884" lon="32.3229689">
<ele>368.49</ele>
<time>2015-04-25T13:08:43Z</time>
</trkpt>
<trkpt lat="35.0501246" lon="32.3229078">
<ele>369.32</ele>
<time>2015-04-25T13:08:45Z</time>
</trkpt>
<trkpt lat="35.0501584" lon="32.3228585">
<ele>372.02</ele>
<time>2015-04-25T13:08:47Z</time>
</trkpt>
<trkpt lat="35.0502029" lon="32.3228036">
<ele>372.81</ele>
<time>2015-04-25T13:08:50Z</time>
</trkpt>
<trkpt lat="35.0502486" lon="32.3227493">
<ele>371.54</ele>
<time>2015-04-25T13:08:53Z</time>
</trkpt>
<trkpt lat="35.0502939" lon="32.3227005">
<ele>371.33</ele>
<time>2015-04-25T13:08:55Z</time>
</trkpt>
<trkpt lat="35.0503367" lon="32.3226575">
<ele>371.03</ele>
<time>2015-04-25T13:08:57Z</time>
</trkpt>
<trkpt lat="35.0503918" lon="32.3226164">
<ele>371.69</ele>
<time>2015-04-25T13:09:00Z</time>
</trkpt>
<trkpt lat="35.0504428" lon="32.3225688">
<ele>373.15</ele>
<time>2015-04-25T13:09:03Z</time>
</trkpt>
<trkpt lat="35.0504896" lon="32.3225108">
<ele>374.20</ele>
<time>2015-04-25T13:09:06Z</time>
</trkpt>
<trkpt lat="35.0505290" lon="32.3224504">
<ele>371.83</ele>
<time>2015-04-25T13:09:09Z</time>
</trkpt>
<trkpt lat="35.0505567" lon="32.3223926">
<ele>372.66</ele>
<time>2015-04-25T13:09:12Z</time>
</trkpt>
<trkpt lat="35.0505774" lon="32.3223431">
<ele>373.02</ele>
<time>2015-04-25T13:09:15Z</time>
</trkpt>
<trkpt lat="35.0506175" lon="32.3222961">
<ele>373.81</ele>
<time>2015-04-25T13:09:19Z</time>
</trkpt>
<trkpt lat="35.0506611" lon="32.3222468">
<ele>372.54</ele>
<time>2015-04-25T13:09:23Z</time>
</trkpt>
<trkpt lat="35.0507002" lon="32.3221855">
<ele>371.88</ele>
<time>2015-04-25T13:09:26Z</time>
</trkpt>
<trkpt lat="35.0507392" lon="32.3221323">
<ele>372.16</ele>
<time>2015-04-25T13:09:28Z</time>
</trkpt>
<trkpt lat="35.0507839" lon="32.3220740">
<ele>371.98</ele>
<time>2015-04-25T13:09:30Z</time>
</trkpt>
<trkpt lat="35.0508375" lon="32.3220174">
<ele>371.94</ele>
<time>2015-04-25T13:09:32Z</time>
</trkpt>
<trkpt lat="35.0508917" lon="32.3219587">
<ele>370.68</ele>
<time>2015-04-25T13:09:34Z</time>
</trkpt>
<trkpt lat="35.0509460" lon="32.3219014">
<ele>371.11</ele>
<time>2015-04-25T13:09:36Z</time>
</trkpt>
<trkpt lat="35.0510042" lon="32.3218500">
<ele>372.22</ele>
<time>2015-04-25T13:09:38Z</time>
</trkpt>
<trkpt lat="35.0510647" lon="32.3217967">
<ele>372.75</ele>
<time>2015-04-25T13:09:40Z</time>
</trkpt>
<trkpt lat="35.0511289" lon="32.3217434">
<ele>372.13</ele>
<time>2015-04-25T13:09:42Z</time>
</trkpt>
<trkpt lat="35.0511933" lon="32.3216935">
<ele>372.48</ele>
<time>2015-04-25T13:09:44Z</time>
</trkpt>
<trkpt lat="35.0512564" lon="32.3216463">
<ele>372.81</ele>
<time>2015-04-25T13:09:46Z</time>
</trkpt>
<trkpt lat="35.0513190" lon="32.3215939">
<ele>373.40</ele>
<time>2015-04-25T13:09:48Z</time>
</trkpt>
<trkpt lat="35.0513833" lon="32.3215535">
<ele>372.79</ele>
<time>2015-04-25T13:09:50Z</time>
</trkpt>
<trkpt lat="35.0514458" lon="32.3214975">
<ele>371.64</ele>
<time>2015-04-25T13:09:52Z</time>
</trkpt>
<trkpt lat="35.0514953" lon="32.3214217">
<ele>370.28</ele>
<time>2015-04-25T13:09:53Z</time>
</trkpt>
<trkpt lat="35.0515336" lon="32.3213600">
<ele>369.60</ele>
<time>2015-04-25T13:09:54Z</time>
</trkpt>
<trkpt lat="35.0515737" lon="32.3213064">
<ele>369.26</ele>
<time>2015-04-25T13:09:55Z</time>
</trkpt>
<trkpt lat="35.0516266" lon="32.3212504">
<ele>369.59</ele>
<time>2015-04-25T13:09:56Z</time>
</trkpt>
<trkpt lat="35.0516789" lon="32.3212071">
<ele>369.76</ele>
<time>2015-04-25T13:09:57Z</time>
</trkpt>
<trkpt lat="35.0517435" lon="32.3211673">
<ele>370.34</ele>
<time>2015-04-25T13:09:58Z</time>
</trkpt>
<trkpt lat="35.0518093" lon="32.3211384">
<ele>371.13</ele>
<time>2015-04-25T13:09:59Z</time>
</trkpt>
<trkpt lat="35.0518762" lon="32.3211267">
<ele>371.03</ele>
<time>2015-04-25T13:10:00Z</time>
</trkpt>
<trkpt lat="35.0519467" lon="32.3211339">
<ele>369.98</ele>
<time>2015-04-25T13:10:01Z</time>
</trkpt>
<trkpt lat="35.0520086" lon="32.3211490">
<ele>368.45</ele>
<time>2015-04-25T13:10:02Z</time>
</trkpt>
<trkpt lat="35.0520559" lon="32.3211597">
<ele>368.19</ele>
<time>2015-04-25T13:10:03Z</time>
</trkpt>
<trkpt lat="35.0521278" lon="32.3211895">
<ele>367.99</ele>
<time>2015-04-25T13:10:05Z</time>
</trkpt>
<trkpt lat="35.0521881" lon="32.3212035">
<ele>368.44</ele>
<time>2015-04-25T13:10:07Z</time>
</trkpt>
<trkpt lat="35.0522538" lon="32.3212204">
<ele>368.80</ele>
<time>2015-04-25T13:10:09Z</time>
</trkpt>
<trkpt lat="35.0523058" lon="32.3212249">
<ele>368.89</ele>
<time>2015-04-25T13:10:11Z</time>
</trkpt>
<trkpt lat="35.0523622" lon="32.3212200">
<ele>370.17</ele>
<time>2015-04-25T13:10:14Z</time>
</trkpt>
<trkpt lat="35.0524173" lon="32.3212058">
<ele>370.71</ele>
<time>2015-04-25T13:10:17Z</time>
</trkpt>
<trkpt lat="35.0524675" lon="32.3211879">
<ele>370.12</ele>
<time>2015-04-25T13:10:19Z</time>
</trkpt>
<trkpt lat="35.0525154" lon="32.3211553">
<ele>369.47</ele>
<time>2015-04-25T13:10:21Z</time>
</trkpt>
<trkpt lat="35.0525600" lon="32.3211213">
<ele>369.31</ele>
<time>2015-04-25T13:10:23Z</time>
</trkpt>
<trkpt lat="35.0525990" lon="32.3210898">
<ele>368.52</ele>
<time>2015-04-25T13:10:25Z</time>
</trkpt>
<trkpt lat="35.0526472" lon="32.3210431">
<ele>366.62</ele>
<time>2015-04-25T13:10:28Z</time>
</trkpt>
<trkpt lat="35.0526918" lon="32.3210006">
<ele>366.01</ele>
<time>2015-04-25T13:10:31Z</time>
</trkpt>
<trkpt lat="35.0527258" lon="32.3209564">
<ele>364.31</ele>
<time>2015-04-25T13:10:34Z</time>
</trkpt>
<trkpt lat="35.0527633" lon="32.3208883">
<ele>363.10</ele>
<time>2015-04-25T13:10:37Z</time>
</trkpt>
<trkpt lat="35.0527911" lon="32.3208291">
<ele>362.97</ele>
<time>2015-04-25T13:10:39Z</time>
</trkpt>
<trkpt lat="35.0528275" lon="32.3207427">
<ele>362.69</ele>
<time>2015-04-25T13:10:41Z</time>
</trkpt>
<trkpt lat="35.0528552" lon="32.3206973">
<ele>362.31</ele>
<time>2015-04-25T13:10:42Z</time>
</trkpt>
<trkpt lat="35.0528891" lon="32.3206592">
<ele>362.12</ele>
<time>2015-04-25T13:10:43Z</time>
</trkpt>
<trkpt lat="35.0529278" lon="32.3206296">
<ele>361.02</ele>
<time>2015-04-25T13:10:44Z</time>
</trkpt>
<trkpt lat="35.0530033" lon="32.3205822">
<ele>360.20</ele>
<time>2015-04-25T13:10:46Z</time>
</trkpt>
<trkpt lat="35.0530435" lon="32.3205075">
<ele>360.56</ele>
<time>2015-04-25T13:10:47Z</time>
</trkpt>
<trkpt lat="35.0530844" lon="32.3204383">
<ele>360.74</ele>
<time>2015-04-25T13:10:48Z</time>
</trkpt>
<trkpt lat="35.0531180" lon="32.3203682">
<ele>360.33</ele>
<time>2015-04-25T13:10:49Z</time>
</trkpt>
<trkpt lat="35.0531540" lon="32.3202926">
<ele>360.13</ele>
<time>2015-04-25T13:10:50Z</time>
</trkpt>
<trkpt lat="35.0532004" lon="32.3202225">
<ele>360.03</ele>
<time>2015-04-25T13:10:51Z</time>
</trkpt>
<trkpt lat="35.0532445" lon="32.3201640">
<ele>359.48</ele>
<time>2015-04-25T13:10:52Z</time>
</trkpt>
<trkpt lat="35.0532957" lon="32.3201092">
<ele>359.20</ele>
<time>2015-04-25T13:10:53Z</time>
</trkpt>
<trkpt lat="35.0533563" lon="32.3200742">
<ele>358.56</ele>
<time>2015-04-25T13:10:54Z</time>
</trkpt>
<trkpt lat="35.0534213" lon="32.3200481">
<ele>357.74</ele>
<time>2015-04-25T13:10:55Z</time>
</trkpt>
<trkpt lat="35.0534921" lon="32.3200357">
<ele>356.83</ele>
<time>2015-04-25T13:10:56Z</time>
</trkpt>
<trkpt lat="35.0535575" lon="32.3200279">
<ele>355.88</ele>
<time>2015-04-25T13:10:57Z</time>
</trkpt>
<trkpt lat="35.0536157" lon="32.3200363">
<ele>355.40</ele>
<time>2015-04-25T13:10:58Z</time>
</trkpt>
<trkpt lat="35.0536812" lon="32.3200490">
<ele>355.16</ele>
<time>2015-04-25T13:10:59Z</time>
</trkpt>
<trkpt lat="35.0537413" lon="32.3200568">
<ele>354.54</ele>
<time>2015-04-25T13:11:00Z</time>
</trkpt>
<trkpt lat="35.0537916" lon="32.3200600">
<ele>354.73</ele>
<time>2015-04-25T13:11:01Z</time>
</trkpt>
<trkpt lat="35.0538450" lon="32.3200453">
<ele>353.83</ele>
<time>2015-04-25T13:11:02Z</time>
</trkpt>
<trkpt lat="35.0539086" lon="32.3200291">
<ele>353.38</ele>
<time>2015-04-25T13:11:03Z</time>
</trkpt>
<trkpt lat="35.0539714" lon="32.3200050">
<ele>353.15</ele>
<time>2015-04-25T13:11:04Z</time>
</trkpt>
<trkpt lat="35.0540300" lon="32.3199868">
<ele>352.54</ele>
<time>2015-04-25T13:11:05Z</time>
</trkpt>
<trkpt lat="35.0540870" lon="32.3199685">
<ele>352.23</ele>
<time>2015-04-25T13:11:06Z</time>
</trkpt>
<trkpt lat="35.0541478" lon="32.3199512">
<ele>352.08</ele>
<time>2015-04-25T13:11:07Z</time>
</trkpt>
<trkpt lat="35.0541982" lon="32.3199441">
<ele>351.50</ele>
<time>2015-04-25T13:11:08Z</time>
</trkpt>
<trkpt lat="35.0542615" lon="32.3199413">
<ele>352.32</ele>
<time>2015-04-25T13:11:10Z</time>
</trkpt>
<trkpt lat="35.0543224" lon="32.3199322">
<ele>352.52</ele>
<time>2015-04-25T13:11:12Z</time>
</trkpt>
<trkpt lat="35.0543773" lon="32.3199332">
<ele>352.32</ele>
<time>2015-04-25T13:11:14Z</time>
</trkpt>
<trkpt lat="35.0544348" lon="32.3199566">
<ele>352.52</ele>
<time>2015-04-25T13:11:16Z</time>
</trkpt>
<trkpt lat="35.0544839" lon="32.3199836">
<ele>352.82</ele>
<time>2015-04-25T13:11:18Z</time>
</trkpt>
<trkpt lat="35.0545345" lon="32.3200111">
<ele>352.90</ele>
<time>2015-04-25T13:11:20Z</time>
</trkpt>
<trkpt lat="35.0545984" lon="32.3200342">
<ele>352.92</ele>
<time>2015-04-25T13:11:22Z</time>
</trkpt>
<trkpt lat="35.0546918" lon="32.3200818">
<ele>353.17</ele>
<time>2015-04-25T13:11:24Z</time>
</trkpt>
<trkpt lat="35.0547615" lon="32.3201332">
<ele>352.99</ele>
<time>2015-04-25T13:11:26Z</time>
</trkpt>
<trkpt lat="35.0548416" lon="32.3201594">
<ele>353.44</ele>
<time>2015-04-25T13:11:28Z</time>
</trkpt>
<trkpt lat="35.0549361" lon="32.3201969">
<ele>352.80</ele>
<time>2015-04-25T13:11:30Z</time>
</trkpt>
<trkpt lat="35.0549805" lon="32.3202078">
<ele>352.86</ele>
<time>2015-04-25T13:11:31Z</time>
</trkpt>
<trkpt lat="35.0550325" lon="32.3202019">
<ele>352.39</ele>
<time>2015-04-25T13:11:32Z</time>
</trkpt>
<trkpt lat="35.0550886" lon="32.3201931">
<ele>352.16</ele>
<time>2015-04-25T13:11:33Z</time>
</trkpt>
<trkpt lat="35.0551379" lon="32.3201898">
<ele>352.04</ele>
<time>2015-04-25T13:11:34Z</time>
</trkpt>
<trkpt lat="35.0551880" lon="32.3201752">
<ele>351.98</ele>
<time>2015-04-25T13:11:35Z</time>
</trkpt>
<trkpt lat="35.0552474" lon="32.3201307">
<ele>350.69</ele>
<time>2015-04-25T13:11:37Z</time>
</trkpt>
<trkpt lat="35.0552539" lon="32.3200539">
<ele>349.37</ele>
<time>2015-04-25T13:11:39Z</time>
</trkpt>
<trkpt lat="35.0552262" lon="32.3199769">
<ele>349.79</ele>
<time>2015-04-25T13:11:41Z</time>
</trkpt>
<trkpt lat="35.0551724" lon="32.3199126">
<ele>349.14</ele>
<time>2015-04-25T13:11:43Z</time>
</trkpt>
<trkpt lat="35.0551226" lon="32.3198393">
<ele>347.73</ele>
<time>2015-04-25T13:11:45Z</time>
</trkpt>
<trkpt lat="35.0550949" lon="32.3197934">
<ele>346.83</ele>
<time>2015-04-25T13:11:46Z</time>
</trkpt>
<trkpt lat="35.0550710" lon="32.3197466">
<ele>346.38</ele>
<time>2015-04-25T13:11:47Z</time>
</trkpt>
<trkpt lat="35.0550508" lon="32.3196775">
<ele>346.15</ele>
<time>2015-04-25T13:11:48Z</time>
</trkpt>
<trkpt lat="35.0550263" lon="32.3196224">
<ele>345.54</ele>
<time>2015-04-25T13:11:49Z</time>
</trkpt>
<trkpt lat="35.0549982" lon="32.3195737">
<ele>345.23</ele>
<time>2015-04-25T13:11:50Z</time>
</trkpt>
<trkpt lat="35.0549714" lon="32.3195242">
<ele>345.08</ele>
<time>2015-04-25T13:11:51Z</time>
</trkpt>
<trkpt lat="35.0549496" lon="32.3194754">
<ele>344.50</ele>
<time>2015-04-25T13:11:52Z</time>
</trkpt>
<trkpt lat="35.0549275" lon="32.3193687">
<ele>343.57</ele>
<time>2015-04-25T13:11:54Z</time>
</trkpt>
<trkpt lat="35.0549166" lon="32.3193030">
<ele>343.25</ele>
<time>2015-04-25T13:11:55Z</time>
</trkpt>
<trkpt lat="35.0549253" lon="32.3192394">
<ele>342.09</ele>
<time>2015-04-25T13:11:56Z</time>
</trkpt>
<trkpt lat="35.0549447" lon="32.3191616">
<ele>342.01</ele>
<time>2015-04-25T13:11:57Z</time>
</trkpt>
<trkpt lat="35.0549609" lon="32.3190908">
<ele>341.47</ele>
<time>2015-04-25T13:11:58Z</time>
</trkpt>
<trkpt lat="35.0549889" lon="32.3190092">
<ele>340.70</ele>
<time>2015-04-25T13:11:59Z</time>
</trkpt>
<trkpt lat="35.0550218" lon="32.3189258">
<ele>340.31</ele>
<time>2015-04-25T13:12:00Z</time>
</trkpt>
<trkpt lat="35.0550692" lon="32.3188361">
<ele>339.62</ele>
<time>2015-04-25T13:12:01Z</time>
</trkpt>
<trkpt lat="35.0551279" lon="32.3187486">
<ele>338.77</ele>
<time>2015-04-25T13:12:02Z</time>
</trkpt>
<trkpt lat="35.0551871" lon="32.3186667">
<ele>338.35</ele>
<time>2015-04-25T13:12:03Z</time>
</trkpt>
<trkpt lat="35.0552447" lon="32.3185747">
<ele>337.64</ele>
<time>2015-04-25T13:12:04Z</time>
</trkpt>
<trkpt lat="35.0553044" lon="32.3184751">
<ele>337.28</ele>
<time>2015-04-25T13:12:05Z</time>
</trkpt>
<trkpt lat="35.0553611" lon="32.3183794">
<ele>336.10</ele>
<time>2015-04-25T13:12:06Z</time>
</trkpt>
<trkpt lat="35.0554237" lon="32.3182870">
<ele>335.51</ele>
<time>2015-04-25T13:12:07Z</time>
</trkpt>
<trkpt lat="35.0554955" lon="32.3181878">
<ele>335.22</ele>
<time>2015-04-25T13:12:08Z</time>
</trkpt>
<trkpt lat="35.0555518" lon="32.3181050">
<ele>335.07</ele>
<time>2015-04-25T13:12:09Z</time>
</trkpt>
<trkpt lat="35.0556058" lon="32.3180501">
<ele>334.50</ele>
<time>2015-04-25T13:12:10Z</time>
</trkpt>
<trkpt lat="35.0556785" lon="32.3179971">
<ele>334.21</ele>
<time>2015-04-25T13:12:11Z</time>
</trkpt>
<trkpt lat="35.0557598" lon="32.3179494">
<ele>333.57</ele>
<time>2015-04-25T13:12:12Z</time>
</trkpt>
<trkpt lat="35.0558416" lon="32.3179005">
<ele>333.25</ele>
<time>2015-04-25T13:12:13Z</time>
</trkpt>
<trkpt lat="35.0559196" lon="32.3178607">
<ele>332.59</ele>
<time>2015-04-25T13:12:14Z</time>
</trkpt>
<trkpt lat="35.0559988" lon="32.3178183">
<ele>331.76</ele>
<time>2015-04-25T13:12:15Z</time>
</trkpt>
<trkpt lat="35.0560809" lon="32.3177751">
<ele>330.84</ele>
<time>2015-04-25T13:12:16Z</time>
</trkpt>
<trkpt lat="35.0561565" lon="32.3177388">
<ele>329.88</ele>
<time>2015-04-25T13:12:17Z</time>
</trkpt>
<trkpt lat="35.0562419" lon="32.3177050">
<ele>329.40</ele>
<time>2015-04-25T13:12:18Z</time>
</trkpt>
<trkpt lat="35.0563297" lon="32.3176719">
<ele>328.66</ele>
<time>2015-04-25T13:12:19Z</time>
</trkpt>
<trkpt lat="35.0564216" lon="32.3176390">
<ele>327.79</ele>
<time>2015-04-25T13:12:20Z</time>
</trkpt>
<trkpt lat="35.0564998" lon="32.3175897">
<ele>327.86</ele>
<time>2015-04-25T13:12:21Z</time>
</trkpt>
<trkpt lat="35.0565716" lon="32.3175307">
<ele>326.89</ele>
<time>2015-04-25T13:12:22Z</time>
</trkpt>
<trkpt lat="35.0566409" lon="32.3174734">
<ele>326.41</ele>
<time>2015-04-25T13:12:23Z</time>
</trkpt>
<trkpt lat="35.0566959" lon="32.3174133">
<ele>325.67</ele>
<time>2015-04-25T13:12:24Z</time>
</trkpt>
<trkpt lat="35.0567527" lon="32.3173542">
<ele>324.80</ele>
<time>2015-04-25T13:12:25Z</time>
</trkpt>
<trkpt lat="35.0568067" lon="32.3172741">
<ele>323.86</ele>
<time>2015-04-25T13:12:26Z</time>
</trkpt>
<trkpt lat="35.0568549" lon="32.3171982">
<ele>323.39</ele>
<time>2015-04-25T13:12:27Z</time>
</trkpt>
<trkpt lat="35.0568969" lon="32.3171201">
<ele>322.66</ele>
<time>2015-04-25T13:12:28Z</time>
</trkpt>
<trkpt lat="35.0569439" lon="32.3170367">
<ele>322.29</ele>
<time>2015-04-25T13:12:29Z</time>
</trkpt>
<trkpt lat="35.0569939" lon="32.3169508">
<ele>321.61</ele>
<time>2015-04-25T13:12:30Z</time>
</trkpt>
<trkpt lat="35.0570299" lon="32.3168796">
<ele>321.27</ele>
<time>2015-04-25T13:12:31Z</time>
</trkpt>
<trkpt lat="35.0570797" lon="32.3168071">
<ele>321.10</ele>
<time>2015-04-25T13:12:32Z</time>
</trkpt>
<trkpt lat="35.0571387" lon="32.3167291">
<ele>321.01</ele>
<time>2015-04-25T13:12:33Z</time>
</trkpt>
<trkpt lat="35.0571912" lon="32.3166638">
<ele>320.47</ele>
<time>2015-04-25T13:12:34Z</time>
</trkpt>
<trkpt lat="35.0572475" lon="32.3166010">
<ele>320.70</ele>
<time>2015-04-25T13:12:35Z</time>
</trkpt>
<trkpt lat="35.0573138" lon="32.3165543">
<ele>320.81</ele>
<time>2015-04-25T13:12:36Z</time>
</trkpt>
<trkpt lat="35.0573793" lon="32.3165264">
<ele>320.87</ele>
<time>2015-04-25T13:12:37Z</time>
</trkpt>
<trkpt lat="35.0574512" lon="32.3165009">
<ele>321.90</ele>
<time>2015-04-25T13:12:38Z</time>
</trkpt>
<trkpt lat="35.0575072" lon="32.3164827">
<ele>322.41</ele>
<time>2015-04-25T13:12:39Z</time>
</trkpt>
<trkpt lat="35.0575645" lon="32.3164696">
<ele>323.67</ele>
<time>2015-04-25T13:12:40Z</time>
</trkpt>
<trkpt lat="35.0576526" lon="32.3164780">
<ele>324.61</ele>
<time>2015-04-25T13:12:42Z</time>
</trkpt>
<trkpt lat="35.0577266" lon="32.3165211">
<ele>324.85</ele>
<time>2015-04-25T13:12:44Z</time>
</trkpt>
<trkpt lat="35.0577888" lon="32.3165854">
<ele>327.16</ele>
<time>2015-04-25T13:12:46Z</time>
</trkpt>
<trkpt lat="35.0578383" lon="32.3166373">
<ele>328.23</ele>
<time>2015-04-25T13:12:48Z</time>
</trkpt>
<trkpt lat="35.0578600" lon="32.3166961">
<ele>328.94</ele>
<time>2015-04-25T13:12:52Z</time>
</trkpt>
<trkpt lat="35.0578855" lon="32.3167465">
<ele>331.11</ele>
<time>2015-04-25T13:12:56Z</time>
</trkpt>
<trkpt lat="35.0579252" lon="32.3167906">
<ele>334.50</ele>
<time>2015-04-25T13:13:00Z</time>
</trkpt>
<trkpt lat="35.0579654" lon="32.3168203">
<ele>335.34</ele>
<time>2015-04-25T13:13:04Z</time>
</trkpt>
<trkpt lat="35.0580117" lon="32.3168121">
<ele>335.01</ele>
<time>2015-04-25T13:13:08Z</time>
</trkpt>
<trkpt lat="35.0580655" lon="32.3167960">
<ele>336.99</ele>
<time>2015-04-25T13:13:12Z</time>
</trkpt>
<trkpt lat="35.0581064" lon="32.3167707">
<ele>337.43</ele>
<time>2015-04-25T13:13:16Z</time>
</trkpt>
<trkpt lat="35.0581531" lon="32.3167325">
<ele>339.41</ele>
<time>2015-04-25T13:13:21Z</time>
</trkpt>
<trkpt lat="35.0581827" lon="32.3166881">
<ele>339.58</ele>
<time>2015-04-25T13:13:25Z</time>
</trkpt>
<trkpt lat="35.0582307" lon="32.3166542">
<ele>339.54</ele>
<time>2015-04-25T13:13:30Z</time>
</trkpt>
<trkpt lat="35.0582778" lon="32.3166336">
<ele>340.66</ele>
<time>2015-04-25T13:13:35Z</time>
</trkpt>
<trkpt lat="35.0583253" lon="32.3166135">
<ele>342.35</ele>
<time>2015-04-25T13:13:40Z</time>
</trkpt>
<trkpt lat="35.0583727" lon="32.3165974">
<ele>342.45</ele>
<time>2015-04-25T13:13:44Z</time>
</trkpt>
<trkpt lat="35.0584207" lon="32.3165642">
<ele>342.04</ele>
<time>2015-04-25T13:13:49Z</time>
</trkpt>
<trkpt lat="35.0584656" lon="32.3165348">
<ele>343.00</ele>
<time>2015-04-25T13:13:55Z</time>
</trkpt>
<trkpt lat="35.0585114" lon="32.3165464">
<ele>345.18</ele>
<time>2015-04-25T13:13:59Z</time>
</trkpt>
<trkpt lat="35.0585560" lon="32.3165698">
<ele>345.38</ele>
<time>2015-04-25T13:14:03Z</time>
</trkpt>
<trkpt lat="35.0586032" lon="32.3165792">
<ele>343.33</ele>
<time>2015-04-25T13:14:07Z</time>
</trkpt>
<trkpt lat="35.0586499" lon="32.3165867">
<ele>342.33</ele>
<time>2015-04-25T13:14:11Z</time>
</trkpt>
<trkpt lat="35.0587038" lon="32.3166025">
<ele>341.64</ele>
<time>2015-04-25T13:14:15Z</time>
</trkpt>
<trkpt lat="35.0587632" lon="32.3166003">
<ele>341.34</ele>
<time>2015-04-25T13:14:19Z</time>
</trkpt>
<trkpt lat="35.0588165" lon="32.3165878">
<ele>342.23</ele>
<time>2015-04-25T13:14:22Z</time>
</trkpt>
<trkpt lat="35.0588682" lon="32.3165808">
<ele>343.71</ele>
<time>2015-04-25T13:14:25Z</time>
</trkpt>
<trkpt lat="35.0589167" lon="32.3165660">
<ele>343.90</ele>
<time>2015-04-25T13:14:28Z</time>
</trkpt>
<trkpt lat="35.0589645" lon="32.3165498">
<ele>343.92</ele>
<time>2015-04-25T13:14:30Z</time>
</trkpt>
<trkpt lat="35.0590186" lon="32.3165285">
<ele>344.67</ele>
<time>2015-04-25T13:14:32Z</time>
</trkpt>
<trkpt lat="35.0590734" lon="32.3165070">
<ele>344.86</ele>
<time>2015-04-25T13:14:34Z</time>
</trkpt>
<trkpt lat="35.0591265" lon="32.3164853">
<ele>344.91</ele>
<time>2015-04-25T13:14:36Z</time>
</trkpt>
<trkpt lat="35.0591874" lon="32.3164646">
<ele>344.92</ele>
<time>2015-04-25T13:14:38Z</time>
</trkpt>
<trkpt lat="35.0592502" lon="32.3164437">
<ele>345.42</ele>
<time>2015-04-25T13:14:40Z</time>
</trkpt>
<trkpt lat="35.0593131" lon="32.3164237">
<ele>345.80</ele>
<time>2015-04-25T13:14:42Z</time>
</trkpt>
<trkpt lat="35.0593758" lon="32.3164055">
<ele>345.89</ele>
<time>2015-04-25T13:14:44Z</time>
</trkpt>
<trkpt lat="35.0594441" lon="32.3163886">
<ele>345.17</ele>
<time>2015-04-25T13:14:46Z</time>
</trkpt>
<trkpt lat="35.0595128" lon="32.3163740">
<ele>344.74</ele>
<time>2015-04-25T13:14:48Z</time>
</trkpt>
<trkpt lat="35.0595733" lon="32.3163618">
<ele>346.13</ele>
<time>2015-04-25T13:14:50Z</time>
</trkpt>
<trkpt lat="35.0596339" lon="32.3163581">
<ele>346.73</ele>
<time>2015-04-25T13:14:52Z</time>
</trkpt>
<trkpt lat="35.0596948" lon="32.3163600">
<ele>346.88</ele>
<time>2015-04-25T13:14:54Z</time>
</trkpt>
<trkpt lat="35.0597526" lon="32.3163656">
<ele>346.91</ele>
<time>2015-04-25T13:14:56Z</time>
</trkpt>
<trkpt lat="35.0598030" lon="32.3163806">
<ele>348.17</ele>
<time>2015-04-25T13:14:58Z</time>
</trkpt>
<trkpt lat="35.0598563" lon="32.3164002">
<ele>348.46</ele>
<time>2015-04-25T13:15:01Z</time>
</trkpt>
<trkpt lat="35.0599095" lon="32.3163880">
<ele>348.83</ele>
<time>2015-04-25T13:15:05Z</time>
</trkpt>
<trkpt lat="35.0599493" lon="32.3163554">
<ele>349.41</ele>
<time>2015-04-25T13:15:08Z</time>
</trkpt>
<trkpt lat="35.0600069" lon="32.3163253">
<ele>350.24</ele>
<time>2015-04-25T13:15:11Z</time>
</trkpt>
<trkpt lat="35.0600580" lon="32.3162874">
<ele>349.50</ele>
<time>2015-04-25T13:15:13Z</time>
</trkpt>
<trkpt lat="35.0601198" lon="32.3162325">
<ele>349.07</ele>
<time>2015-04-25T13:15:15Z</time>
</trkpt>
<trkpt lat="35.0601798" lon="32.3161691">
<ele>350.21</ele>
<time>2015-04-25T13:15:17Z</time>
</trkpt>
<trkpt lat="35.0602295" lon="32.3161058">
<ele>349.50</ele>
<time>2015-04-25T13:15:19Z</time>
</trkpt>
<trkpt lat="35.0602669" lon="32.3160391">
<ele>349.32</ele>
<time>2015-04-25T13:15:21Z</time>
</trkpt>
<trkpt lat="35.0602884" lon="32.3159780">
<ele>348.52</ele>
<time>2015-04-25T13:15:23Z</time>
</trkpt>
<trkpt lat="35.0603094" lon="32.3159269">
<ele>348.32</ele>
<time>2015-04-25T13:15:25Z</time>
</trkpt>
<trkpt lat="35.0603384" lon="32.3158800">
<ele>347.52</ele>
<time>2015-04-25T13:15:27Z</time>
</trkpt>
<trkpt lat="35.0603623" lon="32.3158190">
<ele>347.57</ele>
<time>2015-04-25T13:15:29Z</time>
</trkpt>
<trkpt lat="35.0603797" lon="32.3157547">
<ele>347.84</ele>
<time>2015-04-25T13:15:31Z</time>
</trkpt>
<trkpt lat="35.0604010" lon="32.3156865">
<ele>348.65</ele>
<time>2015-04-25T13:15:33Z</time>
</trkpt>
<trkpt lat="35.0604144" lon="32.3156233">
<ele>348.11</ele>
<time>2015-04-25T13:15:35Z</time>
</trkpt>
<trkpt lat="35.0604211" lon="32.3155604">
<ele>347.22</ele>
<time>2015-04-25T13:15:37Z</time>
</trkpt>
<trkpt lat="35.0604287" lon="32.3154918">
<ele>346.50</ele>
<time>2015-04-25T13:15:39Z</time>
</trkpt>
<trkpt lat="35.0604414" lon="32.3154219">
<ele>344.82</ele>
<time>2015-04-25T13:15:41Z</time>
</trkpt>
<trkpt lat="35.0604464" lon="32.3153566">
<ele>344.15</ele>
<time>2015-04-25T13:15:43Z</time>
</trkpt>
<trkpt lat="35.0604537" lon="32.3152902">
<ele>343.23</ele>
<time>2015-04-25T13:15:45Z</time>
</trkpt>
<trkpt lat="35.0604654" lon="32.3152210">
<ele>344.25</ele>
<time>2015-04-25T13:15:47Z</time>
</trkpt>
<trkpt lat="35.0604732" lon="32.3151451">
<ele>344.51</ele>
<time>2015-04-25T13:15:49Z</time>
</trkpt>
<trkpt lat="35.0604689" lon="32.3150735">
<ele>343.57</ele>
<time>2015-04-25T13:15:51Z</time>
</trkpt>
<trkpt lat="35.0604615" lon="32.3150082">
<ele>342.59</ele>
<time>2015-04-25T13:15:53Z</time>
</trkpt>
<trkpt lat="35.0604498" lon="32.3149458">
<ele>341.34</ele>
<time>2015-04-25T13:15:55Z</time>
</trkpt>
<trkpt lat="35.0604221" lon="32.3148849">
<ele>340.28</ele>
<time>2015-04-25T13:15:57Z</time>
</trkpt>
<trkpt lat="35.0603843" lon="32.3148280">
<ele>340.76</ele>
<time>2015-04-25T13:15:59Z</time>
</trkpt>
<trkpt lat="35.0603329" lon="32.3147764">
<ele>340.13</ele>
<time>2015-04-25T13:16:01Z</time>
</trkpt>
<trkpt lat="35.0602743" lon="32.3147142">
<ele>339.98</ele>
<time>2015-04-25T13:16:03Z</time>
</trkpt>
<trkpt lat="35.0602172" lon="32.3146403">
<ele>339.95</ele>
<time>2015-04-25T13:16:04Z</time>
</trkpt>
<trkpt lat="35.0601927" lon="32.3145828">
<ele>339.94</ele>
<time>2015-04-25T13:16:05Z</time>
</trkpt>
<trkpt lat="35.0601729" lon="32.3145152">
<ele>339.43</ele>
<time>2015-04-25T13:16:06Z</time>
</trkpt>
<trkpt lat="35.0601548" lon="32.3144554">
<ele>338.68</ele>
<time>2015-04-25T13:16:07Z</time>
</trkpt>
<trkpt lat="35.0601465" lon="32.3143864">
<ele>337.80</ele>
<time>2015-04-25T13:16:08Z</time>
</trkpt>
<trkpt lat="35.0601465" lon="32.3143264">
<ele>336.36</ele>
<time>2015-04-25T13:16:09Z</time>
</trkpt>
<trkpt lat="35.0601335" lon="32.3142484">
<ele>335.14</ele>
<time>2015-04-25T13:16:10Z</time>
</trkpt>
<trkpt lat="35.0601185" lon="32.3141700">
<ele>334.53</ele>
<time>2015-04-25T13:16:11Z</time>
</trkpt>
<trkpt lat="35.0600941" lon="32.3140894">
<ele>333.73</ele>
<time>2015-04-25T13:16:12Z</time>
</trkpt>
<trkpt lat="35.0600632" lon="32.3140066">
<ele>333.33</ele>
<time>2015-04-25T13:16:13Z</time>
</trkpt>
<trkpt lat="35.0600288" lon="32.3139239">
<ele>332.63</ele>
<time>2015-04-25T13:16:14Z</time>
</trkpt>
<trkpt lat="35.0599945" lon="32.3138447">
<ele>331.78</ele>
<time>2015-04-25T13:16:15Z</time>
</trkpt>
<trkpt lat="35.0599563" lon="32.3137630">
<ele>331.35</ele>
<time>2015-04-25T13:16:16Z</time>
</trkpt>
<trkpt lat="35.0599302" lon="32.3136780">
<ele>331.14</ele>
<time>2015-04-25T13:16:17Z</time>
</trkpt>
<trkpt lat="35.0599074" lon="32.3136014">
<ele>330.03</ele>
<time>2015-04-25T13:16:18Z</time>
</trkpt>
<trkpt lat="35.0598964" lon="32.3135202">
<ele>328.98</ele>
<time>2015-04-25T13:16:19Z</time>
</trkpt>
<trkpt lat="35.0598910" lon="32.3134273">
<ele>328.45</ele>
<time>2015-04-25T13:16:20Z</time>
</trkpt>
<trkpt lat="35.0598948" lon="32.3133293">
<ele>328.19</ele>
<time>2015-04-25T13:16:21Z</time>
</trkpt>
<trkpt lat="35.0598916" lon="32.3132277">
<ele>327.56</ele>
<time>2015-04-25T13:16:22Z</time>
</trkpt>
<trkpt lat="35.0598996" lon="32.3131246">
<ele>326.74</ele>
<time>2015-04-25T13:16:23Z</time>
</trkpt>
<trkpt lat="35.0599257" lon="32.3130093">
<ele>326.33</ele>
<time>2015-04-25T13:16:24Z</time>
</trkpt>
<trkpt lat="35.0599526" lon="32.3129232">
<ele>326.63</ele>
<time>2015-04-25T13:16:25Z</time>
</trkpt>
<trkpt lat="35.0599912" lon="32.3128248">
<ele>326.28</ele>
<time>2015-04-25T13:16:26Z</time>
</trkpt>
<trkpt lat="35.0600458" lon="32.3127379">
<ele>326.60</ele>
<time>2015-04-25T13:16:27Z</time>
</trkpt>
<trkpt lat="35.0600962" lon="32.3126450">
<ele>326.26</ele>
<time>2015-04-25T13:16:28Z</time>
</trkpt>
<trkpt lat="35.0601516" lon="32.3125698">
<ele>327.59</ele>
<time>2015-04-25T13:16:29Z</time>
</trkpt>
<trkpt lat="35.0601960" lon="32.3124843">
<ele>328.26</ele>
<time>2015-04-25T13:16:30Z</time>
</trkpt>
<trkpt lat="35.0602436" lon="32.3124053">
<ele>328.59</ele>
<time>2015-04-25T13:16:31Z</time>
</trkpt>
<trkpt lat="35.0603021" lon="32.3123323">
<ele>329.76</ele>
<time>2015-04-25T13:16:32Z</time>
</trkpt>
<trkpt lat="35.0603454" lon="32.3122621">
<ele>329.84</ele>
<time>2015-04-25T13:16:33Z</time>
</trkpt>
<trkpt lat="35.0603858" lon="32.3121944">
<ele>330.38</ele>
<time>2015-04-25T13:16:34Z</time>
</trkpt>
<trkpt lat="35.0604229" lon="32.3121466">
<ele>330.15</ele>
<time>2015-04-25T13:16:35Z</time>
</trkpt>
<trkpt lat="35.0604766" lon="32.3121065">
<ele>330.04</ele>
<time>2015-04-25T13:16:36Z</time>
</trkpt>
<trkpt lat="35.0605378" lon="32.3120745">
<ele>329.48</ele>
<time>2015-04-25T13:16:37Z</time>
</trkpt>
<trkpt lat="35.0605898" lon="32.3120368">
<ele>328.70</ele>
<time>2015-04-25T13:16:38Z</time>
</trkpt>
<trkpt lat="35.0606456" lon="32.3119939">
<ele>327.81</ele>
<time>2015-04-25T13:16:39Z</time>
</trkpt>
<trkpt lat="35.0607090" lon="32.3119500">
<ele>327.37</ele>
<time>2015-04-25T13:16:40Z</time>
</trkpt>
<trkpt lat="35.0607698" lon="32.3119093">
<ele>326.15</ele>
<time>2015-04-25T13:16:41Z</time>
</trkpt>
<trkpt lat="35.0608434" lon="32.3118552">
<ele>325.54</ele>
<time>2015-04-25T13:16:42Z</time>
</trkpt>
<trkpt lat="35.0609064" lon="32.3117888">
<ele>324.73</ele>
<time>2015-04-25T13:16:43Z</time>
</trkpt>
<trkpt lat="35.0609782" lon="32.3117229">
<ele>322.83</ele>
<time>2015-04-25T13:16:44Z</time>
</trkpt>
<trkpt lat="35.0610470" lon="32.3116404">
<ele>321.88</ele>
<time>2015-04-25T13:16:45Z</time>
</trkpt>
<trkpt lat="35.0611075" lon="32.3115634">
<ele>320.40</ele>
<time>2015-04-25T13:16:46Z</time>
</trkpt>
<trkpt lat="35.0611592" lon="32.3114899">
<ele>319.16</ele>
<time>2015-04-25T13:16:47Z</time>
</trkpt>
<trkpt lat="35.0612150" lon="32.3114175">
<ele>318.04</ele>
<time>2015-04-25T13:16:48Z</time>
</trkpt>
<trkpt lat="35.0612926" lon="32.3113541">
<ele>317.48</ele>
<time>2015-04-25T13:16:49Z</time>
</trkpt>
<trkpt lat="35.0613618" lon="32.3113004">
<ele>317.20</ele>
<time>2015-04-25T13:16:50Z</time>
</trkpt>
<trkpt lat="35.0614372" lon="32.3112530">
<ele>316.56</ele>
<time>2015-04-25T13:16:51Z</time>
</trkpt>
<trkpt lat="35.0615090" lon="32.3112043">
<ele>315.74</ele>
<time>2015-04-25T13:16:52Z</time>
</trkpt>
<trkpt lat="35.0615765" lon="32.3111336">
<ele>314.83</ele>
<time>2015-04-25T13:16:53Z</time>
</trkpt>
<trkpt lat="35.0616404" lon="32.3110578">
<ele>314.38</ele>
<time>2015-04-25T13:16:54Z</time>
</trkpt>
<trkpt lat="35.0617022" lon="32.3109795">
<ele>313.65</ele>
<time>2015-04-25T13:16:55Z</time>
</trkpt>
<trkpt lat="35.0617635" lon="32.3109053">
<ele>312.79</ele>
<time>2015-04-25T13:16:56Z</time>
</trkpt>
<trkpt lat="35.0618220" lon="32.3108274">
<ele>311.86</ele>
<time>2015-04-25T13:16:57Z</time>
</trkpt>
<trkpt lat="35.0618848" lon="32.3107544">
<ele>310.39</ele>
<time>2015-04-25T13:16:58Z</time>
</trkpt>
<trkpt lat="35.0619545" lon="32.3106799">
<ele>308.66</ele>
<time>2015-04-25T13:16:59Z</time>
</trkpt>
<trkpt lat="35.0620227" lon="32.3106046">
<ele>307.79</ele>
<time>2015-04-25T13:17:00Z</time>
</trkpt>
<trkpt lat="35.0620850" lon="32.3105265">
<ele>306.86</ele>
<time>2015-04-25T13:17:01Z</time>
</trkpt>
<trkpt lat="35.0621376" lon="32.3104634">
<ele>305.89</ele>
<time>2015-04-25T13:17:02Z</time>
</trkpt>
<trkpt lat="35.0621820" lon="32.3104018">
<ele>305.41</ele>
<time>2015-04-25T13:17:03Z</time>
</trkpt>
<trkpt lat="35.0622268" lon="32.3103314">
<ele>304.67</ele>
<time>2015-04-25T13:17:04Z</time>
</trkpt>
<trkpt lat="35.0622810" lon="32.3102813">
<ele>303.30</ele>
<time>2015-04-25T13:17:05Z</time>
</trkpt>
<trkpt lat="35.0623243" lon="32.3102141">
<ele>302.61</ele>
<time>2015-04-25T13:17:06Z</time>
</trkpt>
<trkpt lat="35.0623702" lon="32.3101384">
<ele>301.77</ele>
<time>2015-04-25T13:17:07Z</time>
</trkpt>
<trkpt lat="35.0624229" lon="32.3100625">
<ele>300.85</ele>
<time>2015-04-25T13:17:08Z</time>
</trkpt>
<trkpt lat="35.0624643" lon="32.3099868">
<ele>299.39</ele>
<time>2015-04-25T13:17:09Z</time>
</trkpt>
<trkpt lat="35.0625113" lon="32.3099148">
<ele>298.16</ele>
<time>2015-04-25T13:17:10Z</time>
</trkpt>
<trkpt lat="35.0625543" lon="32.3098401">
<ele>297.04</ele>
<time>2015-04-25T13:17:11Z</time>
</trkpt>
<trkpt lat="35.0625970" lon="32.3097892">
<ele>295.98</ele>
<time>2015-04-25T13:17:12Z</time>
</trkpt>
<trkpt lat="35.0626534" lon="32.3097423">
<ele>294.95</ele>
<time>2015-04-25T13:17:13Z</time>
</trkpt>
<trkpt lat="35.0627115" lon="32.3096993">
<ele>294.44</ele>
<time>2015-04-25T13:17:14Z</time>
</trkpt>
<trkpt lat="35.0627703" lon="32.3096597">
<ele>294.18</ele>
<time>2015-04-25T13:17:15Z</time>
</trkpt>
<trkpt lat="35.0628263" lon="32.3096120">
<ele>294.05</ele>
<time>2015-04-25T13:17:16Z</time>
</trkpt>
<trkpt lat="35.0628803" lon="32.3095485">
<ele>293.49</ele>
<time>2015-04-25T13:17:17Z</time>
</trkpt>
<trkpt lat="35.0629222" lon="32.3094935">
<ele>292.71</ele>
<time>2015-04-25T13:17:18Z</time>
</trkpt>
<trkpt lat="35.0629521" lon="32.3094314">
<ele>291.82</ele>
<time>2015-04-25T13:17:19Z</time>
</trkpt>
<trkpt lat="35.0629709" lon="32.3093654">
<ele>291.37</ele>
<time>2015-04-25T13:17:20Z</time>
</trkpt>
<trkpt lat="35.0629970" lon="32.3092975">
<ele>291.15</ele>
<time>2015-04-25T13:17:21Z</time>
</trkpt>
<trkpt lat="35.0630272" lon="32.3092306">
<ele>290.54</ele>
<time>2015-04-25T13:17:22Z</time>
</trkpt>
<trkpt lat="35.0630550" lon="32.3091600">
<ele>290.23</ele>
<time>2015-04-25T13:17:23Z</time>
</trkpt>
<trkpt lat="35.0630871" lon="32.3090778">
<ele>290.58</ele>
<time>2015-04-25T13:17:24Z</time>
</trkpt>
<trkpt lat="35.0631191" lon="32.3090131">
<ele>291.75</ele>
<time>2015-04-25T13:17:25Z</time>
</trkpt>
<trkpt lat="35.0631401" lon="32.3089338">
<ele>291.34</ele>
<time>2015-04-25T13:17:26Z</time>
</trkpt>
<trkpt lat="35.0631476" lon="32.3088457">
<ele>290.63</ele>
<time>2015-04-25T13:17:27Z</time>
</trkpt>
<trkpt lat="35.0631544" lon="32.3087534">
<ele>290.28</ele>
<time>2015-04-25T13:17:28Z</time>
</trkpt>
<trkpt lat="35.0631625" lon="32.3086673">
<ele>289.10</ele>
<time>2015-04-25T13:17:29Z</time>
</trkpt>
<trkpt lat="35.0631830" lon="32.3085782">
<ele>288.51</ele>
<time>2015-04-25T13:17:30Z</time>
</trkpt>
<trkpt lat="35.0632097" lon="32.3084934">
<ele>289.22</ele>
<time>2015-04-25T13:17:31Z</time>
</trkpt>
<trkpt lat="35.0632338" lon="32.3084021">
<ele>289.57</ele>
<time>2015-04-25T13:17:32Z</time>
</trkpt>
<trkpt lat="35.0632513" lon="32.3082999">
<ele>289.75</ele>
<time>2015-04-25T13:17:33Z</time>
</trkpt>
<trkpt lat="35.0632694" lon="32.3082269">
<ele>289.34</ele>
<time>2015-04-25T13:17:34Z</time>
</trkpt>
<trkpt lat="35.0632992" lon="32.3081584">
<ele>288.63</ele>
<time>2015-04-25T13:17:35Z</time>
</trkpt>
<trkpt lat="35.0633395" lon="32.3080926">
<ele>287.78</ele>
<time>2015-04-25T13:17:36Z</time>
</trkpt>
<trkpt lat="35.0633763" lon="32.3080332">
<ele>287.35</ele>
<time>2015-04-25T13:17:37Z</time>
</trkpt>
<trkpt lat="35.0634065" lon="32.3079818">
<ele>286.64</ele>
<time>2015-04-25T13:17:38Z</time>
</trkpt>
<trkpt lat="35.0634452" lon="32.3079272">
<ele>285.78</ele>
<time>2015-04-25T13:17:39Z</time>
</trkpt>
<trkpt lat="35.0634757" lon="32.3078619">
<ele>284.85</ele>
<time>2015-04-25T13:17:40Z</time>
</trkpt>
<trkpt lat="35.0635052" lon="32.3077922">
<ele>283.89</ele>
<time>2015-04-25T13:17:41Z</time>
</trkpt>
<trkpt lat="35.0635334" lon="32.3077259">
<ele>282.91</ele>
<time>2015-04-25T13:17:42Z</time>
</trkpt>
<trkpt lat="35.0635705" lon="32.3076514">
<ele>281.92</ele>
<time>2015-04-25T13:17:43Z</time>
</trkpt>
<trkpt lat="35.0635993" lon="32.3075710">
<ele>280.92</ele>
<time>2015-04-25T13:17:44Z</time>
</trkpt>
<trkpt lat="35.0636262" lon="32.3074964">
<ele>279.92</ele>
<time>2015-04-25T13:17:45Z</time>
</trkpt>
<trkpt lat="35.0636509" lon="32.3074119">
<ele>279.42</ele>
<time>2015-04-25T13:17:46Z</time>
</trkpt>
<trkpt lat="35.0636708" lon="32.3073372">
<ele>279.17</ele>
<time>2015-04-25T13:17:47Z</time>
</trkpt>
<trkpt lat="35.0636896" lon="32.3072600">
<ele>279.05</ele>
<time>2015-04-25T13:17:48Z</time>
</trkpt>
<trkpt lat="35.0637139" lon="32.3072033">
<ele>278.99</ele>
<time>2015-04-25T13:17:49Z</time>
</trkpt>
<trkpt lat="35.0637727" lon="32.3071181">
<ele>278.94</ele>
<time>2015-04-25T13:17:51Z</time>
</trkpt>
<trkpt lat="35.0638105" lon="32.3070778">
<ele>278.93</ele>
<time>2015-04-25T13:17:52Z</time>
</trkpt>
<trkpt lat="35.0638414" lon="32.3070364">
<ele>278.43</ele>
<time>2015-04-25T13:17:53Z</time>
</trkpt>
<trkpt lat="35.0638934" lon="32.3069487">
<ele>277.55</ele>
<time>2015-04-25T13:17:55Z</time>
</trkpt>
<trkpt lat="35.0639334" lon="32.3068739">
<ele>277.58</ele>
<time>2015-04-25T13:17:57Z</time>
</trkpt>
<trkpt lat="35.0639918" lon="32.3067902">
<ele>280.59</ele>
<time>2015-04-25T13:17:59Z</time>
</trkpt>
<trkpt lat="35.0640380" lon="32.3067311">
<ele>282.84</ele>
<time>2015-04-25T13:18:01Z</time>
</trkpt>
<trkpt lat="35.0640817" lon="32.3066586">
<ele>285.29</ele>
<time>2015-04-25T13:18:04Z</time>
</trkpt>
<trkpt lat="35.0641156" lon="32.3066220">
<ele>286.02</ele>
<time>2015-04-25T13:18:06Z</time>
</trkpt>
<trkpt lat="35.0641711" lon="32.3065866">
<ele>285.19</ele>
<time>2015-04-25T13:18:09Z</time>
</trkpt>
<trkpt lat="35.0642155" lon="32.3065708">
<ele>284.24</ele>
<time>2015-04-25T13:18:11Z</time>
</trkpt>
<trkpt lat="35.0642667" lon="32.3065383">
<ele>283.25</ele>
<time>2015-04-25T13:18:13Z</time>
</trkpt>
<trkpt lat="35.0643513" lon="32.3064591">
<ele>283.01</ele>
<time>2015-04-25T13:18:15Z</time>
</trkpt>
<trkpt lat="35.0643924" lon="32.3064226">
<ele>282.47</ele>
<time>2015-04-25T13:18:16Z</time>
</trkpt>
<trkpt lat="35.0644291" lon="32.3063814">
<ele>282.70</ele>
<time>2015-04-25T13:18:17Z</time>
</trkpt>
<trkpt lat="35.0644643" lon="32.3063314">
<ele>282.81</ele>
<time>2015-04-25T13:18:18Z</time>
</trkpt>
<trkpt lat="35.0645031" lon="32.3062797">
<ele>282.87</ele>
<time>2015-04-25T13:18:19Z</time>
</trkpt>
<trkpt lat="35.0645504" lon="32.3062226">
<ele>283.40</ele>
<time>2015-04-25T13:18:20Z</time>
</trkpt>
<trkpt lat="35.0645969" lon="32.3061734">
<ele>283.66</ele>
<time>2015-04-25T13:18:21Z</time>
</trkpt>
<trkpt lat="35.0646496" lon="32.3061128">
<ele>283.29</ele>
<time>2015-04-25T13:18:22Z</time>
</trkpt>
<trkpt lat="35.0646986" lon="32.3060651">
<ele>283.61</ele>
<time>2015-04-25T13:18:23Z</time>
</trkpt>
<trkpt lat="35.0647508" lon="32.3060355">
<ele>283.27</ele>
<time>2015-04-25T13:18:24Z</time>
</trkpt>
<trkpt lat="35.0647999" lon="32.3060095">
<ele>283.60</ele>
<time>2015-04-25T13:18:25Z</time>
</trkpt>
<trkpt lat="35.0648386" lon="32.3059751">
<ele>283.76</ele>
<time>2015-04-25T13:18:26Z</time>
</trkpt>
<trkpt lat="35.0648869" lon="32.3059524">
<ele>283.13</ele>
<time>2015-04-25T13:18:28Z</time>
</trkpt>
<trkpt lat="35.0649349" lon="32.3059474">
<ele>281.42</ele>
<time>2015-04-25T13:21:26Z</time>
</trkpt>
<trkpt lat="35.0649786" lon="32.3059155">
<ele>281.30</ele>
<time>2015-04-25T13:21:28Z</time>
</trkpt>
<trkpt lat="35.0650344" lon="32.3058678">
<ele>281.27</ele>
<time>2015-04-25T13:21:30Z</time>
</trkpt>
<trkpt lat="35.0650836" lon="32.3058110">
<ele>280.26</ele>
<time>2015-04-25T13:21:32Z</time>
</trkpt>
<trkpt lat="35.0651339" lon="32.3057465">
<ele>279.26</ele>
<time>2015-04-25T13:21:34Z</time>
</trkpt>
<trkpt lat="35.0652199" lon="32.3056370">
<ele>277.76</ele>
<time>2015-04-25T13:21:36Z</time>
</trkpt>
<trkpt lat="35.0652486" lon="32.3055790">
<ele>277.34</ele>
<time>2015-04-25T13:21:37Z</time>
</trkpt>
<trkpt lat="35.0652775" lon="32.3055171">
<ele>276.63</ele>
<time>2015-04-25T13:21:38Z</time>
</trkpt>
<trkpt lat="35.0653077" lon="32.3054542">
<ele>275.28</ele>
<time>2015-04-25T13:21:39Z</time>
</trkpt>
<trkpt lat="35.0653334" lon="32.3053846">
<ele>274.60</ele>
<time>2015-04-25T13:21:40Z</time>
</trkpt>
<trkpt lat="35.0653702" lon="32.3053012">
<ele>275.26</ele>
<time>2015-04-25T13:21:41Z</time>
</trkpt>
<trkpt lat="35.0654054" lon="32.3052354">
<ele>275.09</ele>
<time>2015-04-25T13:21:42Z</time>
</trkpt>
<trkpt lat="35.0654363" lon="32.3051631">
<ele>275.51</ele>
<time>2015-04-25T13:21:43Z</time>
</trkpt>
<trkpt lat="35.0654737" lon="32.3050940">
<ele>275.22</ele>
<time>2015-04-25T13:21:44Z</time>
</trkpt>
<trkpt lat="35.0655048" lon="32.3050286">
<ele>275.07</ele>
<time>2015-04-25T13:21:45Z</time>
</trkpt>
<trkpt lat="35.0655388" lon="32.3049636">
<ele>275.00</ele>
<time>2015-04-25T13:21:46Z</time>
</trkpt>
<trkpt lat="35.0655726" lon="32.3048888">
<ele>273.96</ele>
<time>2015-04-25T13:21:47Z</time>
</trkpt>
<trkpt lat="35.0656118" lon="32.3048020">
<ele>272.44</ele>
<time>2015-04-25T13:21:48Z</time>
</trkpt>
<trkpt lat="35.0656402" lon="32.3047077">
<ele>270.68</ele>
<time>2015-04-25T13:21:49Z</time>
</trkpt>
<trkpt lat="35.0656629" lon="32.3046168">
<ele>269.30</ele>
<time>2015-04-25T13:21:50Z</time>
</trkpt>
<trkpt lat="35.0656916" lon="32.3045273">
<ele>268.11</ele>
<time>2015-04-25T13:21:51Z</time>
</trkpt>
<trkpt lat="35.0657143" lon="32.3044549">
<ele>267.02</ele>
<time>2015-04-25T13:21:52Z</time>
</trkpt>
<trkpt lat="35.0657464" lon="32.3043799">
<ele>266.20</ele>
<time>2015-04-25T13:21:54Z</time>
</trkpt>
<trkpt lat="35.0657518" lon="32.3043013">
<ele>257.67</ele>
<time>2015-04-25T13:22:44Z</time>
</trkpt>
<trkpt lat="35.0657693" lon="32.3042506">
<ele>255.86</ele>
<time>2015-04-25T13:22:46Z</time>
</trkpt>
<trkpt lat="35.0657945" lon="32.3041879">
<ele>255.16</ele>
<time>2015-04-25T13:22:48Z</time>
</trkpt>
<trkpt lat="35.0658210" lon="32.3041171">
<ele>253.73</ele>
<time>2015-04-25T13:22:50Z</time>
</trkpt>
<trkpt lat="35.0658622" lon="32.3040380">
<ele>253.63</ele>
<time>2015-04-25T13:22:52Z</time>
</trkpt>
<trkpt lat="35.0659342" lon="32.3039264">
<ele>252.60</ele>
<time>2015-04-25T13:22:54Z</time>
</trkpt>
<trkpt lat="35.0659633" lon="32.3038720">
<ele>251.76</ele>
<time>2015-04-25T13:22:55Z</time>
</trkpt>
<trkpt lat="35.0659984" lon="32.3038164">
<ele>250.34</ele>
<time>2015-04-25T13:22:56Z</time>
</trkpt>
<trkpt lat="35.0660306" lon="32.3037678">
<ele>249.63</ele>
<time>2015-04-25T13:22:57Z</time>
</trkpt>
<trkpt lat="35.0660722" lon="32.3037117">
<ele>248.28</ele>
<time>2015-04-25T13:22:58Z</time>
</trkpt>
<trkpt lat="35.0661003" lon="32.3036593">
<ele>247.10</ele>
<time>2015-04-25T13:22:59Z</time>
</trkpt>
<trkpt lat="35.0661391" lon="32.3035997">
<ele>246.51</ele>
<time>2015-04-25T13:23:00Z</time>
</trkpt>
<trkpt lat="35.0661778" lon="32.3035422">
<ele>246.22</ele>
<time>2015-04-25T13:23:01Z</time>
</trkpt>
<trkpt lat="35.0662223" lon="32.3034792">
<ele>246.07</ele>
<time>2015-04-25T13:23:02Z</time>
</trkpt>
<trkpt lat="35.0662594" lon="32.3034195">
<ele>245.50</ele>
<time>2015-04-25T13:23:03Z</time>
</trkpt>
<trkpt lat="35.0662908" lon="32.3033621">
<ele>244.71</ele>
<time>2015-04-25T13:23:04Z</time>
</trkpt>
<trkpt lat="35.0663294" lon="32.3033043">
<ele>243.82</ele>
<time>2015-04-25T13:23:05Z</time>
</trkpt>
<trkpt lat="35.0663685" lon="32.3032450">
<ele>243.87</ele>
<time>2015-04-25T13:23:06Z</time>
</trkpt>
<trkpt lat="35.0664019" lon="32.3031915">
<ele>243.90</ele>
<time>2015-04-25T13:23:07Z</time>
</trkpt>
<trkpt lat="35.0664572" lon="32.3031236">
<ele>243.41</ele>
<time>2015-04-25T13:23:08Z</time>
</trkpt>
<trkpt lat="35.0665049" lon="32.3030600">
<ele>242.67</ele>
<time>2015-04-25T13:23:09Z</time>
</trkpt>
<trkpt lat="35.0665465" lon="32.3029814">
<ele>242.30</ele>
<time>2015-04-25T13:23:10Z</time>
</trkpt>
<trkpt lat="35.0665897" lon="32.3028854">
<ele>242.61</ele>
<time>2015-04-25T13:23:11Z</time>
</trkpt>
<trkpt lat="35.0666330" lon="32.3027925">
<ele>243.77</ele>
<time>2015-04-25T13:23:12Z</time>
</trkpt>
<trkpt lat="35.0666698" lon="32.3027129">
<ele>244.35</ele>
<time>2015-04-25T13:23:13Z</time>
</trkpt>
<trkpt lat="35.0667142" lon="32.3026361">
<ele>245.14</ele>
<time>2015-04-25T13:23:14Z</time>
</trkpt>
<trkpt lat="35.0667607" lon="32.3025556">
<ele>245.53</ele>
<time>2015-04-25T13:23:15Z</time>
</trkpt>
<trkpt lat="35.0668075" lon="32.3024724">
<ele>245.73</ele>
<time>2015-04-25T13:23:16Z</time>
</trkpt>
<trkpt lat="35.0668417" lon="32.3023913">
<ele>245.83</ele>
<time>2015-04-25T13:23:17Z</time>
</trkpt>
<trkpt lat="35.0668705" lon="32.3023030">
<ele>245.38</ele>
<time>2015-04-25T13:23:18Z</time>
</trkpt>
<trkpt lat="35.0668940" lon="32.3022330">
<ele>244.65</ele>
<time>2015-04-25T13:23:19Z</time>
</trkpt>
<trkpt lat="35.0669201" lon="32.3021722">
<ele>244.79</ele>
<time>2015-04-25T13:23:20Z</time>
</trkpt>
<trkpt lat="35.0669391" lon="32.3021004">
<ele>244.36</ele>
<time>2015-04-25T13:23:21Z</time>
</trkpt>
<trkpt lat="35.0669656" lon="32.3020302">
<ele>243.64</ele>
<time>2015-04-25T13:23:22Z</time>
</trkpt>
<trkpt lat="35.0669946" lon="32.3019667">
<ele>242.78</ele>
<time>2015-04-25T13:23:23Z</time>
</trkpt>
<trkpt lat="35.0670429" lon="32.3018844">
<ele>241.35</ele>
<time>2015-04-25T13:23:24Z</time>
</trkpt>
<trkpt lat="35.0670829" lon="32.3018131">
<ele>240.64</ele>
<time>2015-04-25T13:23:25Z</time>
</trkpt>
<trkpt lat="35.0671250" lon="32.3017278">
<ele>239.78</ele>
<time>2015-04-25T13:23:26Z</time>
</trkpt>
<trkpt lat="35.0671713" lon="32.3016498">
<ele>239.85</ele>
<time>2015-04-25T13:23:27Z</time>
</trkpt>
<trkpt lat="35.0672169" lon="32.3015751">
<ele>239.89</ele>
<time>2015-04-25T13:23:28Z</time>
</trkpt>
<trkpt lat="35.0672597" lon="32.3015072">
<ele>240.41</ele>
<time>2015-04-25T13:23:29Z</time>
</trkpt>
<trkpt lat="35.0672988" lon="32.3014411">
<ele>241.67</ele>
<time>2015-04-25T13:23:30Z</time>
</trkpt>
<trkpt lat="35.0673282" lon="32.3013877">
<ele>242.30</ele>
<time>2015-04-25T13:23:31Z</time>
</trkpt>
<trkpt lat="35.0673604" lon="32.3013248">
<ele>243.11</ele>
<time>2015-04-25T13:23:32Z</time>
</trkpt>
<trkpt lat="35.0673862" lon="32.3012794">
<ele>243.02</ele>
<time>2015-04-25T13:23:33Z</time>
</trkpt>
<trkpt lat="35.0674413" lon="32.3012016">
<ele>242.95</ele>
<time>2015-04-25T13:23:35Z</time>
</trkpt>
<trkpt lat="35.0674854" lon="32.3011353">
<ele>242.68</ele>
<time>2015-04-25T13:23:37Z</time>
</trkpt>
<trkpt lat="35.0675478" lon="32.3010768">
<ele>241.86</ele>
<time>2015-04-25T13:23:39Z</time>
</trkpt>
<trkpt lat="35.0676101" lon="32.3010125">
<ele>239.91</ele>
<time>2015-04-25T13:23:41Z</time>
</trkpt>
<trkpt lat="35.0676522" lon="32.3009823">
<ele>239.92</ele>
<time>2015-04-25T13:23:42Z</time>
</trkpt>
<trkpt lat="35.0676860" lon="32.3009450">
<ele>239.92</ele>
<time>2015-04-25T13:23:43Z</time>
</trkpt>
<trkpt lat="35.0677204" lon="32.3009063">
<ele>239.42</ele>
<time>2015-04-25T13:23:44Z</time>
</trkpt>
<trkpt lat="35.0677613" lon="32.3008767">
<ele>240.67</ele>
<time>2015-04-25T13:23:45Z</time>
</trkpt>
<trkpt lat="35.0678161" lon="32.3007884">
<ele>242.36</ele>
<time>2015-04-25T13:23:47Z</time>
</trkpt>
<trkpt lat="35.0678554" lon="32.3007310">
<ele>243.78</ele>
<time>2015-04-25T13:23:49Z</time>
</trkpt>
<trkpt lat="35.0679076" lon="32.3007294">
<ele>245.28</ele>
<time>2015-04-25T13:23:52Z</time>
</trkpt>
<trkpt lat="35.0679470" lon="32.3007014">
<ele>245.76</ele>
<time>2015-04-25T13:23:54Z</time>
</trkpt>
<trkpt lat="35.0679988" lon="32.3006843">
<ele>245.63</ele>
<time>2015-04-25T13:23:56Z</time>
</trkpt>
<trkpt lat="35.0680610" lon="32.3006714">
<ele>246.60</ele>
<time>2015-04-25T13:23:58Z</time>
</trkpt>
<trkpt lat="35.0681332" lon="32.3006673">
<ele>244.84</ele>
<time>2015-04-25T13:24:00Z</time>
</trkpt>
<trkpt lat="35.0682095" lon="32.3006625">
<ele>244.65</ele>
<time>2015-04-25T13:24:02Z</time>
</trkpt>
<trkpt lat="35.0682876" lon="32.3006632">
<ele>244.36</ele>
<time>2015-04-25T13:24:04Z</time>
</trkpt>
<trkpt lat="35.0683649" lon="32.3006709">
<ele>244.03</ele>
<time>2015-04-25T13:24:06Z</time>
</trkpt>
<trkpt lat="35.0684364" lon="32.3006707">
<ele>243.95</ele>
<time>2015-04-25T13:24:08Z</time>
</trkpt>
<trkpt lat="35.0684892" lon="32.3006678">
<ele>244.68</ele>
<time>2015-04-25T13:24:10Z</time>
</trkpt>
<trkpt lat="35.0685418" lon="32.3006578">
<ele>246.14</ele>
<time>2015-04-25T13:24:13Z</time>
</trkpt>
<trkpt lat="35.0685898" lon="32.3006582">
<ele>245.95</ele>
<time>2015-04-25T13:24:16Z</time>
</trkpt>
<trkpt lat="35.0686487" lon="32.3006462">
<ele>247.61</ele>
<time>2015-04-25T13:24:20Z</time>
</trkpt>
<trkpt lat="35.0687003" lon="32.3006322">
<ele>247.39</ele>
<time>2015-04-25T13:24:23Z</time>
</trkpt>
<trkpt lat="35.0687656" lon="32.3006192">
<ele>247.73</ele>
<time>2015-04-25T13:24:26Z</time>
</trkpt>
<trkpt lat="35.0688144" lon="32.3006131">
<ele>248.38</ele>
<time>2015-04-25T13:24:28Z</time>
</trkpt>
<trkpt lat="35.0688628" lon="32.3006142">
<ele>248.79</ele>
<time>2015-04-25T13:24:30Z</time>
</trkpt>
<trkpt lat="35.0689090" lon="32.3006114">
<ele>248.14</ele>
<time>2015-04-25T13:24:32Z</time>
</trkpt>
<trkpt lat="35.0689569" lon="32.3005849">
<ele>249.33</ele>
<time>2015-04-25T13:24:35Z</time>
</trkpt>
<trkpt lat="35.0690025" lon="32.3005625">
<ele>249.10</ele>
<time>2015-04-25T13:24:38Z</time>
</trkpt>
<trkpt lat="35.0690485" lon="32.3005038">
<ele>247.82</ele>
<time>2015-04-25T13:24:41Z</time>
</trkpt>
<trkpt lat="35.0690752" lon="32.3004462">
<ele>247.40</ele>
<time>2015-04-25T13:24:43Z</time>
</trkpt>
<trkpt lat="35.0691086" lon="32.3003725">
<ele>244.79</ele>
<time>2015-04-25T13:24:45Z</time>
</trkpt>
<trkpt lat="35.0691489" lon="32.3002907">
<ele>242.89</ele>
<time>2015-04-25T13:24:47Z</time>
</trkpt>
<trkpt lat="35.0691931" lon="32.3001972">
<ele>241.67</ele>
<time>2015-04-25T13:24:49Z</time>
</trkpt>
<trkpt lat="35.0692156" lon="32.3001138">
<ele>241.30</ele>
<time>2015-04-25T13:24:50Z</time>
</trkpt>
<trkpt lat="35.0692446" lon="32.3000196">
<ele>240.52</ele>
<time>2015-04-25T13:24:52Z</time>
</trkpt>
<trkpt lat="35.0692738" lon="32.2999290">
<ele>240.82</ele>
<time>2015-04-25T13:24:54Z</time>
</trkpt>
<trkpt lat="35.0693039" lon="32.2998426">
<ele>241.65</ele>
<time>2015-04-25T13:24:56Z</time>
</trkpt>
<trkpt lat="35.0693308" lon="32.2997761">
<ele>241.36</ele>
<time>2015-04-25T13:24:58Z</time>
</trkpt>
<trkpt lat="35.0693631" lon="32.2997110">
<ele>240.78</ele>
<time>2015-04-25T13:25:00Z</time>
</trkpt>
<trkpt lat="35.0693945" lon="32.2996402">
<ele>240.89</ele>
<time>2015-04-25T13:25:02Z</time>
</trkpt>
<trkpt lat="35.0694193" lon="32.2995657">
<ele>241.17</ele>
<time>2015-04-25T13:25:04Z</time>
</trkpt>
<trkpt lat="35.0694348" lon="32.2994891">
<ele>240.24</ele>
<time>2015-04-25T13:25:06Z</time>
</trkpt>
<trkpt lat="35.0694458" lon="32.2994187">
<ele>240.75</ele>
<time>2015-04-25T13:25:08Z</time>
</trkpt>
<trkpt lat="35.0694642" lon="32.2993528">
<ele>239.38</ele>
<time>2015-04-25T13:25:10Z</time>
</trkpt>
<trkpt lat="35.0694864" lon="32.2992920">
<ele>239.04</ele>
<time>2015-04-25T13:25:12Z</time>
</trkpt>
<trkpt lat="35.0695206" lon="32.2992481">
<ele>239.20</ele>
<time>2015-04-25T13:25:14Z</time>
</trkpt>
<trkpt lat="35.0695630" lon="32.2992105">
<ele>238.74</ele>
<time>2015-04-25T13:25:16Z</time>
</trkpt>
<trkpt lat="35.0696006" lon="32.2991688">
<ele>240.38</ele>
<time>2015-04-25T13:25:18Z</time>
</trkpt>
<trkpt lat="35.0696295" lon="32.2991248">
<ele>241.29</ele>
<time>2015-04-25T13:25:20Z</time>
</trkpt>
<trkpt lat="35.0696737" lon="32.2990624">
<ele>241.10</ele>
<time>2015-04-25T13:25:23Z</time>
</trkpt>
<trkpt lat="35.0697023" lon="32.2990100">
<ele>240.97</ele>
<time>2015-04-25T13:25:25Z</time>
</trkpt>
<trkpt lat="35.0697377" lon="32.2989536">
<ele>240.94</ele>
<time>2015-04-25T13:25:27Z</time>
</trkpt>
<trkpt lat="35.0697832" lon="32.2989003">
<ele>240.93</ele>
<time>2015-04-25T13:25:29Z</time>
</trkpt>
<trkpt lat="35.0698279" lon="32.2988472">
<ele>241.68</ele>
<time>2015-04-25T13:25:31Z</time>
</trkpt>
<trkpt lat="35.0698709" lon="32.2987899">
<ele>241.86</ele>
<time>2015-04-25T13:25:33Z</time>
</trkpt>
<trkpt lat="35.0699079" lon="32.2987388">
<ele>242.41</ele>
<time>2015-04-25T13:25:35Z</time>
</trkpt>
<trkpt lat="35.0699438" lon="32.2986908">
<ele>242.05</ele>
<time>2015-04-25T13:25:37Z</time>
</trkpt>
<trkpt lat="35.0699710" lon="32.2986378">
<ele>242.46</ele>
<time>2015-04-25T13:25:39Z</time>
</trkpt>
<trkpt lat="35.0699950" lon="32.2985798">
<ele>243.56</ele>
<time>2015-04-25T13:25:41Z</time>
</trkpt>
<trkpt lat="35.0700207" lon="32.2985265">
<ele>244.08</ele>
<time>2015-04-25T13:25:43Z</time>
</trkpt>
<trkpt lat="35.0700615" lon="32.2984633">
<ele>245.69</ele>
<time>2015-04-25T13:25:46Z</time>
</trkpt>
<trkpt lat="35.0700959" lon="32.2983984">
<ele>245.90</ele>
<time>2015-04-25T13:25:49Z</time>
</trkpt>
<trkpt lat="35.0701272" lon="32.2983588">
<ele>245.42</ele>
<time>2015-04-25T13:25:51Z</time>
</trkpt>
<trkpt lat="35.0701585" lon="32.2983165">
<ele>246.05</ele>
<time>2015-04-25T13:25:53Z</time>
</trkpt>
<trkpt lat="35.0701892" lon="32.2982759">
<ele>246.46</ele>
<time>2015-04-25T13:25:55Z</time>
</trkpt>
<trkpt lat="35.0702265" lon="32.2982332">
<ele>246.81</ele>
<time>2015-04-25T13:25:57Z</time>
</trkpt>
<trkpt lat="35.0702675" lon="32.2981856">
<ele>246.90</ele>
<time>2015-04-25T13:25:59Z</time>
</trkpt>
<trkpt lat="35.0703156" lon="32.2981213">
<ele>246.92</ele>
<time>2015-04-25T13:26:01Z</time>
</trkpt>
<trkpt lat="35.0703659" lon="32.2980568">
<ele>246.42</ele>
<time>2015-04-25T13:26:02Z</time>
</trkpt>
<trkpt lat="35.0704006" lon="32.2980200">
<ele>246.17</ele>
<time>2015-04-25T13:26:03Z</time>
</trkpt>
<trkpt lat="35.0704686" lon="32.2979700">
<ele>246.74</ele>
<time>2015-04-25T13:26:05Z</time>
</trkpt>
<trkpt lat="35.0705454" lon="32.2979406">
<ele>248.13</ele>
<time>2015-04-25T13:26:07Z</time>
</trkpt>
<trkpt lat="35.0706102" lon="32.2979344">
<ele>248.48</ele>
<time>2015-04-25T13:26:09Z</time>
</trkpt>
<trkpt lat="35.0706559" lon="32.2979358">
<ele>248.20</ele>
<time>2015-04-25T13:26:10Z</time>
</trkpt>
<trkpt lat="35.0707385" lon="32.2979103">
<ele>248.74</ele>
<time>2015-04-25T13:26:12Z</time>
</trkpt>
<trkpt lat="35.0707859" lon="32.2978942">
<ele>248.83</ele>
<time>2015-04-25T13:26:13Z</time>
</trkpt>
<trkpt lat="35.0708291" lon="32.2978784">
<ele>248.38</ele>
<time>2015-04-25T13:26:14Z</time>
</trkpt>
<trkpt lat="35.0709163" lon="32.2978500">
<ele>248.54</ele>
<time>2015-04-25T13:26:16Z</time>
</trkpt>
<trkpt lat="35.0709617" lon="32.2978391">
<ele>248.73</ele>
<time>2015-04-25T13:26:17Z</time>
</trkpt>
<trkpt lat="35.0710142" lon="32.2978334">
<ele>247.83</ele>
<time>2015-04-25T13:26:18Z</time>
</trkpt>
<trkpt lat="35.0710684" lon="32.2978215">
<ele>247.88</ele>
<time>2015-04-25T13:26:19Z</time>
</trkpt>
<trkpt lat="35.0711319" lon="32.2978007">
<ele>247.40</ele>
<time>2015-04-25T13:26:20Z</time>
</trkpt>
<trkpt lat="35.0711856" lon="32.2977737">
<ele>246.66</ele>
<time>2015-04-25T13:26:21Z</time>
</trkpt>
<trkpt lat="35.0712407" lon="32.2977466">
<ele>245.79</ele>
<time>2015-04-25T13:26:22Z</time>
</trkpt>
<trkpt lat="35.0712939" lon="32.2977040">
<ele>244.86</ele>
<time>2015-04-25T13:26:23Z</time>
</trkpt>
<trkpt lat="35.0713301" lon="32.2976505">
<ele>244.39</ele>
<time>2015-04-25T13:26:24Z</time>
</trkpt>
<trkpt lat="35.0713677" lon="32.2975899">
<ele>244.16</ele>
<time>2015-04-25T13:26:25Z</time>
</trkpt>
<trkpt lat="35.0713939" lon="32.2975288">
<ele>244.04</ele>
<time>2015-04-25T13:26:26Z</time>
</trkpt>
<trkpt lat="35.0714303" lon="32.2974836">
<ele>243.48</ele>
<time>2015-04-25T13:26:27Z</time>
</trkpt>
<trkpt lat="35.0714624" lon="32.2974371">
<ele>243.20</ele>
<time>2015-04-25T13:26:28Z</time>
</trkpt>
<trkpt lat="35.0715152" lon="32.2973852">
<ele>242.99</ele>
<time>2015-04-25T13:26:30Z</time>
</trkpt>
<trkpt lat="35.0715677" lon="32.2973278">
<ele>241.69</ele>
<time>2015-04-25T13:26:32Z</time>
</trkpt>
<trkpt lat="35.0716276" lon="32.2972816">
<ele>240.62</ele>
<time>2015-04-25T13:26:34Z</time>
</trkpt>
<trkpt lat="35.0716884" lon="32.2972425">
<ele>238.85</ele>
<time>2015-04-25T13:26:36Z</time>
</trkpt>
<trkpt lat="35.0717567" lon="32.2972049">
<ele>237.16</ele>
<time>2015-04-25T13:26:38Z</time>
</trkpt>
<trkpt lat="35.0718163" lon="32.2971698">
<ele>236.98</ele>
<time>2015-04-25T13:26:40Z</time>
</trkpt>
<trkpt lat="35.0718798" lon="32.2971362">
<ele>236.19</ele>
<time>2015-04-25T13:26:42Z</time>
</trkpt>
<trkpt lat="35.0719463" lon="32.2971046">
<ele>236.49</ele>
<time>2015-04-25T13:26:44Z</time>
</trkpt>
<trkpt lat="35.0720102" lon="32.2970813">
<ele>236.82</ele>
<time>2015-04-25T13:26:46Z</time>
</trkpt>
<trkpt lat="35.0720665" lon="32.2970439">
<ele>238.40</ele>
<time>2015-04-25T13:26:48Z</time>
</trkpt>
<trkpt lat="35.0721054" lon="32.2969951">
<ele>239.04</ele>
<time>2015-04-25T13:26:50Z</time>
</trkpt>
<trkpt lat="35.0721457" lon="32.2969551">
<ele>238.20</ele>
<time>2015-04-25T13:26:52Z</time>
</trkpt>
<trkpt lat="35.0721812" lon="32.2969190">
<ele>237.49</ele>
<time>2015-04-25T13:26:54Z</time>
</trkpt>
<trkpt lat="35.0722215" lon="32.2968686">
<ele>236.50</ele>
<time>2015-04-25T13:26:57Z</time>
</trkpt>
<trkpt lat="35.0722778" lon="32.2968325">
<ele>235.25</ele>
<time>2015-04-25T13:27:00Z</time>
</trkpt>
<trkpt lat="35.0723302" lon="32.2968174">
<ele>235.51</ele>
<time>2015-04-25T13:27:02Z</time>
</trkpt>
<trkpt lat="35.0723893" lon="32.2968036">
<ele>235.07</ele>
<time>2015-04-25T13:27:04Z</time>
</trkpt>
<trkpt lat="35.0724501" lon="32.2967822">
<ele>233.71</ele>
<time>2015-04-25T13:27:06Z</time>
</trkpt>
<trkpt lat="35.0725202" lon="32.2967389">
<ele>233.37</ele>
<time>2015-04-25T13:27:08Z</time>
</trkpt>
<trkpt lat="35.0725937" lon="32.2966783">
<ele>233.79</ele>
<time>2015-04-25T13:27:10Z</time>
</trkpt>
<trkpt lat="35.0726682" lon="32.2966225">
<ele>234.64</ele>
<time>2015-04-25T13:27:12Z</time>
</trkpt>
<trkpt lat="35.0727397" lon="32.2965860">
<ele>235.10</ele>
<time>2015-04-25T13:27:14Z</time>
</trkpt>
<trkpt lat="35.0728012" lon="32.2965478">
<ele>234.72</ele>
<time>2015-04-25T13:27:16Z</time>
</trkpt>
<trkpt lat="35.0728492" lon="32.2965040">
<ele>235.62</ele>
<time>2015-04-25T13:27:18Z</time>
</trkpt>
<trkpt lat="35.0728851" lon="32.2964586">
<ele>235.85</ele>
<time>2015-04-25T13:27:20Z</time>
</trkpt>
<trkpt lat="35.0729212" lon="32.2964017">
<ele>235.04</ele>
<time>2015-04-25T13:27:23Z</time>
</trkpt>
<trkpt lat="35.0729634" lon="32.2963402">
<ele>233.81</ele>
<time>2015-04-25T13:27:26Z</time>
</trkpt>
<trkpt lat="35.0730140" lon="32.2963071">
<ele>233.91</ele>
<time>2015-04-25T13:27:29Z</time>
</trkpt>
<trkpt lat="35.0730577" lon="32.2962932">
<ele>234.42</ele>
<time>2015-04-25T13:27:31Z</time>
</trkpt>
<trkpt lat="35.0731165" lon="32.2962759">
<ele>235.30</ele>
<time>2015-04-25T13:27:33Z</time>
</trkpt>
<trkpt lat="35.0731849" lon="32.2962498">
<ele>235.77</ele>
<time>2015-04-25T13:27:35Z</time>
</trkpt>
<trkpt lat="35.0732601" lon="32.2962094">
<ele>235.14</ele>
<time>2015-04-25T13:27:37Z</time>
</trkpt>
<trkpt lat="35.0733344" lon="32.2961612">
<ele>234.48</ele>
<time>2015-04-25T13:27:39Z</time>
</trkpt>
<trkpt lat="35.0734134" lon="32.2961319">
<ele>234.81</ele>
<time>2015-04-25T13:27:41Z</time>
</trkpt>
<trkpt lat="35.0734871" lon="32.2961108">
<ele>236.15</ele>
<time>2015-04-25T13:27:43Z</time>
</trkpt>
<trkpt lat="35.0735457" lon="32.2960750">
<ele>237.98</ele>
<time>2015-04-25T13:27:45Z</time>
</trkpt>
<trkpt lat="35.0735907" lon="32.2960317">
<ele>236.94</ele>
<time>2015-04-25T13:27:47Z</time>
</trkpt>
<trkpt lat="35.0736314" lon="32.2959773">
<ele>235.68</ele>
<time>2015-04-25T13:27:49Z</time>
</trkpt>
<trkpt lat="35.0736683" lon="32.2959256">
<ele>235.86</ele>
<time>2015-04-25T13:27:51Z</time>
</trkpt>
<trkpt lat="35.0737093" lon="32.2958856">
<ele>235.41</ele>
<time>2015-04-25T13:27:53Z</time>
</trkpt>
<trkpt lat="35.0737571" lon="32.2958549">
<ele>233.80</ele>
<time>2015-04-25T13:27:55Z</time>
</trkpt>
<trkpt lat="35.0738005" lon="32.2958126">
<ele>233.14</ele>
<time>2015-04-25T13:27:57Z</time>
</trkpt>
<trkpt lat="35.0738416" lon="32.2957654">
<ele>232.23</ele>
<time>2015-04-25T13:27:59Z</time>
</trkpt>
<trkpt lat="35.0738818" lon="32.2957180">
<ele>230.75</ele>
<time>2015-04-25T13:28:01Z</time>
</trkpt>
<trkpt lat="35.0739235" lon="32.2956774">
<ele>230.13</ele>
<time>2015-04-25T13:28:03Z</time>
</trkpt>
<trkpt lat="35.0739783" lon="32.2956570">
<ele>230.23</ele>
<time>2015-04-25T13:28:05Z</time>
</trkpt>
<trkpt lat="35.0740325" lon="32.2956578">
<ele>230.50</ele>
<time>2015-04-25T13:28:07Z</time>
</trkpt>
<trkpt lat="35.0740878" lon="32.2956665">
<ele>230.82</ele>
<time>2015-04-25T13:28:09Z</time>
</trkpt>
<trkpt lat="35.0741410" lon="32.2956679">
<ele>230.65</ele>
<time>2015-04-25T13:28:11Z</time>
</trkpt>
<trkpt lat="35.0741967" lon="32.2956630">
<ele>229.61</ele>
<time>2015-04-25T13:28:13Z</time>
</trkpt>
<trkpt lat="35.0742485" lon="32.2956593">
<ele>228.60</ele>
<time>2015-04-25T13:28:15Z</time>
</trkpt>
<trkpt lat="35.0742985" lon="32.2956540">
<ele>227.34</ele>
<time>2015-04-25T13:28:17Z</time>
</trkpt>
<trkpt lat="35.0743480" lon="32.2956369">
<ele>226.10</ele>
<time>2015-04-25T13:28:20Z</time>
</trkpt>
<trkpt lat="35.0743931" lon="32.2956242">
<ele>224.75</ele>
<time>2015-04-25T13:28:24Z</time>
</trkpt>
<trkpt lat="35.0744419" lon="32.2956163">
<ele>224.15</ele>
<time>2015-04-25T13:28:27Z</time>
</trkpt>
<trkpt lat="35.0744928" lon="32.2956018">
<ele>223.48</ele>
<time>2015-04-25T13:28:29Z</time>
</trkpt>
<trkpt lat="35.0745461" lon="32.2955844">
<ele>222.56</ele>
<time>2015-04-25T13:28:31Z</time>
</trkpt>
<trkpt lat="35.0745935" lon="32.2955612">
<ele>220.83</ele>
<time>2015-04-25T13:28:33Z</time>
</trkpt>
<trkpt lat="35.0746312" lon="32.2955302">
<ele>220.90</ele>
<time>2015-04-25T13:28:35Z</time>
</trkpt>
<trkpt lat="35.0746684" lon="32.2954599">
<ele>221.30</ele>
<time>2015-04-25T13:28:38Z</time>
</trkpt>
<trkpt lat="35.0746971" lon="32.2953942">
<ele>219.77</ele>
<time>2015-04-25T13:28:40Z</time>
</trkpt>
<trkpt lat="35.0747420" lon="32.2953030">
<ele>218.85</ele>
<time>2015-04-25T13:28:41Z</time>
</trkpt>
<trkpt lat="35.0747752" lon="32.2952394">
<ele>218.39</ele>
<time>2015-04-25T13:28:42Z</time>
</trkpt>
<trkpt lat="35.0748021" lon="32.2951681">
<ele>217.66</ele>
<time>2015-04-25T13:28:43Z</time>
</trkpt>
<trkpt lat="35.0748268" lon="32.2950861">
<ele>216.29</ele>
<time>2015-04-25T13:28:44Z</time>
</trkpt>
<trkpt lat="35.0748616" lon="32.2950038">
<ele>215.11</ele>
<time>2015-04-25T13:28:45Z</time>
</trkpt>
<trkpt lat="35.0748944" lon="32.2949338">
<ele>214.52</ele>
<time>2015-04-25T13:28:46Z</time>
</trkpt>
<trkpt lat="35.0749452" lon="32.2948374">
<ele>213.22</ele>
<time>2015-04-25T13:28:47Z</time>
</trkpt>
<trkpt lat="35.0749785" lon="32.2947415">
<ele>212.57</ele>
<time>2015-04-25T13:28:48Z</time>
</trkpt>
<trkpt lat="35.0750093" lon="32.2946608">
<ele>212.25</ele>
<time>2015-04-25T13:28:49Z</time>
</trkpt>
<trkpt lat="35.0750463" lon="32.2945750">
<ele>211.59</ele>
<time>2015-04-25T13:28:50Z</time>
</trkpt>
<trkpt lat="35.0750996" lon="32.2944989">
<ele>210.76</ele>
<time>2015-04-25T13:28:51Z</time>
</trkpt>
<trkpt lat="35.0751685" lon="32.2944566">
<ele>209.84</ele>
<time>2015-04-25T13:28:52Z</time>
</trkpt>
<trkpt lat="35.0752313" lon="32.2944045">
<ele>209.38</ele>
<time>2015-04-25T13:28:53Z</time>
</trkpt>
<trkpt lat="35.0752947" lon="32.2943595">
<ele>209.65</ele>
<time>2015-04-25T13:28:54Z</time>
</trkpt>
<trkpt lat="35.0753474" lon="32.2943084">
<ele>209.79</ele>
<time>2015-04-25T13:28:55Z</time>
</trkpt>
<trkpt lat="35.0753945" lon="32.2942430">
<ele>209.36</ele>
<time>2015-04-25T13:28:56Z</time>
</trkpt>
<trkpt lat="35.0754313" lon="32.2941864">
<ele>209.14</ele>
<time>2015-04-25T13:28:57Z</time>
</trkpt>
<trkpt lat="35.0754704" lon="32.2941335">
<ele>209.03</ele>
<time>2015-04-25T13:28:58Z</time>
</trkpt>
<trkpt lat="35.0755024" lon="32.2940717">
<ele>208.98</ele>
<time>2015-04-25T13:28:59Z</time>
</trkpt>
<trkpt lat="35.0755363" lon="32.2940107">
<ele>208.95</ele>
<time>2015-04-25T13:29:00Z</time>
</trkpt>
<trkpt lat="35.0755696" lon="32.2939625">
<ele>208.94</ele>
<time>2015-04-25T13:29:01Z</time>
</trkpt>
<trkpt lat="35.0756071" lon="32.2939018">
<ele>208.93</ele>
<time>2015-04-25T13:29:02Z</time>
</trkpt>
<trkpt lat="35.0756468" lon="32.2938568">
<ele>208.93</ele>
<time>2015-04-25T13:29:03Z</time>
</trkpt>
<trkpt lat="35.0756886" lon="32.2938126">
<ele>209.43</ele>
<time>2015-04-25T13:29:04Z</time>
</trkpt>
<trkpt lat="35.0757310" lon="32.2937612">
<ele>210.18</ele>
<time>2015-04-25T13:29:05Z</time>
</trkpt>
<trkpt lat="35.0757717" lon="32.2937269">
<ele>210.05</ele>
<time>2015-04-25T13:29:06Z</time>
</trkpt>
<trkpt lat="35.0758069" lon="32.2936926">
<ele>209.99</ele>
<time>2015-04-25T13:29:07Z</time>
</trkpt>
<trkpt lat="35.0758542" lon="32.2936474">
<ele>210.96</ele>
<time>2015-04-25T13:29:08Z</time>
</trkpt>
<trkpt lat="35.0758884" lon="32.2936034">
<ele>211.94</ele>
<time>2015-04-25T13:29:09Z</time>
</trkpt>
<trkpt lat="35.0759503" lon="32.2935235">
<ele>213.93</ele>
<time>2015-04-25T13:29:11Z</time>
</trkpt>
<trkpt lat="35.0759780" lon="32.2934630">
<ele>214.43</ele>
<time>2015-04-25T13:29:12Z</time>
</trkpt>
<trkpt lat="35.0760129" lon="32.2934083">
<ele>214.18</ele>
<time>2015-04-25T13:29:13Z</time>
</trkpt>
<trkpt lat="35.0760420" lon="32.2933586">
<ele>214.05</ele>
<time>2015-04-25T13:29:14Z</time>
</trkpt>
<trkpt lat="35.0760790" lon="32.2933017">
<ele>213.49</ele>
<time>2015-04-25T13:29:15Z</time>
</trkpt>
<trkpt lat="35.0761200" lon="32.2932469">
<ele>213.21</ele>
<time>2015-04-25T13:29:16Z</time>
</trkpt>
<trkpt lat="35.0761565" lon="32.2932033">
<ele>213.57</ele>
<time>2015-04-25T13:29:17Z</time>
</trkpt>
<trkpt lat="35.0762002" lon="32.2931738">
<ele>213.25</ele>
<time>2015-04-25T13:29:18Z</time>
</trkpt>
<trkpt lat="35.0762437" lon="32.2931400">
<ele>212.59</ele>
<time>2015-04-25T13:29:19Z</time>
</trkpt>
<trkpt lat="35.0762845" lon="32.2931072">
<ele>212.76</ele>
<time>2015-04-25T13:29:20Z</time>
</trkpt>
<trkpt lat="35.0763499" lon="32.2930486">
<ele>213.63</ele>
<time>2015-04-25T13:29:22Z</time>
</trkpt>
<trkpt lat="35.0764135" lon="32.2929955">
<ele>214.60</ele>
<time>2015-04-25T13:29:24Z</time>
</trkpt>
<trkpt lat="35.0764500" lon="32.2929582">
<ele>215.26</ele>
<time>2015-04-25T13:29:25Z</time>
</trkpt>
<trkpt lat="35.0764840" lon="32.2929174">
<ele>215.59</ele>
<time>2015-04-25T13:29:26Z</time>
</trkpt>
<trkpt lat="35.0765190" lon="32.2928746">
<ele>215.76</ele>
<time>2015-04-25T13:29:27Z</time>
</trkpt>
<trkpt lat="35.0765605" lon="32.2928398">
<ele>216.84</ele>
<time>2015-04-25T13:29:28Z</time>
</trkpt>
<trkpt lat="35.0766161" lon="32.2927889">
<ele>217.90</ele>
<time>2015-04-25T13:29:30Z</time>
</trkpt>
<trkpt lat="35.0766652" lon="32.2927451">
<ele>217.92</ele>
<time>2015-04-25T13:29:32Z</time>
</trkpt>
<trkpt lat="35.0767074" lon="32.2927117">
<ele>215.18</ele>
<time>2015-04-25T13:30:23Z</time>
</trkpt>
<trkpt lat="35.0767575" lon="32.2926635">
<ele>213.56</ele>
<time>2015-04-25T13:30:28Z</time>
</trkpt>
<trkpt lat="35.0767992" lon="32.2926185">
<ele>213.08</ele>
<time>2015-04-25T13:30:30Z</time>
</trkpt>
<trkpt lat="35.0768439" lon="32.2925646">
<ele>214.21</ele>
<time>2015-04-25T13:30:32Z</time>
</trkpt>
<trkpt lat="35.0768844" lon="32.2925158">
<ele>214.50</ele>
<time>2015-04-25T13:30:34Z</time>
</trkpt>
<trkpt lat="35.0769298" lon="32.2924691">
<ele>214.82</ele>
<time>2015-04-25T13:30:36Z</time>
</trkpt>
<trkpt lat="35.0769745" lon="32.2924181">
<ele>214.15</ele>
<time>2015-04-25T13:30:38Z</time>
</trkpt>
<trkpt lat="35.0770113" lon="32.2923637">
<ele>214.48</ele>
<time>2015-04-25T13:30:40Z</time>
</trkpt>
<trkpt lat="35.0770452" lon="32.2923156">
<ele>214.81</ele>
<time>2015-04-25T13:30:42Z</time>
</trkpt>
<trkpt lat="35.0770770" lon="32.2922654">
<ele>214.40</ele>
<time>2015-04-25T13:30:44Z</time>
</trkpt>
<trkpt lat="35.0771158" lon="32.2922195">
<ele>214.29</ele>
<time>2015-04-25T13:30:46Z</time>
</trkpt>
<trkpt lat="35.0771586" lon="32.2921723">
<ele>214.77</ele>
<time>2015-04-25T13:30:48Z</time>
</trkpt>
<trkpt lat="35.0772025" lon="32.2921334">
<ele>214.89</ele>
<time>2015-04-25T13:30:50Z</time>
</trkpt>
<trkpt lat="35.0772462" lon="32.2920934">
<ele>214.42</ele>
<time>2015-04-25T13:30:52Z</time>
</trkpt>
<trkpt lat="35.0772835" lon="32.2920542">
<ele>214.05</ele>
<time>2015-04-25T13:30:54Z</time>
</trkpt>
<trkpt lat="35.0773252" lon="32.2920219">
<ele>213.44</ele>
<time>2015-04-25T13:30:57Z</time>
</trkpt>
<trkpt lat="35.0773605" lon="32.2919852">
<ele>213.74</ele>
<time>2015-04-25T13:31:00Z</time>
</trkpt>
<trkpt lat="35.0773962" lon="32.2919484">
<ele>213.90</ele>
<time>2015-04-25T13:31:03Z</time>
</trkpt>
<trkpt lat="35.0774278" lon="32.2919090">
<ele>213.42</ele>
<time>2015-04-25T13:31:06Z</time>
</trkpt>
<trkpt lat="35.0774438" lon="32.2918523">
<ele>210.43</ele>
<time>2015-04-25T13:31:54Z</time>
</trkpt>
<trkpt lat="35.0774856" lon="32.2917849">
<ele>208.74</ele>
<time>2015-04-25T13:31:57Z</time>
</trkpt>
<trkpt lat="35.0775200" lon="32.2917385">
<ele>207.38</ele>
<time>2015-04-25T13:31:59Z</time>
</trkpt>
<trkpt lat="35.0775549" lon="32.2916888">
<ele>206.54</ele>
<time>2015-04-25T13:32:01Z</time>
</trkpt>
<trkpt lat="35.0775924" lon="32.2916289">
<ele>205.33</ele>
<time>2015-04-25T13:32:03Z</time>
</trkpt>
<trkpt lat="35.0776346" lon="32.2915645">
<ele>205.78</ele>
<time>2015-04-25T13:32:05Z</time>
</trkpt>
<trkpt lat="35.0776789" lon="32.2914967">
<ele>205.14</ele>
<time>2015-04-25T13:32:07Z</time>
</trkpt>
<trkpt lat="35.0777082" lon="32.2914542">
<ele>204.53</ele>
<time>2015-04-25T13:32:08Z</time>
</trkpt>
<trkpt lat="35.0777694" lon="32.2913747">
<ele>203.73</ele>
<time>2015-04-25T13:32:09Z</time>
</trkpt>
<trkpt lat="35.0778170" lon="32.2913136">
<ele>203.83</ele>
<time>2015-04-25T13:32:10Z</time>
</trkpt>
<trkpt lat="35.0778635" lon="32.2912664">
<ele>201.88</ele>
<time>2015-04-25T13:32:11Z</time>
</trkpt>
<trkpt lat="35.0779016" lon="32.2911965">
<ele>200.90</ele>
<time>2015-04-25T13:32:12Z</time>
</trkpt>
<trkpt lat="35.0779439" lon="32.2911420">
<ele>199.91</ele>
<time>2015-04-25T13:32:13Z</time>
</trkpt>
<trkpt lat="35.0779804" lon="32.2910851">
<ele>199.42</ele>
<time>2015-04-25T13:32:14Z</time>
</trkpt>
<trkpt lat="35.0780063" lon="32.2910338">
<ele>198.67</ele>
<time>2015-04-25T13:32:15Z</time>
</trkpt>
<trkpt lat="35.0780347" lon="32.2909696">
<ele>197.80</ele>
<time>2015-04-25T13:32:16Z</time>
</trkpt>
<trkpt lat="35.0780665" lon="32.2909058">
<ele>197.36</ele>
<time>2015-04-25T13:32:17Z</time>
</trkpt>
<trkpt lat="35.0780986" lon="32.2908408">
<ele>197.14</ele>
<time>2015-04-25T13:32:18Z</time>
</trkpt>
<trkpt lat="35.0781349" lon="32.2907793">
<ele>197.03</ele>
<time>2015-04-25T13:32:19Z</time>
</trkpt>
<trkpt lat="35.0781697" lon="32.2907161">
<ele>196.48</ele>
<time>2015-04-25T13:32:20Z</time>
</trkpt>
<trkpt lat="35.0782100" lon="32.2906612">
<ele>197.20</ele>
<time>2015-04-25T13:32:21Z</time>
</trkpt>
<trkpt lat="35.0782521" lon="32.2906123">
<ele>197.56</ele>
<time>2015-04-25T13:32:22Z</time>
</trkpt>
<trkpt lat="35.0782925" lon="32.2905586">
<ele>197.74</ele>
<time>2015-04-25T13:32:23Z</time>
</trkpt>
<trkpt lat="35.0783363" lon="32.2904983">
<ele>197.33</ele>
<time>2015-04-25T13:32:24Z</time>
</trkpt>
<trkpt lat="35.0783784" lon="32.2904366">
<ele>196.63</ele>
<time>2015-04-25T13:32:25Z</time>
</trkpt>
<trkpt lat="35.0784174" lon="32.2903743">
<ele>196.28</ele>
<time>2015-04-25T13:32:26Z</time>
</trkpt>
<trkpt lat="35.0784494" lon="32.2903208">
<ele>196.10</ele>
<time>2015-04-25T13:32:27Z</time>
</trkpt>
<trkpt lat="35.0784790" lon="32.2902664">
<ele>195.51</ele>
<time>2015-04-25T13:32:28Z</time>
</trkpt>
<trkpt lat="35.0785042" lon="32.2902075">
<ele>194.72</ele>
<time>2015-04-25T13:32:29Z</time>
</trkpt>
<trkpt lat="35.0785258" lon="32.2901281">
<ele>194.82</ele>
<time>2015-04-25T13:32:30Z</time>
</trkpt>
<trkpt lat="35.0785311" lon="32.2900517">
<ele>194.87</ele>
<time>2015-04-25T13:32:31Z</time>
</trkpt>
<trkpt lat="35.0785358" lon="32.2899694">
<ele>194.90</ele>
<time>2015-04-25T13:32:32Z</time>
</trkpt>
<trkpt lat="35.0785352" lon="32.2898998">
<ele>194.41</ele>
<time>2015-04-25T13:32:33Z</time>
</trkpt>
<trkpt lat="35.0785373" lon="32.2898284">
<ele>193.67</ele>
<time>2015-04-25T13:32:34Z</time>
</trkpt>
<trkpt lat="35.0785361" lon="32.2897562">
<ele>192.80</ele>
<time>2015-04-25T13:32:35Z</time>
</trkpt>
<trkpt lat="35.0785379" lon="32.2896929">
<ele>192.36</ele>
<time>2015-04-25T13:32:36Z</time>
</trkpt>
<trkpt lat="35.0785478" lon="32.2896349">
<ele>191.64</ele>
<time>2015-04-25T13:32:37Z</time>
</trkpt>
<trkpt lat="35.0785779" lon="32.2895341">
<ele>191.85</ele>
<time>2015-04-25T13:32:39Z</time>
</trkpt>
<trkpt lat="35.0786268" lon="32.2894535">
<ele>191.16</ele>
<time>2015-04-25T13:32:41Z</time>
</trkpt>
<trkpt lat="35.0786749" lon="32.2893985">
<ele>191.98</ele>
<time>2015-04-25T13:32:43Z</time>
</trkpt>
<trkpt lat="35.0787384" lon="32.2893548">
<ele>190.19</ele>
<time>2015-04-25T13:32:45Z</time>
</trkpt>
<trkpt lat="35.0787754" lon="32.2893197">
<ele>189.99</ele>
<time>2015-04-25T13:32:47Z</time>
</trkpt>
<trkpt lat="35.0788352" lon="32.2892828">
<ele>191.81</ele>
<time>2015-04-25T13:32:50Z</time>
</trkpt>
<trkpt lat="35.0788903" lon="32.2892650">
<ele>192.65</ele>
<time>2015-04-25T13:32:52Z</time>
</trkpt>
<trkpt lat="35.0789536" lon="32.2892547">
<ele>192.11</ele>
<time>2015-04-25T13:32:54Z</time>
</trkpt>
<trkpt lat="35.0790246" lon="32.2892468">
<ele>191.47</ele>
<time>2015-04-25T13:32:56Z</time>
</trkpt>
<trkpt lat="35.0791016" lon="32.2892554">
<ele>190.81</ele>
<time>2015-04-25T13:32:58Z</time>
</trkpt>
<trkpt lat="35.0791732" lon="32.2892734">
<ele>190.87</ele>
<time>2015-04-25T13:32:59Z</time>
</trkpt>
<trkpt lat="35.0792200" lon="32.2892686">
<ele>190.90</ele>
<time>2015-04-25T13:33:00Z</time>
</trkpt>
<trkpt lat="35.0792678" lon="32.2892655">
<ele>190.91</ele>
<time>2015-04-25T13:33:01Z</time>
</trkpt>
<trkpt lat="35.0793132" lon="32.2892616">
<ele>190.42</ele>
<time>2015-04-25T13:33:02Z</time>
</trkpt>
<trkpt lat="35.0793618" lon="32.2892513">
<ele>189.67</ele>
<time>2015-04-25T13:33:03Z</time>
</trkpt>
<trkpt lat="35.0794195" lon="32.2892337">
<ele>188.80</ele>
<time>2015-04-25T13:33:04Z</time>
</trkpt>
<trkpt lat="35.0794748" lon="32.2892171">
<ele>187.86</ele>
<time>2015-04-25T13:33:05Z</time>
</trkpt>
<trkpt lat="35.0795211" lon="32.2891937">
<ele>187.89</ele>
<time>2015-04-25T13:33:06Z</time>
</trkpt>
<trkpt lat="35.0795921" lon="32.2891142">
<ele>187.92</ele>
<time>2015-04-25T13:33:08Z</time>
</trkpt>
<trkpt lat="35.0796354" lon="32.2890750">
<ele>187.42</ele>
<time>2015-04-25T13:33:09Z</time>
</trkpt>
<trkpt lat="35.0796699" lon="32.2890334">
<ele>186.67</ele>
<time>2015-04-25T13:33:10Z</time>
</trkpt>
<trkpt lat="35.0797164" lon="32.2889430">
<ele>184.86</ele>
<time>2015-04-25T13:33:12Z</time>
</trkpt>
<trkpt lat="35.0797440" lon="32.2888950">
<ele>184.39</ele>
<time>2015-04-25T13:33:13Z</time>
</trkpt>
<trkpt lat="35.0797707" lon="32.2888430">
<ele>184.16</ele>
<time>2015-04-25T13:33:14Z</time>
</trkpt>
<trkpt lat="35.0798060" lon="32.2887464">
<ele>185.23</ele>
<time>2015-04-25T13:33:16Z</time>
</trkpt>
<trkpt lat="35.0798241" lon="32.2886874">
<ele>185.58</ele>
<time>2015-04-25T13:33:17Z</time>
</trkpt>
<trkpt lat="35.0798490" lon="32.2886375">
<ele>185.25</ele>
<time>2015-04-25T13:33:18Z</time>
</trkpt>
<trkpt lat="35.0798724" lon="32.2885860">
<ele>184.59</ele>
<time>2015-04-25T13:33:19Z</time>
</trkpt>
<trkpt lat="35.0798951" lon="32.2885336">
<ele>183.26</ele>
<time>2015-04-25T13:33:20Z</time>
</trkpt>
<trkpt lat="35.0799346" lon="32.2884337">
<ele>182.51</ele>
<time>2015-04-25T13:33:22Z</time>
</trkpt>
<trkpt lat="35.0799830" lon="32.2883460">
<ele>181.57</ele>
<time>2015-04-25T13:33:24Z</time>
</trkpt>
<trkpt lat="35.0800111" lon="32.2882943">
<ele>180.75</ele>
<time>2015-04-25T13:33:25Z</time>
</trkpt>
<trkpt lat="35.0800251" lon="32.2882229">
<ele>179.63</ele>
<time>2015-04-25T13:33:27Z</time>
</trkpt>
<trkpt lat="35.0800426" lon="32.2881594">
<ele>179.10</ele>
<time>2015-04-25T13:33:29Z</time>
</trkpt>
<trkpt lat="35.0800722" lon="32.2880832">
<ele>180.32</ele>
<time>2015-04-25T13:33:32Z</time>
</trkpt>
<trkpt lat="35.0801006" lon="32.2880252">
<ele>179.52</ele>
<time>2015-04-25T13:33:34Z</time>
</trkpt>
<trkpt lat="35.0801421" lon="32.2879802">
<ele>177.57</ele>
<time>2015-04-25T13:33:36Z</time>
</trkpt>
<trkpt lat="35.0801826" lon="32.2879564">
<ele>177.09</ele>
<time>2015-04-25T13:33:38Z</time>
</trkpt>
<trkpt lat="35.0802311" lon="32.2879228">
<ele>176.45</ele>
<time>2015-04-25T13:33:41Z</time>
</trkpt>
<trkpt lat="35.0802852" lon="32.2879124">
<ele>177.62</ele>
<time>2015-04-25T13:33:44Z</time>
</trkpt>
<trkpt lat="35.0803354" lon="32.2878947">
<ele>177.14</ele>
<time>2015-04-25T13:33:47Z</time>
</trkpt>
<trkpt lat="35.0803872" lon="32.2878925">
<ele>177.70</ele>
<time>2015-04-25T13:33:50Z</time>
</trkpt>
<trkpt lat="35.0804333" lon="32.2878845">
<ele>178.77</ele>
<time>2015-04-25T13:33:53Z</time>
</trkpt>
<trkpt lat="35.0804781" lon="32.2878328">
<ele>178.92</ele>
<time>2015-04-25T13:33:57Z</time>
</trkpt>
<trkpt lat="35.0805025" lon="32.2877783">
<ele>180.17</ele>
<time>2015-04-25T13:34:00Z</time>
</trkpt>
<trkpt lat="35.0805268" lon="32.2877226">
<ele>179.71</ele>
<time>2015-04-25T13:34:03Z</time>
</trkpt>
<trkpt lat="35.0805503" lon="32.2876733">
<ele>180.40</ele>
<time>2015-04-25T13:34:06Z</time>
</trkpt>
<trkpt lat="35.0805788" lon="32.2876162">
<ele>180.70</ele>
<time>2015-04-25T13:34:10Z</time>
</trkpt>
<trkpt lat="35.0806265" lon="32.2876076">
<ele>181.04</ele>
<time>2015-04-25T13:34:14Z</time>
</trkpt>
<trkpt lat="35.0806733" lon="32.2875784">
<ele>181.18</ele>
<time>2015-04-25T13:34:18Z</time>
</trkpt>
<trkpt lat="35.0807185" lon="32.2875392">
<ele>181.07</ele>
<time>2015-04-25T13:34:22Z</time>
</trkpt>
<trkpt lat="35.0807483" lon="32.2874847">
<ele>182.25</ele>
<time>2015-04-25T13:34:26Z</time>
</trkpt>
<trkpt lat="35.0807848" lon="32.2874443">
<ele>181.78</ele>
<time>2015-04-25T13:34:31Z</time>
</trkpt>
<trkpt lat="35.0808231" lon="32.2874056">
<ele>181.70</ele>
<time>2015-04-25T13:34:36Z</time>
</trkpt>
<trkpt lat="35.0808601" lon="32.2873716">
<ele>179.60</ele>
<time>2015-04-25T13:34:40Z</time>
</trkpt>
<trkpt lat="35.0808220" lon="32.2874009">
<ele>180.77</ele>
<time>2015-04-25T13:35:06Z</time>
</trkpt>
<trkpt lat="35.0808732" lon="32.2873741">
<ele>178.37</ele>
<time>2015-04-25T13:35:38Z</time>
</trkpt>
<trkpt lat="35.0809141" lon="32.2873413">
<ele>178.70</ele>
<time>2015-04-25T13:35:42Z</time>
</trkpt>
<trkpt lat="35.0809718" lon="32.2873418">
<ele>179.10</ele>
<time>2015-04-25T13:35:46Z</time>
</trkpt>
<trkpt lat="35.0810229" lon="32.2873159">
<ele>178.19</ele>
<time>2015-04-25T13:35:50Z</time>
</trkpt>
<trkpt lat="35.0810778" lon="32.2872942">
<ele>178.69</ele>
<time>2015-04-25T13:35:54Z</time>
</trkpt>
<trkpt lat="35.0811292" lon="32.2872732">
<ele>180.41</ele>
<time>2015-04-25T13:35:58Z</time>
</trkpt>
<trkpt lat="35.0811857" lon="32.2872526">
<ele>179.27</ele>
<time>2015-04-25T13:36:02Z</time>
</trkpt>
<trkpt lat="35.0812382" lon="32.2872276">
<ele>178.20</ele>
<time>2015-04-25T13:36:06Z</time>
</trkpt>
<trkpt lat="35.0812830" lon="32.2872113">
<ele>177.08</ele>
<time>2015-04-25T13:36:09Z</time>
</trkpt>
<trkpt lat="35.0813358" lon="32.2871958">
<ele>177.75</ele>
<time>2015-04-25T13:36:13Z</time>
</trkpt>
<trkpt lat="35.0813910" lon="32.2872107">
<ele>179.45</ele>
<time>2015-04-25T13:36:18Z</time>
</trkpt>
<trkpt lat="35.0814406" lon="32.2872352">
<ele>178.08</ele>
<time>2015-04-25T13:36:22Z</time>
</trkpt>
<trkpt lat="35.0814907" lon="32.2872400">
<ele>176.43</ele>
<time>2015-04-25T13:36:26Z</time>
</trkpt>
<trkpt lat="35.0815375" lon="32.2872364">
<ele>175.27</ele>
<time>2015-04-25T13:36:30Z</time>
</trkpt>
<trkpt lat="35.0815850" lon="32.2872376">
<ele>176.63</ele>
<time>2015-04-25T13:36:34Z</time>
</trkpt>
<trkpt lat="35.0816302" lon="32.2872346">
<ele>177.41</ele>
<time>2015-04-25T13:36:38Z</time>
</trkpt>
<trkpt lat="35.0816878" lon="32.2872292">
<ele>177.46</ele>
<time>2015-04-25T13:36:42Z</time>
</trkpt>
<trkpt lat="35.0817349" lon="32.2872123">
<ele>177.49</ele>
<time>2015-04-25T13:36:45Z</time>
</trkpt>
<trkpt lat="35.0817816" lon="32.2872047">
<ele>179.50</ele>
<time>2015-04-25T13:36:48Z</time>
</trkpt>
<trkpt lat="35.0818283" lon="32.2872073">
<ele>182.87</ele>
<time>2015-04-25T13:36:51Z</time>
</trkpt>
<trkpt lat="35.0818804" lon="32.2872082">
<ele>185.04</ele>
<time>2015-04-25T13:36:54Z</time>
</trkpt>
<trkpt lat="35.0819348" lon="32.2871979">
<ele>185.81</ele>
<time>2015-04-25T13:36:57Z</time>
</trkpt>
<trkpt lat="35.0819834" lon="32.2871829">
<ele>185.41</ele>
<time>2015-04-25T13:37:00Z</time>
</trkpt>
<trkpt lat="35.0820299" lon="32.2871673">
<ele>184.49</ele>
<time>2015-04-25T13:37:03Z</time>
</trkpt>
<trkpt lat="35.0820795" lon="32.2871895">
<ele>182.62</ele>
<time>2015-04-25T13:37:06Z</time>
</trkpt>
<trkpt lat="35.0821273" lon="32.2872143">
<ele>182.76</ele>
<time>2015-04-25T13:37:09Z</time>
</trkpt>
<trkpt lat="35.0821740" lon="32.2872380">
<ele>184.53</ele>
<time>2015-04-25T13:37:12Z</time>
</trkpt>
<trkpt lat="35.0822265" lon="32.2872572">
<ele>185.75</ele>
<time>2015-04-25T13:37:15Z</time>
</trkpt>
<trkpt lat="35.0822815" lon="32.2872660">
<ele>185.90</ele>
<time>2015-04-25T13:37:18Z</time>
</trkpt>
<trkpt lat="35.0823403" lon="32.2872646">
<ele>188.05</ele>
<time>2015-04-25T13:37:21Z</time>
</trkpt>
<trkpt lat="35.0824037" lon="32.2872656">
<ele>188.32</ele>
<time>2015-04-25T13:37:24Z</time>
</trkpt>
<trkpt lat="35.0824674" lon="32.2872579">
<ele>188.47</ele>
<time>2015-04-25T13:37:27Z</time>
</trkpt>
<trkpt lat="35.0825158" lon="32.2872573">
<ele>188.12</ele>
<time>2015-04-25T13:37:30Z</time>
</trkpt>
<trkpt lat="35.0825752" lon="32.2872501">
<ele>187.44</ele>
<time>2015-04-25T13:37:34Z</time>
</trkpt>
<trkpt lat="35.0826331" lon="32.2872343">
<ele>188.27</ele>
<time>2015-04-25T13:37:38Z</time>
</trkpt>
<trkpt lat="35.0826796" lon="32.2872306">
<ele>187.59</ele>
<time>2015-04-25T13:37:41Z</time>
</trkpt>
<trkpt lat="35.0827339" lon="32.2872254">
<ele>187.88</ele>
<time>2015-04-25T13:37:44Z</time>
</trkpt>
<trkpt lat="35.0827802" lon="32.2872150">
<ele>188.92</ele>
<time>2015-04-25T13:37:47Z</time>
</trkpt>
<trkpt lat="35.0828294" lon="32.2872206">
<ele>189.05</ele>
<time>2015-04-25T13:37:50Z</time>
</trkpt>
<trkpt lat="35.0828789" lon="32.2872130">
<ele>188.07</ele>
<time>2015-04-25T13:37:53Z</time>
</trkpt>
<trkpt lat="35.0829380" lon="32.2871931">
<ele>189.75</ele>
<time>2015-04-25T13:37:57Z</time>
</trkpt>
<trkpt lat="35.0829959" lon="32.2871970">
<ele>192.16</ele>
<time>2015-04-25T13:38:01Z</time>
</trkpt>
<trkpt lat="35.0830565" lon="32.2872006">
<ele>192.38</ele>
<time>2015-04-25T13:38:05Z</time>
</trkpt>
<trkpt lat="35.0831074" lon="32.2872122">
<ele>190.98</ele>
<time>2015-04-25T13:38:08Z</time>
</trkpt>
<trkpt lat="35.0831588" lon="32.2872205">
<ele>190.06</ele>
<time>2015-04-25T13:38:11Z</time>
</trkpt>
<trkpt lat="35.0832043" lon="32.2872244">
<ele>189.94</ele>
<time>2015-04-25T13:38:14Z</time>
</trkpt>
<trkpt lat="35.0832516" lon="32.2872238">
<ele>189.93</ele>
<time>2015-04-25T13:38:17Z</time>
</trkpt>
<trkpt lat="35.0833002" lon="32.2872190">
<ele>189.18</ele>
<time>2015-04-25T13:38:20Z</time>
</trkpt>
<trkpt lat="35.0833496" lon="32.2872181">
<ele>190.21</ele>
<time>2015-04-25T13:38:23Z</time>
</trkpt>
<trkpt lat="35.0834087" lon="32.2872182">
<ele>190.09</ele>
<time>2015-04-25T13:38:26Z</time>
</trkpt>
<trkpt lat="35.0834689" lon="32.2872168">
<ele>189.22</ele>
<time>2015-04-25T13:38:28Z</time>
</trkpt>
<trkpt lat="35.0835367" lon="32.2872184">
<ele>189.75</ele>
<time>2015-04-25T13:38:30Z</time>
</trkpt>
<trkpt lat="35.0835975" lon="32.2872218">
<ele>189.88</ele>
<time>2015-04-25T13:38:32Z</time>
</trkpt>
<trkpt lat="35.0836482" lon="32.2872196">
<ele>189.91</ele>
<time>2015-04-25T13:38:34Z</time>
</trkpt>
<trkpt lat="35.0836937" lon="32.2872165">
<ele>190.42</ele>
<time>2015-04-25T13:38:36Z</time>
</trkpt>
<trkpt lat="35.0837616" lon="32.2872072">
<ele>189.36</ele>
<time>2015-04-25T13:38:39Z</time>
</trkpt>
<trkpt lat="35.0838175" lon="32.2871933">
<ele>188.98</ele>
<time>2015-04-25T13:38:42Z</time>
</trkpt>
<trkpt lat="35.0838742" lon="32.2871735">
<ele>189.68</ele>
<time>2015-04-25T13:38:45Z</time>
</trkpt>
<trkpt lat="35.0839179" lon="32.2871465">
<ele>190.39</ele>
<time>2015-04-25T13:38:48Z</time>
</trkpt>
<trkpt lat="35.0839679" lon="32.2871218">
<ele>191.23</ele>
<time>2015-04-25T13:38:51Z</time>
</trkpt>
<trkpt lat="35.0840172" lon="32.2870843">
<ele>189.71</ele>
<time>2015-04-25T13:38:54Z</time>
</trkpt>
<trkpt lat="35.0840644" lon="32.2870429">
<ele>188.52</ele>
<time>2015-04-25T13:38:57Z</time>
</trkpt>
<trkpt lat="35.0841016" lon="32.2869970">
<ele>189.37</ele>
<time>2015-04-25T13:39:00Z</time>
</trkpt>
<trkpt lat="35.0841372" lon="32.2869580">
<ele>188.23</ele>
<time>2015-04-25T13:39:03Z</time>
</trkpt>
<trkpt lat="35.0841797" lon="32.2869087">
<ele>186.51</ele>
<time>2015-04-25T13:39:07Z</time>
</trkpt>
<trkpt lat="35.0842198" lon="32.2868796">
<ele>186.50</ele>
<time>2015-04-25T13:39:10Z</time>
</trkpt>
<trkpt lat="35.0842609" lon="32.2868472">
<ele>185.50</ele>
<time>2015-04-25T13:39:13Z</time>
</trkpt>
<trkpt lat="35.0843081" lon="32.2868283">
<ele>184.12</ele>
<time>2015-04-25T13:39:16Z</time>
</trkpt>
<trkpt lat="35.0843604" lon="32.2868141">
<ele>185.20</ele>
<time>2015-04-25T13:39:19Z</time>
</trkpt>
<trkpt lat="35.0844251" lon="32.2868013">
<ele>185.83</ele>
<time>2015-04-25T13:39:22Z</time>
</trkpt>
<trkpt lat="35.0844904" lon="32.2867907">
<ele>185.16</ele>
<time>2015-04-25T13:39:25Z</time>
</trkpt>
<trkpt lat="35.0845486" lon="32.2867716">
<ele>184.95</ele>
<time>2015-04-25T13:39:28Z</time>
</trkpt>
<trkpt lat="35.0845914" lon="32.2867426">
<ele>186.30</ele>
<time>2015-04-25T13:39:31Z</time>
</trkpt>
<trkpt lat="35.0846380" lon="32.2867031">
<ele>185.97</ele>
<time>2015-04-25T13:39:34Z</time>
</trkpt>
<trkpt lat="35.0846786" lon="32.2866486">
<ele>185.68</ele>
<time>2015-04-25T13:39:37Z</time>
</trkpt>
<trkpt lat="35.0847149" lon="32.2865889">
<ele>186.64</ele>
<time>2015-04-25T13:39:40Z</time>
</trkpt>
<trkpt lat="35.0847478" lon="32.2865408">
<ele>187.01</ele>
<time>2015-04-25T13:39:43Z</time>
</trkpt>
<trkpt lat="35.0847635" lon="32.2864727">
<ele>189.12</ele>
<time>2015-04-25T13:39:47Z</time>
</trkpt>
<trkpt lat="35.0847960" lon="32.2864155">
<ele>190.62</ele>
<time>2015-04-25T13:39:51Z</time>
</trkpt>
<trkpt lat="35.0848347" lon="32.2863762">
<ele>191.03</ele>
<time>2015-04-25T13:39:55Z</time>
</trkpt>
<trkpt lat="35.0848664" lon="32.2863350">
<ele>191.62</ele>
<time>2015-04-25T13:39:59Z</time>
</trkpt>
<trkpt lat="35.0848934" lon="32.2862877">
<ele>192.28</ele>
<time>2015-04-25T13:40:03Z</time>
</trkpt>
<trkpt lat="35.0849246" lon="32.2862296">
<ele>192.38</ele>
<time>2015-04-25T13:40:07Z</time>
</trkpt>
<trkpt lat="35.0849533" lon="32.2861854">
<ele>191.98</ele>
<time>2015-04-25T13:40:10Z</time>
</trkpt>
<trkpt lat="35.0850035" lon="32.2861438">
<ele>191.05</ele>
<time>2015-04-25T13:40:14Z</time>
</trkpt>
<trkpt lat="35.0850450" lon="32.2861106">
<ele>191.44</ele>
<time>2015-04-25T13:40:17Z</time>
</trkpt>
<trkpt lat="35.0850845" lon="32.2860667">
<ele>191.99</ele>
<time>2015-04-25T13:40:20Z</time>
</trkpt>
<trkpt lat="35.0851202" lon="32.2860171">
<ele>192.68</ele>
<time>2015-04-25T13:40:23Z</time>
</trkpt>
<trkpt lat="35.0851659" lon="32.2859703">
<ele>192.77</ele>
<time>2015-04-25T13:40:26Z</time>
</trkpt>
<trkpt lat="35.0852184" lon="32.2859240">
<ele>192.91</ele>
<time>2015-04-25T13:40:29Z</time>
</trkpt>
<trkpt lat="35.0852745" lon="32.2858850">
<ele>193.67</ele>
<time>2015-04-25T13:40:32Z</time>
</trkpt>
<trkpt lat="35.0853216" lon="32.2858434">
<ele>195.14</ele>
<time>2015-04-25T13:40:35Z</time>
</trkpt>
<trkpt lat="35.0853733" lon="32.2858024">
<ele>194.95</ele>
<time>2015-04-25T13:40:38Z</time>
</trkpt>
<trkpt lat="35.0854267" lon="32.2857790">
<ele>195.68</ele>
<time>2015-04-25T13:40:41Z</time>
</trkpt>
<trkpt lat="35.0854782" lon="32.2857632">
<ele>196.64</ele>
<time>2015-04-25T13:40:44Z</time>
</trkpt>
<trkpt lat="35.0855227" lon="32.2857439">
<ele>195.64</ele>
<time>2015-04-25T13:40:47Z</time>
</trkpt>
<trkpt lat="35.0855746" lon="32.2857073">
<ele>196.78</ele>
<time>2015-04-25T13:40:51Z</time>
</trkpt>
<trkpt lat="35.0856050" lon="32.2856452">
<ele>196.91</ele>
<time>2015-04-25T13:40:54Z</time>
</trkpt>
<trkpt lat="35.0856171" lon="32.2855726">
<ele>199.05</ele>
<time>2015-04-25T13:40:57Z</time>
</trkpt>
<trkpt lat="35.0856118" lon="32.2855021">
<ele>199.32</ele>
<time>2015-04-25T13:41:00Z</time>
</trkpt>
<trkpt lat="35.0856433" lon="32.2854535">
<ele>197.85</ele>
<time>2015-04-25T13:41:03Z</time>
</trkpt>
<trkpt lat="35.0857027" lon="32.2854311">
<ele>196.29</ele>
<time>2015-04-25T13:41:06Z</time>
</trkpt>
<trkpt lat="35.0857560" lon="32.2854075">
<ele>195.61</ele>
<time>2015-04-25T13:41:07Z</time>
</trkpt>
<trkpt lat="35.0858068" lon="32.2853866">
<ele>195.27</ele>
<time>2015-04-25T13:41:08Z</time>
</trkpt>
<trkpt lat="35.0858542" lon="32.2853644">
<ele>195.10</ele>
<time>2015-04-25T13:41:09Z</time>
</trkpt>
<trkpt lat="35.0859123" lon="32.2853448">
<ele>194.51</ele>
<time>2015-04-25T13:41:10Z</time>
</trkpt>
<trkpt lat="35.0859556" lon="32.2853181">
<ele>194.22</ele>
<time>2015-04-25T13:41:11Z</time>
</trkpt>
<trkpt lat="35.0859953" lon="32.2852908">
<ele>193.57</ele>
<time>2015-04-25T13:41:12Z</time>
</trkpt>
<trkpt lat="35.0860725" lon="32.2852488">
<ele>193.09</ele>
<time>2015-04-25T13:41:14Z</time>
</trkpt>
<trkpt lat="35.0861524" lon="32.2851982">
<ele>191.72</ele>
<time>2015-04-25T13:41:16Z</time>
</trkpt>
<trkpt lat="35.0861988" lon="32.2851609">
<ele>191.32</ele>
<time>2015-04-25T13:41:17Z</time>
</trkpt>
<trkpt lat="35.0862418" lon="32.2851353">
<ele>190.62</ele>
<time>2015-04-25T13:41:18Z</time>
</trkpt>
<trkpt lat="35.0862886" lon="32.2851042">
<ele>190.27</ele>
<time>2015-04-25T13:41:19Z</time>
</trkpt>
<trkpt lat="35.0863377" lon="32.2850658">
<ele>189.60</ele>
<time>2015-04-25T13:41:20Z</time>
</trkpt>
<trkpt lat="35.0863865" lon="32.2850273">
<ele>189.26</ele>
<time>2015-04-25T13:41:21Z</time>
</trkpt>
<trkpt lat="35.0864381" lon="32.2849996">
<ele>189.09</ele>
<time>2015-04-25T13:41:22Z</time>
</trkpt>
<trkpt lat="35.0865068" lon="32.2849448">
<ele>188.97</ele>
<time>2015-04-25T13:41:24Z</time>
</trkpt>
<trkpt lat="35.0865713" lon="32.2848931">
<ele>188.94</ele>
<time>2015-04-25T13:41:26Z</time>
</trkpt>
<trkpt lat="35.0866253" lon="32.2848350">
<ele>188.93</ele>
<time>2015-04-25T13:41:28Z</time>
</trkpt>
<trkpt lat="35.0866829" lon="32.2847949">
<ele>188.18</ele>
<time>2015-04-25T13:41:30Z</time>
</trkpt>
<trkpt lat="35.0867380" lon="32.2847719">
<ele>188.24</ele>
<time>2015-04-25T13:41:32Z</time>
</trkpt>
<trkpt lat="35.0868082" lon="32.2847770">
<ele>188.75</ele>
<time>2015-04-25T13:41:34Z</time>
</trkpt>
<trkpt lat="35.0868868" lon="32.2847779">
<ele>188.88</ele>
<time>2015-04-25T13:41:36Z</time>
</trkpt>
<trkpt lat="35.0869664" lon="32.2847780">
<ele>189.66</ele>
<time>2015-04-25T13:41:38Z</time>
</trkpt>
<trkpt lat="35.0870455" lon="32.2847792">
<ele>189.36</ele>
<time>2015-04-25T13:41:40Z</time>
</trkpt>
<trkpt lat="35.0871267" lon="32.2847877">
<ele>189.03</ele>
<time>2015-04-25T13:41:42Z</time>
</trkpt>
<trkpt lat="35.0872052" lon="32.2848020">
<ele>188.95</ele>
<time>2015-04-25T13:41:44Z</time>
</trkpt>
<trkpt lat="35.0872744" lon="32.2848203">
<ele>189.43</ele>
<time>2015-04-25T13:41:46Z</time>
</trkpt>
<trkpt lat="35.0873358" lon="32.2848417">
<ele>189.05</ele>
<time>2015-04-25T13:41:48Z</time>
</trkpt>
<trkpt lat="35.0873892" lon="32.2848716">
<ele>188.46</ele>
<time>2015-04-25T13:41:50Z</time>
</trkpt>
<trkpt lat="35.0874480" lon="32.2848960">
<ele>188.31</ele>
<time>2015-04-25T13:41:52Z</time>
</trkpt>
<trkpt lat="35.0875063" lon="32.2849121">
<ele>188.02</ele>
<time>2015-04-25T13:41:54Z</time>
</trkpt>
<trkpt lat="35.0875658" lon="32.2849144">
<ele>186.70</ele>
<time>2015-04-25T13:41:56Z</time>
</trkpt>
<trkpt lat="35.0876257" lon="32.2849202">
<ele>186.12</ele>
<time>2015-04-25T13:41:58Z</time>
</trkpt>
<trkpt lat="35.0876913" lon="32.2849171">
<ele>185.97</ele>
<time>2015-04-25T13:42:00Z</time>
</trkpt>
<trkpt lat="35.0877559" lon="32.2848996">
<ele>185.94</ele>
<time>2015-04-25T13:42:02Z</time>
</trkpt>
<trkpt lat="35.0878152" lon="32.2848675">
<ele>185.93</ele>
<time>2015-04-25T13:42:04Z</time>
</trkpt>
<trkpt lat="35.0878730" lon="32.2848367">
<ele>185.93</ele>
<time>2015-04-25T13:42:06Z</time>
</trkpt>
<trkpt lat="35.0879159" lon="32.2848027">
<ele>185.93</ele>
<time>2015-04-25T13:42:08Z</time>
</trkpt>
<trkpt lat="35.0879532" lon="32.2847648">
<ele>185.93</ele>
<time>2015-04-25T13:42:10Z</time>
</trkpt>
<trkpt lat="35.0879884" lon="32.2847302">
<ele>186.68</ele>
<time>2015-04-25T13:42:12Z</time>
</trkpt>
<trkpt lat="35.0880266" lon="32.2847007">
<ele>186.86</ele>
<time>2015-04-25T13:42:14Z</time>
</trkpt>
<trkpt lat="35.0880850" lon="32.2846681">
<ele>186.92</ele>
<time>2015-04-25T13:42:17Z</time>
</trkpt>
<trkpt lat="35.0881425" lon="32.2846368">
<ele>187.67</ele>
<time>2015-04-25T13:42:20Z</time>
</trkpt>
<trkpt lat="35.0881976" lon="32.2846135">
<ele>187.91</ele>
<time>2015-04-25T13:42:24Z</time>
</trkpt>
<trkpt lat="35.0882461" lon="32.2845822">
<ele>187.92</ele>
<time>2015-04-25T13:42:28Z</time>
</trkpt>
<trkpt lat="35.0882822" lon="32.2845356">
<ele>187.92</ele>
<time>2015-04-25T13:42:31Z</time>
</trkpt>
<trkpt lat="35.0883276" lon="32.2844987">
<ele>188.67</ele>
<time>2015-04-25T13:42:34Z</time>
</trkpt>
<trkpt lat="35.0883772" lon="32.2844698">
<ele>188.89</ele>
<time>2015-04-25T13:42:37Z</time>
</trkpt>
<trkpt lat="35.0884343" lon="32.2844690">
<ele>189.80</ele>
<time>2015-04-25T13:42:40Z</time>
</trkpt>
<trkpt lat="35.0884863" lon="32.2844705">
<ele>190.79</ele>
<time>2015-04-25T13:42:44Z</time>
</trkpt>
<trkpt lat="35.0885343" lon="32.2844423">
<ele>191.92</ele>
<time>2015-04-25T13:42:48Z</time>
</trkpt>
<trkpt lat="35.0885808" lon="32.2844598">
<ele>192.80</ele>
<time>2015-04-25T13:42:52Z</time>
</trkpt>
<trkpt lat="35.0886264" lon="32.2844337">
<ele>194.05</ele>
<time>2015-04-25T13:43:11Z</time>
</trkpt>
<trkpt lat="35.0886745" lon="32.2844200">
<ele>194.43</ele>
<time>2015-04-25T13:43:16Z</time>
</trkpt>
<trkpt lat="35.0887182" lon="32.2844053">
<ele>194.91</ele>
<time>2015-04-25T13:43:21Z</time>
</trkpt>
<trkpt lat="35.0887632" lon="32.2844106">
<ele>197.75</ele>
<time>2015-04-25T13:43:32Z</time>
</trkpt>
<trkpt lat="35.0888108" lon="32.2844103">
<ele>199.16</ele>
<time>2015-04-25T13:43:48Z</time>
</trkpt>
<trkpt lat="35.0888565" lon="32.2844050">
<ele>199.92</ele>
<time>2015-04-25T13:43:59Z</time>
</trkpt>
<trkpt lat="35.0889054" lon="32.2843869">
<ele>199.89</ele>
<time>2015-04-25T13:44:04Z</time>
</trkpt>
<trkpt lat="35.0889483" lon="32.2843672">
<ele>200.24</ele>
<time>2015-04-25T13:44:08Z</time>
</trkpt>
<trkpt lat="35.0889874" lon="32.2843388">
<ele>200.69</ele>
<time>2015-04-25T13:44:12Z</time>
</trkpt>
<trkpt lat="35.0890236" lon="32.2843037">
<ele>199.98</ele>
<time>2015-04-25T13:44:17Z</time>
</trkpt>
<trkpt lat="35.0890756" lon="32.2842828">
<ele>199.68</ele>
<time>2015-04-25T13:44:21Z</time>
</trkpt>
<trkpt lat="35.0891147" lon="32.2842518">
<ele>199.52</ele>
<time>2015-04-25T13:44:24Z</time>
</trkpt>
<trkpt lat="35.0891558" lon="32.2841925">
<ele>200.75</ele>
<time>2015-04-25T13:44:27Z</time>
</trkpt>
<trkpt lat="35.0891985" lon="32.2841441">
<ele>200.88</ele>
<time>2015-04-25T13:44:29Z</time>
</trkpt>
<trkpt lat="35.0892395" lon="32.2840962">
<ele>200.91</ele>
<time>2015-04-25T13:44:31Z</time>
</trkpt>
<trkpt lat="35.0892721" lon="32.2840434">
<ele>201.67</ele>
<time>2015-04-25T13:44:33Z</time>
</trkpt>
<trkpt lat="35.0893010" lon="32.2839832">
<ele>201.36</ele>
<time>2015-04-25T13:44:35Z</time>
</trkpt>
<trkpt lat="35.0893342" lon="32.2839081">
<ele>200.53</ele>
<time>2015-04-25T13:44:37Z</time>
</trkpt>
<trkpt lat="35.0893751" lon="32.2838208">
<ele>199.58</ele>
<time>2015-04-25T13:44:39Z</time>
</trkpt>
<trkpt lat="35.0894171" lon="32.2837339">
<ele>199.09</ele>
<time>2015-04-25T13:44:41Z</time>
</trkpt>
<trkpt lat="35.0894564" lon="32.2836524">
<ele>198.97</ele>
<time>2015-04-25T13:44:43Z</time>
</trkpt>
<trkpt lat="35.0894943" lon="32.2835805">
<ele>200.94</ele>
<time>2015-04-25T13:44:45Z</time>
</trkpt>
<trkpt lat="35.0895332" lon="32.2835199">
<ele>202.18</ele>
<time>2015-04-25T13:44:47Z</time>
</trkpt>
<trkpt lat="35.0895722" lon="32.2834663">
<ele>203.99</ele>
<time>2015-04-25T13:44:49Z</time>
</trkpt>
<trkpt lat="35.0896172" lon="32.2834278">
<ele>205.19</ele>
<time>2015-04-25T13:44:51Z</time>
</trkpt>
<trkpt lat="35.0896610" lon="32.2833935">
<ele>205.74</ele>
<time>2015-04-25T13:44:53Z</time>
</trkpt>
<trkpt lat="35.0897043" lon="32.2833664">
<ele>206.15</ele>
<time>2015-04-25T13:44:56Z</time>
</trkpt>
<trkpt lat="35.0897534" lon="32.2833349">
<ele>206.94</ele>
<time>2015-04-25T13:45:00Z</time>
</trkpt>
<trkpt lat="35.0897915" lon="32.2833034">
<ele>207.30</ele>
<time>2015-04-25T13:45:03Z</time>
</trkpt>
<trkpt lat="35.0898442" lon="32.2832910">
<ele>207.72</ele>
<time>2015-04-25T13:45:06Z</time>
</trkpt>
<trkpt lat="35.0898983" lon="32.2832795">
<ele>208.40</ele>
<time>2015-04-25T13:45:09Z</time>
</trkpt>
<trkpt lat="35.0899452" lon="32.2832639">
<ele>209.73</ele>
<time>2015-04-25T13:45:12Z</time>
</trkpt>
<trkpt lat="35.0899893" lon="32.2832339">
<ele>210.78</ele>
<time>2015-04-25T13:45:15Z</time>
</trkpt>
<trkpt lat="35.0900351" lon="32.2832018">
<ele>210.91</ele>
<time>2015-04-25T13:45:18Z</time>
</trkpt>
<trkpt lat="35.0900769" lon="32.2831560">
<ele>214.05</ele>
<time>2015-04-25T13:45:21Z</time>
</trkpt>
<trkpt lat="35.0901236" lon="32.2831285">
<ele>213.19</ele>
<time>2015-04-25T13:45:24Z</time>
</trkpt>
<trkpt lat="35.0901692" lon="32.2831020">
<ele>213.33</ele>
<time>2015-04-25T13:45:27Z</time>
</trkpt>
<trkpt lat="35.0902177" lon="32.2830857">
<ele>212.98</ele>
<time>2015-04-25T13:45:30Z</time>
</trkpt>
<trkpt lat="35.0902718" lon="32.2830974">
<ele>215.18</ele>
<time>2015-04-25T13:45:33Z</time>
</trkpt>
<trkpt lat="35.0903280" lon="32.2831107">
<ele>216.71</ele>
<time>2015-04-25T13:45:36Z</time>
</trkpt>
<trkpt lat="35.0903796" lon="32.2831184">
<ele>216.15</ele>
<time>2015-04-25T13:45:39Z</time>
</trkpt>
<trkpt lat="35.0904368" lon="32.2831268">
<ele>214.70</ele>
<time>2015-04-25T13:45:42Z</time>
</trkpt>
<trkpt lat="35.0904826" lon="32.2831401">
<ele>215.65</ele>
<time>2015-04-25T13:45:45Z</time>
</trkpt>
<trkpt lat="35.0905330" lon="32.2831524">
<ele>213.10</ele>
<time>2015-04-25T13:45:49Z</time>
</trkpt>
<trkpt lat="35.0905902" lon="32.2831519">
<ele>210.77</ele>
<time>2015-04-25T13:45:54Z</time>
</trkpt>
<trkpt lat="35.0906386" lon="32.2831271">
<ele>210.53</ele>
<time>2015-04-25T13:45:57Z</time>
</trkpt>
<trkpt lat="35.0907050" lon="32.2830931">
<ele>210.00</ele>
<time>2015-04-25T13:46:00Z</time>
</trkpt>
<trkpt lat="35.0907499" lon="32.2830504">
<ele>208.19</ele>
<time>2015-04-25T13:46:02Z</time>
</trkpt>
<trkpt lat="35.0907864" lon="32.2830059">
<ele>207.74</ele>
<time>2015-04-25T13:46:04Z</time>
</trkpt>
<trkpt lat="35.0908167" lon="32.2829653">
<ele>207.63</ele>
<time>2015-04-25T13:46:06Z</time>
</trkpt>
<trkpt lat="35.0908566" lon="32.2829065">
<ele>209.51</ele>
<time>2015-04-25T13:46:09Z</time>
</trkpt>
<trkpt lat="35.0908874" lon="32.2828454">
<ele>209.87</ele>
<time>2015-04-25T13:46:12Z</time>
</trkpt>
<trkpt lat="35.0909033" lon="32.2827927">
<ele>210.29</ele>
<time>2015-04-25T13:46:15Z</time>
</trkpt>
<trkpt lat="35.0909166" lon="32.2827392">
<ele>210.66</ele>
<time>2015-04-25T13:46:23Z</time>
</trkpt>
<trkpt lat="35.0909213" lon="32.2826828">
<ele>213.42</ele>
<time>2015-04-25T13:46:49Z</time>
</trkpt>
<trkpt lat="35.0909492" lon="32.2826346">
<ele>212.92</ele>
<time>2015-04-25T13:47:00Z</time>
</trkpt>
<trkpt lat="35.0909552" lon="32.2825787">
<ele>216.03</ele>
<time>2015-04-25T13:47:16Z</time>
</trkpt>
<trkpt lat="35.0909781" lon="32.2825252">
<ele>210.32</ele>
<time>2015-04-25T13:47:24Z</time>
</trkpt>
<trkpt lat="35.0910119" lon="32.2824834">
<ele>205.90</ele>
<time>2015-04-25T13:47:32Z</time>
</trkpt>
<trkpt lat="35.0910522" lon="32.2824568">
<ele>208.92</ele>
<time>2015-04-25T13:47:40Z</time>
</trkpt>
<trkpt lat="35.0910867" lon="32.2824124">
<ele>211.75</ele>
<time>2015-04-25T13:47:47Z</time>
</trkpt>
<trkpt lat="35.0911214" lon="32.2823690">
<ele>213.55</ele>
<time>2015-04-25T13:47:53Z</time>
</trkpt>
<trkpt lat="35.0911452" lon="32.2823187">
<ele>216.36</ele>
<time>2015-04-25T13:47:59Z</time>
</trkpt>
<trkpt lat="35.0911698" lon="32.2822608">
<ele>218.01</ele>
<time>2015-04-25T13:48:06Z</time>
</trkpt>
<trkpt lat="35.0911635" lon="32.2821981">
<ele>216.71</ele>
<time>2015-04-25T13:48:11Z</time>
</trkpt>
<trkpt lat="35.0911577" lon="32.2821387">
<ele>218.82</ele>
<time>2015-04-25T13:48:16Z</time>
</trkpt>
<trkpt lat="35.0911278" lon="32.2820912">
<ele>217.14</ele>
<time>2015-04-25T13:48:30Z</time>
</trkpt>
<trkpt lat="35.0910974" lon="32.2820492">
<ele>216.49</ele>
<time>2015-04-25T13:48:36Z</time>
</trkpt>
<trkpt lat="35.0910564" lon="32.2820207">
<ele>219.30</ele>
<time>2015-04-25T13:48:45Z</time>
</trkpt>
<trkpt lat="35.0910140" lon="32.2820002">
<ele>220.26</ele>
<time>2015-04-25T13:48:52Z</time>
</trkpt>
<trkpt lat="35.0910570" lon="32.2820166">
<ele>217.57</ele>
<time>2015-04-25T13:51:24Z</time>
</trkpt>
<trkpt lat="35.0910988" lon="32.2820520">
<ele>218.63</ele>
<time>2015-04-25T13:51:31Z</time>
</trkpt>
<trkpt lat="35.0911202" lon="32.2821090">
<ele>219.72</ele>
<time>2015-04-25T13:51:44Z</time>
</trkpt>
<trkpt lat="35.0909192" lon="32.2829212">
<ele>201.93</ele>
<time>2015-04-25T14:15:12Z</time>
</trkpt>
<trkpt lat="35.0909078" lon="32.2828411">
<ele>196.43</ele>
<time>2015-04-25T14:15:14Z</time>
</trkpt>
<trkpt lat="35.0908678" lon="32.2828701">
<ele>215.44</ele>
<time>2015-04-25T14:15:54Z</time>
</trkpt>
<trkpt lat="35.0908322" lon="32.2829252">
<ele>219.46</ele>
<time>2015-04-25T14:16:01Z</time>
</trkpt>
<trkpt lat="35.0908011" lon="32.2829820">
<ele>222.49</ele>
<time>2015-04-25T14:16:04Z</time>
</trkpt>
<trkpt lat="35.0907634" lon="32.2830367">
<ele>223.87</ele>
<time>2015-04-25T14:16:07Z</time>
</trkpt>
<trkpt lat="35.0907093" lon="32.2830828">
<ele>224.04</ele>
<time>2015-04-25T14:16:10Z</time>
</trkpt>
<trkpt lat="35.0906551" lon="32.2831242">
<ele>222.56</ele>
<time>2015-04-25T14:16:13Z</time>
</trkpt>
<trkpt lat="35.0905971" lon="32.2831376">
<ele>220.76</ele>
<time>2015-04-25T14:16:18Z</time>
</trkpt>
<trkpt lat="35.0905314" lon="32.2831238">
<ele>221.78</ele>
<time>2015-04-25T14:16:21Z</time>
</trkpt>
<trkpt lat="35.0904683" lon="32.2831071">
<ele>223.03</ele>
<time>2015-04-25T14:16:24Z</time>
</trkpt>
<trkpt lat="35.0904149" lon="32.2830979">
<ele>222.44</ele>
<time>2015-04-25T14:16:27Z</time>
</trkpt>
<trkpt lat="35.0903626" lon="32.2830868">
<ele>221.24</ele>
<time>2015-04-25T14:16:30Z</time>
</trkpt>
<trkpt lat="35.0903092" lon="32.2830888">
<ele>220.34</ele>
<time>2015-04-25T14:16:33Z</time>
</trkpt>
<trkpt lat="35.0902458" lon="32.2830974">
<ele>219.48</ele>
<time>2015-04-25T14:16:36Z</time>
</trkpt>
<trkpt lat="35.0901983" lon="32.2831102">
<ele>219.06</ele>
<time>2015-04-25T14:16:38Z</time>
</trkpt>
<trkpt lat="35.0901463" lon="32.2831355">
<ele>219.21</ele>
<time>2015-04-25T14:16:40Z</time>
</trkpt>
<trkpt lat="35.0900973" lon="32.2831693">
<ele>219.00</ele>
<time>2015-04-25T14:16:42Z</time>
</trkpt>
<trkpt lat="35.0900495" lon="32.2832053">
<ele>218.94</ele>
<time>2015-04-25T14:16:44Z</time>
</trkpt>
<trkpt lat="35.0899991" lon="32.2832384">
<ele>219.68</ele>
<time>2015-04-25T14:16:46Z</time>
</trkpt>
<trkpt lat="35.0899445" lon="32.2832651">
<ele>219.86</ele>
<time>2015-04-25T14:16:48Z</time>
</trkpt>
<trkpt lat="35.0898929" lon="32.2832882">
<ele>219.66</ele>
<time>2015-04-25T14:16:50Z</time>
</trkpt>
<trkpt lat="35.0898314" lon="32.2833106">
<ele>219.39</ele>
<time>2015-04-25T14:16:53Z</time>
</trkpt>
<trkpt lat="35.0897828" lon="32.2833178">
<ele>218.96</ele>
<time>2015-04-25T14:17:17Z</time>
</trkpt>
<trkpt lat="35.0897362" lon="32.2833488">
<ele>219.46</ele>
<time>2015-04-25T14:18:29Z</time>
</trkpt>
<trkpt lat="35.0896953" lon="32.2833894">
<ele>219.42</ele>
<time>2015-04-25T14:18:56Z</time>
</trkpt>
<trkpt lat="35.0896654" lon="32.2834325">
<ele>218.55</ele>
<time>2015-04-25T14:18:58Z</time>
</trkpt>
<trkpt lat="35.0896252" lon="32.2834774">
<ele>217.58</ele>
<time>2015-04-25T14:19:00Z</time>
</trkpt>
<trkpt lat="35.0895783" lon="32.2835178">
<ele>216.59</ele>
<time>2015-04-25T14:19:02Z</time>
</trkpt>
<trkpt lat="35.0895374" lon="32.2835542">
<ele>216.34</ele>
<time>2015-04-25T14:19:04Z</time>
</trkpt>
<trkpt lat="35.0894995" lon="32.2836006">
<ele>215.23</ele>
<time>2015-04-25T14:19:07Z</time>
</trkpt>
<trkpt lat="35.0894542" lon="32.2836550">
<ele>213.59</ele>
<time>2015-04-25T14:19:10Z</time>
</trkpt>
<trkpt lat="35.0894281" lon="32.2837010">
<ele>213.09</ele>
<time>2015-04-25T14:19:12Z</time>
</trkpt>
<trkpt lat="35.0894050" lon="32.2837527">
<ele>212.22</ele>
<time>2015-04-25T14:19:14Z</time>
</trkpt>
<trkpt lat="35.0893804" lon="32.2838119">
<ele>211.50</ele>
<time>2015-04-25T14:19:16Z</time>
</trkpt>
<trkpt lat="35.0893548" lon="32.2838673">
<ele>211.07</ele>
<time>2015-04-25T14:19:18Z</time>
</trkpt>
<trkpt lat="35.0893308" lon="32.2839236">
<ele>210.96</ele>
<time>2015-04-25T14:19:20Z</time>
</trkpt>
<trkpt lat="35.0893096" lon="32.2839848">
<ele>210.93</ele>
<time>2015-04-25T14:19:22Z</time>
</trkpt>
<trkpt lat="35.0892885" lon="32.2840450">
<ele>210.68</ele>
<time>2015-04-25T14:19:24Z</time>
</trkpt>
<trkpt lat="35.0892583" lon="32.2840980">
<ele>210.86</ele>
<time>2015-04-25T14:19:26Z</time>
</trkpt>
<trkpt lat="35.0892213" lon="32.2841323">
<ele>212.55</ele>
<time>2015-04-25T14:19:30Z</time>
</trkpt>
<trkpt lat="35.0891856" lon="32.2841673">
<ele>212.92</ele>
<time>2015-04-25T14:19:37Z</time>
</trkpt>
<trkpt lat="35.0891440" lon="32.2842089">
<ele>212.42</ele>
<time>2015-04-25T14:19:45Z</time>
</trkpt>
<trkpt lat="35.0891091" lon="32.2842492">
<ele>212.05</ele>
<time>2015-04-25T14:19:47Z</time>
</trkpt>
<trkpt lat="35.0890677" lon="32.2842914">
<ele>211.21</ele>
<time>2015-04-25T14:19:49Z</time>
</trkpt>
<trkpt lat="35.0890234" lon="32.2843280">
<ele>210.25</ele>
<time>2015-04-25T14:19:51Z</time>
</trkpt>
<trkpt lat="35.0889680" lon="32.2843652">
<ele>209.26</ele>
<time>2015-04-25T14:19:53Z</time>
</trkpt>
<trkpt lat="35.0889038" lon="32.2843984">
<ele>208.26</ele>
<time>2015-04-25T14:19:55Z</time>
</trkpt>
<trkpt lat="35.0888320" lon="32.2844211">
<ele>207.51</ele>
<time>2015-04-25T14:19:57Z</time>
</trkpt>
<trkpt lat="35.0887660" lon="32.2844314">
<ele>206.57</ele>
<time>2015-04-25T14:19:59Z</time>
</trkpt>
<trkpt lat="35.0886993" lon="32.2844388">
<ele>205.59</ele>
<time>2015-04-25T14:20:01Z</time>
</trkpt>
<trkpt lat="35.0886337" lon="32.2844491">
<ele>205.09</ele>
<time>2015-04-25T14:20:03Z</time>
</trkpt>
<trkpt lat="35.0885668" lon="32.2844614">
<ele>204.47</ele>
<time>2015-04-25T14:20:05Z</time>
</trkpt>
<trkpt lat="35.0885065" lon="32.2844746">
<ele>204.06</ele>
<time>2015-04-25T14:20:07Z</time>
</trkpt>
<trkpt lat="35.0884502" lon="32.2844850">
<ele>203.96</ele>
<time>2015-04-25T14:20:09Z</time>
</trkpt>
<trkpt lat="35.0883990" lon="32.2844979">
<ele>203.93</ele>
<time>2015-04-25T14:20:11Z</time>
</trkpt>
<trkpt lat="35.0883470" lon="32.2845183">
<ele>203.18</ele>
<time>2015-04-25T14:20:13Z</time>
</trkpt>
<trkpt lat="35.0883046" lon="32.2845441">
<ele>202.24</ele>
<time>2015-04-25T14:20:15Z</time>
</trkpt>
<trkpt lat="35.0882559" lon="32.2845729">
<ele>202.75</ele>
<time>2015-04-25T14:20:17Z</time>
</trkpt>
<trkpt lat="35.0881920" lon="32.2846183">
<ele>202.88</ele>
<time>2015-04-25T14:20:19Z</time>
</trkpt>
<trkpt lat="35.0881120" lon="32.2846736">
<ele>201.66</ele>
<time>2015-04-25T14:20:21Z</time>
</trkpt>
<trkpt lat="35.0880626" lon="32.2847016">
<ele>201.29</ele>
<time>2015-04-25T14:20:22Z</time>
</trkpt>
<trkpt lat="35.0880149" lon="32.2847244">
<ele>201.11</ele>
<time>2015-04-25T14:20:23Z</time>
</trkpt>
<trkpt lat="35.0879651" lon="32.2847583">
<ele>201.02</ele>
<time>2015-04-25T14:20:24Z</time>
</trkpt>
<trkpt lat="35.0879252" lon="32.2847901">
<ele>200.97</ele>
<time>2015-04-25T14:20:25Z</time>
</trkpt>
<trkpt lat="35.0878772" lon="32.2848256">
<ele>200.95</ele>
<time>2015-04-25T14:20:26Z</time>
</trkpt>
<trkpt lat="35.0878332" lon="32.2848572">
<ele>200.44</ele>
<time>2015-04-25T14:20:27Z</time>
</trkpt>
<trkpt lat="35.0877846" lon="32.2848836">
<ele>200.18</ele>
<time>2015-04-25T14:20:28Z</time>
</trkpt>
<trkpt lat="35.0877253" lon="32.2849032">
<ele>200.05</ele>
<time>2015-04-25T14:20:29Z</time>
</trkpt>
<trkpt lat="35.0876723" lon="32.2849159">
<ele>199.99</ele>
<time>2015-04-25T14:20:30Z</time>
</trkpt>
<trkpt lat="35.0876200" lon="32.2849235">
<ele>199.46</ele>
<time>2015-04-25T14:20:31Z</time>
</trkpt>
<trkpt lat="35.0875586" lon="32.2849318">
<ele>199.69</ele>
<time>2015-04-25T14:20:32Z</time>
</trkpt>
<trkpt lat="35.0875082" lon="32.2849298">
<ele>199.31</ele>
<time>2015-04-25T14:20:33Z</time>
</trkpt>
<trkpt lat="35.0874514" lon="32.2849225">
<ele>198.62</ele>
<time>2015-04-25T14:20:34Z</time>
</trkpt>
<trkpt lat="35.0874040" lon="32.2849050">
<ele>197.77</ele>
<time>2015-04-25T14:20:35Z</time>
</trkpt>
<trkpt lat="35.0873550" lon="32.2848898">
<ele>196.85</ele>
<time>2015-04-25T14:20:36Z</time>
</trkpt>
<trkpt lat="35.0872987" lon="32.2848687">
<ele>195.89</ele>
<time>2015-04-25T14:20:37Z</time>
</trkpt>
<trkpt lat="35.0872494" lon="32.2848496">
<ele>195.41</ele>
<time>2015-04-25T14:20:38Z</time>
</trkpt>
<trkpt lat="35.0872000" lon="32.2848350">
<ele>194.67</ele>
<time>2015-04-25T14:20:39Z</time>
</trkpt>
<trkpt lat="35.0871468" lon="32.2848259">
<ele>193.80</ele>
<time>2015-04-25T14:20:40Z</time>
</trkpt>
<trkpt lat="35.0870951" lon="32.2848149">
<ele>193.36</ele>
<time>2015-04-25T14:20:41Z</time>
</trkpt>
<trkpt lat="35.0870388" lon="32.2848103">
<ele>193.14</ele>
<time>2015-04-25T14:20:42Z</time>
</trkpt>
<trkpt lat="35.0869911" lon="32.2848109">
<ele>193.03</ele>
<time>2015-04-25T14:20:43Z</time>
</trkpt>
<trkpt lat="35.0869391" lon="32.2848152">
<ele>192.48</ele>
<time>2015-04-25T14:20:44Z</time>
</trkpt>
<trkpt lat="35.0868866" lon="32.2848239">
<ele>192.20</ele>
<time>2015-04-25T14:20:45Z</time>
</trkpt>
<trkpt lat="35.0868390" lon="32.2848299">
<ele>192.06</ele>
<time>2015-04-25T14:20:46Z</time>
</trkpt>
<trkpt lat="35.0867920" lon="32.2848312">
<ele>192.49</ele>
<time>2015-04-25T14:20:47Z</time>
</trkpt>
<trkpt lat="35.0867155" lon="32.2848434">
<ele>192.82</ele>
<time>2015-04-25T14:20:49Z</time>
</trkpt>
<trkpt lat="35.0866516" lon="32.2848700">
<ele>192.15</ele>
<time>2015-04-25T14:20:51Z</time>
</trkpt>
<trkpt lat="35.0866039" lon="32.2848972">
<ele>191.98</ele>
<time>2015-04-25T14:20:53Z</time>
</trkpt>
<trkpt lat="35.0865570" lon="32.2849434">
<ele>191.93</ele>
<time>2015-04-25T14:20:56Z</time>
</trkpt>
<trkpt lat="35.0865172" lon="32.2849773">
<ele>191.93</ele>
<time>2015-04-25T14:20:58Z</time>
</trkpt>
<trkpt lat="35.0864742" lon="32.2850083">
<ele>192.68</ele>
<time>2015-04-25T14:21:00Z</time>
</trkpt>
<trkpt lat="35.0864269" lon="32.2850380">
<ele>193.61</ele>
<time>2015-04-25T14:21:02Z</time>
</trkpt>
<trkpt lat="35.0863760" lon="32.2850682">
<ele>193.85</ele>
<time>2015-04-25T14:21:04Z</time>
</trkpt>
<trkpt lat="35.0863242" lon="32.2850970">
<ele>194.41</ele>
<time>2015-04-25T14:21:06Z</time>
</trkpt>
<trkpt lat="35.0862794" lon="32.2851331">
<ele>194.55</ele>
<time>2015-04-25T14:21:08Z</time>
</trkpt>
<trkpt lat="35.0862330" lon="32.2851669">
<ele>195.33</ele>
<time>2015-04-25T14:21:10Z</time>
</trkpt>
<trkpt lat="35.0861911" lon="32.2851930">
<ele>195.78</ele>
<time>2015-04-25T14:21:12Z</time>
</trkpt>
<trkpt lat="35.0861330" lon="32.2852317">
<ele>195.91</ele>
<time>2015-04-25T14:21:15Z</time>
</trkpt>
<trkpt lat="35.0860799" lon="32.2852689">
<ele>195.92</ele>
<time>2015-04-25T14:21:18Z</time>
</trkpt>
<trkpt lat="35.0860307" lon="32.2852949">
<ele>196.67</ele>
<time>2015-04-25T14:21:21Z</time>
</trkpt>
<trkpt lat="35.0859829" lon="32.2853157">
<ele>196.02</ele>
<time>2015-04-25T14:21:24Z</time>
</trkpt>
<trkpt lat="35.0859237" lon="32.2853459">
<ele>195.94</ele>
<time>2015-04-25T14:21:27Z</time>
</trkpt>
<trkpt lat="35.0858636" lon="32.2853784">
<ele>195.93</ele>
<time>2015-04-25T14:21:30Z</time>
</trkpt>
<trkpt lat="35.0857999" lon="32.2854049">
<ele>195.55</ele>
<time>2015-04-25T14:21:33Z</time>
</trkpt>
<trkpt lat="35.0857567" lon="32.2854253">
<ele>195.83</ele>
<time>2015-04-25T14:21:35Z</time>
</trkpt>
<trkpt lat="35.0857127" lon="32.2854400">
<ele>195.90</ele>
<time>2015-04-25T14:21:37Z</time>
</trkpt>
<trkpt lat="35.0856646" lon="32.2854603">
<ele>196.80</ele>
<time>2015-04-25T14:21:40Z</time>
</trkpt>
<trkpt lat="35.0856142" lon="32.2854874">
<ele>196.92</ele>
<time>2015-04-25T14:21:44Z</time>
</trkpt>
<trkpt lat="35.0855765" lon="32.2855401">
<ele>197.80</ele>
<time>2015-04-25T14:21:48Z</time>
</trkpt>
<trkpt lat="35.0855605" lon="32.2856026">
<ele>196.60</ele>
<time>2015-04-25T14:21:52Z</time>
</trkpt>
<trkpt lat="35.0855210" lon="32.2857203">
<ele>195.63</ele>
<time>2015-04-25T14:21:55Z</time>
</trkpt>
<trkpt lat="35.0854575" lon="32.2857780">
<ele>195.85</ele>
<time>2015-04-25T14:21:57Z</time>
</trkpt>
<trkpt lat="35.0853900" lon="32.2857975">
<ele>195.66</ele>
<time>2015-04-25T14:21:59Z</time>
</trkpt>
<trkpt lat="35.0853358" lon="32.2858114">
<ele>195.86</ele>
<time>2015-04-25T14:22:01Z</time>
</trkpt>
<trkpt lat="35.0852874" lon="32.2858419">
<ele>195.91</ele>
<time>2015-04-25T14:22:03Z</time>
</trkpt>
<trkpt lat="35.0852351" lon="32.2858860">
<ele>195.67</ele>
<time>2015-04-25T14:22:05Z</time>
</trkpt>
<trkpt lat="35.0851675" lon="32.2859422">
<ele>195.36</ele>
<time>2015-04-25T14:22:07Z</time>
</trkpt>
<trkpt lat="35.0851307" lon="32.2859753">
<ele>195.14</ele>
<time>2015-04-25T14:22:08Z</time>
</trkpt>
<trkpt lat="35.0850661" lon="32.2860392">
<ele>194.98</ele>
<time>2015-04-25T14:22:10Z</time>
</trkpt>
<trkpt lat="35.0850337" lon="32.2860790">
<ele>194.95</ele>
<time>2015-04-25T14:22:11Z</time>
</trkpt>
<trkpt lat="35.0849658" lon="32.2861546">
<ele>194.43</ele>
<time>2015-04-25T14:22:13Z</time>
</trkpt>
<trkpt lat="35.0848986" lon="32.2862166">
<ele>194.05</ele>
<time>2015-04-25T14:22:15Z</time>
</trkpt>
<trkpt lat="35.0848424" lon="32.2862926">
<ele>193.96</ele>
<time>2015-04-25T14:22:17Z</time>
</trkpt>
<trkpt lat="35.0848004" lon="32.2863763">
<ele>193.93</ele>
<time>2015-04-25T14:22:19Z</time>
</trkpt>
<trkpt lat="35.0847607" lon="32.2864528">
<ele>193.18</ele>
<time>2015-04-25T14:22:21Z</time>
</trkpt>
<trkpt lat="35.0847213" lon="32.2865213">
<ele>192.99</ele>
<time>2015-04-25T14:22:23Z</time>
</trkpt>
<trkpt lat="35.0846833" lon="32.2865896">
<ele>192.19</ele>
<time>2015-04-25T14:22:25Z</time>
</trkpt>
<trkpt lat="35.0846442" lon="32.2866623">
<ele>191.24</ele>
<time>2015-04-25T14:22:27Z</time>
</trkpt>
<trkpt lat="35.0845592" lon="32.2867471">
<ele>190.50</ele>
<time>2015-04-25T14:22:29Z</time>
</trkpt>
<trkpt lat="35.0845142" lon="32.2867675">
<ele>190.21</ele>
<time>2015-04-25T14:22:30Z</time>
</trkpt>
<trkpt lat="35.0844654" lon="32.2867925">
<ele>190.07</ele>
<time>2015-04-25T14:22:31Z</time>
</trkpt>
<trkpt lat="35.0844137" lon="32.2868082">
<ele>190.00</ele>
<time>2015-04-25T14:22:32Z</time>
</trkpt>
<trkpt lat="35.0843245" lon="32.2868232">
<ele>189.94</ele>
<time>2015-04-25T14:22:34Z</time>
</trkpt>
<trkpt lat="35.0842456" lon="32.2868619">
<ele>189.93</ele>
<time>2015-04-25T14:22:36Z</time>
</trkpt>
<trkpt lat="35.0842079" lon="32.2868920">
<ele>189.43</ele>
<time>2015-04-25T14:22:37Z</time>
</trkpt>
<trkpt lat="35.0841376" lon="32.2869561">
<ele>189.05</ele>
<time>2015-04-25T14:22:39Z</time>
</trkpt>
<trkpt lat="35.0840989" lon="32.2870015">
<ele>188.49</ele>
<time>2015-04-25T14:22:40Z</time>
</trkpt>
<trkpt lat="35.0840211" lon="32.2870759">
<ele>187.32</ele>
<time>2015-04-25T14:22:42Z</time>
</trkpt>
<trkpt lat="35.0839755" lon="32.2870978">
<ele>187.12</ele>
<time>2015-04-25T14:22:43Z</time>
</trkpt>
<trkpt lat="35.0839261" lon="32.2871240">
<ele>187.02</ele>
<time>2015-04-25T14:22:44Z</time>
</trkpt>
<trkpt lat="35.0838752" lon="32.2871497">
<ele>186.97</ele>
<time>2015-04-25T14:22:45Z</time>
</trkpt>
<trkpt lat="35.0838261" lon="32.2871724">
<ele>186.95</ele>
<time>2015-04-25T14:22:46Z</time>
</trkpt>
<trkpt lat="35.0837701" lon="32.2871917">
<ele>187.44</ele>
<time>2015-04-25T14:22:47Z</time>
</trkpt>
<trkpt lat="35.0837094" lon="32.2872099">
<ele>187.68</ele>
<time>2015-04-25T14:22:48Z</time>
</trkpt>
<trkpt lat="35.0836530" lon="32.2872197">
<ele>187.80</ele>
<time>2015-04-25T14:22:49Z</time>
</trkpt>
<trkpt lat="35.0835989" lon="32.2872215">
<ele>187.86</ele>
<time>2015-04-25T14:22:50Z</time>
</trkpt>
<trkpt lat="35.0835535" lon="32.2872209">
<ele>187.89</ele>
<time>2015-04-25T14:22:51Z</time>
</trkpt>
<trkpt lat="35.0835006" lon="32.2872192">
<ele>188.41</ele>
<time>2015-04-25T14:22:52Z</time>
</trkpt>
<trkpt lat="35.0834465" lon="32.2872250">
<ele>188.67</ele>
<time>2015-04-25T14:22:53Z</time>
</trkpt>
<trkpt lat="35.0833535" lon="32.2872300">
<ele>188.86</ele>
<time>2015-04-25T14:22:55Z</time>
</trkpt>
<trkpt lat="35.0832997" lon="32.2872280">
<ele>188.89</ele>
<time>2015-04-25T14:22:56Z</time>
</trkpt>
<trkpt lat="35.0832083" lon="32.2872234">
<ele>188.92</ele>
<time>2015-04-25T14:22:58Z</time>
</trkpt>
<trkpt lat="35.0831342" lon="32.2872057">
<ele>189.67</ele>
<time>2015-04-25T14:23:00Z</time>
</trkpt>
<trkpt lat="35.0830530" lon="32.2871963">
<ele>190.61</ele>
<time>2015-04-25T14:23:02Z</time>
</trkpt>
<trkpt lat="35.0829734" lon="32.2871854">
<ele>190.10</ele>
<time>2015-04-25T14:23:04Z</time>
</trkpt>
<trkpt lat="35.0828867" lon="32.2872031">
<ele>189.97</ele>
<time>2015-04-25T14:23:06Z</time>
</trkpt>
<trkpt lat="35.0827972" lon="32.2872239">
<ele>189.19</ele>
<time>2015-04-25T14:23:08Z</time>
</trkpt>
<trkpt lat="35.0827472" lon="32.2872239">
<ele>189.06</ele>
<time>2015-04-25T14:23:09Z</time>
</trkpt>
<trkpt lat="35.0826512" lon="32.2872130">
<ele>189.21</ele>
<time>2015-04-25T14:23:11Z</time>
</trkpt>
<trkpt lat="35.0825987" lon="32.2872196">
<ele>189.07</ele>
<time>2015-04-25T14:23:12Z</time>
</trkpt>
<trkpt lat="35.0825518" lon="32.2872259">
<ele>188.50</ele>
<time>2015-04-25T14:23:13Z</time>
</trkpt>
<trkpt lat="35.0824961" lon="32.2872276">
<ele>188.21</ele>
<time>2015-04-25T14:23:14Z</time>
</trkpt>
<trkpt lat="35.0824467" lon="32.2872385">
<ele>188.07</ele>
<time>2015-04-25T14:23:15Z</time>
</trkpt>
<trkpt lat="35.0823923" lon="32.2872488">
<ele>188.00</ele>
<time>2015-04-25T14:23:16Z</time>
</trkpt>
<trkpt lat="35.0823336" lon="32.2872526">
<ele>187.46</ele>
<time>2015-04-25T14:23:17Z</time>
</trkpt>
<trkpt lat="35.0822822" lon="32.2872563">
<ele>187.19</ele>
<time>2015-04-25T14:23:18Z</time>
</trkpt>
<trkpt lat="35.0822179" lon="32.2872531">
<ele>186.56</ele>
<time>2015-04-25T14:23:19Z</time>
</trkpt>
<trkpt lat="35.0821554" lon="32.2872394">
<ele>186.24</ele>
<time>2015-04-25T14:23:20Z</time>
</trkpt>
<trkpt lat="35.0820910" lon="32.2872202">
<ele>186.08</ele>
<time>2015-04-25T14:23:21Z</time>
</trkpt>
<trkpt lat="35.0820288" lon="32.2872019">
<ele>186.00</ele>
<time>2015-04-25T14:23:22Z</time>
</trkpt>
<trkpt lat="35.0819723" lon="32.2871951">
<ele>185.46</ele>
<time>2015-04-25T14:23:23Z</time>
</trkpt>
<trkpt lat="35.0819135" lon="32.2871954">
<ele>185.19</ele>
<time>2015-04-25T14:23:24Z</time>
</trkpt>
<trkpt lat="35.0818433" lon="32.2872144">
<ele>184.56</ele>
<time>2015-04-25T14:23:25Z</time>
</trkpt>
<trkpt lat="35.0817800" lon="32.2872138">
<ele>184.24</ele>
<time>2015-04-25T14:23:26Z</time>
</trkpt>
<trkpt lat="35.0817082" lon="32.2872122">
<ele>184.08</ele>
<time>2015-04-25T14:23:27Z</time>
</trkpt>
<trkpt lat="35.0816367" lon="32.2872264">
<ele>184.00</ele>
<time>2015-04-25T14:23:28Z</time>
</trkpt>
<trkpt lat="35.0815741" lon="32.2872424">
<ele>183.46</ele>
<time>2015-04-25T14:23:29Z</time>
</trkpt>
<trkpt lat="35.0815061" lon="32.2872556">
<ele>183.19</ele>
<time>2015-04-25T14:23:30Z</time>
</trkpt>
<trkpt lat="35.0814526" lon="32.2872530">
<ele>183.56</ele>
<time>2015-04-25T14:23:31Z</time>
</trkpt>
<trkpt lat="35.0813937" lon="32.2872387">
<ele>183.24</ele>
<time>2015-04-25T14:23:32Z</time>
</trkpt>
<trkpt lat="35.0813367" lon="32.2872209">
<ele>183.58</ele>
<time>2015-04-25T14:23:33Z</time>
</trkpt>
<trkpt lat="35.0812899" lon="32.2872064">
<ele>183.25</ele>
<time>2015-04-25T14:23:34Z</time>
</trkpt>
<trkpt lat="35.0812374" lon="32.2872083">
<ele>183.09</ele>
<time>2015-04-25T14:23:35Z</time>
</trkpt>
<trkpt lat="35.0811868" lon="32.2872196">
<ele>183.01</ele>
<time>2015-04-25T14:23:36Z</time>
</trkpt>
<trkpt lat="35.0810998" lon="32.2872614">
<ele>182.45</ele>
<time>2015-04-25T14:23:38Z</time>
</trkpt>
<trkpt lat="35.0810584" lon="32.2872900">
<ele>182.19</ele>
<time>2015-04-25T14:23:39Z</time>
</trkpt>
<trkpt lat="35.0810155" lon="32.2873130">
<ele>182.06</ele>
<time>2015-04-25T14:23:40Z</time>
</trkpt>
<trkpt lat="35.0809670" lon="32.2873364">
<ele>181.99</ele>
<time>2015-04-25T14:23:41Z</time>
</trkpt>
<trkpt lat="35.0808903" lon="32.2873632">
<ele>180.69</ele>
<time>2015-04-25T14:23:43Z</time>
</trkpt>
<trkpt lat="35.0808181" lon="32.2873984">
<ele>180.12</ele>
<time>2015-04-25T14:23:45Z</time>
</trkpt>
<trkpt lat="35.0807547" lon="32.2874625">
<ele>179.22</ele>
<time>2015-04-25T14:23:47Z</time>
</trkpt>
<trkpt lat="35.0806944" lon="32.2875261">
<ele>177.75</ele>
<time>2015-04-25T14:23:49Z</time>
</trkpt>
<trkpt lat="35.0806519" lon="32.2875630">
<ele>176.38</ele>
<time>2015-04-25T14:23:51Z</time>
</trkpt>
<trkpt lat="35.0806059" lon="32.2876154">
<ele>174.98</ele>
<time>2015-04-25T14:23:54Z</time>
</trkpt>
<trkpt lat="35.0805587" lon="32.2876531">
<ele>174.06</ele>
<time>2015-04-25T14:23:57Z</time>
</trkpt>
<trkpt lat="35.0805020" lon="32.2877068">
<ele>173.19</ele>
<time>2015-04-25T14:24:00Z</time>
</trkpt>
<trkpt lat="35.0804604" lon="32.2877566">
<ele>172.99</ele>
<time>2015-04-25T14:24:02Z</time>
</trkpt>
<trkpt lat="35.0804167" lon="32.2878185">
<ele>172.19</ele>
<time>2015-04-25T14:24:04Z</time>
</trkpt>
<trkpt lat="35.0803551" lon="32.2878821">
<ele>171.49</ele>
<time>2015-04-25T14:24:06Z</time>
</trkpt>
<trkpt lat="35.0802491" lon="32.2879072">
<ele>170.57</ele>
<time>2015-04-25T14:24:08Z</time>
</trkpt>
<trkpt lat="35.0801613" lon="32.2879387">
<ele>170.09</ele>
<time>2015-04-25T14:24:10Z</time>
</trkpt>
<trkpt lat="35.0801175" lon="32.2879649">
<ele>170.01</ele>
<time>2015-04-25T14:24:11Z</time>
</trkpt>
<trkpt lat="35.0800832" lon="32.2880114">
<ele>169.97</ele>
<time>2015-04-25T14:24:12Z</time>
</trkpt>
<trkpt lat="35.0800507" lon="32.2880647">
<ele>169.95</ele>
<time>2015-04-25T14:24:13Z</time>
</trkpt>
<trkpt lat="35.0800162" lon="32.2881598">
<ele>169.93</ele>
<time>2015-04-25T14:24:15Z</time>
</trkpt>
<trkpt lat="35.0799977" lon="32.2882101">
<ele>169.93</ele>
<time>2015-04-25T14:24:16Z</time>
</trkpt>
<trkpt lat="35.0799762" lon="32.2883047">
<ele>170.18</ele>
<time>2015-04-25T14:24:18Z</time>
</trkpt>
<trkpt lat="35.0799801" lon="32.2883612">
<ele>169.99</ele>
<time>2015-04-25T14:24:20Z</time>
</trkpt>
<trkpt lat="35.0800056" lon="32.2884164">
<ele>169.93</ele>
<time>2015-04-25T14:24:23Z</time>
</trkpt>
<trkpt lat="35.0800464" lon="32.2884491">
<ele>169.93</ele>
<time>2015-04-25T14:24:26Z</time>
</trkpt>
<trkpt lat="35.0800825" lon="32.2884863">
<ele>169.93</ele>
<time>2015-04-25T14:24:29Z</time>
</trkpt>
<trkpt lat="35.0801248" lon="32.2885214">
<ele>169.93</ele>
<time>2015-04-25T14:24:32Z</time>
</trkpt>
<trkpt lat="35.0801553" lon="32.2885718">
<ele>169.93</ele>
<time>2015-04-25T14:25:38Z</time>
</trkpt>
<trkpt lat="35.0801962" lon="32.2886278">
<ele>169.68</ele>
<time>2015-04-25T14:25:42Z</time>
</trkpt>
<trkpt lat="35.0802288" lon="32.2886773">
<ele>169.86</ele>
<time>2015-04-25T14:25:44Z</time>
</trkpt>
<trkpt lat="35.0802637" lon="32.2887273">
<ele>169.16</ele>
<time>2015-04-25T14:25:46Z</time>
</trkpt>
<trkpt lat="35.0803021" lon="32.2887812">
<ele>168.48</ele>
<time>2015-04-25T14:25:48Z</time>
</trkpt>
<trkpt lat="35.0803405" lon="32.2888470">
<ele>168.06</ele>
<time>2015-04-25T14:25:50Z</time>
</trkpt>
<trkpt lat="35.0803787" lon="32.2889183">
<ele>167.96</ele>
<time>2015-04-25T14:25:52Z</time>
</trkpt>
<trkpt lat="35.0804186" lon="32.2889870">
<ele>167.93</ele>
<time>2015-04-25T14:25:54Z</time>
</trkpt>
<trkpt lat="35.0804604" lon="32.2890516">
<ele>167.18</ele>
<time>2015-04-25T14:25:56Z</time>
</trkpt>
<trkpt lat="35.0805109" lon="32.2891186">
<ele>166.99</ele>
<time>2015-04-25T14:25:58Z</time>
</trkpt>
<trkpt lat="35.0805618" lon="32.2891920">
<ele>166.94</ele>
<time>2015-04-25T14:26:00Z</time>
</trkpt>
<trkpt lat="35.0806077" lon="32.2892618">
<ele>166.43</ele>
<time>2015-04-25T14:26:02Z</time>
</trkpt>
<trkpt lat="35.0806475" lon="32.2893294">
<ele>166.05</ele>
<time>2015-04-25T14:26:04Z</time>
</trkpt>
<trkpt lat="35.0806876" lon="32.2894027">
<ele>165.46</ele>
<time>2015-04-25T14:26:06Z</time>
</trkpt>
<trkpt lat="35.0807411" lon="32.2894900">
<ele>164.56</ele>
<time>2015-04-25T14:26:08Z</time>
</trkpt>
<trkpt lat="35.0807781" lon="32.2895369">
<ele>164.24</ele>
<time>2015-04-25T14:26:09Z</time>
</trkpt>
<trkpt lat="35.0808086" lon="32.2895813">
<ele>164.08</ele>
<time>2015-04-25T14:26:10Z</time>
</trkpt>
<trkpt lat="35.0808669" lon="32.2896600">
<ele>163.96</ele>
<time>2015-04-25T14:26:12Z</time>
</trkpt>
<trkpt lat="35.0809188" lon="32.2897433">
<ele>163.93</ele>
<time>2015-04-25T14:26:14Z</time>
</trkpt>
<trkpt lat="35.0809738" lon="32.2898344">
<ele>163.43</ele>
<time>2015-04-25T14:26:16Z</time>
</trkpt>
<trkpt lat="35.0810021" lon="32.2898805">
<ele>163.18</ele>
<time>2015-04-25T14:26:17Z</time>
</trkpt>
<trkpt lat="35.0810378" lon="32.2899354">
<ele>163.05</ele>
<time>2015-04-25T14:26:18Z</time>
</trkpt>
<trkpt lat="35.0810718" lon="32.2899829">
<ele>162.49</ele>
<time>2015-04-25T14:26:19Z</time>
</trkpt>
<trkpt lat="35.0811055" lon="32.2900311">
<ele>162.21</ele>
<time>2015-04-25T14:26:20Z</time>
</trkpt>
<trkpt lat="35.0811343" lon="32.2900858">
<ele>161.57</ele>
<time>2015-04-25T14:26:21Z</time>
</trkpt>
<trkpt lat="35.0811610" lon="32.2901331">
<ele>161.25</ele>
<time>2015-04-25T14:26:22Z</time>
</trkpt>
<trkpt lat="35.0811964" lon="32.2901798">
<ele>161.09</ele>
<time>2015-04-25T14:26:23Z</time>
</trkpt>
<trkpt lat="35.0812373" lon="32.2902302">
<ele>160.51</ele>
<time>2015-04-25T14:26:24Z</time>
</trkpt>
<trkpt lat="35.0812753" lon="32.2902735">
<ele>160.22</ele>
<time>2015-04-25T14:26:25Z</time>
</trkpt>
<trkpt lat="35.0813150" lon="32.2903253">
<ele>159.57</ele>
<time>2015-04-25T14:26:26Z</time>
</trkpt>
<trkpt lat="35.0813495" lon="32.2903686">
<ele>159.25</ele>
<time>2015-04-25T14:26:27Z</time>
</trkpt>
<trkpt lat="35.0813884" lon="32.2904212">
<ele>158.59</ele>
<time>2015-04-25T14:26:28Z</time>
</trkpt>
<trkpt lat="35.0814307" lon="32.2904750">
<ele>158.26</ele>
<time>2015-04-25T14:26:29Z</time>
</trkpt>
<trkpt lat="35.0814628" lon="32.2905203">
<ele>157.59</ele>
<time>2015-04-25T14:26:30Z</time>
</trkpt>
<trkpt lat="35.0814955" lon="32.2905625">
<ele>157.26</ele>
<time>2015-04-25T14:26:31Z</time>
</trkpt>
<trkpt lat="35.0815272" lon="32.2906108">
<ele>156.59</ele>
<time>2015-04-25T14:26:32Z</time>
</trkpt>
<trkpt lat="35.0815824" lon="32.2906965">
<ele>156.09</ele>
<time>2015-04-25T14:26:34Z</time>
</trkpt>
<trkpt lat="35.0816313" lon="32.2907816">
<ele>155.97</ele>
<time>2015-04-25T14:26:36Z</time>
</trkpt>
<trkpt lat="35.0816634" lon="32.2908291">
<ele>155.45</ele>
<time>2015-04-25T14:26:37Z</time>
</trkpt>
<trkpt lat="35.0817218" lon="32.2909070">
<ele>155.06</ele>
<time>2015-04-25T14:26:39Z</time>
</trkpt>
<trkpt lat="35.0817673" lon="32.2909805">
<ele>153.46</ele>
<time>2015-04-25T14:26:41Z</time>
</trkpt>
<trkpt lat="35.0817962" lon="32.2910289">
<ele>152.69</ele>
<time>2015-04-25T14:26:42Z</time>
</trkpt>
<trkpt lat="35.0818228" lon="32.2910792">
<ele>152.31</ele>
<time>2015-04-25T14:26:43Z</time>
</trkpt>
<trkpt lat="35.0818515" lon="32.2911401">
<ele>151.62</ele>
<time>2015-04-25T14:26:44Z</time>
</trkpt>
<trkpt lat="35.0818825" lon="32.2912050">
<ele>150.77</ele>
<time>2015-04-25T14:26:45Z</time>
</trkpt>
<trkpt lat="35.0819063" lon="32.2912596">
<ele>150.85</ele>
<time>2015-04-25T14:26:46Z</time>
</trkpt>
<trkpt lat="35.0819324" lon="32.2913212">
<ele>150.39</ele>
<time>2015-04-25T14:26:47Z</time>
</trkpt>
<trkpt lat="35.0819513" lon="32.2913775">
<ele>149.66</ele>
<time>2015-04-25T14:26:48Z</time>
</trkpt>
<trkpt lat="35.0819778" lon="32.2914566">
<ele>148.36</ele>
<time>2015-04-25T14:26:50Z</time>
</trkpt>
<trkpt lat="35.0819709" lon="32.2915264">
<ele>147.10</ele>
<time>2015-04-25T14:26:53Z</time>
</trkpt>
<trkpt lat="35.0819225" lon="32.2915698">
<ele>146.06</ele>
<time>2015-04-25T14:26:57Z</time>
</trkpt>
<trkpt lat="35.0818708" lon="32.2916184">
<ele>145.69</ele>
<time>2015-04-25T14:27:00Z</time>
</trkpt>
<trkpt lat="35.0818284" lon="32.2916542">
<ele>145.12</ele>
<time>2015-04-25T14:27:02Z</time>
</trkpt>
<trkpt lat="35.0817780" lon="32.2916849">
<ele>144.47</ele>
<time>2015-04-25T14:27:04Z</time>
</trkpt>
<trkpt lat="35.0816935" lon="32.2917331">
<ele>143.31</ele>
<time>2015-04-25T14:27:06Z</time>
</trkpt>
<trkpt lat="35.0816331" lon="32.2917750">
<ele>142.12</ele>
<time>2015-04-25T14:27:07Z</time>
</trkpt>
<trkpt lat="35.0815770" lon="32.2918222">
<ele>141.52</ele>
<time>2015-04-25T14:27:08Z</time>
</trkpt>
<trkpt lat="35.0815155" lon="32.2918716">
<ele>141.22</ele>
<time>2015-04-25T14:27:09Z</time>
</trkpt>
<trkpt lat="35.0814650" lon="32.2919075">
<ele>141.07</ele>
<time>2015-04-25T14:27:10Z</time>
</trkpt>
<trkpt lat="35.0814150" lon="32.2919536">
<ele>141.50</ele>
<time>2015-04-25T14:27:11Z</time>
</trkpt>
<trkpt lat="35.0813686" lon="32.2920109">
<ele>141.21</ele>
<time>2015-04-25T14:27:12Z</time>
</trkpt>
<trkpt lat="35.0813302" lon="32.2920566">
<ele>141.07</ele>
<time>2015-04-25T14:27:13Z</time>
</trkpt>
<trkpt lat="35.0812916" lon="32.2921133">
<ele>140.50</ele>
<time>2015-04-25T14:27:14Z</time>
</trkpt>
<trkpt lat="35.0812551" lon="32.2921597">
<ele>139.71</ele>
<time>2015-04-25T14:27:15Z</time>
</trkpt>
<trkpt lat="35.0812144" lon="32.2922112">
<ele>139.32</ele>
<time>2015-04-25T14:27:16Z</time>
</trkpt>
<trkpt lat="35.0811678" lon="32.2922702">
<ele>138.62</ele>
<time>2015-04-25T14:27:17Z</time>
</trkpt>
<trkpt lat="35.0811297" lon="32.2923186">
<ele>137.77</ele>
<time>2015-04-25T14:27:18Z</time>
</trkpt>
<trkpt lat="35.0810835" lon="32.2923710">
<ele>137.35</ele>
<time>2015-04-25T14:27:19Z</time>
</trkpt>
<trkpt lat="35.0810401" lon="32.2924180">
<ele>136.64</ele>
<time>2015-04-25T14:27:20Z</time>
</trkpt>
<trkpt lat="35.0809654" lon="32.2924701">
<ele>134.85</ele>
<time>2015-04-25T14:27:22Z</time>
</trkpt>
<trkpt lat="35.0808957" lon="32.2924664">
<ele>134.16</ele>
<time>2015-04-25T14:27:24Z</time>
</trkpt>
<trkpt lat="35.0808205" lon="32.2924726">
<ele>133.23</ele>
<time>2015-04-25T14:27:26Z</time>
</trkpt>
<trkpt lat="35.0807743" lon="32.2925309">
<ele>131.75</ele>
<time>2015-04-25T14:27:28Z</time>
</trkpt>
<trkpt lat="35.0807640" lon="32.2926225">
<ele>130.13</ele>
<time>2015-04-25T14:27:30Z</time>
</trkpt>
<trkpt lat="35.0807510" lon="32.2927147">
<ele>129.98</ele>
<time>2015-04-25T14:27:32Z</time>
</trkpt>
<trkpt lat="35.0807271" lon="32.2927927">
<ele>129.44</ele>
<time>2015-04-25T14:27:34Z</time>
</trkpt>
<trkpt lat="35.0806808" lon="32.2928569">
<ele>128.55</ele>
<time>2015-04-25T14:27:36Z</time>
</trkpt>
<trkpt lat="35.0806234" lon="32.2929225">
<ele>128.08</ele>
<time>2015-04-25T14:27:38Z</time>
</trkpt>
<trkpt lat="35.0805646" lon="32.2929858">
<ele>127.21</ele>
<time>2015-04-25T14:27:40Z</time>
</trkpt>
<trkpt lat="35.0805043" lon="32.2930436">
<ele>126.25</ele>
<time>2015-04-25T14:27:42Z</time>
</trkpt>
<trkpt lat="35.0804553" lon="32.2930917">
<ele>125.51</ele>
<time>2015-04-25T14:27:44Z</time>
</trkpt>
<trkpt lat="35.0804334" lon="32.2931657">
<ele>124.50</ele>
<time>2015-04-25T14:27:47Z</time>
</trkpt>
<trkpt lat="35.0804595" lon="32.2932264">
<ele>123.57</ele>
<time>2015-04-25T14:27:49Z</time>
</trkpt>
<trkpt lat="35.0805113" lon="32.2932874">
<ele>122.09</ele>
<time>2015-04-25T14:27:51Z</time>
</trkpt>
<trkpt lat="35.0805560" lon="32.2933236">
<ele>121.01</ele>
<time>2015-04-25T14:27:52Z</time>
</trkpt>
<trkpt lat="35.0806294" lon="32.2933459">
<ele>119.47</ele>
<time>2015-04-25T14:27:53Z</time>
</trkpt>
<trkpt lat="35.0806878" lon="32.2933755">
<ele>118.20</ele>
<time>2015-04-25T14:27:54Z</time>
</trkpt>
<trkpt lat="35.0807420" lon="32.2934028">
<ele>117.06</ele>
<time>2015-04-25T14:27:55Z</time>
</trkpt>
<trkpt lat="35.0807981" lon="32.2934282">
<ele>115.99</ele>
<time>2015-04-25T14:27:56Z</time>
</trkpt>
<trkpt lat="35.0808483" lon="32.2934540">
<ele>114.96</ele>
<time>2015-04-25T14:27:57Z</time>
</trkpt>
<trkpt lat="35.0808941" lon="32.2934760">
<ele>113.94</ele>
<time>2015-04-25T14:27:58Z</time>
</trkpt>
<trkpt lat="35.0809443" lon="32.2934979">
<ele>112.93</ele>
<time>2015-04-25T14:27:59Z</time>
</trkpt>
<trkpt lat="35.0809983" lon="32.2935217">
<ele>111.43</ele>
<time>2015-04-25T14:28:00Z</time>
</trkpt>
<trkpt lat="35.0810519" lon="32.2935419">
<ele>110.68</ele>
<time>2015-04-25T14:28:01Z</time>
</trkpt>
<trkpt lat="35.0811062" lon="32.2935708">
<ele>109.80</ele>
<time>2015-04-25T14:28:02Z</time>
</trkpt>
<trkpt lat="35.0811588" lon="32.2936062">
<ele>108.86</ele>
<time>2015-04-25T14:28:03Z</time>
</trkpt>
<trkpt lat="35.0812153" lon="32.2936414">
<ele>108.39</ele>
<time>2015-04-25T14:28:04Z</time>
</trkpt>
<trkpt lat="35.0812746" lon="32.2936854">
<ele>108.16</ele>
<time>2015-04-25T14:28:05Z</time>
</trkpt>
<trkpt lat="35.0813130" lon="32.2937203">
<ele>107.54</ele>
<time>2015-04-25T14:28:06Z</time>
</trkpt>
<trkpt lat="35.0813468" lon="32.2937568">
<ele>106.73</ele>
<time>2015-04-25T14:28:07Z</time>
</trkpt>
<trkpt lat="35.0814023" lon="32.2938077">
<ele>105.38</ele>
<time>2015-04-25T14:28:09Z</time>
</trkpt>
<trkpt lat="35.0814478" lon="32.2938479">
<ele>104.11</ele>
<time>2015-04-25T14:28:12Z</time>
</trkpt>
<trkpt lat="35.0815182" lon="32.2938861">
<ele>101.82</ele>
<time>2015-04-25T14:28:15Z</time>
</trkpt>
<trkpt lat="35.0815634" lon="32.2939179">
<ele>100.87</ele>
<time>2015-04-25T14:28:16Z</time>
</trkpt>
<trkpt lat="35.0816121" lon="32.2939545">
<ele>99.90</ele>
<time>2015-04-25T14:28:17Z</time>
</trkpt>
<trkpt lat="35.0816691" lon="32.2940053">
<ele>98.91</ele>
<time>2015-04-25T14:28:18Z</time>
</trkpt>
<trkpt lat="35.0817294" lon="32.2940563">
<ele>97.92</ele>
<time>2015-04-25T14:28:19Z</time>
</trkpt>
<trkpt lat="35.0817946" lon="32.2941178">
<ele>96.92</ele>
<time>2015-04-25T14:28:20Z</time>
</trkpt>
<trkpt lat="35.0818561" lon="32.2941758">
<ele>95.92</ele>
<time>2015-04-25T14:28:21Z</time>
</trkpt>
<trkpt lat="35.0819039" lon="32.2942253">
<ele>94.92</ele>
<time>2015-04-25T14:28:22Z</time>
</trkpt>
<trkpt lat="35.0819500" lon="32.2942745">
<ele>94.42</ele>
<time>2015-04-25T14:28:23Z</time>
</trkpt>
<trkpt lat="35.0819968" lon="32.2943279">
<ele>93.67</ele>
<time>2015-04-25T14:28:24Z</time>
</trkpt>
<trkpt lat="35.0820291" lon="32.2943695">
<ele>93.30</ele>
<time>2015-04-25T14:28:25Z</time>
</trkpt>
<trkpt lat="35.0820666" lon="32.2944162">
<ele>92.61</ele>
<time>2015-04-25T14:28:26Z</time>
</trkpt>
<trkpt lat="35.0821400" lon="32.2944720">
<ele>91.35</ele>
<time>2015-04-25T14:28:28Z</time>
</trkpt>
<trkpt lat="35.0822106" lon="32.2945253">
<ele>90.28</ele>
<time>2015-04-25T14:28:30Z</time>
</trkpt>
<trkpt lat="35.0822598" lon="32.2945644">
<ele>89.10</ele>
<time>2015-04-25T14:28:31Z</time>
</trkpt>
<trkpt lat="35.0823247" lon="32.2946020">
<ele>87.51</ele>
<time>2015-04-25T14:28:32Z</time>
</trkpt>
<trkpt lat="35.0823940" lon="32.2946402">
<ele>86.72</ele>
<time>2015-04-25T14:28:33Z</time>
</trkpt>
<trkpt lat="35.0824708" lon="32.2946799">
<ele>86.82</ele>
<time>2015-04-25T14:28:34Z</time>
</trkpt>
<trkpt lat="35.0825356" lon="32.2947081">
<ele>86.37</ele>
<time>2015-04-25T14:28:35Z</time>
</trkpt>
<trkpt lat="35.0826143" lon="32.2947439">
<ele>85.65</ele>
<time>2015-04-25T14:28:36Z</time>
</trkpt>
<trkpt lat="35.0827015" lon="32.2947807">
<ele>85.29</ele>
<time>2015-04-25T14:28:37Z</time>
</trkpt>
<trkpt lat="35.0827729" lon="32.2948123">
<ele>85.61</ele>
<time>2015-04-25T14:28:38Z</time>
</trkpt>
<trkpt lat="35.0828486" lon="32.2948463">
<ele>85.77</ele>
<time>2015-04-25T14:28:39Z</time>
</trkpt>
<trkpt lat="35.0829251" lon="32.2948942">
<ele>85.85</ele>
<time>2015-04-25T14:28:40Z</time>
</trkpt>
<trkpt lat="35.0830007" lon="32.2949319">
<ele>85.39</ele>
<time>2015-04-25T14:28:41Z</time>
</trkpt>
<trkpt lat="35.0830850" lon="32.2949797">
<ele>85.16</ele>
<time>2015-04-25T14:28:42Z</time>
</trkpt>
<trkpt lat="35.0831601" lon="32.2950128">
<ele>84.54</ele>
<time>2015-04-25T14:28:43Z</time>
</trkpt>
<trkpt lat="35.0832395" lon="32.2950513">
<ele>83.73</ele>
<time>2015-04-25T14:28:44Z</time>
</trkpt>
<trkpt lat="35.0833047" lon="32.2950924">
<ele>83.33</ele>
<time>2015-04-25T14:28:45Z</time>
</trkpt>
<trkpt lat="35.0833495" lon="32.2951232">
<ele>82.63</ele>
<time>2015-04-25T14:28:46Z</time>
</trkpt>
<trkpt lat="35.0834053" lon="32.2951693">
<ele>81.78</ele>
<time>2015-04-25T14:28:47Z</time>
</trkpt>
<trkpt lat="35.0834655" lon="32.2952306">
<ele>79.85</ele>
<time>2015-04-25T14:28:48Z</time>
</trkpt>
<trkpt lat="35.0835100" lon="32.2953102">
<ele>78.39</ele>
<time>2015-04-25T14:28:49Z</time>
</trkpt>
<trkpt lat="35.0835618" lon="32.2954018">
<ele>77.66</ele>
<time>2015-04-25T14:28:50Z</time>
</trkpt>
<trkpt lat="35.0836042" lon="32.2954869">
<ele>77.29</ele>
<time>2015-04-25T14:28:51Z</time>
</trkpt>
<trkpt lat="35.0836486" lon="32.2955642">
<ele>76.61</ele>
<time>2015-04-25T14:28:52Z</time>
</trkpt>
<trkpt lat="35.0836899" lon="32.2956525">
<ele>76.27</ele>
<time>2015-04-25T14:28:53Z</time>
</trkpt>
<trkpt lat="35.0837214" lon="32.2957315">
<ele>75.60</ele>
<time>2015-04-25T14:28:54Z</time>
</trkpt>
<trkpt lat="35.0837539" lon="32.2958227">
<ele>75.26</ele>
<time>2015-04-25T14:28:55Z</time>
</trkpt>
<trkpt lat="35.0837892" lon="32.2959161">
<ele>75.09</ele>
<time>2015-04-25T14:28:56Z</time>
</trkpt>
<trkpt lat="35.0838246" lon="32.2959935">
<ele>74.01</ele>
<time>2015-04-25T14:28:57Z</time>
</trkpt>
<trkpt lat="35.0838699" lon="32.2960825">
<ele>73.47</ele>
<time>2015-04-25T14:28:58Z</time>
</trkpt>
<trkpt lat="35.0839120" lon="32.2961438">
<ele>72.70</ele>
<time>2015-04-25T14:28:59Z</time>
</trkpt>
<trkpt lat="35.0839487" lon="32.2961933">
<ele>71.81</ele>
<time>2015-04-25T14:29:00Z</time>
</trkpt>
<trkpt lat="35.0839915" lon="32.2962465">
<ele>71.37</ele>
<time>2015-04-25T14:29:01Z</time>
</trkpt>
<trkpt lat="35.0840331" lon="32.2962992">
<ele>70.65</ele>
<time>2015-04-25T14:29:02Z</time>
</trkpt>
<trkpt lat="35.0840754" lon="32.2963697">
<ele>69.29</ele>
<time>2015-04-25T14:29:03Z</time>
</trkpt>
<trkpt lat="35.0841189" lon="32.2964624">
<ele>68.11</ele>
<time>2015-04-25T14:29:04Z</time>
</trkpt>
<trkpt lat="35.0841594" lon="32.2965486">
<ele>66.52</ele>
<time>2015-04-25T14:29:05Z</time>
</trkpt>
<trkpt lat="35.0842073" lon="32.2966491">
<ele>65.72</ele>
<time>2015-04-25T14:29:06Z</time>
</trkpt>
<trkpt lat="35.0842480" lon="32.2967247">
<ele>64.82</ele>
<time>2015-04-25T14:29:07Z</time>
</trkpt>
<trkpt lat="35.0842919" lon="32.2967921">
<ele>64.37</ele>
<time>2015-04-25T14:29:08Z</time>
</trkpt>
<trkpt lat="35.0843400" lon="32.2968507">
<ele>64.15</ele>
<time>2015-04-25T14:29:09Z</time>
</trkpt>
<trkpt lat="35.0843851" lon="32.2969013">
<ele>63.54</ele>
<time>2015-04-25T14:29:10Z</time>
</trkpt>
<trkpt lat="35.0844287" lon="32.2969605">
<ele>63.23</ele>
<time>2015-04-25T14:29:11Z</time>
</trkpt>
<trkpt lat="35.0844719" lon="32.2970154">
<ele>63.08</ele>
<time>2015-04-25T14:29:12Z</time>
</trkpt>
<trkpt lat="35.0845068" lon="32.2970644">
<ele>63.00</ele>
<time>2015-04-25T14:29:13Z</time>
</trkpt>
<trkpt lat="35.0845502" lon="32.2971189">
<ele>62.96</ele>
<time>2015-04-25T14:29:14Z</time>
</trkpt>
<trkpt lat="35.0845895" lon="32.2971688">
<ele>62.94</ele>
<time>2015-04-25T14:29:15Z</time>
</trkpt>
<trkpt lat="35.0846212" lon="32.2972157">
<ele>62.43</ele>
<time>2015-04-25T14:29:16Z</time>
</trkpt>
<trkpt lat="35.0846601" lon="32.2972657">
<ele>61.68</ele>
<time>2015-04-25T14:29:17Z</time>
</trkpt>
<trkpt lat="35.0846916" lon="32.2973063">
<ele>61.30</ele>
<time>2015-04-25T14:29:18Z</time>
</trkpt>
<trkpt lat="35.0847318" lon="32.2973495">
<ele>61.11</ele>
<time>2015-04-25T14:29:19Z</time>
</trkpt>
<trkpt lat="35.0847688" lon="32.2973968">
<ele>60.52</ele>
<time>2015-04-25T14:29:20Z</time>
</trkpt>
<trkpt lat="35.0848084" lon="32.2974338">
<ele>59.72</ele>
<time>2015-04-25T14:29:21Z</time>
</trkpt>
<trkpt lat="35.0848493" lon="32.2974760">
<ele>59.82</ele>
<time>2015-04-25T14:29:22Z</time>
</trkpt>
<trkpt lat="35.0848854" lon="32.2975123">
<ele>59.87</ele>
<time>2015-04-25T14:29:23Z</time>
</trkpt>
<trkpt lat="35.0849203" lon="32.2975504">
<ele>59.90</ele>
<time>2015-04-25T14:29:24Z</time>
</trkpt>
<trkpt lat="35.0849534" lon="32.2975879">
<ele>59.41</ele>
<time>2015-04-25T14:29:25Z</time>
</trkpt>
<trkpt lat="35.0850063" lon="32.2976691">
<ele>59.80</ele>
<time>2015-04-25T14:29:27Z</time>
</trkpt>
<trkpt lat="35.0850576" lon="32.2977359">
<ele>60.64</ele>
<time>2015-04-25T14:29:29Z</time>
</trkpt>
<trkpt lat="35.0851086" lon="32.2977982">
<ele>60.85</ele>
<time>2015-04-25T14:29:31Z</time>
</trkpt>
<trkpt lat="35.0851476" lon="32.2978574">
<ele>60.16</ele>
<time>2015-04-25T14:29:33Z</time>
</trkpt>
<trkpt lat="35.0851919" lon="32.2979040">
<ele>59.98</ele>
<time>2015-04-25T14:29:35Z</time>
</trkpt>
<trkpt lat="35.0852342" lon="32.2979520">
<ele>59.94</ele>
<time>2015-04-25T14:29:37Z</time>
</trkpt>
<trkpt lat="35.0852780" lon="32.2980015">
<ele>59.93</ele>
<time>2015-04-25T14:29:39Z</time>
</trkpt>
<trkpt lat="35.0853289" lon="32.2980504">
<ele>59.93</ele>
<time>2015-04-25T14:29:41Z</time>
</trkpt>
<trkpt lat="35.0853781" lon="32.2980979">
<ele>59.68</ele>
<time>2015-04-25T14:29:43Z</time>
</trkpt>
<trkpt lat="35.0854286" lon="32.2981437">
<ele>59.61</ele>
<time>2015-04-25T14:29:45Z</time>
</trkpt>
<trkpt lat="35.0854752" lon="32.2981790">
<ele>59.35</ele>
<time>2015-04-25T14:29:47Z</time>
</trkpt>
<trkpt lat="35.0855221" lon="32.2982068">
<ele>59.03</ele>
<time>2015-04-25T14:29:49Z</time>
</trkpt>
<trkpt lat="35.0855687" lon="32.2982380">
<ele>59.70</ele>
<time>2015-04-25T14:29:51Z</time>
</trkpt>
<trkpt lat="35.0856303" lon="32.2982746">
<ele>59.87</ele>
<time>2015-04-25T14:29:53Z</time>
</trkpt>
<trkpt lat="35.0856854" lon="32.2983053">
<ele>59.91</ele>
<time>2015-04-25T14:29:55Z</time>
</trkpt>
<trkpt lat="35.0857317" lon="32.2983420">
<ele>59.93</ele>
<time>2015-04-25T14:30:23Z</time>
</trkpt>
<trkpt lat="35.0857960" lon="32.2983733">
<ele>59.92</ele>
<time>2015-04-25T14:30:26Z</time>
</trkpt>
<trkpt lat="35.0858402" lon="32.2983933">
<ele>59.92</ele>
<time>2015-04-25T14:30:28Z</time>
</trkpt>
<trkpt lat="35.0858847" lon="32.2984126">
<ele>59.42</ele>
<time>2015-04-25T14:30:30Z</time>
</trkpt>
<trkpt lat="35.0859332" lon="32.2984393">
<ele>59.05</ele>
<time>2015-04-25T14:30:32Z</time>
</trkpt>
<trkpt lat="35.0859852" lon="32.2984714">
<ele>58.96</ele>
<time>2015-04-25T14:30:34Z</time>
</trkpt>
<trkpt lat="35.0860430" lon="32.2985099">
<ele>58.18</ele>
<time>2015-04-25T14:30:36Z</time>
</trkpt>
<trkpt lat="35.0861031" lon="32.2985731">
<ele>56.74</ele>
<time>2015-04-25T14:30:38Z</time>
</trkpt>
<trkpt lat="35.0861609" lon="32.2986483">
<ele>55.63</ele>
<time>2015-04-25T14:30:40Z</time>
</trkpt>
<trkpt lat="35.0862312" lon="32.2987471">
<ele>54.60</ele>
<time>2015-04-25T14:30:42Z</time>
</trkpt>
<trkpt lat="35.0862691" lon="32.2987914">
<ele>54.26</ele>
<time>2015-04-25T14:30:43Z</time>
</trkpt>
<trkpt lat="35.0863119" lon="32.2988413">
<ele>53.59</ele>
<time>2015-04-25T14:30:44Z</time>
</trkpt>
<trkpt lat="35.0863579" lon="32.2988931">
<ele>53.26</ele>
<time>2015-04-25T14:30:45Z</time>
</trkpt>
<trkpt lat="35.0863988" lon="32.2989325">
<ele>53.09</ele>
<time>2015-04-25T14:30:46Z</time>
</trkpt>
<trkpt lat="35.0864541" lon="32.2989703">
<ele>53.01</ele>
<time>2015-04-25T14:30:47Z</time>
</trkpt>
<trkpt lat="35.0865022" lon="32.2990099">
<ele>52.97</ele>
<time>2015-04-25T14:30:48Z</time>
</trkpt>
<trkpt lat="35.0865425" lon="32.2990431">
<ele>52.45</ele>
<time>2015-04-25T14:30:49Z</time>
</trkpt>
<trkpt lat="35.0865951" lon="32.2990985">
<ele>51.56</ele>
<time>2015-04-25T14:30:51Z</time>
</trkpt>
<trkpt lat="35.0866290" lon="32.2991501">
<ele>51.08</ele>
<time>2015-04-25T14:30:53Z</time>
</trkpt>
<trkpt lat="35.0866469" lon="32.2992028">
<ele>50.44</ele>
<time>2015-04-25T14:30:56Z</time>
</trkpt>
<trkpt lat="35.0866280" lon="32.2992532">
<ele>51.73</ele>
<time>2015-04-25T14:31:22Z</time>
</trkpt>
<trkpt lat="35.0865719" lon="32.2992847">
<ele>51.17</ele>
<time>2015-04-25T14:31:58Z</time>
</trkpt>
<trkpt lat="35.0864949" lon="32.2992896">
<ele>50.49</ele>
<time>2015-04-25T14:32:00Z</time>
</trkpt>
<trkpt lat="35.0864166" lon="32.2992866">
<ele>50.07</ele>
<time>2015-04-25T14:32:02Z</time>
</trkpt>
<trkpt lat="35.0863450" lon="32.2992803">
<ele>49.46</ele>
<time>2015-04-25T14:32:04Z</time>
</trkpt>
<trkpt lat="35.0862927" lon="32.2992764">
<ele>49.06</ele>
<time>2015-04-25T14:32:06Z</time>
</trkpt>
<trkpt lat="35.0862434" lon="32.2992752">
<ele>48.96</ele>
<time>2015-04-25T14:32:08Z</time>
</trkpt>
<trkpt lat="35.0861914" lon="32.2992729">
<ele>48.93</ele>
<time>2015-04-25T14:32:10Z</time>
</trkpt>
<trkpt lat="35.0861405" lon="32.2992662">
<ele>48.18</ele>
<time>2015-04-25T14:32:12Z</time>
</trkpt>
<trkpt lat="35.0860899" lon="32.2992676">
<ele>47.99</ele>
<time>2015-04-25T14:32:14Z</time>
</trkpt>
<trkpt lat="35.0860350" lon="32.2992808">
<ele>46.69</ele>
<time>2015-04-25T14:32:16Z</time>
</trkpt>
<trkpt lat="35.0859720" lon="32.2992980">
<ele>46.12</ele>
<time>2015-04-25T14:32:18Z</time>
</trkpt>
<trkpt lat="35.0859074" lon="32.2993231">
<ele>45.22</ele>
<time>2015-04-25T14:32:20Z</time>
</trkpt>
<trkpt lat="35.0858388" lon="32.2993542">
<ele>44.25</ele>
<time>2015-04-25T14:32:22Z</time>
</trkpt>
<trkpt lat="35.0857546" lon="32.2994084">
<ele>42.76</ele>
<time>2015-04-25T14:32:24Z</time>
</trkpt>
<trkpt lat="35.0857179" lon="32.2994803">
<ele>41.84</ele>
<time>2015-04-25T14:32:25Z</time>
</trkpt>
<trkpt lat="35.0856996" lon="32.2995529">
<ele>41.38</ele>
<time>2015-04-25T14:32:26Z</time>
</trkpt>
<trkpt lat="35.0856951" lon="32.2996119">
<ele>41.15</ele>
<time>2015-04-25T14:32:27Z</time>
</trkpt>
<trkpt lat="35.0857162" lon="32.2996995">
<ele>41.23</ele>
<time>2015-04-25T14:32:29Z</time>
</trkpt>
<trkpt lat="35.0857298" lon="32.2997853">
<ele>42.25</ele>
<time>2015-04-25T14:32:31Z</time>
</trkpt>
<trkpt lat="35.0857272" lon="32.2998721">
<ele>42.76</ele>
<time>2015-04-25T14:32:33Z</time>
</trkpt>
<trkpt lat="35.0857182" lon="32.2999438">
<ele>43.38</ele>
<time>2015-04-25T14:32:35Z</time>
</trkpt>
<trkpt lat="35.0857227" lon="32.3000064">
<ele>43.79</ele>
<time>2015-04-25T14:32:37Z</time>
</trkpt>
<trkpt lat="35.0857425" lon="32.3000680">
<ele>43.41</ele>
<time>2015-04-25T14:32:40Z</time>
</trkpt>
<trkpt lat="35.0857734" lon="32.3001301">
<ele>42.99</ele>
<time>2015-04-25T14:32:43Z</time>
</trkpt>
<trkpt lat="35.0858028" lon="32.3001896">
<ele>42.43</ele>
<time>2015-04-25T14:32:46Z</time>
</trkpt>
<trkpt lat="35.0858468" lon="32.3002336">
<ele>41.99</ele>
<time>2015-04-25T14:32:49Z</time>
</trkpt>
<trkpt lat="35.0858976" lon="32.3002665">
<ele>40.56</ele>
<time>2015-04-25T14:32:52Z</time>
</trkpt>
<trkpt lat="35.0859401" lon="32.3002972">
<ele>40.00</ele>
<time>2015-04-25T14:32:55Z</time>
</trkpt>
<trkpt lat="35.0859967" lon="32.3003201">
<ele>37.74</ele>
<time>2015-04-25T14:32:59Z</time>
</trkpt>
<trkpt lat="35.0860622" lon="32.3003309">
<ele>36.28</ele>
<time>2015-04-25T14:33:02Z</time>
</trkpt>
<trkpt lat="35.0861328" lon="32.3003323">
<ele>34.01</ele>
<time>2015-04-25T14:33:04Z</time>
</trkpt>
<trkpt lat="35.0862361" lon="32.3003320">
<ele>33.47</ele>
<time>2015-04-25T14:33:05Z</time>
</trkpt>
<trkpt lat="35.0863094" lon="32.3003416">
<ele>32.70</ele>
<time>2015-04-25T14:33:06Z</time>
</trkpt>
<trkpt lat="35.0863729" lon="32.3003490">
<ele>32.31</ele>
<time>2015-04-25T14:33:07Z</time>
</trkpt>
<trkpt lat="35.0864353" lon="32.3003538">
<ele>32.12</ele>
<time>2015-04-25T14:33:08Z</time>
</trkpt>
<trkpt lat="35.0864985" lon="32.3003534">
<ele>32.02</ele>
<time>2015-04-25T14:33:09Z</time>
</trkpt>
<trkpt lat="35.0865446" lon="32.3003469">
<ele>32.47</ele>
<time>2015-04-25T14:33:10Z</time>
</trkpt>
<trkpt lat="35.0866229" lon="32.3003270">
<ele>32.81</ele>
<time>2015-04-25T14:33:12Z</time>
</trkpt>
<trkpt lat="35.0866784" lon="32.3003256">
<ele>33.65</ele>
<time>2015-04-25T14:33:14Z</time>
</trkpt>
<trkpt lat="35.0867344" lon="32.3003266">
<ele>34.61</ele>
<time>2015-04-25T14:33:16Z</time>
</trkpt>
<trkpt lat="35.0867867" lon="32.3003244">
<ele>34.85</ele>
<time>2015-04-25T14:33:18Z</time>
</trkpt>
<trkpt lat="35.0868349" lon="32.3003442">
<ele>34.91</ele>
<time>2015-04-25T14:33:20Z</time>
</trkpt>
<trkpt lat="35.0868807" lon="32.3003661">
<ele>34.42</ele>
<time>2015-04-25T14:33:23Z</time>
</trkpt>
<trkpt lat="35.0869287" lon="32.3003718">
<ele>33.99</ele>
<time>2015-04-25T14:33:26Z</time>
</trkpt>
<trkpt lat="35.0869857" lon="32.3003724">
<ele>34.17</ele>
<time>2015-04-25T14:34:00Z</time>
</trkpt>
<trkpt lat="35.0870377" lon="32.3003786">
<ele>34.08</ele>
<time>2015-04-25T14:34:03Z</time>
</trkpt>
<trkpt lat="35.0870894" lon="32.3003955">
<ele>33.46</ele>
<time>2015-04-25T14:34:05Z</time>
</trkpt>
<trkpt lat="35.0871679" lon="32.3004141">
<ele>32.81</ele>
<time>2015-04-25T14:34:07Z</time>
</trkpt>
<trkpt lat="35.0872463" lon="32.3004260">
<ele>31.65</ele>
<time>2015-04-25T14:34:09Z</time>
</trkpt>
<trkpt lat="35.0873242" lon="32.3004282">
<ele>30.36</ele>
<time>2015-04-25T14:34:11Z</time>
</trkpt>
<trkpt lat="35.0873975" lon="32.3004199">
<ele>29.64</ele>
<time>2015-04-25T14:34:12Z</time>
</trkpt>
<trkpt lat="35.0874473" lon="32.3004053">
<ele>28.28</ele>
<time>2015-04-25T14:34:13Z</time>
</trkpt>
<trkpt lat="35.0875009" lon="32.3003880">
<ele>27.60</ele>
<time>2015-04-25T14:34:14Z</time>
</trkpt>
<trkpt lat="35.0875577" lon="32.3003747">
<ele>27.26</ele>
<time>2015-04-25T14:34:15Z</time>
</trkpt>
<trkpt lat="35.0876216" lon="32.3003533">
<ele>27.09</ele>
<time>2015-04-25T14:34:16Z</time>
</trkpt>
<trkpt lat="35.0876915" lon="32.3003407">
<ele>26.51</ele>
<time>2015-04-25T14:34:17Z</time>
</trkpt>
<trkpt lat="35.0877596" lon="32.3003272">
<ele>26.22</ele>
<time>2015-04-25T14:34:18Z</time>
</trkpt>
<trkpt lat="35.0878388" lon="32.3002978">
<ele>25.07</ele>
<time>2015-04-25T14:34:19Z</time>
</trkpt>
<trkpt lat="35.0879324" lon="32.3002904">
<ele>24.50</ele>
<time>2015-04-25T14:34:20Z</time>
</trkpt>
<trkpt lat="35.0880158" lon="32.3002899">
<ele>23.71</ele>
<time>2015-04-25T14:34:21Z</time>
</trkpt>
<trkpt lat="35.0880915" lon="32.3002892">
<ele>23.32</ele>
<time>2015-04-25T14:34:22Z</time>
</trkpt>
<trkpt lat="35.0881807" lon="32.3002788">
<ele>22.12</ele>
<time>2015-04-25T14:34:23Z</time>
</trkpt>
<trkpt lat="35.0882638" lon="32.3002770">
<ele>21.02</ele>
<time>2015-04-25T14:34:24Z</time>
</trkpt>
<trkpt lat="35.0883381" lon="32.3002672">
<ele>20.47</ele>
<time>2015-04-25T14:34:25Z</time>
</trkpt>
<trkpt lat="35.0884150" lon="32.3002585">
<ele>19.70</ele>
<time>2015-04-25T14:34:26Z</time>
</trkpt>
<trkpt lat="35.0884898" lon="32.3002538">
<ele>19.31</ele>
<time>2015-04-25T14:34:27Z</time>
</trkpt>
<trkpt lat="35.0885736" lon="32.3002478">
<ele>19.62</ele>
<time>2015-04-25T14:34:28Z</time>
</trkpt>
<trkpt lat="35.0886610" lon="32.3002474">
<ele>19.77</ele>
<time>2015-04-25T14:34:29Z</time>
</trkpt>
<trkpt lat="35.0887358" lon="32.3002420">
<ele>19.35</ele>
<time>2015-04-25T14:34:30Z</time>
</trkpt>
<trkpt lat="35.0888132" lon="32.3002369">
<ele>18.64</ele>
<time>2015-04-25T14:34:31Z</time>
</trkpt>
<trkpt lat="35.0888976" lon="32.3002342">
<ele>17.78</ele>
<time>2015-04-25T14:34:32Z</time>
</trkpt>
<trkpt lat="35.0889704" lon="32.3002332">
<ele>17.35</ele>
<time>2015-04-25T14:34:33Z</time>
</trkpt>
<trkpt lat="35.0890454" lon="32.3002378">
<ele>17.14</ele>
<time>2015-04-25T14:34:34Z</time>
</trkpt>
<trkpt lat="35.0891110" lon="32.3002348">
<ele>16.53</ele>
<time>2015-04-25T14:34:35Z</time>
</trkpt>
<trkpt lat="35.0891732" lon="32.3002417">
<ele>16.23</ele>
<time>2015-04-25T14:34:36Z</time>
</trkpt>
<trkpt lat="35.0892246" lon="32.3002364">
<ele>15.58</ele>
<time>2015-04-25T14:34:37Z</time>
</trkpt>
<trkpt lat="35.0892861" lon="32.3002390">
<ele>16.25</ele>
<time>2015-04-25T14:34:38Z</time>
</trkpt>
<trkpt lat="35.0893402" lon="32.3002317">
<ele>16.09</ele>
<time>2015-04-25T14:34:39Z</time>
</trkpt>
<trkpt lat="35.0893984" lon="32.3002269">
<ele>15.51</ele>
<time>2015-04-25T14:34:40Z</time>
</trkpt>
<trkpt lat="35.0894578" lon="32.3002373">
<ele>16.22</ele>
<time>2015-04-25T14:34:41Z</time>
</trkpt>
<trkpt lat="35.0895260" lon="32.3002226">
<ele>15.57</ele>
<time>2015-04-25T14:34:42Z</time>
</trkpt>
<trkpt lat="35.0896172" lon="32.3002295">
<ele>15.09</ele>
<time>2015-04-25T14:34:44Z</time>
</trkpt>
<trkpt lat="35.0896663" lon="32.3002263">
<ele>15.01</ele>
<time>2015-04-25T14:34:45Z</time>
</trkpt>
<trkpt lat="35.0897513" lon="32.3002219">
<ele>14.45</ele>
<time>2015-04-25T14:34:47Z</time>
</trkpt>
<trkpt lat="35.0898440" lon="32.3002380">
<ele>13.81</ele>
<time>2015-04-25T14:34:49Z</time>
</trkpt>
<trkpt lat="35.0898913" lon="32.3002407">
<ele>13.87</ele>
<time>2015-04-25T14:34:50Z</time>
</trkpt>
<trkpt lat="35.0899775" lon="32.3002348">
<ele>13.91</ele>
<time>2015-04-25T14:34:52Z</time>
</trkpt>
<trkpt lat="35.0900459" lon="32.3002302">
<ele>14.67</ele>
<time>2015-04-25T14:34:54Z</time>
</trkpt>
<trkpt lat="35.0901278" lon="32.3002495">
<ele>14.61</ele>
<time>2015-04-25T14:34:56Z</time>
</trkpt>
<trkpt lat="35.0901926" lon="32.3002724">
<ele>15.60</ele>
<time>2015-04-25T14:34:58Z</time>
</trkpt>
<trkpt lat="35.0902502" lon="32.3003022">
<ele>17.84</ele>
<time>2015-04-25T14:35:00Z</time>
</trkpt>
<trkpt lat="35.0903045" lon="32.3003495">
<ele>18.65</ele>
<time>2015-04-25T14:35:02Z</time>
</trkpt>
<trkpt lat="35.0903472" lon="32.3003969">
<ele>20.11</ele>
<time>2015-04-25T14:35:04Z</time>
</trkpt>
<trkpt lat="35.0903766" lon="32.3004552">
<ele>19.97</ele>
<time>2015-04-25T14:35:06Z</time>
</trkpt>
<trkpt lat="35.0904105" lon="32.3005139">
<ele>18.69</ele>
<time>2015-04-25T14:35:08Z</time>
</trkpt>
<trkpt lat="35.0904471" lon="32.3005680">
<ele>18.12</ele>
<time>2015-04-25T14:35:10Z</time>
</trkpt>
<trkpt lat="35.0904812" lon="32.3006184">
<ele>18.72</ele>
<time>2015-04-25T14:35:12Z</time>
</trkpt>
<trkpt lat="35.0905134" lon="32.3006649">
<ele>18.87</ele>
<time>2015-04-25T14:35:14Z</time>
</trkpt>
<trkpt lat="35.0905434" lon="32.3007110">
<ele>18.91</ele>
<time>2015-04-25T14:35:16Z</time>
</trkpt>
<trkpt lat="35.0905816" lon="32.3007516">
<ele>18.92</ele>
<time>2015-04-25T14:35:18Z</time>
</trkpt>
<trkpt lat="35.0906250" lon="32.3007900">
<ele>19.67</ele>
<time>2015-04-25T14:35:20Z</time>
</trkpt>
<trkpt lat="35.0906702" lon="32.3008257">
<ele>19.86</ele>
<time>2015-04-25T14:35:22Z</time>
</trkpt>
<trkpt lat="35.0907184" lon="32.3008544">
<ele>19.91</ele>
<time>2015-04-25T14:35:24Z</time>
</trkpt>
<trkpt lat="35.0907670" lon="32.3008776">
<ele>19.92</ele>
<time>2015-04-25T14:35:26Z</time>
</trkpt>
<trkpt lat="35.0908144" lon="32.3008993">
<ele>19.42</ele>
<time>2015-04-25T14:35:28Z</time>
</trkpt>
<trkpt lat="35.0908612" lon="32.3009196">
<ele>19.05</ele>
<time>2015-04-25T14:35:30Z</time>
</trkpt>
<trkpt lat="35.0909091" lon="32.3009402">
<ele>19.46</ele>
<time>2015-04-25T14:35:32Z</time>
</trkpt>
<trkpt lat="35.0909566" lon="32.3009627">
<ele>20.56</ele>
<time>2015-04-25T14:35:34Z</time>
</trkpt>
<trkpt lat="35.0910039" lon="32.3009848">
<ele>21.58</ele>
<time>2015-04-25T14:35:36Z</time>
</trkpt>
<trkpt lat="35.0910527" lon="32.3010044">
<ele>22.59</ele>
<time>2015-04-25T14:35:38Z</time>
</trkpt>
<trkpt lat="35.0911029" lon="32.3010270">
<ele>22.34</ele>
<time>2015-04-25T14:35:40Z</time>
</trkpt>
<trkpt lat="35.0911504" lon="32.3010513">
<ele>22.03</ele>
<time>2015-04-25T14:35:42Z</time>
</trkpt>
<trkpt lat="35.0911995" lon="32.3010694">
<ele>21.70</ele>
<time>2015-04-25T14:35:44Z</time>
</trkpt>
<trkpt lat="35.0912430" lon="32.3010917">
<ele>21.37</ele>
<time>2015-04-25T14:35:46Z</time>
</trkpt>
<trkpt lat="35.0912989" lon="32.3011273">
<ele>20.23</ele>
<time>2015-04-25T14:35:49Z</time>
</trkpt>
<trkpt lat="35.0913540" lon="32.3011560">
<ele>19.96</ele>
<time>2015-04-25T14:35:52Z</time>
</trkpt>
<trkpt lat="35.0914098" lon="32.3011478">
<ele>19.80</ele>
<time>2015-04-25T14:35:55Z</time>
</trkpt>
<trkpt lat="35.0914610" lon="32.3011224">
<ele>19.92</ele>
<time>2015-04-25T14:35:59Z</time>
</trkpt>
<trkpt lat="35.0914848" lon="32.3010721">
<ele>14.55</ele>
<time>2015-04-25T14:39:29Z</time>
</trkpt>
<trkpt lat="35.0915160" lon="32.3010218">
<ele>14.88</ele>
<time>2015-04-25T14:39:32Z</time>
</trkpt>
<trkpt lat="35.0915505" lon="32.3009750">
<ele>15.04</ele>
<time>2015-04-25T14:39:35Z</time>
</trkpt>
<trkpt lat="35.0915912" lon="32.3009239">
<ele>14.93</ele>
<time>2015-04-25T14:39:39Z</time>
</trkpt>
<trkpt lat="35.0916317" lon="32.3008989">
<ele>14.18</ele>
<time>2015-04-25T14:39:42Z</time>
</trkpt>
<trkpt lat="35.0916690" lon="32.3008489">
<ele>13.88</ele>
<time>2015-04-25T14:39:46Z</time>
</trkpt>
<trkpt lat="35.0917014" lon="32.3008094">
<ele>13.92</ele>
<time>2015-04-25T14:39:49Z</time>
</trkpt>
<trkpt lat="35.0917304" lon="32.3007641">
<ele>15.80</ele>
<time>2015-04-25T14:39:52Z</time>
</trkpt>
<trkpt lat="35.0917665" lon="32.3007197">
<ele>16.91</ele>
<time>2015-04-25T14:39:55Z</time>
</trkpt>
<trkpt lat="35.0918111" lon="32.3006745">
<ele>17.67</ele>
<time>2015-04-25T14:39:58Z</time>
</trkpt>
<trkpt lat="35.0918493" lon="32.3006245">
<ele>18.39</ele>
<time>2015-04-25T14:40:01Z</time>
</trkpt>
<trkpt lat="35.0918760" lon="32.3005766">
<ele>19.73</ele>
<time>2015-04-25T14:40:04Z</time>
</trkpt>
<trkpt lat="35.0919147" lon="32.3005275">
<ele>18.16</ele>
<time>2015-04-25T14:40:08Z</time>
</trkpt>
<trkpt lat="35.0919664" lon="32.3004910">
<ele>17.44</ele>
<time>2015-04-25T14:40:12Z</time>
</trkpt>
<trkpt lat="35.0920036" lon="32.3004503">
<ele>16.99</ele>
<time>2015-04-25T14:40:15Z</time>
</trkpt>
<trkpt lat="35.0920422" lon="32.3004028">
<ele>17.68</ele>
<time>2015-04-25T14:40:18Z</time>
</trkpt>
<trkpt lat="35.0920927" lon="32.3003563">
<ele>18.14</ele>
<time>2015-04-25T14:40:21Z</time>
</trkpt>
<trkpt lat="35.0921452" lon="32.3003132">
<ele>17.70</ele>
<time>2015-04-25T14:40:24Z</time>
</trkpt>
<trkpt lat="35.0921926" lon="32.3002803">
<ele>17.90</ele>
<time>2015-04-25T14:40:27Z</time>
</trkpt>
<trkpt lat="35.0922465" lon="32.3002635">
<ele>17.92</ele>
<time>2015-04-25T14:40:30Z</time>
</trkpt>
<trkpt lat="35.0923016" lon="32.3002166">
<ele>18.80</ele>
<time>2015-04-25T14:40:33Z</time>
</trkpt>
<trkpt lat="35.0923289" lon="32.3001564">
<ele>19.39</ele>
<time>2015-04-25T14:40:35Z</time>
</trkpt>
<trkpt lat="35.0923425" lon="32.3000850">
<ele>19.79</ele>
<time>2015-04-25T14:40:37Z</time>
</trkpt>
<trkpt lat="35.0923432" lon="32.3000157">
<ele>19.89</ele>
<time>2015-04-25T14:40:39Z</time>
</trkpt>
<trkpt lat="35.0923478" lon="32.2999495">
<ele>19.42</ele>
<time>2015-04-25T14:40:41Z</time>
</trkpt>
<trkpt lat="35.0923628" lon="32.2998842">
<ele>19.55</ele>
<time>2015-04-25T14:40:43Z</time>
</trkpt>
<trkpt lat="35.0923829" lon="32.2998198">
<ele>19.58</ele>
<time>2015-04-25T14:40:45Z</time>
</trkpt>
<trkpt lat="35.0923960" lon="32.2997574">
<ele>19.84</ele>
<time>2015-04-25T14:40:47Z</time>
</trkpt>
<trkpt lat="35.0923954" lon="32.2996918">
<ele>19.90</ele>
<time>2015-04-25T14:40:49Z</time>
</trkpt>
<trkpt lat="35.0923822" lon="32.2996278">
<ele>19.92</ele>
<time>2015-04-25T14:40:51Z</time>
</trkpt>
<trkpt lat="35.0923552" lon="32.2995758">
<ele>19.17</ele>
<time>2015-04-25T14:40:53Z</time>
</trkpt>
<trkpt lat="35.0923270" lon="32.2995329">
<ele>19.46</ele>
<time>2015-04-25T14:40:56Z</time>
</trkpt>
<trkpt lat="35.0922866" lon="32.2994888">
<ele>20.62</ele>
<time>2015-04-25T14:40:59Z</time>
</trkpt>
<trkpt lat="35.0922668" lon="32.2994171">
<ele>20.89</ele>
<time>2015-04-25T14:41:02Z</time>
</trkpt>
<trkpt lat="35.0922716" lon="32.2993609">
<ele>21.17</ele>
<time>2015-04-25T14:41:04Z</time>
</trkpt>
<trkpt lat="35.0922866" lon="32.2992998">
<ele>21.49</ele>
<time>2015-04-25T14:41:06Z</time>
</trkpt>
<trkpt lat="35.0923042" lon="32.2992339">
<ele>21.82</ele>
<time>2015-04-25T14:41:08Z</time>
</trkpt>
<trkpt lat="35.0923258" lon="32.2991715">
<ele>21.90</ele>
<time>2015-04-25T14:41:10Z</time>
</trkpt>
<trkpt lat="35.0923470" lon="32.2991175">
<ele>21.92</ele>
<time>2015-04-25T14:41:12Z</time>
</trkpt>
<trkpt lat="35.0923655" lon="32.2990669">
<ele>21.17</ele>
<time>2015-04-25T14:41:14Z</time>
</trkpt>
<trkpt lat="35.0923669" lon="32.2989878">
<ele>20.83</ele>
<time>2015-04-25T14:41:17Z</time>
</trkpt>
<trkpt lat="35.0923789" lon="32.2989190">
<ele>22.29</ele>
<time>2015-04-25T14:41:20Z</time>
</trkpt>
<trkpt lat="35.0924057" lon="32.2988594">
<ele>22.60</ele>
<time>2015-04-25T14:41:23Z</time>
</trkpt>
<trkpt lat="35.0924304" lon="32.2987922">
<ele>22.88</ele>
<time>2015-04-25T14:41:26Z</time>
</trkpt>
<trkpt lat="35.0924617" lon="32.2987299">
<ele>22.92</ele>
<time>2015-04-25T14:41:29Z</time>
</trkpt>
<trkpt lat="35.0925007" lon="32.2986771">
<ele>20.80</ele>
<time>2015-04-25T14:41:32Z</time>
</trkpt>
<trkpt lat="35.0925346" lon="32.2986201">
<ele>20.03</ele>
<time>2015-04-25T14:41:35Z</time>
</trkpt>
<trkpt lat="35.0925484" lon="32.2985578">
<ele>19.19</ele>
<time>2015-04-25T14:41:38Z</time>
</trkpt>
<trkpt lat="35.0925665" lon="32.2984994">
<ele>20.21</ele>
<time>2015-04-25T14:41:41Z</time>
</trkpt>
<trkpt lat="35.0925801" lon="32.2984432">
<ele>20.84</ele>
<time>2015-04-25T14:41:44Z</time>
</trkpt>
<trkpt lat="35.0925835" lon="32.2983727">
<ele>20.48</ele>
<time>2015-04-25T14:41:48Z</time>
</trkpt>
<trkpt lat="35.0925786" lon="32.2983168">
<ele>21.62</ele>
<time>2015-04-25T14:41:51Z</time>
</trkpt>
<trkpt lat="35.0926086" lon="32.2982730">
<ele>21.39</ele>
<time>2015-04-25T14:41:54Z</time>
</trkpt>
<trkpt lat="35.0926510" lon="32.2982297">
<ele>20.48</ele>
<time>2015-04-25T14:41:57Z</time>
</trkpt>
<trkpt lat="35.0926368" lon="32.2981575">
<ele>20.87</ele>
<time>2015-04-25T14:42:00Z</time>
</trkpt>
<trkpt lat="35.0925969" lon="32.2981086">
<ele>21.04</ele>
<time>2015-04-25T14:42:03Z</time>
</trkpt>
<trkpt lat="35.0925743" lon="32.2980581">
<ele>20.94</ele>
<time>2015-04-25T14:42:06Z</time>
</trkpt>
<trkpt lat="35.0925785" lon="32.2980008">
<ele>21.30</ele>
<time>2015-04-25T14:42:09Z</time>
</trkpt>
<trkpt lat="35.0925828" lon="32.2979415">
<ele>22.72</ele>
<time>2015-04-25T14:42:12Z</time>
</trkpt>
<trkpt lat="35.0925918" lon="32.2978810">
<ele>23.02</ele>
<time>2015-04-25T14:42:15Z</time>
</trkpt>
<trkpt lat="35.0926004" lon="32.2978170">
<ele>22.69</ele>
<time>2015-04-25T14:42:18Z</time>
</trkpt>
<trkpt lat="35.0926074" lon="32.2977545">
<ele>22.15</ele>
<time>2015-04-25T14:42:21Z</time>
</trkpt>
<trkpt lat="35.0926323" lon="32.2976869">
<ele>23.58</ele>
<time>2015-04-25T14:42:24Z</time>
</trkpt>
<trkpt lat="35.0926487" lon="32.2976356">
<ele>23.59</ele>
<time>2015-04-25T14:42:26Z</time>
</trkpt>
<trkpt lat="35.0926612" lon="32.2975780">
<ele>23.59</ele>
<time>2015-04-25T14:42:28Z</time>
</trkpt>
<trkpt lat="35.0926752" lon="32.2975194">
<ele>24.59</ele>
<time>2015-04-25T14:42:30Z</time>
</trkpt>
<trkpt lat="35.0926982" lon="32.2974715">
<ele>24.34</ele>
<time>2015-04-25T14:42:32Z</time>
</trkpt>
<trkpt lat="35.0927327" lon="32.2974234">
<ele>23.98</ele>
<time>2015-04-25T14:42:35Z</time>
</trkpt>
<trkpt lat="35.0927836" lon="32.2973924">
<ele>22.99</ele>
<time>2015-04-25T14:42:39Z</time>
</trkpt>
<trkpt lat="35.0928418" lon="32.2973894">
<ele>22.18</ele>
<time>2015-04-25T14:42:43Z</time>
</trkpt>
<trkpt lat="35.0928926" lon="32.2973829">
<ele>23.21</ele>
<time>2015-04-25T14:42:46Z</time>
</trkpt>
<trkpt lat="35.0929475" lon="32.2973677">
<ele>22.96</ele>
<time>2015-04-25T14:42:49Z</time>
</trkpt>
<trkpt lat="35.0930036" lon="32.2973292">
<ele>22.05</ele>
<time>2015-04-25T14:42:52Z</time>
</trkpt>
<trkpt lat="35.0930562" lon="32.2972802">
<ele>22.19</ele>
<time>2015-04-25T14:42:55Z</time>
</trkpt>
<trkpt lat="35.0931160" lon="32.2972471">
<ele>22.08</ele>
<time>2015-04-25T14:42:58Z</time>
</trkpt>
<trkpt lat="35.0931680" lon="32.2971940">
<ele>22.82</ele>
<time>2015-04-25T14:43:01Z</time>
</trkpt>
<trkpt lat="35.0932077" lon="32.2971588">
<ele>22.90</ele>
<time>2015-04-25T14:43:03Z</time>
</trkpt>
<trkpt lat="35.0932483" lon="32.2971302">
<ele>22.17</ele>
<time>2015-04-25T14:43:05Z</time>
</trkpt>
<trkpt lat="35.0932773" lon="32.2970564">
<ele>21.96</ele>
<time>2015-04-25T14:43:08Z</time>
</trkpt>
<trkpt lat="35.0932902" lon="32.2969999">
<ele>22.43</ele>
<time>2015-04-25T14:43:10Z</time>
</trkpt>
<trkpt lat="35.0933109" lon="32.2969480">
<ele>23.55</ele>
<time>2015-04-25T14:43:12Z</time>
</trkpt>
<trkpt lat="35.0933402" lon="32.2968774">
<ele>23.88</ele>
<time>2015-04-25T14:43:15Z</time>
</trkpt>
<trkpt lat="35.0933593" lon="32.2968271">
<ele>24.41</ele>
<time>2015-04-25T14:43:17Z</time>
</trkpt>
<trkpt lat="35.0933742" lon="32.2967743">
<ele>24.80</ele>
<time>2015-04-25T14:43:19Z</time>
</trkpt>
<trkpt lat="35.0934071" lon="32.2967078">
<ele>24.91</ele>
<time>2015-04-25T14:43:22Z</time>
</trkpt>
<trkpt lat="35.0934416" lon="32.2966532">
<ele>24.92</ele>
<time>2015-04-25T14:43:25Z</time>
</trkpt>
<trkpt lat="35.0934762" lon="32.2965847">
<ele>24.92</ele>
<time>2015-04-25T14:43:28Z</time>
</trkpt>
<trkpt lat="35.0935006" lon="32.2965369">
<ele>25.42</ele>
<time>2015-04-25T14:43:30Z</time>
</trkpt>
<trkpt lat="35.0935192" lon="32.2964795">
<ele>26.30</ele>
<time>2015-04-25T14:43:32Z</time>
</trkpt>
<trkpt lat="35.0935461" lon="32.2964257">
<ele>26.77</ele>
<time>2015-04-25T14:43:34Z</time>
</trkpt>
<trkpt lat="35.0935715" lon="32.2963739">
<ele>26.89</ele>
<time>2015-04-25T14:43:36Z</time>
</trkpt>
<trkpt lat="35.0936023" lon="32.2963303">
<ele>27.42</ele>
<time>2015-04-25T14:43:38Z</time>
</trkpt>
<trkpt lat="35.0936712" lon="32.2963292">
<ele>27.11</ele>
<time>2015-04-25T14:43:41Z</time>
</trkpt>
<trkpt lat="35.0937202" lon="32.2963304">
<ele>26.97</ele>
<time>2015-04-25T14:43:43Z</time>
</trkpt>
<trkpt lat="35.0937616" lon="32.2963570">
<ele>26.44</ele>
<time>2015-04-25T14:43:45Z</time>
</trkpt>
<trkpt lat="35.0938244" lon="32.2963618">
<ele>26.36</ele>
<time>2015-04-25T14:43:48Z</time>
</trkpt>
<trkpt lat="35.0938573" lon="32.2962969">
<ele>25.98</ele>
<time>2015-04-25T14:43:51Z</time>
</trkpt>
<trkpt lat="35.0938779" lon="32.2962299">
<ele>26.31</ele>
<time>2015-04-25T14:43:54Z</time>
</trkpt>
<trkpt lat="35.0938890" lon="32.2961669">
<ele>26.72</ele>
<time>2015-04-25T14:43:57Z</time>
</trkpt>
<trkpt lat="35.0939051" lon="32.2961052">
<ele>26.65</ele>
<time>2015-04-25T14:44:00Z</time>
</trkpt>
<trkpt lat="35.0939173" lon="32.2960386">
<ele>26.89</ele>
<time>2015-04-25T14:44:03Z</time>
</trkpt>
<trkpt lat="35.0939315" lon="32.2959610">
<ele>27.55</ele>
<time>2015-04-25T14:44:06Z</time>
</trkpt>
<trkpt lat="35.0939458" lon="32.2958899">
<ele>27.63</ele>
<time>2015-04-25T14:44:09Z</time>
</trkpt>
<trkpt lat="35.0939695" lon="32.2958235">
<ele>27.16</ele>
<time>2015-04-25T14:44:13Z</time>
</trkpt>
<trkpt lat="35.0940006" lon="32.2957775">
<ele>27.70</ele>
<time>2015-04-25T14:44:16Z</time>
</trkpt>
<trkpt lat="35.0940420" lon="32.2957257">
<ele>27.85</ele>
<time>2015-04-25T14:44:20Z</time>
</trkpt>
<trkpt lat="35.0940900" lon="32.2956970">
<ele>28.17</ele>
<time>2015-04-25T14:44:24Z</time>
</trkpt>
<trkpt lat="35.0941412" lon="32.2956886">
<ele>27.96</ele>
<time>2015-04-25T14:44:27Z</time>
</trkpt>
<trkpt lat="35.0941984" lon="32.2956827">
<ele>27.30</ele>
<time>2015-04-25T14:44:30Z</time>
</trkpt>
<trkpt lat="35.0942483" lon="32.2956611">
<ele>27.02</ele>
<time>2015-04-25T14:44:32Z</time>
</trkpt>
<trkpt lat="35.0942928" lon="32.2956068">
<ele>27.45</ele>
<time>2015-04-25T14:44:34Z</time>
</trkpt>
<trkpt lat="35.0943291" lon="32.2955450">
<ele>27.81</ele>
<time>2015-04-25T14:44:36Z</time>
</trkpt>
<trkpt lat="35.0943759" lon="32.2954963">
<ele>27.90</ele>
<time>2015-04-25T14:44:38Z</time>
</trkpt>
<trkpt lat="35.0944291" lon="32.2954619">
<ele>27.17</ele>
<time>2015-04-25T14:44:40Z</time>
</trkpt>
<trkpt lat="35.0944866" lon="32.2954427">
<ele>26.99</ele>
<time>2015-04-25T14:44:42Z</time>
</trkpt>
<trkpt lat="35.0945420" lon="32.2954197">
<ele>27.69</ele>
<time>2015-04-25T14:44:44Z</time>
</trkpt>
<trkpt lat="35.0945830" lon="32.2953777">
<ele>27.87</ele>
<time>2015-04-25T14:44:46Z</time>
</trkpt>
<trkpt lat="35.0946076" lon="32.2953200">
<ele>29.16</ele>
<time>2015-04-25T14:44:48Z</time>
</trkpt>
<trkpt lat="35.0946406" lon="32.2952599">
<ele>29.73</ele>
<time>2015-04-25T14:44:50Z</time>
</trkpt>
<trkpt lat="35.0946832" lon="32.2952032">
<ele>29.88</ele>
<time>2015-04-25T14:44:52Z</time>
</trkpt>
<trkpt lat="35.0947344" lon="32.2951565">
<ele>29.91</ele>
<time>2015-04-25T14:44:54Z</time>
</trkpt>
<trkpt lat="35.0947896" lon="32.2951198">
<ele>29.67</ele>
<time>2015-04-25T14:44:56Z</time>
</trkpt>
<trkpt lat="35.0948447" lon="32.2950888">
<ele>29.86</ele>
<time>2015-04-25T14:44:58Z</time>
</trkpt>
<trkpt lat="35.0948876" lon="32.2950436">
<ele>29.91</ele>
<time>2015-04-25T14:45:00Z</time>
</trkpt>
<trkpt lat="35.0949240" lon="32.2949938">
<ele>29.92</ele>
<time>2015-04-25T14:45:02Z</time>
</trkpt>
<trkpt lat="35.0949679" lon="32.2949612">
<ele>29.42</ele>
<time>2015-04-25T14:45:04Z</time>
</trkpt>
<trkpt lat="35.0950186" lon="32.2949498">
<ele>29.05</ele>
<time>2015-04-25T14:45:06Z</time>
</trkpt>
<trkpt lat="35.0950691" lon="32.2949377">
<ele>28.96</ele>
<time>2015-04-25T14:45:08Z</time>
</trkpt>
<trkpt lat="35.0951195" lon="32.2949418">
<ele>28.93</ele>
<time>2015-04-25T14:45:10Z</time>
</trkpt>
<trkpt lat="35.0951692" lon="32.2949516">
<ele>28.43</ele>
<time>2015-04-25T14:45:12Z</time>
</trkpt>
<trkpt lat="35.0952251" lon="32.2949468">
<ele>29.05</ele>
<time>2015-04-25T14:45:14Z</time>
</trkpt>
<trkpt lat="35.0952855" lon="32.2949263">
<ele>28.46</ele>
<time>2015-04-25T14:45:16Z</time>
</trkpt>
<trkpt lat="35.0953435" lon="32.2949020">
<ele>28.81</ele>
<time>2015-04-25T14:45:18Z</time>
</trkpt>
<trkpt lat="35.0953932" lon="32.2948651">
<ele>29.65</ele>
<time>2015-04-25T14:45:20Z</time>
</trkpt>
<trkpt lat="35.0954370" lon="32.2948239">
<ele>31.61</ele>
<time>2015-04-25T14:45:22Z</time>
</trkpt>
<trkpt lat="35.0954727" lon="32.2947767">
<ele>33.35</ele>
<time>2015-04-25T14:45:24Z</time>
</trkpt>
<trkpt lat="35.0954826" lon="32.2947167">
<ele>33.78</ele>
<time>2015-04-25T14:45:26Z</time>
</trkpt>
<trkpt lat="35.0954731" lon="32.2946564">
<ele>33.14</ele>
<time>2015-04-25T14:45:28Z</time>
</trkpt>
<trkpt lat="35.0954578" lon="32.2945992">
<ele>32.48</ele>
<time>2015-04-25T14:45:30Z</time>
</trkpt>
<trkpt lat="35.0954733" lon="32.2945217">
<ele>32.24</ele>
<time>2015-04-25T14:45:33Z</time>
</trkpt>
<trkpt lat="35.0955048" lon="32.2944750">
<ele>33.00</ele>
<time>2015-04-25T14:45:35Z</time>
</trkpt>
<trkpt lat="35.0955277" lon="32.2944236">
<ele>33.19</ele>
<time>2015-04-25T14:45:37Z</time>
</trkpt>
<trkpt lat="35.0955580" lon="32.2943517">
<ele>33.46</ele>
<time>2015-04-25T14:45:40Z</time>
</trkpt>
<trkpt lat="35.0955708" lon="32.2942762">
<ele>33.37</ele>
<time>2015-04-25T14:45:43Z</time>
</trkpt>
<trkpt lat="35.0955948" lon="32.2942147">
<ele>32.98</ele>
<time>2015-04-25T14:45:46Z</time>
</trkpt>
<trkpt lat="35.0956263" lon="32.2941641">
<ele>32.43</ele>
<time>2015-04-25T14:45:49Z</time>
</trkpt>
<trkpt lat="35.0956362" lon="32.2941049">
<ele>31.99</ele>
<time>2015-04-25T14:45:52Z</time>
</trkpt>
<trkpt lat="35.0956180" lon="32.2940444">
<ele>31.93</ele>
<time>2015-04-25T14:45:55Z</time>
</trkpt>
<trkpt lat="35.0956125" lon="32.2939674">
<ele>32.43</ele>
<time>2015-04-25T14:45:58Z</time>
</trkpt>
<trkpt lat="35.0956340" lon="32.2938915">
<ele>31.24</ele>
<time>2015-04-25T14:46:01Z</time>
</trkpt>
<trkpt lat="35.0956566" lon="32.2938402">
<ele>30.50</ele>
<time>2015-04-25T14:46:03Z</time>
</trkpt>
<trkpt lat="35.0956761" lon="32.2937840">
<ele>30.82</ele>
<time>2015-04-25T14:46:05Z</time>
</trkpt>
<trkpt lat="35.0956914" lon="32.2937248">
<ele>31.65</ele>
<time>2015-04-25T14:46:07Z</time>
</trkpt>
<trkpt lat="35.0956917" lon="32.2936614">
<ele>31.36</ele>
<time>2015-04-25T14:46:09Z</time>
</trkpt>
<trkpt lat="35.0956800" lon="32.2935982">
<ele>31.28</ele>
<time>2015-04-25T14:46:11Z</time>
</trkpt>
<trkpt lat="35.0956655" lon="32.2935299">
<ele>31.76</ele>
<time>2015-04-25T14:46:13Z</time>
</trkpt>
<trkpt lat="35.0956577" lon="32.2934618">
<ele>31.88</ele>
<time>2015-04-25T14:46:15Z</time>
</trkpt>
<trkpt lat="35.0956547" lon="32.2933914">
<ele>31.91</ele>
<time>2015-04-25T14:46:17Z</time>
</trkpt>
<trkpt lat="35.0956541" lon="32.2933244">
<ele>31.42</ele>
<time>2015-04-25T14:46:19Z</time>
</trkpt>
<trkpt lat="35.0956575" lon="32.2932559">
<ele>31.80</ele>
<time>2015-04-25T14:46:21Z</time>
</trkpt>
<trkpt lat="35.0956574" lon="32.2931907">
<ele>32.14</ele>
<time>2015-04-25T14:46:23Z</time>
</trkpt>
<trkpt lat="35.0956559" lon="32.2931305">
<ele>32.48</ele>
<time>2015-04-25T14:46:25Z</time>
</trkpt>
<trkpt lat="35.0956836" lon="32.2930628">
<ele>31.12</ele>
<time>2015-04-25T14:46:28Z</time>
</trkpt>
<trkpt lat="35.0957374" lon="32.2930239">
<ele>31.45</ele>
<time>2015-04-25T14:46:31Z</time>
</trkpt>
<trkpt lat="35.0957726" lon="32.2929865">
<ele>32.31</ele>
<time>2015-04-25T14:46:33Z</time>
</trkpt>
<trkpt lat="35.0957850" lon="32.2929024">
<ele>32.72</ele>
<time>2015-04-25T14:46:36Z</time>
</trkpt>
<trkpt lat="35.0957770" lon="32.2928440">
<ele>32.87</ele>
<time>2015-04-25T14:46:38Z</time>
</trkpt>
<trkpt lat="35.0957640" lon="32.2927905">
<ele>34.16</ele>
<time>2015-04-25T14:46:40Z</time>
</trkpt>
<trkpt lat="35.0957398" lon="32.2927243">
<ele>34.08</ele>
<time>2015-04-25T14:46:43Z</time>
</trkpt>
<trkpt lat="35.0957354" lon="32.2926503">
<ele>33.19</ele>
<time>2015-04-25T14:46:46Z</time>
</trkpt>
<trkpt lat="35.0957782" lon="32.2925887">
<ele>32.46</ele>
<time>2015-04-25T14:46:49Z</time>
</trkpt>
<trkpt lat="35.0958168" lon="32.2925576">
<ele>31.31</ele>
<time>2015-04-25T14:46:51Z</time>
</trkpt>
<trkpt lat="35.0958649" lon="32.2925352">
<ele>31.02</ele>
<time>2015-04-25T14:46:53Z</time>
</trkpt>
<trkpt lat="35.0959188" lon="32.2924895">
<ele>32.81</ele>
<time>2015-04-25T14:46:56Z</time>
</trkpt>
<trkpt lat="35.0959597" lon="32.2924456">
<ele>32.54</ele>
<time>2015-04-25T14:46:59Z</time>
</trkpt>
<trkpt lat="35.0960165" lon="32.2924437">
<ele>31.25</ele>
<time>2015-04-25T14:47:02Z</time>
</trkpt>
<trkpt lat="35.0960677" lon="32.2924312">
<ele>30.97</ele>
<time>2015-04-25T14:47:05Z</time>
</trkpt>
<trkpt lat="35.0960738" lon="32.2923756">
<ele>31.69</ele>
<time>2015-04-25T14:47:07Z</time>
</trkpt>
<trkpt lat="35.0960585" lon="32.2923118">
<ele>31.87</ele>
<time>2015-04-25T14:47:09Z</time>
</trkpt>
<trkpt lat="35.0960324" lon="32.2922577">
<ele>31.91</ele>
<time>2015-04-25T14:47:11Z</time>
</trkpt>
<trkpt lat="35.0960180" lon="32.2921810">
<ele>31.92</ele>
<time>2015-04-25T14:47:14Z</time>
</trkpt>
<trkpt lat="35.0960291" lon="32.2921032">
<ele>32.42</ele>
<time>2015-04-25T14:47:17Z</time>
</trkpt>
<trkpt lat="35.0960478" lon="32.2920509">
<ele>32.80</ele>
<time>2015-04-25T14:47:19Z</time>
</trkpt>
<trkpt lat="35.0960809" lon="32.2920101">
<ele>32.89</ele>
<time>2015-04-25T14:47:21Z</time>
</trkpt>
<trkpt lat="35.0961165" lon="32.2919754">
<ele>32.92</ele>
<time>2015-04-25T14:47:23Z</time>
</trkpt>
<trkpt lat="35.0961483" lon="32.2919307">
<ele>32.92</ele>
<time>2015-04-25T14:47:25Z</time>
</trkpt>
<trkpt lat="35.0961871" lon="32.2918759">
<ele>33.42</ele>
<time>2015-04-25T14:47:28Z</time>
</trkpt>
<trkpt lat="35.0962286" lon="32.2918384">
<ele>33.49</ele>
<time>2015-04-25T14:47:31Z</time>
</trkpt>
<trkpt lat="35.0962839" lon="32.2918497">
<ele>33.87</ele>
<time>2015-04-25T14:47:34Z</time>
</trkpt>
<trkpt lat="35.0963457" lon="32.2918468">
<ele>33.92</ele>
<time>2015-04-25T14:47:37Z</time>
</trkpt>
<trkpt lat="35.0963886" lon="32.2918227">
<ele>34.42</ele>
<time>2015-04-25T14:47:39Z</time>
</trkpt>
<trkpt lat="35.0964330" lon="32.2917882">
<ele>34.30</ele>
<time>2015-04-25T14:47:41Z</time>
</trkpt>
<trkpt lat="35.0964739" lon="32.2917472">
<ele>34.77</ele>
<time>2015-04-25T14:47:43Z</time>
</trkpt>
<trkpt lat="35.0964975" lon="32.2916925">
<ele>33.64</ele>
<time>2015-04-25T14:47:45Z</time>
</trkpt>
<trkpt lat="35.0965184" lon="32.2916436">
<ele>33.10</ele>
<time>2015-04-25T14:47:47Z</time>
</trkpt>
<trkpt lat="35.0965543" lon="32.2915970">
<ele>33.47</ele>
<time>2015-04-25T14:47:49Z</time>
</trkpt>
<trkpt lat="35.0965920" lon="32.2915504">
<ele>33.81</ele>
<time>2015-04-25T14:47:51Z</time>
</trkpt>
<trkpt lat="35.0966368" lon="32.2915143">
<ele>34.15</ele>
<time>2015-04-25T14:47:53Z</time>
</trkpt>
<trkpt lat="35.0966787" lon="32.2914767">
<ele>33.23</ele>
<time>2015-04-25T14:47:55Z</time>
</trkpt>
<trkpt lat="35.0967170" lon="32.2914300">
<ele>33.00</ele>
<time>2015-04-25T14:47:57Z</time>
</trkpt>
<trkpt lat="35.0967405" lon="32.2913750">
<ele>32.94</ele>
<time>2015-04-25T14:47:59Z</time>
</trkpt>
<trkpt lat="35.0967434" lon="32.2913097">
<ele>33.68</ele>
<time>2015-04-25T14:48:01Z</time>
</trkpt>
<trkpt lat="35.0967282" lon="32.2912434">
<ele>33.86</ele>
<time>2015-04-25T14:48:03Z</time>
</trkpt>
<trkpt lat="35.0967185" lon="32.2911721">
<ele>34.41</ele>
<time>2015-04-25T14:48:05Z</time>
</trkpt>
<trkpt lat="35.0967302" lon="32.2911031">
<ele>34.30</ele>
<time>2015-04-25T14:48:07Z</time>
</trkpt>
<trkpt lat="35.0967525" lon="32.2910376">
<ele>34.77</ele>
<time>2015-04-25T14:48:09Z</time>
</trkpt>
<trkpt lat="35.0967816" lon="32.2909766">
<ele>35.64</ele>
<time>2015-04-25T14:48:11Z</time>
</trkpt>
<trkpt lat="35.0968174" lon="32.2909150">
<ele>35.10</ele>
<time>2015-04-25T14:48:13Z</time>
</trkpt>
<trkpt lat="35.0968600" lon="32.2908531">
<ele>35.47</ele>
<time>2015-04-25T14:48:15Z</time>
</trkpt>
<trkpt lat="35.0969135" lon="32.2907880">
<ele>34.56</ele>
<time>2015-04-25T14:48:17Z</time>
</trkpt>
<trkpt lat="35.0969527" lon="32.2907219">
<ele>34.08</ele>
<time>2015-04-25T14:48:19Z</time>
</trkpt>
<trkpt lat="35.0969646" lon="32.2906602">
<ele>34.71</ele>
<time>2015-04-25T14:48:21Z</time>
</trkpt>
<trkpt lat="35.0969633" lon="32.2906040">
<ele>35.65</ele>
<time>2015-04-25T14:48:24Z</time>
</trkpt>
<trkpt lat="35.0969638" lon="32.2905426">
<ele>35.72</ele>
<time>2015-04-25T14:48:28Z</time>
</trkpt>
<trkpt lat="35.0969807" lon="32.2904764">
<ele>35.91</ele>
<time>2015-04-25T14:48:32Z</time>
</trkpt>
<trkpt lat="35.0970135" lon="32.2904343">
<ele>35.17</ele>
<time>2015-04-25T14:48:35Z</time>
</trkpt>
<trkpt lat="35.0970547" lon="32.2903835">
<ele>33.08</ele>
<time>2015-04-25T14:48:38Z</time>
</trkpt>
<trkpt lat="35.0971140" lon="32.2903426">
<ele>32.19</ele>
<time>2015-04-25T14:48:41Z</time>
</trkpt>
<trkpt lat="35.0971658" lon="32.2903261">
<ele>31.99</ele>
<time>2015-04-25T14:48:43Z</time>
</trkpt>
<trkpt lat="35.0972258" lon="32.2903309">
<ele>32.19</ele>
<time>2015-04-25T14:48:45Z</time>
</trkpt>
<trkpt lat="35.0972780" lon="32.2903388">
<ele>31.99</ele>
<time>2015-04-25T14:48:47Z</time>
</trkpt>
<trkpt lat="35.0973300" lon="32.2903452">
<ele>31.19</ele>
<time>2015-04-25T14:48:49Z</time>
</trkpt>
<trkpt lat="35.0973819" lon="32.2903394">
<ele>30.99</ele>
<time>2015-04-25T14:48:51Z</time>
</trkpt>
<trkpt lat="35.0974362" lon="32.2903266">
<ele>30.19</ele>
<time>2015-04-25T14:48:53Z</time>
</trkpt>
<trkpt lat="35.0974910" lon="32.2903119">
<ele>29.74</ele>
<time>2015-04-25T14:48:55Z</time>
</trkpt>
<trkpt lat="35.0975447" lon="32.2902949">
<ele>30.88</ele>
<time>2015-04-25T14:48:57Z</time>
</trkpt>
<trkpt lat="35.0975903" lon="32.2902731">
<ele>31.16</ele>
<time>2015-04-25T14:48:59Z</time>
</trkpt>
<trkpt lat="35.0976253" lon="32.2902280">
<ele>31.48</ele>
<time>2015-04-25T14:49:01Z</time>
</trkpt>
<trkpt lat="35.0976621" lon="32.2901811">
<ele>32.56</ele>
<time>2015-04-25T14:49:03Z</time>
</trkpt>
<trkpt lat="35.0977050" lon="32.2901360">
<ele>33.33</ele>
<time>2015-04-25T14:49:05Z</time>
</trkpt>
<trkpt lat="35.0977326" lon="32.2900835">
<ele>33.78</ele>
<time>2015-04-25T14:49:07Z</time>
</trkpt>
<trkpt lat="35.0977580" lon="32.2900339">
<ele>33.14</ele>
<time>2015-04-25T14:49:09Z</time>
</trkpt>
<trkpt lat="35.0977880" lon="32.2899600">
<ele>32.95</ele>
<time>2015-04-25T14:49:12Z</time>
</trkpt>
<trkpt lat="35.0977867" lon="32.2898818">
<ele>33.43</ele>
<time>2015-04-25T14:49:15Z</time>
</trkpt>
<trkpt lat="35.0977911" lon="32.2898042">
<ele>33.36</ele>
<time>2015-04-25T14:49:18Z</time>
</trkpt>
<trkpt lat="35.0978238" lon="32.2897460">
<ele>33.48</ele>
<time>2015-04-25T14:49:21Z</time>
</trkpt>
<trkpt lat="35.0978682" lon="32.2897053">
<ele>33.37</ele>
<time>2015-04-25T14:49:24Z</time>
</trkpt>
<trkpt lat="35.0979100" lon="32.2896622">
<ele>33.86</ele>
<time>2015-04-25T14:49:27Z</time>
</trkpt>
<trkpt lat="35.0979506" lon="32.2896158">
<ele>33.17</ele>
<time>2015-04-25T14:49:30Z</time>
</trkpt>
<trkpt lat="35.0979989" lon="32.2895724">
<ele>33.21</ele>
<time>2015-04-25T14:49:33Z</time>
</trkpt>
<trkpt lat="35.0980625" lon="32.2895435">
<ele>32.96</ele>
<time>2015-04-25T14:49:36Z</time>
</trkpt>
<trkpt lat="35.0981075" lon="32.2895179">
<ele>32.93</ele>
<time>2015-04-25T14:49:38Z</time>
</trkpt>
<trkpt lat="35.0981543" lon="32.2894918">
<ele>31.68</ele>
<time>2015-04-25T14:49:40Z</time>
</trkpt>
<trkpt lat="35.0981975" lon="32.2894563">
<ele>32.61</ele>
<time>2015-04-25T14:49:42Z</time>
</trkpt>
<trkpt lat="35.0982262" lon="32.2894038">
<ele>33.60</ele>
<time>2015-04-25T14:49:44Z</time>
</trkpt>
<trkpt lat="35.0982361" lon="32.2893395">
<ele>33.84</ele>
<time>2015-04-25T14:49:46Z</time>
</trkpt>
<trkpt lat="35.0982324" lon="32.2892779">
<ele>33.65</ele>
<time>2015-04-25T14:49:48Z</time>
</trkpt>
<trkpt lat="35.0982265" lon="32.2892203">
<ele>34.36</ele>
<time>2015-04-25T14:49:50Z</time>
</trkpt>
<trkpt lat="35.0982265" lon="32.2891610">
<ele>34.03</ele>
<time>2015-04-25T14:49:52Z</time>
</trkpt>
<trkpt lat="35.0982279" lon="32.2890990">
<ele>35.45</ele>
<time>2015-04-25T14:49:54Z</time>
</trkpt>
<trkpt lat="35.0982293" lon="32.2890370">
<ele>35.31</ele>
<time>2015-04-25T14:49:56Z</time>
</trkpt>
<trkpt lat="35.0982291" lon="32.2889793">
<ele>35.02</ele>
<time>2015-04-25T14:49:58Z</time>
</trkpt>
<trkpt lat="35.0982755" lon="32.2889364">
<ele>35.81</ele>
<time>2015-04-25T14:50:01Z</time>
</trkpt>
<trkpt lat="35.0983149" lon="32.2889639">
<ele>35.04</ele>
<time>2015-04-25T14:50:04Z</time>
</trkpt>
<trkpt lat="35.0983629" lon="32.2889436">
<ele>34.93</ele>
<time>2015-04-25T14:50:08Z</time>
</trkpt>
<trkpt lat="35.0983575" lon="32.2888800">
<ele>34.05</ele>
<time>2015-04-25T14:50:11Z</time>
</trkpt>
<trkpt lat="35.0983388" lon="32.2888025">
<ele>33.94</ele>
<time>2015-04-25T14:50:14Z</time>
</trkpt>
<trkpt lat="35.0983147" lon="32.2887490">
<ele>33.93</ele>
<time>2015-04-25T14:50:16Z</time>
</trkpt>
<trkpt lat="35.0982992" lon="32.2886912">
<ele>33.93</ele>
<time>2015-04-25T14:50:18Z</time>
</trkpt>
<trkpt lat="35.0983179" lon="32.2886361">
<ele>33.93</ele>
<time>2015-04-25T14:50:20Z</time>
</trkpt>
<trkpt lat="35.0983588" lon="32.2885932">
<ele>33.93</ele>
<time>2015-04-25T14:50:22Z</time>
</trkpt>
<trkpt lat="35.0984029" lon="32.2885538">
<ele>34.43</ele>
<time>2015-04-25T14:50:24Z</time>
</trkpt>
<trkpt lat="35.0984460" lon="32.2885123">
<ele>34.05</ele>
<time>2015-04-25T14:50:26Z</time>
</trkpt>
<trkpt lat="35.0984891" lon="32.2884538">
<ele>33.96</ele>
<time>2015-04-25T14:50:28Z</time>
</trkpt>
<trkpt lat="35.0985421" lon="32.2883786">
<ele>33.68</ele>
<time>2015-04-25T14:50:30Z</time>
</trkpt>
<trkpt lat="35.0985742" lon="32.2883397">
<ele>33.30</ele>
<time>2015-04-25T14:50:31Z</time>
</trkpt>
<trkpt lat="35.0986339" lon="32.2882742">
<ele>33.11</ele>
<time>2015-04-25T14:50:32Z</time>
</trkpt>
<trkpt lat="35.0986644" lon="32.2882240">
<ele>32.52</ele>
<time>2015-04-25T14:50:33Z</time>
</trkpt>
<trkpt lat="35.0986874" lon="32.2881658">
<ele>32.72</ele>
<time>2015-04-25T14:50:34Z</time>
</trkpt>
<trkpt lat="35.0987075" lon="32.2881084">
<ele>32.82</ele>
<time>2015-04-25T14:50:35Z</time>
</trkpt>
<trkpt lat="35.0987335" lon="32.2880574">
<ele>32.87</ele>
<time>2015-04-25T14:50:36Z</time>
</trkpt>
<trkpt lat="35.0987599" lon="32.2880030">
<ele>32.40</ele>
<time>2015-04-25T14:50:37Z</time>
</trkpt>
<trkpt lat="35.0988349" lon="32.2879608">
<ele>31.54</ele>
<time>2015-04-25T14:50:39Z</time>
</trkpt>
<trkpt lat="35.0988837" lon="32.2879608">
<ele>30.33</ele>
<time>2015-04-25T14:50:41Z</time>
</trkpt>
<trkpt lat="35.0989413" lon="32.2879023">
<ele>31.28</ele>
<time>2015-04-25T14:50:43Z</time>
</trkpt>
<trkpt lat="35.0990026" lon="32.2878471">
<ele>32.26</ele>
<time>2015-04-25T14:50:45Z</time>
</trkpt>
<trkpt lat="35.0990733" lon="32.2878049">
<ele>33.76</ele>
<time>2015-04-25T14:50:47Z</time>
</trkpt>
<trkpt lat="35.0991429" lon="32.2877650">
<ele>34.63</ele>
<time>2015-04-25T14:50:49Z</time>
</trkpt>
<trkpt lat="35.0992080" lon="32.2877368">
<ele>35.60</ele>
<time>2015-04-25T14:50:51Z</time>
</trkpt>
<trkpt lat="35.0992755" lon="32.2877162">
<ele>34.59</ele>
<time>2015-04-25T14:50:53Z</time>
</trkpt>
<trkpt lat="35.0993338" lon="32.2877011">
<ele>34.09</ele>
<time>2015-04-25T14:50:55Z</time>
</trkpt>
<trkpt lat="35.0993857" lon="32.2877079">
<ele>33.97</ele>
<time>2015-04-25T14:50:57Z</time>
</trkpt>
<trkpt lat="35.0994272" lon="32.2876806">
<ele>33.94</ele>
<time>2015-04-25T14:50:59Z</time>
</trkpt>
<trkpt lat="35.0994625" lon="32.2876316">
<ele>34.43</ele>
<time>2015-04-25T14:51:01Z</time>
</trkpt>
<trkpt lat="35.0995052" lon="32.2875887">
<ele>34.80</ele>
<time>2015-04-25T14:51:03Z</time>
</trkpt>
<trkpt lat="35.0995596" lon="32.2875581">
<ele>34.89</ele>
<time>2015-04-25T14:51:05Z</time>
</trkpt>
<trkpt lat="35.0996198" lon="32.2875368">
<ele>34.42</ele>
<time>2015-04-25T14:51:07Z</time>
</trkpt>
<trkpt lat="35.0996914" lon="32.2875360">
<ele>33.30</ele>
<time>2015-04-25T14:51:09Z</time>
</trkpt>
<trkpt lat="35.0997751" lon="32.2875518">
<ele>32.52</ele>
<time>2015-04-25T14:51:11Z</time>
</trkpt>
<trkpt lat="35.0998613" lon="32.2875482">
<ele>31.57</ele>
<time>2015-04-25T14:51:13Z</time>
</trkpt>
<trkpt lat="35.0999605" lon="32.2875594">
<ele>31.09</ele>
<time>2015-04-25T14:51:15Z</time>
</trkpt>
<trkpt lat="35.1000072" lon="32.2875650">
<ele>31.01</ele>
<time>2015-04-25T14:51:16Z</time>
</trkpt>
<trkpt lat="35.1000519" lon="32.2875568">
<ele>30.97</ele>
<time>2015-04-25T14:51:17Z</time>
</trkpt>
<trkpt lat="35.1000981" lon="32.2875509">
<ele>30.45</ele>
<time>2015-04-25T14:51:18Z</time>
</trkpt>
<trkpt lat="35.1001440" lon="32.2875426">
<ele>29.69</ele>
<time>2015-04-25T14:51:19Z</time>
</trkpt>
<trkpt lat="35.1001844" lon="32.2875056">
<ele>29.31</ele>
<time>2015-04-25T14:51:20Z</time>
</trkpt>
<trkpt lat="35.1002569" lon="32.2874527">
<ele>29.02</ele>
<time>2015-04-25T14:51:22Z</time>
</trkpt>
<trkpt lat="35.1003268" lon="32.2874290">
<ele>29.70</ele>
<time>2015-04-25T14:51:24Z</time>
</trkpt>
<trkpt lat="35.1004079" lon="32.2873920">
<ele>30.37</ele>
<time>2015-04-25T14:51:26Z</time>
</trkpt>
<trkpt lat="35.1004805" lon="32.2873536">
<ele>30.04</ele>
<time>2015-04-25T14:51:28Z</time>
</trkpt>
<trkpt lat="35.1005398" lon="32.2873018">
<ele>29.95</ele>
<time>2015-04-25T14:51:30Z</time>
</trkpt>
<trkpt lat="35.1005908" lon="32.2872383">
<ele>30.43</ele>
<time>2015-04-25T14:51:32Z</time>
</trkpt>
<trkpt lat="35.1006241" lon="32.2871739">
<ele>30.80</ele>
<time>2015-04-25T14:51:34Z</time>
</trkpt>
<trkpt lat="35.1006390" lon="32.2871081">
<ele>30.89</ele>
<time>2015-04-25T14:51:36Z</time>
</trkpt>
<trkpt lat="35.1006463" lon="32.2870538">
<ele>30.67</ele>
<time>2015-04-25T14:51:38Z</time>
</trkpt>
<trkpt lat="35.1006464" lon="32.2869910">
<ele>30.86</ele>
<time>2015-04-25T14:51:40Z</time>
</trkpt>
<trkpt lat="35.1006500" lon="32.2869307">
<ele>30.91</ele>
<time>2015-04-25T14:51:42Z</time>
</trkpt>
<trkpt lat="35.1006590" lon="32.2868548">
<ele>30.92</ele>
<time>2015-04-25T14:51:45Z</time>
</trkpt>
<trkpt lat="35.1006733" lon="32.2867843">
<ele>31.05</ele>
<time>2015-04-25T14:51:48Z</time>
</trkpt>
<trkpt lat="35.1007213" lon="32.2867349">
<ele>31.82</ele>
<time>2015-04-25T14:51:51Z</time>
</trkpt>
<trkpt lat="35.1007687" lon="32.2867043">
<ele>32.65</ele>
<time>2015-04-25T14:51:53Z</time>
</trkpt>
<trkpt lat="35.1008236" lon="32.2866848">
<ele>32.36</ele>
<time>2015-04-25T14:51:55Z</time>
</trkpt>
<trkpt lat="35.1008854" lon="32.2866787">
<ele>32.03</ele>
<time>2015-04-25T14:51:57Z</time>
</trkpt>
<trkpt lat="35.1009488" lon="32.2866640">
<ele>31.45</ele>
<time>2015-04-25T14:51:59Z</time>
</trkpt>
<trkpt lat="35.1010015" lon="32.2866313">
<ele>31.31</ele>
<time>2015-04-25T14:52:01Z</time>
</trkpt>
<trkpt lat="35.1010456" lon="32.2866009">
<ele>31.02</ele>
<time>2015-04-25T14:52:03Z</time>
</trkpt>
<trkpt lat="35.1010833" lon="32.2865634">
<ele>31.45</ele>
<time>2015-04-25T14:52:05Z</time>
</trkpt>
<trkpt lat="35.1011067" lon="32.2865116">
<ele>30.99</ele>
<time>2015-04-25T14:52:08Z</time>
</trkpt>
<trkpt lat="35.1010488" lon="32.2864948">
<ele>32.37</ele>
<time>2015-04-25T14:52:12Z</time>
</trkpt>
<trkpt lat="35.1010301" lon="32.2865623">
<ele>32.36</ele>
<time>2015-04-25T14:52:15Z</time>
</trkpt>
<trkpt lat="35.1010701" lon="32.2866063">
<ele>31.73</ele>
<time>2015-04-25T14:52:18Z</time>
</trkpt>
<trkpt lat="35.1011157" lon="32.2865802">
<ele>31.90</ele>
<time>2015-04-25T14:52:21Z</time>
</trkpt>
<trkpt lat="35.1011531" lon="32.2865228">
<ele>32.86</ele>
<time>2015-04-25T14:52:25Z</time>
</trkpt>
<trkpt lat="35.1011903" lon="32.2864767">
<ele>32.92</ele>
<time>2015-04-25T14:52:28Z</time>
</trkpt>
<trkpt lat="35.1012276" lon="32.2864208">
<ele>32.05</ele>
<time>2015-04-25T14:52:31Z</time>
</trkpt>
<trkpt lat="35.1012607" lon="32.2863537">
<ele>32.32</ele>
<time>2015-04-25T14:52:34Z</time>
</trkpt>
<trkpt lat="35.1012810" lon="32.2863043">
<ele>33.27</ele>
<time>2015-04-25T14:52:36Z</time>
</trkpt>
<trkpt lat="35.1013002" lon="32.2862498">
<ele>32.51</ele>
<time>2015-04-25T14:52:38Z</time>
</trkpt>
<trkpt lat="35.1013344" lon="32.2861874">
<ele>32.00</ele>
<time>2015-04-25T14:52:41Z</time>
</trkpt>
<trkpt lat="35.1013648" lon="32.2861468">
<ele>32.44</ele>
<time>2015-04-25T14:52:43Z</time>
</trkpt>
<trkpt lat="35.1013996" lon="32.2861118">
<ele>32.05</ele>
<time>2015-04-25T14:52:45Z</time>
</trkpt>
<trkpt lat="35.1014486" lon="32.2860535">
<ele>31.44</ele>
<time>2015-04-25T14:52:48Z</time>
</trkpt>
<trkpt lat="35.1014746" lon="32.2859870">
<ele>30.30</ele>
<time>2015-04-25T14:52:50Z</time>
</trkpt>
<trkpt lat="35.1014915" lon="32.2858971">
<ele>30.02</ele>
<time>2015-04-25T14:52:52Z</time>
</trkpt>
<trkpt lat="35.1015040" lon="32.2858108">
<ele>29.45</ele>
<time>2015-04-25T14:52:54Z</time>
</trkpt>
<trkpt lat="35.1015286" lon="32.2857368">
<ele>28.31</ele>
<time>2015-04-25T14:52:56Z</time>
</trkpt>
<trkpt lat="35.1015601" lon="32.2856955">
<ele>28.02</ele>
<time>2015-04-25T14:52:58Z</time>
</trkpt>
<trkpt lat="35.1016089" lon="32.2857067">
<ele>28.31</ele>
<time>2015-04-25T14:53:01Z</time>
</trkpt>
<trkpt lat="35.1016661" lon="32.2856756">
<ele>29.02</ele>
<time>2015-04-25T14:53:53Z</time>
</trkpt>
<trkpt lat="35.1017128" lon="32.2856403">
<ele>27.70</ele>
<time>2015-04-25T14:53:55Z</time>
</trkpt>
<trkpt lat="35.1017748" lon="32.2855920">
<ele>26.87</ele>
<time>2015-04-25T14:53:57Z</time>
</trkpt>
<trkpt lat="35.1018414" lon="32.2855390">
<ele>27.66</ele>
<time>2015-04-25T14:53:59Z</time>
</trkpt>
<trkpt lat="35.1019137" lon="32.2854953">
<ele>27.36</ele>
<time>2015-04-25T14:54:01Z</time>
</trkpt>
<trkpt lat="35.1019890" lon="32.2854676">
<ele>26.28</ele>
<time>2015-04-25T14:54:03Z</time>
</trkpt>
<trkpt lat="35.1020560" lon="32.2854077">
<ele>25.51</ele>
<time>2015-04-25T14:54:05Z</time>
</trkpt>
<trkpt lat="35.1020912" lon="32.2853141">
<ele>24.57</ele>
<time>2015-04-25T14:54:07Z</time>
</trkpt>
<trkpt lat="35.1021012" lon="32.2852105">
<ele>24.59</ele>
<time>2015-04-25T14:54:09Z</time>
</trkpt>
<trkpt lat="35.1020978" lon="32.2851134">
<ele>24.84</ele>
<time>2015-04-25T14:54:11Z</time>
</trkpt>
<trkpt lat="35.1021083" lon="32.2850178">
<ele>25.40</ele>
<time>2015-04-25T14:54:13Z</time>
</trkpt>
<trkpt lat="35.1021292" lon="32.2849331">
<ele>24.54</ele>
<time>2015-04-25T14:54:15Z</time>
</trkpt>
<trkpt lat="35.1021421" lon="32.2848486">
<ele>24.58</ele>
<time>2015-04-25T14:54:17Z</time>
</trkpt>
<trkpt lat="35.1021394" lon="32.2847693">
<ele>24.84</ele>
<time>2015-04-25T14:54:19Z</time>
</trkpt>
<trkpt lat="35.1021327" lon="32.2846899">
<ele>24.90</ele>
<time>2015-04-25T14:54:21Z</time>
</trkpt>
<trkpt lat="35.1021488" lon="32.2846294">
<ele>24.42</ele>
<time>2015-04-25T14:54:23Z</time>
</trkpt>
<trkpt lat="35.1021830" lon="32.2845903">
<ele>23.99</ele>
<time>2015-04-25T14:54:26Z</time>
</trkpt>
<trkpt lat="35.1022252" lon="32.2845380">
<ele>23.93</ele>
<time>2015-04-25T14:54:29Z</time>
</trkpt>
<trkpt lat="35.1022721" lon="32.2844826">
<ele>23.05</ele>
<time>2015-04-25T14:54:32Z</time>
</trkpt>
<trkpt lat="35.1023105" lon="32.2844417">
<ele>22.96</ele>
<time>2015-04-25T14:54:34Z</time>
</trkpt>
<trkpt lat="35.1023535" lon="32.2843968">
<ele>22.43</ele>
<time>2015-04-25T14:54:36Z</time>
</trkpt>
<trkpt lat="35.1024000" lon="32.2843499">
<ele>22.80</ele>
<time>2015-04-25T14:54:38Z</time>
</trkpt>
<trkpt lat="35.1024448" lon="32.2842985">
<ele>22.64</ele>
<time>2015-04-25T14:54:40Z</time>
</trkpt>
<trkpt lat="35.1024768" lon="32.2842352">
<ele>22.10</ele>
<time>2015-04-25T14:54:42Z</time>
</trkpt>
<trkpt lat="35.1024991" lon="32.2841618">
<ele>21.22</ele>
<time>2015-04-25T14:54:44Z</time>
</trkpt>
<trkpt lat="35.1025285" lon="32.2840886">
<ele>21.00</ele>
<time>2015-04-25T14:54:46Z</time>
</trkpt>
<trkpt lat="35.1025686" lon="32.2840292">
<ele>21.69</ele>
<time>2015-04-25T14:54:48Z</time>
</trkpt>
<trkpt lat="35.1026094" lon="32.2839771">
<ele>21.12</ele>
<time>2015-04-25T14:54:50Z</time>
</trkpt>
<trkpt lat="35.1026569" lon="32.2839346">
<ele>20.22</ele>
<time>2015-04-25T14:54:52Z</time>
</trkpt>
<trkpt lat="35.1027085" lon="32.2838952">
<ele>20.00</ele>
<time>2015-04-25T14:54:54Z</time>
</trkpt>
<trkpt lat="35.1027637" lon="32.2838580">
<ele>19.94</ele>
<time>2015-04-25T14:54:56Z</time>
</trkpt>
<trkpt lat="35.1028238" lon="32.2838222">
<ele>19.68</ele>
<time>2015-04-25T14:54:58Z</time>
</trkpt>
<trkpt lat="35.1028839" lon="32.2837785">
<ele>19.61</ele>
<time>2015-04-25T14:55:00Z</time>
</trkpt>
<trkpt lat="35.1029395" lon="32.2837322">
<ele>19.85</ele>
<time>2015-04-25T14:55:02Z</time>
</trkpt>
<trkpt lat="35.1029904" lon="32.2836835">
<ele>19.91</ele>
<time>2015-04-25T14:55:04Z</time>
</trkpt>
<trkpt lat="35.1030413" lon="32.2836437">
<ele>19.92</ele>
<time>2015-04-25T14:55:06Z</time>
</trkpt>
<trkpt lat="35.1030921" lon="32.2836204">
<ele>19.42</ele>
<time>2015-04-25T14:55:08Z</time>
</trkpt>
<trkpt lat="35.1031464" lon="32.2835952">
<ele>19.11</ele>
<time>2015-04-25T14:55:11Z</time>
</trkpt>
<trkpt lat="35.1031934" lon="32.2835873">
<ele>18.45</ele>
<time>2015-04-25T14:55:14Z</time>
</trkpt>
<trkpt lat="35.1032401" lon="32.2835820">
<ele>18.24</ele>
<time>2015-04-25T14:55:17Z</time>
</trkpt>
<trkpt lat="35.1032983" lon="32.2835690">
<ele>17.94</ele>
<time>2015-04-25T14:55:21Z</time>
</trkpt>
<trkpt lat="35.1033423" lon="32.2835545">
<ele>17.43</ele>
<time>2015-04-25T14:55:24Z</time>
</trkpt>
<trkpt lat="35.1033914" lon="32.2835165">
<ele>17.83</ele>
<time>2015-04-25T14:55:28Z</time>
</trkpt>
<trkpt lat="35.1034426" lon="32.2834817">
<ele>18.17</ele>
<time>2015-04-25T14:55:32Z</time>
</trkpt>
<trkpt lat="35.1034902" lon="32.2834442">
<ele>17.44</ele>
<time>2015-04-25T14:55:36Z</time>
</trkpt>
<trkpt lat="35.1035399" lon="32.2834311">
<ele>16.61</ele>
<time>2015-04-25T14:55:39Z</time>
</trkpt>
<trkpt lat="35.1035901" lon="32.2834381">
<ele>16.89</ele>
<time>2015-04-25T14:55:42Z</time>
</trkpt>
<trkpt lat="35.1036397" lon="32.2834632">
<ele>16.92</ele>
<time>2015-04-25T14:55:46Z</time>
</trkpt>
<trkpt lat="35.1036451" lon="32.2835262">
<ele>15.67</ele>
<time>2015-04-25T14:55:50Z</time>
</trkpt>
<trkpt lat="35.1036466" lon="32.2836026">
<ele>15.72</ele>
<time>2015-04-25T14:55:54Z</time>
</trkpt>
<trkpt lat="35.1036611" lon="32.2836791">
<ele>16.77</ele>
<time>2015-04-25T14:55:57Z</time>
</trkpt>
<trkpt lat="35.1036724" lon="32.2837326">
<ele>16.89</ele>
<time>2015-04-25T14:55:59Z</time>
</trkpt>
<trkpt lat="35.1036857" lon="32.2837861">
<ele>16.17</ele>
<time>2015-04-25T14:56:01Z</time>
</trkpt>
<trkpt lat="35.1037218" lon="32.2838296">
<ele>15.99</ele>
<time>2015-04-25T14:56:03Z</time>
</trkpt>
<trkpt lat="35.1037837" lon="32.2838517">
<ele>15.69</ele>
<time>2015-04-25T14:56:05Z</time>
</trkpt>
<trkpt lat="35.1038488" lon="32.2838551">
<ele>15.87</ele>
<time>2015-04-25T14:56:07Z</time>
</trkpt>
<trkpt lat="35.1039196" lon="32.2838677">
<ele>15.91</ele>
<time>2015-04-25T14:56:09Z</time>
</trkpt>
<trkpt lat="35.1039902" lon="32.2838922">
<ele>16.42</ele>
<time>2015-04-25T14:56:11Z</time>
</trkpt>
<trkpt lat="35.1040611" lon="32.2839241">
<ele>16.80</ele>
<time>2015-04-25T14:56:13Z</time>
</trkpt>
<trkpt lat="35.1041304" lon="32.2839410">
<ele>16.39</ele>
<time>2015-04-25T14:56:15Z</time>
</trkpt>
<trkpt lat="35.1041985" lon="32.2839466">
<ele>16.04</ele>
<time>2015-04-25T14:56:17Z</time>
</trkpt>
<trkpt lat="35.1042610" lon="32.2839639">
<ele>15.95</ele>
<time>2015-04-25T14:56:19Z</time>
</trkpt>
<trkpt lat="35.1043211" lon="32.2839997">
<ele>15.93</ele>
<time>2015-04-25T14:56:21Z</time>
</trkpt>
<trkpt lat="35.1043725" lon="32.2840412">
<ele>15.93</ele>
<time>2015-04-25T14:56:23Z</time>
</trkpt>
<trkpt lat="35.1044158" lon="32.2840849">
<ele>15.93</ele>
<time>2015-04-25T14:56:25Z</time>
</trkpt>
<trkpt lat="35.1044526" lon="32.2841332">
<ele>15.43</ele>
<time>2015-04-25T14:56:27Z</time>
</trkpt>
<trkpt lat="35.1044897" lon="32.2841850">
<ele>15.80</ele>
<time>2015-04-25T14:56:29Z</time>
</trkpt>
<trkpt lat="35.1045213" lon="32.2842346">
<ele>16.39</ele>
<time>2015-04-25T14:56:31Z</time>
</trkpt>
<trkpt lat="35.1045525" lon="32.2842826">
<ele>16.79</ele>
<time>2015-04-25T14:56:33Z</time>
</trkpt>
<trkpt lat="35.1045896" lon="32.2843527">
<ele>16.41</ele>
<time>2015-04-25T14:56:36Z</time>
</trkpt>
<trkpt lat="35.1046316" lon="32.2844125">
<ele>15.49</ele>
<time>2015-04-25T14:56:39Z</time>
</trkpt>
<trkpt lat="35.1046565" lon="32.2844617">
<ele>15.00</ele>
<time>2015-04-25T14:56:42Z</time>
</trkpt>
<trkpt lat="35.1046900" lon="32.2845057">
<ele>15.87</ele>
<time>2015-04-25T14:56:46Z</time>
</trkpt>
<trkpt lat="35.1047343" lon="32.2845528">
<ele>17.17</ele>
<time>2015-04-25T14:56:50Z</time>
</trkpt>
<trkpt lat="35.1047758" lon="32.2846058">
<ele>16.94</ele>
<time>2015-04-25T14:56:54Z</time>
</trkpt>
<trkpt lat="35.1047972" lon="32.2846656">
<ele>17.43</ele>
<time>2015-04-25T14:56:58Z</time>
</trkpt>
<trkpt lat="35.1048166" lon="32.2847221">
<ele>17.89</ele>
<time>2015-04-25T14:57:02Z</time>
</trkpt>
<trkpt lat="35.1048113" lon="32.2847815">
<ele>17.67</ele>
<time>2015-04-25T14:57:06Z</time>
</trkpt>
<trkpt lat="35.1048275" lon="32.2848349">
<ele>16.97</ele>
<time>2015-04-25T14:57:10Z</time>
</trkpt>
<trkpt lat="35.1048683" lon="32.2848828">
<ele>16.12</ele>
<time>2015-04-25T14:57:14Z</time>
</trkpt>
<trkpt lat="35.1049171" lon="32.2849122">
<ele>15.95</ele>
<time>2015-04-25T14:57:17Z</time>
</trkpt>
<trkpt lat="35.1049797" lon="32.2849206">
<ele>15.18</ele>
<time>2015-04-25T14:57:20Z</time>
</trkpt>
<trkpt lat="35.1050342" lon="32.2849445">
<ele>14.96</ele>
<time>2015-04-25T14:57:23Z</time>
</trkpt>
<trkpt lat="35.1050681" lon="32.2849914">
<ele>14.93</ele>
<time>2015-04-25T14:57:26Z</time>
</trkpt>
<trkpt lat="35.1050724" lon="32.2850470">
<ele>14.68</ele>
<time>2015-04-25T14:57:29Z</time>
</trkpt>
<trkpt lat="35.1050720" lon="32.2851027">
<ele>14.89</ele>
<time>2015-04-25T14:57:32Z</time>
</trkpt>
<trkpt lat="35.1050585" lon="32.2851680">
<ele>14.92</ele>
<time>2015-04-25T14:57:36Z</time>
</trkpt>
<trkpt lat="35.1050387" lon="32.2852332">
<ele>13.99</ele>
<time>2015-04-25T14:57:40Z</time>
</trkpt>
<trkpt lat="35.1050121" lon="32.2852863">
<ele>14.81</ele>
<time>2015-04-25T14:57:43Z</time>
</trkpt>
<trkpt lat="35.1049825" lon="32.2853411">
<ele>14.91</ele>
<time>2015-04-25T14:57:46Z</time>
</trkpt>
<trkpt lat="35.1049535" lon="32.2853958">
<ele>14.17</ele>
<time>2015-04-25T14:57:49Z</time>
</trkpt>
<trkpt lat="35.1049328" lon="32.2854513">
<ele>14.21</ele>
<time>2015-04-25T14:57:52Z</time>
</trkpt>
<trkpt lat="35.1049228" lon="32.2855146">
<ele>12.34</ele>
<time>2015-04-25T14:57:55Z</time>
</trkpt>
<trkpt lat="35.1049040" lon="32.2855809">
<ele>12.85</ele>
<time>2015-04-25T14:57:58Z</time>
</trkpt>
<trkpt lat="35.1048960" lon="32.2856495">
<ele>13.79</ele>
<time>2015-04-25T14:58:01Z</time>
</trkpt>
<trkpt lat="35.1048886" lon="32.2857074">
<ele>13.91</ele>
<time>2015-04-25T14:58:04Z</time>
</trkpt>
<trkpt lat="35.1048797" lon="32.2857630">
<ele>13.92</ele>
<time>2015-04-25T14:58:07Z</time>
</trkpt>
<trkpt lat="35.1048672" lon="32.2858294">
<ele>13.67</ele>
<time>2015-04-25T14:58:10Z</time>
</trkpt>
<trkpt lat="35.1048496" lon="32.2858957">
<ele>14.77</ele>
<time>2015-04-25T14:58:13Z</time>
</trkpt>
<trkpt lat="35.1048376" lon="32.2859571">
<ele>15.78</ele>
<time>2015-04-25T14:58:16Z</time>
</trkpt>
<trkpt lat="35.1048179" lon="32.2860100">
<ele>16.41</ele>
<time>2015-04-25T14:58:19Z</time>
</trkpt>
<trkpt lat="35.1048007" lon="32.2860688">
<ele>15.99</ele>
<time>2015-04-25T14:58:22Z</time>
</trkpt>
<trkpt lat="35.1047888" lon="32.2861399">
<ele>15.93</ele>
<time>2015-04-25T14:58:25Z</time>
</trkpt>
<trkpt lat="35.1047763" lon="32.2862121">
<ele>15.18</ele>
<time>2015-04-25T14:58:28Z</time>
</trkpt>
<trkpt lat="35.1047615" lon="32.2862823">
<ele>14.96</ele>
<time>2015-04-25T14:58:31Z</time>
</trkpt>
<trkpt lat="35.1047471" lon="32.2863479">
<ele>15.05</ele>
<time>2015-04-25T14:58:34Z</time>
</trkpt>
<trkpt lat="35.1047440" lon="32.2864076">
<ele>15.44</ele>
<time>2015-04-25T14:58:37Z</time>
</trkpt>
<trkpt lat="35.1047492" lon="32.2864652">
<ele>15.36</ele>
<time>2015-04-25T14:58:40Z</time>
</trkpt>
<trkpt lat="35.1047534" lon="32.2865322">
<ele>15.73</ele>
<time>2015-04-25T14:58:43Z</time>
</trkpt>
<trkpt lat="35.1047662" lon="32.2866078">
<ele>14.53</ele>
<time>2015-04-25T14:58:46Z</time>
</trkpt>
<trkpt lat="35.1047793" lon="32.2866776">
<ele>14.00</ele>
<time>2015-04-25T14:58:49Z</time>
</trkpt>
<trkpt lat="35.1047973" lon="32.2867464">
<ele>13.93</ele>
<time>2015-04-25T14:58:52Z</time>
</trkpt>
<trkpt lat="35.1048110" lon="32.2868228">
<ele>13.93</ele>
<time>2015-04-25T14:58:55Z</time>
</trkpt>
<trkpt lat="35.1048321" lon="32.2868988">
<ele>13.93</ele>
<time>2015-04-25T14:58:58Z</time>
</trkpt>
<trkpt lat="35.1048528" lon="32.2869726">
<ele>13.93</ele>
<time>2015-04-25T14:59:01Z</time>
</trkpt>
<trkpt lat="35.1048666" lon="32.2870403">
<ele>13.05</ele>
<time>2015-04-25T14:59:04Z</time>
</trkpt>
<trkpt lat="35.1048814" lon="32.2871030">
<ele>13.18</ele>
<time>2015-04-25T14:59:08Z</time>
</trkpt>
<trkpt lat="35.1049285" lon="32.2871227">
<ele>14.64</ele>
<time>2015-04-25T14:59:18Z</time>
</trkpt>
<trkpt lat="35.1049688" lon="32.2871634">
<ele>14.91</ele>
<time>2015-04-25T14:59:22Z</time>
</trkpt>
<trkpt lat="35.1049668" lon="32.2872222">
<ele>15.89</ele>
<time>2015-04-25T15:07:42Z</time>
</trkpt>
<trkpt lat="35.1049355" lon="32.2872685">
<ele>16.42</ele>
<time>2015-04-25T15:07:48Z</time>
</trkpt>
<trkpt lat="35.1049027" lon="32.2873145">
<ele>17.66</ele>
<time>2015-04-25T15:07:53Z</time>
</trkpt>
<trkpt lat="35.1048757" lon="32.2873625">
<ele>18.89</ele>
<time>2015-04-25T15:07:58Z</time>
</trkpt>
<trkpt lat="35.1048549" lon="32.2874148">
<ele>18.82</ele>
<time>2015-04-25T15:08:04Z</time>
</trkpt>
<trkpt lat="35.1048319" lon="32.2874713">
<ele>18.99</ele>
<time>2015-04-25T15:08:10Z</time>
</trkpt>
<trkpt lat="35.1047947" lon="32.2875100">
<ele>19.06</ele>
<time>2015-04-25T15:08:44Z</time>
</trkpt>
<trkpt lat="35.1047653" lon="32.2875552">
<ele>18.69</ele>
<time>2015-04-25T15:08:51Z</time>
</trkpt>
<trkpt lat="35.1047871" lon="32.2875000">
<ele>17.89</ele>
<time>2015-04-25T15:13:44Z</time>
</trkpt>
<trkpt lat="35.1048313" lon="32.2875274">
<ele>18.81</ele>
<time>2015-04-25T15:13:52Z</time>
</trkpt>
<trkpt lat="35.1048791" lon="32.2875196">
<ele>19.24</ele>
<time>2015-04-25T15:13:58Z</time>
</trkpt>
<trkpt lat="35.1048409" lon="32.2874886">
<ele>16.18</ele>
<time>2015-04-25T15:22:55Z</time>
</trkpt>
<trkpt lat="35.1048201" lon="32.2874356">
<ele>15.55</ele>
<time>2015-04-25T15:23:01Z</time>
</trkpt>
<trkpt lat="35.1047759" lon="32.2874192">
<ele>16.51</ele>
<time>2015-04-25T15:23:06Z</time>
</trkpt>
<trkpt lat="35.1047412" lon="32.2873767">
<ele>14.95</ele>
<time>2015-04-25T15:23:15Z</time>
</trkpt>
<trkpt lat="35.1047065" lon="32.2873338">
<ele>15.44</ele>
<time>2015-04-25T15:23:26Z</time>
</trkpt>
<trkpt lat="35.1046594" lon="32.2873056">
<ele>15.46</ele>
<time>2015-04-25T15:23:32Z</time>
</trkpt>
<trkpt lat="35.1046096" lon="32.2872816">
<ele>11.36</ele>
<time>2015-04-25T15:23:57Z</time>
</trkpt>
<trkpt lat="35.1045497" lon="32.2872588">
<ele>10.23</ele>
<time>2015-04-25T15:24:00Z</time>
</trkpt>
<trkpt lat="35.1044872" lon="32.2872487">
<ele>10.84</ele>
<time>2015-04-25T15:24:03Z</time>
</trkpt>
<trkpt lat="35.1044367" lon="32.2872440">
<ele>11.41</ele>
<time>2015-04-25T15:24:06Z</time>
</trkpt>
<trkpt lat="35.1043895" lon="32.2872474">
<ele>13.24</ele>
<time>2015-04-25T15:24:09Z</time>
</trkpt>
<trkpt lat="35.1043370" lon="32.2872533">
<ele>12.96</ele>
<time>2015-04-25T15:24:12Z</time>
</trkpt>
<trkpt lat="35.1042800" lon="32.2872663">
<ele>11.30</ele>
<time>2015-04-25T15:24:15Z</time>
</trkpt>
<trkpt lat="35.1042179" lon="32.2872831">
<ele>11.85</ele>
<time>2015-04-25T15:24:18Z</time>
</trkpt>
<trkpt lat="35.1041524" lon="32.2872935">
<ele>11.92</ele>
<time>2015-04-25T15:24:21Z</time>
</trkpt>
<trkpt lat="35.1041064" lon="32.2872908">
<ele>11.92</ele>
<time>2015-04-25T15:24:23Z</time>
</trkpt>
<trkpt lat="35.1040603" lon="32.2872868">
<ele>11.92</ele>
<time>2015-04-25T15:24:25Z</time>
</trkpt>
<trkpt lat="35.1040144" lon="32.2872859">
<ele>11.92</ele>
<time>2015-04-25T15:24:27Z</time>
</trkpt>
<trkpt lat="35.1039657" lon="32.2872884">
<ele>12.42</ele>
<time>2015-04-25T15:24:29Z</time>
</trkpt>
<trkpt lat="35.1039236" lon="32.2873090">
<ele>12.80</ele>
<time>2015-04-25T15:24:31Z</time>
</trkpt>
<trkpt lat="35.1038830" lon="32.2873384">
<ele>12.39</ele>
<time>2015-04-25T15:24:33Z</time>
</trkpt>
<trkpt lat="35.1038435" lon="32.2873667">
<ele>12.54</ele>
<time>2015-04-25T15:24:35Z</time>
</trkpt>
<trkpt lat="35.1038017" lon="32.2873905">
<ele>12.08</ele>
<time>2015-04-25T15:24:37Z</time>
</trkpt>
<trkpt lat="35.1037574" lon="32.2874110">
<ele>12.71</ele>
<time>2015-04-25T15:24:39Z</time>
</trkpt>
<trkpt lat="35.1037088" lon="32.2874249">
<ele>12.87</ele>
<time>2015-04-25T15:24:41Z</time>
</trkpt>
<trkpt lat="35.1036441" lon="32.2874362">
<ele>13.29</ele>
<time>2015-04-25T15:24:44Z</time>
</trkpt>
<trkpt lat="35.1035796" lon="32.2874549">
<ele>12.97</ele>
<time>2015-04-25T15:24:47Z</time>
</trkpt>
<trkpt lat="35.1035162" lon="32.2874724">
<ele>13.06</ele>
<time>2015-04-25T15:24:50Z</time>
</trkpt>
<trkpt lat="35.1034621" lon="32.2874958">
<ele>12.19</ele>
<time>2015-04-25T15:24:53Z</time>
</trkpt>
<trkpt lat="35.1034138" lon="32.2875158">
<ele>11.96</ele>
<time>2015-04-25T15:24:56Z</time>
</trkpt>
<trkpt lat="35.1033657" lon="32.2875175">
<ele>11.74</ele>
<time>2015-04-25T15:25:09Z</time>
</trkpt>
<trkpt lat="35.1033189" lon="32.2875122">
<ele>12.03</ele>
<time>2015-04-25T15:25:12Z</time>
</trkpt>
<trkpt lat="35.1032683" lon="32.2875148">
<ele>11.56</ele>
<time>2015-04-25T15:25:15Z</time>
</trkpt>
<trkpt lat="35.1032233" lon="32.2875264">
<ele>11.88</ele>
<time>2015-04-25T15:25:18Z</time>
</trkpt>
<trkpt lat="35.1031819" lon="32.2875645">
<ele>11.17</ele>
<time>2015-04-25T15:25:22Z</time>
</trkpt>
<trkpt lat="35.1031631" lon="32.2876169">
<ele>11.00</ele>
<time>2015-04-25T15:25:26Z</time>
</trkpt>
<trkpt lat="35.1031526" lon="32.2876736">
<ele>9.69</ele>
<time>2015-04-25T15:25:45Z</time>
</trkpt>
<trkpt lat="35.1031135" lon="32.2877140">
<ele>7.98</ele>
<time>2015-04-25T15:25:50Z</time>
</trkpt>
<trkpt lat="35.1030544" lon="32.2877155">
<ele>7.62</ele>
<time>2015-04-25T15:25:54Z</time>
</trkpt>
<trkpt lat="35.1029970" lon="32.2877059">
<ele>7.01</ele>
<time>2015-04-25T15:25:57Z</time>
</trkpt>
<trkpt lat="35.1029405" lon="32.2877085">
<ele>6.94</ele>
<time>2015-04-25T15:26:00Z</time>
</trkpt>
<trkpt lat="35.1028832" lon="32.2877135">
<ele>5.55</ele>
<time>2015-04-25T15:26:03Z</time>
</trkpt>
<trkpt lat="35.1028259" lon="32.2877063">
<ele>6.25</ele>
<time>2015-04-25T15:26:06Z</time>
</trkpt>
<trkpt lat="35.1027779" lon="32.2876867">
<ele>6.84</ele>
<time>2015-04-25T15:26:09Z</time>
</trkpt>
<trkpt lat="35.1027299" lon="32.2876726">
<ele>6.16</ele>
<time>2015-04-25T15:26:12Z</time>
</trkpt>
<trkpt lat="35.1026868" lon="32.2876554">
<ele>6.33</ele>
<time>2015-04-25T15:26:15Z</time>
</trkpt>
<trkpt lat="35.1026483" lon="32.2876249">
<ele>6.48</ele>
<time>2015-04-25T15:26:18Z</time>
</trkpt>
<trkpt lat="35.1025950" lon="32.2876218">
<ele>7.65</ele>
<time>2015-04-25T15:26:22Z</time>
</trkpt>
<trkpt lat="35.1025704" lon="32.2876792">
<ele>7.97</ele>
<time>2015-04-25T15:26:26Z</time>
</trkpt>
<trkpt lat="35.1025394" lon="32.2877386">
<ele>8.62</ele>
<time>2015-04-25T15:26:30Z</time>
</trkpt>
<trkpt lat="35.1025010" lon="32.2877889">
<ele>10.59</ele>
<time>2015-04-25T15:26:34Z</time>
</trkpt>
<trkpt lat="35.1024730" lon="32.2878476">
<ele>11.03</ele>
<time>2015-04-25T15:26:38Z</time>
</trkpt>
<trkpt lat="35.1024586" lon="32.2879031">
<ele>11.81</ele>
<time>2015-04-25T15:26:41Z</time>
</trkpt>
<trkpt lat="35.1024664" lon="32.2879669">
<ele>12.79</ele>
<time>2015-04-25T15:26:44Z</time>
</trkpt>
<trkpt lat="35.1024718" lon="32.2880305">
<ele>12.53</ele>
<time>2015-04-25T15:26:47Z</time>
</trkpt>
<trkpt lat="35.1024878" lon="32.2880888">
<ele>13.63</ele>
<time>2015-04-25T15:26:50Z</time>
</trkpt>
<trkpt lat="35.1024998" lon="32.2881420">
<ele>13.89</ele>
<time>2015-04-25T15:26:53Z</time>
</trkpt>
<trkpt lat="35.1024678" lon="32.2881922">
<ele>14.89</ele>
<time>2015-04-25T15:27:03Z</time>
</trkpt>
<trkpt lat="35.1024340" lon="32.2882440">
<ele>15.96</ele>
<time>2015-04-25T15:27:08Z</time>
</trkpt>
<trkpt lat="35.1023949" lon="32.2882792">
<ele>17.39</ele>
<time>2015-04-25T15:27:14Z</time>
</trkpt>
<trkpt lat="35.1024019" lon="32.2883408">
<ele>16.67</ele>
<time>2015-04-25T15:27:28Z</time>
</trkpt>
<trkpt lat="35.1024325" lon="32.2883884">
<ele>16.89</ele>
<time>2015-04-25T15:27:31Z</time>
</trkpt>
<trkpt lat="35.1024582" lon="32.2884421">
<ele>17.67</ele>
<time>2015-04-25T15:27:34Z</time>
</trkpt>
<trkpt lat="35.1024607" lon="32.2884990">
<ele>17.77</ele>
<time>2015-04-25T15:27:37Z</time>
</trkpt>
<trkpt lat="35.1024644" lon="32.2885568">
<ele>17.03</ele>
<time>2015-04-25T15:27:40Z</time>
</trkpt>
<trkpt lat="35.1024529" lon="32.2886229">
<ele>16.06</ele>
<time>2015-04-25T15:27:44Z</time>
</trkpt>
<trkpt lat="35.1024493" lon="32.2886870">
<ele>17.50</ele>
<time>2015-04-25T15:27:48Z</time>
</trkpt>
<trkpt lat="35.1024240" lon="32.2887411">
<ele>17.59</ele>
<time>2015-04-25T15:27:52Z</time>
</trkpt>
<trkpt lat="35.1023683" lon="32.2887545">
<ele>16.28</ele>
<time>2015-04-25T15:27:56Z</time>
</trkpt>
<trkpt lat="35.1023105" lon="32.2887661">
<ele>14.70</ele>
<time>2015-04-25T15:28:00Z</time>
</trkpt>
<trkpt lat="35.1022582" lon="32.2888044">
<ele>13.04</ele>
<time>2015-04-25T15:28:04Z</time>
</trkpt>
<trkpt lat="35.1021974" lon="32.2888520">
<ele>12.44</ele>
<time>2015-04-25T15:28:07Z</time>
</trkpt>
<trkpt lat="35.1021305" lon="32.2888878">
<ele>12.05</ele>
<time>2015-04-25T15:28:09Z</time>
</trkpt>
<trkpt lat="35.1020516" lon="32.2888944">
<ele>10.46</ele>
<time>2015-04-25T15:28:11Z</time>
</trkpt>
<trkpt lat="35.1019835" lon="32.2888743">
<ele>10.06</ele>
<time>2015-04-25T15:28:13Z</time>
</trkpt>
<trkpt lat="35.1019244" lon="32.2888553">
<ele>10.71</ele>
<time>2015-04-25T15:28:15Z</time>
</trkpt>
<trkpt lat="35.1018747" lon="32.2888456">
<ele>10.87</ele>
<time>2015-04-25T15:28:17Z</time>
</trkpt>
<trkpt lat="35.1018314" lon="32.2888244">
<ele>10.41</ele>
<time>2015-04-25T15:28:19Z</time>
</trkpt>
<trkpt lat="35.1017860" lon="32.2888025">
<ele>10.80</ele>
<time>2015-04-25T15:28:21Z</time>
</trkpt>
<trkpt lat="35.1017358" lon="32.2887880">
<ele>11.39</ele>
<time>2015-04-25T15:28:23Z</time>
</trkpt>
<trkpt lat="35.1016878" lon="32.2887746">
<ele>12.54</ele>
<time>2015-04-25T15:28:25Z</time>
</trkpt>
<trkpt lat="35.1016203" lon="32.2887513">
<ele>13.13</ele>
<time>2015-04-25T15:28:28Z</time>
</trkpt>
<trkpt lat="35.1015723" lon="32.2887381">
<ele>12.98</ele>
<time>2015-04-25T15:28:30Z</time>
</trkpt>
<trkpt lat="35.1015168" lon="32.2887317">
<ele>12.94</ele>
<time>2015-04-25T15:28:32Z</time>
</trkpt>
<trkpt lat="35.1014586" lon="32.2887323">
<ele>12.93</ele>
<time>2015-04-25T15:28:34Z</time>
</trkpt>
<trkpt lat="35.1014047" lon="32.2887343">
<ele>12.93</ele>
<time>2015-04-25T15:28:36Z</time>
</trkpt>
<trkpt lat="35.1013558" lon="32.2887345">
<ele>12.93</ele>
<time>2015-04-25T15:28:38Z</time>
</trkpt>
<trkpt lat="35.1013074" lon="32.2887145">
<ele>13.43</ele>
<time>2015-04-25T15:28:40Z</time>
</trkpt>
<trkpt lat="35.1012683" lon="32.2886808">
<ele>13.55</ele>
<time>2015-04-25T15:28:42Z</time>
</trkpt>
<trkpt lat="35.1012314" lon="32.2886441">
<ele>13.08</ele>
<time>2015-04-25T15:28:44Z</time>
</trkpt>
<trkpt lat="35.1011943" lon="32.2886084">
<ele>13.71</ele>
<time>2015-04-25T15:28:46Z</time>
</trkpt>
<trkpt lat="35.1011543" lon="32.2885734">
<ele>13.87</ele>
<time>2015-04-25T15:28:48Z</time>
</trkpt>
<trkpt lat="35.1011080" lon="32.2885295">
<ele>14.79</ele>
<time>2015-04-25T15:28:51Z</time>
</trkpt>
<trkpt lat="35.1010609" lon="32.2884879">
<ele>14.92</ele>
<time>2015-04-25T15:28:55Z</time>
</trkpt>
<trkpt lat="35.1010073" lon="32.2884703">
<ele>17.17</ele>
<time>2015-04-25T15:28:58Z</time>
</trkpt>
<trkpt lat="35.1009583" lon="32.2884689">
<ele>18.21</ele>
<time>2015-04-25T15:29:01Z</time>
</trkpt>
<trkpt lat="35.1009122" lon="32.2884361">
<ele>16.76</ele>
<time>2015-04-25T15:29:05Z</time>
</trkpt>
<trkpt lat="35.1008623" lon="32.2884123">
<ele>17.98</ele>
<time>2015-04-25T15:29:09Z</time>
</trkpt>
<trkpt lat="35.1008111" lon="32.2883978">
<ele>17.74</ele>
<time>2015-04-25T15:29:13Z</time>
</trkpt>
<trkpt lat="35.1007614" lon="32.2884127">
<ele>18.78</ele>
<time>2015-04-25T15:29:16Z</time>
</trkpt>
<trkpt lat="35.1007321" lon="32.2884620">
<ele>19.39</ele>
<time>2015-04-25T15:29:18Z</time>
</trkpt>
<trkpt lat="35.1007234" lon="32.2885260">
<ele>19.79</ele>
<time>2015-04-25T15:29:20Z</time>
</trkpt>
<trkpt lat="35.1007156" lon="32.2885914">
<ele>19.39</ele>
<time>2015-04-25T15:29:22Z</time>
</trkpt>
<trkpt lat="35.1007038" lon="32.2886554">
<ele>19.79</ele>
<time>2015-04-25T15:29:24Z</time>
</trkpt>
<trkpt lat="35.1006928" lon="32.2887415">
<ele>19.39</ele>
<time>2015-04-25T15:29:26Z</time>
</trkpt>
<trkpt lat="35.1006827" lon="32.2888192">
<ele>19.79</ele>
<time>2015-04-25T15:29:28Z</time>
</trkpt>
<trkpt lat="35.1006769" lon="32.2889000">
<ele>19.89</ele>
<time>2015-04-25T15:29:30Z</time>
</trkpt>
<trkpt lat="35.1006818" lon="32.2889938">
<ele>19.42</ele>
<time>2015-04-25T15:29:32Z</time>
</trkpt>
<trkpt lat="35.1006991" lon="32.2890909">
<ele>19.55</ele>
<time>2015-04-25T15:29:34Z</time>
</trkpt>
<trkpt lat="35.1007192" lon="32.2891858">
<ele>19.33</ele>
<time>2015-04-25T15:29:36Z</time>
</trkpt>
<trkpt lat="35.1007193" lon="32.2892822">
<ele>19.03</ele>
<time>2015-04-25T15:29:38Z</time>
</trkpt>
<trkpt lat="35.1007206" lon="32.2893722">
<ele>19.20</ele>
<time>2015-04-25T15:29:40Z</time>
</trkpt>
<trkpt lat="35.1007238" lon="32.2894568">
<ele>18.99</ele>
<time>2015-04-25T15:29:42Z</time>
</trkpt>
<trkpt lat="35.1007280" lon="32.2895404">
<ele>17.69</ele>
<time>2015-04-25T15:29:44Z</time>
</trkpt>
<trkpt lat="35.1007363" lon="32.2896174">
<ele>17.62</ele>
<time>2015-04-25T15:29:46Z</time>
</trkpt>
<trkpt lat="35.1007546" lon="32.2896930">
<ele>17.60</ele>
<time>2015-04-25T15:29:48Z</time>
</trkpt>
<trkpt lat="35.1007853" lon="32.2897468">
<ele>18.59</ele>
<time>2015-04-25T15:29:50Z</time>
</trkpt>
<trkpt lat="35.1008184" lon="32.2897868">
<ele>19.26</ele>
<time>2015-04-25T15:29:53Z</time>
</trkpt>
<trkpt lat="35.1008459" lon="32.2898391">
<ele>17.47</ele>
<time>2015-04-25T15:29:56Z</time>
</trkpt>
<trkpt lat="35.1008563" lon="32.2899146">
<ele>17.87</ele>
<time>2015-04-25T15:29:59Z</time>
</trkpt>
<trkpt lat="35.1008247" lon="32.2899609">
<ele>17.91</ele>
<time>2015-04-25T15:30:01Z</time>
</trkpt>
<trkpt lat="35.1007893" lon="32.2900000">
<ele>18.17</ele>
<time>2015-04-25T15:30:03Z</time>
</trkpt>
<trkpt lat="35.1007609" lon="32.2900456">
<ele>17.99</ele>
<time>2015-04-25T15:30:05Z</time>
</trkpt>
<trkpt lat="35.1007551" lon="32.2901010">
<ele>16.69</ele>
<time>2015-04-25T15:30:07Z</time>
</trkpt>
<trkpt lat="35.1007686" lon="32.2901639">
<ele>16.37</ele>
<time>2015-04-25T15:30:09Z</time>
</trkpt>
<trkpt lat="35.1007804" lon="32.2902426">
<ele>16.54</ele>
<time>2015-04-25T15:30:11Z</time>
</trkpt>
<trkpt lat="35.1007726" lon="32.2903237">
<ele>16.83</ele>
<time>2015-04-25T15:30:13Z</time>
</trkpt>
<trkpt lat="35.1007592" lon="32.2903964">
<ele>16.15</ele>
<time>2015-04-25T15:30:15Z</time>
</trkpt>
<trkpt lat="35.1007445" lon="32.2904656">
<ele>14.98</ele>
<time>2015-04-25T15:30:17Z</time>
</trkpt>
<trkpt lat="35.1007403" lon="32.2905455">
<ele>13.44</ele>
<time>2015-04-25T15:30:19Z</time>
</trkpt>
<trkpt lat="35.1007392" lon="32.2906351">
<ele>12.80</ele>
<time>2015-04-25T15:30:21Z</time>
</trkpt>
<trkpt lat="35.1007166" lon="32.2907174">
<ele>12.89</ele>
<time>2015-04-25T15:30:23Z</time>
</trkpt>
<trkpt lat="35.1006764" lon="32.2907824">
<ele>12.42</ele>
<time>2015-04-25T15:30:25Z</time>
</trkpt>
<trkpt lat="35.1006436" lon="32.2908372">
<ele>11.30</ele>
<time>2015-04-25T15:30:27Z</time>
</trkpt>
<trkpt lat="35.1006183" lon="32.2909045">
<ele>11.02</ele>
<time>2015-04-25T15:30:29Z</time>
</trkpt>
<trkpt lat="35.1006024" lon="32.2909748">
<ele>10.95</ele>
<time>2015-04-25T15:30:31Z</time>
</trkpt>
<trkpt lat="35.1005894" lon="32.2910441">
<ele>10.93</ele>
<time>2015-04-25T15:30:33Z</time>
</trkpt>
<trkpt lat="35.1005776" lon="32.2911160">
<ele>10.18</ele>
<time>2015-04-25T15:30:35Z</time>
</trkpt>
<trkpt lat="35.1005961" lon="32.2911934">
<ele>9.49</ele>
<time>2015-04-25T15:30:37Z</time>
</trkpt>
<trkpt lat="35.1006100" lon="32.2912706">
<ele>9.07</ele>
<time>2015-04-25T15:30:39Z</time>
</trkpt>
<trkpt lat="35.1006118" lon="32.2913523">
<ele>8.96</ele>
<time>2015-04-25T15:30:41Z</time>
</trkpt>
<trkpt lat="35.1006123" lon="32.2914305">
<ele>9.18</ele>
<time>2015-04-25T15:30:43Z</time>
</trkpt>
<trkpt lat="35.1006146" lon="32.2915125">
<ele>9.74</ele>
<time>2015-04-25T15:30:45Z</time>
</trkpt>
<trkpt lat="35.1006083" lon="32.2915922">
<ele>9.13</ele>
<time>2015-04-25T15:30:47Z</time>
</trkpt>
<trkpt lat="35.1005972" lon="32.2916706">
<ele>7.73</ele>
<time>2015-04-25T15:30:49Z</time>
</trkpt>
<trkpt lat="35.1005879" lon="32.2917454">
<ele>7.13</ele>
<time>2015-04-25T15:30:51Z</time>
</trkpt>
<trkpt lat="35.1005816" lon="32.2918168">
<ele>7.73</ele>
<time>2015-04-25T15:30:53Z</time>
</trkpt>
<trkpt lat="35.1005697" lon="32.2918750">
<ele>8.38</ele>
<time>2015-04-25T15:30:55Z</time>
</trkpt>
<trkpt lat="35.1005573" lon="32.2919418">
<ele>8.86</ele>
<time>2015-04-25T15:30:58Z</time>
</trkpt>
<trkpt lat="35.1005794" lon="32.2920079">
<ele>10.29</ele>
<time>2015-04-25T15:31:01Z</time>
</trkpt>
<trkpt lat="35.1005731" lon="32.2920690">
<ele>10.47</ele>
<time>2015-04-25T15:31:04Z</time>
</trkpt>
<trkpt lat="35.1005338" lon="32.2921313">
<ele>11.83</ele>
<time>2015-04-25T15:31:08Z</time>
</trkpt>
<trkpt lat="35.1005040" lon="32.2921892">
<ele>12.29</ele>
<time>2015-04-25T15:31:12Z</time>
</trkpt>
<trkpt lat="35.1004746" lon="32.2922464">
<ele>14.26</ele>
<time>2015-04-25T15:31:16Z</time>
</trkpt>
<trkpt lat="35.1004339" lon="32.2922759">
<ele>15.34</ele>
<time>2015-04-25T15:31:19Z</time>
</trkpt>
<trkpt lat="35.1003838" lon="32.2923010">
<ele>15.35</ele>
<time>2015-04-25T15:31:22Z</time>
</trkpt>
<trkpt lat="35.1003405" lon="32.2923346">
<ele>14.73</ele>
<time>2015-04-25T15:31:25Z</time>
</trkpt>
<trkpt lat="35.1003033" lon="32.2923872">
<ele>15.29</ele>
<time>2015-04-25T15:31:29Z</time>
</trkpt>
<trkpt lat="35.1002587" lon="32.2924364">
<ele>17.51</ele>
<time>2015-04-25T15:31:33Z</time>
</trkpt>
<trkpt lat="35.1002172" lon="32.2924743">
<ele>19.40</ele>
<time>2015-04-25T15:31:37Z</time>
</trkpt>
<trkpt lat="35.1001721" lon="32.2924892">
<ele>20.36</ele>
<time>2015-04-25T15:31:40Z</time>
</trkpt>
<trkpt lat="35.1001166" lon="32.2925107">
<ele>20.89</ele>
<time>2015-04-25T15:31:44Z</time>
</trkpt>
<trkpt lat="35.1000767" lon="32.2925366">
<ele>20.17</ele>
<time>2015-04-25T15:31:47Z</time>
</trkpt>
<trkpt lat="35.1000297" lon="32.2925746">
<ele>19.08</ele>
<time>2015-04-25T15:31:50Z</time>
</trkpt>
<trkpt lat="35.0999874" lon="32.2926174">
<ele>18.94</ele>
<time>2015-04-25T15:31:53Z</time>
</trkpt>
<trkpt lat="35.0999426" lon="32.2926616">
<ele>19.80</ele>
<time>2015-04-25T15:31:57Z</time>
</trkpt>
<trkpt lat="35.0998886" lon="32.2926811">
<ele>19.85</ele>
<time>2015-04-25T15:32:01Z</time>
</trkpt>
<trkpt lat="35.0998374" lon="32.2926763">
<ele>19.42</ele>
<time>2015-04-25T15:32:04Z</time>
</trkpt>
<trkpt lat="35.0997856" lon="32.2926721">
<ele>18.24</ele>
<time>2015-04-25T15:32:07Z</time>
</trkpt>
<trkpt lat="35.0997290" lon="32.2926817">
<ele>17.09</ele>
<time>2015-04-25T15:32:10Z</time>
</trkpt>
<trkpt lat="35.0996711" lon="32.2926960">
<ele>18.57</ele>
<time>2015-04-25T15:32:13Z</time>
</trkpt>
<trkpt lat="35.0996190" lon="32.2927409">
<ele>18.76</ele>
<time>2015-04-25T15:32:16Z</time>
</trkpt>
<trkpt lat="35.0995663" lon="32.2927853">
<ele>19.65</ele>
<time>2015-04-25T15:32:19Z</time>
</trkpt>
<trkpt lat="35.0995200" lon="32.2927961">
<ele>19.36</ele>
<time>2015-04-25T15:32:21Z</time>
</trkpt>
<trkpt lat="35.0994739" lon="32.2928048">
<ele>19.78</ele>
<time>2015-04-25T15:32:23Z</time>
</trkpt>
<trkpt lat="35.0994124" lon="32.2928244">
<ele>19.66</ele>
<time>2015-04-25T15:32:26Z</time>
</trkpt>
<trkpt lat="35.0993602" lon="32.2928623">
<ele>19.02</ele>
<time>2015-04-25T15:32:29Z</time>
</trkpt>
<trkpt lat="35.0993145" lon="32.2929076">
<ele>20.44</ele>
<time>2015-04-25T15:32:32Z</time>
</trkpt>
<trkpt lat="35.0992877" lon="32.2929653">
<ele>20.05</ele>
<time>2015-04-25T15:32:34Z</time>
</trkpt>
<trkpt lat="35.0992692" lon="32.2930394">
<ele>20.71</ele>
<time>2015-04-25T15:32:36Z</time>
</trkpt>
<trkpt lat="35.0992363" lon="32.2931194">
<ele>20.37</ele>
<time>2015-04-25T15:32:38Z</time>
</trkpt>
<trkpt lat="35.0992038" lon="32.2932015">
<ele>20.54</ele>
<time>2015-04-25T15:32:40Z</time>
</trkpt>
<trkpt lat="35.0991769" lon="32.2932801">
<ele>21.08</ele>
<time>2015-04-25T15:32:42Z</time>
</trkpt>
<trkpt lat="35.0991403" lon="32.2933473">
<ele>21.46</ele>
<time>2015-04-25T15:32:44Z</time>
</trkpt>
<trkpt lat="35.0991150" lon="32.2934197">
<ele>21.06</ele>
<time>2015-04-25T15:32:46Z</time>
</trkpt>
<trkpt lat="35.0991049" lon="32.2934959">
<ele>18.96</ele>
<time>2015-04-25T15:32:48Z</time>
</trkpt>
<trkpt lat="35.0990823" lon="32.2935579">
<ele>18.18</ele>
<time>2015-04-25T15:32:50Z</time>
</trkpt>
<trkpt lat="35.0990433" lon="32.2935933">
<ele>16.74</ele>
<time>2015-04-25T15:32:52Z</time>
</trkpt>
<trkpt lat="35.0990051" lon="32.2935642">
<ele>14.18</ele>
<time>2015-04-25T15:33:11Z</time>
</trkpt>
<trkpt lat="35.0989432" lon="32.2935509">
<ele>14.44</ele>
<time>2015-04-25T15:33:15Z</time>
</trkpt>
<trkpt lat="35.0988843" lon="32.2935587">
<ele>13.99</ele>
<time>2015-04-25T15:33:18Z</time>
</trkpt>
<trkpt lat="35.0988251" lon="32.2935646">
<ele>13.06</ele>
<time>2015-04-25T15:33:21Z</time>
</trkpt>
<trkpt lat="35.0987666" lon="32.2935770">
<ele>14.44</ele>
<time>2015-04-25T15:33:24Z</time>
</trkpt>
<trkpt lat="35.0987019" lon="32.2935856">
<ele>14.49</ele>
<time>2015-04-25T15:33:27Z</time>
</trkpt>
<trkpt lat="35.0986556" lon="32.2936016">
<ele>14.07</ele>
<time>2015-04-25T15:33:29Z</time>
</trkpt>
<trkpt lat="35.0986133" lon="32.2936442">
<ele>13.96</ele>
<time>2015-04-25T15:33:31Z</time>
</trkpt>
<trkpt lat="35.0985863" lon="32.2937091">
<ele>13.93</ele>
<time>2015-04-25T15:33:33Z</time>
</trkpt>
<trkpt lat="35.0985598" lon="32.2937930">
<ele>13.93</ele>
<time>2015-04-25T15:33:35Z</time>
</trkpt>
<trkpt lat="35.0985168" lon="32.2938524">
<ele>13.93</ele>
<time>2015-04-25T15:33:37Z</time>
</trkpt>
<trkpt lat="35.0984655" lon="32.2938928">
<ele>13.93</ele>
<time>2015-04-25T15:33:39Z</time>
</trkpt>
<trkpt lat="35.0984111" lon="32.2939137">
<ele>13.93</ele>
<time>2015-04-25T15:33:41Z</time>
</trkpt>
<trkpt lat="35.0983542" lon="32.2939216">
<ele>13.93</ele>
<time>2015-04-25T15:33:43Z</time>
</trkpt>
<trkpt lat="35.0982982" lon="32.2939299">
<ele>14.68</ele>
<time>2015-04-25T15:33:45Z</time>
</trkpt>
<trkpt lat="35.0982430" lon="32.2939336">
<ele>14.86</ele>
<time>2015-04-25T15:33:47Z</time>
</trkpt>
<trkpt lat="35.0981864" lon="32.2939299">
<ele>15.41</ele>
<time>2015-04-25T15:33:49Z</time>
</trkpt>
<trkpt lat="35.0981288" lon="32.2939288">
<ele>15.05</ele>
<time>2015-04-25T15:33:51Z</time>
</trkpt>
<trkpt lat="35.0980684" lon="32.2939292">
<ele>14.46</ele>
<time>2015-04-25T15:33:53Z</time>
</trkpt>
<trkpt lat="35.0980110" lon="32.2939294">
<ele>14.31</ele>
<time>2015-04-25T15:33:55Z</time>
</trkpt>
<trkpt lat="35.0979597" lon="32.2939301">
<ele>14.77</ele>
<time>2015-04-25T15:33:57Z</time>
</trkpt>
<trkpt lat="35.0979074" lon="32.2939284">
<ele>14.94</ele>
<time>2015-04-25T15:34:03Z</time>
</trkpt>
<trkpt lat="35.0978580" lon="32.2939504">
<ele>14.55</ele>
<time>2015-04-25T15:34:06Z</time>
</trkpt>
<trkpt lat="35.0977940" lon="32.2939901">
<ele>13.08</ele>
<time>2015-04-25T15:34:08Z</time>
</trkpt>
<trkpt lat="35.0977527" lon="32.2940137">
<ele>12.50</ele>
<time>2015-04-25T15:34:09Z</time>
</trkpt>
<trkpt lat="35.0977083" lon="32.2940338">
<ele>12.21</ele>
<time>2015-04-25T15:34:10Z</time>
</trkpt>
<trkpt lat="35.0976311" lon="32.2940691">
<ele>13.25</ele>
<time>2015-04-25T15:34:12Z</time>
</trkpt>
<trkpt lat="35.0975774" lon="32.2941024">
<ele>13.76</ele>
<time>2015-04-25T15:34:14Z</time>
</trkpt>
<trkpt lat="35.0975449" lon="32.2941530">
<ele>15.15</ele>
<time>2015-04-25T15:34:17Z</time>
</trkpt>
<trkpt lat="35.0974985" lon="32.2941936">
<ele>15.45</ele>
<time>2015-04-25T15:34:20Z</time>
</trkpt>
<trkpt lat="35.0974509" lon="32.2941908">
<ele>14.49</ele>
<time>2015-04-25T15:34:23Z</time>
</trkpt>
<trkpt lat="35.0973970" lon="32.2941799">
<ele>16.21</ele>
<time>2015-04-25T15:34:27Z</time>
</trkpt>
<trkpt lat="35.0973536" lon="32.2942248">
<ele>17.57</ele>
<time>2015-04-25T15:34:31Z</time>
</trkpt>
<trkpt lat="35.0973038" lon="32.2942535">
<ele>16.34</ele>
<time>2015-04-25T15:34:35Z</time>
</trkpt>
<trkpt lat="35.0972835" lon="32.2943076">
<ele>15.10</ele>
<time>2015-04-25T15:34:38Z</time>
</trkpt>
<trkpt lat="35.0972835" lon="32.2943965">
<ele>14.95</ele>
<time>2015-04-25T15:34:41Z</time>
</trkpt>
<trkpt lat="35.0972792" lon="32.2944806">
<ele>14.43</ele>
<time>2015-04-25T15:34:43Z</time>
</trkpt>
<trkpt lat="35.0972692" lon="32.2945650">
<ele>13.30</ele>
<time>2015-04-25T15:34:45Z</time>
</trkpt>
<trkpt lat="35.0972566" lon="32.2946351">
<ele>13.27</ele>
<time>2015-04-25T15:34:47Z</time>
</trkpt>
<trkpt lat="35.0972396" lon="32.2946954">
<ele>12.26</ele>
<time>2015-04-25T15:34:49Z</time>
</trkpt>
<trkpt lat="35.0972133" lon="32.2947436">
<ele>9.68</ele>
<time>2015-04-25T15:35:11Z</time>
</trkpt>
<trkpt lat="35.0971729" lon="32.2947749">
<ele>9.74</ele>
<time>2015-04-25T15:35:18Z</time>
</trkpt>
<trkpt lat="35.0971286" lon="32.2948041">
<ele>9.70</ele>
<time>2015-04-25T15:35:23Z</time>
</trkpt>
<trkpt lat="35.0970920" lon="32.2948364">
<ele>11.69</ele>
<time>2015-04-25T15:35:29Z</time>
</trkpt>
<trkpt lat="35.0970523" lon="32.2948624">
<ele>13.84</ele>
<time>2015-04-25T15:35:35Z</time>
</trkpt>
<trkpt lat="35.0970157" lon="32.2949035">
<ele>10.79</ele>
<time>2015-04-25T15:35:42Z</time>
</trkpt>
<trkpt lat="35.0970005" lon="32.2949582">
<ele>11.80</ele>
<time>2015-04-25T15:35:48Z</time>
</trkpt>
<trkpt lat="35.0969661" lon="32.2949961">
<ele>8.78</ele>
<time>2015-04-25T15:35:55Z</time>
</trkpt>
<trkpt lat="35.0969334" lon="32.2950378">
<ele>9.67</ele>
<time>2015-04-25T15:36:01Z</time>
</trkpt>
<trkpt lat="35.0969182" lon="32.2950927">
<ele>12.36</ele>
<time>2015-04-25T15:36:07Z</time>
</trkpt>
<trkpt lat="35.0969125" lon="32.2951553">
<ele>12.42</ele>
<time>2015-04-25T15:36:27Z</time>
</trkpt>
<trkpt lat="35.0969001" lon="32.2952106">
<ele>12.85</ele>
<time>2015-04-25T15:36:32Z</time>
</trkpt>
<trkpt lat="35.0968823" lon="32.2952705">
<ele>11.99</ele>
<time>2015-04-25T15:36:37Z</time>
</trkpt>
<trkpt lat="35.0968736" lon="32.2953336">
<ele>11.67</ele>
<time>2015-04-25T15:36:50Z</time>
</trkpt>
<trkpt lat="35.0968412" lon="32.2953870">
<ele>14.10</ele>
<time>2015-04-25T15:36:54Z</time>
</trkpt>
<trkpt lat="35.0968064" lon="32.2954490">
<ele>13.31</ele>
<time>2015-04-25T15:36:58Z</time>
</trkpt>
<trkpt lat="35.0967767" lon="32.2955069">
<ele>12.22</ele>
<time>2015-04-25T15:37:01Z</time>
</trkpt>
<trkpt lat="35.0967434" lon="32.2955677">
<ele>10.59</ele>
<time>2015-04-25T15:37:04Z</time>
</trkpt>
<trkpt lat="35.0967088" lon="32.2956339">
<ele>10.01</ele>
<time>2015-04-25T15:37:07Z</time>
</trkpt>
<trkpt lat="35.0966661" lon="32.2956830">
<ele>9.44</ele>
<time>2015-04-25T15:37:10Z</time>
</trkpt>
<trkpt lat="35.0966354" lon="32.2957318">
<ele>8.86</ele>
<time>2015-04-25T15:37:13Z</time>
</trkpt>
<trkpt lat="35.0965934" lon="32.2957647">
<ele>8.92</ele>
<time>2015-04-25T15:37:16Z</time>
</trkpt>
<trkpt lat="35.0965411" lon="32.2957740">
<ele>9.80</ele>
<time>2015-04-25T15:37:19Z</time>
</trkpt>
<trkpt lat="35.0964882" lon="32.2958106">
<ele>9.78</ele>
<time>2015-04-25T15:37:22Z</time>
</trkpt>
<trkpt lat="35.0964458" lon="32.2958721">
<ele>9.41</ele>
<time>2015-04-25T15:37:25Z</time>
</trkpt>
<trkpt lat="35.0964172" lon="32.2959179">
<ele>8.55</ele>
<time>2015-04-25T15:37:27Z</time>
</trkpt>
<trkpt lat="35.0963762" lon="32.2959796">
<ele>8.88</ele>
<time>2015-04-25T15:37:30Z</time>
</trkpt>
<trkpt lat="35.0963279" lon="32.2960305">
<ele>9.79</ele>
<time>2015-04-25T15:37:33Z</time>
</trkpt>
<trkpt lat="35.0962725" lon="32.2960641">
<ele>9.91</ele>
<time>2015-04-25T15:37:36Z</time>
</trkpt>
<trkpt lat="35.0962198" lon="32.2960954">
<ele>9.92</ele>
<time>2015-04-25T15:37:39Z</time>
</trkpt>
<trkpt lat="35.0961666" lon="32.2961348">
<ele>9.92</ele>
<time>2015-04-25T15:37:42Z</time>
</trkpt>
<trkpt lat="35.0961145" lon="32.2961788">
<ele>10.30</ele>
<time>2015-04-25T15:37:45Z</time>
</trkpt>
<trkpt lat="35.0960717" lon="32.2962099">
<ele>9.52</ele>
<time>2015-04-25T15:37:47Z</time>
</trkpt>
<trkpt lat="35.0960173" lon="32.2962429">
<ele>9.07</ele>
<time>2015-04-25T15:37:49Z</time>
</trkpt>
<trkpt lat="35.0959646" lon="32.2962768">
<ele>9.46</ele>
<time>2015-04-25T15:37:51Z</time>
</trkpt>
<trkpt lat="35.0959166" lon="32.2963168">
<ele>9.81</ele>
<time>2015-04-25T15:37:53Z</time>
</trkpt>
<trkpt lat="35.0958740" lon="32.2963670">
<ele>9.90</ele>
<time>2015-04-25T15:37:55Z</time>
</trkpt>
<trkpt lat="35.0958223" lon="32.2964177">
<ele>9.92</ele>
<time>2015-04-25T15:37:57Z</time>
</trkpt>
<trkpt lat="35.0957734" lon="32.2964656">
<ele>9.92</ele>
<time>2015-04-25T15:37:59Z</time>
</trkpt>
<trkpt lat="35.0957216" lon="32.2965068">
<ele>9.92</ele>
<time>2015-04-25T15:38:01Z</time>
</trkpt>
<trkpt lat="35.0956619" lon="32.2965440">
<ele>9.92</ele>
<time>2015-04-25T15:38:03Z</time>
</trkpt>
<trkpt lat="35.0955939" lon="32.2965754">
<ele>9.42</ele>
<time>2015-04-25T15:38:05Z</time>
</trkpt>
<trkpt lat="35.0955262" lon="32.2966027">
<ele>9.80</ele>
<time>2015-04-25T15:38:07Z</time>
</trkpt>
<trkpt lat="35.0954593" lon="32.2966197">
<ele>9.89</ele>
<time>2015-04-25T15:38:09Z</time>
</trkpt>
<trkpt lat="35.0954019" lon="32.2966245">
<ele>9.92</ele>
<time>2015-04-25T15:38:11Z</time>
</trkpt>
<trkpt lat="35.0953432" lon="32.2966243">
<ele>9.92</ele>
<time>2015-04-25T15:38:13Z</time>
</trkpt>
<trkpt lat="35.0952905" lon="32.2966272">
<ele>10.67</ele>
<time>2015-04-25T15:38:15Z</time>
</trkpt>
<trkpt lat="35.0952291" lon="32.2966402">
<ele>11.39</ele>
<time>2015-04-25T15:38:18Z</time>
</trkpt>
<trkpt lat="35.0951860" lon="32.2966759">
<ele>11.11</ele>
<time>2015-04-25T15:38:21Z</time>
</trkpt>
<trkpt lat="35.0951453" lon="32.2967244">
<ele>11.07</ele>
<time>2015-04-25T15:38:24Z</time>
</trkpt>
<trkpt lat="35.0950999" lon="32.2967591">
<ele>10.94</ele>
<time>2015-04-25T15:38:27Z</time>
</trkpt>
<trkpt lat="35.0950450" lon="32.2967888">
<ele>10.05</ele>
<time>2015-04-25T15:38:30Z</time>
</trkpt>
<trkpt lat="35.0949958" lon="32.2968295">
<ele>10.07</ele>
<time>2015-04-25T15:38:33Z</time>
</trkpt>
<trkpt lat="35.0949408" lon="32.2968764">
<ele>9.07</ele>
<time>2015-04-25T15:38:36Z</time>
</trkpt>
<trkpt lat="35.0948868" lon="32.2969148">
<ele>11.82</ele>
<time>2015-04-25T15:38:39Z</time>
</trkpt>
<trkpt lat="35.0948387" lon="32.2969590">
<ele>12.29</ele>
<time>2015-04-25T15:38:42Z</time>
</trkpt>
<trkpt lat="35.0947888" lon="32.2970111">
<ele>11.97</ele>
<time>2015-04-25T15:38:45Z</time>
</trkpt>
<trkpt lat="35.0947462" lon="32.2970648">
<ele>11.93</ele>
<time>2015-04-25T15:38:48Z</time>
</trkpt>
<trkpt lat="35.0947009" lon="32.2971226">
<ele>11.80</ele>
<time>2015-04-25T15:38:51Z</time>
</trkpt>
<trkpt lat="35.0946670" lon="32.2971593">
<ele>11.89</ele>
<time>2015-04-25T15:38:53Z</time>
</trkpt>
<trkpt lat="35.0946316" lon="32.2971968">
<ele>11.67</ele>
<time>2015-04-25T15:38:55Z</time>
</trkpt>
<trkpt lat="35.0945826" lon="32.2972415">
<ele>11.52</ele>
<time>2015-04-25T15:38:58Z</time>
</trkpt>
<trkpt lat="35.0945339" lon="32.2972577">
<ele>12.25</ele>
<time>2015-04-25T15:39:01Z</time>
</trkpt>
<trkpt lat="35.0944995" lon="32.2973036">
<ele>12.84</ele>
<time>2015-04-25T15:39:04Z</time>
</trkpt>
<trkpt lat="35.0944530" lon="32.2973573">
<ele>13.41</ele>
<time>2015-04-25T15:39:07Z</time>
</trkpt>
<trkpt lat="35.0944090" lon="32.2973910">
<ele>13.05</ele>
<time>2015-04-25T15:39:09Z</time>
</trkpt>
<trkpt lat="35.0943617" lon="32.2974177">
<ele>12.21</ele>
<time>2015-04-25T15:39:11Z</time>
</trkpt>
<trkpt lat="35.0943146" lon="32.2974344">
<ele>12.00</ele>
<time>2015-04-25T15:39:13Z</time>
</trkpt>
<trkpt lat="35.0942693" lon="32.2974478">
<ele>12.44</ele>
<time>2015-04-25T15:39:15Z</time>
</trkpt>
<trkpt lat="35.0942085" lon="32.2974766">
<ele>12.86</ele>
<time>2015-04-25T15:39:18Z</time>
</trkpt>
<trkpt lat="35.0941591" lon="32.2975094">
<ele>13.04</ele>
<time>2015-04-25T15:39:21Z</time>
</trkpt>
<trkpt lat="35.0941137" lon="32.2975395">
<ele>12.81</ele>
<time>2015-04-25T15:39:24Z</time>
</trkpt>
<trkpt lat="35.0940694" lon="32.2975684">
<ele>12.79</ele>
<time>2015-04-25T15:39:27Z</time>
</trkpt>
<trkpt lat="35.0940018" lon="32.2976066">
<ele>12.03</ele>
<time>2015-04-25T15:39:30Z</time>
</trkpt>
<trkpt lat="35.0939388" lon="32.2976562">
<ele>11.95</ele>
<time>2015-04-25T15:39:32Z</time>
</trkpt>
<trkpt lat="35.0938921" lon="32.2977311">
<ele>11.93</ele>
<time>2015-04-25T15:39:34Z</time>
</trkpt>
<trkpt lat="35.0938522" lon="32.2977966">
<ele>11.93</ele>
<time>2015-04-25T15:39:36Z</time>
</trkpt>
<trkpt lat="35.0938029" lon="32.2978533">
<ele>11.18</ele>
<time>2015-04-25T15:39:38Z</time>
</trkpt>
<trkpt lat="35.0937587" lon="32.2979105">
<ele>11.74</ele>
<time>2015-04-25T15:39:40Z</time>
</trkpt>
<trkpt lat="35.0937254" lon="32.2979734">
<ele>11.88</ele>
<time>2015-04-25T15:39:42Z</time>
</trkpt>
<trkpt lat="35.0937048" lon="32.2980375">
<ele>12.66</ele>
<time>2015-04-25T15:39:44Z</time>
</trkpt>
<trkpt lat="35.0936864" lon="32.2980964">
<ele>13.36</ele>
<time>2015-04-25T15:39:46Z</time>
</trkpt>
<trkpt lat="35.0936722" lon="32.2981547">
<ele>13.78</ele>
<time>2015-04-25T15:39:48Z</time>
</trkpt>
<trkpt lat="35.0936199" lon="32.2981924">
<ele>16.03</ele>
<time>2015-04-25T15:39:51Z</time>
</trkpt>
<trkpt lat="35.0935698" lon="32.2982063">
<ele>16.81</ele>
<time>2015-04-25T15:39:54Z</time>
</trkpt>
<trkpt lat="35.0935220" lon="32.2982403">
<ele>16.41</ele>
<time>2015-04-25T15:39:57Z</time>
</trkpt>
<trkpt lat="35.0934850" lon="32.2982945">
<ele>15.99</ele>
<time>2015-04-25T15:40:00Z</time>
</trkpt>
<trkpt lat="35.0934545" lon="32.2983615">
<ele>15.93</ele>
<time>2015-04-25T15:40:03Z</time>
</trkpt>
<trkpt lat="35.0934199" lon="32.2984092">
<ele>15.93</ele>
<time>2015-04-25T15:40:05Z</time>
</trkpt>
<trkpt lat="35.0933735" lon="32.2984353">
<ele>17.18</ele>
<time>2015-04-25T15:40:07Z</time>
</trkpt>
<trkpt lat="35.0933112" lon="32.2984522">
<ele>18.58</ele>
<time>2015-04-25T15:40:10Z</time>
</trkpt>
<trkpt lat="35.0932458" lon="32.2984540">
<ele>17.26</ele>
<time>2015-04-25T15:40:13Z</time>
</trkpt>
<trkpt lat="35.0931801" lon="32.2984731">
<ele>15.34</ele>
<time>2015-04-25T15:40:16Z</time>
</trkpt>
<trkpt lat="35.0931204" lon="32.2984877">
<ele>16.23</ele>
<time>2015-04-25T15:40:19Z</time>
</trkpt>
<trkpt lat="35.0930672" lon="32.2985000">
<ele>16.84</ele>
<time>2015-04-25T15:40:22Z</time>
</trkpt>
<trkpt lat="35.0930113" lon="32.2984974">
<ele>17.42</ele>
<time>2015-04-25T15:40:26Z</time>
</trkpt>
<trkpt lat="35.0929615" lon="32.2984563">
<ele>18.64</ele>
<time>2015-04-25T15:40:30Z</time>
</trkpt>
<trkpt lat="35.0929170" lon="32.2984471">
<ele>19.39</ele>
<time>2015-04-25T15:40:33Z</time>
</trkpt>
<trkpt lat="35.0928611" lon="32.2984444">
<ele>20.02</ele>
<time>2015-04-25T15:40:37Z</time>
</trkpt>
<trkpt lat="35.0928156" lon="32.2984550">
<ele>19.56</ele>
<time>2015-04-25T15:40:40Z</time>
</trkpt>
<trkpt lat="35.0927760" lon="32.2984827">
<ele>19.88</ele>
<time>2015-04-25T15:40:43Z</time>
</trkpt>
<trkpt lat="35.0927463" lon="32.2985362">
<ele>19.04</ele>
<time>2015-04-25T15:40:46Z</time>
</trkpt>
<trkpt lat="35.0927212" lon="32.2985958">
<ele>18.94</ele>
<time>2015-04-25T15:40:49Z</time>
</trkpt>
<trkpt lat="35.0926942" lon="32.2986530">
<ele>17.55</ele>
<time>2015-04-25T15:40:52Z</time>
</trkpt>
<trkpt lat="35.0926482" lon="32.2986795">
<ele>17.63</ele>
<time>2015-04-25T15:40:55Z</time>
</trkpt>
<trkpt lat="35.0925958" lon="32.2987007">
<ele>17.89</ele>
<time>2015-04-25T15:40:58Z</time>
</trkpt>
<trkpt lat="35.0925499" lon="32.2987336">
<ele>18.67</ele>
<time>2015-04-25T15:41:01Z</time>
</trkpt>
<trkpt lat="35.0925104" lon="32.2987803">
<ele>18.39</ele>
<time>2015-04-25T15:41:04Z</time>
</trkpt>
<trkpt lat="35.0924679" lon="32.2988198">
<ele>17.61</ele>
<time>2015-04-25T15:41:07Z</time>
</trkpt>
<trkpt lat="35.0924358" lon="32.2988679">
<ele>17.14</ele>
<time>2015-04-25T15:41:10Z</time>
</trkpt>
<trkpt lat="35.0923834" lon="32.2989018">
<ele>16.44</ele>
<time>2015-04-25T15:41:14Z</time>
</trkpt>
<trkpt lat="35.0923348" lon="32.2989115">
<ele>16.86</ele>
<time>2015-04-25T15:41:17Z</time>
</trkpt>
<trkpt lat="35.0923297" lon="32.2989790">
<ele>18.67</ele>
<time>2015-04-25T15:41:21Z</time>
</trkpt>
<trkpt lat="35.0923552" lon="32.2990296">
<ele>18.14</ele>
<time>2015-04-25T15:41:24Z</time>
</trkpt>
<trkpt lat="35.0923422" lon="32.2991016">
<ele>17.94</ele>
<time>2015-04-25T15:41:28Z</time>
</trkpt>
<trkpt lat="35.0923173" lon="32.2991525">
<ele>17.93</ele>
<time>2015-04-25T15:41:31Z</time>
</trkpt>
<trkpt lat="35.0922893" lon="32.2992046">
<ele>19.18</ele>
<time>2015-04-25T15:41:34Z</time>
</trkpt>
<trkpt lat="35.0922578" lon="32.2992583">
<ele>19.08</ele>
<time>2015-04-25T15:41:37Z</time>
</trkpt>
<trkpt lat="35.0922346" lon="32.2993252">
<ele>18.82</ele>
<time>2015-04-25T15:41:40Z</time>
</trkpt>
<trkpt lat="35.0922304" lon="32.2993809">
<ele>18.90</ele>
<time>2015-04-25T15:41:42Z</time>
</trkpt>
<trkpt lat="35.0922388" lon="32.2994375">
<ele>18.92</ele>
<time>2015-04-25T15:41:44Z</time>
</trkpt>
<trkpt lat="35.0922573" lon="32.2994913">
<ele>19.42</ele>
<time>2015-04-25T15:41:46Z</time>
</trkpt>
<trkpt lat="35.0922864" lon="32.2995386">
<ele>19.80</ele>
<time>2015-04-25T15:41:48Z</time>
</trkpt>
<trkpt lat="35.0923222" lon="32.2995993">
<ele>19.39</ele>
<time>2015-04-25T15:41:50Z</time>
</trkpt>
<trkpt lat="35.0923494" lon="32.2996788">
<ele>20.54</ele>
<time>2015-04-25T15:41:52Z</time>
</trkpt>
<trkpt lat="35.0923516" lon="32.2997350">
<ele>20.23</ele>
<time>2015-04-25T15:41:53Z</time>
</trkpt>
<trkpt lat="35.0923405" lon="32.2998270">
<ele>20.00</ele>
<time>2015-04-25T15:41:55Z</time>
</trkpt>
<trkpt lat="35.0923166" lon="32.2999138">
<ele>19.94</ele>
<time>2015-04-25T15:41:57Z</time>
</trkpt>
<trkpt lat="35.0923001" lon="32.2999909">
<ele>19.18</ele>
<time>2015-04-25T15:41:59Z</time>
</trkpt>
<trkpt lat="35.0922994" lon="32.3000713">
<ele>18.99</ele>
<time>2015-04-25T15:42:01Z</time>
</trkpt>
<trkpt lat="35.0922887" lon="32.3001452">
<ele>19.94</ele>
<time>2015-04-25T15:42:03Z</time>
</trkpt>
<trkpt lat="35.0922578" lon="32.3002092">
<ele>20.68</ele>
<time>2015-04-25T15:42:05Z</time>
</trkpt>
<trkpt lat="35.0922119" lon="32.3002575">
<ele>20.36</ele>
<time>2015-04-25T15:42:07Z</time>
</trkpt>
<trkpt lat="35.0921558" lon="32.3002803">
<ele>19.53</ele>
<time>2015-04-25T15:42:09Z</time>
</trkpt>
<trkpt lat="35.0921067" lon="32.3002909">
<ele>19.33</ele>
<time>2015-04-25T15:42:11Z</time>
</trkpt>
<trkpt lat="35.0920483" lon="32.3003217">
<ele>19.35</ele>
<time>2015-04-25T15:42:14Z</time>
</trkpt>
<trkpt lat="35.0920126" lon="32.3003591">
<ele>19.28</ele>
<time>2015-04-25T15:42:16Z</time>
</trkpt>
<trkpt lat="35.0919742" lon="32.3004005">
<ele>19.26</ele>
<time>2015-04-25T15:42:18Z</time>
</trkpt>
<trkpt lat="35.0919382" lon="32.3004514">
<ele>19.01</ele>
<time>2015-04-25T15:42:20Z</time>
</trkpt>
<trkpt lat="35.0918997" lon="32.3005024">
<ele>18.95</ele>
<time>2015-04-25T15:42:22Z</time>
</trkpt>
<trkpt lat="35.0918570" lon="32.3005460">
<ele>19.68</ele>
<time>2015-04-25T15:42:24Z</time>
</trkpt>
<trkpt lat="35.0918215" lon="32.3005931">
<ele>19.61</ele>
<time>2015-04-25T15:42:26Z</time>
</trkpt>
<trkpt lat="35.0918018" lon="32.3006460">
<ele>19.85</ele>
<time>2015-04-25T15:42:28Z</time>
</trkpt>
<trkpt lat="35.0917618" lon="32.3007093">
<ele>21.29</ele>
<time>2015-04-25T15:42:31Z</time>
</trkpt>
<trkpt lat="35.0917053" lon="32.3007424">
<ele>21.85</ele>
<time>2015-04-25T15:42:34Z</time>
</trkpt>
<trkpt lat="35.0916604" lon="32.3007987">
<ele>21.04</ele>
<time>2015-04-25T15:42:37Z</time>
</trkpt>
<trkpt lat="35.0916236" lon="32.3008625">
<ele>20.06</ele>
<time>2015-04-25T15:42:40Z</time>
</trkpt>
<trkpt lat="35.0915898" lon="32.3008989">
<ele>18.71</ele>
<time>2015-04-25T15:42:42Z</time>
</trkpt>
<trkpt lat="35.0915412" lon="32.3009487">
<ele>18.02</ele>
<time>2015-04-25T15:42:45Z</time>
</trkpt>
<trkpt lat="35.0914982" lon="32.3010035">
<ele>17.19</ele>
<time>2015-04-25T15:42:48Z</time>
</trkpt>
<trkpt lat="35.0914571" lon="32.3010555">
<ele>16.21</ele>
<time>2015-04-25T15:42:51Z</time>
</trkpt>
<trkpt lat="35.0914124" lon="32.3010965">
<ele>16.84</ele>
<time>2015-04-25T15:42:54Z</time>
</trkpt>
<trkpt lat="35.0913849" lon="32.3011432">
<ele>16.04</ele>
<time>2015-04-25T15:42:57Z</time>
</trkpt>
<trkpt lat="35.0913607" lon="32.3012031">
<ele>16.20</ele>
<time>2015-04-25T15:42:59Z</time>
</trkpt>
<trkpt lat="35.0913330" lon="32.3012621">
<ele>16.49</ele>
<time>2015-04-25T15:43:01Z</time>
</trkpt>
<trkpt lat="35.0913120" lon="32.3013175">
<ele>16.82</ele>
<time>2015-04-25T15:43:03Z</time>
</trkpt>
<trkpt lat="35.0912917" lon="32.3013786">
<ele>16.90</ele>
<time>2015-04-25T15:43:05Z</time>
</trkpt>
<trkpt lat="35.0912716" lon="32.3014380">
<ele>16.92</ele>
<time>2015-04-25T15:43:07Z</time>
</trkpt>
<trkpt lat="35.0912497" lon="32.3014897">
<ele>16.92</ele>
<time>2015-04-25T15:43:09Z</time>
</trkpt>
<trkpt lat="35.0912303" lon="32.3015570">
<ele>16.05</ele>
<time>2015-04-25T15:43:12Z</time>
</trkpt>
<trkpt lat="35.0912111" lon="32.3016231">
<ele>15.19</ele>
<time>2015-04-25T15:43:15Z</time>
</trkpt>
<trkpt lat="35.0911790" lon="32.3016886">
<ele>14.46</ele>
<time>2015-04-25T15:43:18Z</time>
</trkpt>
<trkpt lat="35.0911486" lon="32.3017298">
<ele>14.06</ele>
<time>2015-04-25T15:43:20Z</time>
</trkpt>
<trkpt lat="35.0911042" lon="32.3017874">
<ele>13.94</ele>
<time>2015-04-25T15:43:23Z</time>
</trkpt>
<trkpt lat="35.0910667" lon="32.3018517">
<ele>13.43</ele>
<time>2015-04-25T15:43:26Z</time>
</trkpt>
<trkpt lat="35.0910446" lon="32.3019045">
<ele>13.05</ele>
<time>2015-04-25T15:43:28Z</time>
</trkpt>
<trkpt lat="35.0910241" lon="32.3019585">
<ele>12.96</ele>
<time>2015-04-25T15:43:30Z</time>
</trkpt>
<trkpt lat="35.0910006" lon="32.3020171">
<ele>12.93</ele>
<time>2015-04-25T15:43:32Z</time>
</trkpt>
<trkpt lat="35.0909721" lon="32.3020788">
<ele>12.43</ele>
<time>2015-04-25T15:43:34Z</time>
</trkpt>
<trkpt lat="35.0909439" lon="32.3021410">
<ele>12.05</ele>
<time>2015-04-25T15:43:36Z</time>
</trkpt>
<trkpt lat="35.0909202" lon="32.3022017">
<ele>12.46</ele>
<time>2015-04-25T15:43:38Z</time>
</trkpt>
<trkpt lat="35.0908942" lon="32.3022569">
<ele>12.81</ele>
<time>2015-04-25T15:43:40Z</time>
</trkpt>
<trkpt lat="35.0908671" lon="32.3023141">
<ele>12.90</ele>
<time>2015-04-25T15:43:42Z</time>
</trkpt>
<trkpt lat="35.0908392" lon="32.3023759">
<ele>13.42</ele>
<time>2015-04-25T15:43:44Z</time>
</trkpt>
<trkpt lat="35.0908096" lon="32.3024326">
<ele>13.80</ele>
<time>2015-04-25T15:43:46Z</time>
</trkpt>
<trkpt lat="35.0907784" lon="32.3024802">
<ele>13.89</ele>
<time>2015-04-25T15:43:48Z</time>
</trkpt>
<trkpt lat="35.0907247" lon="32.3025191">
<ele>13.80</ele>
<time>2015-04-25T15:43:51Z</time>
</trkpt>
<trkpt lat="35.0906595" lon="32.3025260">
<ele>13.91</ele>
<time>2015-04-25T15:43:54Z</time>
</trkpt>
<trkpt lat="35.0906140" lon="32.3025192">
<ele>13.92</ele>
<time>2015-04-25T15:43:56Z</time>
</trkpt>
<trkpt lat="35.0905721" lon="32.3024915">
<ele>14.42</ele>
<time>2015-04-25T15:43:58Z</time>
</trkpt>
<trkpt lat="35.0905366" lon="32.3024340">
<ele>14.86</ele>
<time>2015-04-25T15:44:01Z</time>
</trkpt>
<trkpt lat="35.0905235" lon="32.3023777">
<ele>14.92</ele>
<time>2015-04-25T15:44:04Z</time>
</trkpt>
<trkpt lat="35.0905283" lon="32.3023169">
<ele>14.17</ele>
<time>2015-04-25T15:44:07Z</time>
</trkpt>
<trkpt lat="35.0905410" lon="32.3022372">
<ele>14.71</ele>
<time>2015-04-25T15:44:10Z</time>
</trkpt>
<trkpt lat="35.0905463" lon="32.3021817">
<ele>14.37</ele>
<time>2015-04-25T15:44:12Z</time>
</trkpt>
<trkpt lat="35.0905473" lon="32.3021050">
<ele>14.86</ele>
<time>2015-04-25T15:44:15Z</time>
</trkpt>
<trkpt lat="35.0905394" lon="32.3020234">
<ele>14.92</ele>
<time>2015-04-25T15:44:18Z</time>
</trkpt>
<trkpt lat="35.0905197" lon="32.3019512">
<ele>14.92</ele>
<time>2015-04-25T15:44:20Z</time>
</trkpt>
<trkpt lat="35.0905012" lon="32.3018912">
<ele>15.17</ele>
<time>2015-04-25T15:44:22Z</time>
</trkpt>
<trkpt lat="35.0904802" lon="32.3018334">
<ele>15.24</ele>
<time>2015-04-25T15:44:24Z</time>
</trkpt>
<trkpt lat="35.0904567" lon="32.3017821">
<ele>15.00</ele>
<time>2015-04-25T15:44:26Z</time>
</trkpt>
<trkpt lat="35.0904333" lon="32.3017345">
<ele>14.19</ele>
<time>2015-04-25T15:44:28Z</time>
</trkpt>
<trkpt lat="35.0904087" lon="32.3016833">
<ele>14.74</ele>
<time>2015-04-25T15:44:30Z</time>
</trkpt>
<trkpt lat="35.0903826" lon="32.3016363">
<ele>14.13</ele>
<time>2015-04-25T15:44:32Z</time>
</trkpt>
<trkpt lat="35.0903754" lon="32.3015797">
<ele>13.98</ele>
<time>2015-04-25T15:44:34Z</time>
</trkpt>
<trkpt lat="35.0903739" lon="32.3014990">
<ele>13.93</ele>
<time>2015-04-25T15:44:37Z</time>
</trkpt>
<trkpt lat="35.0903820" lon="32.3014190">
<ele>14.43</ele>
<time>2015-04-25T15:44:40Z</time>
</trkpt>
<trkpt lat="35.0903858" lon="32.3013401">
<ele>14.86</ele>
<time>2015-04-25T15:44:43Z</time>
</trkpt>
<trkpt lat="35.0903785" lon="32.3012619">
<ele>14.67</ele>
<time>2015-04-25T15:44:46Z</time>
</trkpt>
<trkpt lat="35.0903553" lon="32.3012137">
<ele>14.36</ele>
<time>2015-04-25T15:44:48Z</time>
</trkpt>
<trkpt lat="35.0903207" lon="32.3011740">
<ele>14.53</ele>
<time>2015-04-25T15:44:50Z</time>
</trkpt>
<trkpt lat="35.0902854" lon="32.3011375">
<ele>14.83</ele>
<time>2015-04-25T15:44:52Z</time>
</trkpt>
<trkpt lat="35.0902465" lon="32.3011035">
<ele>15.40</ele>
<time>2015-04-25T15:44:54Z</time>
</trkpt>
<trkpt lat="35.0902018" lon="32.3010771">
<ele>15.29</ele>
<time>2015-04-25T15:44:56Z</time>
</trkpt>
<trkpt lat="35.0901588" lon="32.3010534">
<ele>15.02</ele>
<time>2015-04-25T15:44:58Z</time>
</trkpt>
<trkpt lat="35.0901144" lon="32.3010360">
<ele>14.95</ele>
<time>2015-04-25T15:45:00Z</time>
</trkpt>
<trkpt lat="35.0900666" lon="32.3010161">
<ele>14.93</ele>
<time>2015-04-25T15:45:02Z</time>
</trkpt>
<trkpt lat="35.0900058" lon="32.3009770">
<ele>14.18</ele>
<time>2015-04-25T15:45:04Z</time>
</trkpt>
<trkpt lat="35.0899530" lon="32.3009260">
<ele>13.99</ele>
<time>2015-04-25T15:45:06Z</time>
</trkpt>
<trkpt lat="35.0899112" lon="32.3008689">
<ele>13.94</ele>
<time>2015-04-25T15:45:08Z</time>
</trkpt>
<trkpt lat="35.0898723" lon="32.3008139">
<ele>13.93</ele>
<time>2015-04-25T15:45:10Z</time>
</trkpt>
<trkpt lat="35.0898312" lon="32.3007603">
<ele>13.93</ele>
<time>2015-04-25T15:45:12Z</time>
</trkpt>
<trkpt lat="35.0897860" lon="32.3007107">
<ele>13.93</ele>
<time>2015-04-25T15:45:14Z</time>
</trkpt>
<trkpt lat="35.0897398" lon="32.3006705">
<ele>14.43</ele>
<time>2015-04-25T15:45:16Z</time>
</trkpt>
<trkpt lat="35.0896889" lon="32.3006340">
<ele>14.36</ele>
<time>2015-04-25T15:45:19Z</time>
</trkpt>
<trkpt lat="35.0896362" lon="32.3006184">
<ele>13.23</ele>
<time>2015-04-25T15:45:22Z</time>
</trkpt>
<trkpt lat="35.0895781" lon="32.3006045">
<ele>12.96</ele>
<time>2015-04-25T15:45:25Z</time>
</trkpt>
<trkpt lat="35.0895239" lon="32.3005873">
<ele>12.93</ele>
<time>2015-04-25T15:45:28Z</time>
</trkpt>
<trkpt lat="35.0894748" lon="32.3005778">
<ele>12.93</ele>
<time>2015-04-25T15:45:31Z</time>
</trkpt>
<trkpt lat="35.0894149" lon="32.3005626">
<ele>12.55</ele>
<time>2015-04-25T15:45:34Z</time>
</trkpt>
<trkpt lat="35.0893667" lon="32.3005465">
<ele>12.33</ele>
<time>2015-04-25T15:45:36Z</time>
</trkpt>
<trkpt lat="35.0893172" lon="32.3005391">
<ele>12.03</ele>
<time>2015-04-25T15:45:38Z</time>
</trkpt>
<trkpt lat="35.0892722" lon="32.3005336">
<ele>12.20</ele>
<time>2015-04-25T15:45:40Z</time>
</trkpt>
<trkpt lat="35.0892138" lon="32.3005091">
<ele>12.83</ele>
<time>2015-04-25T15:45:43Z</time>
</trkpt>
<trkpt lat="35.0891521" lon="32.3004917">
<ele>12.91</ele>
<time>2015-04-25T15:45:46Z</time>
</trkpt>
<trkpt lat="35.0891064" lon="32.3004812">
<ele>13.89</ele>
<time>2015-04-25T15:45:51Z</time>
</trkpt>
<trkpt lat="35.0890507" lon="32.3004721">
<ele>16.17</ele>
<time>2015-04-25T15:47:09Z</time>
</trkpt>
<trkpt lat="35.0889878" lon="32.3004918">
<ele>16.83</ele>
<time>2015-04-25T15:47:12Z</time>
</trkpt>
<trkpt lat="35.0889347" lon="32.3005089">
<ele>16.90</ele>
<time>2015-04-25T15:47:14Z</time>
</trkpt>
<trkpt lat="35.0888907" lon="32.3005240">
<ele>16.92</ele>
<time>2015-04-25T15:47:16Z</time>
</trkpt>
<trkpt lat="35.0888419" lon="32.3005506">
<ele>16.92</ele>
<time>2015-04-25T15:47:20Z</time>
</trkpt>
<trkpt lat="35.0888135" lon="32.3006004">
<ele>17.55</ele>
<time>2015-04-25T15:47:23Z</time>
</trkpt>
<trkpt lat="35.0887875" lon="32.3006557">
<ele>17.58</ele>
<time>2015-04-25T15:47:25Z</time>
</trkpt>
<trkpt lat="35.0887569" lon="32.3007012">
<ele>17.84</ele>
<time>2015-04-25T15:47:27Z</time>
</trkpt>
<trkpt lat="35.0887195" lon="32.3007358">
<ele>17.90</ele>
<time>2015-04-25T15:47:29Z</time>
</trkpt>
<trkpt lat="35.0886596" lon="32.3007696">
<ele>17.92</ele>
<time>2015-04-25T15:47:32Z</time>
</trkpt>
<trkpt lat="35.0886004" lon="32.3007891">
<ele>17.92</ele>
<time>2015-04-25T15:47:35Z</time>
</trkpt>
<trkpt lat="35.0885502" lon="32.3008133">
<ele>17.05</ele>
<time>2015-04-25T15:47:38Z</time>
</trkpt>
<trkpt lat="35.0884987" lon="32.3008579">
<ele>15.57</ele>
<time>2015-04-25T15:47:41Z</time>
</trkpt>
<trkpt lat="35.0884398" lon="32.3008949">
<ele>15.88</ele>
<time>2015-04-25T15:47:44Z</time>
</trkpt>
<trkpt lat="35.0884003" lon="32.3009209">
<ele>15.66</ele>
<time>2015-04-25T15:47:46Z</time>
</trkpt>
<trkpt lat="35.0883415" lon="32.3009671">
<ele>15.27</ele>
<time>2015-04-25T15:47:49Z</time>
</trkpt>
<trkpt lat="35.0882883" lon="32.3010097">
<ele>14.97</ele>
<time>2015-04-25T15:47:52Z</time>
</trkpt>
<trkpt lat="35.0882572" lon="32.3010508">
<ele>15.87</ele>
<time>2015-04-25T15:47:56Z</time>
</trkpt>
<trkpt lat="35.0882097" lon="32.3011063">
<ele>16.67</ele>
<time>2015-04-25T15:48:00Z</time>
</trkpt>
<trkpt lat="35.0881662" lon="32.3011590">
<ele>16.36</ele>
<time>2015-04-25T15:48:02Z</time>
</trkpt>
<trkpt lat="35.0881438" lon="32.3012176">
<ele>16.53</ele>
<time>2015-04-25T15:48:04Z</time>
</trkpt>
<trkpt lat="35.0881716" lon="32.3012731">
<ele>17.00</ele>
<time>2015-04-25T15:48:07Z</time>
</trkpt>
<trkpt lat="35.0882196" lon="32.3012579">
<ele>16.94</ele>
<time>2015-04-25T15:48:09Z</time>
</trkpt>
<trkpt lat="35.0882576" lon="32.3012276">
<ele>17.68</ele>
<time>2015-04-25T15:48:11Z</time>
</trkpt>
<trkpt lat="35.0883076" lon="32.3011937">
<ele>17.52</ele>
<time>2015-04-25T15:48:14Z</time>
</trkpt>
<trkpt lat="35.0883503" lon="32.3011748">
<ele>18.06</ele>
<time>2015-04-25T15:49:17Z</time>
</trkpt>
<trkpt lat="35.0882922" lon="32.3011917">
<ele>17.67</ele>
<time>2015-04-25T15:50:04Z</time>
</trkpt>
<trkpt lat="35.0882374" lon="32.3012234">
<ele>17.86</ele>
<time>2015-04-25T15:50:06Z</time>
</trkpt>
<trkpt lat="35.0881713" lon="32.3012599">
<ele>17.91</ele>
<time>2015-04-25T15:50:08Z</time>
</trkpt>
<trkpt lat="35.0881135" lon="32.3012961">
<ele>18.67</ele>
<time>2015-04-25T15:50:10Z</time>
</trkpt>
<trkpt lat="35.0880630" lon="32.3013414">
<ele>18.11</ele>
<time>2015-04-25T15:50:12Z</time>
</trkpt>
<trkpt lat="35.0880160" lon="32.3013928">
<ele>17.97</ele>
<time>2015-04-25T15:50:14Z</time>
</trkpt>
<trkpt lat="35.0879678" lon="32.3014514">
<ele>17.19</ele>
<time>2015-04-25T15:50:16Z</time>
</trkpt>
<trkpt lat="35.0879197" lon="32.3015226">
<ele>16.24</ele>
<time>2015-04-25T15:50:18Z</time>
</trkpt>
<trkpt lat="35.0878887" lon="32.3016077">
<ele>16.75</ele>
<time>2015-04-25T15:50:20Z</time>
</trkpt>
<trkpt lat="35.0878760" lon="32.3016950">
<ele>16.63</ele>
<time>2015-04-25T15:50:22Z</time>
</trkpt>
<trkpt lat="35.0878545" lon="32.3017827">
<ele>18.10</ele>
<time>2015-04-25T15:50:24Z</time>
</trkpt>
<trkpt lat="35.0878269" lon="32.3018592">
<ele>19.47</ele>
<time>2015-04-25T15:50:26Z</time>
</trkpt>
<trkpt lat="35.0877875" lon="32.3019243">
<ele>19.06</ele>
<time>2015-04-25T15:50:28Z</time>
</trkpt>
<trkpt lat="35.0877418" lon="32.3019871">
<ele>18.96</ele>
<time>2015-04-25T15:50:30Z</time>
</trkpt>
<trkpt lat="35.0876895" lon="32.3020488">
<ele>18.93</ele>
<time>2015-04-25T15:50:32Z</time>
</trkpt>
<trkpt lat="35.0876345" lon="32.3021090">
<ele>19.68</ele>
<time>2015-04-25T15:50:34Z</time>
</trkpt>
<trkpt lat="35.0875824" lon="32.3021734">
<ele>19.61</ele>
<time>2015-04-25T15:50:36Z</time>
</trkpt>
<trkpt lat="35.0875317" lon="32.3022360">
<ele>19.85</ele>
<time>2015-04-25T15:50:38Z</time>
</trkpt>
<trkpt lat="35.0874820" lon="32.3022930">
<ele>20.41</ele>
<time>2015-04-25T15:50:40Z</time>
</trkpt>
<trkpt lat="35.0874447" lon="32.3023607">
<ele>20.80</ele>
<time>2015-04-25T15:50:42Z</time>
</trkpt>
<trkpt lat="35.0874198" lon="32.3024323">
<ele>21.14</ele>
<time>2015-04-25T15:50:44Z</time>
</trkpt>
<trkpt lat="35.0873860" lon="32.3024920">
<ele>20.98</ele>
<time>2015-04-25T15:50:46Z</time>
</trkpt>
<trkpt lat="35.0873361" lon="32.3025346">
<ele>20.19</ele>
<time>2015-04-25T15:50:48Z</time>
</trkpt>
<trkpt lat="35.0872829" lon="32.3025719">
<ele>19.99</ele>
<time>2015-04-25T15:50:50Z</time>
</trkpt>
<trkpt lat="35.0872314" lon="32.3026149">
<ele>19.94</ele>
<time>2015-04-25T15:50:52Z</time>
</trkpt>
<trkpt lat="35.0871769" lon="32.3026552">
<ele>19.93</ele>
<time>2015-04-25T15:50:54Z</time>
</trkpt>
<trkpt lat="35.0871227" lon="32.3026960">
<ele>20.43</ele>
<time>2015-04-25T15:50:56Z</time>
</trkpt>
<trkpt lat="35.0870691" lon="32.3027348">
<ele>20.05</ele>
<time>2015-04-25T15:50:58Z</time>
</trkpt>
<trkpt lat="35.0870105" lon="32.3027794">
<ele>19.46</ele>
<time>2015-04-25T15:51:00Z</time>
</trkpt>
<trkpt lat="35.0869467" lon="32.3028221">
<ele>19.81</ele>
<time>2015-04-25T15:51:02Z</time>
</trkpt>
<trkpt lat="35.0868830" lon="32.3028506">
<ele>19.90</ele>
<time>2015-04-25T15:51:04Z</time>
</trkpt>
<trkpt lat="35.0868199" lon="32.3028818">
<ele>19.92</ele>
<time>2015-04-25T15:51:06Z</time>
</trkpt>
<trkpt lat="35.0867624" lon="32.3029202">
<ele>19.17</ele>
<time>2015-04-25T15:51:08Z</time>
</trkpt>
<trkpt lat="35.0867211" lon="32.3029682">
<ele>19.49</ele>
<time>2015-04-25T15:51:10Z</time>
</trkpt>
<trkpt lat="35.0866858" lon="32.3030174">
<ele>19.82</ele>
<time>2015-04-25T15:51:12Z</time>
</trkpt>
<trkpt lat="35.0866439" lon="32.3030709">
<ele>20.40</ele>
<time>2015-04-25T15:51:14Z</time>
</trkpt>
<trkpt lat="35.0865992" lon="32.3031350">
<ele>20.79</ele>
<time>2015-04-25T15:51:16Z</time>
</trkpt>
<trkpt lat="35.0865565" lon="32.3031990">
<ele>21.14</ele>
<time>2015-04-25T15:51:18Z</time>
</trkpt>
<trkpt lat="35.0865217" lon="32.3032627">
<ele>20.98</ele>
<time>2015-04-25T15:51:20Z</time>
</trkpt>
<trkpt lat="35.0864767" lon="32.3033221">
<ele>20.44</ele>
<time>2015-04-25T15:51:22Z</time>
</trkpt>
<trkpt lat="35.0864237" lon="32.3033717">
<ele>19.30</ele>
<time>2015-04-25T15:51:24Z</time>
</trkpt>
<trkpt lat="35.0863683" lon="32.3034200">
<ele>19.02</ele>
<time>2015-04-25T15:51:26Z</time>
</trkpt>
<trkpt lat="35.0863050" lon="32.3034587">
<ele>18.95</ele>
<time>2015-04-25T15:51:28Z</time>
</trkpt>
<trkpt lat="35.0862394" lon="32.3035018">
<ele>18.43</ele>
<time>2015-04-25T15:51:30Z</time>
</trkpt>
<trkpt lat="35.0861742" lon="32.3035499">
<ele>18.55</ele>
<time>2015-04-25T15:51:32Z</time>
</trkpt>
<trkpt lat="35.0861042" lon="32.3035946">
<ele>20.08</ele>
<time>2015-04-25T15:51:34Z</time>
</trkpt>
<trkpt lat="35.0860335" lon="32.3036294">
<ele>20.21</ele>
<time>2015-04-25T15:51:36Z</time>
</trkpt>
<trkpt lat="35.0859655" lon="32.3036663">
<ele>20.00</ele>
<time>2015-04-25T15:51:38Z</time>
</trkpt>
<trkpt lat="35.0858952" lon="32.3037080">
<ele>19.19</ele>
<time>2015-04-25T15:51:40Z</time>
</trkpt>
<trkpt lat="35.0858172" lon="32.3037345">
<ele>19.74</ele>
<time>2015-04-25T15:51:42Z</time>
</trkpt>
<trkpt lat="35.0857357" lon="32.3037549">
<ele>19.88</ele>
<time>2015-04-25T15:51:44Z</time>
</trkpt>
<trkpt lat="35.0856573" lon="32.3037601">
<ele>19.91</ele>
<time>2015-04-25T15:51:46Z</time>
</trkpt>
<trkpt lat="35.0855806" lon="32.3037559">
<ele>19.92</ele>
<time>2015-04-25T15:51:48Z</time>
</trkpt>
<trkpt lat="35.0855034" lon="32.3037431">
<ele>19.92</ele>
<time>2015-04-25T15:51:50Z</time>
</trkpt>
<trkpt lat="35.0854223" lon="32.3037478">
<ele>19.92</ele>
<time>2015-04-25T15:51:52Z</time>
</trkpt>
<trkpt lat="35.0853275" lon="32.3037780">
<ele>19.92</ele>
<time>2015-04-25T15:51:54Z</time>
</trkpt>
<trkpt lat="35.0852506" lon="32.3037953">
<ele>19.92</ele>
<time>2015-04-25T15:51:56Z</time>
</trkpt>
<trkpt lat="35.0852058" lon="32.3038081">
<ele>20.42</ele>
<time>2015-04-25T15:51:57Z</time>
</trkpt>
<trkpt lat="35.0851436" lon="32.3038524">
<ele>20.80</ele>
<time>2015-04-25T15:51:59Z</time>
</trkpt>
<trkpt lat="35.0850731" lon="32.3038902">
<ele>20.89</ele>
<time>2015-04-25T15:52:01Z</time>
</trkpt>
<trkpt lat="35.0850095" lon="32.3039079">
<ele>20.92</ele>
<time>2015-04-25T15:52:03Z</time>
</trkpt>
<trkpt lat="35.0849432" lon="32.3039178">
<ele>20.17</ele>
<time>2015-04-25T15:52:05Z</time>
</trkpt>
<trkpt lat="35.0848774" lon="32.3039301">
<ele>19.99</ele>
<time>2015-04-25T15:52:07Z</time>
</trkpt>
<trkpt lat="35.0848058" lon="32.3039434">
<ele>19.44</ele>
<time>2015-04-25T15:52:09Z</time>
</trkpt>
<trkpt lat="35.0847366" lon="32.3039475">
<ele>19.80</ele>
<time>2015-04-25T15:52:11Z</time>
</trkpt>
<trkpt lat="35.0846622" lon="32.3039472">
<ele>19.64</ele>
<time>2015-04-25T15:52:13Z</time>
</trkpt>
<trkpt lat="35.0845876" lon="32.3039503">
<ele>19.10</ele>
<time>2015-04-25T15:52:15Z</time>
</trkpt>
<trkpt lat="35.0845096" lon="32.3039540">
<ele>18.97</ele>
<time>2015-04-25T15:52:17Z</time>
</trkpt>
<trkpt lat="35.0844323" lon="32.3039568">
<ele>19.69</ele>
<time>2015-04-25T15:52:19Z</time>
</trkpt>
<trkpt lat="35.0843510" lon="32.3039545">
<ele>19.12</ele>
<time>2015-04-25T15:52:21Z</time>
</trkpt>
<trkpt lat="35.0842695" lon="32.3039527">
<ele>18.22</ele>
<time>2015-04-25T15:52:23Z</time>
</trkpt>
<trkpt lat="35.0841865" lon="32.3039632">
<ele>18.00</ele>
<time>2015-04-25T15:52:25Z</time>
</trkpt>
<trkpt lat="35.0841084" lon="32.3039814">
<ele>17.94</ele>
<time>2015-04-25T15:52:27Z</time>
</trkpt>
<trkpt lat="35.0840276" lon="32.3040033">
<ele>18.43</ele>
<time>2015-04-25T15:52:29Z</time>
</trkpt>
<trkpt lat="35.0839503" lon="32.3040281">
<ele>18.05</ele>
<time>2015-04-25T15:52:31Z</time>
</trkpt>
<trkpt lat="35.0838819" lon="32.3040595">
<ele>18.71</ele>
<time>2015-04-25T15:52:33Z</time>
</trkpt>
<trkpt lat="35.0838219" lon="32.3041087">
<ele>18.87</ele>
<time>2015-04-25T15:52:35Z</time>
</trkpt>
<trkpt lat="35.0837582" lon="32.3041637">
<ele>18.91</ele>
<time>2015-04-25T15:52:37Z</time>
</trkpt>
<trkpt lat="35.0836896" lon="32.3042143">
<ele>19.42</ele>
<time>2015-04-25T15:52:39Z</time>
</trkpt>
<trkpt lat="35.0836499" lon="32.3042547">
<ele>19.17</ele>
<time>2015-04-25T15:52:40Z</time>
</trkpt>
<trkpt lat="35.0836098" lon="32.3042846">
<ele>19.55</ele>
<time>2015-04-25T15:52:41Z</time>
</trkpt>
<trkpt lat="35.0835473" lon="32.3043246">
<ele>19.58</ele>
<time>2015-04-25T15:52:43Z</time>
</trkpt>
<trkpt lat="35.0834760" lon="32.3043786">
<ele>20.59</ele>
<time>2015-04-25T15:52:45Z</time>
</trkpt>
<trkpt lat="35.0834314" lon="32.3044449">
<ele>20.84</ele>
<time>2015-04-25T15:52:47Z</time>
</trkpt>
<trkpt lat="35.0833788" lon="32.3045033">
<ele>21.65</ele>
<time>2015-04-25T15:52:49Z</time>
</trkpt>
<trkpt lat="35.0833200" lon="32.3045584">
<ele>21.86</ele>
<time>2015-04-25T15:52:51Z</time>
</trkpt>
<trkpt lat="35.0832600" lon="32.3046138">
<ele>21.91</ele>
<time>2015-04-25T15:52:53Z</time>
</trkpt>
<trkpt lat="35.0832090" lon="32.3046784">
<ele>22.67</ele>
<time>2015-04-25T15:52:55Z</time>
</trkpt>
<trkpt lat="35.0831639" lon="32.3047478">
<ele>22.36</ele>
<time>2015-04-25T15:52:57Z</time>
</trkpt>
<trkpt lat="35.0831195" lon="32.3048149">
<ele>22.78</ele>
<time>2015-04-25T15:52:59Z</time>
</trkpt>
<trkpt lat="35.0830719" lon="32.3048830">
<ele>22.89</ele>
<time>2015-04-25T15:53:01Z</time>
</trkpt>
<trkpt lat="35.0830223" lon="32.3049424">
<ele>22.92</ele>
<time>2015-04-25T15:53:03Z</time>
</trkpt>
<trkpt lat="35.0829634" lon="32.3049942">
<ele>21.67</ele>
<time>2015-04-25T15:53:05Z</time>
</trkpt>
<trkpt lat="35.0829005" lon="32.3050431">
<ele>21.11</ele>
<time>2015-04-25T15:53:07Z</time>
</trkpt>
<trkpt lat="35.0828368" lon="32.3051044">
<ele>21.72</ele>
<time>2015-04-25T15:53:09Z</time>
</trkpt>
<trkpt lat="35.0827777" lon="32.3051737">
<ele>21.87</ele>
<time>2015-04-25T15:53:11Z</time>
</trkpt>
<trkpt lat="35.0827040" lon="32.3052672">
<ele>22.41</ele>
<time>2015-04-25T15:53:13Z</time>
</trkpt>
<trkpt lat="35.0826737" lon="32.3053116">
<ele>22.67</ele>
<time>2015-04-25T15:53:14Z</time>
</trkpt>
<trkpt lat="35.0826346" lon="32.3054036">
<ele>23.11</ele>
<time>2015-04-25T15:53:16Z</time>
</trkpt>
<trkpt lat="35.0826037" lon="32.3054836">
<ele>23.22</ele>
<time>2015-04-25T15:53:18Z</time>
</trkpt>
<trkpt lat="35.0825612" lon="32.3055727">
<ele>23.00</ele>
<time>2015-04-25T15:53:20Z</time>
</trkpt>
<trkpt lat="35.0825312" lon="32.3056159">
<ele>23.46</ele>
<time>2015-04-25T15:53:21Z</time>
</trkpt>
<trkpt lat="35.0824999" lon="32.3056611">
<ele>23.69</ele>
<time>2015-04-25T15:53:22Z</time>
</trkpt>
<trkpt lat="35.0824550" lon="32.3057576">
<ele>23.87</ele>
<time>2015-04-25T15:53:24Z</time>
</trkpt>
<trkpt lat="35.0824154" lon="32.3058400">
<ele>23.91</ele>
<time>2015-04-25T15:53:26Z</time>
</trkpt>
<trkpt lat="35.0823752" lon="32.3059217">
<ele>23.17</ele>
<time>2015-04-25T15:53:28Z</time>
</trkpt>
<trkpt lat="35.0823202" lon="32.3060021">
<ele>22.99</ele>
<time>2015-04-25T15:53:30Z</time>
</trkpt>
<trkpt lat="35.0822645" lon="32.3060754">
<ele>23.69</ele>
<time>2015-04-25T15:53:32Z</time>
</trkpt>
<trkpt lat="35.0822228" lon="32.3061394">
<ele>23.12</ele>
<time>2015-04-25T15:53:34Z</time>
</trkpt>
<trkpt lat="35.0821786" lon="32.3062111">
<ele>22.97</ele>
<time>2015-04-25T15:53:36Z</time>
</trkpt>
<trkpt lat="35.0821370" lon="32.3062745">
<ele>22.19</ele>
<time>2015-04-25T15:53:38Z</time>
</trkpt>
<trkpt lat="35.0820938" lon="32.3063205">
<ele>21.49</ele>
<time>2015-04-25T15:53:40Z</time>
</trkpt>
<trkpt lat="35.0820461" lon="32.3063728">
<ele>21.82</ele>
<time>2015-04-25T15:53:42Z</time>
</trkpt>
<trkpt lat="35.0819902" lon="32.3064292">
<ele>21.40</ele>
<time>2015-04-25T15:53:44Z</time>
</trkpt>
<trkpt lat="35.0819394" lon="32.3064860">
<ele>21.79</ele>
<time>2015-04-25T15:53:46Z</time>
</trkpt>
<trkpt lat="35.0818880" lon="32.3065532">
<ele>22.39</ele>
<time>2015-04-25T15:53:48Z</time>
</trkpt>
<trkpt lat="35.0818425" lon="32.3066352">
<ele>22.04</ele>
<time>2015-04-25T15:53:50Z</time>
</trkpt>
<trkpt lat="35.0818098" lon="32.3067243">
<ele>21.45</ele>
<time>2015-04-25T15:53:52Z</time>
</trkpt>
<trkpt lat="35.0817823" lon="32.3068110">
<ele>21.06</ele>
<time>2015-04-25T15:53:54Z</time>
</trkpt>
<trkpt lat="35.0817589" lon="32.3068909">
<ele>21.46</ele>
<time>2015-04-25T15:53:56Z</time>
</trkpt>
<trkpt lat="35.0817345" lon="32.3069731">
<ele>21.31</ele>
<time>2015-04-25T15:53:58Z</time>
</trkpt>
<trkpt lat="35.0817091" lon="32.3070492">
<ele>21.77</ele>
<time>2015-04-25T15:54:00Z</time>
</trkpt>
<trkpt lat="35.0816597" lon="32.3071081">
<ele>21.39</ele>
<time>2015-04-25T15:54:02Z</time>
</trkpt>
<trkpt lat="35.0816040" lon="32.3071631">
<ele>21.79</ele>
<time>2015-04-25T15:54:04Z</time>
</trkpt>
<trkpt lat="35.0815550" lon="32.3072163">
<ele>22.64</ele>
<time>2015-04-25T15:54:06Z</time>
</trkpt>
<trkpt lat="35.0815043" lon="32.3072628">
<ele>23.35</ele>
<time>2015-04-25T15:54:08Z</time>
</trkpt>
<trkpt lat="35.0814588" lon="32.3073074">
<ele>23.28</ele>
<time>2015-04-25T15:54:10Z</time>
</trkpt>
<trkpt lat="35.0814208" lon="32.3073521">
<ele>23.51</ele>
<time>2015-04-25T15:54:12Z</time>
</trkpt>
<trkpt lat="35.0813780" lon="32.3074076">
<ele>23.87</ele>
<time>2015-04-25T15:54:15Z</time>
</trkpt>
<trkpt lat="35.0813431" lon="32.3074436">
<ele>23.41</ele>
<time>2015-04-25T15:54:17Z</time>
</trkpt>
<trkpt lat="35.0813066" lon="32.3074775">
<ele>23.80</ele>
<time>2015-04-25T15:54:19Z</time>
</trkpt>
<trkpt lat="35.0812640" lon="32.3075124">
<ele>24.39</ele>
<time>2015-04-25T15:54:21Z</time>
</trkpt>
<trkpt lat="35.0812194" lon="32.3075569">
<ele>23.54</ele>
<time>2015-04-25T15:54:23Z</time>
</trkpt>
<trkpt lat="35.0811764" lon="32.3076077">
<ele>23.83</ele>
<time>2015-04-25T15:54:25Z</time>
</trkpt>
<trkpt lat="35.0811396" lon="32.3076681">
<ele>24.15</ele>
<time>2015-04-25T15:54:27Z</time>
</trkpt>
<trkpt lat="35.0811093" lon="32.3077392">
<ele>23.23</ele>
<time>2015-04-25T15:54:29Z</time>
</trkpt>
<trkpt lat="35.0810874" lon="32.3078115">
<ele>23.00</ele>
<time>2015-04-25T15:54:31Z</time>
</trkpt>
<trkpt lat="35.0810711" lon="32.3078858">
<ele>22.94</ele>
<time>2015-04-25T15:54:33Z</time>
</trkpt>
<trkpt lat="35.0810524" lon="32.3079513">
<ele>23.43</ele>
<time>2015-04-25T15:54:35Z</time>
</trkpt>
<trkpt lat="35.0810308" lon="32.3080223">
<ele>23.05</ele>
<time>2015-04-25T15:54:37Z</time>
</trkpt>
<trkpt lat="35.0810097" lon="32.3080888">
<ele>22.96</ele>
<time>2015-04-25T15:54:39Z</time>
</trkpt>
<trkpt lat="35.0809889" lon="32.3081536">
<ele>22.93</ele>
<time>2015-04-25T15:54:41Z</time>
</trkpt>
<trkpt lat="35.0809620" lon="32.3082157">
<ele>22.93</ele>
<time>2015-04-25T15:54:43Z</time>
</trkpt>
<trkpt lat="35.0809252" lon="32.3082745">
<ele>23.68</ele>
<time>2015-04-25T15:54:45Z</time>
</trkpt>
<trkpt lat="35.0808780" lon="32.3083237">
<ele>23.86</ele>
<time>2015-04-25T15:54:47Z</time>
</trkpt>
<trkpt lat="35.0808202" lon="32.3083605">
<ele>23.91</ele>
<time>2015-04-25T15:54:49Z</time>
</trkpt>
<trkpt lat="35.0807668" lon="32.3084000">
<ele>24.42</ele>
<time>2015-04-25T15:54:51Z</time>
</trkpt>
<trkpt lat="35.0807048" lon="32.3084351">
<ele>24.30</ele>
<time>2015-04-25T15:54:53Z</time>
</trkpt>
<trkpt lat="35.0806397" lon="32.3084466">
<ele>23.52</ele>
<time>2015-04-25T15:54:55Z</time>
</trkpt>
<trkpt lat="35.0805782" lon="32.3084560">
<ele>23.57</ele>
<time>2015-04-25T15:54:57Z</time>
</trkpt>
<trkpt lat="35.0805248" lon="32.3084749">
<ele>23.09</ele>
<time>2015-04-25T15:54:59Z</time>
</trkpt>
<trkpt lat="35.0804712" lon="32.3085004">
<ele>22.47</ele>
<time>2015-04-25T15:55:01Z</time>
</trkpt>
<trkpt lat="35.0804177" lon="32.3085349">
<ele>22.06</ele>
<time>2015-04-25T15:55:03Z</time>
</trkpt>
<trkpt lat="35.0803560" lon="32.3085810">
<ele>21.96</ele>
<time>2015-04-25T15:55:05Z</time>
</trkpt>
<trkpt lat="35.0802823" lon="32.3086247">
<ele>21.93</ele>
<time>2015-04-25T15:55:07Z</time>
</trkpt>
<trkpt lat="35.0802385" lon="32.3086440">
<ele>21.43</ele>
<time>2015-04-25T15:55:08Z</time>
</trkpt>
<trkpt lat="35.0801759" lon="32.3086588">
<ele>21.18</ele>
<time>2015-04-25T15:55:09Z</time>
</trkpt>
<trkpt lat="35.0801287" lon="32.3086744">
<ele>21.05</ele>
<time>2015-04-25T15:55:10Z</time>
</trkpt>
<trkpt lat="35.0800847" lon="32.3086865">
<ele>20.99</ele>
<time>2015-04-25T15:55:11Z</time>
</trkpt>
<trkpt lat="35.0800390" lon="32.3087029">
<ele>21.46</ele>
<time>2015-04-25T15:55:12Z</time>
</trkpt>
<trkpt lat="35.0800049" lon="32.3087425">
<ele>22.19</ele>
<time>2015-04-25T15:55:13Z</time>
</trkpt>
<trkpt lat="35.0799699" lon="32.3088127">
<ele>22.06</ele>
<time>2015-04-25T15:55:14Z</time>
</trkpt>
<trkpt lat="35.0799368" lon="32.3088826">
<ele>22.49</ele>
<time>2015-04-25T15:55:15Z</time>
</trkpt>
<trkpt lat="35.0799042" lon="32.3089485">
<ele>22.71</ele>
<time>2015-04-25T15:55:16Z</time>
</trkpt>
<trkpt lat="35.0798770" lon="32.3090010">
<ele>22.82</ele>
<time>2015-04-25T15:55:17Z</time>
</trkpt>
<trkpt lat="35.0798496" lon="32.3091089">
<ele>22.90</ele>
<time>2015-04-25T15:55:19Z</time>
</trkpt>
<trkpt lat="35.0798367" lon="32.3091635">
<ele>23.41</ele>
<time>2015-04-25T15:55:20Z</time>
</trkpt>
<trkpt lat="35.0798004" lon="32.3092580">
<ele>23.80</ele>
<time>2015-04-25T15:55:22Z</time>
</trkpt>
<trkpt lat="35.0797789" lon="32.3093494">
<ele>24.39</ele>
<time>2015-04-25T15:55:24Z</time>
</trkpt>
<trkpt lat="35.0797361" lon="32.3094253">
<ele>24.54</ele>
<time>2015-04-25T15:55:26Z</time>
</trkpt>
<trkpt lat="35.0796767" lon="32.3094898">
<ele>25.33</ele>
<time>2015-04-25T15:55:28Z</time>
</trkpt>
<trkpt lat="35.0796224" lon="32.3095515">
<ele>26.28</ele>
<time>2015-04-25T15:55:30Z</time>
</trkpt>
<trkpt lat="35.0795824" lon="32.3096154">
<ele>26.76</ele>
<time>2015-04-25T15:55:32Z</time>
</trkpt>
<trkpt lat="35.0795483" lon="32.3096695">
<ele>26.88</ele>
<time>2015-04-25T15:55:34Z</time>
</trkpt>
<trkpt lat="35.0795201" lon="32.3097266">
<ele>27.66</ele>
<time>2015-04-25T15:55:36Z</time>
</trkpt>
<trkpt lat="35.0795039" lon="32.3097892">
<ele>26.86</ele>
<time>2015-04-25T15:55:38Z</time>
</trkpt>
<trkpt lat="35.0794776" lon="32.3098429">
<ele>26.66</ele>
<time>2015-04-25T15:55:40Z</time>
</trkpt>
<trkpt lat="35.0794463" lon="32.3099008">
<ele>26.11</ele>
<time>2015-04-25T15:55:42Z</time>
</trkpt>
<trkpt lat="35.0794100" lon="32.3099666">
<ele>26.72</ele>
<time>2015-04-25T15:55:44Z</time>
</trkpt>
<trkpt lat="35.0793640" lon="32.3100356">
<ele>25.62</ele>
<time>2015-04-25T15:55:46Z</time>
</trkpt>
<trkpt lat="35.0793121" lon="32.3101067">
<ele>25.35</ele>
<time>2015-04-25T15:55:48Z</time>
</trkpt>
<trkpt lat="35.0792252" lon="32.3101942">
<ele>25.28</ele>
<time>2015-04-25T15:55:50Z</time>
</trkpt>
<trkpt lat="35.0791582" lon="32.3102713">
<ele>24.51</ele>
<time>2015-04-25T15:55:52Z</time>
</trkpt>
<trkpt lat="35.0790797" lon="32.3103309">
<ele>24.07</ele>
<time>2015-04-25T15:55:54Z</time>
</trkpt>
<trkpt lat="35.0790156" lon="32.3103916">
<ele>23.46</ele>
<time>2015-04-25T15:55:56Z</time>
</trkpt>
<trkpt lat="35.0789498" lon="32.3104374">
<ele>23.81</ele>
<time>2015-04-25T15:55:58Z</time>
</trkpt>
<trkpt lat="35.0788781" lon="32.3104765">
<ele>24.65</ele>
<time>2015-04-25T15:56:00Z</time>
</trkpt>
<trkpt lat="35.0788172" lon="32.3105254">
<ele>25.36</ele>
<time>2015-04-25T15:56:02Z</time>
</trkpt>
<trkpt lat="35.0787509" lon="32.3105777">
<ele>25.03</ele>
<time>2015-04-25T15:56:04Z</time>
</trkpt>
<trkpt lat="35.0786908" lon="32.3106431">
<ele>24.95</ele>
<time>2015-04-25T15:56:06Z</time>
</trkpt>
<trkpt lat="35.0786339" lon="32.3107183">
<ele>25.43</ele>
<time>2015-04-25T15:56:08Z</time>
</trkpt>
<trkpt lat="35.0786079" lon="32.3107687">
<ele>25.68</ele>
<time>2015-04-25T15:56:09Z</time>
</trkpt>
<trkpt lat="35.0785674" lon="32.3108362">
<ele>24.36</ele>
<time>2015-04-25T15:56:11Z</time>
</trkpt>
<trkpt lat="35.0785376" lon="32.3108824">
<ele>24.14</ele>
<time>2015-04-25T15:56:12Z</time>
</trkpt>
<trkpt lat="35.0785107" lon="32.3109268">
<ele>24.03</ele>
<time>2015-04-25T15:56:13Z</time>
</trkpt>
<trkpt lat="35.0784571" lon="32.3110131">
<ele>24.70</ele>
<time>2015-04-25T15:56:15Z</time>
</trkpt>
<trkpt lat="35.0784326" lon="32.3110596">
<ele>24.81</ele>
<time>2015-04-25T15:56:16Z</time>
</trkpt>
<trkpt lat="35.0783884" lon="32.3111344">
<ele>24.15</ele>
<time>2015-04-25T15:56:18Z</time>
</trkpt>
<trkpt lat="35.0783493" lon="32.3112150">
<ele>23.98</ele>
<time>2015-04-25T15:56:20Z</time>
</trkpt>
<trkpt lat="35.0783045" lon="32.3113094">
<ele>23.94</ele>
<time>2015-04-25T15:56:22Z</time>
</trkpt>
<trkpt lat="35.0782540" lon="32.3113972">
<ele>23.93</ele>
<time>2015-04-25T15:56:24Z</time>
</trkpt>
<trkpt lat="35.0782072" lon="32.3114820">
<ele>24.68</ele>
<time>2015-04-25T15:56:26Z</time>
</trkpt>
<trkpt lat="35.0781562" lon="32.3115631">
<ele>24.86</ele>
<time>2015-04-25T15:56:28Z</time>
</trkpt>
<trkpt lat="35.0781049" lon="32.3116366">
<ele>24.41</ele>
<time>2015-04-25T15:56:30Z</time>
</trkpt>
<trkpt lat="35.0780574" lon="32.3117094">
<ele>24.80</ele>
<time>2015-04-25T15:56:32Z</time>
</trkpt>
<trkpt lat="35.0780116" lon="32.3117831">
<ele>25.39</ele>
<time>2015-04-25T15:56:34Z</time>
</trkpt>
<trkpt lat="35.0779639" lon="32.3118622">
<ele>25.04</ele>
<time>2015-04-25T15:56:36Z</time>
</trkpt>
<trkpt lat="35.0779199" lon="32.3119319">
<ele>24.95</ele>
<time>2015-04-25T15:56:38Z</time>
</trkpt>
<trkpt lat="35.0778744" lon="32.3120119">
<ele>25.68</ele>
<time>2015-04-25T15:56:40Z</time>
</trkpt>
<trkpt lat="35.0778327" lon="32.3121034">
<ele>25.86</ele>
<time>2015-04-25T15:56:42Z</time>
</trkpt>
<trkpt lat="35.0777865" lon="32.3121894">
<ele>25.66</ele>
<time>2015-04-25T15:56:44Z</time>
</trkpt>
<trkpt lat="35.0777393" lon="32.3122665">
<ele>25.36</ele>
<time>2015-04-25T15:56:46Z</time>
</trkpt>
<trkpt lat="35.0776894" lon="32.3123526">
<ele>25.78</ele>
<time>2015-04-25T15:56:48Z</time>
</trkpt>
<trkpt lat="35.0776395" lon="32.3124361">
<ele>26.39</ele>
<time>2015-04-25T15:56:50Z</time>
</trkpt>
<trkpt lat="35.0775902" lon="32.3125200">
<ele>27.29</ele>
<time>2015-04-25T15:56:52Z</time>
</trkpt>
<trkpt lat="35.0775390" lon="32.3125988">
<ele>27.52</ele>
<time>2015-04-25T15:56:54Z</time>
</trkpt>
<trkpt lat="35.0774898" lon="32.3126744">
<ele>27.32</ele>
<time>2015-04-25T15:56:56Z</time>
</trkpt>
<trkpt lat="35.0774466" lon="32.3127502">
<ele>27.02</ele>
<time>2015-04-25T15:56:58Z</time>
</trkpt>
<trkpt lat="35.0774072" lon="32.3128253">
<ele>26.20</ele>
<time>2015-04-25T15:57:00Z</time>
</trkpt>
<trkpt lat="35.0773687" lon="32.3129003">
<ele>25.99</ele>
<time>2015-04-25T15:57:02Z</time>
</trkpt>
<trkpt lat="35.0773259" lon="32.3129697">
<ele>26.69</ele>
<time>2015-04-25T15:57:04Z</time>
</trkpt>
<trkpt lat="35.0772842" lon="32.3130342">
<ele>26.62</ele>
<time>2015-04-25T15:57:06Z</time>
</trkpt>
<trkpt lat="35.0772377" lon="32.3130977">
<ele>26.85</ele>
<time>2015-04-25T15:57:08Z</time>
</trkpt>
<trkpt lat="35.0771925" lon="32.3131627">
<ele>26.41</ele>
<time>2015-04-25T15:57:10Z</time>
</trkpt>
<trkpt lat="35.0771482" lon="32.3132261">
<ele>26.05</ele>
<time>2015-04-25T15:57:12Z</time>
</trkpt>
<trkpt lat="35.0770972" lon="32.3132905">
<ele>25.96</ele>
<time>2015-04-25T15:57:14Z</time>
</trkpt>
<trkpt lat="35.0770364" lon="32.3133547">
<ele>25.68</ele>
<time>2015-04-25T15:57:16Z</time>
</trkpt>
<trkpt lat="35.0769870" lon="32.3134012">
<ele>25.80</ele>
<time>2015-04-25T15:57:17Z</time>
</trkpt>
<trkpt lat="35.0769463" lon="32.3134390">
<ele>25.36</ele>
<time>2015-04-25T15:57:18Z</time>
</trkpt>
<trkpt lat="35.0769048" lon="32.3134764">
<ele>25.14</ele>
<time>2015-04-25T15:57:19Z</time>
</trkpt>
<trkpt lat="35.0768668" lon="32.3135101">
<ele>25.03</ele>
<time>2015-04-25T15:57:20Z</time>
</trkpt>
<trkpt lat="35.0768251" lon="32.3135470">
<ele>24.98</ele>
<time>2015-04-25T15:57:21Z</time>
</trkpt>
<trkpt lat="35.0767867" lon="32.3135891">
<ele>24.95</ele>
<time>2015-04-25T15:57:22Z</time>
</trkpt>
<trkpt lat="35.0767442" lon="32.3136268">
<ele>24.94</ele>
<time>2015-04-25T15:57:23Z</time>
</trkpt>
<trkpt lat="35.0767097" lon="32.3136630">
<ele>24.93</ele>
<time>2015-04-25T15:57:24Z</time>
</trkpt>
<trkpt lat="35.0766440" lon="32.3137219">
<ele>24.43</ele>
<time>2015-04-25T15:57:26Z</time>
</trkpt>
<trkpt lat="35.0765968" lon="32.3137840">
<ele>24.30</ele>
<time>2015-04-25T15:57:28Z</time>
</trkpt>
<trkpt lat="35.0765511" lon="32.3138489">
<ele>24.02</ele>
<time>2015-04-25T15:57:30Z</time>
</trkpt>
<trkpt lat="35.0765008" lon="32.3139081">
<ele>23.45</ele>
<time>2015-04-25T15:57:32Z</time>
</trkpt>
<trkpt lat="35.0764494" lon="32.3139648">
<ele>22.31</ele>
<time>2015-04-25T15:57:34Z</time>
</trkpt>
<trkpt lat="35.0763957" lon="32.3140160">
<ele>21.52</ele>
<time>2015-04-25T15:57:36Z</time>
</trkpt>
<trkpt lat="35.0763318" lon="32.3140739">
<ele>21.07</ele>
<time>2015-04-25T15:57:38Z</time>
</trkpt>
<trkpt lat="35.0762817" lon="32.3141042">
<ele>21.00</ele>
<time>2015-04-25T15:57:39Z</time>
</trkpt>
<trkpt lat="35.0762442" lon="32.3141374">
<ele>21.46</ele>
<time>2015-04-25T15:57:40Z</time>
</trkpt>
<trkpt lat="35.0762095" lon="32.3141762">
<ele>21.69</ele>
<time>2015-04-25T15:57:41Z</time>
</trkpt>
<trkpt lat="35.0761734" lon="32.3142120">
<ele>21.81</ele>
<time>2015-04-25T15:57:42Z</time>
</trkpt>
<trkpt lat="35.0761325" lon="32.3142490">
<ele>22.37</ele>
<time>2015-04-25T15:57:43Z</time>
</trkpt>
<trkpt lat="35.0760985" lon="32.3142894">
<ele>22.15</ele>
<time>2015-04-25T15:57:44Z</time>
</trkpt>
<trkpt lat="35.0760618" lon="32.3143283">
<ele>22.54</ele>
<time>2015-04-25T15:57:45Z</time>
</trkpt>
<trkpt lat="35.0760045" lon="32.3143935">
<ele>22.83</ele>
<time>2015-04-25T15:57:47Z</time>
</trkpt>
<trkpt lat="35.0759531" lon="32.3144704">
<ele>22.40</ele>
<time>2015-04-25T15:57:49Z</time>
</trkpt>
<trkpt lat="35.0759104" lon="32.3145360">
<ele>22.04</ele>
<time>2015-04-25T15:57:51Z</time>
</trkpt>
<trkpt lat="35.0758622" lon="32.3146090">
<ele>22.20</ele>
<time>2015-04-25T15:57:53Z</time>
</trkpt>
<trkpt lat="35.0758238" lon="32.3146903">
<ele>22.49</ele>
<time>2015-04-25T15:57:55Z</time>
</trkpt>
<trkpt lat="35.0757737" lon="32.3147682">
<ele>22.82</ele>
<time>2015-04-25T15:57:57Z</time>
</trkpt>
<trkpt lat="35.0757199" lon="32.3148369">
<ele>22.90</ele>
<time>2015-04-25T15:57:59Z</time>
</trkpt>
<trkpt lat="35.0756623" lon="32.3149036">
<ele>22.17</ele>
<time>2015-04-25T15:58:01Z</time>
</trkpt>
<trkpt lat="35.0756028" lon="32.3149620">
<ele>21.24</ele>
<time>2015-04-25T15:58:03Z</time>
</trkpt>
<trkpt lat="35.0755424" lon="32.3150307">
<ele>21.25</ele>
<time>2015-04-25T15:58:05Z</time>
</trkpt>
<trkpt lat="35.0754820" lon="32.3150978">
<ele>21.76</ele>
<time>2015-04-25T15:58:07Z</time>
</trkpt>
<trkpt lat="35.0754176" lon="32.3151579">
<ele>21.88</ele>
<time>2015-04-25T15:58:09Z</time>
</trkpt>
<trkpt lat="35.0753575" lon="32.3152207">
<ele>23.16</ele>
<time>2015-04-25T15:58:11Z</time>
</trkpt>
<trkpt lat="35.0752984" lon="32.3152832">
<ele>23.23</ele>
<time>2015-04-25T15:58:13Z</time>
</trkpt>
<trkpt lat="35.0752414" lon="32.3153369">
<ele>23.00</ele>
<time>2015-04-25T15:58:15Z</time>
</trkpt>
<trkpt lat="35.0751819" lon="32.3153898">
<ele>22.94</ele>
<time>2015-04-25T15:58:17Z</time>
</trkpt>
<trkpt lat="35.0751202" lon="32.3154414">
<ele>22.93</ele>
<time>2015-04-25T15:58:19Z</time>
</trkpt>
<trkpt lat="35.0750514" lon="32.3154942">
<ele>22.18</ele>
<time>2015-04-25T15:58:21Z</time>
</trkpt>
<trkpt lat="35.0749828" lon="32.3155485">
<ele>22.49</ele>
<time>2015-04-25T15:58:23Z</time>
</trkpt>
<trkpt lat="35.0749162" lon="32.3156031">
<ele>22.82</ele>
<time>2015-04-25T15:58:25Z</time>
</trkpt>
<trkpt lat="35.0748620" lon="32.3156584">
<ele>22.15</ele>
<time>2015-04-25T15:58:27Z</time>
</trkpt>
<trkpt lat="35.0748093" lon="32.3157143">
<ele>21.73</ele>
<time>2015-04-25T15:58:29Z</time>
</trkpt>
<trkpt lat="35.0747562" lon="32.3157641">
<ele>21.13</ele>
<time>2015-04-25T15:58:31Z</time>
</trkpt>
<trkpt lat="35.0747149" lon="32.3158273">
<ele>21.48</ele>
<time>2015-04-25T15:58:33Z</time>
</trkpt>
<trkpt lat="35.0746820" lon="32.3158990">
<ele>21.56</ele>
<time>2015-04-25T15:58:35Z</time>
</trkpt>
<trkpt lat="35.0746513" lon="32.3159725">
<ele>21.83</ele>
<time>2015-04-25T15:58:37Z</time>
</trkpt>
<trkpt lat="35.0746217" lon="32.3160486">
<ele>21.90</ele>
<time>2015-04-25T15:58:39Z</time>
</trkpt>
<trkpt lat="35.0745898" lon="32.3161275">
<ele>21.17</ele>
<time>2015-04-25T15:58:41Z</time>
</trkpt>
<trkpt lat="35.0745628" lon="32.3162077">
<ele>20.99</ele>
<time>2015-04-25T15:58:43Z</time>
</trkpt>
<trkpt lat="35.0745340" lon="32.3162972">
<ele>20.94</ele>
<time>2015-04-25T15:58:45Z</time>
</trkpt>
<trkpt lat="35.0745219" lon="32.3163623">
<ele>20.43</ele>
<time>2015-04-25T15:58:46Z</time>
</trkpt>
<trkpt lat="35.0744998" lon="32.3164683">
<ele>19.30</ele>
<time>2015-04-25T15:58:48Z</time>
</trkpt>
<trkpt lat="35.0744838" lon="32.3165748">
<ele>19.02</ele>
<time>2015-04-25T15:58:50Z</time>
</trkpt>
<trkpt lat="35.0744630" lon="32.3166620">
<ele>18.95</ele>
<time>2015-04-25T15:58:52Z</time>
</trkpt>
<trkpt lat="35.0744536" lon="32.3167537">
<ele>18.68</ele>
<time>2015-04-25T15:58:54Z</time>
</trkpt>
<trkpt lat="35.0744552" lon="32.3168502">
<ele>17.61</ele>
<time>2015-04-25T15:58:56Z</time>
</trkpt>
<trkpt lat="35.0744601" lon="32.3169451">
<ele>17.10</ele>
<time>2015-04-25T15:58:58Z</time>
</trkpt>
<trkpt lat="35.0744685" lon="32.3170330">
<ele>16.97</ele>
<time>2015-04-25T15:59:00Z</time>
</trkpt>
<trkpt lat="35.0744805" lon="32.3171120">
<ele>17.44</ele>
<time>2015-04-25T15:59:02Z</time>
</trkpt>
<trkpt lat="35.0744873" lon="32.3171911">
<ele>17.05</ele>
<time>2015-04-25T15:59:04Z</time>
</trkpt>
<trkpt lat="35.0744894" lon="32.3172732">
<ele>16.21</ele>
<time>2015-04-25T15:59:06Z</time>
</trkpt>
<trkpt lat="35.0744897" lon="32.3173632">
<ele>16.00</ele>
<time>2015-04-25T15:59:08Z</time>
</trkpt>
<trkpt lat="35.0744725" lon="32.3174496">
<ele>15.69</ele>
<time>2015-04-25T15:59:10Z</time>
</trkpt>
<trkpt lat="35.0744358" lon="32.3175285">
<ele>15.87</ele>
<time>2015-04-25T15:59:12Z</time>
</trkpt>
<trkpt lat="35.0743982" lon="32.3176075">
<ele>16.66</ele>
<time>2015-04-25T15:59:14Z</time>
</trkpt>
<trkpt lat="35.0743652" lon="32.3176963">
<ele>18.11</ele>
<time>2015-04-25T15:59:16Z</time>
</trkpt>
<trkpt lat="35.0743368" lon="32.3177865">
<ele>18.52</ele>
<time>2015-04-25T15:59:17Z</time>
</trkpt>
<trkpt lat="35.0743132" lon="32.3178471">
<ele>19.22</ele>
<time>2015-04-25T15:59:18Z</time>
</trkpt>
<trkpt lat="35.0743017" lon="32.3179051">
<ele>19.07</ele>
<time>2015-04-25T15:59:19Z</time>
</trkpt>
<trkpt lat="35.0742757" lon="32.3179971">
<ele>18.96</ele>
<time>2015-04-25T15:59:21Z</time>
</trkpt>
<trkpt lat="35.0742614" lon="32.3180531">
<ele>20.18</ele>
<time>2015-04-25T15:59:23Z</time>
</trkpt>
<trkpt lat="35.0742750" lon="32.3181160">
<ele>19.71</ele>
<time>2015-04-25T15:59:26Z</time>
</trkpt>
<trkpt lat="35.0742737" lon="32.3181802">
<ele>22.02</ele>
<time>2015-04-25T15:59:29Z</time>
</trkpt>
<trkpt lat="35.0742739" lon="32.3182376">
<ele>22.70</ele>
<time>2015-04-25T15:59:31Z</time>
</trkpt>
<trkpt lat="35.0742672" lon="32.3182990">
<ele>23.62</ele>
<time>2015-04-25T15:59:33Z</time>
</trkpt>
<trkpt lat="35.0742508" lon="32.3183553">
<ele>23.85</ele>
<time>2015-04-25T15:59:35Z</time>
</trkpt>
<trkpt lat="35.0742316" lon="32.3184068">
<ele>23.91</ele>
<time>2015-04-25T15:59:37Z</time>
</trkpt>
<trkpt lat="35.0742002" lon="32.3184728">
<ele>23.92</ele>
<time>2015-04-25T15:59:40Z</time>
</trkpt>
<trkpt lat="35.0741735" lon="32.3185305">
<ele>24.05</ele>
<time>2015-04-25T15:59:43Z</time>
</trkpt>
<trkpt lat="35.0741569" lon="32.3185826">
<ele>24.07</ele>
<time>2015-04-25T15:59:46Z</time>
</trkpt>
<trkpt lat="35.0741284" lon="32.3186454">
<ele>24.12</ele>
<time>2015-04-25T15:59:50Z</time>
</trkpt>
<trkpt lat="35.0741091" lon="32.3187120">
<ele>24.19</ele>
<time>2015-04-25T15:59:54Z</time>
</trkpt>
<trkpt lat="35.0741037" lon="32.3187799">
<ele>23.44</ele>
<time>2015-04-25T15:59:58Z</time>
</trkpt>
<trkpt lat="35.0740817" lon="32.3188375">
<ele>22.24</ele>
<time>2015-04-25T16:00:01Z</time>
</trkpt>
<trkpt lat="35.0740464" lon="32.3189041">
<ele>21.09</ele>
<time>2015-04-25T16:00:04Z</time>
</trkpt>
<trkpt lat="35.0740000" lon="32.3189458">
<ele>20.72</ele>
<time>2015-04-25T16:00:06Z</time>
</trkpt>
<trkpt lat="35.0739496" lon="32.3189826">
<ele>20.37</ele>
<time>2015-04-25T16:00:08Z</time>
</trkpt>
<trkpt lat="35.0739007" lon="32.3190220">
<ele>20.04</ele>
<time>2015-04-25T16:00:10Z</time>
</trkpt>
<trkpt lat="35.0738525" lon="32.3190744">
<ele>19.45</ele>
<time>2015-04-25T16:00:12Z</time>
</trkpt>
<trkpt lat="35.0738314" lon="32.3192022">
<ele>18.56</ele>
<time>2015-04-25T16:00:14Z</time>
</trkpt>
<trkpt lat="35.0738010" lon="32.3193032">
<ele>18.08</ele>
<time>2015-04-25T16:00:16Z</time>
</trkpt>
<trkpt lat="35.0737712" lon="32.3193453">
<ele>17.50</ele>
<time>2015-04-25T16:00:17Z</time>
</trkpt>
<trkpt lat="35.0737332" lon="32.3193896">
<ele>17.71</ele>
<time>2015-04-25T16:00:18Z</time>
</trkpt>
<trkpt lat="35.0736910" lon="32.3194240">
<ele>17.82</ele>
<time>2015-04-25T16:00:19Z</time>
</trkpt>
<trkpt lat="35.0736393" lon="32.3194602">
<ele>17.37</ele>
<time>2015-04-25T16:00:20Z</time>
</trkpt>
<trkpt lat="35.0735874" lon="32.3194931">
<ele>17.15</ele>
<time>2015-04-25T16:00:21Z</time>
</trkpt>
<trkpt lat="35.0735330" lon="32.3195257">
<ele>16.04</ele>
<time>2015-04-25T16:00:22Z</time>
</trkpt>
<trkpt lat="35.0734800" lon="32.3195578">
<ele>14.98</ele>
<time>2015-04-25T16:00:23Z</time>
</trkpt>
<trkpt lat="35.0734267" lon="32.3195893">
<ele>14.45</ele>
<time>2015-04-25T16:00:24Z</time>
</trkpt>
<trkpt lat="35.0733826" lon="32.3196215">
<ele>14.19</ele>
<time>2015-04-25T16:00:25Z</time>
</trkpt>
<trkpt lat="35.0733469" lon="32.3196700">
<ele>14.06</ele>
<time>2015-04-25T16:00:26Z</time>
</trkpt>
<trkpt lat="35.0733018" lon="32.3197562">
<ele>13.96</ele>
<time>2015-04-25T16:00:28Z</time>
</trkpt>
<trkpt lat="35.0732651" lon="32.3198539">
<ele>13.18</ele>
<time>2015-04-25T16:00:30Z</time>
</trkpt>
<trkpt lat="35.0732366" lon="32.3199297">
<ele>13.74</ele>
<time>2015-04-25T16:00:32Z</time>
</trkpt>
<trkpt lat="35.0731834" lon="32.3200026">
<ele>13.88</ele>
<time>2015-04-25T16:00:34Z</time>
</trkpt>
<trkpt lat="35.0731061" lon="32.3200668">
<ele>14.66</ele>
<time>2015-04-25T16:00:36Z</time>
</trkpt>
<trkpt lat="35.0730747" lon="32.3201107">
<ele>15.29</ele>
<time>2015-04-25T16:00:37Z</time>
</trkpt>
<trkpt lat="35.0730513" lon="32.3201581">
<ele>15.61</ele>
<time>2015-04-25T16:00:38Z</time>
</trkpt>
<trkpt lat="35.0730450" lon="32.3202204">
<ele>15.77</ele>
<time>2015-04-25T16:00:39Z</time>
</trkpt>
<trkpt lat="35.0730415" lon="32.3202764">
<ele>15.85</ele>
<time>2015-04-25T16:00:40Z</time>
</trkpt>
<trkpt lat="35.0730416" lon="32.3203684">
<ele>16.66</ele>
<time>2015-04-25T16:00:42Z</time>
</trkpt>
<trkpt lat="35.0730451" lon="32.3204319">
<ele>17.29</ele>
<time>2015-04-25T16:00:43Z</time>
</trkpt>
<trkpt lat="35.0730507" lon="32.3205028">
<ele>17.61</ele>
<time>2015-04-25T16:00:44Z</time>
</trkpt>
<trkpt lat="35.0730336" lon="32.3205987">
<ele>18.60</ele>
<time>2015-04-25T16:00:46Z</time>
</trkpt>
<trkpt lat="35.0730250" lon="32.3206552">
<ele>18.59</ele>
<time>2015-04-25T16:00:48Z</time>
</trkpt>
<trkpt lat="35.0730577" lon="32.3207128">
<ele>18.13</ele>
<time>2015-04-25T16:00:51Z</time>
</trkpt>
<trkpt lat="35.0731040" lon="32.3207580">
<ele>17.70</ele>
<time>2015-04-25T16:00:54Z</time>
</trkpt>
<trkpt lat="35.0731513" lon="32.3207801">
<ele>18.27</ele>
<time>2015-04-25T16:00:57Z</time>
</trkpt>
<trkpt lat="35.0731078" lon="32.3207658">
<ele>18.99</ele>
<time>2015-04-25T16:05:27Z</time>
</trkpt>
<trkpt lat="35.0730733" lon="32.3207165">
<ele>20.80</ele>
<time>2015-04-25T16:05:43Z</time>
</trkpt>
<trkpt lat="35.0730134" lon="32.3207019">
<ele>19.16</ele>
<time>2015-04-25T16:05:46Z</time>
</trkpt>
<trkpt lat="35.0729579" lon="32.3207216">
<ele>19.83</ele>
<time>2015-04-25T16:05:49Z</time>
</trkpt>
<trkpt lat="35.0729135" lon="32.3207638">
<ele>20.66</ele>
<time>2015-04-25T16:05:58Z</time>
</trkpt>
<trkpt lat="35.0728592" lon="32.3208198">
<ele>21.64</ele>
<time>2015-04-25T16:06:01Z</time>
</trkpt>
<trkpt lat="35.0728165" lon="32.3208607">
<ele>21.35</ele>
<time>2015-04-25T16:06:03Z</time>
</trkpt>
<trkpt lat="35.0727701" lon="32.3209006">
<ele>21.03</ele>
<time>2015-04-25T16:06:05Z</time>
</trkpt>
<trkpt lat="35.0727262" lon="32.3209329">
<ele>20.95</ele>
<time>2015-04-25T16:06:07Z</time>
</trkpt>
<trkpt lat="35.0726799" lon="32.3209540">
<ele>21.18</ele>
<time>2015-04-25T16:06:09Z</time>
</trkpt>
<trkpt lat="35.0726355" lon="32.3209668">
<ele>21.74</ele>
<time>2015-04-25T16:06:11Z</time>
</trkpt>
<trkpt lat="35.0725836" lon="32.3209821">
<ele>22.13</ele>
<time>2015-04-25T16:06:13Z</time>
</trkpt>
<trkpt lat="35.0725378" lon="32.3209888">
<ele>22.48</ele>
<time>2015-04-25T16:06:15Z</time>
</trkpt>
<trkpt lat="35.0724763" lon="32.3209984">
<ele>22.62</ele>
<time>2015-04-25T16:06:18Z</time>
</trkpt>
<trkpt lat="35.0724179" lon="32.3210173">
<ele>22.51</ele>
<time>2015-04-25T16:06:21Z</time>
</trkpt>
<trkpt lat="35.0723570" lon="32.3210527">
<ele>23.12</ele>
<time>2015-04-25T16:06:24Z</time>
</trkpt>
<trkpt lat="35.0723140" lon="32.3210714">
<ele>23.72</ele>
<time>2015-04-25T16:06:26Z</time>
</trkpt>
<trkpt lat="35.0722688" lon="32.3210842">
<ele>24.62</ele>
<time>2015-04-25T16:06:28Z</time>
</trkpt>
<trkpt lat="35.0722225" lon="32.3211012">
<ele>25.35</ele>
<time>2015-04-25T16:06:30Z</time>
</trkpt>
<trkpt lat="35.0721776" lon="32.3211241">
<ele>25.78</ele>
<time>2015-04-25T16:06:32Z</time>
</trkpt>
<trkpt lat="35.0721335" lon="32.3211445">
<ele>25.89</ele>
<time>2015-04-25T16:06:34Z</time>
</trkpt>
<trkpt lat="35.0720888" lon="32.3211591">
<ele>25.92</ele>
<time>2015-04-25T16:06:36Z</time>
</trkpt>
<trkpt lat="35.0720436" lon="32.3211625">
<ele>26.42</ele>
<time>2015-04-25T16:06:38Z</time>
</trkpt>
<trkpt lat="35.0719972" lon="32.3211653">
<ele>26.05</ele>
<time>2015-04-25T16:06:40Z</time>
</trkpt>
<trkpt lat="35.0719338" lon="32.3211619">
<ele>25.94</ele>
<time>2015-04-25T16:06:43Z</time>
</trkpt>
<trkpt lat="35.0718737" lon="32.3211628">
<ele>26.68</ele>
<time>2015-04-25T16:06:46Z</time>
</trkpt>
<trkpt lat="35.0718133" lon="32.3211564">
<ele>26.89</ele>
<time>2015-04-25T16:06:49Z</time>
</trkpt>
<trkpt lat="35.0717552" lon="32.3211464">
<ele>26.92</ele>
<time>2015-04-25T16:06:52Z</time>
</trkpt>
<trkpt lat="35.0716984" lon="32.3211458">
<ele>26.92</ele>
<time>2015-04-25T16:06:55Z</time>
</trkpt>
<trkpt lat="35.0716404" lon="32.3211388">
<ele>26.92</ele>
<time>2015-04-25T16:06:58Z</time>
</trkpt>
<trkpt lat="35.0715871" lon="32.3211325">
<ele>26.92</ele>
<time>2015-04-25T16:07:01Z</time>
</trkpt>
<trkpt lat="35.0715398" lon="32.3211071">
<ele>26.99</ele>
<time>2015-04-25T16:07:05Z</time>
</trkpt>
<trkpt lat="35.0714917" lon="32.3210740">
<ele>27.80</ele>
<time>2015-04-25T16:07:09Z</time>
</trkpt>
<trkpt lat="35.0714573" lon="32.3210382">
<ele>28.66</ele>
<time>2015-04-25T16:07:12Z</time>
</trkpt>
<trkpt lat="35.0714182" lon="32.3209999">
<ele>29.77</ele>
<time>2015-04-25T16:07:15Z</time>
</trkpt>
<trkpt lat="35.0713757" lon="32.3209516">
<ele>29.91</ele>
<time>2015-04-25T16:07:18Z</time>
</trkpt>
<trkpt lat="35.0713395" lon="32.3208987">
<ele>30.42</ele>
<time>2015-04-25T16:07:21Z</time>
</trkpt>
<trkpt lat="35.0713090" lon="32.3208441">
<ele>30.86</ele>
<time>2015-04-25T16:07:24Z</time>
</trkpt>
<trkpt lat="35.0712824" lon="32.3207834">
<ele>31.67</ele>
<time>2015-04-25T16:07:28Z</time>
</trkpt>
<trkpt lat="35.0712535" lon="32.3207391">
<ele>31.89</ele>
<time>2015-04-25T16:07:31Z</time>
</trkpt>
<trkpt lat="35.0712302" lon="32.3206897">
<ele>32.67</ele>
<time>2015-04-25T16:07:34Z</time>
</trkpt>
<trkpt lat="35.0711918" lon="32.3206382">
<ele>33.78</ele>
<time>2015-04-25T16:07:38Z</time>
</trkpt>
<trkpt lat="35.0711483" lon="32.3206101">
<ele>34.04</ele>
<time>2015-04-25T16:07:42Z</time>
</trkpt>
<trkpt lat="35.0710934" lon="32.3206233">
<ele>34.43</ele>
<time>2015-04-25T16:07:46Z</time>
</trkpt>
<trkpt lat="35.0710380" lon="32.3206462">
<ele>33.99</ele>
<time>2015-04-25T16:07:49Z</time>
</trkpt>
<trkpt lat="35.0709890" lon="32.3206710">
<ele>34.68</ele>
<time>2015-04-25T16:07:52Z</time>
</trkpt>
<trkpt lat="35.0709375" lon="32.3207069">
<ele>34.10</ele>
<time>2015-04-25T16:07:56Z</time>
</trkpt>
<trkpt lat="35.0708981" lon="32.3207527">
<ele>33.95</ele>
<time>2015-04-25T16:07:59Z</time>
</trkpt>
<trkpt lat="35.0708502" lon="32.3208005">
<ele>33.18</ele>
<time>2015-04-25T16:08:02Z</time>
</trkpt>
<trkpt lat="35.0708070" lon="32.3208659">
<ele>32.96</ele>
<time>2015-04-25T16:08:05Z</time>
</trkpt>
<trkpt lat="35.0707612" lon="32.3209232">
<ele>33.05</ele>
<time>2015-04-25T16:08:08Z</time>
</trkpt>
<trkpt lat="35.0707308" lon="32.3209688">
<ele>32.96</ele>
<time>2015-04-25T16:08:10Z</time>
</trkpt>
<trkpt lat="35.0707009" lon="32.3210194">
<ele>32.93</ele>
<time>2015-04-25T16:08:12Z</time>
</trkpt>
<trkpt lat="35.0706744" lon="32.3210734">
<ele>32.43</ele>
<time>2015-04-25T16:08:14Z</time>
</trkpt>
<trkpt lat="35.0706533" lon="32.3211281">
<ele>32.80</ele>
<time>2015-04-25T16:08:16Z</time>
</trkpt>
<trkpt lat="35.0706237" lon="32.3211722">
<ele>32.89</ele>
<time>2015-04-25T16:08:18Z</time>
</trkpt>
<trkpt lat="35.0705724" lon="32.3212281">
<ele>32.42</ele>
<time>2015-04-25T16:08:21Z</time>
</trkpt>
<trkpt lat="35.0705340" lon="32.3212614">
<ele>32.05</ele>
<time>2015-04-25T16:08:23Z</time>
</trkpt>
<trkpt lat="35.0704754" lon="32.3213078">
<ele>31.96</ele>
<time>2015-04-25T16:08:25Z</time>
</trkpt>
<trkpt lat="35.0704133" lon="32.3213492">
<ele>31.93</ele>
<time>2015-04-25T16:08:27Z</time>
</trkpt>
<trkpt lat="35.0703518" lon="32.3214011">
<ele>31.43</ele>
<time>2015-04-25T16:08:29Z</time>
</trkpt>
<trkpt lat="35.0703130" lon="32.3214637">
<ele>31.55</ele>
<time>2015-04-25T16:08:31Z</time>
</trkpt>
<trkpt lat="35.0702923" lon="32.3215307">
<ele>32.33</ele>
<time>2015-04-25T16:08:33Z</time>
</trkpt>
<trkpt lat="35.0702886" lon="32.3216120">
<ele>32.78</ele>
<time>2015-04-25T16:08:35Z</time>
</trkpt>
<trkpt lat="35.0702945" lon="32.3217001">
<ele>33.64</ele>
<time>2015-04-25T16:08:37Z</time>
</trkpt>
<trkpt lat="35.0703138" lon="32.3217807">
<ele>35.10</ele>
<time>2015-04-25T16:08:39Z</time>
</trkpt>
<trkpt lat="35.0703217" lon="32.3218580">
<ele>36.22</ele>
<time>2015-04-25T16:08:41Z</time>
</trkpt>
<trkpt lat="35.0703064" lon="32.3219320">
<ele>36.50</ele>
<time>2015-04-25T16:08:43Z</time>
</trkpt>
<trkpt lat="35.0702950" lon="32.3220127">
<ele>36.32</ele>
<time>2015-04-25T16:08:45Z</time>
</trkpt>
<trkpt lat="35.0702918" lon="32.3220919">
<ele>36.52</ele>
<time>2015-04-25T16:08:47Z</time>
</trkpt>
<trkpt lat="35.0702962" lon="32.3221732">
<ele>36.82</ele>
<time>2015-04-25T16:08:49Z</time>
</trkpt>
<trkpt lat="35.0703050" lon="32.3222541">
<ele>36.90</ele>
<time>2015-04-25T16:08:51Z</time>
</trkpt>
<trkpt lat="35.0703072" lon="32.3223383">
<ele>37.42</ele>
<time>2015-04-25T16:08:53Z</time>
</trkpt>
<trkpt lat="35.0702978" lon="32.3224112">
<ele>37.80</ele>
<time>2015-04-25T16:08:55Z</time>
</trkpt>
<trkpt lat="35.0702933" lon="32.3224773">
<ele>37.39</ele>
<time>2015-04-25T16:08:57Z</time>
</trkpt>
<trkpt lat="35.0703006" lon="32.3225532">
<ele>35.79</ele>
<time>2015-04-25T16:08:59Z</time>
</trkpt>
<trkpt lat="35.0703186" lon="32.3226078">
<ele>35.36</ele>
<time>2015-04-25T16:09:00Z</time>
</trkpt>
<trkpt lat="35.0703454" lon="32.3226687">
<ele>34.64</ele>
<time>2015-04-25T16:09:01Z</time>
</trkpt>
<trkpt lat="35.0703433" lon="32.3227647">
<ele>34.60</ele>
<time>2015-04-25T16:09:03Z</time>
</trkpt>
<trkpt lat="35.0703472" lon="32.3228593">
<ele>34.09</ele>
<time>2015-04-25T16:09:05Z</time>
</trkpt>
<trkpt lat="35.0703539" lon="32.3229254">
<ele>34.01</ele>
<time>2015-04-25T16:09:06Z</time>
</trkpt>
<trkpt lat="35.0703577" lon="32.3229844">
<ele>33.47</ele>
<time>2015-04-25T16:09:07Z</time>
</trkpt>
<trkpt lat="35.0703652" lon="32.3230480">
<ele>33.20</ele>
<time>2015-04-25T16:09:08Z</time>
</trkpt>
<trkpt lat="35.0703522" lon="32.3231121">
<ele>34.06</ele>
<time>2015-04-25T16:09:09Z</time>
</trkpt>
<trkpt lat="35.0703359" lon="32.3232090">
<ele>34.71</ele>
<time>2015-04-25T16:09:11Z</time>
</trkpt>
<trkpt lat="35.0703164" lon="32.3232989">
<ele>34.87</ele>
<time>2015-04-25T16:09:13Z</time>
</trkpt>
<trkpt lat="35.0703040" lon="32.3233517">
<ele>35.40</ele>
<time>2015-04-25T16:09:14Z</time>
</trkpt>
<trkpt lat="35.0702851" lon="32.3234554">
<ele>35.04</ele>
<time>2015-04-25T16:09:16Z</time>
</trkpt>
<trkpt lat="35.0702733" lon="32.3235121">
<ele>34.98</ele>
<time>2015-04-25T16:09:17Z</time>
</trkpt>
<trkpt lat="35.0702660" lon="32.3236213">
<ele>34.94</ele>
<time>2015-04-25T16:09:19Z</time>
</trkpt>
<trkpt lat="35.0702629" lon="32.3236831">
<ele>34.93</ele>
<time>2015-04-25T16:09:20Z</time>
</trkpt>
<trkpt lat="35.0702525" lon="32.3237866">
<ele>34.93</ele>
<time>2015-04-25T16:09:22Z</time>
</trkpt>
<trkpt lat="35.0702739" lon="32.3238734">
<ele>34.93</ele>
<time>2015-04-25T16:09:24Z</time>
</trkpt>
<trkpt lat="35.0702996" lon="32.3239701">
<ele>34.18</ele>
<time>2015-04-25T16:09:26Z</time>
</trkpt>
<trkpt lat="35.0703172" lon="32.3240263">
<ele>33.55</ele>
<time>2015-04-25T16:09:27Z</time>
</trkpt>
<trkpt lat="35.0703266" lon="32.3240845">
<ele>33.24</ele>
<time>2015-04-25T16:09:28Z</time>
</trkpt>
<trkpt lat="35.0703439" lon="32.3241992">
<ele>32.50</ele>
<time>2015-04-25T16:09:30Z</time>
</trkpt>
<trkpt lat="35.0703303" lon="32.3242889">
<ele>31.57</ele>
<time>2015-04-25T16:09:32Z</time>
</trkpt>
<trkpt lat="35.0703172" lon="32.3243723">
<ele>31.34</ele>
<time>2015-04-25T16:09:34Z</time>
</trkpt>
<trkpt lat="35.0703019" lon="32.3244488">
<ele>31.53</ele>
<time>2015-04-25T16:09:36Z</time>
</trkpt>
<trkpt lat="35.0702720" lon="32.3244934">
<ele>31.93</ele>
<time>2015-04-25T16:11:57Z</time>
</trkpt>
<trkpt lat="35.0702674" lon="32.3245562">
<ele>32.89</ele>
<time>2015-04-25T16:12:02Z</time>
</trkpt>
<trkpt lat="35.0702637" lon="32.3246230">
<ele>32.92</ele>
<time>2015-04-25T16:12:04Z</time>
</trkpt>
<trkpt lat="35.0702513" lon="32.3247036">
<ele>32.17</ele>
<time>2015-04-25T16:12:06Z</time>
</trkpt>
<trkpt lat="35.0702343" lon="32.3247820">
<ele>31.99</ele>
<time>2015-04-25T16:12:08Z</time>
</trkpt>
<trkpt lat="35.0702281" lon="32.3248635">
<ele>31.94</ele>
<time>2015-04-25T16:12:10Z</time>
</trkpt>
<trkpt lat="35.0702277" lon="32.3249459">
<ele>31.18</ele>
<time>2015-04-25T16:12:12Z</time>
</trkpt>
<trkpt lat="35.0702112" lon="32.3250284">
<ele>30.99</ele>
<time>2015-04-25T16:12:14Z</time>
</trkpt>
<trkpt lat="35.0701816" lon="32.3251125">
<ele>30.94</ele>
<time>2015-04-25T16:12:16Z</time>
</trkpt>
<trkpt lat="35.0701445" lon="32.3251852">
<ele>30.93</ele>
<time>2015-04-25T16:12:18Z</time>
</trkpt>
<trkpt lat="35.0701158" lon="32.3252592">
<ele>30.93</ele>
<time>2015-04-25T16:12:20Z</time>
</trkpt>
<trkpt lat="35.0700911" lon="32.3253405">
<ele>31.68</ele>
<time>2015-04-25T16:12:22Z</time>
</trkpt>
<trkpt lat="35.0700642" lon="32.3254223">
<ele>31.86</ele>
<time>2015-04-25T16:12:24Z</time>
</trkpt>
<trkpt lat="35.0700398" lon="32.3254990">
<ele>31.91</ele>
<time>2015-04-25T16:12:26Z</time>
</trkpt>
<trkpt lat="35.0700196" lon="32.3255714">
<ele>32.42</ele>
<time>2015-04-25T16:12:28Z</time>
</trkpt>
<trkpt lat="35.0699963" lon="32.3256372">
<ele>32.05</ele>
<time>2015-04-25T16:12:30Z</time>
</trkpt>
<trkpt lat="35.0699599" lon="32.3256922">
<ele>32.46</ele>
<time>2015-04-25T16:12:32Z</time>
</trkpt>
<trkpt lat="35.0699273" lon="32.3257314">
<ele>32.81</ele>
<time>2015-04-25T16:12:34Z</time>
</trkpt>
<trkpt lat="35.0698959" lon="32.3257718">
<ele>32.41</ele>
<time>2015-04-25T16:12:37Z</time>
</trkpt>
<trkpt lat="35.0698471" lon="32.3258066">
<ele>32.14</ele>
<time>2015-04-25T16:12:41Z</time>
</trkpt>
<trkpt lat="35.0698156" lon="32.3258510">
<ele>32.70</ele>
<time>2015-04-25T16:12:44Z</time>
</trkpt>
<trkpt lat="35.0697750" lon="32.3258964">
<ele>34.47</ele>
<time>2015-04-25T16:12:48Z</time>
</trkpt>
<trkpt lat="35.0697393" lon="32.3259314">
<ele>38.39</ele>
<time>2015-04-25T16:14:42Z</time>
</trkpt>
<trkpt lat="35.0697070" lon="32.3259742">
<ele>38.98</ele>
<time>2015-04-25T16:16:02Z</time>
</trkpt>
<trkpt lat="35.0696964" lon="32.3260296">
<ele>38.98</ele>
<time>2015-04-25T16:16:11Z</time>
</trkpt>
<trkpt lat="35.0696963" lon="32.3260910">
<ele>38.89</ele>
<time>2015-04-25T16:16:17Z</time>
</trkpt>
<trkpt lat="35.0696929" lon="32.3261494">
<ele>38.92</ele>
<time>2015-04-25T16:16:21Z</time>
</trkpt>
<trkpt lat="35.0696850" lon="32.3262182">
<ele>38.49</ele>
<time>2015-04-25T16:16:25Z</time>
</trkpt>
<trkpt lat="35.0696754" lon="32.3262914">
<ele>37.34</ele>
<time>2015-04-25T16:16:29Z</time>
</trkpt>
<trkpt lat="35.0696669" lon="32.3263531">
<ele>36.98</ele>
<time>2015-04-25T16:16:32Z</time>
</trkpt>
<trkpt lat="35.0696606" lon="32.3264232">
<ele>37.68</ele>
<time>2015-04-25T16:16:35Z</time>
</trkpt>
<trkpt lat="35.0696597" lon="32.3264960">
<ele>37.02</ele>
<time>2015-04-25T16:16:38Z</time>
</trkpt>
<trkpt lat="35.0696588" lon="32.3265703">
<ele>36.69</ele>
<time>2015-04-25T16:16:41Z</time>
</trkpt>
<trkpt lat="35.0696510" lon="32.3266456">
<ele>37.27</ele>
<time>2015-04-25T16:16:44Z</time>
</trkpt>
<trkpt lat="35.0696278" lon="32.3267237">
<ele>38.34</ele>
<time>2015-04-25T16:16:47Z</time>
</trkpt>
<trkpt lat="35.0696133" lon="32.3267782">
<ele>38.78</ele>
<time>2015-04-25T16:16:49Z</time>
</trkpt>
<trkpt lat="35.0695980" lon="32.3268300">
<ele>38.89</ele>
<time>2015-04-25T16:16:51Z</time>
</trkpt>
<trkpt lat="35.0695860" lon="32.3268887">
<ele>40.17</ele>
<time>2015-04-25T16:16:53Z</time>
</trkpt>
<trkpt lat="35.0695778" lon="32.3269481">
<ele>40.74</ele>
<time>2015-04-25T16:16:55Z</time>
</trkpt>
<trkpt lat="35.0695744" lon="32.3270084">
<ele>41.38</ele>
<time>2015-04-25T16:16:57Z</time>
</trkpt>
<trkpt lat="35.0695679" lon="32.3270674">
<ele>42.04</ele>
<time>2015-04-25T16:16:59Z</time>
</trkpt>
<trkpt lat="35.0695645" lon="32.3271289">
<ele>41.45</ele>
<time>2015-04-25T16:17:01Z</time>
</trkpt>
<trkpt lat="35.0695571" lon="32.3271858">
<ele>40.31</ele>
<time>2015-04-25T16:17:03Z</time>
</trkpt>
<trkpt lat="35.0695440" lon="32.3272414">
<ele>40.77</ele>
<time>2015-04-25T16:17:05Z</time>
</trkpt>
<trkpt lat="35.0695346" lon="32.3272972">
<ele>40.89</ele>
<time>2015-04-25T16:17:07Z</time>
</trkpt>
<trkpt lat="35.0695241" lon="32.3273534">
<ele>40.17</ele>
<time>2015-04-25T16:17:09Z</time>
</trkpt>
<trkpt lat="35.0695206" lon="32.3274322">
<ele>39.96</ele>
<time>2015-04-25T16:17:12Z</time>
</trkpt>
<trkpt lat="35.0695250" lon="32.3274886">
<ele>40.43</ele>
<time>2015-04-25T16:17:14Z</time>
</trkpt>
<trkpt lat="35.0695280" lon="32.3275498">
<ele>40.80</ele>
<time>2015-04-25T16:17:16Z</time>
</trkpt>
<trkpt lat="35.0695291" lon="32.3276161">
<ele>40.89</ele>
<time>2015-04-25T16:17:18Z</time>
</trkpt>
<trkpt lat="35.0695238" lon="32.3276840">
<ele>40.42</ele>
<time>2015-04-25T16:17:20Z</time>
</trkpt>
<trkpt lat="35.0695110" lon="32.3277588">
<ele>40.80</ele>
<time>2015-04-25T16:17:22Z</time>
</trkpt>
<trkpt lat="35.0694976" lon="32.3278453">
<ele>41.39</ele>
<time>2015-04-25T16:17:24Z</time>
</trkpt>
<trkpt lat="35.0694836" lon="32.3279269">
<ele>41.79</ele>
<time>2015-04-25T16:17:26Z</time>
</trkpt>
<trkpt lat="35.0694658" lon="32.3280005">
<ele>42.14</ele>
<time>2015-04-25T16:17:28Z</time>
</trkpt>
<trkpt lat="35.0694437" lon="32.3280672">
<ele>42.48</ele>
<time>2015-04-25T16:17:30Z</time>
</trkpt>
<trkpt lat="35.0694266" lon="32.3281273">
<ele>43.31</ele>
<time>2015-04-25T16:17:32Z</time>
</trkpt>
<trkpt lat="35.0694070" lon="32.3281912">
<ele>44.85</ele>
<time>2015-04-25T16:17:35Z</time>
</trkpt>
<trkpt lat="35.0693883" lon="32.3282559">
<ele>46.11</ele>
<time>2015-04-25T16:17:39Z</time>
</trkpt>
<trkpt lat="35.0693610" lon="32.3283045">
<ele>46.19</ele>
<time>2015-04-25T16:17:43Z</time>
</trkpt>
<trkpt lat="35.0693266" lon="32.3283512">
<ele>45.68</ele>
<time>2015-04-25T16:17:48Z</time>
</trkpt>
<trkpt lat="35.0693023" lon="32.3284143">
<ele>45.91</ele>
<time>2015-04-25T16:17:52Z</time>
</trkpt>
<trkpt lat="35.0692806" lon="32.3284673">
<ele>45.92</ele>
<time>2015-04-25T16:17:55Z</time>
</trkpt>
<trkpt lat="35.0692602" lon="32.3285215">
<ele>46.67</ele>
<time>2015-04-25T16:17:58Z</time>
</trkpt>
<trkpt lat="35.0692356" lon="32.3285824">
<ele>46.91</ele>
<time>2015-04-25T16:18:02Z</time>
</trkpt>
<trkpt lat="35.0692090" lon="32.3286455">
<ele>48.61</ele>
<time>2015-04-25T16:18:06Z</time>
</trkpt>
<trkpt lat="35.0691813" lon="32.3287062">
<ele>49.16</ele>
<time>2015-04-25T16:18:10Z</time>
</trkpt>
<trkpt lat="35.0691400" lon="32.3287366">
<ele>49.83</ele>
<time>2015-04-25T16:18:13Z</time>
</trkpt>
<trkpt lat="35.0691051" lon="32.3287720">
<ele>50.41</ele>
<time>2015-04-25T16:18:16Z</time>
</trkpt>
<trkpt lat="35.0690693" lon="32.3288220">
<ele>51.77</ele>
<time>2015-04-25T16:18:20Z</time>
</trkpt>
<trkpt lat="35.0690353" lon="32.3288685">
<ele>51.04</ele>
<time>2015-04-25T16:18:24Z</time>
</trkpt>
<trkpt lat="35.0690042" lon="32.3289163">
<ele>51.12</ele>
<time>2015-04-25T16:18:28Z</time>
</trkpt>
<trkpt lat="35.0689859" lon="32.3289855">
<ele>50.62</ele>
<time>2015-04-25T16:18:32Z</time>
</trkpt>
<trkpt lat="35.0689742" lon="32.3290422">
<ele>51.64</ele>
<time>2015-04-25T16:18:35Z</time>
</trkpt>
<trkpt lat="35.0689530" lon="32.3291084">
<ele>53.16</ele>
<time>2015-04-25T16:18:39Z</time>
</trkpt>
<trkpt lat="35.0689438" lon="32.3291756">
<ele>53.88</ele>
<time>2015-04-25T16:18:43Z</time>
</trkpt>
<trkpt lat="35.0689174" lon="32.3292376">
<ele>55.61</ele>
<time>2015-04-25T16:18:47Z</time>
</trkpt>
<trkpt lat="35.0688900" lon="32.3292951">
<ele>55.84</ele>
<time>2015-04-25T16:18:51Z</time>
</trkpt>
<trkpt lat="35.0688829" lon="32.3293592">
<ele>55.17</ele>
<time>2015-04-25T16:18:55Z</time>
</trkpt>
<trkpt lat="35.0688716" lon="32.3294158">
<ele>54.94</ele>
<time>2015-04-25T16:18:59Z</time>
</trkpt>
<trkpt lat="35.0688536" lon="32.3294780">
<ele>54.49</ele>
<time>2015-04-25T16:19:03Z</time>
</trkpt>
<trkpt lat="35.0688201" lon="32.3295269">
<ele>54.52</ele>
<time>2015-04-25T16:19:07Z</time>
</trkpt>
<trkpt lat="35.0687908" lon="32.3295829">
<ele>55.40</ele>
<time>2015-04-25T16:19:11Z</time>
</trkpt>
<trkpt lat="35.0687632" lon="32.3296308">
<ele>58.73</ele>
<time>2015-04-25T16:19:14Z</time>
</trkpt>
<trkpt lat="35.0687332" lon="32.3296804">
<ele>60.53</ele>
<time>2015-04-25T16:19:17Z</time>
</trkpt>
<trkpt lat="35.0687008" lon="32.3297275">
<ele>61.63</ele>
<time>2015-04-25T16:19:20Z</time>
</trkpt>
<trkpt lat="35.0686767" lon="32.3297750">
<ele>62.92</ele>
<time>2015-04-25T16:19:36Z</time>
</trkpt>
<trkpt lat="35.0686501" lon="32.3298243">
<ele>64.77</ele>
<time>2015-04-25T16:19:41Z</time>
</trkpt>
<trkpt lat="35.0686156" lon="32.3298633">
<ele>66.30</ele>
<time>2015-04-25T16:19:47Z</time>
</trkpt>
<trkpt lat="35.0685700" lon="32.3298930">
<ele>67.24</ele>
<time>2015-04-25T16:19:55Z</time>
</trkpt>
<trkpt lat="35.0685260" lon="32.3299049">
<ele>66.94</ele>
<time>2015-04-25T16:20:02Z</time>
</trkpt>
<trkpt lat="35.0684831" lon="32.3299364">
<ele>67.42</ele>
<time>2015-04-25T16:20:13Z</time>
</trkpt>
<trkpt lat="35.0684388" lon="32.3299612">
<ele>68.55</ele>
<time>2015-04-25T16:20:37Z</time>
</trkpt>
<trkpt lat="35.0683975" lon="32.3299833">
<ele>68.80</ele>
<time>2015-04-25T16:20:49Z</time>
</trkpt>
<trkpt lat="35.0683578" lon="32.3300100">
<ele>68.78</ele>
<time>2015-04-25T16:21:06Z</time>
</trkpt>
<trkpt lat="35.0683323" lon="32.3300559">
<ele>69.93</ele>
<time>2015-04-25T16:21:32Z</time>
</trkpt>
<trkpt lat="35.0682872" lon="32.3301092">
<ele>68.78</ele>
<time>2015-04-25T16:25:21Z</time>
</trkpt>
<trkpt lat="35.0682515" lon="32.3301492">
<ele>68.89</ele>
<time>2015-04-25T16:25:23Z</time>
</trkpt>
<trkpt lat="35.0682146" lon="32.3301955">
<ele>66.42</ele>
<time>2015-04-25T16:25:25Z</time>
</trkpt>
<trkpt lat="35.0681706" lon="32.3302414">
<ele>66.05</ele>
<time>2015-04-25T16:25:27Z</time>
</trkpt>
<trkpt lat="35.0681306" lon="32.3302842">
<ele>65.96</ele>
<time>2015-04-25T16:25:29Z</time>
</trkpt>
<trkpt lat="35.0680903" lon="32.3303223">
<ele>65.05</ele>
<time>2015-04-25T16:25:32Z</time>
</trkpt>
<trkpt lat="35.0680568" lon="32.3303619">
<ele>64.93</ele>
<time>2015-04-25T16:25:36Z</time>
</trkpt>
<trkpt lat="35.0680202" lon="32.3303976">
<ele>63.99</ele>
<time>2015-04-25T16:25:40Z</time>
</trkpt>
<trkpt lat="35.0679809" lon="32.3304332">
<ele>64.37</ele>
<time>2015-04-25T16:25:44Z</time>
</trkpt>
<trkpt lat="35.0679672" lon="32.3305073">
<ele>63.45</ele>
<time>2015-04-25T16:25:48Z</time>
</trkpt>
<trkpt lat="35.0679604" lon="32.3305696">
<ele>60.87</ele>
<time>2015-04-25T16:25:51Z</time>
</trkpt>
<trkpt lat="35.0679692" lon="32.3306431">
<ele>59.29</ele>
<time>2015-04-25T16:25:54Z</time>
</trkpt>
<trkpt lat="35.0679601" lon="32.3307164">
<ele>58.10</ele>
<time>2015-04-25T16:25:57Z</time>
</trkpt>
<trkpt lat="35.0679438" lon="32.3307869">
<ele>58.45</ele>
<time>2015-04-25T16:26:00Z</time>
</trkpt>
<trkpt lat="35.0679102" lon="32.3308444">
<ele>58.87</ele>
<time>2015-04-25T16:26:03Z</time>
</trkpt>
<trkpt lat="35.0678767" lon="32.3308955">
<ele>57.54</ele>
<time>2015-04-25T16:26:06Z</time>
</trkpt>
<trkpt lat="35.0678422" lon="32.3309460">
<ele>58.75</ele>
<time>2015-04-25T16:26:09Z</time>
</trkpt>
<trkpt lat="35.0677927" lon="32.3310096">
<ele>58.90</ele>
<time>2015-04-25T16:26:12Z</time>
</trkpt>
<trkpt lat="35.0677515" lon="32.3310563">
<ele>58.17</ele>
<time>2015-04-25T16:26:14Z</time>
</trkpt>
<trkpt lat="35.0677153" lon="32.3310967">
<ele>57.99</ele>
<time>2015-04-25T16:26:16Z</time>
</trkpt>
<trkpt lat="35.0676711" lon="32.3311424">
<ele>58.31</ele>
<time>2015-04-25T16:26:19Z</time>
</trkpt>
<trkpt lat="35.0676375" lon="32.3311992">
<ele>58.85</ele>
<time>2015-04-25T16:26:22Z</time>
</trkpt>
<trkpt lat="35.0676006" lon="32.3312642">
<ele>58.17</ele>
<time>2015-04-25T16:26:25Z</time>
</trkpt>
<trkpt lat="35.0675743" lon="32.3313108">
<ele>57.49</ele>
<time>2015-04-25T16:26:27Z</time>
</trkpt>
<trkpt lat="35.0675335" lon="32.3313584">
<ele>56.82</ele>
<time>2015-04-25T16:26:29Z</time>
</trkpt>
<trkpt lat="35.0674770" lon="32.3314266">
<ele>56.15</ele>
<time>2015-04-25T16:26:31Z</time>
</trkpt>
<trkpt lat="35.0674436" lon="32.3314681">
<ele>56.04</ele>
<time>2015-04-25T16:26:32Z</time>
</trkpt>
<trkpt lat="35.0673860" lon="32.3315370">
<ele>55.48</ele>
<time>2015-04-25T16:26:33Z</time>
</trkpt>
<trkpt lat="35.0673548" lon="32.3315771">
<ele>55.20</ele>
<time>2015-04-25T16:26:34Z</time>
</trkpt>
<trkpt lat="35.0672872" lon="32.3316573">
<ele>54.24</ele>
<time>2015-04-25T16:26:36Z</time>
</trkpt>
<trkpt lat="35.0672441" lon="32.3316884">
<ele>54.08</ele>
<time>2015-04-25T16:26:37Z</time>
</trkpt>
<trkpt lat="35.0672024" lon="32.3317149">
<ele>54.00</ele>
<time>2015-04-25T16:26:38Z</time>
</trkpt>
<trkpt lat="35.0671327" lon="32.3317301">
<ele>53.44</ele>
<time>2015-04-25T16:26:40Z</time>
</trkpt>
<trkpt lat="35.0670834" lon="32.3317579">
<ele>53.05</ele>
<time>2015-04-25T16:26:42Z</time>
</trkpt>
<trkpt lat="35.0670234" lon="32.3317677">
<ele>52.96</ele>
<time>2015-04-25T16:26:44Z</time>
</trkpt>
<trkpt lat="35.0669568" lon="32.3317793">
<ele>53.43</ele>
<time>2015-04-25T16:26:46Z</time>
</trkpt>
<trkpt lat="35.0669022" lon="32.3318036">
<ele>53.80</ele>
<time>2015-04-25T16:26:48Z</time>
</trkpt>
<trkpt lat="35.0668619" lon="32.3318543">
<ele>53.89</ele>
<time>2015-04-25T16:26:50Z</time>
</trkpt>
<trkpt lat="35.0668290" lon="32.3319195">
<ele>54.42</ele>
<time>2015-04-25T16:26:52Z</time>
</trkpt>
<trkpt lat="35.0667962" lon="32.3319796">
<ele>54.80</ele>
<time>2015-04-25T16:26:54Z</time>
</trkpt>
<trkpt lat="35.0667531" lon="32.3320291">
<ele>54.14</ele>
<time>2015-04-25T16:26:56Z</time>
</trkpt>
<trkpt lat="35.0667057" lon="32.3320853">
<ele>53.48</ele>
<time>2015-04-25T16:26:58Z</time>
</trkpt>
<trkpt lat="35.0666569" lon="32.3321424">
<ele>53.06</ele>
<time>2015-04-25T16:27:00Z</time>
</trkpt>
<trkpt lat="35.0665977" lon="32.3321900">
<ele>52.46</ele>
<time>2015-04-25T16:27:02Z</time>
</trkpt>
<trkpt lat="35.0665375" lon="32.3322343">
<ele>52.06</ele>
<time>2015-04-25T16:27:04Z</time>
</trkpt>
<trkpt lat="35.0664709" lon="32.3322650">
<ele>51.96</ele>
<time>2015-04-25T16:27:06Z</time>
</trkpt>
<trkpt lat="35.0664082" lon="32.3322953">
<ele>51.43</ele>
<time>2015-04-25T16:27:08Z</time>
</trkpt>
<trkpt lat="35.0663492" lon="32.3323395">
<ele>51.05</ele>
<time>2015-04-25T16:27:10Z</time>
</trkpt>
<trkpt lat="35.0662818" lon="32.3323874">
<ele>50.21</ele>
<time>2015-04-25T16:27:12Z</time>
</trkpt>
<trkpt lat="35.0661991" lon="32.3324721">
<ele>50.50</ele>
<time>2015-04-25T16:27:14Z</time>
</trkpt>
<trkpt lat="35.0661306" lon="32.3325116">
<ele>50.07</ele>
<time>2015-04-25T16:27:16Z</time>
</trkpt>
<trkpt lat="35.0660518" lon="32.3325400">
<ele>49.46</ele>
<time>2015-04-25T16:27:18Z</time>
</trkpt>
<trkpt lat="35.0659811" lon="32.3326259">
<ele>48.31</ele>
<time>2015-04-25T16:27:20Z</time>
</trkpt>
<trkpt lat="35.0659478" lon="32.3326783">
<ele>47.12</ele>
<time>2015-04-25T16:27:21Z</time>
</trkpt>
<trkpt lat="35.0659080" lon="32.3327518">
<ele>45.52</ele>
<time>2015-04-25T16:27:22Z</time>
</trkpt>
<trkpt lat="35.0658731" lon="32.3328272">
<ele>44.72</ele>
<time>2015-04-25T16:27:23Z</time>
</trkpt>
<trkpt lat="35.0658320" lon="32.3329180">
<ele>44.32</ele>
<time>2015-04-25T16:27:24Z</time>
</trkpt>
<trkpt lat="35.0657956" lon="32.3330132">
<ele>44.12</ele>
<time>2015-04-25T16:27:25Z</time>
</trkpt>
<trkpt lat="35.0657562" lon="32.3330999">
<ele>44.52</ele>
<time>2015-04-25T16:27:26Z</time>
</trkpt>
<trkpt lat="35.0657130" lon="32.3331774">
<ele>45.22</ele>
<time>2015-04-25T16:27:27Z</time>
</trkpt>
<trkpt lat="35.0656746" lon="32.3332420">
<ele>45.57</ele>
<time>2015-04-25T16:27:28Z</time>
</trkpt>
<trkpt lat="35.0656299" lon="32.3332945">
<ele>46.25</ele>
<time>2015-04-25T16:27:29Z</time>
</trkpt>
<trkpt lat="35.0655938" lon="32.3333483">
<ele>46.59</ele>
<time>2015-04-25T16:27:30Z</time>
</trkpt>
<trkpt lat="35.0655693" lon="32.3334051">
<ele>46.26</ele>
<time>2015-04-25T16:27:31Z</time>
</trkpt>
<trkpt lat="35.0655481" lon="32.3334648">
<ele>46.09</ele>
<time>2015-04-25T16:27:32Z</time>
</trkpt>
<trkpt lat="35.0655240" lon="32.3335157">
<ele>46.01</ele>
<time>2015-04-25T16:27:33Z</time>
</trkpt>
<trkpt lat="35.0654682" lon="32.3336018">
<ele>46.20</ele>
<time>2015-04-25T16:27:35Z</time>
</trkpt>
<trkpt lat="35.0654091" lon="32.3336534">
<ele>45.99</ele>
<time>2015-04-25T16:27:37Z</time>
</trkpt>
<trkpt lat="35.0653712" lon="32.3336850">
<ele>45.94</ele>
<time>2015-04-25T16:27:39Z</time>
</trkpt>
<trkpt lat="35.0653204" lon="32.3337340">
<ele>45.93</ele>
<time>2015-04-25T16:27:41Z</time>
</trkpt>
<trkpt lat="35.0652648" lon="32.3337780">
<ele>45.93</ele>
<time>2015-04-25T16:27:43Z</time>
</trkpt>
<trkpt lat="35.0652119" lon="32.3338093">
<ele>45.93</ele>
<time>2015-04-25T16:27:45Z</time>
</trkpt>
<trkpt lat="35.0651707" lon="32.3338403">
<ele>45.93</ele>
<time>2015-04-25T16:27:47Z</time>
</trkpt>
<trkpt lat="35.0651246" lon="32.3338770">
<ele>45.93</ele>
<time>2015-04-25T16:27:49Z</time>
</trkpt>
<trkpt lat="35.0650778" lon="32.3339350">
<ele>44.68</ele>
<time>2015-04-25T16:27:51Z</time>
</trkpt>
<trkpt lat="35.0650362" lon="32.3339959">
<ele>43.80</ele>
<time>2015-04-25T16:27:52Z</time>
</trkpt>
<trkpt lat="35.0649912" lon="32.3340212">
<ele>43.36</ele>
<time>2015-04-25T16:27:53Z</time>
</trkpt>
<trkpt lat="35.0649448" lon="32.3340513">
<ele>43.14</ele>
<time>2015-04-25T16:27:54Z</time>
</trkpt>
<trkpt lat="35.0648964" lon="32.3340910">
<ele>43.03</ele>
<time>2015-04-25T16:27:55Z</time>
</trkpt>
<trkpt lat="35.0648505" lon="32.3341215">
<ele>42.98</ele>
<time>2015-04-25T16:27:56Z</time>
</trkpt>
<trkpt lat="35.0647984" lon="32.3341536">
<ele>43.45</ele>
<time>2015-04-25T16:27:57Z</time>
</trkpt>
<trkpt lat="35.0647505" lon="32.3341930">
<ele>43.69</ele>
<time>2015-04-25T16:27:58Z</time>
</trkpt>
<trkpt lat="35.0647044" lon="32.3342360">
<ele>43.31</ele>
<time>2015-04-25T16:27:59Z</time>
</trkpt>
<trkpt lat="35.0646666" lon="32.3342671">
<ele>43.12</ele>
<time>2015-04-25T16:28:00Z</time>
</trkpt>
<trkpt lat="35.0646002" lon="32.3343279">
<ele>42.97</ele>
<time>2015-04-25T16:28:02Z</time>
</trkpt>
<trkpt lat="35.0645640" lon="32.3343612">
<ele>43.08</ele>
<time>2015-04-25T16:28:07Z</time>
</trkpt>
<trkpt lat="35.0645223" lon="32.3344093">
<ele>43.93</ele>
<time>2015-04-25T16:30:16Z</time>
</trkpt>
<trkpt lat="35.0644878" lon="32.3344631">
<ele>43.93</ele>
<time>2015-04-25T16:30:18Z</time>
</trkpt>
<trkpt lat="35.0644395" lon="32.3344995">
<ele>43.93</ele>
<time>2015-04-25T16:30:20Z</time>
</trkpt>
<trkpt lat="35.0643946" lon="32.3345449">
<ele>43.93</ele>
<time>2015-04-25T16:30:22Z</time>
</trkpt>
<trkpt lat="35.0643546" lon="32.3345919">
<ele>44.43</ele>
<time>2015-04-25T16:30:24Z</time>
</trkpt>
<trkpt lat="35.0643167" lon="32.3346328">
<ele>45.30</ele>
<time>2015-04-25T16:30:26Z</time>
</trkpt>
<trkpt lat="35.0642810" lon="32.3346684">
<ele>45.02</ele>
<time>2015-04-25T16:30:28Z</time>
</trkpt>
<trkpt lat="35.0642396" lon="32.3347323">
<ele>44.94</ele>
<time>2015-04-25T16:30:31Z</time>
</trkpt>
<trkpt lat="35.0642090" lon="32.3348023">
<ele>45.80</ele>
<time>2015-04-25T16:30:34Z</time>
</trkpt>
<trkpt lat="35.0641790" lon="32.3348564">
<ele>45.91</ele>
<time>2015-04-25T16:30:37Z</time>
</trkpt>
<trkpt lat="35.0641546" lon="32.3349168">
<ele>45.92</ele>
<time>2015-04-25T16:30:40Z</time>
</trkpt>
<trkpt lat="35.0641219" lon="32.3349766">
<ele>45.92</ele>
<time>2015-04-25T16:30:43Z</time>
</trkpt>
<trkpt lat="35.0640885" lon="32.3350435">
<ele>45.92</ele>
<time>2015-04-25T16:30:46Z</time>
</trkpt>
<trkpt lat="35.0640676" lon="32.3351177">
<ele>46.05</ele>
<time>2015-04-25T16:30:49Z</time>
</trkpt>
<trkpt lat="35.0640562" lon="32.3351966">
<ele>45.69</ele>
<time>2015-04-25T16:30:52Z</time>
</trkpt>
<trkpt lat="35.0640272" lon="32.3352477">
<ele>44.87</ele>
<time>2015-04-25T16:30:54Z</time>
</trkpt>
<trkpt lat="35.0639794" lon="32.3353215">
<ele>44.91</ele>
<time>2015-04-25T16:30:56Z</time>
</trkpt>
<trkpt lat="35.0639153" lon="32.3353943">
<ele>44.17</ele>
<time>2015-04-25T16:30:58Z</time>
</trkpt>
<trkpt lat="35.0638534" lon="32.3354640">
<ele>43.49</ele>
<time>2015-04-25T16:31:00Z</time>
</trkpt>
<trkpt lat="35.0637980" lon="32.3355279">
<ele>43.32</ele>
<time>2015-04-25T16:31:02Z</time>
</trkpt>
<trkpt lat="35.0637504" lon="32.3355836">
<ele>43.02</ele>
<time>2015-04-25T16:31:04Z</time>
</trkpt>
<trkpt lat="35.0637159" lon="32.3356249">
<ele>42.20</ele>
<time>2015-04-25T16:31:06Z</time>
</trkpt>
<trkpt lat="35.0636798" lon="32.3356725">
<ele>41.99</ele>
<time>2015-04-25T16:31:08Z</time>
</trkpt>
<trkpt lat="35.0636361" lon="32.3357343">
<ele>42.44</ele>
<time>2015-04-25T16:31:10Z</time>
</trkpt>
<trkpt lat="35.0635889" lon="32.3357996">
<ele>42.80</ele>
<time>2015-04-25T16:31:12Z</time>
</trkpt>
<trkpt lat="35.0635457" lon="32.3358697">
<ele>42.89</ele>
<time>2015-04-25T16:31:14Z</time>
</trkpt>
<trkpt lat="35.0634979" lon="32.3359349">
<ele>42.42</ele>
<time>2015-04-25T16:31:16Z</time>
</trkpt>
<trkpt lat="35.0634490" lon="32.3359991">
<ele>42.05</ele>
<time>2015-04-25T16:31:18Z</time>
</trkpt>
<trkpt lat="35.0634002" lon="32.3360630">
<ele>43.21</ele>
<time>2015-04-25T16:31:20Z</time>
</trkpt>
<trkpt lat="35.0633517" lon="32.3361259">
<ele>43.75</ele>
<time>2015-04-25T16:31:22Z</time>
</trkpt>
<trkpt lat="35.0633018" lon="32.3361854">
<ele>43.88</ele>
<time>2015-04-25T16:31:24Z</time>
</trkpt>
<trkpt lat="35.0632502" lon="32.3362381">
<ele>43.91</ele>
<time>2015-04-25T16:31:26Z</time>
</trkpt>
<trkpt lat="35.0631893" lon="32.3362908">
<ele>43.92</ele>
<time>2015-04-25T16:31:28Z</time>
</trkpt>
<trkpt lat="35.0631244" lon="32.3363356">
<ele>44.67</ele>
<time>2015-04-25T16:31:30Z</time>
</trkpt>
<trkpt lat="35.0630535" lon="32.3363685">
<ele>46.11</ele>
<time>2015-04-25T16:31:32Z</time>
</trkpt>
<trkpt lat="35.0629836" lon="32.3364043">
<ele>46.72</ele>
<time>2015-04-25T16:31:34Z</time>
</trkpt>
<trkpt lat="35.0629180" lon="32.3364455">
<ele>46.87</ele>
<time>2015-04-25T16:31:36Z</time>
</trkpt>
<trkpt lat="35.0628614" lon="32.3364906">
<ele>46.41</ele>
<time>2015-04-25T16:31:38Z</time>
</trkpt>
<trkpt lat="35.0628061" lon="32.3365264">
<ele>45.55</ele>
<time>2015-04-25T16:31:40Z</time>
</trkpt>
<trkpt lat="35.0627461" lon="32.3365561">
<ele>44.83</ele>
<time>2015-04-25T16:31:42Z</time>
</trkpt>
<trkpt lat="35.0626862" lon="32.3365822">
<ele>45.65</ele>
<time>2015-04-25T16:31:44Z</time>
</trkpt>
<trkpt lat="35.0626285" lon="32.3366179">
<ele>45.86</ele>
<time>2015-04-25T16:31:46Z</time>
</trkpt>
<trkpt lat="35.0625770" lon="32.3366572">
<ele>46.41</ele>
<time>2015-04-25T16:31:48Z</time>
</trkpt>
<trkpt lat="35.0625304" lon="32.3366971">
<ele>46.30</ele>
<time>2015-04-25T16:31:50Z</time>
</trkpt>
<trkpt lat="35.0624949" lon="32.3367470">
<ele>47.60</ele>
<time>2015-04-25T16:31:53Z</time>
</trkpt>
<trkpt lat="35.0624461" lon="32.3367745">
<ele>49.95</ele>
<time>2015-04-25T16:31:58Z</time>
</trkpt>
<trkpt lat="35.0624012" lon="32.3367773">
<ele>50.74</ele>
<time>2015-04-25T16:32:02Z</time>
</trkpt>
<trkpt lat="35.0623592" lon="32.3368222">
<ele>51.67</ele>
<time>2015-04-25T16:32:07Z</time>
</trkpt>
<trkpt lat="35.0623290" lon="32.3368633">
<ele>50.96</ele>
<time>2015-04-25T16:32:20Z</time>
</trkpt>
<trkpt lat="35.0622868" lon="32.3368830">
<ele>50.93</ele>
<time>2015-04-25T16:32:31Z</time>
</trkpt>
<trkpt lat="35.0622440" lon="32.3369128">
<ele>50.56</ele>
<time>2015-04-25T16:34:23Z</time>
</trkpt>
<trkpt lat="35.0622244" lon="32.3369626">
<ele>50.81</ele>
<time>2015-04-25T16:34:35Z</time>
</trkpt>
<trkpt lat="35.0622037" lon="32.3370116">
<ele>51.89</ele>
<time>2015-04-25T16:34:44Z</time>
</trkpt>
<trkpt lat="35.0621728" lon="32.3370527">
<ele>52.80</ele>
<time>2015-04-25T16:34:50Z</time>
</trkpt>
<trkpt lat="35.0621434" lon="32.3371034">
<ele>55.24</ele>
<time>2015-04-25T16:34:56Z</time>
</trkpt>
<trkpt lat="35.0621092" lon="32.3371415">
<ele>55.68</ele>
<time>2015-04-25T16:35:02Z</time>
</trkpt>
<trkpt lat="35.0620921" lon="32.3371969">
<ele>57.42</ele>
<time>2015-04-25T16:35:10Z</time>
</trkpt>
<trkpt lat="35.0620672" lon="32.3372524">
<ele>56.01</ele>
<time>2015-04-25T16:35:17Z</time>
</trkpt>
<trkpt lat="35.0620447" lon="32.3373037">
<ele>57.08</ele>
<time>2015-04-25T16:35:24Z</time>
</trkpt>
<trkpt lat="35.0620312" lon="32.3373576">
<ele>57.36</ele>
<time>2015-04-25T16:35:37Z</time>
</trkpt>
<trkpt lat="35.0620141" lon="32.3374189">
<ele>59.60</ele>
<time>2015-04-25T16:35:43Z</time>
</trkpt>
<trkpt lat="35.0619968" lon="32.3374763">
<ele>61.84</ele>
<time>2015-04-25T16:35:49Z</time>
</trkpt>
<trkpt lat="35.0619693" lon="32.3375224">
<ele>60.95</ele>
<time>2015-04-25T16:35:54Z</time>
</trkpt>
<trkpt lat="35.0619543" lon="32.3375805">
<ele>61.57</ele>
<time>2015-04-25T16:36:00Z</time>
</trkpt>
<trkpt lat="35.0619519" lon="32.3376370">
<ele>64.70</ele>
<time>2015-04-25T16:36:06Z</time>
</trkpt>
<trkpt lat="35.0619215" lon="32.3376872">
<ele>64.74</ele>
<time>2015-04-25T16:36:14Z</time>
</trkpt>
<trkpt lat="35.0619026" lon="32.3377428">
<ele>67.31</ele>
<time>2015-04-25T16:36:21Z</time>
</trkpt>
<trkpt lat="35.0618806" lon="32.3377945">
<ele>68.65</ele>
<time>2015-04-25T16:36:28Z</time>
</trkpt>
<trkpt lat="35.0618563" lon="32.3378446">
<ele>68.92</ele>
<time>2015-04-25T16:36:36Z</time>
</trkpt>
<trkpt lat="35.0618483" lon="32.3379081">
<ele>70.42</ele>
<time>2015-04-25T16:36:46Z</time>
</trkpt>
<trkpt lat="35.0618346" lon="32.3379645">
<ele>71.66</ele>
<time>2015-04-25T16:36:51Z</time>
</trkpt>
<trkpt lat="35.0618170" lon="32.3380157">
<ele>72.35</ele>
<time>2015-04-25T16:36:56Z</time>
</trkpt>
<trkpt lat="35.0618023" lon="32.3380678">
<ele>70.88</ele>
<time>2015-04-25T16:37:01Z</time>
</trkpt>
<trkpt lat="35.0618044" lon="32.3381290">
<ele>71.89</ele>
<time>2015-04-25T16:37:07Z</time>
</trkpt>
<trkpt lat="35.0617966" lon="32.3381896">
<ele>71.66</ele>
<time>2015-04-25T16:37:14Z</time>
</trkpt>
<trkpt lat="35.0617921" lon="32.3382480">
<ele>71.90</ele>
<time>2015-04-25T16:37:21Z</time>
</trkpt>
<trkpt lat="35.0617856" lon="32.3383062">
<ele>71.42</ele>
<time>2015-04-25T16:37:26Z</time>
</trkpt>
<trkpt lat="35.0617824" lon="32.3383623">
<ele>72.38</ele>
<time>2015-04-25T16:37:31Z</time>
</trkpt>
<trkpt lat="35.0617828" lon="32.3384213">
<ele>73.66</ele>
<time>2015-04-25T16:37:36Z</time>
</trkpt>
<trkpt lat="35.0617732" lon="32.3384779">
<ele>73.92</ele>
<time>2015-04-25T16:37:41Z</time>
</trkpt>
<trkpt lat="35.0617771" lon="32.3385478">
<ele>72.99</ele>
<time>2015-04-25T16:38:30Z</time>
</trkpt>
<trkpt lat="35.0617725" lon="32.3386115">
<ele>72.06</ele>
<time>2015-04-25T16:38:33Z</time>
</trkpt>
<trkpt lat="35.0617717" lon="32.3386712">
<ele>71.46</ele>
<time>2015-04-25T16:38:35Z</time>
</trkpt>
<trkpt lat="35.0617733" lon="32.3387450">
<ele>71.06</ele>
<time>2015-04-25T16:38:37Z</time>
</trkpt>
<trkpt lat="35.0617769" lon="32.3388128">
<ele>70.46</ele>
<time>2015-04-25T16:38:39Z</time>
</trkpt>
<trkpt lat="35.0617802" lon="32.3388828">
<ele>70.06</ele>
<time>2015-04-25T16:38:41Z</time>
</trkpt>
<trkpt lat="35.0617888" lon="32.3389552">
<ele>69.46</ele>
<time>2015-04-25T16:38:43Z</time>
</trkpt>
<trkpt lat="35.0617992" lon="32.3390467">
<ele>69.06</ele>
<time>2015-04-25T16:38:45Z</time>
</trkpt>
<trkpt lat="35.0618047" lon="32.3391342">
<ele>68.96</ele>
<time>2015-04-25T16:38:47Z</time>
</trkpt>
<trkpt lat="35.0618056" lon="32.3392244">
<ele>68.93</ele>
<time>2015-04-25T16:38:49Z</time>
</trkpt>
<trkpt lat="35.0618066" lon="32.3393145">
<ele>68.93</ele>
<time>2015-04-25T16:38:51Z</time>
</trkpt>
<trkpt lat="35.0618082" lon="32.3394107">
<ele>68.93</ele>
<time>2015-04-25T16:38:53Z</time>
</trkpt>
<trkpt lat="35.0618045" lon="32.3395029">
<ele>68.43</ele>
<time>2015-04-25T16:38:55Z</time>
</trkpt>
<trkpt lat="35.0617866" lon="32.3395975">
<ele>68.55</ele>
<time>2015-04-25T16:38:57Z</time>
</trkpt>
<trkpt lat="35.0617525" lon="32.3396796">
<ele>68.83</ele>
<time>2015-04-25T16:38:59Z</time>
</trkpt>
<trkpt lat="35.0617100" lon="32.3397534">
<ele>68.90</ele>
<time>2015-04-25T16:39:01Z</time>
</trkpt>
<trkpt lat="35.0616749" lon="32.3398079">
<ele>69.42</ele>
<time>2015-04-25T16:39:03Z</time>
</trkpt>
<trkpt lat="35.0616344" lon="32.3398469">
<ele>70.30</ele>
<time>2015-04-25T16:39:05Z</time>
</trkpt>
<trkpt lat="35.0615857" lon="32.3398872">
<ele>70.07</ele>
<time>2015-04-25T16:39:09Z</time>
</trkpt>
<trkpt lat="35.0615393" lon="32.3399234">
<ele>70.87</ele>
<time>2015-04-25T16:39:13Z</time>
</trkpt>
<trkpt lat="35.0614839" lon="32.3399707">
<ele>70.92</ele>
<time>2015-04-25T16:39:16Z</time>
</trkpt>
<trkpt lat="35.0614398" lon="32.3400101">
<ele>70.17</ele>
<time>2015-04-25T16:39:18Z</time>
</trkpt>
<trkpt lat="35.0613910" lon="32.3400505">
<ele>69.99</ele>
<time>2015-04-25T16:39:20Z</time>
</trkpt>
<trkpt lat="35.0613322" lon="32.3400916">
<ele>69.94</ele>
<time>2015-04-25T16:39:22Z</time>
</trkpt>
<trkpt lat="35.0612600" lon="32.3401354">
<ele>69.43</ele>
<time>2015-04-25T16:39:24Z</time>
</trkpt>
<trkpt lat="35.0611859" lon="32.3401738">
<ele>69.55</ele>
<time>2015-04-25T16:39:26Z</time>
</trkpt>
<trkpt lat="35.0611110" lon="32.3402153">
<ele>70.58</ele>
<time>2015-04-25T16:39:28Z</time>
</trkpt>
<trkpt lat="35.0610365" lon="32.3402598">
<ele>71.34</ele>
<time>2015-04-25T16:39:30Z</time>
</trkpt>
<trkpt lat="35.0609613" lon="32.3402891">
<ele>71.78</ele>
<time>2015-04-25T16:39:32Z</time>
</trkpt>
<trkpt lat="35.0608922" lon="32.3403126">
<ele>72.64</ele>
<time>2015-04-25T16:39:34Z</time>
</trkpt>
<trkpt lat="35.0608232" lon="32.3403310">
<ele>72.85</ele>
<time>2015-04-25T16:39:36Z</time>
</trkpt>
<trkpt lat="35.0607593" lon="32.3403524">
<ele>72.91</ele>
<time>2015-04-25T16:39:38Z</time>
</trkpt>
<trkpt lat="35.0607132" lon="32.3403740">
<ele>72.92</ele>
<time>2015-04-25T16:39:40Z</time>
</trkpt>
<trkpt lat="35.0606714" lon="32.3403962">
<ele>73.67</ele>
<time>2015-04-25T16:39:42Z</time>
</trkpt>
<trkpt lat="35.0606144" lon="32.3404229">
<ele>74.14</ele>
<time>2015-04-25T16:39:45Z</time>
</trkpt>
<trkpt lat="35.0605573" lon="32.3404604">
<ele>73.95</ele>
<time>2015-04-25T16:39:48Z</time>
</trkpt>
<trkpt lat="35.0605129" lon="32.3404925">
<ele>74.68</ele>
<time>2015-04-25T16:39:50Z</time>
</trkpt>
<trkpt lat="35.0604643" lon="32.3405246">
<ele>75.36</ele>
<time>2015-04-25T16:39:52Z</time>
</trkpt>
<trkpt lat="35.0604135" lon="32.3405517">
<ele>75.78</ele>
<time>2015-04-25T16:39:54Z</time>
</trkpt>
<trkpt lat="35.0603608" lon="32.3405844">
<ele>76.39</ele>
<time>2015-04-25T16:39:56Z</time>
</trkpt>
<trkpt lat="35.0602981" lon="32.3406313">
<ele>76.04</ele>
<time>2015-04-25T16:39:58Z</time>
</trkpt>
<trkpt lat="35.0602606" lon="32.3406630">
<ele>75.98</ele>
<time>2015-04-25T16:39:59Z</time>
</trkpt>
<trkpt lat="35.0602233" lon="32.3406958">
<ele>75.45</ele>
<time>2015-04-25T16:40:00Z</time>
</trkpt>
<trkpt lat="35.0601588" lon="32.3407516">
<ele>74.69</ele>
<time>2015-04-25T16:40:01Z</time>
</trkpt>
<trkpt lat="35.0601177" lon="32.3407985">
<ele>74.31</ele>
<time>2015-04-25T16:40:02Z</time>
</trkpt>
<trkpt lat="35.0600795" lon="32.3408323">
<ele>73.62</ele>
<time>2015-04-25T16:40:03Z</time>
</trkpt>
<trkpt lat="35.0600357" lon="32.3408760">
<ele>73.27</ele>
<time>2015-04-25T16:40:04Z</time>
</trkpt>
<trkpt lat="35.0599959" lon="32.3409167">
<ele>73.10</ele>
<time>2015-04-25T16:40:05Z</time>
</trkpt>
<trkpt lat="35.0599234" lon="32.3409898">
<ele>71.72</ele>
<time>2015-04-25T16:40:07Z</time>
</trkpt>
<trkpt lat="35.0598916" lon="32.3410451">
<ele>71.32</ele>
<time>2015-04-25T16:40:08Z</time>
</trkpt>
<trkpt lat="35.0598514" lon="32.3410794">
<ele>71.12</ele>
<time>2015-04-25T16:40:09Z</time>
</trkpt>
<trkpt lat="35.0598142" lon="32.3411339">
<ele>71.02</ele>
<time>2015-04-25T16:40:10Z</time>
</trkpt>
<trkpt lat="35.0597834" lon="32.3411787">
<ele>70.47</ele>
<time>2015-04-25T16:40:11Z</time>
</trkpt>
<trkpt lat="35.0597524" lon="32.3412384">
<ele>70.70</ele>
<time>2015-04-25T16:40:12Z</time>
</trkpt>
<trkpt lat="35.0597290" lon="32.3412937">
<ele>70.81</ele>
<time>2015-04-25T16:40:13Z</time>
</trkpt>
<trkpt lat="35.0596656" lon="32.3413667">
<ele>70.90</ele>
<time>2015-04-25T16:40:15Z</time>
</trkpt>
<trkpt lat="35.0596132" lon="32.3414377">
<ele>71.42</ele>
<time>2015-04-25T16:40:17Z</time>
</trkpt>
<trkpt lat="35.0595730" lon="32.3414907">
<ele>71.05</ele>
<time>2015-04-25T16:40:19Z</time>
</trkpt>
<trkpt lat="35.0595293" lon="32.3415282">
<ele>71.46</ele>
<time>2015-04-25T16:40:21Z</time>
</trkpt>
<trkpt lat="35.0594885" lon="32.3415848">
<ele>71.74</ele>
<time>2015-04-25T16:40:24Z</time>
</trkpt>
<trkpt lat="35.0594601" lon="32.3416362">
<ele>72.15</ele>
<time>2015-04-25T16:40:27Z</time>
</trkpt>
<trkpt lat="35.0594273" lon="32.3416872">
<ele>71.95</ele>
<time>2015-04-25T16:40:30Z</time>
</trkpt>
<trkpt lat="35.0593973" lon="32.3417299">
<ele>71.18</ele>
<time>2015-04-25T16:40:33Z</time>
</trkpt>
<trkpt lat="35.0593802" lon="32.3417852">
<ele>70.96</ele>
<time>2015-04-25T16:40:36Z</time>
</trkpt>
<trkpt lat="35.0593749" lon="32.3418415">
<ele>70.93</ele>
<time>2015-04-25T16:40:39Z</time>
</trkpt>
<trkpt lat="35.0593595" lon="32.3419091">
<ele>70.93</ele>
<time>2015-04-25T16:40:43Z</time>
</trkpt>
<trkpt lat="35.0593545" lon="32.3419769">
<ele>69.11</ele>
<time>2015-04-25T16:40:47Z</time>
</trkpt>
<trkpt lat="35.0593356" lon="32.3420324">
<ele>67.20</ele>
<time>2015-04-25T16:40:50Z</time>
</trkpt>
<trkpt lat="35.0592961" lon="32.3420652">
<ele>66.49</ele>
<time>2015-04-25T16:40:52Z</time>
</trkpt>
<trkpt lat="35.0592131" lon="32.3420905">
<ele>64.82</ele>
<time>2015-04-25T16:40:54Z</time>
</trkpt>
<trkpt lat="35.0591312" lon="32.3420998">
<ele>64.37</ele>
<time>2015-04-25T16:40:55Z</time>
</trkpt>
<trkpt lat="35.0590792" lon="32.3421058">
<ele>64.15</ele>
<time>2015-04-25T16:40:56Z</time>
</trkpt>
<trkpt lat="35.0590312" lon="32.3421146">
<ele>63.54</ele>
<time>2015-04-25T16:40:57Z</time>
</trkpt>
<trkpt lat="35.0589448" lon="32.3421034">
<ele>62.58</ele>
<time>2015-04-25T16:40:59Z</time>
</trkpt>
<trkpt lat="35.0588893" lon="32.3421048">
<ele>62.25</ele>
<time>2015-04-25T16:41:00Z</time>
</trkpt>
<trkpt lat="35.0588151" lon="32.3421372">
<ele>61.26</ele>
<time>2015-04-25T16:41:02Z</time>
</trkpt>
<trkpt lat="35.0587636" lon="32.3421978">
<ele>60.26</ele>
<time>2015-04-25T16:41:04Z</time>
</trkpt>
<trkpt lat="35.0587235" lon="32.3422812">
<ele>59.51</ele>
<time>2015-04-25T16:41:06Z</time>
</trkpt>
<trkpt lat="35.0586593" lon="32.3423654">
<ele>59.82</ele>
<time>2015-04-25T16:41:08Z</time>
</trkpt>
<trkpt lat="35.0586177" lon="32.3424037">
<ele>58.87</ele>
<time>2015-04-25T16:41:09Z</time>
</trkpt>
<trkpt lat="35.0585829" lon="32.3424464">
<ele>58.40</ele>
<time>2015-04-25T16:41:10Z</time>
</trkpt>
<trkpt lat="35.0585494" lon="32.3424837">
<ele>57.66</ele>
<time>2015-04-25T16:41:11Z</time>
</trkpt>
<trkpt lat="35.0585132" lon="32.3425226">
<ele>57.79</ele>
<time>2015-04-25T16:41:12Z</time>
</trkpt>
<trkpt lat="35.0584768" lon="32.3425622">
<ele>57.86</ele>
<time>2015-04-25T16:41:13Z</time>
</trkpt>
<trkpt lat="35.0584378" lon="32.3425901">
<ele>57.89</ele>
<time>2015-04-25T16:41:14Z</time>
</trkpt>
<trkpt lat="35.0583710" lon="32.3426580">
<ele>57.92</ele>
<time>2015-04-25T16:41:16Z</time>
</trkpt>
<trkpt lat="35.0583346" lon="32.3427006">
<ele>58.42</ele>
<time>2015-04-25T16:41:17Z</time>
</trkpt>
<trkpt lat="35.0582861" lon="32.3427251">
<ele>58.67</ele>
<time>2015-04-25T16:41:18Z</time>
</trkpt>
<trkpt lat="35.0582225" lon="32.3427925">
<ele>58.86</ele>
<time>2015-04-25T16:41:20Z</time>
</trkpt>
<trkpt lat="35.0581877" lon="32.3428280">
<ele>58.39</ele>
<time>2015-04-25T16:41:21Z</time>
</trkpt>
<trkpt lat="35.0581242" lon="32.3428937">
<ele>58.54</ele>
<time>2015-04-25T16:41:23Z</time>
</trkpt>
<trkpt lat="35.0580785" lon="32.3429750">
<ele>57.58</ele>
<time>2015-04-25T16:41:25Z</time>
</trkpt>
<trkpt lat="35.0580248" lon="32.3430508">
<ele>57.59</ele>
<time>2015-04-25T16:41:27Z</time>
</trkpt>
<trkpt lat="35.0579768" lon="32.3431128">
<ele>57.84</ele>
<time>2015-04-25T16:41:29Z</time>
</trkpt>
<trkpt lat="35.0579370" lon="32.3431914">
<ele>58.65</ele>
<time>2015-04-25T16:41:31Z</time>
</trkpt>
<trkpt lat="35.0578948" lon="32.3432934">
<ele>58.11</ele>
<time>2015-04-25T16:41:33Z</time>
</trkpt>
<trkpt lat="35.0578694" lon="32.3433474">
<ele>58.02</ele>
<time>2015-04-25T16:41:34Z</time>
</trkpt>
<trkpt lat="35.0578398" lon="32.3434004">
<ele>57.47</ele>
<time>2015-04-25T16:41:35Z</time>
</trkpt>
<trkpt lat="35.0578109" lon="32.3434482">
<ele>57.20</ele>
<time>2015-04-25T16:41:36Z</time>
</trkpt>
<trkpt lat="35.0577850" lon="32.3435015">
<ele>57.06</ele>
<time>2015-04-25T16:41:37Z</time>
</trkpt>
<trkpt lat="35.0577371" lon="32.3435796">
<ele>56.96</ele>
<time>2015-04-25T16:41:39Z</time>
</trkpt>
<trkpt lat="35.0577110" lon="32.3436252">
<ele>57.44</ele>
<time>2015-04-25T16:41:40Z</time>
</trkpt>
<trkpt lat="35.0576571" lon="32.3437027">
<ele>57.30</ele>
<time>2015-04-25T16:41:42Z</time>
</trkpt>
<trkpt lat="35.0576030" lon="32.3437796">
<ele>56.52</ele>
<time>2015-04-25T16:41:44Z</time>
</trkpt>
<trkpt lat="35.0575567" lon="32.3438668">
<ele>56.07</ele>
<time>2015-04-25T16:41:46Z</time>
</trkpt>
<trkpt lat="35.0575156" lon="32.3439612">
<ele>55.96</ele>
<time>2015-04-25T16:41:48Z</time>
</trkpt>
<trkpt lat="35.0574941" lon="32.3440608">
<ele>55.93</ele>
<time>2015-04-25T16:41:50Z</time>
</trkpt>
<trkpt lat="35.0574623" lon="32.3441501">
<ele>55.93</ele>
<time>2015-04-25T16:41:52Z</time>
</trkpt>
<trkpt lat="35.0574277" lon="32.3442501">
<ele>55.43</ele>
<time>2015-04-25T16:41:54Z</time>
</trkpt>
<trkpt lat="35.0573994" lon="32.3442956">
<ele>55.18</ele>
<time>2015-04-25T16:41:55Z</time>
</trkpt>
<trkpt lat="35.0573656" lon="32.3443354">
<ele>55.05</ele>
<time>2015-04-25T16:41:56Z</time>
</trkpt>
<trkpt lat="35.0573250" lon="32.3443600">
<ele>54.99</ele>
<time>2015-04-25T16:41:57Z</time>
</trkpt>
<trkpt lat="35.0572724" lon="32.3444128">
<ele>54.69</ele>
<time>2015-04-25T16:41:59Z</time>
</trkpt>
<trkpt lat="35.0572298" lon="32.3444566">
<ele>54.87</ele>
<time>2015-04-25T16:42:01Z</time>
</trkpt>
<trkpt lat="35.0571908" lon="32.3444902">
<ele>53.92</ele>
<time>2015-04-25T16:43:03Z</time>
</trkpt>
<trkpt lat="35.0571678" lon="32.3445443">
<ele>51.41</ele>
<time>2015-04-25T16:48:48Z</time>
</trkpt>
<trkpt lat="35.0571289" lon="32.3446179">
<ele>51.55</ele>
<time>2015-04-25T16:48:50Z</time>
</trkpt>
<trkpt lat="35.0570783" lon="32.3447451">
<ele>51.08</ele>
<time>2015-04-25T16:48:52Z</time>
</trkpt>
<trkpt lat="35.0570552" lon="32.3447990">
<ele>51.00</ele>
<time>2015-04-25T16:48:53Z</time>
</trkpt>
<trkpt lat="35.0570335" lon="32.3449025">
<ele>50.19</ele>
<time>2015-04-25T16:48:55Z</time>
</trkpt>
<trkpt lat="35.0570247" lon="32.3450074">
<ele>49.74</ele>
<time>2015-04-25T16:48:57Z</time>
</trkpt>
<trkpt lat="35.0570289" lon="32.3450719">
<ele>48.83</ele>
<time>2015-04-25T16:48:58Z</time>
</trkpt>
<trkpt lat="35.0569841" lon="32.3451763">
<ele>48.15</ele>
<time>2015-04-25T16:49:00Z</time>
</trkpt>
<trkpt lat="35.0569305" lon="32.3452539">
<ele>47.73</ele>
<time>2015-04-25T16:49:02Z</time>
</trkpt>
<trkpt lat="35.0568962" lon="32.3453460">
<ele>46.63</ele>
<time>2015-04-25T16:49:04Z</time>
</trkpt>
<trkpt lat="35.0569156" lon="32.3454388">
<ele>44.85</ele>
<time>2015-04-25T16:49:06Z</time>
</trkpt>
<trkpt lat="35.0569271" lon="32.3455466">
<ele>43.41</ele>
<time>2015-04-25T16:49:08Z</time>
</trkpt>
<trkpt lat="35.0569002" lon="32.3456262">
<ele>41.80</ele>
<time>2015-04-25T16:49:10Z</time>
</trkpt>
<trkpt lat="35.0568750" lon="32.3456896">
<ele>41.14</ele>
<time>2015-04-25T16:49:12Z</time>
</trkpt>
<trkpt lat="35.0568223" lon="32.3457400">
<ele>40.23</ele>
<time>2015-04-25T16:49:14Z</time>
</trkpt>
<trkpt lat="35.0567755" lon="32.3457469">
<ele>40.58</ele>
<time>2015-04-25T16:49:15Z</time>
</trkpt>
<trkpt lat="35.0567235" lon="32.3457292">
<ele>40.84</ele>
<time>2015-04-25T16:49:17Z</time>
</trkpt>
<trkpt lat="35.0566782" lon="32.3457129">
<ele>40.40</ele>
<time>2015-04-25T16:49:19Z</time>
</trkpt>
<trkpt lat="35.0566265" lon="32.3456891">
<ele>39.29</ele>
<time>2015-04-25T16:49:21Z</time>
</trkpt>
<trkpt lat="35.0565404" lon="32.3456297">
<ele>38.11</ele>
<time>2015-04-25T16:49:22Z</time>
</trkpt>
<trkpt lat="35.0564952" lon="32.3455989">
<ele>37.52</ele>
<time>2015-04-25T16:49:23Z</time>
</trkpt>
<trkpt lat="35.0564554" lon="32.3455537">
<ele>36.72</ele>
<time>2015-04-25T16:49:24Z</time>
</trkpt>
<trkpt lat="35.0564135" lon="32.3455147">
<ele>35.82</ele>
<time>2015-04-25T16:49:25Z</time>
</trkpt>
<trkpt lat="35.0563632" lon="32.3454972">
<ele>36.37</ele>
<time>2015-04-25T16:49:26Z</time>
</trkpt>
<trkpt lat="35.0563159" lon="32.3454745">
<ele>36.15</ele>
<time>2015-04-25T16:49:27Z</time>
</trkpt>
<trkpt lat="35.0562796" lon="32.3455225">
<ele>37.04</ele>
<time>2015-04-25T16:49:28Z</time>
</trkpt>
<trkpt lat="35.0562574" lon="32.3455901">
<ele>37.70</ele>
<time>2015-04-25T16:49:30Z</time>
</trkpt>
<trkpt lat="35.0562160" lon="32.3456370">
<ele>38.02</ele>
<time>2015-04-25T16:49:33Z</time>
</trkpt>
<trkpt lat="35.0561858" lon="32.3457000">
<ele>37.94</ele>
<time>2015-04-25T16:49:36Z</time>
</trkpt>
<trkpt lat="35.0561718" lon="32.3457527">
<ele>37.93</ele>
<time>2015-04-25T16:49:38Z</time>
</trkpt>
<trkpt lat="35.0561619" lon="32.3458078">
<ele>38.43</ele>
<time>2015-04-25T16:49:40Z</time>
</trkpt>
<trkpt lat="35.0561633" lon="32.3458657">
<ele>39.30</ele>
<time>2015-04-25T16:49:42Z</time>
</trkpt>
<trkpt lat="35.0561685" lon="32.3459213">
<ele>39.77</ele>
<time>2015-04-25T16:49:44Z</time>
</trkpt>
<trkpt lat="35.0561710" lon="32.3459807">
<ele>39.91</ele>
<time>2015-04-25T16:49:47Z</time>
</trkpt>
<trkpt lat="35.0561463" lon="32.3460319">
<ele>40.42</ele>
<time>2015-04-25T16:49:50Z</time>
</trkpt>
<trkpt lat="35.0561517" lon="32.3460922">
<ele>38.24</ele>
<time>2015-04-25T16:53:40Z</time>
</trkpt>
<trkpt lat="35.0561631" lon="32.3461570">
<ele>38.00</ele>
<time>2015-04-25T16:53:42Z</time>
</trkpt>
<trkpt lat="35.0561880" lon="32.3462350">
<ele>37.19</ele>
<time>2015-04-25T16:53:44Z</time>
</trkpt>
<trkpt lat="35.0562139" lon="32.3463873">
<ele>36.24</ele>
<time>2015-04-25T16:53:46Z</time>
</trkpt>
<trkpt lat="35.0562239" lon="32.3464466">
<ele>35.58</ele>
<time>2015-04-25T16:53:47Z</time>
</trkpt>
<trkpt lat="35.0562340" lon="32.3465025">
<ele>34.75</ele>
<time>2015-04-25T16:53:48Z</time>
</trkpt>
<trkpt lat="35.0562441" lon="32.3465771">
<ele>33.84</ele>
<time>2015-04-25T16:53:49Z</time>
</trkpt>
<trkpt lat="35.0562513" lon="32.3466581">
<ele>33.38</ele>
<time>2015-04-25T16:53:50Z</time>
</trkpt>
<trkpt lat="35.0562557" lon="32.3467379">
<ele>33.15</ele>
<time>2015-04-25T16:53:51Z</time>
</trkpt>
<trkpt lat="35.0562586" lon="32.3468232">
<ele>32.04</ele>
<time>2015-04-25T16:53:52Z</time>
</trkpt>
<trkpt lat="35.0562550" lon="32.3469168">
<ele>31.48</ele>
<time>2015-04-25T16:53:53Z</time>
</trkpt>
<trkpt lat="35.0562435" lon="32.3470092">
<ele>31.20</ele>
<time>2015-04-25T16:53:54Z</time>
</trkpt>
<trkpt lat="35.0562257" lon="32.3470694">
<ele>31.06</ele>
<time>2015-04-25T16:53:55Z</time>
</trkpt>
<trkpt lat="35.0562032" lon="32.3471343">
<ele>30.99</ele>
<time>2015-04-25T16:53:56Z</time>
</trkpt>
<trkpt lat="35.0561824" lon="32.3471932">
<ele>30.96</ele>
<time>2015-04-25T16:53:57Z</time>
</trkpt>
<trkpt lat="35.0561472" lon="32.3472437">
<ele>30.94</ele>
<time>2015-04-25T16:53:58Z</time>
</trkpt>
<trkpt lat="35.0560550" lon="32.3472740">
<ele>30.18</ele>
<time>2015-04-25T16:54:00Z</time>
</trkpt>
<trkpt lat="35.0559690" lon="32.3472608">
<ele>29.49</ele>
<time>2015-04-25T16:54:02Z</time>
</trkpt>
<trkpt lat="35.0559134" lon="32.3472279">
<ele>29.21</ele>
<time>2015-04-25T16:54:03Z</time>
</trkpt>
<trkpt lat="35.0558732" lon="32.3471972">
<ele>29.57</ele>
<time>2015-04-25T16:54:04Z</time>
</trkpt>
<trkpt lat="35.0558021" lon="32.3471364">
<ele>29.59</ele>
<time>2015-04-25T16:54:06Z</time>
</trkpt>
<trkpt lat="35.0557638" lon="32.3471040">
<ele>29.26</ele>
<time>2015-04-25T16:54:07Z</time>
</trkpt>
<trkpt lat="35.0557316" lon="32.3470589">
<ele>29.09</ele>
<time>2015-04-25T16:54:08Z</time>
</trkpt>
<trkpt lat="35.0556851" lon="32.3469677">
<ele>27.72</ele>
<time>2015-04-25T16:54:10Z</time>
</trkpt>
<trkpt lat="35.0556537" lon="32.3469127">
<ele>26.82</ele>
<time>2015-04-25T16:54:11Z</time>
</trkpt>
<trkpt lat="35.0556208" lon="32.3468516">
<ele>25.87</ele>
<time>2015-04-25T16:54:12Z</time>
</trkpt>
<trkpt lat="35.0555702" lon="32.3467980">
<ele>26.40</ele>
<time>2015-04-25T16:54:13Z</time>
</trkpt>
<trkpt lat="35.0555188" lon="32.3467782">
<ele>26.66</ele>
<time>2015-04-25T16:54:14Z</time>
</trkpt>
<trkpt lat="35.0554707" lon="32.3467778">
<ele>26.29</ele>
<time>2015-04-25T16:54:15Z</time>
</trkpt>
<trkpt lat="35.0553995" lon="32.3468221">
<ele>26.52</ele>
<time>2015-04-25T16:54:17Z</time>
</trkpt>
<trkpt lat="35.0553579" lon="32.3468688">
<ele>27.32</ele>
<time>2015-04-25T16:54:19Z</time>
</trkpt>
<trkpt lat="35.0553357" lon="32.3469352">
<ele>28.02</ele>
<time>2015-04-25T16:54:21Z</time>
</trkpt>
<trkpt lat="35.0553176" lon="32.3470069">
<ele>28.45</ele>
<time>2015-04-25T16:54:23Z</time>
</trkpt>
<trkpt lat="35.0552992" lon="32.3470864">
<ele>30.31</ele>
<time>2015-04-25T16:54:25Z</time>
</trkpt>
<trkpt lat="35.0552766" lon="32.3471662">
<ele>31.27</ele>
<time>2015-04-25T16:54:27Z</time>
</trkpt>
<trkpt lat="35.0552423" lon="32.3472412">
<ele>31.76</ele>
<time>2015-04-25T16:54:29Z</time>
</trkpt>
<trkpt lat="35.0552086" lon="32.3473007">
<ele>31.88</ele>
<time>2015-04-25T16:54:31Z</time>
</trkpt>
<trkpt lat="35.0551717" lon="32.3473496">
<ele>32.41</ele>
<time>2015-04-25T16:54:33Z</time>
</trkpt>
<trkpt lat="35.0551242" lon="32.3473885">
<ele>32.80</ele>
<time>2015-04-25T16:54:35Z</time>
</trkpt>
<trkpt lat="35.0550641" lon="32.3474245">
<ele>32.89</ele>
<time>2015-04-25T16:54:37Z</time>
</trkpt>
<trkpt lat="35.0550093" lon="32.3474617">
<ele>32.92</ele>
<time>2015-04-25T16:54:39Z</time>
</trkpt>
<trkpt lat="35.0549550" lon="32.3474916">
<ele>33.42</ele>
<time>2015-04-25T16:54:41Z</time>
</trkpt>
<trkpt lat="35.0549062" lon="32.3475155">
<ele>33.80</ele>
<time>2015-04-25T16:54:43Z</time>
</trkpt>
<trkpt lat="35.0548473" lon="32.3475430">
<ele>34.14</ele>
<time>2015-04-25T16:54:45Z</time>
</trkpt>
<trkpt lat="35.0547850" lon="32.3475654">
<ele>34.48</ele>
<time>2015-04-25T16:54:47Z</time>
</trkpt>
<trkpt lat="35.0547187" lon="32.3475856">
<ele>34.81</ele>
<time>2015-04-25T16:54:49Z</time>
</trkpt>
<trkpt lat="35.0546580" lon="32.3476012">
<ele>34.90</ele>
<time>2015-04-25T16:54:51Z</time>
</trkpt>
<trkpt lat="35.0545961" lon="32.3476096">
<ele>33.67</ele>
<time>2015-04-25T16:54:53Z</time>
</trkpt>
<trkpt lat="35.0545418" lon="32.3476147">
<ele>32.86</ele>
<time>2015-04-25T16:54:55Z</time>
</trkpt>
<trkpt lat="35.0544973" lon="32.3476230">
<ele>33.17</ele>
<time>2015-04-25T16:54:59Z</time>
</trkpt>
<trkpt lat="35.0544458" lon="32.3476281">
<ele>34.38</ele>
<time>2015-04-25T16:55:03Z</time>
</trkpt>
<trkpt lat="35.0543960" lon="32.3476310">
<ele>35.36</ele>
<time>2015-04-25T16:55:06Z</time>
</trkpt>
<trkpt lat="35.0543407" lon="32.3476384">
<ele>36.60</ele>
<time>2015-04-25T16:55:09Z</time>
</trkpt>
<trkpt lat="35.0542833" lon="32.3476559">
<ele>36.88</ele>
<time>2015-04-25T16:55:12Z</time>
</trkpt>
<trkpt lat="35.0542232" lon="32.3476739">
<ele>36.42</ele>
<time>2015-04-25T16:55:15Z</time>
</trkpt>
<trkpt lat="35.0541615" lon="32.3476901">
<ele>36.86</ele>
<time>2015-04-25T16:55:18Z</time>
</trkpt>
<trkpt lat="35.0541061" lon="32.3477170">
<ele>37.17</ele>
<time>2015-04-25T16:55:21Z</time>
</trkpt>
<trkpt lat="35.0540532" lon="32.3477405">
<ele>37.83</ele>
<time>2015-04-25T16:55:24Z</time>
</trkpt>
<trkpt lat="35.0539995" lon="32.3477774">
<ele>38.66</ele>
<time>2015-04-25T16:55:27Z</time>
</trkpt>
<trkpt lat="35.0539508" lon="32.3478171">
<ele>39.39</ele>
<time>2015-04-25T16:55:30Z</time>
</trkpt>
<trkpt lat="35.0539225" lon="32.3478603">
<ele>39.12</ele>
<time>2015-04-25T16:55:43Z</time>
</trkpt>
<trkpt lat="35.0538910" lon="32.3479016">
<ele>38.97</ele>
<time>2015-04-25T16:55:45Z</time>
</trkpt>
<trkpt lat="35.0538404" lon="32.3479860">
<ele>39.44</ele>
<time>2015-04-25T16:55:47Z</time>
</trkpt>
<trkpt lat="35.0538144" lon="32.3480319">
<ele>39.68</ele>
<time>2015-04-25T16:55:48Z</time>
</trkpt>
<trkpt lat="35.0537885" lon="32.3480769">
<ele>39.30</ele>
<time>2015-04-25T16:55:49Z</time>
</trkpt>
<trkpt lat="35.0537627" lon="32.3481223">
<ele>39.61</ele>
<time>2015-04-25T16:55:50Z</time>
</trkpt>
<trkpt lat="35.0537369" lon="32.3481672">
<ele>39.77</ele>
<time>2015-04-25T16:55:51Z</time>
</trkpt>
<trkpt lat="35.0536847" lon="32.3482565">
<ele>40.14</ele>
<time>2015-04-25T16:55:53Z</time>
</trkpt>
<trkpt lat="35.0536591" lon="32.3483020">
<ele>40.03</ele>
<time>2015-04-25T16:55:54Z</time>
</trkpt>
<trkpt lat="35.0536058" lon="32.3483902">
<ele>38.70</ele>
<time>2015-04-25T16:55:56Z</time>
</trkpt>
<trkpt lat="35.0535794" lon="32.3484349">
<ele>38.31</ele>
<time>2015-04-25T16:55:57Z</time>
</trkpt>
<trkpt lat="35.0535132" lon="32.3485333">
<ele>38.52</ele>
<time>2015-04-25T16:55:59Z</time>
</trkpt>
<trkpt lat="35.0534856" lon="32.3485800">
<ele>39.22</ele>
<time>2015-04-25T16:56:00Z</time>
</trkpt>
<trkpt lat="35.0534594" lon="32.3486301">
<ele>39.57</ele>
<time>2015-04-25T16:56:01Z</time>
</trkpt>
<trkpt lat="35.0534255" lon="32.3486783">
<ele>39.25</ele>
<time>2015-04-25T16:56:02Z</time>
</trkpt>
<trkpt lat="35.0533772" lon="32.3487713">
<ele>39.01</ele>
<time>2015-04-25T16:56:04Z</time>
</trkpt>
<trkpt lat="35.0533307" lon="32.3487992">
<ele>38.97</ele>
<time>2015-04-25T16:56:05Z</time>
</trkpt>
<trkpt lat="35.0532902" lon="32.3488351">
<ele>39.45</ele>
<time>2015-04-25T16:56:06Z</time>
</trkpt>
<trkpt lat="35.0532451" lon="32.3488964">
<ele>39.81</ele>
<time>2015-04-25T16:56:08Z</time>
</trkpt>
<trkpt lat="35.0531980" lon="32.3489766">
<ele>39.40</ele>
<time>2015-04-25T16:56:10Z</time>
</trkpt>
<trkpt lat="35.0531439" lon="32.3490618">
<ele>39.79</ele>
<time>2015-04-25T16:56:12Z</time>
</trkpt>
<trkpt lat="35.0530983" lon="32.3491341">
<ele>39.89</ele>
<time>2015-04-25T16:56:14Z</time>
</trkpt>
<trkpt lat="35.0530492" lon="32.3492092">
<ele>39.92</ele>
<time>2015-04-25T16:56:16Z</time>
</trkpt>
<trkpt lat="35.0530056" lon="32.3492777">
<ele>39.17</ele>
<time>2015-04-25T16:56:18Z</time>
</trkpt>
<trkpt lat="35.0529487" lon="32.3493592">
<ele>39.24</ele>
<time>2015-04-25T16:56:20Z</time>
</trkpt>
<trkpt lat="35.0528976" lon="32.3494339">
<ele>40.25</ele>
<time>2015-04-25T16:56:22Z</time>
</trkpt>
<trkpt lat="35.0528481" lon="32.3495095">
<ele>40.76</ele>
<time>2015-04-25T16:56:24Z</time>
</trkpt>
<trkpt lat="35.0527994" lon="32.3495869">
<ele>40.13</ele>
<time>2015-04-25T16:56:26Z</time>
</trkpt>
<trkpt lat="35.0527518" lon="32.3496672">
<ele>40.48</ele>
<time>2015-04-25T16:56:28Z</time>
</trkpt>
<trkpt lat="35.0527054" lon="32.3497486">
<ele>40.31</ele>
<time>2015-04-25T16:56:30Z</time>
</trkpt>
<trkpt lat="35.0526555" lon="32.3498286">
<ele>40.02</ele>
<time>2015-04-25T16:56:32Z</time>
</trkpt>
<trkpt lat="35.0526048" lon="32.3499098">
<ele>39.45</ele>
<time>2015-04-25T16:56:34Z</time>
</trkpt>
<trkpt lat="35.0525547" lon="32.3499894">
<ele>39.06</ele>
<time>2015-04-25T16:56:36Z</time>
</trkpt>
<trkpt lat="35.0525034" lon="32.3500647">
<ele>38.46</ele>
<time>2015-04-25T16:56:38Z</time>
</trkpt>
<trkpt lat="35.0524395" lon="32.3501461">
<ele>38.56</ele>
<time>2015-04-25T16:56:40Z</time>
</trkpt>
<trkpt lat="35.0524080" lon="32.3501930">
<ele>38.74</ele>
<time>2015-04-25T16:56:41Z</time>
</trkpt>
<trkpt lat="35.0523483" lon="32.3502802">
<ele>38.63</ele>
<time>2015-04-25T16:56:43Z</time>
</trkpt>
<trkpt lat="35.0523187" lon="32.3503275">
<ele>38.78</ele>
<time>2015-04-25T16:56:44Z</time>
</trkpt>
<trkpt lat="35.0522720" lon="32.3504128">
<ele>37.39</ele>
<time>2015-04-25T16:56:46Z</time>
</trkpt>
<trkpt lat="35.0522200" lon="32.3504883">
<ele>36.04</ele>
<time>2015-04-25T16:56:48Z</time>
</trkpt>
<trkpt lat="35.0521868" lon="32.3505356">
<ele>35.48</ele>
<time>2015-04-25T16:56:49Z</time>
</trkpt>
<trkpt lat="35.0521361" lon="32.3506211">
<ele>35.06</ele>
<time>2015-04-25T16:56:51Z</time>
</trkpt>
<trkpt lat="35.0521000" lon="32.3506845">
<ele>32.71</ele>
<time>2015-04-25T16:56:53Z</time>
</trkpt>
<trkpt lat="35.0520742" lon="32.3507296">
<ele>31.82</ele>
<time>2015-04-25T16:56:54Z</time>
</trkpt>
<trkpt lat="35.0520215" lon="32.3508143">
<ele>31.15</ele>
<time>2015-04-25T16:56:56Z</time>
</trkpt>
<trkpt lat="35.0519824" lon="32.3508581">
<ele>31.54</ele>
<time>2015-04-25T16:56:57Z</time>
</trkpt>
<trkpt lat="35.0519555" lon="32.3509081">
<ele>31.73</ele>
<time>2015-04-25T16:56:58Z</time>
</trkpt>
<trkpt lat="35.0519182" lon="32.3509492">
<ele>32.33</ele>
<time>2015-04-25T16:56:59Z</time>
</trkpt>
<trkpt lat="35.0518856" lon="32.3510020">
<ele>32.63</ele>
<time>2015-04-25T16:57:00Z</time>
</trkpt>
<trkpt lat="35.0518545" lon="32.3510466">
<ele>32.78</ele>
<time>2015-04-25T16:57:01Z</time>
</trkpt>
<trkpt lat="35.0518253" lon="32.3510925">
<ele>32.35</ele>
<time>2015-04-25T16:57:02Z</time>
</trkpt>
<trkpt lat="35.0517692" lon="32.3511782">
<ele>32.78</ele>
<time>2015-04-25T16:57:04Z</time>
</trkpt>
<trkpt lat="35.0517443" lon="32.3512242">
<ele>32.35</ele>
<time>2015-04-25T16:57:05Z</time>
</trkpt>
<trkpt lat="35.0517081" lon="32.3512906">
<ele>31.03</ele>
<time>2015-04-25T16:57:07Z</time>
</trkpt>
<trkpt lat="35.0516814" lon="32.3513398">
<ele>30.98</ele>
<time>2015-04-25T16:57:08Z</time>
</trkpt>
<trkpt lat="35.0516215" lon="32.3514188">
<ele>31.69</ele>
<time>2015-04-25T16:57:10Z</time>
</trkpt>
<trkpt lat="35.0515708" lon="32.3514907">
<ele>31.62</ele>
<time>2015-04-25T16:57:12Z</time>
</trkpt>
<trkpt lat="35.0515260" lon="32.3515652">
<ele>32.10</ele>
<time>2015-04-25T16:57:14Z</time>
</trkpt>
<trkpt lat="35.0514788" lon="32.3516308">
<ele>32.72</ele>
<time>2015-04-25T16:57:16Z</time>
</trkpt>
<trkpt lat="35.0514299" lon="32.3516966">
<ele>33.37</ele>
<time>2015-04-25T16:57:18Z</time>
</trkpt>
<trkpt lat="35.0513833" lon="32.3517644">
<ele>33.79</ele>
<time>2015-04-25T16:57:20Z</time>
</trkpt>
<trkpt lat="35.0513344" lon="32.3518278">
<ele>33.14</ele>
<time>2015-04-25T16:57:22Z</time>
</trkpt>
<trkpt lat="35.0512818" lon="32.3518894">
<ele>32.98</ele>
<time>2015-04-25T16:57:24Z</time>
</trkpt>
<trkpt lat="35.0512248" lon="32.3519395">
<ele>32.45</ele>
<time>2015-04-25T16:57:25Z</time>
</trkpt>
<trkpt lat="35.0511914" lon="32.3519777">
<ele>31.69</ele>
<time>2015-04-25T16:57:26Z</time>
</trkpt>
<trkpt lat="35.0511480" lon="32.3520111">
<ele>32.31</ele>
<time>2015-04-25T16:57:27Z</time>
</trkpt>
<trkpt lat="35.0511015" lon="32.3520646">
<ele>32.62</ele>
<time>2015-04-25T16:57:28Z</time>
</trkpt>
<trkpt lat="35.0510605" lon="32.3521126">
<ele>32.77</ele>
<time>2015-04-25T16:57:29Z</time>
</trkpt>
<trkpt lat="35.0510126" lon="32.3521711">
<ele>32.35</ele>
<time>2015-04-25T16:57:30Z</time>
</trkpt>
<trkpt lat="35.0509647" lon="32.3522224">
<ele>32.14</ele>
<time>2015-04-25T16:57:31Z</time>
</trkpt>
<trkpt lat="35.0509117" lon="32.3522902">
<ele>31.03</ele>
<time>2015-04-25T16:57:32Z</time>
</trkpt>
<trkpt lat="35.0508492" lon="32.3523570">
<ele>30.48</ele>
<time>2015-04-25T16:57:33Z</time>
</trkpt>
<trkpt lat="35.0507976" lon="32.3524278">
<ele>29.70</ele>
<time>2015-04-25T16:57:34Z</time>
</trkpt>
<trkpt lat="35.0507502" lon="32.3525009">
<ele>29.31</ele>
<time>2015-04-25T16:57:35Z</time>
</trkpt>
<trkpt lat="35.0507109" lon="32.3525705">
<ele>29.12</ele>
<time>2015-04-25T16:57:36Z</time>
</trkpt>
<trkpt lat="35.0506819" lon="32.3526393">
<ele>29.52</ele>
<time>2015-04-25T16:57:37Z</time>
</trkpt>
<trkpt lat="35.0506541" lon="32.3526925">
<ele>29.72</ele>
<time>2015-04-25T16:57:38Z</time>
</trkpt>
<trkpt lat="35.0506058" lon="32.3527799">
<ele>31.12</ele>
<time>2015-04-25T16:57:40Z</time>
</trkpt>
<trkpt lat="35.0505834" lon="32.3528773">
<ele>31.22</ele>
<time>2015-04-25T16:57:42Z</time>
</trkpt>
<trkpt lat="35.0505536" lon="32.3529608">
<ele>31.00</ele>
<time>2015-04-25T16:57:44Z</time>
</trkpt>
<trkpt lat="35.0504972" lon="32.3530291">
<ele>30.94</ele>
<time>2015-04-25T16:57:46Z</time>
</trkpt>
<trkpt lat="35.0504372" lon="32.3530889">
<ele>30.43</ele>
<time>2015-04-25T16:57:48Z</time>
</trkpt>
<trkpt lat="35.0503728" lon="32.3531425">
<ele>29.55</ele>
<time>2015-04-25T16:57:50Z</time>
</trkpt>
<trkpt lat="35.0503065" lon="32.3531909">
<ele>29.83</ele>
<time>2015-04-25T16:57:52Z</time>
</trkpt>
<trkpt lat="35.0502397" lon="32.3532412">
<ele>30.40</ele>
<time>2015-04-25T16:57:54Z</time>
</trkpt>
<trkpt lat="35.0501747" lon="32.3532837">
<ele>30.79</ele>
<time>2015-04-25T16:57:56Z</time>
</trkpt>
<trkpt lat="35.0501073" lon="32.3533235">
<ele>30.89</ele>
<time>2015-04-25T16:57:58Z</time>
</trkpt>
<trkpt lat="35.0500458" lon="32.3533605">
<ele>30.92</ele>
<time>2015-04-25T16:58:00Z</time>
</trkpt>
<trkpt lat="35.0499801" lon="32.3533947">
<ele>30.92</ele>
<time>2015-04-25T16:58:02Z</time>
</trkpt>
<trkpt lat="35.0499234" lon="32.3534344">
<ele>30.17</ele>
<time>2015-04-25T16:58:04Z</time>
</trkpt>
<trkpt lat="35.0498656" lon="32.3534741">
<ele>29.49</ele>
<time>2015-04-25T16:58:06Z</time>
</trkpt>
<trkpt lat="35.0498077" lon="32.3535196">
<ele>29.07</ele>
<time>2015-04-25T16:58:08Z</time>
</trkpt>
<trkpt lat="35.0497437" lon="32.3535611">
<ele>28.21</ele>
<time>2015-04-25T16:58:10Z</time>
</trkpt>
<trkpt lat="35.0496807" lon="32.3536019">
<ele>28.00</ele>
<time>2015-04-25T16:58:12Z</time>
</trkpt>
<trkpt lat="35.0496101" lon="32.3536462">
<ele>27.44</ele>
<time>2015-04-25T16:58:14Z</time>
</trkpt>
<trkpt lat="35.0495417" lon="32.3536906">
<ele>25.80</ele>
<time>2015-04-25T16:58:16Z</time>
</trkpt>
<trkpt lat="35.0494716" lon="32.3537389">
<ele>26.64</ele>
<time>2015-04-25T16:58:18Z</time>
</trkpt>
<trkpt lat="35.0494308" lon="32.3537670">
<ele>26.78</ele>
<time>2015-04-25T16:58:19Z</time>
</trkpt>
<trkpt lat="35.0493496" lon="32.3538219">
<ele>26.89</ele>
<time>2015-04-25T16:58:21Z</time>
</trkpt>
<trkpt lat="35.0492752" lon="32.3538741">
<ele>27.17</ele>
<time>2015-04-25T16:58:23Z</time>
</trkpt>
<trkpt lat="35.0491993" lon="32.3539302">
<ele>26.99</ele>
<time>2015-04-25T16:58:25Z</time>
</trkpt>
<trkpt lat="35.0491234" lon="32.3539881">
<ele>26.94</ele>
<time>2015-04-25T16:58:27Z</time>
</trkpt>
<trkpt lat="35.0490366" lon="32.3540486">
<ele>27.43</ele>
<time>2015-04-25T16:58:29Z</time>
</trkpt>
<trkpt lat="35.0489607" lon="32.3541014">
<ele>27.80</ele>
<time>2015-04-25T16:58:31Z</time>
</trkpt>
<trkpt lat="35.0489203" lon="32.3541281">
<ele>27.86</ele>
<time>2015-04-25T16:58:32Z</time>
</trkpt>
<trkpt lat="35.0488482" lon="32.3541935">
<ele>27.91</ele>
<time>2015-04-25T16:58:34Z</time>
</trkpt>
<trkpt lat="35.0487746" lon="32.3542448">
<ele>27.92</ele>
<time>2015-04-25T16:58:36Z</time>
</trkpt>
<trkpt lat="35.0487074" lon="32.3543107">
<ele>27.92</ele>
<time>2015-04-25T16:58:38Z</time>
</trkpt>
<trkpt lat="35.0486376" lon="32.3543606">
<ele>27.92</ele>
<time>2015-04-25T16:58:40Z</time>
</trkpt>
<trkpt lat="35.0485720" lon="32.3544235">
<ele>27.17</ele>
<time>2015-04-25T16:58:42Z</time>
</trkpt>
<trkpt lat="35.0485005" lon="32.3544794">
<ele>26.99</ele>
<time>2015-04-25T16:58:44Z</time>
</trkpt>
<trkpt lat="35.0484312" lon="32.3545328">
<ele>26.94</ele>
<time>2015-04-25T16:58:46Z</time>
</trkpt>
<trkpt lat="35.0483661" lon="32.3545924">
<ele>26.93</ele>
<time>2015-04-25T16:58:48Z</time>
</trkpt>
<trkpt lat="35.0482983" lon="32.3546522">
<ele>26.93</ele>
<time>2015-04-25T16:58:50Z</time>
</trkpt>
<trkpt lat="35.0482264" lon="32.3547127">
<ele>26.93</ele>
<time>2015-04-25T16:58:52Z</time>
</trkpt>
<trkpt lat="35.0481594" lon="32.3547752">
<ele>26.18</ele>
<time>2015-04-25T16:58:54Z</time>
</trkpt>
<trkpt lat="35.0480915" lon="32.3548307">
<ele>25.99</ele>
<time>2015-04-25T16:58:56Z</time>
</trkpt>
<trkpt lat="35.0480242" lon="32.3548824">
<ele>25.19</ele>
<time>2015-04-25T16:58:58Z</time>
</trkpt>
<trkpt lat="35.0479572" lon="32.3549364">
<ele>24.99</ele>
<time>2015-04-25T16:59:00Z</time>
</trkpt>
<trkpt lat="35.0478945" lon="32.3549932">
<ele>25.44</ele>
<time>2015-04-25T16:59:02Z</time>
</trkpt>
<trkpt lat="35.0478281" lon="32.3550496">
<ele>25.80</ele>
<time>2015-04-25T16:59:04Z</time>
</trkpt>
<trkpt lat="35.0477706" lon="32.3551089">
<ele>25.14</ele>
<time>2015-04-25T16:59:06Z</time>
</trkpt>
<trkpt lat="35.0477086" lon="32.3551656">
<ele>24.98</ele>
<time>2015-04-25T16:59:08Z</time>
</trkpt>
<trkpt lat="35.0476405" lon="32.3552166">
<ele>24.44</ele>
<time>2015-04-25T16:59:10Z</time>
</trkpt>
<trkpt lat="35.0475679" lon="32.3552677">
<ele>24.05</ele>
<time>2015-04-25T16:59:12Z</time>
</trkpt>
<trkpt lat="35.0474957" lon="32.3553221">
<ele>23.96</ele>
<time>2015-04-25T16:59:14Z</time>
</trkpt>
<trkpt lat="35.0474003" lon="32.3553786">
<ele>23.93</ele>
<time>2015-04-25T16:59:16Z</time>
</trkpt>
<trkpt lat="35.0473518" lon="32.3554067">
<ele>23.43</ele>
<time>2015-04-25T16:59:17Z</time>
</trkpt>
<trkpt lat="35.0472916" lon="32.3554472">
<ele>23.18</ele>
<time>2015-04-25T16:59:18Z</time>
</trkpt>
<trkpt lat="35.0472374" lon="32.3554835">
<ele>22.55</ele>
<time>2015-04-25T16:59:19Z</time>
</trkpt>
<trkpt lat="35.0471637" lon="32.3555242">
<ele>22.24</ele>
<time>2015-04-25T16:59:20Z</time>
</trkpt>
<trkpt lat="35.0471043" lon="32.3555637">
<ele>21.58</ele>
<time>2015-04-25T16:59:21Z</time>
</trkpt>
<trkpt lat="35.0470522" lon="32.3556415">
<ele>21.25</ele>
<time>2015-04-25T16:59:22Z</time>
</trkpt>
<trkpt lat="35.0469999" lon="32.3557032">
<ele>21.09</ele>
<time>2015-04-25T16:59:23Z</time>
</trkpt>
<trkpt lat="35.0470122" lon="32.3557928">
<ele>21.51</ele>
<time>2015-04-25T16:59:24Z</time>
</trkpt>
<trkpt lat="35.0469992" lon="32.3558742">
<ele>21.72</ele>
<time>2015-04-25T16:59:25Z</time>
</trkpt>
<trkpt lat="35.0470113" lon="32.3559392">
<ele>21.82</ele>
<time>2015-04-25T16:59:26Z</time>
</trkpt>
<trkpt lat="35.0470123" lon="32.3560091">
<ele>22.37</ele>
<time>2015-04-25T16:59:27Z</time>
</trkpt>
<trkpt lat="35.0470204" lon="32.3561054">
<ele>22.79</ele>
<time>2015-04-25T16:59:29Z</time>
</trkpt>
<trkpt lat="35.0470177" lon="32.3561788">
<ele>22.89</ele>
<time>2015-04-25T16:59:31Z</time>
</trkpt>
<trkpt lat="35.0470388" lon="32.3562609">
<ele>23.42</ele>
<time>2015-04-25T16:59:34Z</time>
</trkpt>
<trkpt lat="35.0470393" lon="32.3563487">
<ele>23.80</ele>
<time>2015-04-25T16:59:36Z</time>
</trkpt>
<trkpt lat="35.0470406" lon="32.3564415">
<ele>24.14</ele>
<time>2015-04-25T16:59:38Z</time>
</trkpt>
<trkpt lat="35.0470408" lon="32.3565278">
<ele>23.98</ele>
<time>2015-04-25T16:59:40Z</time>
</trkpt>
<trkpt lat="35.0470360" lon="32.3566030">
<ele>24.44</ele>
<time>2015-04-25T16:59:42Z</time>
</trkpt>
<trkpt lat="35.0470277" lon="32.3566793">
<ele>24.80</ele>
<time>2015-04-25T16:59:44Z</time>
</trkpt>
<trkpt lat="35.0470183" lon="32.3567556">
<ele>24.89</ele>
<time>2015-04-25T16:59:46Z</time>
</trkpt>
<trkpt lat="35.0470064" lon="32.3568299">
<ele>24.92</ele>
<time>2015-04-25T16:59:48Z</time>
</trkpt>
<trkpt lat="35.0469889" lon="32.3569072">
<ele>24.92</ele>
<time>2015-04-25T16:59:50Z</time>
</trkpt>
<trkpt lat="35.0469667" lon="32.3569859">
<ele>25.42</ele>
<time>2015-04-25T16:59:52Z</time>
</trkpt>
<trkpt lat="35.0469397" lon="32.3570601">
<ele>26.05</ele>
<time>2015-04-25T16:59:54Z</time>
</trkpt>
<trkpt lat="35.0469107" lon="32.3571298">
<ele>25.96</ele>
<time>2015-04-25T16:59:56Z</time>
</trkpt>
<trkpt lat="35.0468770" lon="32.3571980">
<ele>25.93</ele>
<time>2015-04-25T16:59:58Z</time>
</trkpt>
<trkpt lat="35.0468352" lon="32.3572621">
<ele>25.93</ele>
<time>2015-04-25T17:00:00Z</time>
</trkpt>
<trkpt lat="35.0467910" lon="32.3573196">
<ele>25.93</ele>
<time>2015-04-25T17:00:02Z</time>
</trkpt>
<trkpt lat="35.0467470" lon="32.3573712">
<ele>25.93</ele>
<time>2015-04-25T17:00:04Z</time>
</trkpt>
<trkpt lat="35.0467017" lon="32.3574262">
<ele>25.93</ele>
<time>2015-04-25T17:00:06Z</time>
</trkpt>
<trkpt lat="35.0466513" lon="32.3574808">
<ele>25.93</ele>
<time>2015-04-25T17:00:08Z</time>
</trkpt>
<trkpt lat="35.0466003" lon="32.3575349">
<ele>25.43</ele>
<time>2015-04-25T17:00:10Z</time>
</trkpt>
<trkpt lat="35.0465376" lon="32.3576006">
<ele>24.55</ele>
<time>2015-04-25T17:00:12Z</time>
</trkpt>
<trkpt lat="35.0464541" lon="32.3576693">
<ele>23.58</ele>
<time>2015-04-25T17:00:14Z</time>
</trkpt>
<trkpt lat="35.0464073" lon="32.3577018">
<ele>22.75</ele>
<time>2015-04-25T17:00:15Z</time>
</trkpt>
<trkpt lat="35.0463624" lon="32.3577364">
<ele>22.34</ele>
<time>2015-04-25T17:00:16Z</time>
</trkpt>
<trkpt lat="35.0463202" lon="32.3577676">
<ele>22.13</ele>
<time>2015-04-25T17:00:17Z</time>
</trkpt>
<trkpt lat="35.0462766" lon="32.3578029">
<ele>22.03</ele>
<time>2015-04-25T17:00:18Z</time>
</trkpt>
<trkpt lat="35.0462339" lon="32.3578346">
<ele>21.48</ele>
<time>2015-04-25T17:00:19Z</time>
</trkpt>
<trkpt lat="35.0461811" lon="32.3578638">
<ele>21.20</ele>
<time>2015-04-25T17:00:20Z</time>
</trkpt>
<trkpt lat="35.0461314" lon="32.3578986">
<ele>21.06</ele>
<time>2015-04-25T17:00:21Z</time>
</trkpt>
<trkpt lat="35.0460822" lon="32.3579346">
<ele>20.49</ele>
<time>2015-04-25T17:00:22Z</time>
</trkpt>
<trkpt lat="35.0460350" lon="32.3579739">
<ele>20.21</ele>
<time>2015-04-25T17:00:23Z</time>
</trkpt>
<trkpt lat="35.0459820" lon="32.3580118">
<ele>20.07</ele>
<time>2015-04-25T17:00:24Z</time>
</trkpt>
<trkpt lat="35.0459320" lon="32.3580449">
<ele>20.00</ele>
<time>2015-04-25T17:00:25Z</time>
</trkpt>
<trkpt lat="35.0458732" lon="32.3580812">
<ele>19.96</ele>
<time>2015-04-25T17:00:26Z</time>
</trkpt>
<trkpt lat="35.0458199" lon="32.3581111">
<ele>19.94</ele>
<time>2015-04-25T17:00:27Z</time>
</trkpt>
<trkpt lat="35.0457586" lon="32.3581482">
<ele>19.43</ele>
<time>2015-04-25T17:00:28Z</time>
</trkpt>
<trkpt lat="35.0456992" lon="32.3581853">
<ele>18.68</ele>
<time>2015-04-25T17:00:29Z</time>
</trkpt>
<trkpt lat="35.0456423" lon="32.3582442">
<ele>18.30</ele>
<time>2015-04-25T17:00:30Z</time>
</trkpt>
<trkpt lat="35.0455868" lon="32.3583009">
<ele>17.61</ele>
<time>2015-04-25T17:00:31Z</time>
</trkpt>
<trkpt lat="35.0455661" lon="32.3583906">
<ele>17.77</ele>
<time>2015-04-25T17:00:32Z</time>
</trkpt>
<trkpt lat="35.0455322" lon="32.3584579">
<ele>17.85</ele>
<time>2015-04-25T17:00:33Z</time>
</trkpt>
<trkpt lat="35.0455043" lon="32.3585398">
<ele>18.39</ele>
<time>2015-04-25T17:00:34Z</time>
</trkpt>
<trkpt lat="35.0454726" lon="32.3586099">
<ele>19.16</ele>
<time>2015-04-25T17:00:35Z</time>
</trkpt>
<trkpt lat="35.0454316" lon="32.3586748">
<ele>19.54</ele>
<time>2015-04-25T17:00:36Z</time>
</trkpt>
<trkpt lat="35.0453933" lon="32.3587450">
<ele>19.73</ele>
<time>2015-04-25T17:00:37Z</time>
</trkpt>
<trkpt lat="35.0453625" lon="32.3588076">
<ele>20.33</ele>
<time>2015-04-25T17:00:38Z</time>
</trkpt>
<trkpt lat="35.0453326" lon="32.3588735">
<ele>21.13</ele>
<time>2015-04-25T17:00:39Z</time>
</trkpt>
<trkpt lat="35.0452828" lon="32.3589561">
<ele>22.23</ele>
<time>2015-04-25T17:00:41Z</time>
</trkpt>
<trkpt lat="35.0452611" lon="32.3590287">
<ele>22.75</ele>
<time>2015-04-25T17:00:43Z</time>
</trkpt>
<trkpt lat="35.0452210" lon="32.3590802">
<ele>23.38</ele>
<time>2015-04-25T17:00:45Z</time>
</trkpt>
<trkpt lat="35.0451932" lon="32.3591444">
<ele>23.79</ele>
<time>2015-04-25T17:00:47Z</time>
</trkpt>
<trkpt lat="35.0451594" lon="32.3592083">
<ele>24.64</ele>
<time>2015-04-25T17:00:49Z</time>
</trkpt>
<trkpt lat="35.0451350" lon="32.3592696">
<ele>24.85</ele>
<time>2015-04-25T17:00:51Z</time>
</trkpt>
<trkpt lat="35.0451177" lon="32.3593284">
<ele>25.41</ele>
<time>2015-04-25T17:00:53Z</time>
</trkpt>
<trkpt lat="35.0451025" lon="32.3594103">
<ele>25.36</ele>
<time>2015-04-25T17:00:56Z</time>
</trkpt>
<trkpt lat="35.0450837" lon="32.3594635">
<ele>25.78</ele>
<time>2015-04-25T17:00:58Z</time>
</trkpt>
<trkpt lat="35.0450530" lon="32.3595397">
<ele>25.91</ele>
<time>2015-04-25T17:01:01Z</time>
</trkpt>
<trkpt lat="35.0450248" lon="32.3595902">
<ele>26.67</ele>
<time>2015-04-25T17:01:03Z</time>
</trkpt>
<trkpt lat="35.0449977" lon="32.3596476">
<ele>26.86</ele>
<time>2015-04-25T17:01:05Z</time>
</trkpt>
<trkpt lat="35.0449722" lon="32.3597044">
<ele>26.91</ele>
<time>2015-04-25T17:01:07Z</time>
</trkpt>
<trkpt lat="35.0449486" lon="32.3597627">
<ele>26.92</ele>
<time>2015-04-25T17:01:09Z</time>
</trkpt>
<trkpt lat="35.0449227" lon="32.3598232">
<ele>27.42</ele>
<time>2015-04-25T17:01:11Z</time>
</trkpt>
<trkpt lat="35.0448932" lon="32.3598805">
<ele>27.80</ele>
<time>2015-04-25T17:01:13Z</time>
</trkpt>
<trkpt lat="35.0448715" lon="32.3599352">
<ele>27.89</ele>
<time>2015-04-25T17:01:15Z</time>
</trkpt>
<trkpt lat="35.0448424" lon="32.3600082">
<ele>27.92</ele>
<time>2015-04-25T17:01:18Z</time>
</trkpt>
<trkpt lat="35.0448126" lon="32.3600882">
<ele>27.92</ele>
<time>2015-04-25T17:01:20Z</time>
</trkpt>
<trkpt lat="35.0447862" lon="32.3601648">
<ele>27.92</ele>
<time>2015-04-25T17:01:22Z</time>
</trkpt>
<trkpt lat="35.0447631" lon="32.3602375">
<ele>27.92</ele>
<time>2015-04-25T17:01:24Z</time>
</trkpt>
<trkpt lat="35.0447378" lon="32.3603111">
<ele>27.92</ele>
<time>2015-04-25T17:01:26Z</time>
</trkpt>
<trkpt lat="35.0447124" lon="32.3603884">
<ele>28.42</ele>
<time>2015-04-25T17:01:28Z</time>
</trkpt>
<trkpt lat="35.0446862" lon="32.3604627">
<ele>28.80</ele>
<time>2015-04-25T17:01:30Z</time>
</trkpt>
<trkpt lat="35.0446538" lon="32.3605294">
<ele>29.39</ele>
<time>2015-04-25T17:01:32Z</time>
</trkpt>
<trkpt lat="35.0446286" lon="32.3605989">
<ele>29.29</ele>
<time>2015-04-25T17:01:34Z</time>
</trkpt>
<trkpt lat="35.0446048" lon="32.3606697">
<ele>29.02</ele>
<time>2015-04-25T17:01:36Z</time>
</trkpt>
<trkpt lat="35.0445831" lon="32.3607289">
<ele>29.20</ele>
<time>2015-04-25T17:01:38Z</time>
</trkpt>
<trkpt lat="35.0445627" lon="32.3607876">
<ele>29.49</ele>
<time>2015-04-25T17:01:40Z</time>
</trkpt>
<trkpt lat="35.0445403" lon="32.3608568">
<ele>29.82</ele>
<time>2015-04-25T17:01:42Z</time>
</trkpt>
<trkpt lat="35.0445083" lon="32.3609351">
<ele>29.90</ele>
<time>2015-04-25T17:01:44Z</time>
</trkpt>
<trkpt lat="35.0444818" lon="32.3610102">
<ele>29.92</ele>
<time>2015-04-25T17:01:46Z</time>
</trkpt>
<trkpt lat="35.0444618" lon="32.3610812">
<ele>29.92</ele>
<time>2015-04-25T17:01:48Z</time>
</trkpt>
<trkpt lat="35.0444374" lon="32.3611514">
<ele>29.17</ele>
<time>2015-04-25T17:01:50Z</time>
</trkpt>
<trkpt lat="35.0444064" lon="32.3612197">
<ele>29.49</ele>
<time>2015-04-25T17:01:52Z</time>
</trkpt>
<trkpt lat="35.0443763" lon="32.3612839">
<ele>29.82</ele>
<time>2015-04-25T17:01:54Z</time>
</trkpt>
<trkpt lat="35.0443526" lon="32.3613462">
<ele>29.90</ele>
<time>2015-04-25T17:01:56Z</time>
</trkpt>
<trkpt lat="35.0443295" lon="32.3614115">
<ele>29.92</ele>
<time>2015-04-25T17:01:58Z</time>
</trkpt>
<trkpt lat="35.0443052" lon="32.3614778">
<ele>29.92</ele>
<time>2015-04-25T17:02:00Z</time>
</trkpt>
<trkpt lat="35.0442787" lon="32.3615404">
<ele>30.67</ele>
<time>2015-04-25T17:02:02Z</time>
</trkpt>
<trkpt lat="35.0442520" lon="32.3615997">
<ele>30.36</ele>
<time>2015-04-25T17:02:04Z</time>
</trkpt>
<trkpt lat="35.0442239" lon="32.3616638">
<ele>30.53</ele>
<time>2015-04-25T17:02:06Z</time>
</trkpt>
<trkpt lat="35.0441943" lon="32.3617301">
<ele>30.83</ele>
<time>2015-04-25T17:02:08Z</time>
</trkpt>
<trkpt lat="35.0441665" lon="32.3617960">
<ele>30.90</ele>
<time>2015-04-25T17:02:10Z</time>
</trkpt>
<trkpt lat="35.0441377" lon="32.3618604">
<ele>30.42</ele>
<time>2015-04-25T17:02:12Z</time>
</trkpt>
<trkpt lat="35.0441048" lon="32.3619251">
<ele>30.05</ele>
<time>2015-04-25T17:02:14Z</time>
</trkpt>
<trkpt lat="35.0440712" lon="32.3619945">
<ele>29.96</ele>
<time>2015-04-25T17:02:16Z</time>
</trkpt>
<trkpt lat="35.0440292" lon="32.3620642">
<ele>29.18</ele>
<time>2015-04-25T17:02:18Z</time>
</trkpt>
<trkpt lat="35.0439814" lon="32.3621360">
<ele>28.99</ele>
<time>2015-04-25T17:02:20Z</time>
</trkpt>
<trkpt lat="35.0439274" lon="32.3622134">
<ele>28.94</ele>
<time>2015-04-25T17:02:22Z</time>
</trkpt>
<trkpt lat="35.0438332" lon="32.3623124">
<ele>27.68</ele>
<time>2015-04-25T17:02:24Z</time>
</trkpt>
<trkpt lat="35.0437760" lon="32.3623529">
<ele>27.30</ele>
<time>2015-04-25T17:02:25Z</time>
</trkpt>
<trkpt lat="35.0437275" lon="32.3624080">
<ele>26.61</ele>
<time>2015-04-25T17:02:26Z</time>
</trkpt>
<trkpt lat="35.0436742" lon="32.3624613">
<ele>26.27</ele>
<time>2015-04-25T17:02:27Z</time>
</trkpt>
<trkpt lat="35.0436178" lon="32.3625187">
<ele>25.60</ele>
<time>2015-04-25T17:02:28Z</time>
</trkpt>
<trkpt lat="35.0435638" lon="32.3625834">
<ele>25.26</ele>
<time>2015-04-25T17:02:29Z</time>
</trkpt>
<trkpt lat="35.0435193" lon="32.3626440">
<ele>24.59</ele>
<time>2015-04-25T17:02:30Z</time>
</trkpt>
<trkpt lat="35.0434940" lon="32.3627149">
<ele>24.26</ele>
<time>2015-04-25T17:02:31Z</time>
</trkpt>
<trkpt lat="35.0434683" lon="32.3627866">
<ele>23.59</ele>
<time>2015-04-25T17:02:32Z</time>
</trkpt>
<trkpt lat="35.0434809" lon="32.3628635">
<ele>23.76</ele>
<time>2015-04-25T17:02:33Z</time>
</trkpt>
<trkpt lat="35.0435003" lon="32.3629398">
<ele>23.84</ele>
<time>2015-04-25T17:02:34Z</time>
</trkpt>
<trkpt lat="35.0435126" lon="32.3630066">
<ele>23.88</ele>
<time>2015-04-25T17:02:35Z</time>
</trkpt>
<trkpt lat="35.0435289" lon="32.3630796">
<ele>23.90</ele>
<time>2015-04-25T17:02:36Z</time>
</trkpt>
<trkpt lat="35.0435418" lon="32.3631702">
<ele>23.91</ele>
<time>2015-04-25T17:02:37Z</time>
</trkpt>
<trkpt lat="35.0435587" lon="32.3632489">
<ele>23.92</ele>
<time>2015-04-25T17:02:38Z</time>
</trkpt>
<trkpt lat="35.0435781" lon="32.3633554">
<ele>23.92</ele>
<time>2015-04-25T17:02:39Z</time>
</trkpt>
<trkpt lat="35.0435981" lon="32.3634558">
<ele>23.92</ele>
<time>2015-04-25T17:02:40Z</time>
</trkpt>
<trkpt lat="35.0436100" lon="32.3635566">
<ele>23.92</ele>
<time>2015-04-25T17:02:41Z</time>
</trkpt>
<trkpt lat="35.0436265" lon="32.3636562">
<ele>24.42</ele>
<time>2015-04-25T17:02:42Z</time>
</trkpt>
<trkpt lat="35.0436297" lon="32.3637322">
<ele>24.67</ele>
<time>2015-04-25T17:02:43Z</time>
</trkpt>
<trkpt lat="35.0436358" lon="32.3638058">
<ele>25.30</ele>
<time>2015-04-25T17:02:44Z</time>
</trkpt>
<trkpt lat="35.0436387" lon="32.3638758">
<ele>25.61</ele>
<time>2015-04-25T17:02:45Z</time>
</trkpt>
<trkpt lat="35.0436419" lon="32.3639398">
<ele>26.27</ele>
<time>2015-04-25T17:02:46Z</time>
</trkpt>
<trkpt lat="35.0436408" lon="32.3640398">
<ele>26.76</ele>
<time>2015-04-25T17:02:48Z</time>
</trkpt>
<trkpt lat="35.0436626" lon="32.3641038">
<ele>27.78</ele>
<time>2015-04-25T17:02:51Z</time>
</trkpt>
<trkpt lat="35.0436674" lon="32.3641832">
<ele>27.89</ele>
<time>2015-04-25T17:02:53Z</time>
</trkpt>
<trkpt lat="35.0436672" lon="32.3642757">
<ele>27.92</ele>
<time>2015-04-25T17:02:55Z</time>
</trkpt>
<trkpt lat="35.0436673" lon="32.3643550">
<ele>27.92</ele>
<time>2015-04-25T17:02:57Z</time>
</trkpt>
<trkpt lat="35.0436549" lon="32.3644389">
<ele>28.42</ele>
<time>2015-04-25T17:02:59Z</time>
</trkpt>
<trkpt lat="35.0436407" lon="32.3645198">
<ele>28.80</ele>
<time>2015-04-25T17:03:01Z</time>
</trkpt>
<trkpt lat="35.0436259" lon="32.3645845">
<ele>28.89</ele>
<time>2015-04-25T17:03:03Z</time>
</trkpt>
<trkpt lat="35.0436072" lon="32.3646494">
<ele>28.92</ele>
<time>2015-04-25T17:03:05Z</time>
</trkpt>
<trkpt lat="35.0435876" lon="32.3647105">
<ele>28.92</ele>
<time>2015-04-25T17:03:07Z</time>
</trkpt>
<trkpt lat="35.0435635" lon="32.3647699">
<ele>29.42</ele>
<time>2015-04-25T17:03:09Z</time>
</trkpt>
<trkpt lat="35.0435388" lon="32.3648375">
<ele>29.86</ele>
<time>2015-04-25T17:03:12Z</time>
</trkpt>
<trkpt lat="35.0435264" lon="32.3648946">
<ele>29.92</ele>
<time>2015-04-25T17:03:15Z</time>
</trkpt>
<trkpt lat="35.0435067" lon="32.3649533">
<ele>30.80</ele>
<time>2015-04-25T17:03:18Z</time>
</trkpt>
<trkpt lat="35.0434777" lon="32.3650182">
<ele>30.92</ele>
<time>2015-04-25T17:03:22Z</time>
</trkpt>
<trkpt lat="35.0434621" lon="32.3650906">
<ele>30.92</ele>
<time>2015-04-25T17:03:25Z</time>
</trkpt>
<trkpt lat="35.0434451" lon="32.3651566">
<ele>30.92</ele>
<time>2015-04-25T17:03:27Z</time>
</trkpt>
<trkpt lat="35.0434254" lon="32.3652287">
<ele>30.92</ele>
<time>2015-04-25T17:03:29Z</time>
</trkpt>
<trkpt lat="35.0434006" lon="32.3653079">
<ele>30.92</ele>
<time>2015-04-25T17:03:31Z</time>
</trkpt>
<trkpt lat="35.0433724" lon="32.3653874">
<ele>31.42</ele>
<time>2015-04-25T17:03:33Z</time>
</trkpt>
<trkpt lat="35.0433482" lon="32.3654628">
<ele>31.80</ele>
<time>2015-04-25T17:03:35Z</time>
</trkpt>
<trkpt lat="35.0433253" lon="32.3655388">
<ele>31.39</ele>
<time>2015-04-25T17:03:37Z</time>
</trkpt>
<trkpt lat="35.0433065" lon="32.3656037">
<ele>31.54</ele>
<time>2015-04-25T17:03:39Z</time>
</trkpt>
<trkpt lat="35.0432836" lon="32.3656591">
<ele>31.58</ele>
<time>2015-04-25T17:03:41Z</time>
</trkpt>
<trkpt lat="35.0432725" lon="32.3657142">
<ele>32.09</ele>
<time>2015-04-25T17:03:43Z</time>
</trkpt>
<trkpt lat="35.0432623" lon="32.3657746">
<ele>31.97</ele>
<time>2015-04-25T17:03:45Z</time>
</trkpt>
<trkpt lat="35.0432433" lon="32.3658402">
<ele>31.69</ele>
<time>2015-04-25T17:03:47Z</time>
</trkpt>
<trkpt lat="35.0432192" lon="32.3659277">
<ele>31.37</ele>
<time>2015-04-25T17:03:49Z</time>
</trkpt>
<trkpt lat="35.0431960" lon="32.3660115">
<ele>31.54</ele>
<time>2015-04-25T17:03:51Z</time>
</trkpt>
<trkpt lat="35.0431705" lon="32.3661012">
<ele>31.83</ele>
<time>2015-04-25T17:03:53Z</time>
</trkpt>
<trkpt lat="35.0431436" lon="32.3661937">
<ele>31.90</ele>
<time>2015-04-25T17:03:55Z</time>
</trkpt>
<trkpt lat="35.0431136" lon="32.3662844">
<ele>31.92</ele>
<time>2015-04-25T17:03:57Z</time>
</trkpt>
<trkpt lat="35.0430804" lon="32.3663632">
<ele>31.92</ele>
<time>2015-04-25T17:03:59Z</time>
</trkpt>
<trkpt lat="35.0430537" lon="32.3664384">
<ele>31.92</ele>
<time>2015-04-25T17:04:01Z</time>
</trkpt>
<trkpt lat="35.0430341" lon="32.3665157">
<ele>31.42</ele>
<time>2015-04-25T17:04:03Z</time>
</trkpt>
<trkpt lat="35.0430135" lon="32.3666041">
<ele>31.05</ele>
<time>2015-04-25T17:04:05Z</time>
</trkpt>
<trkpt lat="35.0429889" lon="32.3666876">
<ele>30.96</ele>
<time>2015-04-25T17:04:07Z</time>
</trkpt>
<trkpt lat="35.0429627" lon="32.3667734">
<ele>30.93</ele>
<time>2015-04-25T17:04:09Z</time>
</trkpt>
<trkpt lat="35.0429359" lon="32.3668587">
<ele>30.93</ele>
<time>2015-04-25T17:04:11Z</time>
</trkpt>
<trkpt lat="35.0429052" lon="32.3669488">
<ele>30.93</ele>
<time>2015-04-25T17:04:13Z</time>
</trkpt>
<trkpt lat="35.0428656" lon="32.3670615">
<ele>30.18</ele>
<time>2015-04-25T17:04:15Z</time>
</trkpt>
<trkpt lat="35.0428477" lon="32.3671169">
<ele>30.05</ele>
<time>2015-04-25T17:04:16Z</time>
</trkpt>
<trkpt lat="35.0428247" lon="32.3671740">
<ele>29.99</ele>
<time>2015-04-25T17:04:17Z</time>
</trkpt>
<trkpt lat="35.0428051" lon="32.3672339">
<ele>29.46</ele>
<time>2015-04-25T17:04:18Z</time>
</trkpt>
<trkpt lat="35.0427901" lon="32.3673082">
<ele>28.69</ele>
<time>2015-04-25T17:04:19Z</time>
</trkpt>
<trkpt lat="35.0427720" lon="32.3673752">
<ele>28.31</ele>
<time>2015-04-25T17:04:20Z</time>
</trkpt>
<trkpt lat="35.0427477" lon="32.3674574">
<ele>28.62</ele>
<time>2015-04-25T17:04:21Z</time>
</trkpt>
<trkpt lat="35.0427291" lon="32.3675311">
<ele>28.27</ele>
<time>2015-04-25T17:04:22Z</time>
</trkpt>
<trkpt lat="35.0427200" lon="32.3676124">
<ele>28.60</ele>
<time>2015-04-25T17:04:23Z</time>
</trkpt>
<trkpt lat="35.0427064" lon="32.3676965">
<ele>28.76</ele>
<time>2015-04-25T17:04:24Z</time>
</trkpt>
<trkpt lat="35.0427079" lon="32.3677765">
<ele>29.34</ele>
<time>2015-04-25T17:04:25Z</time>
</trkpt>
<trkpt lat="35.0427022" lon="32.3678572">
<ele>29.63</ele>
<time>2015-04-25T17:04:26Z</time>
</trkpt>
<trkpt lat="35.0426960" lon="32.3679145">
<ele>29.78</ele>
<time>2015-04-25T17:04:27Z</time>
</trkpt>
<trkpt lat="35.0426930" lon="32.3679850">
<ele>30.35</ele>
<time>2015-04-25T17:04:28Z</time>
</trkpt>
<trkpt lat="35.0426845" lon="32.3680459">
<ele>30.64</ele>
<time>2015-04-25T17:04:29Z</time>
</trkpt>
<trkpt lat="35.0426780" lon="32.3681037">
<ele>30.78</ele>
<time>2015-04-25T17:04:30Z</time>
</trkpt>
<trkpt lat="35.0426782" lon="32.3682011">
<ele>30.89</ele>
<time>2015-04-25T17:04:32Z</time>
</trkpt>
<trkpt lat="35.0426825" lon="32.3682839">
<ele>31.67</ele>
<time>2015-04-25T17:04:34Z</time>
</trkpt>
<trkpt lat="35.0426825" lon="32.3683642">
<ele>31.86</ele>
<time>2015-04-25T17:04:36Z</time>
</trkpt>
<trkpt lat="35.0426824" lon="32.3684533">
<ele>31.91</ele>
<time>2015-04-25T17:04:38Z</time>
</trkpt>
<trkpt lat="35.0426738" lon="32.3685331">
<ele>31.92</ele>
<time>2015-04-25T17:04:40Z</time>
</trkpt>
<trkpt lat="35.0426738" lon="32.3686156">
<ele>31.92</ele>
<time>2015-04-25T17:04:42Z</time>
</trkpt>
<trkpt lat="35.0426794" lon="32.3687035">
<ele>31.92</ele>
<time>2015-04-25T17:04:44Z</time>
</trkpt>
<trkpt lat="35.0426842" lon="32.3687960">
<ele>31.92</ele>
<time>2015-04-25T17:04:46Z</time>
</trkpt>
<trkpt lat="35.0426834" lon="32.3688908">
<ele>31.92</ele>
<time>2015-04-25T17:04:48Z</time>
</trkpt>
<trkpt lat="35.0426815" lon="32.3689870">
<ele>31.92</ele>
<time>2015-04-25T17:04:50Z</time>
</trkpt>
<trkpt lat="35.0426803" lon="32.3690876">
<ele>31.92</ele>
<time>2015-04-25T17:04:52Z</time>
</trkpt>
<trkpt lat="35.0426746" lon="32.3691706">
<ele>31.42</ele>
<time>2015-04-25T17:04:53Z</time>
</trkpt>
<trkpt lat="35.0426728" lon="32.3692732">
<ele>31.05</ele>
<time>2015-04-25T17:04:55Z</time>
</trkpt>
<trkpt lat="35.0426717" lon="32.3693292">
<ele>30.49</ele>
<time>2015-04-25T17:04:56Z</time>
</trkpt>
<trkpt lat="35.0426710" lon="32.3693965">
<ele>31.21</ele>
<time>2015-04-25T17:04:57Z</time>
</trkpt>
<trkpt lat="35.0426747" lon="32.3694552">
<ele>31.07</ele>
<time>2015-04-25T17:04:58Z</time>
</trkpt>
<trkpt lat="35.0426584" lon="32.3695633">
<ele>31.71</ele>
<time>2015-04-25T17:05:00Z</time>
</trkpt>
<trkpt lat="35.0426554" lon="32.3696215">
<ele>31.82</ele>
<time>2015-04-25T17:05:01Z</time>
</trkpt>
<trkpt lat="35.0426655" lon="32.3697343">
<ele>31.90</ele>
<time>2015-04-25T17:05:03Z</time>
</trkpt>
<trkpt lat="35.0426706" lon="32.3697932">
<ele>31.91</ele>
<time>2015-04-25T17:05:04Z</time>
</trkpt>
<trkpt lat="35.0426667" lon="32.3698619">
<ele>31.92</ele>
<time>2015-04-25T17:05:05Z</time>
</trkpt>
<trkpt lat="35.0426712" lon="32.3699320">
<ele>31.92</ele>
<time>2015-04-25T17:05:06Z</time>
</trkpt>
<trkpt lat="35.0426736" lon="32.3699949">
<ele>31.92</ele>
<time>2015-04-25T17:05:07Z</time>
</trkpt>
<trkpt lat="35.0426719" lon="32.3700593">
<ele>31.92</ele>
<time>2015-04-25T17:05:08Z</time>
</trkpt>
<trkpt lat="35.0426587" lon="32.3701261">
<ele>31.92</ele>
<time>2015-04-25T17:05:09Z</time>
</trkpt>
<trkpt lat="35.0426522" lon="32.3702577">
<ele>32.42</ele>
<time>2015-04-25T17:05:11Z</time>
</trkpt>
<trkpt lat="35.0426433" lon="32.3703242">
<ele>33.17</ele>
<time>2015-04-25T17:05:12Z</time>
</trkpt>
<trkpt lat="35.0426323" lon="32.3703812">
<ele>34.05</ele>
<time>2015-04-25T17:05:13Z</time>
</trkpt>
<trkpt lat="35.0426208" lon="32.3704441">
<ele>34.99</ele>
<time>2015-04-25T17:05:14Z</time>
</trkpt>
<trkpt lat="35.0426393" lon="32.3705040">
<ele>33.96</ele>
<time>2015-04-25T17:05:15Z</time>
</trkpt>
<trkpt lat="35.0426366" lon="32.3705642">
<ele>33.44</ele>
<time>2015-04-25T17:05:16Z</time>
</trkpt>
<trkpt lat="35.0426538" lon="32.3706162">
<ele>32.68</ele>
<time>2015-04-25T17:05:17Z</time>
</trkpt>
<trkpt lat="35.0426611" lon="32.3707146">
<ele>31.61</ele>
<time>2015-04-25T17:05:19Z</time>
</trkpt>
<trkpt lat="35.0426682" lon="32.3708242">
<ele>30.60</ele>
<time>2015-04-25T17:05:21Z</time>
</trkpt>
<trkpt lat="35.0426706" lon="32.3708803">
<ele>30.76</ele>
<time>2015-04-25T17:05:22Z</time>
</trkpt>
<trkpt lat="35.0426754" lon="32.3709421">
<ele>30.84</ele>
<time>2015-04-25T17:05:23Z</time>
</trkpt>
<trkpt lat="35.0426774" lon="32.3710016">
<ele>30.88</ele>
<time>2015-04-25T17:05:24Z</time>
</trkpt>
<trkpt lat="35.0426882" lon="32.3710609">
<ele>30.90</ele>
<time>2015-04-25T17:05:25Z</time>
</trkpt>
<trkpt lat="35.0426808" lon="32.3711590">
<ele>31.42</ele>
<time>2015-04-25T17:05:27Z</time>
</trkpt>
<trkpt lat="35.0426920" lon="32.3712645">
<ele>31.80</ele>
<time>2015-04-25T17:05:29Z</time>
</trkpt>
<trkpt lat="35.0426971" lon="32.3713738">
<ele>31.89</ele>
<time>2015-04-25T17:05:31Z</time>
</trkpt>
<trkpt lat="35.0426938" lon="32.3714814">
<ele>32.42</ele>
<time>2015-04-25T17:05:33Z</time>
</trkpt>
<trkpt lat="35.0426820" lon="32.3715857">
<ele>32.80</ele>
<time>2015-04-25T17:05:35Z</time>
</trkpt>
<trkpt lat="35.0426825" lon="32.3716415">
<ele>32.86</ele>
<time>2015-04-25T17:05:36Z</time>
</trkpt>
<trkpt lat="35.0426876" lon="32.3716984">
<ele>33.39</ele>
<time>2015-04-25T17:05:37Z</time>
</trkpt>
<trkpt lat="35.0426898" lon="32.3717553">
<ele>33.66</ele>
<time>2015-04-25T17:05:38Z</time>
</trkpt>
<trkpt lat="35.0426973" lon="32.3718638">
<ele>34.36</ele>
<time>2015-04-25T17:05:40Z</time>
</trkpt>
<trkpt lat="35.0426921" lon="32.3719465">
<ele>34.03</ele>
<time>2015-04-25T17:05:42Z</time>
</trkpt>
<trkpt lat="35.0426849" lon="32.3720360">
<ele>34.20</ele>
<time>2015-04-25T17:05:44Z</time>
</trkpt>
<trkpt lat="35.0426871" lon="32.3721169">
<ele>33.99</ele>
<time>2015-04-25T17:05:46Z</time>
</trkpt>
<trkpt lat="35.0426842" lon="32.3721981">
<ele>33.19</ele>
<time>2015-04-25T17:05:48Z</time>
</trkpt>
<trkpt lat="35.0426694" lon="32.3722861">
<ele>32.24</ele>
<time>2015-04-25T17:05:50Z</time>
</trkpt>
<trkpt lat="35.0426505" lon="32.3723409">
<ele>33.08</ele>
<time>2015-04-25T17:05:51Z</time>
</trkpt>
<trkpt lat="35.0426266" lon="32.3724682">
<ele>32.71</ele>
<time>2015-04-25T17:05:53Z</time>
</trkpt>
<trkpt lat="35.0426094" lon="32.3725279">
<ele>32.32</ele>
<time>2015-04-25T17:05:54Z</time>
</trkpt>
<trkpt lat="35.0425906" lon="32.3725800">
<ele>32.62</ele>
<time>2015-04-25T17:05:55Z</time>
</trkpt>
<trkpt lat="35.0425716" lon="32.3726404">
<ele>32.77</ele>
<time>2015-04-25T17:05:56Z</time>
</trkpt>
<trkpt lat="35.0425428" lon="32.3726952">
<ele>32.35</ele>
<time>2015-04-25T17:05:57Z</time>
</trkpt>
<trkpt lat="35.0425179" lon="32.3727468">
<ele>32.14</ele>
<time>2015-04-25T17:05:58Z</time>
</trkpt>
<trkpt lat="35.0424841" lon="32.3728036">
<ele>32.03</ele>
<time>2015-04-25T17:05:59Z</time>
</trkpt>
<trkpt lat="35.0424538" lon="32.3728568">
<ele>31.98</ele>
<time>2015-04-25T17:06:00Z</time>
</trkpt>
<trkpt lat="35.0424209" lon="32.3729089">
<ele>31.95</ele>
<time>2015-04-25T17:06:01Z</time>
</trkpt>
<trkpt lat="35.0423872" lon="32.3729602">
<ele>31.94</ele>
<time>2015-04-25T17:06:02Z</time>
</trkpt>
<trkpt lat="35.0423532" lon="32.3730059">
<ele>31.43</ele>
<time>2015-04-25T17:06:03Z</time>
</trkpt>
<trkpt lat="35.0423202" lon="32.3730597">
<ele>31.18</ele>
<time>2015-04-25T17:06:04Z</time>
</trkpt>
<trkpt lat="35.0422846" lon="32.3731136">
<ele>30.55</ele>
<time>2015-04-25T17:06:05Z</time>
</trkpt>
<trkpt lat="35.0422520" lon="32.3731600">
<ele>29.74</ele>
<time>2015-04-25T17:06:06Z</time>
</trkpt>
<trkpt lat="35.0422095" lon="32.3732024">
<ele>29.83</ele>
<time>2015-04-25T17:06:07Z</time>
</trkpt>
<trkpt lat="35.0421714" lon="32.3732510">
<ele>29.88</ele>
<time>2015-04-25T17:06:08Z</time>
</trkpt>
<trkpt lat="35.0421244" lon="32.3732919">
<ele>30.40</ele>
<time>2015-04-25T17:06:09Z</time>
</trkpt>
<trkpt lat="35.0420860" lon="32.3733369">
<ele>30.66</ele>
<time>2015-04-25T17:06:10Z</time>
</trkpt>
<trkpt lat="35.0420172" lon="32.3734102">
<ele>30.11</ele>
<time>2015-04-25T17:06:12Z</time>
</trkpt>
<trkpt lat="35.0419532" lon="32.3734741">
<ele>29.97</ele>
<time>2015-04-25T17:06:14Z</time>
</trkpt>
<trkpt lat="35.0418894" lon="32.3735260">
<ele>30.69</ele>
<time>2015-04-25T17:06:16Z</time>
</trkpt>
<trkpt lat="35.0418234" lon="32.3735873">
<ele>31.37</ele>
<time>2015-04-25T17:06:18Z</time>
</trkpt>
<trkpt lat="35.0417571" lon="32.3736483">
<ele>31.79</ele>
<time>2015-04-25T17:06:20Z</time>
</trkpt>
<trkpt lat="35.0417185" lon="32.3736767">
<ele>31.86</ele>
<time>2015-04-25T17:06:21Z</time>
</trkpt>
<trkpt lat="35.0416431" lon="32.3737453">
<ele>31.91</ele>
<time>2015-04-25T17:06:23Z</time>
</trkpt>
<trkpt lat="35.0416018" lon="32.3737786">
<ele>31.92</ele>
<time>2015-04-25T17:06:24Z</time>
</trkpt>
<trkpt lat="35.0415550" lon="32.3738069">
<ele>32.42</ele>
<time>2015-04-25T17:06:25Z</time>
</trkpt>
<trkpt lat="35.0415102" lon="32.3738392">
<ele>32.67</ele>
<time>2015-04-25T17:06:26Z</time>
</trkpt>
<trkpt lat="35.0414612" lon="32.3738707">
<ele>32.80</ele>
<time>2015-04-25T17:06:27Z</time>
</trkpt>
<trkpt lat="35.0414144" lon="32.3739023">
<ele>32.86</ele>
<time>2015-04-25T17:06:28Z</time>
</trkpt>
<trkpt lat="35.0413675" lon="32.3739315">
<ele>32.89</ele>
<time>2015-04-25T17:06:29Z</time>
</trkpt>
<trkpt lat="35.0413216" lon="32.3739577">
<ele>32.91</ele>
<time>2015-04-25T17:06:30Z</time>
</trkpt>
<trkpt lat="35.0412718" lon="32.3739723">
<ele>33.42</ele>
<time>2015-04-25T17:06:31Z</time>
</trkpt>
<trkpt lat="35.0412207" lon="32.3739952">
<ele>33.67</ele>
<time>2015-04-25T17:06:32Z</time>
</trkpt>
<trkpt lat="35.0411717" lon="32.3739938">
<ele>33.80</ele>
<time>2015-04-25T17:06:33Z</time>
</trkpt>
<trkpt lat="35.0411218" lon="32.3740060">
<ele>33.86</ele>
<time>2015-04-25T17:06:34Z</time>
</trkpt>
<trkpt lat="35.0410753" lon="32.3740027">
<ele>34.39</ele>
<time>2015-04-25T17:06:35Z</time>
</trkpt>
<trkpt lat="35.0410250" lon="32.3740049">
<ele>34.66</ele>
<time>2015-04-25T17:06:36Z</time>
</trkpt>
<trkpt lat="35.0409756" lon="32.3739962">
<ele>34.79</ele>
<time>2015-04-25T17:06:37Z</time>
</trkpt>
<trkpt lat="35.0409289" lon="32.3739891">
<ele>34.86</ele>
<time>2015-04-25T17:06:38Z</time>
</trkpt>
<trkpt lat="35.0408858" lon="32.3739718">
<ele>34.89</ele>
<time>2015-04-25T17:06:39Z</time>
</trkpt>
<trkpt lat="35.0408371" lon="32.3739597">
<ele>34.91</ele>
<time>2015-04-25T17:06:40Z</time>
</trkpt>
<trkpt lat="35.0407867" lon="32.3739508">
<ele>35.42</ele>
<time>2015-04-25T17:06:41Z</time>
</trkpt>
<trkpt lat="35.0407390" lon="32.3739387">
<ele>35.67</ele>
<time>2015-04-25T17:06:42Z</time>
</trkpt>
<trkpt lat="35.0406924" lon="32.3739241">
<ele>35.80</ele>
<time>2015-04-25T17:06:43Z</time>
</trkpt>
<trkpt lat="35.0406444" lon="32.3739109">
<ele>35.86</ele>
<time>2015-04-25T17:06:44Z</time>
</trkpt>
<trkpt lat="35.0405922" lon="32.3739023">
<ele>35.89</ele>
<time>2015-04-25T17:06:45Z</time>
</trkpt>
<trkpt lat="35.0405444" lon="32.3738903">
<ele>36.41</ele>
<time>2015-04-25T17:06:46Z</time>
</trkpt>
<trkpt lat="35.0404966" lon="32.3738822">
<ele>36.67</ele>
<time>2015-04-25T17:06:47Z</time>
</trkpt>
<trkpt lat="35.0404473" lon="32.3738674">
<ele>36.80</ele>
<time>2015-04-25T17:06:48Z</time>
</trkpt>
<trkpt lat="35.0403580" lon="32.3738378">
<ele>36.89</ele>
<time>2015-04-25T17:06:50Z</time>
</trkpt>
<trkpt lat="35.0402824" lon="32.3738149">
<ele>36.92</ele>
<time>2015-04-25T17:06:52Z</time>
</trkpt>
<trkpt lat="35.0402151" lon="32.3737998">
<ele>36.92</ele>
<time>2015-04-25T17:06:54Z</time>
</trkpt>
<trkpt lat="35.0401408" lon="32.3737774">
<ele>36.92</ele>
<time>2015-04-25T17:06:56Z</time>
</trkpt>
<trkpt lat="35.0400952" lon="32.3737681">
<ele>36.92</ele>
<time>2015-04-25T17:06:57Z</time>
</trkpt>
<trkpt lat="35.0400102" lon="32.3737626">
<ele>37.42</ele>
<time>2015-04-25T17:06:59Z</time>
</trkpt>
<trkpt lat="35.0399271" lon="32.3737679">
<ele>37.30</ele>
<time>2015-04-25T17:07:01Z</time>
</trkpt>
<trkpt lat="35.0398391" lon="32.3737852">
<ele>36.52</ele>
<time>2015-04-25T17:07:03Z</time>
</trkpt>
<trkpt lat="35.0397895" lon="32.3737958">
<ele>36.22</ele>
<time>2015-04-25T17:07:04Z</time>
</trkpt>
<trkpt lat="35.0397311" lon="32.3737983">
<ele>36.07</ele>
<time>2015-04-25T17:07:05Z</time>
</trkpt>
<trkpt lat="35.0396751" lon="32.3738086">
<ele>36.00</ele>
<time>2015-04-25T17:07:06Z</time>
</trkpt>
<trkpt lat="35.0396139" lon="32.3738255">
<ele>35.96</ele>
<time>2015-04-25T17:07:07Z</time>
</trkpt>
<trkpt lat="35.0395530" lon="32.3738401">
<ele>35.44</ele>
<time>2015-04-25T17:07:08Z</time>
</trkpt>
<trkpt lat="35.0394824" lon="32.3738564">
<ele>35.18</ele>
<time>2015-04-25T17:07:09Z</time>
</trkpt>
<trkpt lat="35.0394202" lon="32.3738715">
<ele>35.05</ele>
<time>2015-04-25T17:07:10Z</time>
</trkpt>
<trkpt lat="35.0393410" lon="32.3738833">
<ele>34.49</ele>
<time>2015-04-25T17:07:11Z</time>
</trkpt>
<trkpt lat="35.0392692" lon="32.3738977">
<ele>33.71</ele>
<time>2015-04-25T17:07:12Z</time>
</trkpt>
<trkpt lat="35.0391906" lon="32.3739051">
<ele>33.32</ele>
<time>2015-04-25T17:07:13Z</time>
</trkpt>
<trkpt lat="35.0391115" lon="32.3739136">
<ele>32.62</ele>
<time>2015-04-25T17:07:14Z</time>
</trkpt>
<trkpt lat="35.0390314" lon="32.3739228">
<ele>32.27</ele>
<time>2015-04-25T17:07:15Z</time>
</trkpt>
<trkpt lat="35.0389459" lon="32.3739317">
<ele>31.60</ele>
<time>2015-04-25T17:07:16Z</time>
</trkpt>
<trkpt lat="35.0388487" lon="32.3739379">
<ele>31.76</ele>
<time>2015-04-25T17:07:17Z</time>
</trkpt>
<trkpt lat="35.0387659" lon="32.3739449">
<ele>31.84</ele>
<time>2015-04-25T17:07:18Z</time>
</trkpt>
<trkpt lat="35.0386864" lon="32.3739455">
<ele>32.38</ele>
<time>2015-04-25T17:07:19Z</time>
</trkpt>
<trkpt lat="35.0386017" lon="32.3739498">
<ele>32.65</ele>
<time>2015-04-25T17:07:20Z</time>
</trkpt>
<trkpt lat="35.0385348" lon="32.3739606">
<ele>32.79</ele>
<time>2015-04-25T17:07:21Z</time>
</trkpt>
<trkpt lat="35.0384588" lon="32.3739686">
<ele>32.86</ele>
<time>2015-04-25T17:07:22Z</time>
</trkpt>
<trkpt lat="35.0383974" lon="32.3739708">
<ele>33.39</ele>
<time>2015-04-25T17:07:23Z</time>
</trkpt>
<trkpt lat="35.0383298" lon="32.3739752">
<ele>33.66</ele>
<time>2015-04-25T17:07:24Z</time>
</trkpt>
<trkpt lat="35.0382844" lon="32.3739876">
<ele>34.29</ele>
<time>2015-04-25T17:07:25Z</time>
</trkpt>
<trkpt lat="35.0382033" lon="32.3740026">
<ele>35.27</ele>
<time>2015-04-25T17:07:27Z</time>
</trkpt>
<trkpt lat="35.0381282" lon="32.3740211">
<ele>35.76</ele>
<time>2015-04-25T17:07:29Z</time>
</trkpt>
<trkpt lat="35.0380577" lon="32.3740418">
<ele>35.88</ele>
<time>2015-04-25T17:07:31Z</time>
</trkpt>
<trkpt lat="35.0379728" lon="32.3740699">
<ele>35.91</ele>
<time>2015-04-25T17:07:33Z</time>
</trkpt>
<trkpt lat="35.0379017" lon="32.3740791">
<ele>36.67</ele>
<time>2015-04-25T17:07:35Z</time>
</trkpt>
<trkpt lat="35.0378512" lon="32.3740946">
<ele>37.11</ele>
<time>2015-04-25T17:07:37Z</time>
</trkpt>
<trkpt lat="35.0377996" lon="32.3741145">
<ele>36.97</ele>
<time>2015-04-25T17:07:39Z</time>
</trkpt>
<trkpt lat="35.0377446" lon="32.3741422">
<ele>37.44</ele>
<time>2015-04-25T17:07:41Z</time>
</trkpt>
<trkpt lat="35.0376931" lon="32.3741698">
<ele>37.80</ele>
<time>2015-04-25T17:07:43Z</time>
</trkpt>
<trkpt lat="35.0376372" lon="32.3742099">
<ele>38.41</ele>
<time>2015-04-25T17:07:46Z</time>
</trkpt>
<trkpt lat="35.0376062" lon="32.3742549">
<ele>38.80</ele>
<time>2015-04-25T17:07:48Z</time>
</trkpt>
<trkpt lat="35.0375790" lon="32.3743053">
<ele>39.39</ele>
<time>2015-04-25T17:07:50Z</time>
</trkpt>
<trkpt lat="35.0375519" lon="32.3743583">
<ele>39.79</ele>
<time>2015-04-25T17:07:52Z</time>
</trkpt>
<trkpt lat="35.0375365" lon="32.3744276">
<ele>39.89</ele>
<time>2015-04-25T17:07:54Z</time>
</trkpt>
<trkpt lat="35.0375204" lon="32.3744891">
<ele>39.92</ele>
<time>2015-04-25T17:07:56Z</time>
</trkpt>
<trkpt lat="35.0375054" lon="32.3745562">
<ele>40.67</ele>
<time>2015-04-25T17:07:58Z</time>
</trkpt>
<trkpt lat="35.0374885" lon="32.3746187">
<ele>40.86</ele>
<time>2015-04-25T17:08:00Z</time>
</trkpt>
<trkpt lat="35.0374810" lon="32.3746830">
<ele>41.66</ele>
<time>2015-04-25T17:08:02Z</time>
</trkpt>
<trkpt lat="35.0374690" lon="32.3747462">
<ele>41.86</ele>
<time>2015-04-25T17:08:04Z</time>
</trkpt>
<trkpt lat="35.0374572" lon="32.3748113">
<ele>41.91</ele>
<time>2015-04-25T17:08:06Z</time>
</trkpt>
<trkpt lat="35.0374417" lon="32.3748926">
<ele>41.92</ele>
<time>2015-04-25T17:08:08Z</time>
</trkpt>
<trkpt lat="35.0374207" lon="32.3749738">
<ele>41.92</ele>
<time>2015-04-25T17:08:10Z</time>
</trkpt>
<trkpt lat="35.0373999" lon="32.3750611">
<ele>42.17</ele>
<time>2015-04-25T17:08:12Z</time>
</trkpt>
<trkpt lat="35.0373913" lon="32.3751519">
<ele>41.24</ele>
<time>2015-04-25T17:08:14Z</time>
</trkpt>
<trkpt lat="35.0373994" lon="32.3752285">
<ele>40.25</ele>
<time>2015-04-25T17:08:16Z</time>
</trkpt>
<trkpt lat="35.0374326" lon="32.3753086">
<ele>39.55</ele>
<time>2015-04-25T17:08:23Z</time>
</trkpt>
<trkpt lat="35.0374596" lon="32.3753673">
<ele>39.08</ele>
<time>2015-04-25T17:08:25Z</time>
</trkpt>
<trkpt lat="35.0374848" lon="32.3754360">
<ele>38.96</ele>
<time>2015-04-25T17:08:27Z</time>
</trkpt>
<trkpt lat="35.0375245" lon="32.3755222">
<ele>38.18</ele>
<time>2015-04-25T17:08:29Z</time>
</trkpt>
<trkpt lat="35.0375684" lon="32.3756092">
<ele>37.49</ele>
<time>2015-04-25T17:08:31Z</time>
</trkpt>
<trkpt lat="35.0376185" lon="32.3757304">
<ele>36.57</ele>
<time>2015-04-25T17:08:33Z</time>
</trkpt>
<trkpt lat="35.0376424" lon="32.3757906">
<ele>36.25</ele>
<time>2015-04-25T17:08:34Z</time>
</trkpt>
<trkpt lat="35.0376787" lon="32.3758556">
<ele>35.59</ele>
<time>2015-04-25T17:08:35Z</time>
</trkpt>
<trkpt lat="35.0377127" lon="32.3759183">
<ele>35.26</ele>
<time>2015-04-25T17:08:36Z</time>
</trkpt>
<trkpt lat="35.0377447" lon="32.3759914">
<ele>35.09</ele>
<time>2015-04-25T17:08:37Z</time>
</trkpt>
<trkpt lat="35.0377748" lon="32.3760560">
<ele>35.01</ele>
<time>2015-04-25T17:08:38Z</time>
</trkpt>
<trkpt lat="35.0378103" lon="32.3761395">
<ele>34.97</ele>
<time>2015-04-25T17:08:39Z</time>
</trkpt>
<trkpt lat="35.0378446" lon="32.3762101">
<ele>34.95</ele>
<time>2015-04-25T17:08:40Z</time>
</trkpt>
<trkpt lat="35.0378870" lon="32.3762659">
<ele>34.44</ele>
<time>2015-04-25T17:08:41Z</time>
</trkpt>
<trkpt lat="35.0379231" lon="32.3763363">
<ele>34.18</ele>
<time>2015-04-25T17:08:42Z</time>
</trkpt>
<trkpt lat="35.0379520" lon="32.3764066">
<ele>34.05</ele>
<time>2015-04-25T17:08:43Z</time>
</trkpt>
<trkpt lat="35.0379868" lon="32.3764797">
<ele>33.99</ele>
<time>2015-04-25T17:08:44Z</time>
</trkpt>
<trkpt lat="35.0380241" lon="32.3765602">
<ele>33.46</ele>
<time>2015-04-25T17:08:45Z</time>
</trkpt>
<trkpt lat="35.0380563" lon="32.3766308">
<ele>33.19</ele>
<time>2015-04-25T17:08:46Z</time>
</trkpt>
<trkpt lat="35.0380980" lon="32.3767034">
<ele>33.06</ele>
<time>2015-04-25T17:08:47Z</time>
</trkpt>
<trkpt lat="35.0381342" lon="32.3767786">
<ele>32.99</ele>
<time>2015-04-25T17:08:48Z</time>
</trkpt>
<trkpt lat="35.0381648" lon="32.3768418">
<ele>32.46</ele>
<time>2015-04-25T17:08:49Z</time>
</trkpt>
<trkpt lat="35.0382039" lon="32.3769187">
<ele>32.19</ele>
<time>2015-04-25T17:08:50Z</time>
</trkpt>
<trkpt lat="35.0382322" lon="32.3769840">
<ele>32.06</ele>
<time>2015-04-25T17:08:51Z</time>
</trkpt>
<trkpt lat="35.0382669" lon="32.3770569">
<ele>31.99</ele>
<time>2015-04-25T17:08:52Z</time>
</trkpt>
<trkpt lat="35.0383017" lon="32.3771420">
<ele>31.46</ele>
<time>2015-04-25T17:08:53Z</time>
</trkpt>
<trkpt lat="35.0383355" lon="32.3772156">
<ele>31.19</ele>
<time>2015-04-25T17:08:54Z</time>
</trkpt>
<trkpt lat="35.0383706" lon="32.3772938">
<ele>31.56</ele>
<time>2015-04-25T17:08:55Z</time>
</trkpt>
<trkpt lat="35.0384095" lon="32.3773771">
<ele>31.74</ele>
<time>2015-04-25T17:08:56Z</time>
</trkpt>
<trkpt lat="35.0384435" lon="32.3774531">
<ele>31.33</ele>
<time>2015-04-25T17:08:57Z</time>
</trkpt>
<trkpt lat="35.0384784" lon="32.3775382">
<ele>31.13</ele>
<time>2015-04-25T17:08:58Z</time>
</trkpt>
<trkpt lat="35.0385112" lon="32.3776241">
<ele>30.53</ele>
<time>2015-04-25T17:08:59Z</time>
</trkpt>
<trkpt lat="35.0385454" lon="32.3777086">
<ele>30.23</ele>
<time>2015-04-25T17:09:00Z</time>
</trkpt>
<trkpt lat="35.0385653" lon="32.3777948">
<ele>30.58</ele>
<time>2015-04-25T17:09:01Z</time>
</trkpt>
<trkpt lat="35.0385932" lon="32.3778752">
<ele>30.25</ele>
<time>2015-04-25T17:09:02Z</time>
</trkpt>
<trkpt lat="35.0386074" lon="32.3779719">
<ele>30.59</ele>
<time>2015-04-25T17:09:03Z</time>
</trkpt>
<trkpt lat="35.0386284" lon="32.3780605">
<ele>30.76</ele>
<time>2015-04-25T17:09:04Z</time>
</trkpt>
<trkpt lat="35.0386522" lon="32.3781371">
<ele>30.34</ele>
<time>2015-04-25T17:09:05Z</time>
</trkpt>
<trkpt lat="35.0386718" lon="32.3782237">
<ele>30.13</ele>
<time>2015-04-25T17:09:06Z</time>
</trkpt>
<trkpt lat="35.0386944" lon="32.3783033">
<ele>30.03</ele>
<time>2015-04-25T17:09:07Z</time>
</trkpt>
<trkpt lat="35.0387139" lon="32.3783884">
<ele>29.98</ele>
<time>2015-04-25T17:09:08Z</time>
</trkpt>
<trkpt lat="35.0387342" lon="32.3784879">
<ele>29.45</ele>
<time>2015-04-25T17:09:09Z</time>
</trkpt>
<trkpt lat="35.0387505" lon="32.3785714">
<ele>29.19</ele>
<time>2015-04-25T17:09:10Z</time>
</trkpt>
<trkpt lat="35.0387671" lon="32.3786590">
<ele>29.06</ele>
<time>2015-04-25T17:09:11Z</time>
</trkpt>
<trkpt lat="35.0387854" lon="32.3787494">
<ele>28.99</ele>
<time>2015-04-25T17:09:12Z</time>
</trkpt>
<trkpt lat="35.0388014" lon="32.3788280">
<ele>28.46</ele>
<time>2015-04-25T17:09:13Z</time>
</trkpt>
<trkpt lat="35.0388190" lon="32.3789251">
<ele>28.19</ele>
<time>2015-04-25T17:09:14Z</time>
</trkpt>
<trkpt lat="35.0388302" lon="32.3790084">
<ele>28.06</ele>
<time>2015-04-25T17:09:15Z</time>
</trkpt>
<trkpt lat="35.0388451" lon="32.3791004">
<ele>27.99</ele>
<time>2015-04-25T17:09:16Z</time>
</trkpt>
<trkpt lat="35.0388762" lon="32.3791840">
<ele>27.96</ele>
<time>2015-04-25T17:09:17Z</time>
</trkpt>
<trkpt lat="35.0388997" lon="32.3792663">
<ele>28.44</ele>
<time>2015-04-25T17:09:18Z</time>
</trkpt>
<trkpt lat="35.0389116" lon="32.3793421">
<ele>28.18</ele>
<time>2015-04-25T17:09:19Z</time>
</trkpt>
<trkpt lat="35.0389285" lon="32.3794249">
<ele>27.55</ele>
<time>2015-04-25T17:09:20Z</time>
</trkpt>
<trkpt lat="35.0389394" lon="32.3794950">
<ele>27.24</ele>
<time>2015-04-25T17:09:21Z</time>
</trkpt>
<trkpt lat="35.0389539" lon="32.3795775">
<ele>26.58</ele>
<time>2015-04-25T17:09:22Z</time>
</trkpt>
<trkpt lat="35.0389659" lon="32.3796493">
<ele>25.75</ele>
<time>2015-04-25T17:09:23Z</time>
</trkpt>
<trkpt lat="35.0389819" lon="32.3797296">
<ele>25.34</ele>
<time>2015-04-25T17:09:24Z</time>
</trkpt>
<trkpt lat="35.0389874" lon="32.3798236">
<ele>24.63</ele>
<time>2015-04-25T17:09:25Z</time>
</trkpt>
<trkpt lat="35.0390017" lon="32.3799045">
<ele>24.28</ele>
<time>2015-04-25T17:09:26Z</time>
</trkpt>
<trkpt lat="35.0390170" lon="32.3800028">
<ele>24.10</ele>
<time>2015-04-25T17:09:27Z</time>
</trkpt>
<trkpt lat="35.0390354" lon="32.3800943">
<ele>23.51</ele>
<time>2015-04-25T17:09:28Z</time>
</trkpt>
<trkpt lat="35.0390493" lon="32.3801942">
<ele>23.22</ele>
<time>2015-04-25T17:09:29Z</time>
</trkpt>
<trkpt lat="35.0390648" lon="32.3802935">
<ele>23.07</ele>
<time>2015-04-25T17:09:30Z</time>
</trkpt>
<trkpt lat="35.0390883" lon="32.3803972">
<ele>22.00</ele>
<time>2015-04-25T17:09:31Z</time>
</trkpt>
<trkpt lat="35.0391094" lon="32.3805013">
<ele>20.96</ele>
<time>2015-04-25T17:09:32Z</time>
</trkpt>
<trkpt lat="35.0391348" lon="32.3806122">
<ele>20.44</ele>
<time>2015-04-25T17:09:33Z</time>
</trkpt>
<trkpt lat="35.0391551" lon="32.3807148">
<ele>19.68</ele>
<time>2015-04-25T17:09:34Z</time>
</trkpt>
<trkpt lat="35.0391829" lon="32.3808185">
<ele>19.30</ele>
<time>2015-04-25T17:09:35Z</time>
</trkpt>
<trkpt lat="35.0392042" lon="32.3809288">
<ele>19.11</ele>
<time>2015-04-25T17:09:36Z</time>
</trkpt>
<trkpt lat="35.0392245" lon="32.3810294">
<ele>19.02</ele>
<time>2015-04-25T17:09:37Z</time>
</trkpt>
<trkpt lat="35.0392509" lon="32.3811418">
<ele>18.47</ele>
<time>2015-04-25T17:09:38Z</time>
</trkpt>
<trkpt lat="35.0392964" lon="32.3812435">
<ele>17.70</ele>
<time>2015-04-25T17:09:39Z</time>
</trkpt>
<trkpt lat="35.0393317" lon="32.3813537">
<ele>17.31</ele>
<time>2015-04-25T17:09:40Z</time>
</trkpt>
<trkpt lat="35.0393919" lon="32.3814581">
<ele>17.12</ele>
<time>2015-04-25T17:09:41Z</time>
</trkpt>
<trkpt lat="35.0394417" lon="32.3815535">
<ele>16.52</ele>
<time>2015-04-25T17:09:42Z</time>
</trkpt>
<trkpt lat="35.0395140" lon="32.3816312">
<ele>16.72</ele>
<time>2015-04-25T17:09:43Z</time>
</trkpt>
<trkpt lat="35.0395754" lon="32.3817202">
<ele>16.82</ele>
<time>2015-04-25T17:09:44Z</time>
</trkpt>
<trkpt lat="35.0396366" lon="32.3817825">
<ele>16.87</ele>
<time>2015-04-25T17:09:45Z</time>
</trkpt>
<trkpt lat="35.0397031" lon="32.3818598">
<ele>16.90</ele>
<time>2015-04-25T17:09:46Z</time>
</trkpt>
<trkpt lat="35.0397548" lon="32.3819340">
<ele>16.91</ele>
<time>2015-04-25T17:09:47Z</time>
</trkpt>
<trkpt lat="35.0398186" lon="32.3820080">
<ele>16.92</ele>
<time>2015-04-25T17:09:48Z</time>
</trkpt>
<trkpt lat="35.0398833" lon="32.3820786">
<ele>16.92</ele>
<time>2015-04-25T17:09:49Z</time>
</trkpt>
<trkpt lat="35.0399452" lon="32.3821449">
<ele>16.92</ele>
<time>2015-04-25T17:09:50Z</time>
</trkpt>
<trkpt lat="35.0400106" lon="32.3822162">
<ele>16.42</ele>
<time>2015-04-25T17:09:51Z</time>
</trkpt>
<trkpt lat="35.0400767" lon="32.3822860">
<ele>16.17</ele>
<time>2015-04-25T17:09:52Z</time>
</trkpt>
<trkpt lat="35.0401339" lon="32.3823511">
<ele>15.55</ele>
<time>2015-04-25T17:09:53Z</time>
</trkpt>
<trkpt lat="35.0402028" lon="32.3824212">
<ele>15.74</ele>
<time>2015-04-25T17:09:54Z</time>
</trkpt>
<trkpt lat="35.0402641" lon="32.3824899">
<ele>15.33</ele>
<time>2015-04-25T17:09:55Z</time>
</trkpt>
<trkpt lat="35.0403396" lon="32.3825631">
<ele>15.13</ele>
<time>2015-04-25T17:09:56Z</time>
</trkpt>
<trkpt lat="35.0404063" lon="32.3826339">
<ele>15.03</ele>
<time>2015-04-25T17:09:57Z</time>
</trkpt>
<trkpt lat="35.0404603" lon="32.3826889">
<ele>14.98</ele>
<time>2015-04-25T17:09:58Z</time>
</trkpt>
<trkpt lat="35.0405261" lon="32.3827607">
<ele>14.45</ele>
<time>2015-04-25T17:09:59Z</time>
</trkpt>
<trkpt lat="35.0405900" lon="32.3828341">
<ele>14.19</ele>
<time>2015-04-25T17:10:00Z</time>
</trkpt>
<trkpt lat="35.0406397" lon="32.3829105">
<ele>13.56</ele>
<time>2015-04-25T17:10:01Z</time>
</trkpt>
<trkpt lat="35.0406893" lon="32.3829912">
<ele>13.24</ele>
<time>2015-04-25T17:10:02Z</time>
</trkpt>
<trkpt lat="35.0407263" lon="32.3830733">
<ele>13.58</ele>
<time>2015-04-25T17:10:03Z</time>
</trkpt>
<trkpt lat="35.0407695" lon="32.3831697">
<ele>13.75</ele>
<time>2015-04-25T17:10:04Z</time>
</trkpt>
<trkpt lat="35.0408007" lon="32.3832662">
<ele>13.84</ele>
<time>2015-04-25T17:10:05Z</time>
</trkpt>
<trkpt lat="35.0408218" lon="32.3833673">
<ele>13.88</ele>
<time>2015-04-25T17:10:06Z</time>
</trkpt>
<trkpt lat="35.0408260" lon="32.3834520">
<ele>13.90</ele>
<time>2015-04-25T17:10:07Z</time>
</trkpt>
<trkpt lat="35.0408338" lon="32.3835415">
<ele>13.91</ele>
<time>2015-04-25T17:10:08Z</time>
</trkpt>
<trkpt lat="35.0408516" lon="32.3836271">
<ele>13.42</ele>
<time>2015-04-25T17:10:09Z</time>
</trkpt>
<trkpt lat="35.0408516" lon="32.3837198">
<ele>12.67</ele>
<time>2015-04-25T17:10:10Z</time>
</trkpt>
<trkpt lat="35.0408572" lon="32.3838130">
<ele>12.30</ele>
<time>2015-04-25T17:10:11Z</time>
</trkpt>
<trkpt lat="35.0408621" lon="32.3839123">
<ele>12.11</ele>
<time>2015-04-25T17:10:12Z</time>
</trkpt>
<trkpt lat="35.0408686" lon="32.3840105">
<ele>11.52</ele>
<time>2015-04-25T17:10:13Z</time>
</trkpt>
<trkpt lat="35.0408694" lon="32.3841155">
<ele>11.72</ele>
<time>2015-04-25T17:10:14Z</time>
</trkpt>
<trkpt lat="35.0408727" lon="32.3842131">
<ele>11.82</ele>
<time>2015-04-25T17:10:15Z</time>
</trkpt>
<trkpt lat="35.0408703" lon="32.3843064">
<ele>11.87</ele>
<time>2015-04-25T17:10:16Z</time>
</trkpt>
<trkpt lat="35.0408642" lon="32.3843854">
<ele>11.90</ele>
<time>2015-04-25T17:10:17Z</time>
</trkpt>
<trkpt lat="35.0408609" lon="32.3844688">
<ele>11.91</ele>
<time>2015-04-25T17:10:18Z</time>
</trkpt>
<trkpt lat="35.0408624" lon="32.3845411">
<ele>12.42</ele>
<time>2015-04-25T17:10:19Z</time>
</trkpt>
<trkpt lat="35.0408626" lon="32.3846265">
<ele>12.67</ele>
<time>2015-04-25T17:10:20Z</time>
</trkpt>
<trkpt lat="35.0408858" lon="32.3847086">
<ele>12.80</ele>
<time>2015-04-25T17:10:21Z</time>
</trkpt>
<trkpt lat="35.0408883" lon="32.3847851">
<ele>12.36</ele>
<time>2015-04-25T17:10:22Z</time>
</trkpt>
<trkpt lat="35.0408938" lon="32.3848732">
<ele>12.14</ele>
<time>2015-04-25T17:10:23Z</time>
</trkpt>
<trkpt lat="35.0408966" lon="32.3849570">
<ele>12.03</ele>
<time>2015-04-25T17:10:24Z</time>
</trkpt>
<trkpt lat="35.0408961" lon="32.3850299">
<ele>11.48</ele>
<time>2015-04-25T17:10:25Z</time>
</trkpt>
<trkpt lat="35.0408991" lon="32.3851130">
<ele>11.20</ele>
<time>2015-04-25T17:10:26Z</time>
</trkpt>
<trkpt lat="35.0408954" lon="32.3851949">
<ele>11.56</ele>
<time>2015-04-25T17:10:27Z</time>
</trkpt>
<trkpt lat="35.0408960" lon="32.3852831">
<ele>11.74</ele>
<time>2015-04-25T17:10:28Z</time>
</trkpt>
<trkpt lat="35.0409052" lon="32.3853721">
<ele>11.33</ele>
<time>2015-04-25T17:10:29Z</time>
</trkpt>
<trkpt lat="35.0409075" lon="32.3854531">
<ele>11.13</ele>
<time>2015-04-25T17:10:30Z</time>
</trkpt>
<trkpt lat="35.0409060" lon="32.3855391">
<ele>11.03</ele>
<time>2015-04-25T17:10:31Z</time>
</trkpt>
<trkpt lat="35.0409074" lon="32.3856171">
<ele>10.98</ele>
<time>2015-04-25T17:10:32Z</time>
</trkpt>
<trkpt lat="35.0409091" lon="32.3856861">
<ele>11.45</ele>
<time>2015-04-25T17:10:33Z</time>
</trkpt>
<trkpt lat="35.0409103" lon="32.3857626">
<ele>11.69</ele>
<time>2015-04-25T17:10:34Z</time>
</trkpt>
<trkpt lat="35.0409112" lon="32.3858290">
<ele>11.81</ele>
<time>2015-04-25T17:10:35Z</time>
</trkpt>
<trkpt lat="35.0409138" lon="32.3858987">
<ele>11.87</ele>
<time>2015-04-25T17:10:36Z</time>
</trkpt>
<trkpt lat="35.0409161" lon="32.3859574">
<ele>11.90</ele>
<time>2015-04-25T17:10:37Z</time>
</trkpt>
<trkpt lat="35.0409182" lon="32.3860173">
<ele>11.91</ele>
<time>2015-04-25T17:10:38Z</time>
</trkpt>
<trkpt lat="35.0409116" lon="32.3860826">
<ele>11.42</ele>
<time>2015-04-25T17:10:39Z</time>
</trkpt>
<trkpt lat="35.0409128" lon="32.3861446">
<ele>11.67</ele>
<time>2015-04-25T17:10:40Z</time>
</trkpt>
<trkpt lat="35.0409175" lon="32.3862035">
<ele>11.30</ele>
<time>2015-04-25T17:10:41Z</time>
</trkpt>
<trkpt lat="35.0409231" lon="32.3862682">
<ele>11.11</ele>
<time>2015-04-25T17:10:42Z</time>
</trkpt>
<trkpt lat="35.0409253" lon="32.3863372">
<ele>11.52</ele>
<time>2015-04-25T17:10:43Z</time>
</trkpt>
<trkpt lat="35.0409293" lon="32.3864051">
<ele>11.72</ele>
<time>2015-04-25T17:10:44Z</time>
</trkpt>
<trkpt lat="35.0409390" lon="32.3864719">
<ele>11.32</ele>
<time>2015-04-25T17:10:45Z</time>
</trkpt>
<trkpt lat="35.0409438" lon="32.3865330">
<ele>11.12</ele>
<time>2015-04-25T17:10:46Z</time>
</trkpt>
<trkpt lat="35.0409532" lon="32.3866080">
<ele>11.02</ele>
<time>2015-04-25T17:10:47Z</time>
</trkpt>
<trkpt lat="35.0409601" lon="32.3866782">
<ele>10.97</ele>
<time>2015-04-25T17:10:48Z</time>
</trkpt>
<trkpt lat="35.0409644" lon="32.3867406">
<ele>10.95</ele>
<time>2015-04-25T17:10:49Z</time>
</trkpt>
<trkpt lat="35.0409711" lon="32.3868134">
<ele>10.94</ele>
<time>2015-04-25T17:10:50Z</time>
</trkpt>
<trkpt lat="35.0409795" lon="32.3868823">
<ele>10.93</ele>
<time>2015-04-25T17:10:51Z</time>
</trkpt>
<trkpt lat="35.0409834" lon="32.3869495">
<ele>10.93</ele>
<time>2015-04-25T17:10:52Z</time>
</trkpt>
<trkpt lat="35.0409906" lon="32.3870155">
<ele>11.43</ele>
<time>2015-04-25T17:10:53Z</time>
</trkpt>
<trkpt lat="35.0410020" lon="32.3870793">
<ele>11.68</ele>
<time>2015-04-25T17:10:54Z</time>
</trkpt>
<trkpt lat="35.0410077" lon="32.3871396">
<ele>11.80</ele>
<time>2015-04-25T17:10:55Z</time>
</trkpt>
<trkpt lat="35.0410126" lon="32.3872012">
<ele>11.86</ele>
<time>2015-04-25T17:10:56Z</time>
</trkpt>
<trkpt lat="35.0410201" lon="32.3872676">
<ele>11.89</ele>
<time>2015-04-25T17:10:57Z</time>
</trkpt>
<trkpt lat="35.0410285" lon="32.3873301">
<ele>11.91</ele>
<time>2015-04-25T17:10:58Z</time>
</trkpt>
<trkpt lat="35.0410301" lon="32.3873851">
<ele>11.92</ele>
<time>2015-04-25T17:10:59Z</time>
</trkpt>
<trkpt lat="35.0410406" lon="32.3874969">
<ele>11.92</ele>
<time>2015-04-25T17:11:01Z</time>
</trkpt>
<trkpt lat="35.0410587" lon="32.3875747">
<ele>11.92</ele>
<time>2015-04-25T17:11:03Z</time>
</trkpt>
<trkpt lat="35.0410758" lon="32.3876658">
<ele>11.17</ele>
<time>2015-04-25T17:11:05Z</time>
</trkpt>
<trkpt lat="35.0410914" lon="32.3877489">
<ele>11.74</ele>
<time>2015-04-25T17:11:07Z</time>
</trkpt>
<trkpt lat="35.0410991" lon="32.3878059">
<ele>11.83</ele>
<time>2015-04-25T17:11:08Z</time>
</trkpt>
<trkpt lat="35.0411013" lon="32.3878655">
<ele>12.38</ele>
<time>2015-04-25T17:11:09Z</time>
</trkpt>
<trkpt lat="35.0410996" lon="32.3879705">
<ele>13.04</ele>
<time>2015-04-25T17:11:11Z</time>
</trkpt>
<trkpt lat="35.0410934" lon="32.3880258">
<ele>13.48</ele>
<time>2015-04-25T17:11:12Z</time>
</trkpt>
<trkpt lat="35.0410949" lon="32.3880824">
<ele>13.70</ele>
<time>2015-04-25T17:11:13Z</time>
</trkpt>
<trkpt lat="35.0410874" lon="32.3881685">
<ele>13.37</ele>
<time>2015-04-25T17:11:15Z</time>
</trkpt>
<trkpt lat="35.0410824" lon="32.3882504">
<ele>13.54</ele>
<time>2015-04-25T17:11:17Z</time>
</trkpt>
<trkpt lat="35.0410827" lon="32.3883333">
<ele>13.08</ele>
<time>2015-04-25T17:11:19Z</time>
</trkpt>
<trkpt lat="35.0410872" lon="32.3884231">
<ele>12.96</ele>
<time>2015-04-25T17:11:21Z</time>
</trkpt>
<trkpt lat="35.0410808" lon="32.3885094">
<ele>12.43</ele>
<time>2015-04-25T17:11:23Z</time>
</trkpt>
<trkpt lat="35.0410759" lon="32.3886035">
<ele>12.05</ele>
<time>2015-04-25T17:11:25Z</time>
</trkpt>
<trkpt lat="35.0410746" lon="32.3886932">
<ele>13.21</ele>
<time>2015-04-25T17:11:27Z</time>
</trkpt>
<trkpt lat="35.0410723" lon="32.3887799">
<ele>14.25</ele>
<time>2015-04-25T17:11:29Z</time>
</trkpt>
<trkpt lat="35.0410734" lon="32.3888631">
<ele>15.26</ele>
<time>2015-04-25T17:11:31Z</time>
</trkpt>
<trkpt lat="35.0410711" lon="32.3889562">
<ele>15.01</ele>
<time>2015-04-25T17:11:33Z</time>
</trkpt>
<trkpt lat="35.0410704" lon="32.3890533">
<ele>15.45</ele>
<time>2015-04-25T17:11:35Z</time>
</trkpt>
<trkpt lat="35.0410662" lon="32.3891530">
<ele>16.06</ele>
<time>2015-04-25T17:11:37Z</time>
</trkpt>
<trkpt lat="35.0410593" lon="32.3892204">
<ele>15.99</ele>
<time>2015-04-25T17:11:38Z</time>
</trkpt>
<trkpt lat="35.0410532" lon="32.3892760">
<ele>16.46</ele>
<time>2015-04-25T17:11:39Z</time>
</trkpt>
<trkpt lat="35.0410506" lon="32.3893337">
<ele>16.69</ele>
<time>2015-04-25T17:11:40Z</time>
</trkpt>
<trkpt lat="35.0410436" lon="32.3894276">
<ele>17.37</ele>
<time>2015-04-25T17:11:42Z</time>
</trkpt>
<trkpt lat="35.0410472" lon="32.3895323">
<ele>18.29</ele>
<time>2015-04-25T17:11:44Z</time>
</trkpt>
<trkpt lat="35.0410486" lon="32.3895879">
<ele>18.61</ele>
<time>2015-04-25T17:11:45Z</time>
</trkpt>
<trkpt lat="35.0410542" lon="32.3896900">
<ele>18.10</ele>
<time>2015-04-25T17:11:47Z</time>
</trkpt>
<trkpt lat="35.0410491" lon="32.3897510">
<ele>17.51</ele>
<time>2015-04-25T17:11:48Z</time>
</trkpt>
<trkpt lat="35.0410494" lon="32.3898063">
<ele>17.72</ele>
<time>2015-04-25T17:11:49Z</time>
</trkpt>
<trkpt lat="35.0410435" lon="32.3899204">
<ele>17.12</ele>
<time>2015-04-25T17:11:51Z</time>
</trkpt>
<trkpt lat="35.0410401" lon="32.3899787">
<ele>17.52</ele>
<time>2015-04-25T17:11:52Z</time>
</trkpt>
<trkpt lat="35.0410305" lon="32.3900869">
<ele>17.32</ele>
<time>2015-04-25T17:11:54Z</time>
</trkpt>
<trkpt lat="35.0410320" lon="32.3901458">
<ele>16.62</ele>
<time>2015-04-25T17:11:55Z</time>
</trkpt>
<trkpt lat="35.0410306" lon="32.3902027">
<ele>16.27</ele>
<time>2015-04-25T17:11:56Z</time>
</trkpt>
<trkpt lat="35.0410269" lon="32.3903020">
<ele>16.01</ele>
<time>2015-04-25T17:11:58Z</time>
</trkpt>
<trkpt lat="35.0410268" lon="32.3904009">
<ele>15.20</ele>
<time>2015-04-25T17:12:00Z</time>
</trkpt>
<trkpt lat="35.0410164" lon="32.3904967">
<ele>16.24</ele>
<time>2015-04-25T17:12:02Z</time>
</trkpt>
<trkpt lat="35.0410169" lon="32.3906052">
<ele>17.50</ele>
<time>2015-04-25T17:12:04Z</time>
</trkpt>
<trkpt lat="35.0410127" lon="32.3906604">
<ele>17.21</ele>
<time>2015-04-25T17:12:05Z</time>
</trkpt>
<trkpt lat="35.0410069" lon="32.3907202">
<ele>17.57</ele>
<time>2015-04-25T17:12:06Z</time>
</trkpt>
<trkpt lat="35.0410070" lon="32.3908183">
<ele>17.84</ele>
<time>2015-04-25T17:12:08Z</time>
</trkpt>
<trkpt lat="35.0410141" lon="32.3909075">
<ele>18.65</ele>
<time>2015-04-25T17:12:10Z</time>
</trkpt>
<trkpt lat="35.0410215" lon="32.3909953">
<ele>19.61</ele>
<time>2015-04-25T17:12:12Z</time>
</trkpt>
<trkpt lat="35.0410222" lon="32.3910751">
<ele>19.85</ele>
<time>2015-04-25T17:12:14Z</time>
</trkpt>
<trkpt lat="35.0410213" lon="32.3911621">
<ele>19.16</ele>
<time>2015-04-25T17:12:16Z</time>
</trkpt>
<trkpt lat="35.0410201" lon="32.3912367">
<ele>18.23</ele>
<time>2015-04-25T17:12:18Z</time>
</trkpt>
<trkpt lat="35.0410152" lon="32.3913080">
<ele>18.00</ele>
<time>2015-04-25T17:12:20Z</time>
</trkpt>
<trkpt lat="35.0410125" lon="32.3913820">
<ele>17.44</ele>
<time>2015-04-25T17:12:22Z</time>
</trkpt>
<trkpt lat="35.0410159" lon="32.3914590">
<ele>17.05</ele>
<time>2015-04-25T17:12:24Z</time>
</trkpt>
<trkpt lat="35.0410200" lon="32.3915417">
<ele>16.96</ele>
<time>2015-04-25T17:12:26Z</time>
</trkpt>
<trkpt lat="35.0410176" lon="32.3916306">
<ele>16.93</ele>
<time>2015-04-25T17:12:28Z</time>
</trkpt>
<trkpt lat="35.0410144" lon="32.3917179">
<ele>16.93</ele>
<time>2015-04-25T17:12:30Z</time>
</trkpt>
<trkpt lat="35.0410106" lon="32.3918014">
<ele>16.93</ele>
<time>2015-04-25T17:12:32Z</time>
</trkpt>
<trkpt lat="35.0410032" lon="32.3918801">
<ele>16.93</ele>
<time>2015-04-25T17:12:34Z</time>
</trkpt>
<trkpt lat="35.0410047" lon="32.3919575">
<ele>16.43</ele>
<time>2015-04-25T17:12:36Z</time>
</trkpt>
<trkpt lat="35.0410161" lon="32.3920347">
<ele>15.55</ele>
<time>2015-04-25T17:12:38Z</time>
</trkpt>
<trkpt lat="35.0410303" lon="32.3921175">
<ele>14.83</ele>
<time>2015-04-25T17:12:40Z</time>
</trkpt>
<trkpt lat="35.0410439" lon="32.3922074">
<ele>15.40</ele>
<time>2015-04-25T17:12:42Z</time>
</trkpt>
<trkpt lat="35.0410659" lon="32.3922981">
<ele>16.54</ele>
<time>2015-04-25T17:12:44Z</time>
</trkpt>
<trkpt lat="35.0410929" lon="32.3923868">
<ele>16.83</ele>
<time>2015-04-25T17:12:46Z</time>
</trkpt>
<trkpt lat="35.0411192" lon="32.3924687">
<ele>16.90</ele>
<time>2015-04-25T17:12:48Z</time>
</trkpt>
<trkpt lat="35.0411394" lon="32.3925484">
<ele>17.67</ele>
<time>2015-04-25T17:12:50Z</time>
</trkpt>
<trkpt lat="35.0411468" lon="32.3926215">
<ele>17.86</ele>
<time>2015-04-25T17:12:52Z</time>
</trkpt>
<trkpt lat="35.0411490" lon="32.3926889">
<ele>16.66</ele>
<time>2015-04-25T17:12:54Z</time>
</trkpt>
<trkpt lat="35.0411346" lon="32.3927476">
<ele>16.61</ele>
<time>2015-04-25T17:12:56Z</time>
</trkpt>
<trkpt lat="35.0411071" lon="32.3928008">
<ele>16.85</ele>
<time>2015-04-25T17:12:58Z</time>
</trkpt>
<trkpt lat="35.0410778" lon="32.3928573">
<ele>16.91</ele>
<time>2015-04-25T17:13:00Z</time>
</trkpt>
<trkpt lat="35.0410478" lon="32.3929169">
<ele>15.67</ele>
<time>2015-04-25T17:13:02Z</time>
</trkpt>
<trkpt lat="35.0410222" lon="32.3929788">
<ele>15.11</ele>
<time>2015-04-25T17:13:04Z</time>
</trkpt>
<trkpt lat="35.0410025" lon="32.3930476">
<ele>14.97</ele>
<time>2015-04-25T17:13:06Z</time>
</trkpt>
<trkpt lat="35.0409830" lon="32.3931228">
<ele>13.69</ele>
<time>2015-04-25T17:13:08Z</time>
</trkpt>
<trkpt lat="35.0409589" lon="32.3931980">
<ele>12.62</ele>
<time>2015-04-25T17:13:10Z</time>
</trkpt>
<trkpt lat="35.0409285" lon="32.3932676">
<ele>12.60</ele>
<time>2015-04-25T17:13:12Z</time>
</trkpt>
<trkpt lat="35.0408978" lon="32.3933375">
<ele>12.34</ele>
<time>2015-04-25T17:13:14Z</time>
</trkpt>
<trkpt lat="35.0408782" lon="32.3934072">
<ele>12.78</ele>
<time>2015-04-25T17:13:16Z</time>
</trkpt>
<trkpt lat="35.0408601" lon="32.3934718">
<ele>12.14</ele>
<time>2015-04-25T17:13:18Z</time>
</trkpt>
<trkpt lat="35.0408483" lon="32.3935376">
<ele>11.98</ele>
<time>2015-04-25T17:13:20Z</time>
</trkpt>
<trkpt lat="35.0408436" lon="32.3936024">
<ele>11.69</ele>
<time>2015-04-25T17:13:22Z</time>
</trkpt>
<trkpt lat="35.0408446" lon="32.3936619">
<ele>11.87</ele>
<time>2015-04-25T17:13:24Z</time>
</trkpt>
<trkpt lat="35.0408270" lon="32.3937273">
<ele>14.04</ele>
<time>2015-04-25T17:13:27Z</time>
</trkpt>
<trkpt lat="35.0408103" lon="32.3937868">
<ele>14.93</ele>
<time>2015-04-25T17:13:31Z</time>
</trkpt>
<trkpt lat="35.0408046" lon="32.3938554">
<ele>13.55</ele>
<time>2015-04-25T17:13:35Z</time>
</trkpt>
<trkpt lat="35.0407873" lon="32.3939234">
<ele>13.00</ele>
<time>2015-04-25T17:13:38Z</time>
</trkpt>
<trkpt lat="35.0407682" lon="32.3940017">
<ele>14.56</ele>
<time>2015-04-25T17:13:41Z</time>
</trkpt>
<trkpt lat="35.0407516" lon="32.3940538">
<ele>15.33</ele>
<time>2015-04-25T17:13:43Z</time>
</trkpt>
<trkpt lat="35.0407360" lon="32.3941094">
<ele>15.78</ele>
<time>2015-04-25T17:13:45Z</time>
</trkpt>
<trkpt lat="35.0407085" lon="32.3941835">
<ele>16.66</ele>
<time>2015-04-25T17:13:48Z</time>
</trkpt>
<trkpt lat="35.0406793" lon="32.3942472">
<ele>16.89</ele>
<time>2015-04-25T17:13:51Z</time>
</trkpt>
<trkpt lat="35.0406587" lon="32.3943039">
<ele>16.92</ele>
<time>2015-04-25T17:13:54Z</time>
</trkpt>
<trkpt lat="35.0406661" lon="32.3943793">
<ele>13.67</ele>
<time>2015-04-25T17:13:58Z</time>
</trkpt>
<trkpt lat="35.0406560" lon="32.3944426">
<ele>14.64</ele>
<time>2015-04-25T17:14:01Z</time>
</trkpt>
<trkpt lat="35.0406501" lon="32.3945001">
<ele>16.26</ele>
<time>2015-04-25T17:14:04Z</time>
</trkpt>
<trkpt lat="35.0406556" lon="32.3945549">
<ele>14.72</ele>
<time>2015-04-25T17:14:07Z</time>
</trkpt>
<trkpt lat="35.0406288" lon="32.3946229">
<ele>14.77</ele>
<time>2015-04-25T17:14:10Z</time>
</trkpt>
<trkpt lat="35.0405999" lon="32.3946692">
<ele>15.14</ele>
<time>2015-04-25T17:14:12Z</time>
</trkpt>
<trkpt lat="35.0405795" lon="32.3947433">
<ele>14.20</ele>
<time>2015-04-25T17:14:15Z</time>
</trkpt>
<trkpt lat="35.0405743" lon="32.3948289">
<ele>15.58</ele>
<time>2015-04-25T17:14:18Z</time>
</trkpt>
<trkpt lat="35.0405701" lon="32.3948874">
<ele>16.34</ele>
<time>2015-04-25T17:14:20Z</time>
</trkpt>
<trkpt lat="35.0405616" lon="32.3949568">
<ele>15.98</ele>
<time>2015-04-25T17:14:23Z</time>
</trkpt>
<trkpt lat="35.0405346" lon="32.3950124">
<ele>17.06</ele>
<time>2015-04-25T17:14:26Z</time>
</trkpt>
<trkpt lat="35.0405010" lon="32.3950504">
<ele>16.55</ele>
<time>2015-04-25T17:14:31Z</time>
</trkpt>
<trkpt lat="35.0405130" lon="32.3949941">
<ele>18.33</ele>
<time>2015-04-25T17:15:25Z</time>
</trkpt>
<trkpt lat="35.0405086" lon="32.3949300">
<ele>20.92</ele>
<time>2015-04-25T17:15:36Z</time>
</trkpt>
<trkpt lat="35.0404876" lon="32.3948785">
<ele>21.81</ele>
<time>2015-04-25T17:16:21Z</time>
</trkpt>
<trkpt lat="35.0404565" lon="32.3948388">
<ele>16.92</ele>
<time>2015-04-25T17:30:49Z</time>
</trkpt>
<trkpt lat="35.0404210" lon="32.3948737">
<ele>12.28</ele>
<time>2015-04-25T17:35:03Z</time>
</trkpt>
<trkpt lat="35.0404631" lon="32.3948931">
<ele>15.18</ele>
<time>2015-04-25T17:40:09Z</time>
</trkpt>
<trkpt lat="35.0404239" lon="32.3949314">
<ele>14.67</ele>
<time>2015-04-25T17:41:03Z</time>
</trkpt>
<trkpt lat="35.0403899" lon="32.3949801">
<ele>13.52</ele>
<time>2015-04-25T17:41:06Z</time>
</trkpt>
<trkpt lat="35.0403558" lon="32.3950583">
<ele>12.32</ele>
<time>2015-04-25T17:41:08Z</time>
</trkpt>
<trkpt lat="35.0403212" lon="32.3951574">
<ele>12.02</ele>
<time>2015-04-25T17:41:10Z</time>
</trkpt>
<trkpt lat="35.0402848" lon="32.3952533">
<ele>12.45</ele>
<time>2015-04-25T17:41:12Z</time>
</trkpt>
<trkpt lat="35.0402513" lon="32.3953404">
<ele>13.06</ele>
<time>2015-04-25T17:41:14Z</time>
</trkpt>
<trkpt lat="35.0402119" lon="32.3954250">
<ele>13.46</ele>
<time>2015-04-25T17:41:16Z</time>
</trkpt>
<trkpt lat="35.0401711" lon="32.3955015">
<ele>13.31</ele>
<time>2015-04-25T17:41:18Z</time>
</trkpt>
<trkpt lat="35.0401292" lon="32.3955679">
<ele>13.02</ele>
<time>2015-04-25T17:41:20Z</time>
</trkpt>
<trkpt lat="35.0401010" lon="32.3956312">
<ele>12.95</ele>
<time>2015-04-25T17:41:22Z</time>
</trkpt>
<trkpt lat="35.0400858" lon="32.3956841">
<ele>12.18</ele>
<time>2015-04-25T17:41:24Z</time>
</trkpt>
<trkpt lat="35.0400532" lon="32.3957564">
<ele>13.33</ele>
<time>2015-04-25T17:41:27Z</time>
</trkpt>
<trkpt lat="35.0400228" lon="32.3958206">
<ele>14.28</ele>
<time>2015-04-25T17:41:29Z</time>
</trkpt>
<trkpt lat="35.0399850" lon="32.3958930">
<ele>15.51</ele>
<time>2015-04-25T17:41:31Z</time>
</trkpt>
<trkpt lat="35.0399433" lon="32.3959706">
<ele>15.82</ele>
<time>2015-04-25T17:41:33Z</time>
</trkpt>
<trkpt lat="35.0399010" lon="32.3960561">
<ele>16.65</ele>
<time>2015-04-25T17:41:35Z</time>
</trkpt>
<trkpt lat="35.0398778" lon="32.3961044">
<ele>16.79</ele>
<time>2015-04-25T17:41:36Z</time>
</trkpt>
<trkpt lat="35.0398494" lon="32.3961855">
<ele>17.36</ele>
<time>2015-04-25T17:41:37Z</time>
</trkpt>
<trkpt lat="35.0398063" lon="32.3962778">
<ele>17.78</ele>
<time>2015-04-25T17:41:39Z</time>
</trkpt>
<trkpt lat="35.0397846" lon="32.3963294">
<ele>17.85</ele>
<time>2015-04-25T17:41:40Z</time>
</trkpt>
<trkpt lat="35.0397429" lon="32.3964084">
<ele>17.16</ele>
<time>2015-04-25T17:41:42Z</time>
</trkpt>
<trkpt lat="35.0397186" lon="32.3964827">
<ele>16.48</ele>
<time>2015-04-25T17:41:44Z</time>
</trkpt>
<trkpt lat="35.0396830" lon="32.3965398">
<ele>15.56</ele>
<time>2015-04-25T17:41:46Z</time>
</trkpt>
<trkpt lat="35.0396477" lon="32.3966115">
<ele>15.33</ele>
<time>2015-04-25T17:41:48Z</time>
</trkpt>
<trkpt lat="35.0396165" lon="32.3966947">
<ele>15.53</ele>
<time>2015-04-25T17:41:50Z</time>
</trkpt>
<trkpt lat="35.0395938" lon="32.3967728">
<ele>16.58</ele>
<time>2015-04-25T17:41:52Z</time>
</trkpt>
<trkpt lat="35.0395744" lon="32.3968429">
<ele>16.09</ele>
<time>2015-04-25T17:41:54Z</time>
</trkpt>
<trkpt lat="35.0395538" lon="32.3969090">
<ele>15.97</ele>
<time>2015-04-25T17:41:56Z</time>
</trkpt>
<trkpt lat="35.0395281" lon="32.3969730">
<ele>16.69</ele>
<time>2015-04-25T17:41:58Z</time>
</trkpt>
<trkpt lat="35.0394960" lon="32.3970371">
<ele>16.12</ele>
<time>2015-04-25T17:42:00Z</time>
</trkpt>
<trkpt lat="35.0394704" lon="32.3971097">
<ele>15.97</ele>
<time>2015-04-25T17:42:02Z</time>
</trkpt>
<trkpt lat="35.0394430" lon="32.3971883">
<ele>15.94</ele>
<time>2015-04-25T17:42:04Z</time>
</trkpt>
<trkpt lat="35.0394170" lon="32.3972763">
<ele>15.93</ele>
<time>2015-04-25T17:42:06Z</time>
</trkpt>
<trkpt lat="35.0393946" lon="32.3973690">
<ele>15.18</ele>
<time>2015-04-25T17:42:08Z</time>
</trkpt>
<trkpt lat="35.0393765" lon="32.3974669">
<ele>15.49</ele>
<time>2015-04-25T17:42:10Z</time>
</trkpt>
<trkpt lat="35.0393640" lon="32.3975720">
<ele>16.32</ele>
<time>2015-04-25T17:42:12Z</time>
</trkpt>
<trkpt lat="35.0393590" lon="32.3976806">
<ele>16.77</ele>
<time>2015-04-25T17:42:14Z</time>
</trkpt>
<trkpt lat="35.0393498" lon="32.3977887">
<ele>16.89</ele>
<time>2015-04-25T17:42:16Z</time>
</trkpt>
<trkpt lat="35.0393453" lon="32.3978444">
<ele>16.91</ele>
<time>2015-04-25T17:42:17Z</time>
</trkpt>
<trkpt lat="35.0393426" lon="32.3979486">
<ele>16.42</ele>
<time>2015-04-25T17:42:18Z</time>
</trkpt>
<trkpt lat="35.0393356" lon="32.3980102">
<ele>16.17</ele>
<time>2015-04-25T17:42:19Z</time>
</trkpt>
<trkpt lat="35.0393348" lon="32.3980829">
<ele>16.05</ele>
<time>2015-04-25T17:42:20Z</time>
</trkpt>
<trkpt lat="35.0393330" lon="32.3981548">
<ele>16.49</ele>
<time>2015-04-25T17:42:21Z</time>
</trkpt>
<trkpt lat="35.0393261" lon="32.3982255">
<ele>16.21</ele>
<time>2015-04-25T17:42:22Z</time>
</trkpt>
<trkpt lat="35.0393169" lon="32.3982936">
<ele>15.57</ele>
<time>2015-04-25T17:42:23Z</time>
</trkpt>
<trkpt lat="35.0393092" lon="32.3983730">
<ele>15.25</ele>
<time>2015-04-25T17:42:24Z</time>
</trkpt>
<trkpt lat="35.0392947" lon="32.3984419">
<ele>15.09</ele>
<time>2015-04-25T17:42:25Z</time>
</trkpt>
<trkpt lat="35.0392877" lon="32.3985122">
<ele>15.01</ele>
<time>2015-04-25T17:42:26Z</time>
</trkpt>
<trkpt lat="35.0392845" lon="32.3985887">
<ele>14.47</ele>
<time>2015-04-25T17:42:27Z</time>
</trkpt>
<trkpt lat="35.0392780" lon="32.3986650">
<ele>14.20</ele>
<time>2015-04-25T17:42:28Z</time>
</trkpt>
<trkpt lat="35.0392809" lon="32.3987241">
<ele>13.56</ele>
<time>2015-04-25T17:42:29Z</time>
</trkpt>
<trkpt lat="35.0392818" lon="32.3987992">
<ele>12.74</ele>
<time>2015-04-25T17:42:30Z</time>
</trkpt>
<trkpt lat="35.0392780" lon="32.3988661">
<ele>12.33</ele>
<time>2015-04-25T17:42:31Z</time>
</trkpt>
<trkpt lat="35.0392827" lon="32.3989350">
<ele>11.63</ele>
<time>2015-04-25T17:42:32Z</time>
</trkpt>
<trkpt lat="35.0392813" lon="32.3990079">
<ele>11.78</ele>
<time>2015-04-25T17:42:33Z</time>
</trkpt>
<trkpt lat="35.0392761" lon="32.3990842">
<ele>11.85</ele>
<time>2015-04-25T17:42:34Z</time>
</trkpt>
<trkpt lat="35.0392683" lon="32.3991544">
<ele>11.89</ele>
<time>2015-04-25T17:42:35Z</time>
</trkpt>
<trkpt lat="35.0392719" lon="32.3992214">
<ele>11.41</ele>
<time>2015-04-25T17:42:36Z</time>
</trkpt>
<trkpt lat="35.0392537" lon="32.3992921">
<ele>11.67</ele>
<time>2015-04-25T17:42:37Z</time>
</trkpt>
<trkpt lat="35.0392352" lon="32.3993723">
<ele>12.30</ele>
<time>2015-04-25T17:42:38Z</time>
</trkpt>
<trkpt lat="35.0392354" lon="32.3994497">
<ele>12.61</ele>
<time>2015-04-25T17:42:39Z</time>
</trkpt>
<trkpt lat="35.0392388" lon="32.3995322">
<ele>12.77</ele>
<time>2015-04-25T17:42:40Z</time>
</trkpt>
<trkpt lat="35.0392294" lon="32.3996176">
<ele>12.85</ele>
<time>2015-04-25T17:42:41Z</time>
</trkpt>
<trkpt lat="35.0392310" lon="32.3996783">
<ele>12.39</ele>
<time>2015-04-25T17:42:42Z</time>
</trkpt>
<trkpt lat="35.0392309" lon="32.3997594">
<ele>12.66</ele>
<time>2015-04-25T17:42:43Z</time>
</trkpt>
<trkpt lat="35.0392259" lon="32.3998490">
<ele>12.79</ele>
<time>2015-04-25T17:42:44Z</time>
</trkpt>
<trkpt lat="35.0392261" lon="32.3999259">
<ele>13.36</ele>
<time>2015-04-25T17:42:45Z</time>
</trkpt>
<trkpt lat="35.0392185" lon="32.4000018">
<ele>13.64</ele>
<time>2015-04-25T17:42:46Z</time>
</trkpt>
<trkpt lat="35.0392062" lon="32.4000792">
<ele>13.78</ele>
<time>2015-04-25T17:42:47Z</time>
</trkpt>
<trkpt lat="35.0392046" lon="32.4001521">
<ele>13.35</ele>
<time>2015-04-25T17:42:48Z</time>
</trkpt>
<trkpt lat="35.0391938" lon="32.4002268">
<ele>13.14</ele>
<time>2015-04-25T17:42:49Z</time>
</trkpt>
<trkpt lat="35.0391842" lon="32.4003044">
<ele>13.03</ele>
<time>2015-04-25T17:42:50Z</time>
</trkpt>
<trkpt lat="35.0391805" lon="32.4003788">
<ele>12.98</ele>
<time>2015-04-25T17:42:51Z</time>
</trkpt>
<trkpt lat="35.0391684" lon="32.4004593">
<ele>12.95</ele>
<time>2015-04-25T17:42:52Z</time>
</trkpt>
<trkpt lat="35.0391523" lon="32.4005180">
<ele>12.44</ele>
<time>2015-04-25T17:42:53Z</time>
</trkpt>
<trkpt lat="35.0391426" lon="32.4005888">
<ele>12.68</ele>
<time>2015-04-25T17:42:54Z</time>
</trkpt>
<trkpt lat="35.0391458" lon="32.4006554">
<ele>12.30</ele>
<time>2015-04-25T17:42:55Z</time>
</trkpt>
<trkpt lat="35.0391400" lon="32.4007242">
<ele>12.61</ele>
<time>2015-04-25T17:42:56Z</time>
</trkpt>
<trkpt lat="35.0391408" lon="32.4007854">
<ele>12.77</ele>
<time>2015-04-25T17:42:57Z</time>
</trkpt>
<trkpt lat="35.0391303" lon="32.4008428">
<ele>12.85</ele>
<time>2015-04-25T17:42:58Z</time>
</trkpt>
<trkpt lat="35.0391282" lon="32.4009066">
<ele>12.89</ele>
<time>2015-04-25T17:42:59Z</time>
</trkpt>
<trkpt lat="35.0391271" lon="32.4009738">
<ele>12.41</ele>
<time>2015-04-25T17:43:00Z</time>
</trkpt>
<trkpt lat="35.0391219" lon="32.4010447">
<ele>12.67</ele>
<time>2015-04-25T17:43:01Z</time>
</trkpt>
<trkpt lat="35.0391145" lon="32.4011039">
<ele>12.80</ele>
<time>2015-04-25T17:43:02Z</time>
</trkpt>
<trkpt lat="35.0391114" lon="32.4011733">
<ele>12.86</ele>
<time>2015-04-25T17:43:03Z</time>
</trkpt>
<trkpt lat="35.0391135" lon="32.4012409">
<ele>12.89</ele>
<time>2015-04-25T17:43:04Z</time>
</trkpt>
<trkpt lat="35.0391053" lon="32.4013088">
<ele>12.91</ele>
<time>2015-04-25T17:43:05Z</time>
</trkpt>
<trkpt lat="35.0391016" lon="32.4013688">
<ele>12.92</ele>
<time>2015-04-25T17:43:06Z</time>
</trkpt>
<trkpt lat="35.0390876" lon="32.4014287">
<ele>12.92</ele>
<time>2015-04-25T17:43:07Z</time>
</trkpt>
<trkpt lat="35.0390846" lon="32.4015073">
<ele>12.42</ele>
<time>2015-04-25T17:43:08Z</time>
</trkpt>
<trkpt lat="35.0390855" lon="32.4015924">
<ele>12.17</ele>
<time>2015-04-25T17:43:09Z</time>
</trkpt>
<trkpt lat="35.0390769" lon="32.4016560">
<ele>11.55</ele>
<time>2015-04-25T17:43:10Z</time>
</trkpt>
<trkpt lat="35.0390854" lon="32.4017300">
<ele>11.24</ele>
<time>2015-04-25T17:43:11Z</time>
</trkpt>
<trkpt lat="35.0390885" lon="32.4018108">
<ele>11.08</ele>
<time>2015-04-25T17:43:12Z</time>
</trkpt>
<trkpt lat="35.0390813" lon="32.4018861">
<ele>11.00</ele>
<time>2015-04-25T17:43:13Z</time>
</trkpt>
<trkpt lat="35.0390799" lon="32.4019706">
<ele>11.46</ele>
<time>2015-04-25T17:43:14Z</time>
</trkpt>
<trkpt lat="35.0390688" lon="32.4020298">
<ele>11.69</ele>
<time>2015-04-25T17:43:15Z</time>
</trkpt>
<trkpt lat="35.0390715" lon="32.4021050">
<ele>11.31</ele>
<time>2015-04-25T17:43:16Z</time>
</trkpt>
<trkpt lat="35.0390581" lon="32.4021752">
<ele>11.62</ele>
<time>2015-04-25T17:43:17Z</time>
</trkpt>
<trkpt lat="35.0390508" lon="32.4022500">
<ele>12.27</ele>
<time>2015-04-25T17:43:18Z</time>
</trkpt>
<trkpt lat="35.0390490" lon="32.4023275">
<ele>12.60</ele>
<time>2015-04-25T17:43:19Z</time>
</trkpt>
<trkpt lat="35.0390500" lon="32.4023960">
<ele>12.76</ele>
<time>2015-04-25T17:43:20Z</time>
</trkpt>
<trkpt lat="35.0390460" lon="32.4024734">
<ele>12.34</ele>
<time>2015-04-25T17:43:21Z</time>
</trkpt>
<trkpt lat="35.0390375" lon="32.4025477">
<ele>12.13</ele>
<time>2015-04-25T17:43:22Z</time>
</trkpt>
<trkpt lat="35.0390297" lon="32.4026170">
<ele>12.03</ele>
<time>2015-04-25T17:43:23Z</time>
</trkpt>
<trkpt lat="35.0390276" lon="32.4026985">
<ele>11.98</ele>
<time>2015-04-25T17:43:24Z</time>
</trkpt>
<trkpt lat="35.0390097" lon="32.4027656">
<ele>12.45</ele>
<time>2015-04-25T17:43:25Z</time>
</trkpt>
<trkpt lat="35.0390076" lon="32.4028323">
<ele>12.19</ele>
<time>2015-04-25T17:43:26Z</time>
</trkpt>
<trkpt lat="35.0390038" lon="32.4029029">
<ele>12.56</ele>
<time>2015-04-25T17:43:27Z</time>
</trkpt>
<trkpt lat="35.0389917" lon="32.4029730">
<ele>13.24</ele>
<time>2015-04-25T17:43:28Z</time>
</trkpt>
<trkpt lat="35.0389786" lon="32.4030440">
<ele>13.58</ele>
<time>2015-04-25T17:43:29Z</time>
</trkpt>
<trkpt lat="35.0389702" lon="32.4031049">
<ele>13.75</ele>
<time>2015-04-25T17:43:30Z</time>
</trkpt>
<trkpt lat="35.0389632" lon="32.4031665">
<ele>13.84</ele>
<time>2015-04-25T17:43:31Z</time>
</trkpt>
<trkpt lat="35.0389548" lon="32.4032352">
<ele>14.38</ele>
<time>2015-04-25T17:43:32Z</time>
</trkpt>
<trkpt lat="35.0389448" lon="32.4032951">
<ele>14.65</ele>
<time>2015-04-25T17:43:33Z</time>
</trkpt>
<trkpt lat="35.0389205" lon="32.4033590">
<ele>15.29</ele>
<time>2015-04-25T17:43:34Z</time>
</trkpt>
<trkpt lat="35.0388983" lon="32.4034143">
<ele>15.61</ele>
<time>2015-04-25T17:43:35Z</time>
</trkpt>
<trkpt lat="35.0388883" lon="32.4034816">
<ele>15.77</ele>
<time>2015-04-25T17:43:36Z</time>
</trkpt>
<trkpt lat="35.0388799" lon="32.4035525">
<ele>15.85</ele>
<time>2015-04-25T17:43:37Z</time>
</trkpt>
<trkpt lat="35.0388676" lon="32.4036171">
<ele>15.89</ele>
<time>2015-04-25T17:43:38Z</time>
</trkpt>
<trkpt lat="35.0388546" lon="32.4036822">
<ele>15.41</ele>
<time>2015-04-25T17:43:39Z</time>
</trkpt>
<trkpt lat="35.0388378" lon="32.4037470">
<ele>15.17</ele>
<time>2015-04-25T17:43:40Z</time>
</trkpt>
<trkpt lat="35.0388316" lon="32.4038135">
<ele>15.05</ele>
<time>2015-04-25T17:43:41Z</time>
</trkpt>
<trkpt lat="35.0388146" lon="32.4038835">
<ele>14.99</ele>
<time>2015-04-25T17:43:42Z</time>
</trkpt>
<trkpt lat="35.0388065" lon="32.4039511">
<ele>14.96</ele>
<time>2015-04-25T17:43:43Z</time>
</trkpt>
<trkpt lat="35.0387841" lon="32.4040145">
<ele>14.94</ele>
<time>2015-04-25T17:43:44Z</time>
</trkpt>
<trkpt lat="35.0387658" lon="32.4040853">
<ele>14.93</ele>
<time>2015-04-25T17:43:45Z</time>
</trkpt>
<trkpt lat="35.0387497" lon="32.4041575">
<ele>15.43</ele>
<time>2015-04-25T17:43:46Z</time>
</trkpt>
<trkpt lat="35.0387292" lon="32.4042160">
<ele>16.18</ele>
<time>2015-04-25T17:43:47Z</time>
</trkpt>
<trkpt lat="35.0387143" lon="32.4042905">
<ele>16.55</ele>
<time>2015-04-25T17:43:48Z</time>
</trkpt>
<trkpt lat="35.0386990" lon="32.4043479">
<ele>16.74</ele>
<time>2015-04-25T17:43:49Z</time>
</trkpt>
<trkpt lat="35.0386822" lon="32.4044082">
<ele>16.33</ele>
<time>2015-04-25T17:43:50Z</time>
</trkpt>
<trkpt lat="35.0386684" lon="32.4044685">
<ele>16.13</ele>
<time>2015-04-25T17:43:51Z</time>
</trkpt>
<trkpt lat="35.0386527" lon="32.4045293">
<ele>16.03</ele>
<time>2015-04-25T17:43:52Z</time>
</trkpt>
<trkpt lat="35.0386361" lon="32.4046004">
<ele>15.98</ele>
<time>2015-04-25T17:43:53Z</time>
</trkpt>
<trkpt lat="35.0386099" lon="32.4046527">
<ele>15.95</ele>
<time>2015-04-25T17:43:54Z</time>
</trkpt>
<trkpt lat="35.0385808" lon="32.4047546">
<ele>14.43</ele>
<time>2015-04-25T17:43:56Z</time>
</trkpt>
<trkpt lat="35.0385631" lon="32.4048235">
<ele>14.18</ele>
<time>2015-04-25T17:43:57Z</time>
</trkpt>
<trkpt lat="35.0385484" lon="32.4048839">
<ele>14.05</ele>
<time>2015-04-25T17:43:58Z</time>
</trkpt>
<trkpt lat="35.0385329" lon="32.4049500">
<ele>13.99</ele>
<time>2015-04-25T17:43:59Z</time>
</trkpt>
<trkpt lat="35.0385246" lon="32.4050135">
<ele>13.96</ele>
<time>2015-04-25T17:44:00Z</time>
</trkpt>
<trkpt lat="35.0385171" lon="32.4050753">
<ele>13.94</ele>
<time>2015-04-25T17:44:01Z</time>
</trkpt>
<trkpt lat="35.0384966" lon="32.4051286">
<ele>13.93</ele>
<time>2015-04-25T17:44:02Z</time>
</trkpt>
<trkpt lat="35.0384869" lon="32.4051884">
<ele>13.93</ele>
<time>2015-04-25T17:44:03Z</time>
</trkpt>
<trkpt lat="35.0384511" lon="32.4052390">
<ele>13.93</ele>
<time>2015-04-25T17:44:04Z</time>
</trkpt>
<trkpt lat="35.0384384" lon="32.4053009">
<ele>13.93</ele>
<time>2015-04-25T17:44:05Z</time>
</trkpt>
<trkpt lat="35.0384039" lon="32.4054024">
<ele>13.18</ele>
<time>2015-04-25T17:44:07Z</time>
</trkpt>
<trkpt lat="35.0383940" lon="32.4054586">
<ele>12.55</ele>
<time>2015-04-25T17:44:08Z</time>
</trkpt>
<trkpt lat="35.0384057" lon="32.4055595">
<ele>12.58</ele>
<time>2015-04-25T17:44:10Z</time>
</trkpt>
<trkpt lat="35.0384248" lon="32.4056676">
<ele>12.34</ele>
<time>2015-04-25T17:44:12Z</time>
</trkpt>
<trkpt lat="35.0384394" lon="32.4057237">
<ele>13.13</ele>
<time>2015-04-25T17:44:13Z</time>
</trkpt>
<trkpt lat="35.0384524" lon="32.4057857">
<ele>13.53</ele>
<time>2015-04-25T17:44:14Z</time>
</trkpt>
<trkpt lat="35.0384824" lon="32.4058942">
<ele>13.83</ele>
<time>2015-04-25T17:44:16Z</time>
</trkpt>
<trkpt lat="35.0384902" lon="32.4059618">
<ele>14.38</ele>
<time>2015-04-25T17:44:17Z</time>
</trkpt>
<trkpt lat="35.0384924" lon="32.4060306">
<ele>14.15</ele>
<time>2015-04-25T17:44:18Z</time>
</trkpt>
<trkpt lat="35.0384923" lon="32.4060975">
<ele>14.04</ele>
<time>2015-04-25T17:44:19Z</time>
</trkpt>
<trkpt lat="35.0384991" lon="32.4061686">
<ele>14.48</ele>
<time>2015-04-25T17:44:20Z</time>
</trkpt>
<trkpt lat="35.0385136" lon="32.4062368">
<ele>14.70</ele>
<time>2015-04-25T17:44:21Z</time>
</trkpt>
<trkpt lat="35.0385236" lon="32.4063008">
<ele>14.81</ele>
<time>2015-04-25T17:44:22Z</time>
</trkpt>
<trkpt lat="35.0385376" lon="32.4063768">
<ele>14.87</ele>
<time>2015-04-25T17:44:23Z</time>
</trkpt>
<trkpt lat="35.0385466" lon="32.4064452">
<ele>14.90</ele>
<time>2015-04-25T17:44:24Z</time>
</trkpt>
<trkpt lat="35.0385542" lon="32.4065118">
<ele>15.41</ele>
<time>2015-04-25T17:44:25Z</time>
</trkpt>
<trkpt lat="35.0385698" lon="32.4065801">
<ele>15.17</ele>
<time>2015-04-25T17:44:26Z</time>
</trkpt>
<trkpt lat="35.0385835" lon="32.4066407">
<ele>15.05</ele>
<time>2015-04-25T17:44:27Z</time>
</trkpt>
<trkpt lat="35.0386045" lon="32.4067109">
<ele>14.99</ele>
<time>2015-04-25T17:44:28Z</time>
</trkpt>
<trkpt lat="35.0386258" lon="32.4067773">
<ele>15.46</ele>
<time>2015-04-25T17:44:29Z</time>
</trkpt>
<trkpt lat="35.0386349" lon="32.4068470">
<ele>15.69</ele>
<time>2015-04-25T17:44:30Z</time>
</trkpt>
<trkpt lat="35.0386408" lon="32.4069089">
<ele>15.81</ele>
<time>2015-04-25T17:44:31Z</time>
</trkpt>
<trkpt lat="35.0386503" lon="32.4069641">
<ele>15.87</ele>
<time>2015-04-25T17:44:32Z</time>
</trkpt>
<trkpt lat="35.0386692" lon="32.4070264">
<ele>16.40</ele>
<time>2015-04-25T17:44:33Z</time>
</trkpt>
<trkpt lat="35.0386760" lon="32.4070921">
<ele>16.66</ele>
<time>2015-04-25T17:44:34Z</time>
</trkpt>
<trkpt lat="35.0386921" lon="32.4071446">
<ele>16.29</ele>
<time>2015-04-25T17:44:35Z</time>
</trkpt>
<trkpt lat="35.0387103" lon="32.4072143">
<ele>16.11</ele>
<time>2015-04-25T17:44:36Z</time>
</trkpt>
<trkpt lat="35.0387311" lon="32.4072859">
<ele>16.02</ele>
<time>2015-04-25T17:44:37Z</time>
</trkpt>
<trkpt lat="35.0387426" lon="32.4073541">
<ele>15.97</ele>
<time>2015-04-25T17:44:38Z</time>
</trkpt>
<trkpt lat="35.0387666" lon="32.4074239">
<ele>15.95</ele>
<time>2015-04-25T17:44:39Z</time>
</trkpt>
<trkpt lat="35.0387809" lon="32.4074927">
<ele>15.94</ele>
<time>2015-04-25T17:44:40Z</time>
</trkpt>
<trkpt lat="35.0387963" lon="32.4075696">
<ele>16.43</ele>
<time>2015-04-25T17:44:41Z</time>
</trkpt>
<trkpt lat="35.0388117" lon="32.4076347">
<ele>16.18</ele>
<time>2015-04-25T17:44:42Z</time>
</trkpt>
<trkpt lat="35.0388209" lon="32.4077030">
<ele>16.05</ele>
<time>2015-04-25T17:44:43Z</time>
</trkpt>
<trkpt lat="35.0388406" lon="32.4077638">
<ele>15.99</ele>
<time>2015-04-25T17:44:44Z</time>
</trkpt>
<trkpt lat="35.0388521" lon="32.4078356">
<ele>15.96</ele>
<time>2015-04-25T17:44:45Z</time>
</trkpt>
<trkpt lat="35.0388563" lon="32.4079002">
<ele>15.44</ele>
<time>2015-04-25T17:44:46Z</time>
</trkpt>
<trkpt lat="35.0388710" lon="32.4079660">
<ele>15.18</ele>
<time>2015-04-25T17:44:47Z</time>
</trkpt>
<trkpt lat="35.0388892" lon="32.4080313">
<ele>14.55</ele>
<time>2015-04-25T17:44:48Z</time>
</trkpt>
<trkpt lat="35.0388971" lon="32.4081045">
<ele>14.74</ele>
<time>2015-04-25T17:44:49Z</time>
</trkpt>
<trkpt lat="35.0389114" lon="32.4081654">
<ele>15.33</ele>
<time>2015-04-25T17:44:50Z</time>
</trkpt>
<trkpt lat="35.0389304" lon="32.4082223">
<ele>15.13</ele>
<time>2015-04-25T17:44:51Z</time>
</trkpt>
<trkpt lat="35.0389408" lon="32.4082966">
<ele>15.53</ele>
<time>2015-04-25T17:44:52Z</time>
</trkpt>
<trkpt lat="35.0389452" lon="32.4083674">
<ele>15.73</ele>
<time>2015-04-25T17:44:53Z</time>
</trkpt>
<trkpt lat="35.0389426" lon="32.4084378">
<ele>15.33</ele>
<time>2015-04-25T17:44:54Z</time>
</trkpt>
<trkpt lat="35.0389526" lon="32.4085042">
<ele>15.63</ele>
<time>2015-04-25T17:44:55Z</time>
</trkpt>
<trkpt lat="35.0389654" lon="32.4085738">
<ele>15.78</ele>
<time>2015-04-25T17:44:56Z</time>
</trkpt>
<trkpt lat="35.0389793" lon="32.4086415">
<ele>16.35</ele>
<time>2015-04-25T17:44:57Z</time>
</trkpt>
<trkpt lat="35.0389872" lon="32.4087191">
<ele>17.14</ele>
<time>2015-04-25T17:44:58Z</time>
</trkpt>
<trkpt lat="35.0389925" lon="32.4087958">
<ele>17.53</ele>
<time>2015-04-25T17:44:59Z</time>
</trkpt>
<trkpt lat="35.0390077" lon="32.4088698">
<ele>17.73</ele>
<time>2015-04-25T17:45:00Z</time>
</trkpt>
<trkpt lat="35.0390210" lon="32.4089495">
<ele>17.33</ele>
<time>2015-04-25T17:45:01Z</time>
</trkpt>
<trkpt lat="35.0390377" lon="32.4090287">
<ele>17.13</ele>
<time>2015-04-25T17:45:02Z</time>
</trkpt>
<trkpt lat="35.0390358" lon="32.4090966">
<ele>17.53</ele>
<time>2015-04-25T17:45:03Z</time>
</trkpt>
<trkpt lat="35.0390496" lon="32.4091788">
<ele>17.73</ele>
<time>2015-04-25T17:45:04Z</time>
</trkpt>
<trkpt lat="35.0390588" lon="32.4092526">
<ele>17.83</ele>
<time>2015-04-25T17:45:05Z</time>
</trkpt>
<trkpt lat="35.0390764" lon="32.4093318">
<ele>17.88</ele>
<time>2015-04-25T17:45:06Z</time>
</trkpt>
<trkpt lat="35.0390878" lon="32.4094055">
<ele>17.90</ele>
<time>2015-04-25T17:45:07Z</time>
</trkpt>
<trkpt lat="35.0390971" lon="32.4094862">
<ele>18.41</ele>
<time>2015-04-25T17:45:08Z</time>
</trkpt>
<trkpt lat="35.0391083" lon="32.4095577">
<ele>18.67</ele>
<time>2015-04-25T17:45:09Z</time>
</trkpt>
<trkpt lat="35.0391172" lon="32.4096289">
<ele>18.80</ele>
<time>2015-04-25T17:45:10Z</time>
</trkpt>
<trkpt lat="35.0391248" lon="32.4097034">
<ele>18.86</ele>
<time>2015-04-25T17:45:11Z</time>
</trkpt>
<trkpt lat="35.0391324" lon="32.4097786">
<ele>18.89</ele>
<time>2015-04-25T17:45:12Z</time>
</trkpt>
<trkpt lat="35.0391375" lon="32.4098529">
<ele>18.91</ele>
<time>2015-04-25T17:45:13Z</time>
</trkpt>
<trkpt lat="35.0391389" lon="32.4099235">
<ele>18.42</ele>
<time>2015-04-25T17:45:14Z</time>
</trkpt>
<trkpt lat="35.0391430" lon="32.4099909">
<ele>18.67</ele>
<time>2015-04-25T17:45:15Z</time>
</trkpt>
<trkpt lat="35.0391467" lon="32.4100719">
<ele>18.30</ele>
<time>2015-04-25T17:45:16Z</time>
</trkpt>
<trkpt lat="35.0391511" lon="32.4101338">
<ele>18.11</ele>
<time>2015-04-25T17:45:17Z</time>
</trkpt>
<trkpt lat="35.0391614" lon="32.4101962">
<ele>18.02</ele>
<time>2015-04-25T17:45:18Z</time>
</trkpt>
<trkpt lat="35.0391768" lon="32.4102610">
<ele>17.97</ele>
<time>2015-04-25T17:45:19Z</time>
</trkpt>
<trkpt lat="35.0391910" lon="32.4103260">
<ele>17.95</ele>
<time>2015-04-25T17:45:20Z</time>
</trkpt>
<trkpt lat="35.0392086" lon="32.4103877">
<ele>18.94</ele>
<time>2015-04-25T17:45:21Z</time>
</trkpt>
<trkpt lat="35.0392223" lon="32.4104480">
<ele>19.93</ele>
<time>2015-04-25T17:45:22Z</time>
</trkpt>
<trkpt lat="35.0392332" lon="32.4105050">
<ele>20.43</ele>
<time>2015-04-25T17:45:23Z</time>
</trkpt>
<trkpt lat="35.0392429" lon="32.4105639">
<ele>20.68</ele>
<time>2015-04-25T17:45:24Z</time>
</trkpt>
<trkpt lat="35.0392511" lon="32.4106297">
<ele>20.30</ele>
<time>2015-04-25T17:45:25Z</time>
</trkpt>
<trkpt lat="35.0392584" lon="32.4106979">
<ele>20.11</ele>
<time>2015-04-25T17:45:26Z</time>
</trkpt>
<trkpt lat="35.0392690" lon="32.4107670">
<ele>20.02</ele>
<time>2015-04-25T17:45:27Z</time>
</trkpt>
<trkpt lat="35.0392714" lon="32.4108253">
<ele>19.97</ele>
<time>2015-04-25T17:45:28Z</time>
</trkpt>
<trkpt lat="35.0392762" lon="32.4108948">
<ele>19.95</ele>
<time>2015-04-25T17:45:29Z</time>
</trkpt>
<trkpt lat="35.0392775" lon="32.4109615">
<ele>19.44</ele>
<time>2015-04-25T17:45:30Z</time>
</trkpt>
<trkpt lat="35.0392794" lon="32.4110192">
<ele>19.18</ele>
<time>2015-04-25T17:45:31Z</time>
</trkpt>
<trkpt lat="35.0392810" lon="32.4110849">
<ele>19.05</ele>
<time>2015-04-25T17:45:32Z</time>
</trkpt>
<trkpt lat="35.0392886" lon="32.4111555">
<ele>18.99</ele>
<time>2015-04-25T17:45:33Z</time>
</trkpt>
<trkpt lat="35.0392954" lon="32.4112279">
<ele>18.46</ele>
<time>2015-04-25T17:45:34Z</time>
</trkpt>
<trkpt lat="35.0393042" lon="32.4113021">
<ele>18.19</ele>
<time>2015-04-25T17:45:35Z</time>
</trkpt>
<trkpt lat="35.0393078" lon="32.4113680">
<ele>18.06</ele>
<time>2015-04-25T17:45:36Z</time>
</trkpt>
<trkpt lat="35.0393173" lon="32.4114332">
<ele>18.49</ele>
<time>2015-04-25T17:45:37Z</time>
</trkpt>
<trkpt lat="35.0393252" lon="32.4114895">
<ele>18.71</ele>
<time>2015-04-25T17:45:38Z</time>
</trkpt>
<trkpt lat="35.0393352" lon="32.4115574">
<ele>18.82</ele>
<time>2015-04-25T17:45:39Z</time>
</trkpt>
<trkpt lat="35.0393362" lon="32.4116179">
<ele>18.87</ele>
<time>2015-04-25T17:45:40Z</time>
</trkpt>
<trkpt lat="35.0393497" lon="32.4116806">
<ele>18.40</ele>
<time>2015-04-25T17:45:41Z</time>
</trkpt>
<trkpt lat="35.0393566" lon="32.4118065">
<ele>17.29</ele>
<time>2015-04-25T17:45:43Z</time>
</trkpt>
<trkpt lat="35.0393700" lon="32.4118723">
<ele>17.11</ele>
<time>2015-04-25T17:45:44Z</time>
</trkpt>
<trkpt lat="35.0393864" lon="32.4119378">
<ele>17.02</ele>
<time>2015-04-25T17:45:45Z</time>
</trkpt>
<trkpt lat="35.0394008" lon="32.4119992">
<ele>16.97</ele>
<time>2015-04-25T17:45:46Z</time>
</trkpt>
<trkpt lat="35.0394108" lon="32.4120599">
<ele>16.95</ele>
<time>2015-04-25T17:45:47Z</time>
</trkpt>
<trkpt lat="35.0394239" lon="32.4121323">
<ele>17.44</ele>
<time>2015-04-25T17:45:48Z</time>
</trkpt>
<trkpt lat="35.0394324" lon="32.4121978">
<ele>17.68</ele>
<time>2015-04-25T17:45:49Z</time>
</trkpt>
<trkpt lat="35.0394484" lon="32.4122613">
<ele>17.80</ele>
<time>2015-04-25T17:45:50Z</time>
</trkpt>
<trkpt lat="35.0394618" lon="32.4123282">
<ele>18.36</ele>
<time>2015-04-25T17:45:51Z</time>
</trkpt>
<trkpt lat="35.0394700" lon="32.4124018">
<ele>18.64</ele>
<time>2015-04-25T17:45:52Z</time>
</trkpt>
<trkpt lat="35.0394796" lon="32.4124766">
<ele>18.78</ele>
<time>2015-04-25T17:45:53Z</time>
</trkpt>
<trkpt lat="35.0394974" lon="32.4125324">
<ele>18.85</ele>
<time>2015-04-25T17:45:54Z</time>
</trkpt>
<trkpt lat="35.0395110" lon="32.4125960">
<ele>18.89</ele>
<time>2015-04-25T17:45:55Z</time>
</trkpt>
<trkpt lat="35.0395257" lon="32.4126681">
<ele>18.91</ele>
<time>2015-04-25T17:45:56Z</time>
</trkpt>
<trkpt lat="35.0395390" lon="32.4127305">
<ele>18.92</ele>
<time>2015-04-25T17:45:57Z</time>
</trkpt>
<trkpt lat="35.0395497" lon="32.4127948">
<ele>18.92</ele>
<time>2015-04-25T17:45:58Z</time>
</trkpt>
<trkpt lat="35.0395602" lon="32.4128557">
<ele>19.42</ele>
<time>2015-04-25T17:45:59Z</time>
</trkpt>
<trkpt lat="35.0395724" lon="32.4129086">
<ele>20.17</ele>
<time>2015-04-25T17:46:00Z</time>
</trkpt>
<trkpt lat="35.0395754" lon="32.4129699">
<ele>20.55</ele>
<time>2015-04-25T17:46:01Z</time>
</trkpt>
<trkpt lat="35.0395907" lon="32.4130876">
<ele>20.83</ele>
<time>2015-04-25T17:46:03Z</time>
</trkpt>
<trkpt lat="35.0395895" lon="32.4131458">
<ele>20.88</ele>
<time>2015-04-25T17:46:04Z</time>
</trkpt>
<trkpt lat="35.0395938" lon="32.4132039">
<ele>20.90</ele>
<time>2015-04-25T17:46:05Z</time>
</trkpt>
<trkpt lat="35.0396038" lon="32.4132648">
<ele>21.41</ele>
<time>2015-04-25T17:46:06Z</time>
</trkpt>
<trkpt lat="35.0395976" lon="32.4133218">
<ele>22.17</ele>
<time>2015-04-25T17:46:07Z</time>
</trkpt>
<trkpt lat="35.0395998" lon="32.4134278">
<ele>22.74</ele>
<time>2015-04-25T17:46:09Z</time>
</trkpt>
<trkpt lat="35.0395848" lon="32.4135215">
<ele>22.88</ele>
<time>2015-04-25T17:46:11Z</time>
</trkpt>
<trkpt lat="35.0395853" lon="32.4136066">
<ele>22.91</ele>
<time>2015-04-25T17:46:13Z</time>
</trkpt>
<trkpt lat="35.0395572" lon="32.4137086">
<ele>22.67</ele>
<time>2015-04-25T17:46:15Z</time>
</trkpt>
<trkpt lat="35.0395425" lon="32.4138014">
<ele>22.86</ele>
<time>2015-04-25T17:46:17Z</time>
</trkpt>
<trkpt lat="35.0395302" lon="32.4138801">
<ele>22.41</ele>
<time>2015-04-25T17:46:19Z</time>
</trkpt>
<trkpt lat="35.0395125" lon="32.4139599">
<ele>22.05</ele>
<time>2015-04-25T17:46:21Z</time>
</trkpt>
<trkpt lat="35.0394946" lon="32.4140346">
<ele>22.46</ele>
<time>2015-04-25T17:46:23Z</time>
</trkpt>
<trkpt lat="35.0394829" lon="32.4141101">
<ele>22.06</ele>
<time>2015-04-25T17:46:25Z</time>
</trkpt>
<trkpt lat="35.0394614" lon="32.4141812">
<ele>21.21</ele>
<time>2015-04-25T17:46:27Z</time>
</trkpt>
<trkpt lat="35.0394277" lon="32.4142448">
<ele>21.00</ele>
<time>2015-04-25T17:46:29Z</time>
</trkpt>
<trkpt lat="35.0394085" lon="32.4143145">
<ele>22.94</ele>
<time>2015-04-25T17:46:31Z</time>
</trkpt>
<trkpt lat="35.0393920" lon="32.4143950">
<ele>23.43</ele>
<time>2015-04-25T17:46:33Z</time>
</trkpt>
<trkpt lat="35.0393689" lon="32.4144811">
<ele>25.05</ele>
<time>2015-04-25T17:46:35Z</time>
</trkpt>
<trkpt lat="35.0393453" lon="32.4145732">
<ele>25.21</ele>
<time>2015-04-25T17:46:37Z</time>
</trkpt>
<trkpt lat="35.0393153" lon="32.4146608">
<ele>25.75</ele>
<time>2015-04-25T17:46:39Z</time>
</trkpt>
<trkpt lat="35.0392728" lon="32.4147410">
<ele>25.13</ele>
<time>2015-04-25T17:46:41Z</time>
</trkpt>
<trkpt lat="35.0392224" lon="32.4148101">
<ele>23.23</ele>
<time>2015-04-25T17:46:43Z</time>
</trkpt>
<trkpt lat="35.0391521" lon="32.4149098">
<ele>22.25</ele>
<time>2015-04-25T17:46:45Z</time>
</trkpt>
<trkpt lat="35.0390984" lon="32.4149950">
<ele>23.01</ele>
<time>2015-04-25T17:46:47Z</time>
</trkpt>
<trkpt lat="35.0390586" lon="32.4150308">
<ele>22.97</ele>
<time>2015-04-25T17:46:48Z</time>
</trkpt>
<trkpt lat="35.0390158" lon="32.4150751">
<ele>22.95</ele>
<time>2015-04-25T17:46:49Z</time>
</trkpt>
<trkpt lat="35.0389725" lon="32.4151059">
<ele>22.94</ele>
<time>2015-04-25T17:46:50Z</time>
</trkpt>
<trkpt lat="35.0389293" lon="32.4151417">
<ele>23.43</ele>
<time>2015-04-25T17:46:51Z</time>
</trkpt>
<trkpt lat="35.0388803" lon="32.4151825">
<ele>23.68</ele>
<time>2015-04-25T17:46:52Z</time>
</trkpt>
<trkpt lat="35.0388416" lon="32.4152240">
<ele>23.80</ele>
<time>2015-04-25T17:46:53Z</time>
</trkpt>
<trkpt lat="35.0387896" lon="32.4152701">
<ele>24.36</ele>
<time>2015-04-25T17:46:54Z</time>
</trkpt>
<trkpt lat="35.0387473" lon="32.4153118">
<ele>24.14</ele>
<time>2015-04-25T17:46:55Z</time>
</trkpt>
<trkpt lat="35.0386980" lon="32.4153424">
<ele>24.03</ele>
<time>2015-04-25T17:46:56Z</time>
</trkpt>
<trkpt lat="35.0386445" lon="32.4153696">
<ele>23.98</ele>
<time>2015-04-25T17:46:57Z</time>
</trkpt>
<trkpt lat="35.0385974" lon="32.4153950">
<ele>23.95</ele>
<time>2015-04-25T17:46:58Z</time>
</trkpt>
<trkpt lat="35.0385600" lon="32.4154379">
<ele>24.44</ele>
<time>2015-04-25T17:46:59Z</time>
</trkpt>
<trkpt lat="35.0385200" lon="32.4154736">
<ele>24.68</ele>
<time>2015-04-25T17:47:00Z</time>
</trkpt>
<trkpt lat="35.0384947" lon="32.4155198">
<ele>24.80</ele>
<time>2015-04-25T17:47:01Z</time>
</trkpt>
<trkpt lat="35.0384729" lon="32.4155738">
<ele>24.36</ele>
<time>2015-04-25T17:47:02Z</time>
</trkpt>
<trkpt lat="35.0384437" lon="32.4156271">
<ele>24.14</ele>
<time>2015-04-25T17:47:03Z</time>
</trkpt>
<trkpt lat="35.0384144" lon="32.4156745">
<ele>23.53</ele>
<time>2015-04-25T17:47:04Z</time>
</trkpt>
<trkpt lat="35.0383743" lon="32.4157152">
<ele>23.23</ele>
<time>2015-04-25T17:47:05Z</time>
</trkpt>
<trkpt lat="35.0383398" lon="32.4157678">
<ele>22.58</ele>
<time>2015-04-25T17:47:06Z</time>
</trkpt>
<trkpt lat="35.0383086" lon="32.4158196">
<ele>22.25</ele>
<time>2015-04-25T17:47:07Z</time>
</trkpt>
<trkpt lat="35.0382742" lon="32.4158717">
<ele>22.09</ele>
<time>2015-04-25T17:47:08Z</time>
</trkpt>
<trkpt lat="35.0382455" lon="32.4159282">
<ele>22.01</ele>
<time>2015-04-25T17:47:09Z</time>
</trkpt>
<trkpt lat="35.0382140" lon="32.4159956">
<ele>21.95</ele>
<time>2015-04-25T17:47:11Z</time>
</trkpt>
<trkpt lat="35.0382695" lon="32.4160552">
<ele>21.05</ele>
<time>2015-04-25T17:47:14Z</time>
</trkpt>
<trkpt lat="35.0383497" lon="32.4160783">
<ele>19.71</ele>
<time>2015-04-25T17:47:16Z</time>
</trkpt>
<trkpt lat="35.0383950" lon="32.4160894">
<ele>19.82</ele>
<time>2015-04-25T17:47:17Z</time>
</trkpt>
<trkpt lat="35.0384400" lon="32.4161018">
<ele>19.37</ele>
<time>2015-04-25T17:47:18Z</time>
</trkpt>
<trkpt lat="35.0384928" lon="32.4161264">
<ele>19.15</ele>
<time>2015-04-25T17:47:19Z</time>
</trkpt>
<trkpt lat="35.0385438" lon="32.4161483">
<ele>19.04</ele>
<time>2015-04-25T17:47:20Z</time>
</trkpt>
<trkpt lat="35.0385983" lon="32.4161708">
<ele>18.48</ele>
<time>2015-04-25T17:47:21Z</time>
</trkpt>
<trkpt lat="35.0386397" lon="32.4162030">
<ele>18.20</ele>
<time>2015-04-25T17:47:22Z</time>
</trkpt>
<trkpt lat="35.0386881" lon="32.4162278">
<ele>18.56</ele>
<time>2015-04-25T17:47:23Z</time>
</trkpt>
<trkpt lat="35.0387420" lon="32.4162527">
<ele>18.74</ele>
<time>2015-04-25T17:47:24Z</time>
</trkpt>
<trkpt lat="35.0387954" lon="32.4162819">
<ele>18.83</ele>
<time>2015-04-25T17:47:25Z</time>
</trkpt>
<trkpt lat="35.0388567" lon="32.4163074">
<ele>19.38</ele>
<time>2015-04-25T17:47:26Z</time>
</trkpt>
<trkpt lat="35.0389048" lon="32.4163426">
<ele>19.65</ele>
<time>2015-04-25T17:47:27Z</time>
</trkpt>
<trkpt lat="35.0389704" lon="32.4163698">
<ele>19.79</ele>
<time>2015-04-25T17:47:28Z</time>
</trkpt>
<trkpt lat="35.0390146" lon="32.4163856">
<ele>19.36</ele>
<time>2015-04-25T17:47:29Z</time>
</trkpt>
<trkpt lat="35.0390713" lon="32.4164144">
<ele>18.64</ele>
<time>2015-04-25T17:47:30Z</time>
</trkpt>
<trkpt lat="35.0391246" lon="32.4164427">
<ele>18.28</ele>
<time>2015-04-25T17:47:31Z</time>
</trkpt>
<trkpt lat="35.0391885" lon="32.4164801">
<ele>18.10</ele>
<time>2015-04-25T17:47:32Z</time>
</trkpt>
<trkpt lat="35.0392550" lon="32.4165151">
<ele>18.51</ele>
<time>2015-04-25T17:47:33Z</time>
</trkpt>
<trkpt lat="35.0393165" lon="32.4165336">
<ele>18.72</ele>
<time>2015-04-25T17:47:34Z</time>
</trkpt>
<trkpt lat="35.0393841" lon="32.4165475">
<ele>19.82</ele>
<time>2015-04-25T17:47:35Z</time>
</trkpt>
<trkpt lat="35.0394383" lon="32.4165702">
<ele>20.37</ele>
<time>2015-04-25T17:47:36Z</time>
</trkpt>
<trkpt lat="35.0394941" lon="32.4165912">
<ele>20.15</ele>
<time>2015-04-25T17:47:37Z</time>
</trkpt>
<trkpt lat="35.0395457" lon="32.4166141">
<ele>20.04</ele>
<time>2015-04-25T17:47:38Z</time>
</trkpt>
<trkpt lat="35.0396073" lon="32.4166442">
<ele>20.48</ele>
<time>2015-04-25T17:47:39Z</time>
</trkpt>
<trkpt lat="35.0396720" lon="32.4166658">
<ele>20.70</ele>
<time>2015-04-25T17:47:40Z</time>
</trkpt>
<trkpt lat="35.0397315" lon="32.4166950">
<ele>20.81</ele>
<time>2015-04-25T17:47:41Z</time>
</trkpt>
<trkpt lat="35.0397904" lon="32.4167251">
<ele>20.87</ele>
<time>2015-04-25T17:47:42Z</time>
</trkpt>
<trkpt lat="35.0398457" lon="32.4167446">
<ele>20.40</ele>
<time>2015-04-25T17:47:43Z</time>
</trkpt>
<trkpt lat="35.0399017" lon="32.4167806">
<ele>20.66</ele>
<time>2015-04-25T17:47:44Z</time>
</trkpt>
<trkpt lat="35.0399547" lon="32.4168051">
<ele>20.29</ele>
<time>2015-04-25T17:47:45Z</time>
</trkpt>
<trkpt lat="35.0400172" lon="32.4168371">
<ele>20.11</ele>
<time>2015-04-25T17:47:46Z</time>
</trkpt>
<trkpt lat="35.0400848" lon="32.4168692">
<ele>20.02</ele>
<time>2015-04-25T17:47:47Z</time>
</trkpt>
<trkpt lat="35.0401555" lon="32.4169069">
<ele>19.97</ele>
<time>2015-04-25T17:47:48Z</time>
</trkpt>
<trkpt lat="35.0402116" lon="32.4169422">
<ele>19.45</ele>
<time>2015-04-25T17:47:49Z</time>
</trkpt>
<trkpt lat="35.0402724" lon="32.4169757">
<ele>19.19</ele>
<time>2015-04-25T17:47:50Z</time>
</trkpt>
<trkpt lat="35.0403357" lon="32.4170073">
<ele>19.06</ele>
<time>2015-04-25T17:47:51Z</time>
</trkpt>
<trkpt lat="35.0403929" lon="32.4170355">
<ele>18.99</ele>
<time>2015-04-25T17:47:52Z</time>
</trkpt>
<trkpt lat="35.0404481" lon="32.4170607">
<ele>18.96</ele>
<time>2015-04-25T17:47:53Z</time>
</trkpt>
<trkpt lat="35.0405110" lon="32.4170900">
<ele>18.94</ele>
<time>2015-04-25T17:47:54Z</time>
</trkpt>
<trkpt lat="35.0405746" lon="32.4171205">
<ele>18.93</ele>
<time>2015-04-25T17:47:55Z</time>
</trkpt>
<trkpt lat="35.0406364" lon="32.4171529">
<ele>18.93</ele>
<time>2015-04-25T17:47:56Z</time>
</trkpt>
<trkpt lat="35.0406926" lon="32.4171711">
<ele>18.93</ele>
<time>2015-04-25T17:47:57Z</time>
</trkpt>
<trkpt lat="35.0407505" lon="32.4171947">
<ele>18.43</ele>
<time>2015-04-25T17:47:58Z</time>
</trkpt>
<trkpt lat="35.0408168" lon="32.4172218">
<ele>18.68</ele>
<time>2015-04-25T17:47:59Z</time>
</trkpt>
<trkpt lat="35.0408749" lon="32.4172455">
<ele>18.80</ele>
<time>2015-04-25T17:48:00Z</time>
</trkpt>
<trkpt lat="35.0409361" lon="32.4172643">
<ele>19.36</ele>
<time>2015-04-25T17:48:01Z</time>
</trkpt>
<trkpt lat="35.0409916" lon="32.4172804">
<ele>19.64</ele>
<time>2015-04-25T17:48:02Z</time>
</trkpt>
<trkpt lat="35.0410384" lon="32.4173128">
<ele>19.28</ele>
<time>2015-04-25T17:48:03Z</time>
</trkpt>
<trkpt lat="35.0410723" lon="32.4173612">
<ele>19.10</ele>
<time>2015-04-25T17:48:04Z</time>
</trkpt>
<trkpt lat="35.0410998" lon="32.4174138">
<ele>19.51</ele>
<time>2015-04-25T17:48:05Z</time>
</trkpt>
<trkpt lat="35.0411028" lon="32.4174752">
<ele>19.22</ele>
<time>2015-04-25T17:48:06Z</time>
</trkpt>
<trkpt lat="35.0410790" lon="32.4175257">
<ele>19.07</ele>
<time>2015-04-25T17:48:07Z</time>
</trkpt>
<trkpt lat="35.0410503" lon="32.4175872">
<ele>18.50</ele>
<time>2015-04-25T17:48:08Z</time>
</trkpt>
<trkpt lat="35.0410254" lon="32.4176350">
<ele>18.21</ele>
<time>2015-04-25T17:48:09Z</time>
</trkpt>
<trkpt lat="35.0409821" lon="32.4176686">
<ele>18.07</ele>
<time>2015-04-25T17:48:10Z</time>
</trkpt>
<trkpt lat="35.0409293" lon="32.4177558">
<ele>18.21</ele>
<time>2015-04-25T17:48:12Z</time>
</trkpt>
<trkpt lat="35.0408953" lon="32.4178001">
<ele>18.07</ele>
<time>2015-04-25T17:48:13Z</time>
</trkpt>
<trkpt lat="35.0408493" lon="32.4178782">
<ele>17.46</ele>
<time>2015-04-25T17:48:15Z</time>
</trkpt>
<trkpt lat="35.0407947" lon="32.4179311">
<ele>16.56</ele>
<time>2015-04-25T17:48:17Z</time>
</trkpt>
<trkpt lat="35.0407506" lon="32.4179889">
<ele>16.58</ele>
<time>2015-04-25T17:48:19Z</time>
</trkpt>
<trkpt lat="35.0407153" lon="32.4180553">
<ele>18.09</ele>
<time>2015-04-25T17:48:21Z</time>
</trkpt>
<trkpt lat="35.0406783" lon="32.4181316">
<ele>20.07</ele>
<time>2015-04-25T17:48:24Z</time>
</trkpt>
<trkpt lat="35.0406543" lon="32.4182017">
<ele>21.46</ele>
<time>2015-04-25T17:48:26Z</time>
</trkpt>
<trkpt lat="35.0406518" lon="32.4182899">
<ele>21.81</ele>
<time>2015-04-25T17:48:28Z</time>
</trkpt>
<trkpt lat="35.0407028" lon="32.4184209">
<ele>20.65</ele>
<time>2015-04-25T17:48:30Z</time>
</trkpt>
<trkpt lat="35.0407216" lon="32.4184867">
<ele>20.29</ele>
<time>2015-04-25T17:48:31Z</time>
</trkpt>
<trkpt lat="35.0407343" lon="32.4185462">
<ele>19.61</ele>
<time>2015-04-25T17:48:32Z</time>
</trkpt>
<trkpt lat="35.0407656" lon="32.4186436">
<ele>17.10</ele>
<time>2015-04-25T17:48:34Z</time>
</trkpt>
<trkpt lat="35.0407965" lon="32.4187383">
<ele>16.72</ele>
<time>2015-04-25T17:48:36Z</time>
</trkpt>
<trkpt lat="35.0408066" lon="32.4188255">
<ele>16.87</ele>
<time>2015-04-25T17:48:38Z</time>
</trkpt>
<trkpt lat="35.0408298" lon="32.4189060">
<ele>16.16</ele>
<time>2015-04-25T17:48:40Z</time>
</trkpt>
<trkpt lat="35.0408525" lon="32.4190062">
<ele>15.98</ele>
<time>2015-04-25T17:48:42Z</time>
</trkpt>
<trkpt lat="35.0408870" lon="32.4191002">
<ele>15.94</ele>
<time>2015-04-25T17:48:44Z</time>
</trkpt>
<trkpt lat="35.0409285" lon="32.4191791">
<ele>15.93</ele>
<time>2015-04-25T17:48:46Z</time>
</trkpt>
<trkpt lat="35.0409768" lon="32.4192454">
<ele>15.93</ele>
<time>2015-04-25T17:48:48Z</time>
</trkpt>
<trkpt lat="35.0410305" lon="32.4192916">
<ele>17.18</ele>
<time>2015-04-25T17:48:50Z</time>
</trkpt>
<trkpt lat="35.0410880" lon="32.4193397">
<ele>17.24</ele>
<time>2015-04-25T17:48:52Z</time>
</trkpt>
<trkpt lat="35.0411461" lon="32.4193996">
<ele>16.50</ele>
<time>2015-04-25T17:48:54Z</time>
</trkpt>
<trkpt lat="35.0412104" lon="32.4194629">
<ele>15.32</ele>
<time>2015-04-25T17:48:56Z</time>
</trkpt>
<trkpt lat="35.0412683" lon="32.4195311">
<ele>15.02</ele>
<time>2015-04-25T17:48:58Z</time>
</trkpt>
<trkpt lat="35.0413266" lon="32.4196004">
<ele>14.70</ele>
<time>2015-04-25T17:49:00Z</time>
</trkpt>
<trkpt lat="35.0413855" lon="32.4196997">
<ele>15.12</ele>
<time>2015-04-25T17:49:02Z</time>
</trkpt>
<trkpt lat="35.0414130" lon="32.4197455">
<ele>15.02</ele>
<time>2015-04-25T17:49:03Z</time>
</trkpt>
<trkpt lat="35.0414605" lon="32.4197894">
<ele>14.97</ele>
<time>2015-04-25T17:49:04Z</time>
</trkpt>
<trkpt lat="35.0415278" lon="32.4198399">
<ele>15.69</ele>
<time>2015-04-25T17:49:06Z</time>
</trkpt>
<trkpt lat="35.0415948" lon="32.4199104">
<ele>14.62</ele>
<time>2015-04-25T17:49:08Z</time>
</trkpt>
<trkpt lat="35.0416284" lon="32.4199668">
<ele>14.27</ele>
<time>2015-04-25T17:49:09Z</time>
</trkpt>
<trkpt lat="35.0416609" lon="32.4200265">
<ele>14.10</ele>
<time>2015-04-25T17:49:10Z</time>
</trkpt>
<trkpt lat="35.0416876" lon="32.4200874">
<ele>14.51</ele>
<time>2015-04-25T17:49:11Z</time>
</trkpt>
<trkpt lat="35.0417216" lon="32.4201338">
<ele>14.72</ele>
<time>2015-04-25T17:49:12Z</time>
</trkpt>
<trkpt lat="35.0417433" lon="32.4201939">
<ele>14.32</ele>
<time>2015-04-25T17:49:13Z</time>
</trkpt>
<trkpt lat="35.0417649" lon="32.4202575">
<ele>14.12</ele>
<time>2015-04-25T17:49:14Z</time>
</trkpt>
<trkpt lat="35.0417812" lon="32.4203195">
<ele>14.52</ele>
<time>2015-04-25T17:49:15Z</time>
</trkpt>
<trkpt lat="35.0417887" lon="32.4203964">
<ele>14.72</ele>
<time>2015-04-25T17:49:16Z</time>
</trkpt>
<trkpt lat="35.0417899" lon="32.4204671">
<ele>14.82</ele>
<time>2015-04-25T17:49:17Z</time>
</trkpt>
<trkpt lat="35.0417825" lon="32.4205386">
<ele>14.37</ele>
<time>2015-04-25T17:49:18Z</time>
</trkpt>
<trkpt lat="35.0417866" lon="32.4206077">
<ele>14.15</ele>
<time>2015-04-25T17:49:19Z</time>
</trkpt>
<trkpt lat="35.0417757" lon="32.4206773">
<ele>15.04</ele>
<time>2015-04-25T17:49:20Z</time>
</trkpt>
<trkpt lat="35.0417798" lon="32.4207418">
<ele>14.98</ele>
<time>2015-04-25T17:49:21Z</time>
</trkpt>
<trkpt lat="35.0417681" lon="32.4208193">
<ele>15.95</ele>
<time>2015-04-25T17:49:22Z</time>
</trkpt>
<trkpt lat="35.0417684" lon="32.4208863">
<ele>16.44</ele>
<time>2015-04-25T17:49:23Z</time>
</trkpt>
<trkpt lat="35.0417635" lon="32.4209566">
<ele>16.68</ele>
<time>2015-04-25T17:49:24Z</time>
</trkpt>
<trkpt lat="35.0417632" lon="32.4210201">
<ele>17.30</ele>
<time>2015-04-25T17:49:25Z</time>
</trkpt>
<trkpt lat="35.0417314" lon="32.4211263">
<ele>17.77</ele>
<time>2015-04-25T17:49:27Z</time>
</trkpt>
<trkpt lat="35.0417196" lon="32.4211916">
<ele>17.85</ele>
<time>2015-04-25T17:49:28Z</time>
</trkpt>
<trkpt lat="35.0417248" lon="32.4212655">
<ele>16.89</ele>
<time>2015-04-25T17:49:29Z</time>
</trkpt>
<trkpt lat="35.0417400" lon="32.4213394">
<ele>15.91</ele>
<time>2015-04-25T17:49:30Z</time>
</trkpt>
<trkpt lat="35.0417659" lon="32.4214038">
<ele>14.92</ele>
<time>2015-04-25T17:49:31Z</time>
</trkpt>
<trkpt lat="35.0418075" lon="32.4214505">
<ele>14.42</ele>
<time>2015-04-25T17:49:32Z</time>
</trkpt>
<trkpt lat="35.0418522" lon="32.4214990">
<ele>14.17</ele>
<time>2015-04-25T17:49:33Z</time>
</trkpt>
<trkpt lat="35.0418956" lon="32.4215590">
<ele>14.05</ele>
<time>2015-04-25T17:49:34Z</time>
</trkpt>
<trkpt lat="35.0419493" lon="32.4215992">
<ele>13.99</ele>
<time>2015-04-25T17:49:35Z</time>
</trkpt>
<trkpt lat="35.0420079" lon="32.4216150">
<ele>12.46</ele>
<time>2015-04-25T17:49:36Z</time>
</trkpt>
<trkpt lat="35.0420601" lon="32.4216416">
<ele>11.69</ele>
<time>2015-04-25T17:49:37Z</time>
</trkpt>
<trkpt lat="35.0421128" lon="32.4216797">
<ele>11.31</ele>
<time>2015-04-25T17:49:38Z</time>
</trkpt>
<trkpt lat="35.0421714" lon="32.4217637">
<ele>10.27</ele>
<time>2015-04-25T17:49:40Z</time>
</trkpt>
<trkpt lat="35.0421578" lon="32.4218652">
<ele>10.51</ele>
<time>2015-04-25T17:49:42Z</time>
</trkpt>
<trkpt lat="35.0421618" lon="32.4219259">
<ele>10.72</ele>
<time>2015-04-25T17:49:43Z</time>
</trkpt>
<trkpt lat="35.0421706" lon="32.4220523">
<ele>11.37</ele>
<time>2015-04-25T17:49:45Z</time>
</trkpt>
<trkpt lat="35.0421587" lon="32.4221239">
<ele>11.65</ele>
<time>2015-04-25T17:49:46Z</time>
</trkpt>
<trkpt lat="35.0421426" lon="32.4221925">
<ele>12.29</ele>
<time>2015-04-25T17:49:47Z</time>
</trkpt>
<trkpt lat="35.0421280" lon="32.4222570">
<ele>12.61</ele>
<time>2015-04-25T17:49:48Z</time>
</trkpt>
<trkpt lat="35.0421154" lon="32.4223263">
<ele>12.77</ele>
<time>2015-04-25T17:49:49Z</time>
</trkpt>
<trkpt lat="35.0420870" lon="32.4223907">
<ele>12.85</ele>
<time>2015-04-25T17:49:50Z</time>
</trkpt>
<trkpt lat="35.0420533" lon="32.4224397">
<ele>12.89</ele>
<time>2015-04-25T17:49:51Z</time>
</trkpt>
<trkpt lat="35.0420166" lon="32.4224926">
<ele>12.41</ele>
<time>2015-04-25T17:49:52Z</time>
</trkpt>
<trkpt lat="35.0419719" lon="32.4225426">
<ele>12.67</ele>
<time>2015-04-25T17:49:53Z</time>
</trkpt>
<trkpt lat="35.0419411" lon="32.4225950">
<ele>12.30</ele>
<time>2015-04-25T17:49:54Z</time>
</trkpt>
<trkpt lat="35.0419027" lon="32.4226430">
<ele>12.11</ele>
<time>2015-04-25T17:49:55Z</time>
</trkpt>
<trkpt lat="35.0418480" lon="32.4226796">
<ele>12.02</ele>
<time>2015-04-25T17:49:56Z</time>
</trkpt>
<trkpt lat="35.0417951" lon="32.4227163">
<ele>11.47</ele>
<time>2015-04-25T17:49:57Z</time>
</trkpt>
<trkpt lat="35.0417397" lon="32.4227466">
<ele>11.70</ele>
<time>2015-04-25T17:49:58Z</time>
</trkpt>
<trkpt lat="35.0416883" lon="32.4227566">
<ele>11.81</ele>
<time>2015-04-25T17:49:59Z</time>
</trkpt>
<trkpt lat="35.0416401" lon="32.4227837">
<ele>11.37</ele>
<time>2015-04-25T17:50:00Z</time>
</trkpt>
<trkpt lat="35.0415811" lon="32.4227983">
<ele>10.15</ele>
<time>2015-04-25T17:50:01Z</time>
</trkpt>
<trkpt lat="35.0415234" lon="32.4228126">
<ele>9.54</ele>
<time>2015-04-25T17:50:02Z</time>
</trkpt>
<trkpt lat="35.0414814" lon="32.4228346">
<ele>9.73</ele>
<time>2015-04-25T17:50:03Z</time>
</trkpt>
<trkpt lat="35.0414272" lon="32.4228709">
<ele>9.83</ele>
<time>2015-04-25T17:50:04Z</time>
</trkpt>
<trkpt lat="35.0413739" lon="32.4229069">
<ele>9.88</ele>
<time>2015-04-25T17:50:05Z</time>
</trkpt>
<trkpt lat="35.0413321" lon="32.4229457">
<ele>9.90</ele>
<time>2015-04-25T17:50:06Z</time>
</trkpt>
<trkpt lat="35.0412906" lon="32.4229847">
<ele>9.91</ele>
<time>2015-04-25T17:50:07Z</time>
</trkpt>
<trkpt lat="35.0412506" lon="32.4230321">
<ele>9.92</ele>
<time>2015-04-25T17:50:08Z</time>
</trkpt>
<trkpt lat="35.0412158" lon="32.4230808">
<ele>10.42</ele>
<time>2015-04-25T17:50:09Z</time>
</trkpt>
<trkpt lat="35.0411770" lon="32.4231259">
<ele>11.17</ele>
<time>2015-04-25T17:50:10Z</time>
</trkpt>
<trkpt lat="35.0411357" lon="32.4231565">
<ele>11.05</ele>
<time>2015-04-25T17:50:11Z</time>
</trkpt>
<trkpt lat="35.0410864" lon="32.4231843">
<ele>10.99</ele>
<time>2015-04-25T17:50:12Z</time>
</trkpt>
<trkpt lat="35.0410462" lon="32.4232222">
<ele>10.96</ele>
<time>2015-04-25T17:50:13Z</time>
</trkpt>
<trkpt lat="35.0410019" lon="32.4232559">
<ele>10.94</ele>
<time>2015-04-25T17:50:14Z</time>
</trkpt>
<trkpt lat="35.0409677" lon="32.4232975">
<ele>11.43</ele>
<time>2015-04-25T17:50:15Z</time>
</trkpt>
<trkpt lat="35.0409262" lon="32.4233302">
<ele>12.18</ele>
<time>2015-04-25T17:50:16Z</time>
</trkpt>
<trkpt lat="35.0408894" lon="32.4233679">
<ele>12.55</ele>
<time>2015-04-25T17:50:17Z</time>
</trkpt>
<trkpt lat="35.0408448" lon="32.4233965">
<ele>12.74</ele>
<time>2015-04-25T17:50:18Z</time>
</trkpt>
<trkpt lat="35.0408080" lon="32.4234365">
<ele>12.83</ele>
<time>2015-04-25T17:50:19Z</time>
</trkpt>
<trkpt lat="35.0407608" lon="32.4234760">
<ele>13.38</ele>
<time>2015-04-25T17:50:20Z</time>
</trkpt>
<trkpt lat="35.0407188" lon="32.4235056">
<ele>13.15</ele>
<time>2015-04-25T17:50:21Z</time>
</trkpt>
<trkpt lat="35.0406760" lon="32.4235381">
<ele>13.04</ele>
<time>2015-04-25T17:50:22Z</time>
</trkpt>
<trkpt lat="35.0406351" lon="32.4235755">
<ele>12.98</ele>
<time>2015-04-25T17:50:23Z</time>
</trkpt>
<trkpt lat="35.0405936" lon="32.4236150">
<ele>12.95</ele>
<time>2015-04-25T17:50:24Z</time>
</trkpt>
<trkpt lat="35.0405121" lon="32.4236855">
<ele>12.93</ele>
<time>2015-04-25T17:50:26Z</time>
</trkpt>
<trkpt lat="35.0404756" lon="32.4237189">
<ele>12.93</ele>
<time>2015-04-25T17:50:27Z</time>
</trkpt>
<trkpt lat="35.0404386" lon="32.4237618">
<ele>13.43</ele>
<time>2015-04-25T17:50:28Z</time>
</trkpt>
<trkpt lat="35.0403814" lon="32.4238237">
<ele>13.80</ele>
<time>2015-04-25T17:50:30Z</time>
</trkpt>
<trkpt lat="35.0403182" lon="32.4238751">
<ele>13.39</ele>
<time>2015-04-25T17:50:32Z</time>
</trkpt>
<trkpt lat="35.0402741" lon="32.4239262">
<ele>13.29</ele>
<time>2015-04-25T17:50:34Z</time>
</trkpt>
<trkpt lat="35.0402336" lon="32.4239746">
<ele>13.77</ele>
<time>2015-04-25T17:50:36Z</time>
</trkpt>
<trkpt lat="35.0401900" lon="32.4239961">
<ele>13.64</ele>
<time>2015-04-25T17:50:38Z</time>
</trkpt>
<trkpt lat="35.0401367" lon="32.4240401">
<ele>13.85</ele>
<time>2015-04-25T17:50:40Z</time>
</trkpt>
<trkpt lat="35.0400892" lon="32.4240869">
<ele>14.66</ele>
<time>2015-04-25T17:50:42Z</time>
</trkpt>
<trkpt lat="35.0400372" lon="32.4241387">
<ele>14.61</ele>
<time>2015-04-25T17:50:44Z</time>
</trkpt>
<trkpt lat="35.0399788" lon="32.4241903">
<ele>16.10</ele>
<time>2015-04-25T17:50:46Z</time>
</trkpt>
<trkpt lat="35.0399210" lon="32.4242448">
<ele>16.72</ele>
<time>2015-04-25T17:50:48Z</time>
</trkpt>
<trkpt lat="35.0398579" lon="32.4242926">
<ele>17.62</ele>
<time>2015-04-25T17:50:50Z</time>
</trkpt>
<trkpt lat="35.0397943" lon="32.4243410">
<ele>18.35</ele>
<time>2015-04-25T17:50:52Z</time>
</trkpt>
<trkpt lat="35.0397376" lon="32.4243949">
<ele>19.53</ele>
<time>2015-04-25T17:50:54Z</time>
</trkpt>
<trkpt lat="35.0396816" lon="32.4244410">
<ele>19.83</ele>
<time>2015-04-25T17:50:56Z</time>
</trkpt>
<trkpt lat="35.0396327" lon="32.4244886">
<ele>19.15</ele>
<time>2015-04-25T17:50:58Z</time>
</trkpt>
<trkpt lat="35.0395791" lon="32.4245278">
<ele>18.98</ele>
<time>2015-04-25T17:51:00Z</time>
</trkpt>
<trkpt lat="35.0395218" lon="32.4245555">
<ele>19.44</ele>
<time>2015-04-25T17:51:02Z</time>
</trkpt>
<trkpt lat="35.0394682" lon="32.4245838">
<ele>20.55</ele>
<time>2015-04-25T17:51:04Z</time>
</trkpt>
<trkpt lat="35.0394230" lon="32.4246184">
<ele>20.83</ele>
<time>2015-04-25T17:51:06Z</time>
</trkpt>
<trkpt lat="35.0393834" lon="32.4246533">
<ele>19.90</ele>
<time>2015-04-25T17:51:08Z</time>
</trkpt>
<trkpt lat="35.0393309" lon="32.4246888">
<ele>20.05</ele>
<time>2015-04-25T17:51:12Z</time>
</trkpt>
<trkpt lat="35.0392867" lon="32.4247210">
<ele>19.44</ele>
<time>2015-04-25T17:51:15Z</time>
</trkpt>
<trkpt lat="35.0392435" lon="32.4247579">
<ele>19.74</ele>
<time>2015-04-25T17:51:18Z</time>
</trkpt>
<trkpt lat="35.0392091" lon="32.4247983">
<ele>20.65</ele>
<time>2015-04-25T17:51:21Z</time>
</trkpt>
<trkpt lat="35.0391893" lon="32.4248583">
<ele>21.16</ele>
<time>2015-04-25T17:51:25Z</time>
</trkpt>
<trkpt lat="35.0392154" lon="32.4249251">
<ele>21.88</ele>
<time>2015-04-25T17:51:29Z</time>
</trkpt>
<trkpt lat="35.0392452" lon="32.4249781">
<ele>21.91</ele>
<time>2015-04-25T17:51:31Z</time>
</trkpt>
<trkpt lat="35.0392992" lon="32.4250696">
<ele>21.42</ele>
<time>2015-04-25T17:51:33Z</time>
</trkpt>
<trkpt lat="35.0393516" lon="32.4251480">
<ele>20.67</ele>
<time>2015-04-25T17:51:34Z</time>
</trkpt>
<trkpt lat="35.0393831" lon="32.4251952">
<ele>20.80</ele>
<time>2015-04-25T17:51:35Z</time>
</trkpt>
<trkpt lat="35.0394237" lon="32.4252416">
<ele>20.86</ele>
<time>2015-04-25T17:51:36Z</time>
</trkpt>
<trkpt lat="35.0394647" lon="32.4252951">
<ele>20.89</ele>
<time>2015-04-25T17:51:37Z</time>
</trkpt>
<trkpt lat="35.0395027" lon="32.4253478">
<ele>20.91</ele>
<time>2015-04-25T17:51:38Z</time>
</trkpt>
<trkpt lat="35.0395442" lon="32.4253916">
<ele>20.42</ele>
<time>2015-04-25T17:51:39Z</time>
</trkpt>
<trkpt lat="35.0395923" lon="32.4254512">
<ele>19.67</ele>
<time>2015-04-25T17:51:40Z</time>
</trkpt>
<trkpt lat="35.0396338" lon="32.4255012">
<ele>19.30</ele>
<time>2015-04-25T17:51:41Z</time>
</trkpt>
<trkpt lat="35.0396552" lon="32.4255527">
<ele>18.11</ele>
<time>2015-04-25T17:51:42Z</time>
</trkpt>
<trkpt lat="35.0397030" lon="32.4256212">
<ele>17.52</ele>
<time>2015-04-25T17:51:43Z</time>
</trkpt>
<trkpt lat="35.0397530" lon="32.4256892">
<ele>17.22</ele>
<time>2015-04-25T17:51:44Z</time>
</trkpt>
<trkpt lat="35.0398020" lon="32.4257547">
<ele>17.07</ele>
<time>2015-04-25T17:51:45Z</time>
</trkpt>
<trkpt lat="35.0398432" lon="32.4258328">
<ele>16.50</ele>
<time>2015-04-25T17:51:46Z</time>
</trkpt>
<trkpt lat="35.0398874" lon="32.4258994">
<ele>16.71</ele>
<time>2015-04-25T17:51:47Z</time>
</trkpt>
<trkpt lat="35.0399245" lon="32.4259822">
<ele>16.32</ele>
<time>2015-04-25T17:51:48Z</time>
</trkpt>
<trkpt lat="35.0399537" lon="32.4260553">
<ele>16.62</ele>
<time>2015-04-25T17:51:49Z</time>
</trkpt>
<trkpt lat="35.0399954" lon="32.4261343">
<ele>16.77</ele>
<time>2015-04-25T17:51:50Z</time>
</trkpt>
<trkpt lat="35.0400329" lon="32.4262116">
<ele>16.85</ele>
<time>2015-04-25T17:51:51Z</time>
</trkpt>
<trkpt lat="35.0400693" lon="32.4262861">
<ele>16.89</ele>
<time>2015-04-25T17:51:52Z</time>
</trkpt>
<trkpt lat="35.0401110" lon="32.4263668">
<ele>16.41</ele>
<time>2015-04-25T17:51:53Z</time>
</trkpt>
<trkpt lat="35.0401485" lon="32.4264414">
<ele>16.17</ele>
<time>2015-04-25T17:51:54Z</time>
</trkpt>
<trkpt lat="35.0401786" lon="32.4264983">
<ele>16.55</ele>
<time>2015-04-25T17:51:55Z</time>
</trkpt>
<trkpt lat="35.0402149" lon="32.4265727">
<ele>16.74</ele>
<time>2015-04-25T17:51:56Z</time>
</trkpt>
<trkpt lat="35.0402438" lon="32.4266361">
<ele>17.33</ele>
<time>2015-04-25T17:51:57Z</time>
</trkpt>
<trkpt lat="35.0402706" lon="32.4267045">
<ele>18.13</ele>
<time>2015-04-25T17:51:58Z</time>
</trkpt>
<trkpt lat="35.0402918" lon="32.4267739">
<ele>18.53</ele>
<time>2015-04-25T17:51:59Z</time>
</trkpt>
<trkpt lat="35.0403136" lon="32.4268388">
<ele>19.23</ele>
<time>2015-04-25T17:52:00Z</time>
</trkpt>
<trkpt lat="35.0403353" lon="32.4268922">
<ele>19.58</ele>
<time>2015-04-25T17:52:01Z</time>
</trkpt>
<trkpt lat="35.0403643" lon="32.4269573">
<ele>19.75</ele>
<time>2015-04-25T17:52:02Z</time>
</trkpt>
<trkpt lat="35.0403947" lon="32.4270205">
<ele>19.84</ele>
<time>2015-04-25T17:52:03Z</time>
</trkpt>
<trkpt lat="35.0404263" lon="32.4270876">
<ele>19.38</ele>
<time>2015-04-25T17:52:04Z</time>
</trkpt>
<trkpt lat="35.0404701" lon="32.4271627">
<ele>19.15</ele>
<time>2015-04-25T17:52:05Z</time>
</trkpt>
<trkpt lat="35.0404967" lon="32.4272209">
<ele>19.04</ele>
<time>2015-04-25T17:52:06Z</time>
</trkpt>
<trkpt lat="35.0405295" lon="32.4272784">
<ele>18.98</ele>
<time>2015-04-25T17:52:07Z</time>
</trkpt>
<trkpt lat="35.0405559" lon="32.4273384">
<ele>18.95</ele>
<time>2015-04-25T17:52:08Z</time>
</trkpt>
<trkpt lat="35.0405777" lon="32.4273973">
<ele>18.94</ele>
<time>2015-04-25T17:52:09Z</time>
</trkpt>
<trkpt lat="35.0406007" lon="32.4274491">
<ele>18.93</ele>
<time>2015-04-25T17:52:10Z</time>
</trkpt>
<trkpt lat="35.0406315" lon="32.4274958">
<ele>18.93</ele>
<time>2015-04-25T17:52:11Z</time>
</trkpt>
<trkpt lat="35.0406580" lon="32.4275570">
<ele>18.93</ele>
<time>2015-04-25T17:52:12Z</time>
</trkpt>
<trkpt lat="35.0406774" lon="32.4276123">
<ele>18.93</ele>
<time>2015-04-25T17:52:13Z</time>
</trkpt>
<trkpt lat="35.0407103" lon="32.4276666">
<ele>18.93</ele>
<time>2015-04-25T17:52:14Z</time>
</trkpt>
<trkpt lat="35.0407396" lon="32.4277169">
<ele>18.93</ele>
<time>2015-04-25T17:52:15Z</time>
</trkpt>
<trkpt lat="35.0407697" lon="32.4277683">
<ele>19.43</ele>
<time>2015-04-25T17:52:16Z</time>
</trkpt>
<trkpt lat="35.0408459" lon="32.4278608">
<ele>19.80</ele>
<time>2015-04-25T17:52:18Z</time>
</trkpt>
<trkpt lat="35.0408728" lon="32.4279060">
<ele>19.86</ele>
<time>2015-04-25T17:52:19Z</time>
</trkpt>
<trkpt lat="35.0409054" lon="32.4279508">
<ele>19.39</ele>
<time>2015-04-25T17:52:20Z</time>
</trkpt>
<trkpt lat="35.0409371" lon="32.4279979">
<ele>19.16</ele>
<time>2015-04-25T17:52:21Z</time>
</trkpt>
<trkpt lat="35.0409817" lon="32.4280319">
<ele>19.04</ele>
<time>2015-04-25T17:52:22Z</time>
</trkpt>
<trkpt lat="35.0410191" lon="32.4280739">
<ele>18.98</ele>
<time>2015-04-25T17:52:23Z</time>
</trkpt>
<trkpt lat="35.0410565" lon="32.4281178">
<ele>18.45</ele>
<time>2015-04-25T17:52:24Z</time>
</trkpt>
<trkpt lat="35.0410946" lon="32.4281622">
<ele>18.19</ele>
<time>2015-04-25T17:52:25Z</time>
</trkpt>
<trkpt lat="35.0411296" lon="32.4282000">
<ele>18.06</ele>
<time>2015-04-25T17:52:26Z</time>
</trkpt>
<trkpt lat="35.0412128" lon="32.4282719">
<ele>17.21</ele>
<time>2015-04-25T17:52:28Z</time>
</trkpt>
<trkpt lat="35.0412542" lon="32.4283047">
<ele>17.07</ele>
<time>2015-04-25T17:52:29Z</time>
</trkpt>
<trkpt lat="35.0413118" lon="32.4283656">
<ele>17.71</ele>
<time>2015-04-25T17:52:31Z</time>
</trkpt>
<trkpt lat="35.0412707" lon="32.4284012">
<ele>18.42</ele>
<time>2015-04-25T17:52:40Z</time>
</trkpt>
<trkpt lat="35.0413110" lon="32.4284539">
<ele>22.49</ele>
<time>2015-04-25T17:53:43Z</time>
</trkpt>
<trkpt lat="35.0413579" lon="32.4284802">
<ele>22.87</ele>
<time>2015-04-25T17:53:46Z</time>
</trkpt>
<trkpt lat="35.0414080" lon="32.4285380">
<ele>23.42</ele>
<time>2015-04-25T17:53:49Z</time>
</trkpt>
<trkpt lat="35.0414456" lon="32.4285842">
<ele>23.80</ele>
<time>2015-04-25T17:53:51Z</time>
</trkpt>
<trkpt lat="35.0414898" lon="32.4286261">
<ele>23.39</ele>
<time>2015-04-25T17:53:53Z</time>
</trkpt>
<trkpt lat="35.0415387" lon="32.4286570">
<ele>23.79</ele>
<time>2015-04-25T17:53:55Z</time>
</trkpt>
<trkpt lat="35.0415951" lon="32.4287040">
<ele>23.39</ele>
<time>2015-04-25T17:53:57Z</time>
</trkpt>
<trkpt lat="35.0416506" lon="32.4287638">
<ele>23.04</ele>
<time>2015-04-25T17:53:59Z</time>
</trkpt>
<trkpt lat="35.0416910" lon="32.4288249">
<ele>22.95</ele>
<time>2015-04-25T17:54:01Z</time>
</trkpt>
<trkpt lat="35.0417324" lon="32.4288883">
<ele>22.93</ele>
<time>2015-04-25T17:54:03Z</time>
</trkpt>
<trkpt lat="35.0417722" lon="32.4289560">
<ele>22.18</ele>
<time>2015-04-25T17:54:05Z</time>
</trkpt>
<trkpt lat="35.0418073" lon="32.4290286">
<ele>21.99</ele>
<time>2015-04-25T17:54:07Z</time>
</trkpt>
<trkpt lat="35.0418552" lon="32.4290973">
<ele>22.19</ele>
<time>2015-04-25T17:54:09Z</time>
</trkpt>
<trkpt lat="35.0419054" lon="32.4291700">
<ele>21.99</ele>
<time>2015-04-25T17:54:11Z</time>
</trkpt>
<trkpt lat="35.0419435" lon="32.4292426">
<ele>21.19</ele>
<time>2015-04-25T17:54:13Z</time>
</trkpt>
<trkpt lat="35.0419878" lon="32.4293035">
<ele>20.99</ele>
<time>2015-04-25T17:54:15Z</time>
</trkpt>
<trkpt lat="35.0420340" lon="32.4293671">
<ele>20.94</ele>
<time>2015-04-25T17:54:17Z</time>
</trkpt>
<trkpt lat="35.0420713" lon="32.4294380">
<ele>20.93</ele>
<time>2015-04-25T17:54:19Z</time>
</trkpt>
<trkpt lat="35.0421124" lon="32.4295028">
<ele>20.68</ele>
<time>2015-04-25T17:54:21Z</time>
</trkpt>
<trkpt lat="35.0421530" lon="32.4295629">
<ele>20.11</ele>
<time>2015-04-25T17:54:23Z</time>
</trkpt>
<trkpt lat="35.0421934" lon="32.4296233">
<ele>19.22</ele>
<time>2015-04-25T17:54:25Z</time>
</trkpt>
<trkpt lat="35.0422340" lon="32.4296817">
<ele>19.00</ele>
<time>2015-04-25T17:54:27Z</time>
</trkpt>
<trkpt lat="35.0422702" lon="32.4297412">
<ele>18.19</ele>
<time>2015-04-25T17:54:29Z</time>
</trkpt>
<trkpt lat="35.0423036" lon="32.4298034">
<ele>18.74</ele>
<time>2015-04-25T17:54:31Z</time>
</trkpt>
<trkpt lat="35.0423390" lon="32.4298615">
<ele>18.88</ele>
<time>2015-04-25T17:54:33Z</time>
</trkpt>
<trkpt lat="35.0423684" lon="32.4299134">
<ele>18.16</ele>
<time>2015-04-25T17:54:35Z</time>
</trkpt>
<trkpt lat="35.0424003" lon="32.4299686">
<ele>17.98</ele>
<time>2015-04-25T17:54:37Z</time>
</trkpt>
<trkpt lat="35.0424386" lon="32.4300259">
<ele>17.94</ele>
<time>2015-04-25T17:54:39Z</time>
</trkpt>
<trkpt lat="35.0424674" lon="32.4300736">
<ele>18.43</ele>
<time>2015-04-25T17:54:40Z</time>
</trkpt>
<trkpt lat="35.0425249" lon="32.4301568">
<ele>18.30</ele>
<time>2015-04-25T17:54:42Z</time>
</trkpt>
<trkpt lat="35.0425930" lon="32.4302446">
<ele>18.02</ele>
<time>2015-04-25T17:54:44Z</time>
</trkpt>
<trkpt lat="35.0426273" lon="32.4302876">
<ele>17.97</ele>
<time>2015-04-25T17:54:45Z</time>
</trkpt>
<trkpt lat="35.0426659" lon="32.4303241">
<ele>17.45</ele>
<time>2015-04-25T17:54:46Z</time>
</trkpt>
<trkpt lat="35.0427016" lon="32.4303620">
<ele>17.19</ele>
<time>2015-04-25T17:54:47Z</time>
</trkpt>
<trkpt lat="35.0427443" lon="32.4303973">
<ele>17.06</ele>
<time>2015-04-25T17:54:48Z</time>
</trkpt>
<trkpt lat="35.0428115" lon="32.4304714">
<ele>16.96</ele>
<time>2015-04-25T17:54:50Z</time>
</trkpt>
<trkpt lat="35.0428875" lon="32.4305342">
<ele>16.43</ele>
<time>2015-04-25T17:54:52Z</time>
</trkpt>
<trkpt lat="35.0429269" lon="32.4305639">
<ele>16.18</ele>
<time>2015-04-25T17:54:53Z</time>
</trkpt>
<trkpt lat="35.0429853" lon="32.4306309">
<ele>15.24</ele>
<time>2015-04-25T17:54:55Z</time>
</trkpt>
<trkpt lat="35.0430451" lon="32.4306980">
<ele>15.75</ele>
<time>2015-04-25T17:54:57Z</time>
</trkpt>
<trkpt lat="35.0431022" lon="32.4307456">
<ele>15.13</ele>
<time>2015-04-25T17:54:59Z</time>
</trkpt>
<trkpt lat="35.0431707" lon="32.4308016">
<ele>14.98</ele>
<time>2015-04-25T17:55:01Z</time>
</trkpt>
<trkpt lat="35.0432090" lon="32.4308326">
<ele>15.45</ele>
<time>2015-04-25T17:55:02Z</time>
</trkpt>
<trkpt lat="35.0432477" lon="32.4308681">
<ele>15.19</ele>
<time>2015-04-25T17:55:03Z</time>
</trkpt>
<trkpt lat="35.0432918" lon="32.4309083">
<ele>15.56</ele>
<time>2015-04-25T17:55:04Z</time>
</trkpt>
<trkpt lat="35.0433288" lon="32.4309443">
<ele>15.24</ele>
<time>2015-04-25T17:55:05Z</time>
</trkpt>
<trkpt lat="35.0433708" lon="32.4309787">
<ele>15.08</ele>
<time>2015-04-25T17:55:06Z</time>
</trkpt>
<trkpt lat="35.0434272" lon="32.4310563">
<ele>14.21</ele>
<time>2015-04-25T17:55:08Z</time>
</trkpt>
<trkpt lat="35.0434842" lon="32.4311337">
<ele>15.25</ele>
<time>2015-04-25T17:55:10Z</time>
</trkpt>
<trkpt lat="35.0435180" lon="32.4311735">
<ele>15.59</ele>
<time>2015-04-25T17:55:11Z</time>
</trkpt>
<trkpt lat="35.0435721" lon="32.4312420">
<ele>16.34</ele>
<time>2015-04-25T17:55:13Z</time>
</trkpt>
<trkpt lat="35.0436256" lon="32.4313046">
<ele>16.78</ele>
<time>2015-04-25T17:55:15Z</time>
</trkpt>
<trkpt lat="35.0436854" lon="32.4313619">
<ele>17.14</ele>
<time>2015-04-25T17:55:17Z</time>
</trkpt>
<trkpt lat="35.0437278" lon="32.4314307">
<ele>16.73</ele>
<time>2015-04-25T17:55:19Z</time>
</trkpt>
<trkpt lat="35.0437773" lon="32.4314982">
<ele>16.13</ele>
<time>2015-04-25T17:55:21Z</time>
</trkpt>
<trkpt lat="35.0438280" lon="32.4315592">
<ele>16.73</ele>
<time>2015-04-25T17:55:23Z</time>
</trkpt>
<trkpt lat="35.0438874" lon="32.4316200">
<ele>16.88</ele>
<time>2015-04-25T17:55:25Z</time>
</trkpt>
<trkpt lat="35.0439361" lon="32.4316831">
<ele>16.91</ele>
<time>2015-04-25T17:55:27Z</time>
</trkpt>
<trkpt lat="35.0439872" lon="32.4317462">
<ele>16.92</ele>
<time>2015-04-25T17:55:29Z</time>
</trkpt>
<trkpt lat="35.0440430" lon="32.4318101">
<ele>16.92</ele>
<time>2015-04-25T17:55:31Z</time>
</trkpt>
<trkpt lat="35.0440865" lon="32.4318697">
<ele>16.92</ele>
<time>2015-04-25T17:55:32Z</time>
</trkpt>
<trkpt lat="35.0441171" lon="32.4319120">
<ele>16.92</ele>
<time>2015-04-25T17:55:33Z</time>
</trkpt>
<trkpt lat="35.0441505" lon="32.4319499">
<ele>16.92</ele>
<time>2015-04-25T17:55:34Z</time>
</trkpt>
<trkpt lat="35.0441863" lon="32.4319966">
<ele>16.92</ele>
<time>2015-04-25T17:55:35Z</time>
</trkpt>
<trkpt lat="35.0442157" lon="32.4320470">
<ele>17.42</ele>
<time>2015-04-25T17:55:36Z</time>
</trkpt>
<trkpt lat="35.0442532" lon="32.4321038">
<ele>17.17</ele>
<time>2015-04-25T17:55:37Z</time>
</trkpt>
<trkpt lat="35.0442877" lon="32.4321486">
<ele>17.05</ele>
<time>2015-04-25T17:55:38Z</time>
</trkpt>
<trkpt lat="35.0443235" lon="32.4321945">
<ele>17.49</ele>
<time>2015-04-25T17:55:39Z</time>
</trkpt>
<trkpt lat="35.0443607" lon="32.4322485">
<ele>17.71</ele>
<time>2015-04-25T17:55:40Z</time>
</trkpt>
<trkpt lat="35.0443970" lon="32.4323019">
<ele>18.32</ele>
<time>2015-04-25T17:55:41Z</time>
</trkpt>
<trkpt lat="35.0444474" lon="32.4323769">
<ele>17.52</ele>
<time>2015-04-25T17:55:43Z</time>
</trkpt>
<trkpt lat="35.0444764" lon="32.4324278">
<ele>16.72</ele>
<time>2015-04-25T17:55:44Z</time>
</trkpt>
<trkpt lat="35.0445136" lon="32.4324795">
<ele>16.32</ele>
<time>2015-04-25T17:55:45Z</time>
</trkpt>
<trkpt lat="35.0445501" lon="32.4325338">
<ele>16.12</ele>
<time>2015-04-25T17:55:46Z</time>
</trkpt>
<trkpt lat="35.0445859" lon="32.4325854">
<ele>16.02</ele>
<time>2015-04-25T17:55:47Z</time>
</trkpt>
<trkpt lat="35.0446243" lon="32.4326357">
<ele>15.97</ele>
<time>2015-04-25T17:55:48Z</time>
</trkpt>
<trkpt lat="35.0446671" lon="32.4326911">
<ele>15.95</ele>
<time>2015-04-25T17:55:49Z</time>
</trkpt>
<trkpt lat="35.0447050" lon="32.4327432">
<ele>15.94</ele>
<time>2015-04-25T17:55:50Z</time>
</trkpt>
<trkpt lat="35.0447428" lon="32.4328004">
<ele>15.93</ele>
<time>2015-04-25T17:55:51Z</time>
</trkpt>
<trkpt lat="35.0447801" lon="32.4328556">
<ele>15.93</ele>
<time>2015-04-25T17:55:52Z</time>
</trkpt>
<trkpt lat="35.0448087" lon="32.4329042">
<ele>15.43</ele>
<time>2015-04-25T17:55:53Z</time>
</trkpt>
<trkpt lat="35.0448645" lon="32.4329865">
<ele>15.55</ele>
<time>2015-04-25T17:55:55Z</time>
</trkpt>
<trkpt lat="35.0449023" lon="32.4330398">
<ele>15.74</ele>
<time>2015-04-25T17:55:56Z</time>
</trkpt>
<trkpt lat="35.0449346" lon="32.4330806">
<ele>16.33</ele>
<time>2015-04-25T17:55:57Z</time>
</trkpt>
<trkpt lat="35.0449776" lon="32.4331706">
<ele>16.78</ele>
<time>2015-04-25T17:55:59Z</time>
</trkpt>
<trkpt lat="35.0450233" lon="32.4332663">
<ele>16.89</ele>
<time>2015-04-25T17:56:01Z</time>
</trkpt>
<trkpt lat="35.0450511" lon="32.4333151">
<ele>16.91</ele>
<time>2015-04-25T17:56:02Z</time>
</trkpt>
<trkpt lat="35.0450916" lon="32.4334079">
<ele>16.42</ele>
<time>2015-04-25T17:56:04Z</time>
</trkpt>
<trkpt lat="35.0451252" lon="32.4334946">
<ele>16.05</ele>
<time>2015-04-25T17:56:06Z</time>
</trkpt>
<trkpt lat="35.0451712" lon="32.4335869">
<ele>15.96</ele>
<time>2015-04-25T17:56:08Z</time>
</trkpt>
<trkpt lat="35.0451945" lon="32.4336340">
<ele>15.94</ele>
<time>2015-04-25T17:56:09Z</time>
</trkpt>
<trkpt lat="35.0452340" lon="32.4337271">
<ele>16.68</ele>
<time>2015-04-25T17:56:11Z</time>
</trkpt>
<trkpt lat="35.0452579" lon="32.4337855">
<ele>16.30</ele>
<time>2015-04-25T17:56:12Z</time>
</trkpt>
<trkpt lat="35.0452852" lon="32.4338342">
<ele>16.11</ele>
<time>2015-04-25T17:56:13Z</time>
</trkpt>
<trkpt lat="35.0453273" lon="32.4339308">
<ele>16.72</ele>
<time>2015-04-25T17:56:15Z</time>
</trkpt>
<trkpt lat="35.0453532" lon="32.4339788">
<ele>16.82</ele>
<time>2015-04-25T17:56:16Z</time>
</trkpt>
<trkpt lat="35.0453793" lon="32.4340551">
<ele>16.40</ele>
<time>2015-04-25T17:56:18Z</time>
</trkpt>
<trkpt lat="35.0454037" lon="32.4341014">
<ele>16.16</ele>
<time>2015-04-25T17:56:19Z</time>
</trkpt>
<trkpt lat="35.0454320" lon="32.4341546">
<ele>16.04</ele>
<time>2015-04-25T17:56:20Z</time>
</trkpt>
<trkpt lat="35.0454577" lon="32.4342068">
<ele>16.48</ele>
<time>2015-04-25T17:56:21Z</time>
</trkpt>
<trkpt lat="35.0454813" lon="32.4342586">
<ele>16.70</ele>
<time>2015-04-25T17:56:22Z</time>
</trkpt>
<trkpt lat="35.0455022" lon="32.4343083">
<ele>16.81</ele>
<time>2015-04-25T17:56:23Z</time>
</trkpt>
<trkpt lat="35.0455265" lon="32.4343568">
<ele>16.87</ele>
<time>2015-04-25T17:56:24Z</time>
</trkpt>
<trkpt lat="35.0455732" lon="32.4344560">
<ele>16.41</ele>
<time>2015-04-25T17:56:26Z</time>
</trkpt>
<trkpt lat="35.0456101" lon="32.4345503">
<ele>15.80</ele>
<time>2015-04-25T17:56:28Z</time>
</trkpt>
<trkpt lat="35.0456402" lon="32.4346244">
<ele>16.14</ele>
<time>2015-04-25T17:56:30Z</time>
</trkpt>
<trkpt lat="35.0456794" lon="32.4347026">
<ele>15.23</ele>
<time>2015-04-25T17:56:32Z</time>
</trkpt>
<trkpt lat="35.0457228" lon="32.4347782">
<ele>15.25</ele>
<time>2015-04-25T17:56:34Z</time>
</trkpt>
<trkpt lat="35.0457651" lon="32.4348665">
<ele>15.01</ele>
<time>2015-04-25T17:56:36Z</time>
</trkpt>
<trkpt lat="35.0458012" lon="32.4349554">
<ele>15.45</ele>
<time>2015-04-25T17:56:38Z</time>
</trkpt>
<trkpt lat="35.0458434" lon="32.4350442">
<ele>15.81</ele>
<time>2015-04-25T17:56:40Z</time>
</trkpt>
<trkpt lat="35.0458835" lon="32.4351342">
<ele>15.90</ele>
<time>2015-04-25T17:56:42Z</time>
</trkpt>
<trkpt lat="35.0459235" lon="32.4352244">
<ele>15.17</ele>
<time>2015-04-25T17:56:44Z</time>
</trkpt>
<trkpt lat="35.0459633" lon="32.4353138">
<ele>15.74</ele>
<time>2015-04-25T17:56:46Z</time>
</trkpt>
<trkpt lat="35.0459860" lon="32.4353629">
<ele>15.83</ele>
<time>2015-04-25T17:56:47Z</time>
</trkpt>
<trkpt lat="35.0460325" lon="32.4354643">
<ele>15.90</ele>
<time>2015-04-25T17:56:49Z</time>
</trkpt>
<trkpt lat="35.0460769" lon="32.4355501">
<ele>15.42</ele>
<time>2015-04-25T17:56:51Z</time>
</trkpt>
<trkpt lat="35.0460997" lon="32.4356006">
<ele>15.17</ele>
<time>2015-04-25T17:56:52Z</time>
</trkpt>
<trkpt lat="35.0461345" lon="32.4356912">
<ele>15.74</ele>
<time>2015-04-25T17:56:54Z</time>
</trkpt>
<trkpt lat="35.0461486" lon="32.4357808">
<ele>15.13</ele>
<time>2015-04-25T17:56:56Z</time>
</trkpt>
<trkpt lat="35.0461636" lon="32.4358786">
<ele>14.98</ele>
<time>2015-04-25T17:56:58Z</time>
</trkpt>
<trkpt lat="35.0461898" lon="32.4359644">
<ele>15.69</ele>
<time>2015-04-25T17:57:00Z</time>
</trkpt>
<trkpt lat="35.0462170" lon="32.4360505">
<ele>15.62</ele>
<time>2015-04-25T17:57:02Z</time>
</trkpt>
<trkpt lat="35.0462364" lon="32.4361410">
<ele>15.85</ele>
<time>2015-04-25T17:57:04Z</time>
</trkpt>
<trkpt lat="35.0462540" lon="32.4362336">
<ele>15.91</ele>
<time>2015-04-25T17:57:06Z</time>
</trkpt>
<trkpt lat="35.0462753" lon="32.4363277">
<ele>15.92</ele>
<time>2015-04-25T17:57:08Z</time>
</trkpt>
<trkpt lat="35.0462969" lon="32.4364236">
<ele>16.42</ele>
<time>2015-04-25T17:57:10Z</time>
</trkpt>
<trkpt lat="35.0463186" lon="32.4365201">
<ele>16.30</ele>
<time>2015-04-25T17:57:12Z</time>
</trkpt>
<trkpt lat="35.0463444" lon="32.4366143">
<ele>16.02</ele>
<time>2015-04-25T17:57:14Z</time>
</trkpt>
<trkpt lat="35.0463652" lon="32.4367101">
<ele>16.45</ele>
<time>2015-04-25T17:57:16Z</time>
</trkpt>
<trkpt lat="35.0463871" lon="32.4368054">
<ele>16.81</ele>
<time>2015-04-25T17:57:18Z</time>
</trkpt>
<trkpt lat="35.0464139" lon="32.4369025">
<ele>16.90</ele>
<time>2015-04-25T17:57:20Z</time>
</trkpt>
<trkpt lat="35.0464403" lon="32.4369998">
<ele>17.67</ele>
<time>2015-04-25T17:57:22Z</time>
</trkpt>
<trkpt lat="35.0464683" lon="32.4370891">
<ele>17.11</ele>
<time>2015-04-25T17:57:24Z</time>
</trkpt>
<trkpt lat="35.0464991" lon="32.4371390">
<ele>16.97</ele>
<time>2015-04-25T17:57:26Z</time>
</trkpt>
<trkpt lat="35.0464936" lon="32.4370845">
<ele>16.93</ele>
<time>2015-04-25T17:57:31Z</time>
</trkpt>
<trkpt lat="35.0465232" lon="32.4371422">
<ele>13.24</ele>
<time>2015-04-25T18:00:06Z</time>
</trkpt>
<trkpt lat="35.0465351" lon="32.4372007">
<ele>12.96</ele>
<time>2015-04-25T18:00:09Z</time>
</trkpt>
<trkpt lat="35.0465518" lon="32.4372844">
<ele>14.18</ele>
<time>2015-04-25T18:00:12Z</time>
</trkpt>
<trkpt lat="35.0465655" lon="32.4373459">
<ele>14.49</ele>
<time>2015-04-25T18:00:14Z</time>
</trkpt>
<trkpt lat="35.0465787" lon="32.4374108">
<ele>14.82</ele>
<time>2015-04-25T18:00:16Z</time>
</trkpt>
<trkpt lat="35.0465964" lon="32.4374801">
<ele>16.15</ele>
<time>2015-04-25T18:00:18Z</time>
</trkpt>
<trkpt lat="35.0466190" lon="32.4375446">
<ele>16.73</ele>
<time>2015-04-25T18:00:20Z</time>
</trkpt>
<trkpt lat="35.0466417" lon="32.4376045">
<ele>17.13</ele>
<time>2015-04-25T18:00:22Z</time>
</trkpt>
<trkpt lat="35.0466652" lon="32.4376623">
<ele>17.73</ele>
<time>2015-04-25T18:00:24Z</time>
</trkpt>
<trkpt lat="35.0466847" lon="32.4377252">
<ele>17.13</ele>
<time>2015-04-25T18:00:26Z</time>
</trkpt>
<trkpt lat="35.0467042" lon="32.4377924">
<ele>16.98</ele>
<time>2015-04-25T18:00:28Z</time>
</trkpt>
<trkpt lat="35.0467293" lon="32.4378628">
<ele>16.94</ele>
<time>2015-04-25T18:00:30Z</time>
</trkpt>
<trkpt lat="35.0467578" lon="32.4379363">
<ele>16.93</ele>
<time>2015-04-25T18:00:32Z</time>
</trkpt>
<trkpt lat="35.0467934" lon="32.4380075">
<ele>16.93</ele>
<time>2015-04-25T18:00:34Z</time>
</trkpt>
<trkpt lat="35.0468323" lon="32.4380795">
<ele>16.93</ele>
<time>2015-04-25T18:00:36Z</time>
</trkpt>
<trkpt lat="35.0468659" lon="32.4381527">
<ele>16.18</ele>
<time>2015-04-25T18:00:38Z</time>
</trkpt>
<trkpt lat="35.0469035" lon="32.4382240">
<ele>15.24</ele>
<time>2015-04-25T18:00:40Z</time>
</trkpt>
<trkpt lat="35.0469459" lon="32.4382932">
<ele>14.50</ele>
<time>2015-04-25T18:00:42Z</time>
</trkpt>
<trkpt lat="35.0469854" lon="32.4383633">
<ele>14.07</ele>
<time>2015-04-25T18:00:44Z</time>
</trkpt>
<trkpt lat="35.0470312" lon="32.4384329">
<ele>13.96</ele>
<time>2015-04-25T18:00:46Z</time>
</trkpt>
<trkpt lat="35.0470765" lon="32.4385027">
<ele>14.68</ele>
<time>2015-04-25T18:00:48Z</time>
</trkpt>
<trkpt lat="35.0471183" lon="32.4385761">
<ele>14.11</ele>
<time>2015-04-25T18:00:50Z</time>
</trkpt>
<trkpt lat="35.0471738" lon="32.4386492">
<ele>14.47</ele>
<time>2015-04-25T18:00:52Z</time>
</trkpt>
<trkpt lat="35.0472064" lon="32.4386882">
<ele>14.70</ele>
<time>2015-04-25T18:00:53Z</time>
</trkpt>
<trkpt lat="35.0472409" lon="32.4387296">
<ele>14.81</ele>
<time>2015-04-25T18:00:54Z</time>
</trkpt>
<trkpt lat="35.0472964" lon="32.4387934">
<ele>14.87</ele>
<time>2015-04-25T18:00:55Z</time>
</trkpt>
<trkpt lat="35.0473289" lon="32.4388370">
<ele>14.40</ele>
<time>2015-04-25T18:00:56Z</time>
</trkpt>
<trkpt lat="35.0473604" lon="32.4388825">
<ele>14.16</ele>
<time>2015-04-25T18:00:57Z</time>
</trkpt>
<trkpt lat="35.0473880" lon="32.4389275">
<ele>13.54</ele>
<time>2015-04-25T18:00:58Z</time>
</trkpt>
<trkpt lat="35.0474546" lon="32.4390101">
<ele>13.08</ele>
<time>2015-04-25T18:01:00Z</time>
</trkpt>
<trkpt lat="35.0474932" lon="32.4390506">
<ele>13.00</ele>
<time>2015-04-25T18:01:01Z</time>
</trkpt>
<trkpt lat="35.0475292" lon="32.4390963">
<ele>12.96</ele>
<time>2015-04-25T18:01:02Z</time>
</trkpt>
<trkpt lat="35.0475596" lon="32.4391412">
<ele>12.94</ele>
<time>2015-04-25T18:01:03Z</time>
</trkpt>
<trkpt lat="35.0475942" lon="32.4391860">
<ele>12.93</ele>
<time>2015-04-25T18:01:04Z</time>
</trkpt>
<trkpt lat="35.0476251" lon="32.4392291">
<ele>12.93</ele>
<time>2015-04-25T18:01:05Z</time>
</trkpt>
<trkpt lat="35.0476835" lon="32.4392960">
<ele>13.68</ele>
<time>2015-04-25T18:01:07Z</time>
</trkpt>
<trkpt lat="35.0477153" lon="32.4393378">
<ele>13.80</ele>
<time>2015-04-25T18:01:08Z</time>
</trkpt>
<trkpt lat="35.0477497" lon="32.4393744">
<ele>13.86</ele>
<time>2015-04-25T18:01:09Z</time>
</trkpt>
<trkpt lat="35.0477832" lon="32.4394204">
<ele>13.89</ele>
<time>2015-04-25T18:01:10Z</time>
</trkpt>
<trkpt lat="35.0478185" lon="32.4394653">
<ele>13.91</ele>
<time>2015-04-25T18:01:11Z</time>
</trkpt>
<trkpt lat="35.0478502" lon="32.4395098">
<ele>13.92</ele>
<time>2015-04-25T18:01:12Z</time>
</trkpt>
<trkpt lat="35.0478815" lon="32.4395562">
<ele>13.92</ele>
<time>2015-04-25T18:01:13Z</time>
</trkpt>
<trkpt lat="35.0479267" lon="32.4396262">
<ele>13.17</ele>
<time>2015-04-25T18:01:15Z</time>
</trkpt>
<trkpt lat="35.0479569" lon="32.4396700">
<ele>13.05</ele>
<time>2015-04-25T18:01:16Z</time>
</trkpt>
<trkpt lat="35.0480241" lon="32.4397374">
<ele>13.46</ele>
<time>2015-04-25T18:01:18Z</time>
</trkpt>
<trkpt lat="35.0480576" lon="32.4397747">
<ele>13.69</ele>
<time>2015-04-25T18:01:19Z</time>
</trkpt>
<trkpt lat="35.0481189" lon="32.4398486">
<ele>13.37</ele>
<time>2015-04-25T18:01:21Z</time>
</trkpt>
<trkpt lat="35.0481586" lon="32.4398863">
<ele>13.65</ele>
<time>2015-04-25T18:01:22Z</time>
</trkpt>
<trkpt lat="35.0482251" lon="32.4399528">
<ele>13.86</ele>
<time>2015-04-25T18:01:24Z</time>
</trkpt>
<trkpt lat="35.0482669" lon="32.4399895">
<ele>13.89</ele>
<time>2015-04-25T18:01:25Z</time>
</trkpt>
<trkpt lat="35.0483052" lon="32.4400227">
<ele>13.91</ele>
<time>2015-04-25T18:01:26Z</time>
</trkpt>
<trkpt lat="35.0483643" lon="32.4400895">
<ele>14.67</ele>
<time>2015-04-25T18:01:28Z</time>
</trkpt>
<trkpt lat="35.0484117" lon="32.4401154">
<ele>14.80</ele>
<time>2015-04-25T18:01:29Z</time>
</trkpt>
<trkpt lat="35.0484521" lon="32.4401511">
<ele>15.36</ele>
<time>2015-04-25T18:01:30Z</time>
</trkpt>
<trkpt lat="35.0484948" lon="32.4401830">
<ele>15.64</ele>
<time>2015-04-25T18:01:31Z</time>
</trkpt>
<trkpt lat="35.0485421" lon="32.4402196">
<ele>15.78</ele>
<time>2015-04-25T18:01:32Z</time>
</trkpt>
<trkpt lat="35.0485851" lon="32.4402505">
<ele>15.85</ele>
<time>2015-04-25T18:01:33Z</time>
</trkpt>
<trkpt lat="35.0486266" lon="32.4402827">
<ele>15.39</ele>
<time>2015-04-25T18:01:34Z</time>
</trkpt>
<trkpt lat="35.0486735" lon="32.4403065">
<ele>15.16</ele>
<time>2015-04-25T18:01:35Z</time>
</trkpt>
<trkpt lat="35.0487136" lon="32.4403415">
<ele>15.04</ele>
<time>2015-04-25T18:01:36Z</time>
</trkpt>
<trkpt lat="35.0487563" lon="32.4403593">
<ele>14.98</ele>
<time>2015-04-25T18:01:37Z</time>
</trkpt>
<trkpt lat="35.0488012" lon="32.4403888">
<ele>14.95</ele>
<time>2015-04-25T18:01:38Z</time>
</trkpt>
<trkpt lat="35.0488458" lon="32.4404114">
<ele>15.44</ele>
<time>2015-04-25T18:01:39Z</time>
</trkpt>
<trkpt lat="35.0488985" lon="32.4404360">
<ele>15.68</ele>
<time>2015-04-25T18:01:40Z</time>
</trkpt>
<trkpt lat="35.0489802" lon="32.4404883">
<ele>15.36</ele>
<time>2015-04-25T18:01:42Z</time>
</trkpt>
<trkpt lat="35.0490182" lon="32.4405210">
<ele>15.14</ele>
<time>2015-04-25T18:01:43Z</time>
</trkpt>
<trkpt lat="35.0490681" lon="32.4405558">
<ele>15.03</ele>
<time>2015-04-25T18:01:44Z</time>
</trkpt>
<trkpt lat="35.0491076" lon="32.4405948">
<ele>14.98</ele>
<time>2015-04-25T18:01:45Z</time>
</trkpt>
<trkpt lat="35.0491471" lon="32.4406354">
<ele>14.95</ele>
<time>2015-04-25T18:01:46Z</time>
</trkpt>
<trkpt lat="35.0491830" lon="32.4406816">
<ele>14.94</ele>
<time>2015-04-25T18:01:47Z</time>
</trkpt>
<trkpt lat="35.0492262" lon="32.4407288">
<ele>14.93</ele>
<time>2015-04-25T18:01:48Z</time>
</trkpt>
<trkpt lat="35.0492589" lon="32.4407777">
<ele>14.43</ele>
<time>2015-04-25T18:01:49Z</time>
</trkpt>
<trkpt lat="35.0492891" lon="32.4408259">
<ele>14.18</ele>
<time>2015-04-25T18:01:50Z</time>
</trkpt>
<trkpt lat="35.0493321" lon="32.4408676">
<ele>14.55</ele>
<time>2015-04-25T18:01:51Z</time>
</trkpt>
<trkpt lat="35.0493649" lon="32.4409202">
<ele>14.74</ele>
<time>2015-04-25T18:01:52Z</time>
</trkpt>
<trkpt lat="35.0493975" lon="32.4409684">
<ele>14.33</ele>
<time>2015-04-25T18:01:53Z</time>
</trkpt>
<trkpt lat="35.0494381" lon="32.4410166">
<ele>14.13</ele>
<time>2015-04-25T18:01:54Z</time>
</trkpt>
<trkpt lat="35.0494655" lon="32.4410627">
<ele>14.53</ele>
<time>2015-04-25T18:01:55Z</time>
</trkpt>
<trkpt lat="35.0495003" lon="32.4411113">
<ele>14.73</ele>
<time>2015-04-25T18:01:56Z</time>
</trkpt>
<trkpt lat="35.0495408" lon="32.4411632">
<ele>14.83</ele>
<time>2015-04-25T18:01:57Z</time>
</trkpt>
<trkpt lat="35.0495763" lon="32.4412200">
<ele>15.38</ele>
<time>2015-04-25T18:01:58Z</time>
</trkpt>
<trkpt lat="35.0496056" lon="32.4412675">
<ele>15.15</ele>
<time>2015-04-25T18:01:59Z</time>
</trkpt>
<trkpt lat="35.0496368" lon="32.4413266">
<ele>15.04</ele>
<time>2015-04-25T18:02:00Z</time>
</trkpt>
<trkpt lat="35.0496636" lon="32.4413877">
<ele>14.98</ele>
<time>2015-04-25T18:02:01Z</time>
</trkpt>
<trkpt lat="35.0496898" lon="32.4414503">
<ele>14.95</ele>
<time>2015-04-25T18:02:02Z</time>
</trkpt>
<trkpt lat="35.0497073" lon="32.4415082">
<ele>14.94</ele>
<time>2015-04-25T18:02:03Z</time>
</trkpt>
<trkpt lat="35.0497302" lon="32.4415693">
<ele>14.93</ele>
<time>2015-04-25T18:02:04Z</time>
</trkpt>
<trkpt lat="35.0497436" lon="32.4416796">
<ele>14.43</ele>
<time>2015-04-25T18:02:06Z</time>
</trkpt>
<trkpt lat="35.0497486" lon="32.4417401">
<ele>14.18</ele>
<time>2015-04-25T18:02:07Z</time>
</trkpt>
<trkpt lat="35.0497545" lon="32.4418003">
<ele>13.55</ele>
<time>2015-04-25T18:02:08Z</time>
</trkpt>
<trkpt lat="35.0497651" lon="32.4418564">
<ele>13.74</ele>
<time>2015-04-25T18:02:09Z</time>
</trkpt>
<trkpt lat="35.0497778" lon="32.4419100">
<ele>13.83</ele>
<time>2015-04-25T18:02:10Z</time>
</trkpt>
<trkpt lat="35.0498107" lon="32.4420086">
<ele>13.90</ele>
<time>2015-04-25T18:02:12Z</time>
</trkpt>
<trkpt lat="35.0498357" lon="32.4421031">
<ele>13.17</ele>
<time>2015-04-25T18:02:14Z</time>
</trkpt>
<trkpt lat="35.0498593" lon="32.4422042">
<ele>12.99</ele>
<time>2015-04-25T18:02:16Z</time>
</trkpt>
<trkpt lat="35.0498915" lon="32.4422863">
<ele>12.94</ele>
<time>2015-04-25T18:02:18Z</time>
</trkpt>
<trkpt lat="35.0499255" lon="32.4423688">
<ele>12.93</ele>
<time>2015-04-25T18:02:20Z</time>
</trkpt>
<trkpt lat="35.0499632" lon="32.4424488">
<ele>13.18</ele>
<time>2015-04-25T18:02:22Z</time>
</trkpt>
<trkpt lat="35.0499948" lon="32.4425408">
<ele>14.74</ele>
<time>2015-04-25T18:02:24Z</time>
</trkpt>
<trkpt lat="35.0500185" lon="32.4426283">
<ele>15.63</ele>
<time>2015-04-25T18:02:26Z</time>
</trkpt>
<trkpt lat="35.0500169" lon="32.4427205">
<ele>15.10</ele>
<time>2015-04-25T18:02:28Z</time>
</trkpt>
<trkpt lat="35.0499748" lon="32.4428049">
<ele>16.22</ele>
<time>2015-04-25T18:02:30Z</time>
</trkpt>
<trkpt lat="35.0499005" lon="32.4428666">
<ele>16.75</ele>
<time>2015-04-25T18:02:32Z</time>
</trkpt>
<trkpt lat="35.0498597" lon="32.4428904">
<ele>16.84</ele>
<time>2015-04-25T18:02:33Z</time>
</trkpt>
<trkpt lat="35.0497790" lon="32.4429282">
<ele>17.40</ele>
<time>2015-04-25T18:02:35Z</time>
</trkpt>
<trkpt lat="35.0497351" lon="32.4429472">
<ele>18.66</ele>
<time>2015-04-25T18:02:36Z</time>
</trkpt>
<trkpt lat="35.0496751" lon="32.4429567">
<ele>19.29</ele>
<time>2015-04-25T18:02:37Z</time>
</trkpt>
<trkpt lat="35.0496034" lon="32.4430032">
<ele>19.77</ele>
<time>2015-04-25T18:02:39Z</time>
</trkpt>
<trkpt lat="35.0495343" lon="32.4430426">
<ele>19.89</ele>
<time>2015-04-25T18:02:41Z</time>
</trkpt>
<trkpt lat="35.0494684" lon="32.4430741">
<ele>19.92</ele>
<time>2015-04-25T18:02:43Z</time>
</trkpt>
<trkpt lat="35.0494262" lon="32.4430972">
<ele>19.92</ele>
<time>2015-04-25T18:02:44Z</time>
</trkpt>
<trkpt lat="35.0493804" lon="32.4431243">
<ele>19.92</ele>
<time>2015-04-25T18:02:45Z</time>
</trkpt>
<trkpt lat="35.0493167" lon="32.4431619">
<ele>20.67</ele>
<time>2015-04-25T18:02:47Z</time>
</trkpt>
<trkpt lat="35.0492746" lon="32.4431856">
<ele>20.80</ele>
<time>2015-04-25T18:02:48Z</time>
</trkpt>
<trkpt lat="35.0492113" lon="32.4432423">
<ele>21.41</ele>
<time>2015-04-25T18:02:51Z</time>
</trkpt>
<trkpt lat="35.0491384" lon="32.4432755">
<ele>22.05</ele>
<time>2015-04-25T18:02:53Z</time>
</trkpt>
<trkpt lat="35.0490679" lon="32.4433267">
<ele>23.71</ele>
<time>2015-04-25T18:02:55Z</time>
</trkpt>
<trkpt lat="35.0489924" lon="32.4433659">
<ele>24.37</ele>
<time>2015-04-25T18:02:57Z</time>
</trkpt>
<trkpt lat="35.0489171" lon="32.4433984">
<ele>24.04</ele>
<time>2015-04-25T18:02:59Z</time>
</trkpt>
<trkpt lat="35.0488421" lon="32.4434376">
<ele>22.70</ele>
<time>2015-04-25T18:03:01Z</time>
</trkpt>
<trkpt lat="35.0487722" lon="32.4434724">
<ele>21.62</ele>
<time>2015-04-25T18:03:03Z</time>
</trkpt>
<trkpt lat="35.0487102" lon="32.4435012">
<ele>19.85</ele>
<time>2015-04-25T18:03:05Z</time>
</trkpt>
<trkpt lat="35.0486581" lon="32.4435298">
<ele>19.41</ele>
<time>2015-04-25T18:03:07Z</time>
</trkpt>
<trkpt lat="35.0486238" lon="32.4435842">
<ele>19.30</ele>
<time>2015-04-25T18:03:09Z</time>
</trkpt>
<trkpt lat="35.0485990" lon="32.4436439">
<ele>19.85</ele>
<time>2015-04-25T18:03:12Z</time>
</trkpt>
<trkpt lat="35.0486142" lon="32.4437178">
<ele>19.42</ele>
<time>2015-04-25T18:03:15Z</time>
</trkpt>
<trkpt lat="35.0486522" lon="32.4437672">
<ele>19.05</ele>
<time>2015-04-25T18:03:17Z</time>
</trkpt>
<trkpt lat="35.0486855" lon="32.4438051">
<ele>18.96</ele>
<time>2015-04-25T18:03:19Z</time>
</trkpt>
<trkpt lat="35.0487173" lon="32.4438504">
<ele>18.93</ele>
<time>2015-04-25T18:03:21Z</time>
</trkpt>
<trkpt lat="35.0487510" lon="32.4438964">
<ele>18.43</ele>
<time>2015-04-25T18:03:23Z</time>
</trkpt>
<trkpt lat="35.0487856" lon="32.4439478">
<ele>19.55</ele>
<time>2015-04-25T18:03:25Z</time>
</trkpt>
<trkpt lat="35.0488163" lon="32.4439985">
<ele>20.58</ele>
<time>2015-04-25T18:03:27Z</time>
</trkpt>
<trkpt lat="35.0488488" lon="32.4440501">
<ele>20.84</ele>
<time>2015-04-25T18:03:29Z</time>
</trkpt>
<trkpt lat="35.0488875" lon="32.4440995">
<ele>20.90</ele>
<time>2015-04-25T18:03:31Z</time>
</trkpt>
<trkpt lat="35.0489313" lon="32.4441580">
<ele>21.67</ele>
<time>2015-04-25T18:03:33Z</time>
</trkpt>
<trkpt lat="35.0489703" lon="32.4442216">
<ele>21.11</ele>
<time>2015-04-25T18:03:35Z</time>
</trkpt>
<trkpt lat="35.0490048" lon="32.4442832">
<ele>20.97</ele>
<time>2015-04-25T18:03:37Z</time>
</trkpt>
<trkpt lat="35.0490375" lon="32.4443382">
<ele>21.69</ele>
<time>2015-04-25T18:03:39Z</time>
</trkpt>
<trkpt lat="35.0490656" lon="32.4443938">
<ele>20.62</ele>
<time>2015-04-25T18:03:41Z</time>
</trkpt>
<trkpt lat="35.0491011" lon="32.4444530">
<ele>20.10</ele>
<time>2015-04-25T18:03:43Z</time>
</trkpt>
<trkpt lat="35.0491748" lon="32.4445578">
<ele>19.97</ele>
<time>2015-04-25T18:03:45Z</time>
</trkpt>
<trkpt lat="35.0492034" lon="32.4446013">
<ele>19.45</ele>
<time>2015-04-25T18:03:46Z</time>
</trkpt>
<trkpt lat="35.0492513" lon="32.4446815">
<ele>19.06</ele>
<time>2015-04-25T18:03:48Z</time>
</trkpt>
<trkpt lat="35.0492976" lon="32.4447618">
<ele>20.21</ele>
<time>2015-04-25T18:03:50Z</time>
</trkpt>
<trkpt lat="35.0493448" lon="32.4448404">
<ele>21.25</ele>
<time>2015-04-25T18:03:52Z</time>
</trkpt>
<trkpt lat="35.0493950" lon="32.4449162">
<ele>21.01</ele>
<time>2015-04-25T18:03:54Z</time>
</trkpt>
<trkpt lat="35.0494479" lon="32.4450012">
<ele>20.95</ele>
<time>2015-04-25T18:03:56Z</time>
</trkpt>
<trkpt lat="35.0495027" lon="32.4450836">
<ele>20.93</ele>
<time>2015-04-25T18:03:58Z</time>
</trkpt>
<trkpt lat="35.0495419" lon="32.4451232">
<ele>21.43</ele>
<time>2015-04-25T18:03:59Z</time>
</trkpt>
<trkpt lat="35.0495738" lon="32.4451699">
<ele>21.68</ele>
<time>2015-04-25T18:04:00Z</time>
</trkpt>
<trkpt lat="35.0496307" lon="32.4452633">
<ele>21.61</ele>
<time>2015-04-25T18:04:02Z</time>
</trkpt>
<trkpt lat="35.0496562" lon="32.4453167">
<ele>21.27</ele>
<time>2015-04-25T18:04:03Z</time>
</trkpt>
<trkpt lat="35.0496850" lon="32.4453632">
<ele>21.10</ele>
<time>2015-04-25T18:04:04Z</time>
</trkpt>
<trkpt lat="35.0497167" lon="32.4454116">
<ele>21.01</ele>
<time>2015-04-25T18:04:05Z</time>
</trkpt>
<trkpt lat="35.0497729" lon="32.4455051">
<ele>20.45</ele>
<time>2015-04-25T18:04:07Z</time>
</trkpt>
<trkpt lat="35.0498006" lon="32.4455537">
<ele>20.19</ele>
<time>2015-04-25T18:04:08Z</time>
</trkpt>
<trkpt lat="35.0498442" lon="32.4456436">
<ele>19.99</ele>
<time>2015-04-25T18:04:10Z</time>
</trkpt>
<trkpt lat="35.0499090" lon="32.4457133">
<ele>19.19</ele>
<time>2015-04-25T18:04:12Z</time>
</trkpt>
<trkpt lat="35.0499555" lon="32.4457988">
<ele>18.24</ele>
<time>2015-04-25T18:04:14Z</time>
</trkpt>
<trkpt lat="35.0499912" lon="32.4458472">
<ele>17.58</ele>
<time>2015-04-25T18:04:15Z</time>
</trkpt>
<trkpt lat="35.0500200" lon="32.4458968">
<ele>17.25</ele>
<time>2015-04-25T18:04:16Z</time>
</trkpt>
<trkpt lat="35.0500496" lon="32.4459434">
<ele>17.09</ele>
<time>2015-04-25T18:04:17Z</time>
</trkpt>
<trkpt lat="35.0500814" lon="32.4459890">
<ele>17.51</ele>
<time>2015-04-25T18:04:18Z</time>
</trkpt>
<trkpt lat="35.0501148" lon="32.4460329">
<ele>17.22</ele>
<time>2015-04-25T18:04:19Z</time>
</trkpt>
<trkpt lat="35.0501548" lon="32.4460882">
<ele>17.57</ele>
<time>2015-04-25T18:04:20Z</time>
</trkpt>
<trkpt lat="35.0501808" lon="32.4461412">
<ele>17.75</ele>
<time>2015-04-25T18:04:21Z</time>
</trkpt>
<trkpt lat="35.0502068" lon="32.4461922">
<ele>17.34</ele>
<time>2015-04-25T18:04:22Z</time>
</trkpt>
<trkpt lat="35.0502404" lon="32.4462503">
<ele>17.63</ele>
<time>2015-04-25T18:04:23Z</time>
</trkpt>
<trkpt lat="35.0502805" lon="32.4463023">
<ele>17.28</ele>
<time>2015-04-25T18:04:24Z</time>
</trkpt>
<trkpt lat="35.0503171" lon="32.4463601">
<ele>17.10</ele>
<time>2015-04-25T18:04:25Z</time>
</trkpt>
<trkpt lat="35.0503479" lon="32.4464196">
<ele>17.01</ele>
<time>2015-04-25T18:04:26Z</time>
</trkpt>
<trkpt lat="35.0503792" lon="32.4464733">
<ele>16.97</ele>
<time>2015-04-25T18:04:27Z</time>
</trkpt>
<trkpt lat="35.0504058" lon="32.4465213">
<ele>16.45</ele>
<time>2015-04-25T18:04:28Z</time>
</trkpt>
<trkpt lat="35.0504386" lon="32.4465698">
<ele>16.19</ele>
<time>2015-04-25T18:04:29Z</time>
</trkpt>
<trkpt lat="35.0504725" lon="32.4466234">
<ele>16.56</ele>
<time>2015-04-25T18:04:30Z</time>
</trkpt>
<trkpt lat="35.0505020" lon="32.4466766">
<ele>16.74</ele>
<time>2015-04-25T18:04:31Z</time>
</trkpt>
<trkpt lat="35.0505282" lon="32.4467269">
<ele>16.33</ele>
<time>2015-04-25T18:04:32Z</time>
</trkpt>
<trkpt lat="35.0505573" lon="32.4467756">
<ele>16.13</ele>
<time>2015-04-25T18:04:33Z</time>
</trkpt>
<trkpt lat="35.0505832" lon="32.4468286">
<ele>15.53</ele>
<time>2015-04-25T18:04:34Z</time>
</trkpt>
<trkpt lat="35.0506464" lon="32.4469202">
<ele>14.33</ele>
<time>2015-04-25T18:04:36Z</time>
</trkpt>
<trkpt lat="35.0506782" lon="32.4469780">
<ele>14.63</ele>
<time>2015-04-25T18:04:37Z</time>
</trkpt>
<trkpt lat="35.0507154" lon="32.4470369">
<ele>14.78</ele>
<time>2015-04-25T18:04:38Z</time>
</trkpt>
<trkpt lat="35.0507394" lon="32.4470944">
<ele>14.85</ele>
<time>2015-04-25T18:04:39Z</time>
</trkpt>
<trkpt lat="35.0507759" lon="32.4471542">
<ele>14.89</ele>
<time>2015-04-25T18:04:40Z</time>
</trkpt>
<trkpt lat="35.0507986" lon="32.4472122">
<ele>14.91</ele>
<time>2015-04-25T18:04:41Z</time>
</trkpt>
<trkpt lat="35.0508293" lon="32.4472637">
<ele>14.92</ele>
<time>2015-04-25T18:04:42Z</time>
</trkpt>
<trkpt lat="35.0508493" lon="32.4473136">
<ele>14.42</ele>
<time>2015-04-25T18:04:43Z</time>
</trkpt>
<trkpt lat="35.0508870" lon="32.4473780">
<ele>14.67</ele>
<time>2015-04-25T18:04:44Z</time>
</trkpt>
<trkpt lat="35.0509213" lon="32.4474284">
<ele>14.30</ele>
<time>2015-04-25T18:04:45Z</time>
</trkpt>
<trkpt lat="35.0509658" lon="32.4475170">
<ele>14.02</ele>
<time>2015-04-25T18:04:47Z</time>
</trkpt>
<trkpt lat="35.0509926" lon="32.4475704">
<ele>13.97</ele>
<time>2015-04-25T18:04:48Z</time>
</trkpt>
<trkpt lat="35.0510402" lon="32.4476721">
<ele>14.69</ele>
<time>2015-04-25T18:04:50Z</time>
</trkpt>
<trkpt lat="35.0510852" lon="32.4477754">
<ele>14.37</ele>
<time>2015-04-25T18:04:52Z</time>
</trkpt>
<trkpt lat="35.0511185" lon="32.4478352">
<ele>14.65</ele>
<time>2015-04-25T18:04:53Z</time>
</trkpt>
<trkpt lat="35.0511458" lon="32.4478911">
<ele>14.79</ele>
<time>2015-04-25T18:04:54Z</time>
</trkpt>
<trkpt lat="35.0511732" lon="32.4479440">
<ele>14.86</ele>
<time>2015-04-25T18:04:55Z</time>
</trkpt>
<trkpt lat="35.0512057" lon="32.4479996">
<ele>15.39</ele>
<time>2015-04-25T18:04:56Z</time>
</trkpt>
<trkpt lat="35.0512212" lon="32.4480536">
<ele>15.16</ele>
<time>2015-04-25T18:04:57Z</time>
</trkpt>
<trkpt lat="35.0512438" lon="32.4481101">
<ele>15.04</ele>
<time>2015-04-25T18:04:58Z</time>
</trkpt>
<trkpt lat="35.0512680" lon="32.4481608">
<ele>14.98</ele>
<time>2015-04-25T18:04:59Z</time>
</trkpt>
<trkpt lat="35.0512893" lon="32.4482116">
<ele>14.45</ele>
<time>2015-04-25T18:05:00Z</time>
</trkpt>
<trkpt lat="35.0513240" lon="32.4482705">
<ele>14.19</ele>
<time>2015-04-25T18:05:01Z</time>
</trkpt>
<trkpt lat="35.0513537" lon="32.4483247">
<ele>14.56</ele>
<time>2015-04-25T18:05:02Z</time>
</trkpt>
<trkpt lat="35.0513881" lon="32.4483808">
<ele>15.24</ele>
<time>2015-04-25T18:05:03Z</time>
</trkpt>
<trkpt lat="35.0514197" lon="32.4484287">
<ele>15.58</ele>
<time>2015-04-25T18:05:04Z</time>
</trkpt>
<trkpt lat="35.0514493" lon="32.4484835">
<ele>15.75</ele>
<time>2015-04-25T18:05:05Z</time>
</trkpt>
<trkpt lat="35.0514779" lon="32.4485352">
<ele>15.84</ele>
<time>2015-04-25T18:05:06Z</time>
</trkpt>
<trkpt lat="35.0515208" lon="32.4486456">
<ele>15.15</ele>
<time>2015-04-25T18:05:08Z</time>
</trkpt>
<trkpt lat="35.0515477" lon="32.4487008">
<ele>15.04</ele>
<time>2015-04-25T18:05:09Z</time>
</trkpt>
<trkpt lat="35.0515864" lon="32.4488046">
<ele>15.70</ele>
<time>2015-04-25T18:05:11Z</time>
</trkpt>
<trkpt lat="35.0516112" lon="32.4488638">
<ele>15.81</ele>
<time>2015-04-25T18:05:12Z</time>
</trkpt>
<trkpt lat="35.0516405" lon="32.4489235">
<ele>15.37</ele>
<time>2015-04-25T18:05:13Z</time>
</trkpt>
<trkpt lat="35.0516740" lon="32.4489872">
<ele>15.65</ele>
<time>2015-04-25T18:05:14Z</time>
</trkpt>
<trkpt lat="35.0517023" lon="32.4490360">
<ele>15.79</ele>
<time>2015-04-25T18:05:15Z</time>
</trkpt>
<trkpt lat="35.0517324" lon="32.4490917">
<ele>15.36</ele>
<time>2015-04-25T18:05:16Z</time>
</trkpt>
<trkpt lat="35.0517634" lon="32.4491550">
<ele>15.14</ele>
<time>2015-04-25T18:05:17Z</time>
</trkpt>
<trkpt lat="35.0517901" lon="32.4492064">
<ele>15.03</ele>
<time>2015-04-25T18:05:18Z</time>
</trkpt>
<trkpt lat="35.0518263" lon="32.4492641">
<ele>14.98</ele>
<time>2015-04-25T18:05:19Z</time>
</trkpt>
<trkpt lat="35.0518588" lon="32.4493159">
<ele>15.45</ele>
<time>2015-04-25T18:05:20Z</time>
</trkpt>
<trkpt lat="35.0518831" lon="32.4493734">
<ele>15.69</ele>
<time>2015-04-25T18:05:21Z</time>
</trkpt>
<trkpt lat="35.0519138" lon="32.4494276">
<ele>15.81</ele>
<time>2015-04-25T18:05:22Z</time>
</trkpt>
<trkpt lat="35.0519504" lon="32.4494842">
<ele>15.87</ele>
<time>2015-04-25T18:05:23Z</time>
</trkpt>
<trkpt lat="35.0519849" lon="32.4495432">
<ele>15.90</ele>
<time>2015-04-25T18:05:24Z</time>
</trkpt>
<trkpt lat="35.0520172" lon="32.4496002">
<ele>15.91</ele>
<time>2015-04-25T18:05:25Z</time>
</trkpt>
<trkpt lat="35.0520447" lon="32.4496448">
<ele>15.92</ele>
<time>2015-04-25T18:05:26Z</time>
</trkpt>
<trkpt lat="35.0521039" lon="32.4497364">
<ele>15.67</ele>
<time>2015-04-25T18:05:28Z</time>
</trkpt>
<trkpt lat="35.0521169" lon="32.4497921">
<ele>15.80</ele>
<time>2015-04-25T18:05:29Z</time>
</trkpt>
<trkpt lat="35.0521392" lon="32.4498566">
<ele>15.86</ele>
<time>2015-04-25T18:05:30Z</time>
</trkpt>
<trkpt lat="35.0521825" lon="32.4499634">
<ele>15.91</ele>
<time>2015-04-25T18:05:32Z</time>
</trkpt>
<trkpt lat="35.0522088" lon="32.4500188">
<ele>15.42</ele>
<time>2015-04-25T18:05:33Z</time>
</trkpt>
<trkpt lat="35.0522339" lon="32.4500732">
<ele>15.67</ele>
<time>2015-04-25T18:05:34Z</time>
</trkpt>
<trkpt lat="35.0522524" lon="32.4501292">
<ele>15.80</ele>
<time>2015-04-25T18:05:35Z</time>
</trkpt>
<trkpt lat="35.0522732" lon="32.4501883">
<ele>15.36</ele>
<time>2015-04-25T18:05:36Z</time>
</trkpt>
<trkpt lat="35.0522923" lon="32.4502477">
<ele>14.64</ele>
<time>2015-04-25T18:05:37Z</time>
</trkpt>
<trkpt lat="35.0523182" lon="32.4503037">
<ele>14.28</ele>
<time>2015-04-25T18:05:38Z</time>
</trkpt>
<trkpt lat="35.0523471" lon="32.4503562">
<ele>14.60</ele>
<time>2015-04-25T18:05:39Z</time>
</trkpt>
<trkpt lat="35.0523761" lon="32.4504177">
<ele>14.76</ele>
<time>2015-04-25T18:05:40Z</time>
</trkpt>
<trkpt lat="35.0524072" lon="32.4504698">
<ele>14.84</ele>
<time>2015-04-25T18:05:41Z</time>
</trkpt>
<trkpt lat="35.0524368" lon="32.4505296">
<ele>15.38</ele>
<time>2015-04-25T18:05:42Z</time>
</trkpt>
<trkpt lat="35.0524694" lon="32.4505891">
<ele>15.15</ele>
<time>2015-04-25T18:05:43Z</time>
</trkpt>
<trkpt lat="35.0524993" lon="32.4506470">
<ele>15.04</ele>
<time>2015-04-25T18:05:44Z</time>
</trkpt>
<trkpt lat="35.0525206" lon="32.4507014">
<ele>14.98</ele>
<time>2015-04-25T18:05:45Z</time>
</trkpt>
<trkpt lat="35.0525498" lon="32.4507606">
<ele>14.95</ele>
<time>2015-04-25T18:05:46Z</time>
</trkpt>
<trkpt lat="35.0525748" lon="32.4508128">
<ele>14.94</ele>
<time>2015-04-25T18:05:47Z</time>
</trkpt>
<trkpt lat="35.0526003" lon="32.4508788">
<ele>14.93</ele>
<time>2015-04-25T18:05:48Z</time>
</trkpt>
<trkpt lat="35.0526276" lon="32.4509318">
<ele>15.43</ele>
<time>2015-04-25T18:05:49Z</time>
</trkpt>
<trkpt lat="35.0526562" lon="32.4509873">
<ele>16.18</ele>
<time>2015-04-25T18:05:50Z</time>
</trkpt>
<trkpt lat="35.0526934" lon="32.4510492">
<ele>16.55</ele>
<time>2015-04-25T18:05:51Z</time>
</trkpt>
<trkpt lat="35.0527285" lon="32.4511114">
<ele>16.24</ele>
<time>2015-04-25T18:05:52Z</time>
</trkpt>
<trkpt lat="35.0527529" lon="32.4511754">
<ele>16.58</ele>
<time>2015-04-25T18:05:53Z</time>
</trkpt>
<trkpt lat="35.0527776" lon="32.4512353">
<ele>16.75</ele>
<time>2015-04-25T18:05:54Z</time>
</trkpt>
<trkpt lat="35.0528094" lon="32.4512969">
<ele>16.84</ele>
<time>2015-04-25T18:05:55Z</time>
</trkpt>
<trkpt lat="35.0528444" lon="32.4513684">
<ele>17.38</ele>
<time>2015-04-25T18:05:56Z</time>
</trkpt>
<trkpt lat="35.0528784" lon="32.4514408">
<ele>17.65</ele>
<time>2015-04-25T18:05:57Z</time>
</trkpt>
<trkpt lat="35.0529162" lon="32.4515101">
<ele>17.29</ele>
<time>2015-04-25T18:05:58Z</time>
</trkpt>
<trkpt lat="35.0529522" lon="32.4515700">
<ele>17.11</ele>
<time>2015-04-25T18:05:59Z</time>
</trkpt>
<trkpt lat="35.0529820" lon="32.4516349">
<ele>17.52</ele>
<time>2015-04-25T18:06:00Z</time>
</trkpt>
<trkpt lat="35.0530173" lon="32.4516922">
<ele>17.22</ele>
<time>2015-04-25T18:06:01Z</time>
</trkpt>
<trkpt lat="35.0530465" lon="32.4517412">
<ele>17.07</ele>
<time>2015-04-25T18:06:02Z</time>
</trkpt>
<trkpt lat="35.0530745" lon="32.4517912">
<ele>17.00</ele>
<time>2015-04-25T18:06:03Z</time>
</trkpt>
<trkpt lat="35.0530993" lon="32.4518405">
<ele>16.96</ele>
<time>2015-04-25T18:06:04Z</time>
</trkpt>
<trkpt lat="35.0531292" lon="32.4519024">
<ele>16.94</ele>
<time>2015-04-25T18:06:05Z</time>
</trkpt>
<trkpt lat="35.0531613" lon="32.4519499">
<ele>16.93</ele>
<time>2015-04-25T18:06:06Z</time>
</trkpt>
<trkpt lat="35.0531950" lon="32.4520145">
<ele>16.93</ele>
<time>2015-04-25T18:06:07Z</time>
</trkpt>
<trkpt lat="35.0532227" lon="32.4520875">
<ele>16.43</ele>
<time>2015-04-25T18:06:08Z</time>
</trkpt>
<trkpt lat="35.0532478" lon="32.4521536">
<ele>16.18</ele>
<time>2015-04-25T18:06:09Z</time>
</trkpt>
<trkpt lat="35.0532825" lon="32.4522150">
<ele>16.05</ele>
<time>2015-04-25T18:06:10Z</time>
</trkpt>
<trkpt lat="35.0533081" lon="32.4522728">
<ele>15.99</ele>
<time>2015-04-25T18:06:11Z</time>
</trkpt>
<trkpt lat="35.0533432" lon="32.4523378">
<ele>15.46</ele>
<time>2015-04-25T18:06:12Z</time>
</trkpt>
<trkpt lat="35.0533746" lon="32.4524024">
<ele>15.19</ele>
<time>2015-04-25T18:06:13Z</time>
</trkpt>
<trkpt lat="35.0533975" lon="32.4524651">
<ele>15.06</ele>
<time>2015-04-25T18:06:14Z</time>
</trkpt>
<trkpt lat="35.0534226" lon="32.4525255">
<ele>14.49</ele>
<time>2015-04-25T18:06:15Z</time>
</trkpt>
<trkpt lat="35.0534534" lon="32.4525934">
<ele>14.71</ele>
<time>2015-04-25T18:06:16Z</time>
</trkpt>
<trkpt lat="35.0534857" lon="32.4526516">
<ele>14.82</ele>
<time>2015-04-25T18:06:17Z</time>
</trkpt>
<trkpt lat="35.0535192" lon="32.4527044">
<ele>15.37</ele>
<time>2015-04-25T18:06:18Z</time>
</trkpt>
<trkpt lat="35.0535441" lon="32.4527656">
<ele>15.65</ele>
<time>2015-04-25T18:06:19Z</time>
</trkpt>
<trkpt lat="35.0535788" lon="32.4528326">
<ele>15.79</ele>
<time>2015-04-25T18:06:20Z</time>
</trkpt>
<trkpt lat="35.0536117" lon="32.4528935">
<ele>15.86</ele>
<time>2015-04-25T18:06:21Z</time>
</trkpt>
<trkpt lat="35.0536486" lon="32.4529453">
<ele>16.39</ele>
<time>2015-04-25T18:06:22Z</time>
</trkpt>
<trkpt lat="35.0536738" lon="32.4530089">
<ele>16.16</ele>
<time>2015-04-25T18:06:23Z</time>
</trkpt>
<trkpt lat="35.0537027" lon="32.4530700">
<ele>16.54</ele>
<time>2015-04-25T18:06:24Z</time>
</trkpt>
<trkpt lat="35.0537403" lon="32.4531362">
<ele>16.23</ele>
<time>2015-04-25T18:06:25Z</time>
</trkpt>
<trkpt lat="35.0537700" lon="32.4531862">
<ele>16.08</ele>
<time>2015-04-25T18:06:26Z</time>
</trkpt>
<trkpt lat="35.0537902" lon="32.4532459">
<ele>15.50</ele>
<time>2015-04-25T18:06:27Z</time>
</trkpt>
<trkpt lat="35.0538235" lon="32.4533089">
<ele>15.21</ele>
<time>2015-04-25T18:06:28Z</time>
</trkpt>
<trkpt lat="35.0538540" lon="32.4533676">
<ele>15.07</ele>
<time>2015-04-25T18:06:29Z</time>
</trkpt>
<trkpt lat="35.0538822" lon="32.4534160">
<ele>15.00</ele>
<time>2015-04-25T18:06:30Z</time>
</trkpt>
<trkpt lat="35.0539232" lon="32.4534631">
<ele>15.46</ele>
<time>2015-04-25T18:06:31Z</time>
</trkpt>
<trkpt lat="35.0539543" lon="32.4535217">
<ele>16.19</ele>
<time>2015-04-25T18:06:32Z</time>
</trkpt>
<trkpt lat="35.0539835" lon="32.4535769">
<ele>16.56</ele>
<time>2015-04-25T18:06:33Z</time>
</trkpt>
<trkpt lat="35.0540115" lon="32.4536253">
<ele>16.24</ele>
<time>2015-04-25T18:06:34Z</time>
</trkpt>
<trkpt lat="35.0540312" lon="32.4536761">
<ele>15.58</ele>
<time>2015-04-25T18:06:35Z</time>
</trkpt>
<trkpt lat="35.0540559" lon="32.4537338">
<ele>15.25</ele>
<time>2015-04-25T18:06:36Z</time>
</trkpt>
<trkpt lat="35.0540850" lon="32.4537954">
<ele>15.59</ele>
<time>2015-04-25T18:06:37Z</time>
</trkpt>
<trkpt lat="35.0541171" lon="32.4538451">
<ele>15.26</ele>
<time>2015-04-25T18:06:38Z</time>
</trkpt>
<trkpt lat="35.0541469" lon="32.4538956">
<ele>14.59</ele>
<time>2015-04-25T18:06:39Z</time>
</trkpt>
<trkpt lat="35.0541802" lon="32.4539648">
<ele>14.26</ele>
<time>2015-04-25T18:06:40Z</time>
</trkpt>
<trkpt lat="35.0542232" lon="32.4540282">
<ele>14.09</ele>
<time>2015-04-25T18:06:41Z</time>
</trkpt>
<trkpt lat="35.0542628" lon="32.4540836">
<ele>14.51</ele>
<time>2015-04-25T18:06:42Z</time>
</trkpt>
<trkpt lat="35.0543053" lon="32.4541420">
<ele>14.72</ele>
<time>2015-04-25T18:06:43Z</time>
</trkpt>
<trkpt lat="35.0543498" lon="32.4542017">
<ele>14.82</ele>
<time>2015-04-25T18:06:44Z</time>
</trkpt>
<trkpt lat="35.0544050" lon="32.4542533">
<ele>15.37</ele>
<time>2015-04-25T18:06:45Z</time>
</trkpt>
<trkpt lat="35.0544528" lon="32.4542928">
<ele>16.15</ele>
<time>2015-04-25T18:06:46Z</time>
</trkpt>
<trkpt lat="35.0545107" lon="32.4543370">
<ele>16.54</ele>
<time>2015-04-25T18:06:47Z</time>
</trkpt>
<trkpt lat="35.0545719" lon="32.4543783">
<ele>17.23</ele>
<time>2015-04-25T18:06:48Z</time>
</trkpt>
<trkpt lat="35.0546208" lon="32.4544255">
<ele>17.08</ele>
<time>2015-04-25T18:06:49Z</time>
</trkpt>
<trkpt lat="35.0546742" lon="32.4544649">
<ele>17.50</ele>
<time>2015-04-25T18:06:50Z</time>
</trkpt>
<trkpt lat="35.0547285" lon="32.4544964">
<ele>17.71</ele>
<time>2015-04-25T18:06:51Z</time>
</trkpt>
<trkpt lat="35.0547944" lon="32.4545379">
<ele>17.32</ele>
<time>2015-04-25T18:06:52Z</time>
</trkpt>
<trkpt lat="35.0548503" lon="32.4545660">
<ele>17.12</ele>
<time>2015-04-25T18:06:53Z</time>
</trkpt>
<trkpt lat="35.0549161" lon="32.4545829">
<ele>17.52</ele>
<time>2015-04-25T18:06:54Z</time>
</trkpt>
<trkpt lat="35.0549786" lon="32.4546017">
<ele>17.22</ele>
<time>2015-04-25T18:06:55Z</time>
</trkpt>
<trkpt lat="35.0550510" lon="32.4546195">
<ele>17.57</ele>
<time>2015-04-25T18:06:56Z</time>
</trkpt>
<trkpt lat="35.0551203" lon="32.4546205">
<ele>17.75</ele>
<time>2015-04-25T18:06:57Z</time>
</trkpt>
<trkpt lat="35.0551929" lon="32.4546362">
<ele>17.84</ele>
<time>2015-04-25T18:06:58Z</time>
</trkpt>
<trkpt lat="35.0552611" lon="32.4546532">
<ele>17.88</ele>
<time>2015-04-25T18:06:59Z</time>
</trkpt>
<trkpt lat="35.0553482" lon="32.4546492">
<ele>18.40</ele>
<time>2015-04-25T18:07:00Z</time>
</trkpt>
<trkpt lat="35.0554176" lon="32.4546590">
<ele>18.16</ele>
<time>2015-04-25T18:07:01Z</time>
</trkpt>
<trkpt lat="35.0554842" lon="32.4546701">
<ele>18.54</ele>
<time>2015-04-25T18:07:02Z</time>
</trkpt>
<trkpt lat="35.0555586" lon="32.4546920">
<ele>18.73</ele>
<time>2015-04-25T18:07:03Z</time>
</trkpt>
<trkpt lat="35.0556326" lon="32.4547026">
<ele>18.83</ele>
<time>2015-04-25T18:07:04Z</time>
</trkpt>
<trkpt lat="35.0557082" lon="32.4547141">
<ele>19.88</ele>
<time>2015-04-25T18:07:05Z</time>
</trkpt>
<trkpt lat="35.0557803" lon="32.4547212">
<ele>19.90</ele>
<time>2015-04-25T18:07:06Z</time>
</trkpt>
<trkpt lat="35.0558504" lon="32.4547244">
<ele>20.41</ele>
<time>2015-04-25T18:07:07Z</time>
</trkpt>
<trkpt lat="35.0559270" lon="32.4547342">
<ele>20.67</ele>
<time>2015-04-25T18:07:08Z</time>
</trkpt>
<trkpt lat="35.0559904" lon="32.4547405">
<ele>20.80</ele>
<time>2015-04-25T18:07:09Z</time>
</trkpt>
<trkpt lat="35.0560692" lon="32.4547576">
<ele>20.36</ele>
<time>2015-04-25T18:07:10Z</time>
</trkpt>
<trkpt lat="35.0561324" lon="32.4547648">
<ele>21.14</ele>
<time>2015-04-25T18:07:11Z</time>
</trkpt>
<trkpt lat="35.0561993" lon="32.4547701">
<ele>21.53</ele>
<time>2015-04-25T18:07:12Z</time>
</trkpt>
<trkpt lat="35.0562735" lon="32.4547868">
<ele>21.23</ele>
<time>2015-04-25T18:07:13Z</time>
</trkpt>
<trkpt lat="35.0563442" lon="32.4547973">
<ele>21.58</ele>
<time>2015-04-25T18:07:14Z</time>
</trkpt>
<trkpt lat="35.0564161" lon="32.4548007">
<ele>21.25</ele>
<time>2015-04-25T18:07:15Z</time>
</trkpt>
<trkpt lat="35.0564904" lon="32.4548093">
<ele>20.59</ele>
<time>2015-04-25T18:07:16Z</time>
</trkpt>
<trkpt lat="35.0565608" lon="32.4548173">
<ele>20.76</ele>
<time>2015-04-25T18:07:17Z</time>
</trkpt>
<trkpt lat="35.0566231" lon="32.4548242">
<ele>20.84</ele>
<time>2015-04-25T18:07:18Z</time>
</trkpt>
<trkpt lat="35.0566902" lon="32.4548334">
<ele>20.38</ele>
<time>2015-04-25T18:07:19Z</time>
</trkpt>
<trkpt lat="35.0567549" lon="32.4548355">
<ele>20.15</ele>
<time>2015-04-25T18:07:20Z</time>
</trkpt>
<trkpt lat="35.0568168" lon="32.4548442">
<ele>19.54</ele>
<time>2015-04-25T18:07:21Z</time>
</trkpt>
<trkpt lat="35.0568832" lon="32.4548604">
<ele>19.23</ele>
<time>2015-04-25T18:07:22Z</time>
</trkpt>
<trkpt lat="35.0569566" lon="32.4548744">
<ele>19.58</ele>
<time>2015-04-25T18:07:23Z</time>
</trkpt>
<trkpt lat="35.0570334" lon="32.4548954">
<ele>19.75</ele>
<time>2015-04-25T18:07:24Z</time>
</trkpt>
<trkpt lat="35.0571033" lon="32.4549200">
<ele>19.84</ele>
<time>2015-04-25T18:07:25Z</time>
</trkpt>
<trkpt lat="35.0571612" lon="32.4549481">
<ele>19.88</ele>
<time>2015-04-25T18:07:26Z</time>
</trkpt>
<trkpt lat="35.0572245" lon="32.4549811">
<ele>19.40</ele>
<time>2015-04-25T18:07:27Z</time>
</trkpt>
<trkpt lat="35.0572919" lon="32.4550358">
<ele>17.66</ele>
<time>2015-04-25T18:07:28Z</time>
</trkpt>
<trkpt lat="35.0573524" lon="32.4550777">
<ele>16.79</ele>
<time>2015-04-25T18:07:29Z</time>
</trkpt>
<trkpt lat="35.0574109" lon="32.4551467">
<ele>15.86</ele>
<time>2015-04-25T18:07:30Z</time>
</trkpt>
<trkpt lat="35.0574580" lon="32.4552149">
<ele>15.89</ele>
<time>2015-04-25T18:07:31Z</time>
</trkpt>
<trkpt lat="35.0575080" lon="32.4552814">
<ele>15.41</ele>
<time>2015-04-25T18:07:32Z</time>
</trkpt>
<trkpt lat="35.0575521" lon="32.4553415">
<ele>14.67</ele>
<time>2015-04-25T18:07:33Z</time>
</trkpt>
<trkpt lat="35.0576013" lon="32.4554039">
<ele>14.30</ele>
<time>2015-04-25T18:07:34Z</time>
</trkpt>
<trkpt lat="35.0576480" lon="32.4554819">
<ele>13.61</ele>
<time>2015-04-25T18:07:35Z</time>
</trkpt>
<trkpt lat="35.0576837" lon="32.4555502">
<ele>13.27</ele>
<time>2015-04-25T18:07:36Z</time>
</trkpt>
<trkpt lat="35.0577237" lon="32.4556215">
<ele>12.60</ele>
<time>2015-04-25T18:07:37Z</time>
</trkpt>
<trkpt lat="35.0577631" lon="32.4556978">
<ele>12.26</ele>
<time>2015-04-25T18:07:38Z</time>
</trkpt>
<trkpt lat="35.0577989" lon="32.4557668">
<ele>12.09</ele>
<time>2015-04-25T18:07:39Z</time>
</trkpt>
<trkpt lat="35.0578430" lon="32.4558452">
<ele>12.01</ele>
<time>2015-04-25T18:07:40Z</time>
</trkpt>
<trkpt lat="35.0578887" lon="32.4559140">
<ele>12.47</ele>
<time>2015-04-25T18:07:41Z</time>
</trkpt>
<trkpt lat="35.0579252" lon="32.4559840">
<ele>12.70</ele>
<time>2015-04-25T18:07:42Z</time>
</trkpt>
<trkpt lat="35.0579624" lon="32.4560439">
<ele>12.31</ele>
<time>2015-04-25T18:07:43Z</time>
</trkpt>
<trkpt lat="35.0579912" lon="32.4561126">
<ele>12.12</ele>
<time>2015-04-25T18:07:44Z</time>
</trkpt>
<trkpt lat="35.0580268" lon="32.4561772">
<ele>12.52</ele>
<time>2015-04-25T18:07:45Z</time>
</trkpt>
<trkpt lat="35.0580666" lon="32.4562469">
<ele>12.72</ele>
<time>2015-04-25T18:07:46Z</time>
</trkpt>
<trkpt lat="35.0581054" lon="32.4563059">
<ele>12.82</ele>
<time>2015-04-25T18:07:47Z</time>
</trkpt>
<trkpt lat="35.0581393" lon="32.4563835">
<ele>13.37</ele>
<time>2015-04-25T18:07:48Z</time>
</trkpt>
<trkpt lat="35.0581719" lon="32.4564443">
<ele>13.65</ele>
<time>2015-04-25T18:07:49Z</time>
</trkpt>
<trkpt lat="35.0582120" lon="32.4565203">
<ele>13.29</ele>
<time>2015-04-25T18:07:50Z</time>
</trkpt>
<trkpt lat="35.0582505" lon="32.4565893">
<ele>13.11</ele>
<time>2015-04-25T18:07:51Z</time>
</trkpt>
<trkpt lat="35.0582900" lon="32.4566545">
<ele>13.02</ele>
<time>2015-04-25T18:07:52Z</time>
</trkpt>
<trkpt lat="35.0583255" lon="32.4567215">
<ele>12.97</ele>
<time>2015-04-25T18:07:53Z</time>
</trkpt>
<trkpt lat="35.0583592" lon="32.4567962">
<ele>12.95</ele>
<time>2015-04-25T18:07:54Z</time>
</trkpt>
<trkpt lat="35.0583987" lon="32.4568640">
<ele>12.94</ele>
<time>2015-04-25T18:07:55Z</time>
</trkpt>
<trkpt lat="35.0584386" lon="32.4569305">
<ele>12.93</ele>
<time>2015-04-25T18:07:56Z</time>
</trkpt>
<trkpt lat="35.0584712" lon="32.4569935">
<ele>12.93</ele>
<time>2015-04-25T18:07:57Z</time>
</trkpt>
<trkpt lat="35.0585072" lon="32.4570587">
<ele>12.93</ele>
<time>2015-04-25T18:07:58Z</time>
</trkpt>
<trkpt lat="35.0585461" lon="32.4571239">
<ele>12.93</ele>
<time>2015-04-25T18:07:59Z</time>
</trkpt>
<trkpt lat="35.0585732" lon="32.4571816">
<ele>12.93</ele>
<time>2015-04-25T18:08:00Z</time>
</trkpt>
<trkpt lat="35.0586126" lon="32.4572381">
<ele>13.43</ele>
<time>2015-04-25T18:08:01Z</time>
</trkpt>
<trkpt lat="35.0586494" lon="32.4572987">
<ele>13.68</ele>
<time>2015-04-25T18:08:02Z</time>
</trkpt>
<trkpt lat="35.0586740" lon="32.4573572">
<ele>13.80</ele>
<time>2015-04-25T18:08:03Z</time>
</trkpt>
<trkpt lat="35.0587208" lon="32.4574143">
<ele>14.36</ele>
<time>2015-04-25T18:08:04Z</time>
</trkpt>
<trkpt lat="35.0587605" lon="32.4574801">
<ele>14.14</ele>
<time>2015-04-25T18:08:05Z</time>
</trkpt>
<trkpt lat="35.0587912" lon="32.4575350">
<ele>14.03</ele>
<time>2015-04-25T18:08:06Z</time>
</trkpt>
<trkpt lat="35.0588292" lon="32.4576034">
<ele>13.98</ele>
<time>2015-04-25T18:08:07Z</time>
</trkpt>
<trkpt lat="35.0588732" lon="32.4576771">
<ele>13.95</ele>
<time>2015-04-25T18:08:08Z</time>
</trkpt>
<trkpt lat="35.0589109" lon="32.4577402">
<ele>13.94</ele>
<time>2015-04-25T18:08:09Z</time>
</trkpt>
<trkpt lat="35.0589576" lon="32.4578025">
<ele>13.43</ele>
<time>2015-04-25T18:08:10Z</time>
</trkpt>
<trkpt lat="35.0590051" lon="32.4578589">
<ele>13.18</ele>
<time>2015-04-25T18:08:11Z</time>
</trkpt>
<trkpt lat="35.0590445" lon="32.4579219">
<ele>12.55</ele>
<time>2015-04-25T18:08:12Z</time>
</trkpt>
<trkpt lat="35.0590872" lon="32.4579703">
<ele>12.74</ele>
<time>2015-04-25T18:08:13Z</time>
</trkpt>
<trkpt lat="35.0591278" lon="32.4580233">
<ele>12.83</ele>
<time>2015-04-25T18:08:14Z</time>
</trkpt>
<trkpt lat="35.0591669" lon="32.4580768">
<ele>12.88</ele>
<time>2015-04-25T18:08:15Z</time>
</trkpt>
<trkpt lat="35.0592204" lon="32.4581233">
<ele>13.40</ele>
<time>2015-04-25T18:08:16Z</time>
</trkpt>
<trkpt lat="35.0592599" lon="32.4581676">
<ele>13.16</ele>
<time>2015-04-25T18:08:17Z</time>
</trkpt>
<trkpt lat="35.0592924" lon="32.4582227">
<ele>13.04</ele>
<time>2015-04-25T18:08:18Z</time>
</trkpt>
<trkpt lat="35.0593344" lon="32.4582718">
<ele>12.98</ele>
<time>2015-04-25T18:08:19Z</time>
</trkpt>
<trkpt lat="35.0593712" lon="32.4583192">
<ele>13.45</ele>
<time>2015-04-25T18:08:20Z</time>
</trkpt>
<trkpt lat="35.0594088" lon="32.4583602">
<ele>14.19</ele>
<time>2015-04-25T18:08:21Z</time>
</trkpt>
<trkpt lat="35.0594448" lon="32.4584019">
<ele>15.56</ele>
<time>2015-04-25T18:08:22Z</time>
</trkpt>
<trkpt lat="35.0594844" lon="32.4584482">
<ele>16.24</ele>
<time>2015-04-25T18:08:23Z</time>
</trkpt>
<trkpt lat="35.0595229" lon="32.4584919">
<ele>16.08</ele>
<time>2015-04-25T18:08:24Z</time>
</trkpt>
<trkpt lat="35.0595558" lon="32.4585427">
<ele>16.00</ele>
<time>2015-04-25T18:08:25Z</time>
</trkpt>
<trkpt lat="35.0595919" lon="32.4585897">
<ele>15.96</ele>
<time>2015-04-25T18:08:26Z</time>
</trkpt>
<trkpt lat="35.0596266" lon="32.4586340">
<ele>15.44</ele>
<time>2015-04-25T18:08:27Z</time>
</trkpt>
<trkpt lat="35.0596703" lon="32.4586904">
<ele>15.18</ele>
<time>2015-04-25T18:08:28Z</time>
</trkpt>
<trkpt lat="35.0597133" lon="32.4587457">
<ele>14.55</ele>
<time>2015-04-25T18:08:29Z</time>
</trkpt>
<trkpt lat="35.0597548" lon="32.4587859">
<ele>14.24</ele>
<time>2015-04-25T18:08:30Z</time>
</trkpt>
<trkpt lat="35.0597866" lon="32.4588335">
<ele>13.58</ele>
<time>2015-04-25T18:08:31Z</time>
</trkpt>
<trkpt lat="35.0598211" lon="32.4588868">
<ele>13.25</ele>
<time>2015-04-25T18:08:32Z</time>
</trkpt>
<trkpt lat="35.0598494" lon="32.4589316">
<ele>12.59</ele>
<time>2015-04-25T18:08:33Z</time>
</trkpt>
<trkpt lat="35.0598810" lon="32.4589783">
<ele>12.26</ele>
<time>2015-04-25T18:08:34Z</time>
</trkpt>
<trkpt lat="35.0599269" lon="32.4590617">
<ele>13.26</ele>
<time>2015-04-25T18:08:36Z</time>
</trkpt>
<trkpt lat="35.0599587" lon="32.4591348">
<ele>13.01</ele>
<time>2015-04-25T18:08:38Z</time>
</trkpt>
<trkpt lat="35.0599903" lon="32.4592193">
<ele>12.70</ele>
<time>2015-04-25T18:08:40Z</time>
</trkpt>
<trkpt lat="35.0600343" lon="32.4593042">
<ele>13.87</ele>
<time>2015-04-25T18:08:42Z</time>
</trkpt>
<trkpt lat="35.0600574" lon="32.4593754">
<ele>13.91</ele>
<time>2015-04-25T18:08:44Z</time>
</trkpt>
<trkpt lat="35.0600856" lon="32.4594515">
<ele>13.92</ele>
<time>2015-04-25T18:08:46Z</time>
</trkpt>
<trkpt lat="35.0601089" lon="32.4595274">
<ele>14.42</ele>
<time>2015-04-25T18:08:48Z</time>
</trkpt>
<trkpt lat="35.0601276" lon="32.4596002">
<ele>14.30</ele>
<time>2015-04-25T18:08:50Z</time>
</trkpt>
<trkpt lat="35.0601530" lon="32.4596667">
<ele>12.52</ele>
<time>2015-04-25T18:08:52Z</time>
</trkpt>
<trkpt lat="35.0601819" lon="32.4597386">
<ele>12.82</ele>
<time>2015-04-25T18:08:54Z</time>
</trkpt>
<trkpt lat="35.0602125" lon="32.4598203">
<ele>12.90</ele>
<time>2015-04-25T18:08:56Z</time>
</trkpt>
<trkpt lat="35.0602439" lon="32.4599027">
<ele>12.92</ele>
<time>2015-04-25T18:08:58Z</time>
</trkpt>
<trkpt lat="35.0602755" lon="32.4599872">
<ele>13.67</ele>
<time>2015-04-25T18:09:00Z</time>
</trkpt>
<trkpt lat="35.0603114" lon="32.4600694">
<ele>14.36</ele>
<time>2015-04-25T18:09:02Z</time>
</trkpt>
<trkpt lat="35.0603440" lon="32.4601498">
<ele>14.78</ele>
<time>2015-04-25T18:09:04Z</time>
</trkpt>
<trkpt lat="35.0603746" lon="32.4602243">
<ele>15.14</ele>
<time>2015-04-25T18:09:06Z</time>
</trkpt>
<trkpt lat="35.0604065" lon="32.4602980">
<ele>15.23</ele>
<time>2015-04-25T18:09:08Z</time>
</trkpt>
<trkpt lat="35.0604339" lon="32.4603710">
<ele>15.00</ele>
<time>2015-04-25T18:09:10Z</time>
</trkpt>
<trkpt lat="35.0604617" lon="32.4604443">
<ele>14.19</ele>
<time>2015-04-25T18:09:12Z</time>
</trkpt>
<trkpt lat="35.0604926" lon="32.4605147">
<ele>14.24</ele>
<time>2015-04-25T18:09:14Z</time>
</trkpt>
<trkpt lat="35.0605221" lon="32.4605812">
<ele>14.00</ele>
<time>2015-04-25T18:09:16Z</time>
</trkpt>
<trkpt lat="35.0605539" lon="32.4606415">
<ele>13.94</ele>
<time>2015-04-25T18:09:18Z</time>
</trkpt>
<trkpt lat="35.0605910" lon="32.4607030">
<ele>13.93</ele>
<time>2015-04-25T18:09:20Z</time>
</trkpt>
<trkpt lat="35.0606307" lon="32.4607660">
<ele>14.68</ele>
<time>2015-04-25T18:09:22Z</time>
</trkpt>
<trkpt lat="35.0606680" lon="32.4608262">
<ele>14.36</ele>
<time>2015-04-25T18:09:24Z</time>
</trkpt>
<trkpt lat="35.0607064" lon="32.4608820">
<ele>14.03</ele>
<time>2015-04-25T18:09:26Z</time>
</trkpt>
<trkpt lat="35.0607430" lon="32.4609364">
<ele>14.45</ele>
<time>2015-04-25T18:09:28Z</time>
</trkpt>
<trkpt lat="35.0607778" lon="32.4609896">
<ele>14.81</ele>
<time>2015-04-25T18:09:30Z</time>
</trkpt>
<trkpt lat="35.0608123" lon="32.4610404">
<ele>14.90</ele>
<time>2015-04-25T18:09:32Z</time>
</trkpt>
<trkpt lat="35.0608474" lon="32.4610928">
<ele>14.92</ele>
<time>2015-04-25T18:09:34Z</time>
</trkpt>
<trkpt lat="35.0608876" lon="32.4611501">
<ele>15.67</ele>
<time>2015-04-25T18:09:36Z</time>
</trkpt>
<trkpt lat="35.0609292" lon="32.4612112">
<ele>16.61</ele>
<time>2015-04-25T18:09:38Z</time>
</trkpt>
<trkpt lat="35.0609728" lon="32.4612773">
<ele>16.10</ele>
<time>2015-04-25T18:09:40Z</time>
</trkpt>
<trkpt lat="35.0610164" lon="32.4613470">
<ele>15.97</ele>
<time>2015-04-25T18:09:42Z</time>
</trkpt>
<trkpt lat="35.0610609" lon="32.4614126">
<ele>15.94</ele>
<time>2015-04-25T18:09:44Z</time>
</trkpt>
<trkpt lat="35.0611088" lon="32.4614782">
<ele>15.93</ele>
<time>2015-04-25T18:09:46Z</time>
</trkpt>
<trkpt lat="35.0611566" lon="32.4615452">
<ele>15.93</ele>
<time>2015-04-25T18:09:48Z</time>
</trkpt>
<trkpt lat="35.0612046" lon="32.4616111">
<ele>15.18</ele>
<time>2015-04-25T18:09:50Z</time>
</trkpt>
<trkpt lat="35.0612512" lon="32.4616770">
<ele>15.24</ele>
<time>2015-04-25T18:09:52Z</time>
</trkpt>
<trkpt lat="35.0612962" lon="32.4617406">
<ele>15.50</ele>
<time>2015-04-25T18:09:54Z</time>
</trkpt>
<trkpt lat="35.0613404" lon="32.4618047">
<ele>15.82</ele>
<time>2015-04-25T18:09:56Z</time>
</trkpt>
<trkpt lat="35.0613884" lon="32.4618705">
<ele>15.90</ele>
<time>2015-04-25T18:09:58Z</time>
</trkpt>
<trkpt lat="35.0614403" lon="32.4619395">
<ele>16.67</ele>
<time>2015-04-25T18:10:00Z</time>
</trkpt>
<trkpt lat="35.0614910" lon="32.4620099">
<ele>16.86</ele>
<time>2015-04-25T18:10:02Z</time>
</trkpt>
<trkpt lat="35.0615429" lon="32.4620784">
<ele>17.41</ele>
<time>2015-04-25T18:10:04Z</time>
</trkpt>
<trkpt lat="35.0615942" lon="32.4621459">
<ele>17.80</ele>
<time>2015-04-25T18:10:06Z</time>
</trkpt>
<trkpt lat="35.0616458" lon="32.4622130">
<ele>17.14</ele>
<time>2015-04-25T18:10:08Z</time>
</trkpt>
<trkpt lat="35.0616904" lon="32.4622815">
<ele>16.98</ele>
<time>2015-04-25T18:10:10Z</time>
</trkpt>
<trkpt lat="35.0617325" lon="32.4623516">
<ele>16.94</ele>
<time>2015-04-25T18:10:12Z</time>
</trkpt>
<trkpt lat="35.0617790" lon="32.4624173">
<ele>16.18</ele>
<time>2015-04-25T18:10:14Z</time>
</trkpt>
<trkpt lat="35.0618287" lon="32.4624868">
<ele>15.49</ele>
<time>2015-04-25T18:10:16Z</time>
</trkpt>
<trkpt lat="35.0618773" lon="32.4625550">
<ele>15.07</ele>
<time>2015-04-25T18:10:18Z</time>
</trkpt>
<trkpt lat="35.0619248" lon="32.4626205">
<ele>14.21</ele>
<time>2015-04-25T18:10:20Z</time>
</trkpt>
<trkpt lat="35.0619740" lon="32.4626865">
<ele>14.75</ele>
<time>2015-04-25T18:10:22Z</time>
</trkpt>
<trkpt lat="35.0620256" lon="32.4627560">
<ele>15.63</ele>
<time>2015-04-25T18:10:24Z</time>
</trkpt>
<trkpt lat="35.0620756" lon="32.4628242">
<ele>15.10</ele>
<time>2015-04-25T18:10:26Z</time>
</trkpt>
<trkpt lat="35.0621293" lon="32.4628951">
<ele>14.97</ele>
<time>2015-04-25T18:10:28Z</time>
</trkpt>
<trkpt lat="35.0621828" lon="32.4629668">
<ele>14.94</ele>
<time>2015-04-25T18:10:30Z</time>
</trkpt>
<trkpt lat="35.0622376" lon="32.4630405">
<ele>15.18</ele>
<time>2015-04-25T18:10:32Z</time>
</trkpt>
<trkpt lat="35.0622890" lon="32.4631101">
<ele>15.49</ele>
<time>2015-04-25T18:10:34Z</time>
</trkpt>
<trkpt lat="35.0623427" lon="32.4631812">
<ele>16.32</ele>
<time>2015-04-25T18:10:36Z</time>
</trkpt>
<trkpt lat="35.0623896" lon="32.4632458">
<ele>16.77</ele>
<time>2015-04-25T18:10:38Z</time>
</trkpt>
<trkpt lat="35.0624329" lon="32.4633113">
<ele>16.14</ele>
<time>2015-04-25T18:10:40Z</time>
</trkpt>
<trkpt lat="35.0624758" lon="32.4633745">
<ele>16.73</ele>
<time>2015-04-25T18:10:42Z</time>
</trkpt>
<trkpt lat="35.0625222" lon="32.4634413">
<ele>16.38</ele>
<time>2015-04-25T18:10:44Z</time>
</trkpt>
<trkpt lat="35.0625733" lon="32.4635132">
<ele>15.79</ele>
<time>2015-04-25T18:10:46Z</time>
</trkpt>
<trkpt lat="35.0626275" lon="32.4635879">
<ele>15.14</ele>
<time>2015-04-25T18:10:48Z</time>
</trkpt>
<trkpt lat="35.0626717" lon="32.4636512">
<ele>15.03</ele>
<time>2015-04-25T18:10:49Z</time>
</trkpt>
<trkpt lat="35.0627039" lon="32.4636978">
<ele>14.98</ele>
<time>2015-04-25T18:10:50Z</time>
</trkpt>
<trkpt lat="35.0627327" lon="32.4637426">
<ele>14.95</ele>
<time>2015-04-25T18:10:51Z</time>
</trkpt>
<trkpt lat="35.0627584" lon="32.4637945">
<ele>14.94</ele>
<time>2015-04-25T18:10:52Z</time>
</trkpt>
<trkpt lat="35.0627868" lon="32.4638377">
<ele>15.43</ele>
<time>2015-04-25T18:10:53Z</time>
</trkpt>
<trkpt lat="35.0628173" lon="32.4638788">
<ele>15.68</ele>
<time>2015-04-25T18:10:54Z</time>
</trkpt>
<trkpt lat="35.0628485" lon="32.4639189">
<ele>16.30</ele>
<time>2015-04-25T18:10:55Z</time>
</trkpt>
<trkpt lat="35.0628824" lon="32.4639622">
<ele>17.11</ele>
<time>2015-04-25T18:10:56Z</time>
</trkpt>
<trkpt lat="35.0629349" lon="32.4640302">
<ele>16.97</ele>
<time>2015-04-25T18:10:58Z</time>
</trkpt>
<trkpt lat="35.0629833" lon="32.4641125">
<ele>16.19</ele>
<time>2015-04-25T18:11:00Z</time>
</trkpt>
<trkpt lat="35.0630398" lon="32.4641914">
<ele>15.99</ele>
<time>2015-04-25T18:11:02Z</time>
</trkpt>
<trkpt lat="35.0630986" lon="32.4642671">
<ele>15.94</ele>
<time>2015-04-25T18:11:04Z</time>
</trkpt>
<trkpt lat="35.0631545" lon="32.4643409">
<ele>16.68</ele>
<time>2015-04-25T18:11:06Z</time>
</trkpt>
<trkpt lat="35.0632023" lon="32.4644123">
<ele>16.36</ele>
<time>2015-04-25T18:11:08Z</time>
</trkpt>
<trkpt lat="35.0632492" lon="32.4644824">
<ele>16.03</ele>
<time>2015-04-25T18:11:10Z</time>
</trkpt>
<trkpt lat="35.0632990" lon="32.4645533">
<ele>16.70</ele>
<time>2015-04-25T18:11:12Z</time>
</trkpt>
<trkpt lat="35.0633540" lon="32.4646235">
<ele>16.12</ele>
<time>2015-04-25T18:11:14Z</time>
</trkpt>
<trkpt lat="35.0634160" lon="32.4646896">
<ele>15.22</ele>
<time>2015-04-25T18:11:16Z</time>
</trkpt>
<trkpt lat="35.0634849" lon="32.4647456">
<ele>14.50</ele>
<time>2015-04-25T18:11:18Z</time>
</trkpt>
<trkpt lat="35.0635479" lon="32.4648056">
<ele>13.32</ele>
<time>2015-04-25T18:11:20Z</time>
</trkpt>
<trkpt lat="35.0636040" lon="32.4648733">
<ele>13.02</ele>
<time>2015-04-25T18:11:22Z</time>
</trkpt>
<trkpt lat="35.0636568" lon="32.4649467">
<ele>13.45</ele>
<time>2015-04-25T18:11:24Z</time>
</trkpt>
<trkpt lat="35.0637136" lon="32.4650195">
<ele>13.31</ele>
<time>2015-04-25T18:11:26Z</time>
</trkpt>
<trkpt lat="35.0637699" lon="32.4650923">
<ele>13.02</ele>
<time>2015-04-25T18:11:28Z</time>
</trkpt>
<trkpt lat="35.0638251" lon="32.4651629">
<ele>12.95</ele>
<time>2015-04-25T18:11:30Z</time>
</trkpt>
<trkpt lat="35.0638849" lon="32.4652290">
<ele>12.68</ele>
<time>2015-04-25T18:11:32Z</time>
</trkpt>
<trkpt lat="35.0639447" lon="32.4652969">
<ele>13.61</ele>
<time>2015-04-25T18:11:34Z</time>
</trkpt>
<trkpt lat="35.0640004" lon="32.4653619">
<ele>13.10</ele>
<time>2015-04-25T18:11:36Z</time>
</trkpt>
<trkpt lat="35.0640662" lon="32.4654450">
<ele>12.97</ele>
<time>2015-04-25T18:11:38Z</time>
</trkpt>
<trkpt lat="35.0641342" lon="32.4655229">
<ele>12.94</ele>
<time>2015-04-25T18:11:40Z</time>
</trkpt>
<trkpt lat="35.0641951" lon="32.4655912">
<ele>12.18</ele>
<time>2015-04-25T18:11:42Z</time>
</trkpt>
<trkpt lat="35.0642629" lon="32.4656629">
<ele>12.49</ele>
<time>2015-04-25T18:11:44Z</time>
</trkpt>
<trkpt lat="35.0643239" lon="32.4657275">
<ele>12.82</ele>
<time>2015-04-25T18:11:46Z</time>
</trkpt>
<trkpt lat="35.0643809" lon="32.4657937">
<ele>12.90</ele>
<time>2015-04-25T18:11:48Z</time>
</trkpt>
<trkpt lat="35.0644416" lon="32.4658626">
<ele>12.92</ele>
<time>2015-04-25T18:11:50Z</time>
</trkpt>
<trkpt lat="35.0644995" lon="32.4659367">
<ele>13.42</ele>
<time>2015-04-25T18:11:52Z</time>
</trkpt>
<trkpt lat="35.0645640" lon="32.4660089">
<ele>13.80</ele>
<time>2015-04-25T18:11:54Z</time>
</trkpt>
<trkpt lat="35.0646258" lon="32.4660764">
<ele>13.14</ele>
<time>2015-04-25T18:11:56Z</time>
</trkpt>
<trkpt lat="35.0646919" lon="32.4661510">
<ele>12.98</ele>
<time>2015-04-25T18:11:58Z</time>
</trkpt>
<trkpt lat="35.0647495" lon="32.4662216">
<ele>13.69</ele>
<time>2015-04-25T18:12:00Z</time>
</trkpt>
<trkpt lat="35.0647834" lon="32.4662578">
<ele>13.81</ele>
<time>2015-04-25T18:12:01Z</time>
</trkpt>
<trkpt lat="35.0648341" lon="32.4663386">
<ele>13.90</ele>
<time>2015-04-25T18:12:03Z</time>
</trkpt>
<trkpt lat="35.0648871" lon="32.4664172">
<ele>13.92</ele>
<time>2015-04-25T18:12:05Z</time>
</trkpt>
<trkpt lat="35.0649172" lon="32.4664598">
<ele>13.92</ele>
<time>2015-04-25T18:12:06Z</time>
</trkpt>
<trkpt lat="35.0649457" lon="32.4665056">
<ele>13.92</ele>
<time>2015-04-25T18:12:07Z</time>
</trkpt>
<trkpt lat="35.0649970" lon="32.4665936">
<ele>13.92</ele>
<time>2015-04-25T18:12:09Z</time>
</trkpt>
<trkpt lat="35.0650456" lon="32.4666822">
<ele>13.92</ele>
<time>2015-04-25T18:12:11Z</time>
</trkpt>
<trkpt lat="35.0650715" lon="32.4667308">
<ele>13.92</ele>
<time>2015-04-25T18:12:12Z</time>
</trkpt>
<trkpt lat="35.0650954" lon="32.4667809">
<ele>13.92</ele>
<time>2015-04-25T18:12:13Z</time>
</trkpt>
<trkpt lat="35.0651340" lon="32.4668655">
<ele>13.17</ele>
<time>2015-04-25T18:12:15Z</time>
</trkpt>
<trkpt lat="35.0651745" lon="32.4669466">
<ele>12.99</ele>
<time>2015-04-25T18:12:17Z</time>
</trkpt>
<trkpt lat="35.0652205" lon="32.4670360">
<ele>13.44</ele>
<time>2015-04-25T18:12:19Z</time>
</trkpt>
<trkpt lat="35.0652512" lon="32.4670905">
<ele>13.68</ele>
<time>2015-04-25T18:12:20Z</time>
</trkpt>
<trkpt lat="35.0652744" lon="32.4671402">
<ele>14.30</ele>
<time>2015-04-25T18:12:21Z</time>
</trkpt>
<trkpt lat="35.0653067" lon="32.4671863">
<ele>15.11</ele>
<time>2015-04-25T18:12:22Z</time>
</trkpt>
<trkpt lat="35.0653476" lon="32.4672680">
<ele>16.22</ele>
<time>2015-04-25T18:12:24Z</time>
</trkpt>
<trkpt lat="35.0653811" lon="32.4673436">
<ele>16.00</ele>
<time>2015-04-25T18:12:26Z</time>
</trkpt>
<trkpt lat="35.0654131" lon="32.4674252">
<ele>15.19</ele>
<time>2015-04-25T18:12:28Z</time>
</trkpt>
<trkpt lat="35.0654630" lon="32.4675065">
<ele>15.74</ele>
<time>2015-04-25T18:12:30Z</time>
</trkpt>
<trkpt lat="35.0654916" lon="32.4675521">
<ele>16.33</ele>
<time>2015-04-25T18:12:31Z</time>
</trkpt>
<trkpt lat="35.0655329" lon="32.4676341">
<ele>16.03</ele>
<time>2015-04-25T18:12:33Z</time>
</trkpt>
<trkpt lat="35.0655750" lon="32.4677031">
<ele>14.70</ele>
<time>2015-04-25T18:12:35Z</time>
</trkpt>
<trkpt lat="35.0656134" lon="32.4677779">
<ele>14.62</ele>
<time>2015-04-25T18:12:37Z</time>
</trkpt>
<trkpt lat="35.0656436" lon="32.4678561">
<ele>14.10</ele>
<time>2015-04-25T18:12:39Z</time>
</trkpt>
<trkpt lat="35.0656796" lon="32.4679339">
<ele>13.97</ele>
<time>2015-04-25T18:12:41Z</time>
</trkpt>
<trkpt lat="35.0657166" lon="32.4680094">
<ele>13.94</ele>
<time>2015-04-25T18:12:43Z</time>
</trkpt>
<trkpt lat="35.0657566" lon="32.4680934">
<ele>14.18</ele>
<time>2015-04-25T18:12:45Z</time>
</trkpt>
<trkpt lat="35.0657987" lon="32.4681732">
<ele>13.49</ele>
<time>2015-04-25T18:12:47Z</time>
</trkpt>
<trkpt lat="35.0658382" lon="32.4682532">
<ele>13.82</ele>
<time>2015-04-25T18:12:49Z</time>
</trkpt>
<trkpt lat="35.0658752" lon="32.4683305">
<ele>13.40</ele>
<time>2015-04-25T18:12:51Z</time>
</trkpt>
<trkpt lat="35.0659180" lon="32.4684130">
<ele>13.79</ele>
<time>2015-04-25T18:12:53Z</time>
</trkpt>
<trkpt lat="35.0659608" lon="32.4684906">
<ele>13.89</ele>
<time>2015-04-25T18:12:55Z</time>
</trkpt>
<trkpt lat="35.0659990" lon="32.4685685">
<ele>13.42</ele>
<time>2015-04-25T18:12:57Z</time>
</trkpt>
<trkpt lat="35.0660374" lon="32.4686427">
<ele>13.30</ele>
<time>2015-04-25T18:12:59Z</time>
</trkpt>
<trkpt lat="35.0660806" lon="32.4687234">
<ele>13.02</ele>
<time>2015-04-25T18:13:01Z</time>
</trkpt>
<trkpt lat="35.0661246" lon="32.4688052">
<ele>13.70</ele>
<time>2015-04-25T18:13:03Z</time>
</trkpt>
<trkpt lat="35.0661709" lon="32.4688851">
<ele>14.12</ele>
<time>2015-04-25T18:13:05Z</time>
</trkpt>
<trkpt lat="35.0662130" lon="32.4689630">
<ele>14.47</ele>
<time>2015-04-25T18:13:07Z</time>
</trkpt>
<trkpt lat="35.0662556" lon="32.4690479">
<ele>14.81</ele>
<time>2015-04-25T18:13:09Z</time>
</trkpt>
<trkpt lat="35.0662747" lon="32.4691069">
<ele>14.87</ele>
<time>2015-04-25T18:13:10Z</time>
</trkpt>
<trkpt lat="35.0663083" lon="32.4691986">
<ele>14.91</ele>
<time>2015-04-25T18:13:12Z</time>
</trkpt>
<trkpt lat="35.0663571" lon="32.4692785">
<ele>14.42</ele>
<time>2015-04-25T18:13:14Z</time>
</trkpt>
<trkpt lat="35.0664113" lon="32.4693442">
<ele>13.30</ele>
<time>2015-04-25T18:13:16Z</time>
</trkpt>
<trkpt lat="35.0664618" lon="32.4694028">
<ele>13.02</ele>
<time>2015-04-25T18:13:18Z</time>
</trkpt>
<trkpt lat="35.0665016" lon="32.4694558">
<ele>12.94</ele>
<time>2015-04-25T18:13:21Z</time>
</trkpt>
<trkpt lat="35.0664522" lon="32.4694507">
<ele>14.74</ele>
<time>2015-04-25T18:13:34Z</time>
</trkpt>
<trkpt lat="35.0664146" lon="32.4694181">
<ele>14.80</ele>
<time>2015-04-25T18:13:40Z</time>
</trkpt>
<trkpt lat="35.0664460" lon="32.4693756">
<ele>23.92</ele>
<time>2015-04-25T18:23:18Z</time>
</trkpt>
<trkpt lat="35.0664876" lon="32.4693991">
<ele>25.43</ele>
<time>2015-04-25T18:25:28Z</time>
</trkpt>
<trkpt lat="35.0665232" lon="32.4694464">
<ele>24.22</ele>
<time>2015-04-25T18:25:33Z</time>
</trkpt>
<trkpt lat="35.0665573" lon="32.4695015">
<ele>25.26</ele>
<time>2015-04-25T18:25:37Z</time>
</trkpt>
<trkpt lat="35.0666032" lon="32.4695380">
<ele>24.97</ele>
<time>2015-04-25T18:25:40Z</time>
</trkpt>
<trkpt lat="35.0666488" lon="32.4695818">
<ele>24.19</ele>
<time>2015-04-25T18:25:42Z</time>
</trkpt>
<trkpt lat="35.0666981" lon="32.4696304">
<ele>23.99</ele>
<time>2015-04-25T18:25:44Z</time>
</trkpt>
<trkpt lat="35.0667430" lon="32.4696776">
<ele>23.94</ele>
<time>2015-04-25T18:25:46Z</time>
</trkpt>
<trkpt lat="35.0667838" lon="32.4697246">
<ele>23.93</ele>
<time>2015-04-25T18:25:48Z</time>
</trkpt>
<trkpt lat="35.0668244" lon="32.4697685">
<ele>23.18</ele>
<time>2015-04-25T18:25:50Z</time>
</trkpt>
<trkpt lat="35.0668691" lon="32.4698067">
<ele>24.24</ele>
<time>2015-04-25T18:25:52Z</time>
</trkpt>
<trkpt lat="35.0669195" lon="32.4698251">
<ele>24.00</ele>
<time>2015-04-25T18:25:54Z</time>
</trkpt>
<trkpt lat="35.0669644" lon="32.4698523">
<ele>23.94</ele>
<time>2015-04-25T18:25:56Z</time>
</trkpt>
<trkpt lat="35.0670036" lon="32.4698869">
<ele>22.68</ele>
<time>2015-04-25T18:25:58Z</time>
</trkpt>
<trkpt lat="35.0670418" lon="32.4699288">
<ele>22.86</ele>
<time>2015-04-25T18:26:00Z</time>
</trkpt>
<trkpt lat="35.0670794" lon="32.4699730">
<ele>22.91</ele>
<time>2015-04-25T18:26:02Z</time>
</trkpt>
<trkpt lat="35.0671233" lon="32.4700133">
<ele>22.42</ele>
<time>2015-04-25T18:26:04Z</time>
</trkpt>
<trkpt lat="35.0671646" lon="32.4700564">
<ele>22.05</ele>
<time>2015-04-25T18:26:06Z</time>
</trkpt>
<trkpt lat="35.0672124" lon="32.4701084">
<ele>21.96</ele>
<time>2015-04-25T18:26:08Z</time>
</trkpt>
<trkpt lat="35.0672744" lon="32.4701751">
<ele>22.68</ele>
<time>2015-04-25T18:26:10Z</time>
</trkpt>
<trkpt lat="35.0673353" lon="32.4702364">
<ele>22.86</ele>
<time>2015-04-25T18:26:12Z</time>
</trkpt>
<trkpt lat="35.0673902" lon="32.4702905">
<ele>22.41</ele>
<time>2015-04-25T18:26:14Z</time>
</trkpt>
<trkpt lat="35.0674454" lon="32.4703553">
<ele>22.55</ele>
<time>2015-04-25T18:26:16Z</time>
</trkpt>
<trkpt lat="35.0674988" lon="32.4704204">
<ele>22.08</ele>
<time>2015-04-25T18:26:18Z</time>
</trkpt>
<trkpt lat="35.0675491" lon="32.4704897">
<ele>21.96</ele>
<time>2015-04-25T18:26:20Z</time>
</trkpt>
<trkpt lat="35.0675991" lon="32.4705585">
<ele>22.68</ele>
<time>2015-04-25T18:26:22Z</time>
</trkpt>
<trkpt lat="35.0676464" lon="32.4706262">
<ele>22.61</ele>
<time>2015-04-25T18:26:24Z</time>
</trkpt>
<trkpt lat="35.0676926" lon="32.4706930">
<ele>22.10</ele>
<time>2015-04-25T18:26:26Z</time>
</trkpt>
<trkpt lat="35.0677376" lon="32.4707613">
<ele>21.47</ele>
<time>2015-04-25T18:26:28Z</time>
</trkpt>
<trkpt lat="35.0677852" lon="32.4708272">
<ele>20.31</ele>
<time>2015-04-25T18:26:30Z</time>
</trkpt>
<trkpt lat="35.0678410" lon="32.4709176">
<ele>19.52</ele>
<time>2015-04-25T18:26:32Z</time>
</trkpt>
<trkpt lat="35.0678755" lon="32.4709598">
<ele>18.72</ele>
<time>2015-04-25T18:26:33Z</time>
</trkpt>
<trkpt lat="35.0679083" lon="32.4710076">
<ele>18.82</ele>
<time>2015-04-25T18:26:34Z</time>
</trkpt>
<trkpt lat="35.0679642" lon="32.4710836">
<ele>19.15</ele>
<time>2015-04-25T18:26:36Z</time>
</trkpt>
<trkpt lat="35.0680303" lon="32.4711646">
<ele>18.23</ele>
<time>2015-04-25T18:26:38Z</time>
</trkpt>
<trkpt lat="35.0680784" lon="32.4712363">
<ele>17.25</ele>
<time>2015-04-25T18:26:40Z</time>
</trkpt>
<trkpt lat="35.0681297" lon="32.4713027">
<ele>17.01</ele>
<time>2015-04-25T18:26:42Z</time>
</trkpt>
<trkpt lat="35.0681684" lon="32.4713709">
<ele>15.95</ele>
<time>2015-04-25T18:26:44Z</time>
</trkpt>
<trkpt lat="35.0682257" lon="32.4714500">
<ele>15.93</ele>
<time>2015-04-25T18:26:46Z</time>
</trkpt>
<trkpt lat="35.0682842" lon="32.4715274">
<ele>15.93</ele>
<time>2015-04-25T18:26:48Z</time>
</trkpt>
<trkpt lat="35.0683448" lon="32.4716122">
<ele>15.93</ele>
<time>2015-04-25T18:26:50Z</time>
</trkpt>
<trkpt lat="35.0684125" lon="32.4716944">
<ele>15.93</ele>
<time>2015-04-25T18:26:52Z</time>
</trkpt>
<trkpt lat="35.0684409" lon="32.4717378">
<ele>15.93</ele>
<time>2015-04-25T18:26:53Z</time>
</trkpt>
<trkpt lat="35.0685083" lon="32.4718188">
<ele>15.93</ele>
<time>2015-04-25T18:26:55Z</time>
</trkpt>
<trkpt lat="35.0685482" lon="32.4718610">
<ele>15.93</ele>
<time>2015-04-25T18:26:56Z</time>
</trkpt>
<trkpt lat="35.0685770" lon="32.4719067">
<ele>16.43</ele>
<time>2015-04-25T18:26:57Z</time>
</trkpt>
<trkpt lat="35.0686208" lon="32.4719482">
<ele>16.68</ele>
<time>2015-04-25T18:26:58Z</time>
</trkpt>
<trkpt lat="35.0686663" lon="32.4720254">
<ele>16.11</ele>
<time>2015-04-25T18:27:00Z</time>
</trkpt>
<trkpt lat="35.0687240" lon="32.4721082">
<ele>15.97</ele>
<time>2015-04-25T18:27:02Z</time>
</trkpt>
<trkpt lat="35.0687566" lon="32.4721468">
<ele>15.45</ele>
<time>2015-04-25T18:27:03Z</time>
</trkpt>
<trkpt lat="35.0688106" lon="32.4722214">
<ele>15.81</ele>
<time>2015-04-25T18:27:05Z</time>
</trkpt>
<trkpt lat="35.0688608" lon="32.4723004">
<ele>15.90</ele>
<time>2015-04-25T18:27:07Z</time>
</trkpt>
<trkpt lat="35.0688900" lon="32.4723425">
<ele>15.91</ele>
<time>2015-04-25T18:27:08Z</time>
</trkpt>
<trkpt lat="35.0689279" lon="32.4723875">
<ele>15.92</ele>
<time>2015-04-25T18:27:09Z</time>
</trkpt>
<trkpt lat="35.0689592" lon="32.4724278">
<ele>15.92</ele>
<time>2015-04-25T18:27:10Z</time>
</trkpt>
<trkpt lat="35.0689912" lon="32.4724763">
<ele>15.92</ele>
<time>2015-04-25T18:27:11Z</time>
</trkpt>
<trkpt lat="35.0690265" lon="32.4725221">
<ele>15.92</ele>
<time>2015-04-25T18:27:12Z</time>
</trkpt>
<trkpt lat="35.0690634" lon="32.4725714">
<ele>15.92</ele>
<time>2015-04-25T18:27:13Z</time>
</trkpt>
<trkpt lat="35.0690998" lon="32.4726189">
<ele>15.92</ele>
<time>2015-04-25T18:27:14Z</time>
</trkpt>
<trkpt lat="35.0691340" lon="32.4726696">
<ele>15.92</ele>
<time>2015-04-25T18:27:15Z</time>
</trkpt>
<trkpt lat="35.0691699" lon="32.4727182">
<ele>15.92</ele>
<time>2015-04-25T18:27:16Z</time>
</trkpt>
<trkpt lat="35.0692045" lon="32.4727688">
<ele>15.92</ele>
<time>2015-04-25T18:27:17Z</time>
</trkpt>
<trkpt lat="35.0692394" lon="32.4728145">
<ele>15.92</ele>
<time>2015-04-25T18:27:18Z</time>
</trkpt>
<trkpt lat="35.0692744" lon="32.4728654">
<ele>15.92</ele>
<time>2015-04-25T18:27:19Z</time>
</trkpt>
<trkpt lat="35.0693095" lon="32.4729162">
<ele>15.92</ele>
<time>2015-04-25T18:27:20Z</time>
</trkpt>
<trkpt lat="35.0693462" lon="32.4729619">
<ele>15.92</ele>
<time>2015-04-25T18:27:21Z</time>
</trkpt>
<trkpt lat="35.0693803" lon="32.4730055">
<ele>15.92</ele>
<time>2015-04-25T18:27:22Z</time>
</trkpt>
<trkpt lat="35.0694078" lon="32.4730573">
<ele>15.42</ele>
<time>2015-04-25T18:27:23Z</time>
</trkpt>
<trkpt lat="35.0694530" lon="32.4731102">
<ele>15.18</ele>
<time>2015-04-25T18:27:24Z</time>
</trkpt>
<trkpt lat="35.0694922" lon="32.4731594">
<ele>15.05</ele>
<time>2015-04-25T18:27:25Z</time>
</trkpt>
<trkpt lat="35.0695304" lon="32.4731990">
<ele>14.99</ele>
<time>2015-04-25T18:27:26Z</time>
</trkpt>
<trkpt lat="35.0695717" lon="32.4732556">
<ele>14.96</ele>
<time>2015-04-25T18:27:27Z</time>
</trkpt>
<trkpt lat="35.0695979" lon="32.4733009">
<ele>14.44</ele>
<time>2015-04-25T18:27:28Z</time>
</trkpt>
<trkpt lat="35.0696369" lon="32.4733501">
<ele>14.68</ele>
<time>2015-04-25T18:27:29Z</time>
</trkpt>
<trkpt lat="35.0696777" lon="32.4733948">
<ele>14.80</ele>
<time>2015-04-25T18:27:30Z</time>
</trkpt>
<trkpt lat="35.0697146" lon="32.4734419">
<ele>15.36</ele>
<time>2015-04-25T18:27:31Z</time>
</trkpt>
<trkpt lat="35.0697519" lon="32.4734918">
<ele>15.64</ele>
<time>2015-04-25T18:27:32Z</time>
</trkpt>
<trkpt lat="35.0697852" lon="32.4735917">
<ele>15.10</ele>
<time>2015-04-25T18:27:34Z</time>
</trkpt>
<trkpt lat="35.0698231" lon="32.4736444">
<ele>15.01</ele>
<time>2015-04-25T18:27:35Z</time>
</trkpt>
<trkpt lat="35.0698629" lon="32.4736818">
<ele>15.47</ele>
<time>2015-04-25T18:27:36Z</time>
</trkpt>
<trkpt lat="35.0699100" lon="32.4737152">
<ele>15.70</ele>
<time>2015-04-25T18:27:37Z</time>
</trkpt>
<trkpt lat="35.0699458" lon="32.4737493">
<ele>16.31</ele>
<time>2015-04-25T18:27:38Z</time>
</trkpt>
<trkpt lat="35.0699869" lon="32.4737838">
<ele>16.62</ele>
<time>2015-04-25T18:27:39Z</time>
</trkpt>
<trkpt lat="35.0700272" lon="32.4738332">
<ele>17.27</ele>
<time>2015-04-25T18:27:40Z</time>
</trkpt>
<trkpt lat="35.0700680" lon="32.4738701">
<ele>17.10</ele>
<time>2015-04-25T18:27:41Z</time>
</trkpt>
<trkpt lat="35.0701279" lon="32.4739555">
<ele>16.97</ele>
<time>2015-04-25T18:27:43Z</time>
</trkpt>
<trkpt lat="35.0701648" lon="32.4740054">
<ele>16.45</ele>
<time>2015-04-25T18:27:44Z</time>
</trkpt>
<trkpt lat="35.0701995" lon="32.4740516">
<ele>16.19</ele>
<time>2015-04-25T18:27:45Z</time>
</trkpt>
<trkpt lat="35.0702172" lon="32.4741024">
<ele>15.56</ele>
<time>2015-04-25T18:27:46Z</time>
</trkpt>
<trkpt lat="35.0702497" lon="32.4741451">
<ele>14.74</ele>
<time>2015-04-25T18:27:47Z</time>
</trkpt>
<trkpt lat="35.0702897" lon="32.4741897">
<ele>14.33</ele>
<time>2015-04-25T18:27:48Z</time>
</trkpt>
<trkpt lat="35.0703337" lon="32.4742363">
<ele>14.13</ele>
<time>2015-04-25T18:27:49Z</time>
</trkpt>
<trkpt lat="35.0703685" lon="32.4742767">
<ele>14.03</ele>
<time>2015-04-25T18:27:50Z</time>
</trkpt>
<trkpt lat="35.0704164" lon="32.4743255">
<ele>14.48</ele>
<time>2015-04-25T18:27:51Z</time>
</trkpt>
<trkpt lat="35.0704537" lon="32.4743734">
<ele>14.20</ele>
<time>2015-04-25T18:27:52Z</time>
</trkpt>
<trkpt lat="35.0704872" lon="32.4744118">
<ele>14.06</ele>
<time>2015-04-25T18:27:53Z</time>
</trkpt>
<trkpt lat="35.0705308" lon="32.4744563">
<ele>13.99</ele>
<time>2015-04-25T18:27:54Z</time>
</trkpt>
<trkpt lat="35.0705632" lon="32.4745028">
<ele>13.96</ele>
<time>2015-04-25T18:27:55Z</time>
</trkpt>
<trkpt lat="35.0706043" lon="32.4745458">
<ele>13.94</ele>
<time>2015-04-25T18:27:56Z</time>
</trkpt>
<trkpt lat="35.0706473" lon="32.4745928">
<ele>13.93</ele>
<time>2015-04-25T18:27:57Z</time>
</trkpt>
<trkpt lat="35.0706898" lon="32.4746362">
<ele>14.43</ele>
<time>2015-04-25T18:27:58Z</time>
</trkpt>
<trkpt lat="35.0707290" lon="32.4746817">
<ele>14.68</ele>
<time>2015-04-25T18:27:59Z</time>
</trkpt>
<trkpt lat="35.0707824" lon="32.4747257">
<ele>14.80</ele>
<time>2015-04-25T18:28:00Z</time>
</trkpt>
<trkpt lat="35.0708210" lon="32.4747655">
<ele>14.86</ele>
<time>2015-04-25T18:28:01Z</time>
</trkpt>
<trkpt lat="35.0708542" lon="32.4748038">
<ele>14.89</ele>
<time>2015-04-25T18:28:02Z</time>
</trkpt>
<trkpt lat="35.0708876" lon="32.4748432">
<ele>14.91</ele>
<time>2015-04-25T18:28:03Z</time>
</trkpt>
<trkpt lat="35.0709284" lon="32.4748807">
<ele>14.92</ele>
<time>2015-04-25T18:28:04Z</time>
</trkpt>
<trkpt lat="35.0709656" lon="32.4749196">
<ele>14.92</ele>
<time>2015-04-25T18:28:05Z</time>
</trkpt>
<trkpt lat="35.0710040" lon="32.4749607">
<ele>14.92</ele>
<time>2015-04-25T18:28:06Z</time>
</trkpt>
<trkpt lat="35.0710401" lon="32.4750016">
<ele>14.92</ele>
<time>2015-04-25T18:28:07Z</time>
</trkpt>
<trkpt lat="35.0710797" lon="32.4750472">
<ele>15.42</ele>
<time>2015-04-25T18:28:08Z</time>
</trkpt>
<trkpt lat="35.0711121" lon="32.4750874">
<ele>15.67</ele>
<time>2015-04-25T18:28:09Z</time>
</trkpt>
<trkpt lat="35.0711516" lon="32.4751260">
<ele>15.80</ele>
<time>2015-04-25T18:28:10Z</time>
</trkpt>
<trkpt lat="35.0711849" lon="32.4751655">
<ele>15.86</ele>
<time>2015-04-25T18:28:11Z</time>
</trkpt>
<trkpt lat="35.0712220" lon="32.4752051">
<ele>15.89</ele>
<time>2015-04-25T18:28:12Z</time>
</trkpt>
<trkpt lat="35.0712593" lon="32.4752475">
<ele>15.91</ele>
<time>2015-04-25T18:28:13Z</time>
</trkpt>
<trkpt lat="35.0712929" lon="32.4752935">
<ele>16.42</ele>
<time>2015-04-25T18:28:14Z</time>
</trkpt>
<trkpt lat="35.0713300" lon="32.4753356">
<ele>16.67</ele>
<time>2015-04-25T18:28:15Z</time>
</trkpt>
<trkpt lat="35.0713641" lon="32.4753817">
<ele>16.80</ele>
<time>2015-04-25T18:28:16Z</time>
</trkpt>
<trkpt lat="35.0713969" lon="32.4754232">
<ele>16.86</ele>
<time>2015-04-25T18:28:17Z</time>
</trkpt>
<trkpt lat="35.0714375" lon="32.4754740">
<ele>16.39</ele>
<time>2015-04-25T18:28:18Z</time>
</trkpt>
<trkpt lat="35.0714713" lon="32.4755170">
<ele>16.16</ele>
<time>2015-04-25T18:28:19Z</time>
</trkpt>
<trkpt lat="35.0715098" lon="32.4755606">
<ele>16.54</ele>
<time>2015-04-25T18:28:20Z</time>
</trkpt>
<trkpt lat="35.0715472" lon="32.4756075">
<ele>16.73</ele>
<time>2015-04-25T18:28:21Z</time>
</trkpt>
<trkpt lat="35.0715806" lon="32.4756521">
<ele>17.33</ele>
<time>2015-04-25T18:28:22Z</time>
</trkpt>
<trkpt lat="35.0716157" lon="32.4756969">
<ele>17.63</ele>
<time>2015-04-25T18:28:23Z</time>
</trkpt>
<trkpt lat="35.0716498" lon="32.4757359">
<ele>17.28</ele>
<time>2015-04-25T18:28:24Z</time>
</trkpt>
<trkpt lat="35.0717090" lon="32.4758111">
<ele>17.51</ele>
<time>2015-04-25T18:28:26Z</time>
</trkpt>
<trkpt lat="35.0717792" lon="32.4758919">
<ele>17.82</ele>
<time>2015-04-25T18:28:28Z</time>
</trkpt>
<trkpt lat="35.0718173" lon="32.4759341">
<ele>17.87</ele>
<time>2015-04-25T18:28:29Z</time>
</trkpt>
<trkpt lat="35.0718561" lon="32.4759815">
<ele>17.90</ele>
<time>2015-04-25T18:28:30Z</time>
</trkpt>
<trkpt lat="35.0718927" lon="32.4760281">
<ele>17.91</ele>
<time>2015-04-25T18:28:31Z</time>
</trkpt>
<trkpt lat="35.0719302" lon="32.4760724">
<ele>17.42</ele>
<time>2015-04-25T18:28:32Z</time>
</trkpt>
<trkpt lat="35.0719649" lon="32.4761146">
<ele>17.67</ele>
<time>2015-04-25T18:28:33Z</time>
</trkpt>
<trkpt lat="35.0720082" lon="32.4761587">
<ele>17.30</ele>
<time>2015-04-25T18:28:34Z</time>
</trkpt>
<trkpt lat="35.0720441" lon="32.4761998">
<ele>17.11</ele>
<time>2015-04-25T18:28:35Z</time>
</trkpt>
<trkpt lat="35.0721086" lon="32.4762776">
<ele>16.97</ele>
<time>2015-04-25T18:28:37Z</time>
</trkpt>
<trkpt lat="35.0721422" lon="32.4763142">
<ele>16.95</ele>
<time>2015-04-25T18:28:38Z</time>
</trkpt>
<trkpt lat="35.0721760" lon="32.4763575">
<ele>16.94</ele>
<time>2015-04-25T18:28:39Z</time>
</trkpt>
<trkpt lat="35.0722143" lon="32.4764094">
<ele>16.93</ele>
<time>2015-04-25T18:28:40Z</time>
</trkpt>
<trkpt lat="35.0722483" lon="32.4764530">
<ele>16.93</ele>
<time>2015-04-25T18:28:41Z</time>
</trkpt>
<trkpt lat="35.0722812" lon="32.4764949">
<ele>16.93</ele>
<time>2015-04-25T18:28:42Z</time>
</trkpt>
<trkpt lat="35.0723146" lon="32.4765365">
<ele>16.93</ele>
<time>2015-04-25T18:28:43Z</time>
</trkpt>
<trkpt lat="35.0723760" lon="32.4766184">
<ele>16.93</ele>
<time>2015-04-25T18:28:45Z</time>
</trkpt>
<trkpt lat="35.0724354" lon="32.4767002">
<ele>16.93</ele>
<time>2015-04-25T18:28:47Z</time>
</trkpt>
<trkpt lat="35.0724908" lon="32.4767799">
<ele>17.68</ele>
<time>2015-04-25T18:28:49Z</time>
</trkpt>
<trkpt lat="35.0725460" lon="32.4768490">
<ele>17.86</ele>
<time>2015-04-25T18:28:51Z</time>
</trkpt>
<trkpt lat="35.0726123" lon="32.4769212">
<ele>17.91</ele>
<time>2015-04-25T18:28:53Z</time>
</trkpt>
<trkpt lat="35.0726460" lon="32.4769616">
<ele>17.92</ele>
<time>2015-04-25T18:28:54Z</time>
</trkpt>
<trkpt lat="35.0726792" lon="32.4770027">
<ele>17.92</ele>
<time>2015-04-25T18:28:55Z</time>
</trkpt>
<trkpt lat="35.0727157" lon="32.4770469">
<ele>17.92</ele>
<time>2015-04-25T18:28:56Z</time>
</trkpt>
<trkpt lat="35.0727475" lon="32.4770876">
<ele>17.92</ele>
<time>2015-04-25T18:28:57Z</time>
</trkpt>
<trkpt lat="35.0727812" lon="32.4771356">
<ele>17.92</ele>
<time>2015-04-25T18:28:58Z</time>
</trkpt>
<trkpt lat="35.0728477" lon="32.4772154">
<ele>17.92</ele>
<time>2015-04-25T18:29:00Z</time>
</trkpt>
<trkpt lat="35.0728819" lon="32.4772564">
<ele>17.92</ele>
<time>2015-04-25T18:29:01Z</time>
</trkpt>
<trkpt lat="35.0729189" lon="32.4772963">
<ele>17.92</ele>
<time>2015-04-25T18:29:02Z</time>
</trkpt>
<trkpt lat="35.0729545" lon="32.4773391">
<ele>17.92</ele>
<time>2015-04-25T18:29:03Z</time>
</trkpt>
<trkpt lat="35.0729916" lon="32.4773845">
<ele>17.92</ele>
<time>2015-04-25T18:29:04Z</time>
</trkpt>
<trkpt lat="35.0730240" lon="32.4774273">
<ele>17.92</ele>
<time>2015-04-25T18:29:05Z</time>
</trkpt>
<trkpt lat="35.0730616" lon="32.4774655">
<ele>17.92</ele>
<time>2015-04-25T18:29:06Z</time>
</trkpt>
<trkpt lat="35.0730946" lon="32.4775056">
<ele>17.92</ele>
<time>2015-04-25T18:29:07Z</time>
</trkpt>
<trkpt lat="35.0731254" lon="32.4775500">
<ele>17.92</ele>
<time>2015-04-25T18:29:08Z</time>
</trkpt>
<trkpt lat="35.0731604" lon="32.4775942">
<ele>17.92</ele>
<time>2015-04-25T18:29:09Z</time>
</trkpt>
<trkpt lat="35.0731961" lon="32.4776336">
<ele>17.92</ele>
<time>2015-04-25T18:29:10Z</time>
</trkpt>
<trkpt lat="35.0732329" lon="32.4776754">
<ele>17.92</ele>
<time>2015-04-25T18:29:11Z</time>
</trkpt>
<trkpt lat="35.0732699" lon="32.4777249">
<ele>18.42</ele>
<time>2015-04-25T18:29:12Z</time>
</trkpt>
<trkpt lat="35.0733032" lon="32.4777684">
<ele>18.67</ele>
<time>2015-04-25T18:29:13Z</time>
</trkpt>
<trkpt lat="35.0733425" lon="32.4778209">
<ele>18.30</ele>
<time>2015-04-25T18:29:14Z</time>
</trkpt>
<trkpt lat="35.0733771" lon="32.4778654">
<ele>18.11</ele>
<time>2015-04-25T18:29:15Z</time>
</trkpt>
<trkpt lat="35.0734175" lon="32.4779101">
<ele>18.02</ele>
<time>2015-04-25T18:29:16Z</time>
</trkpt>
<trkpt lat="35.0734557" lon="32.4779588">
<ele>17.97</ele>
<time>2015-04-25T18:29:17Z</time>
</trkpt>
<trkpt lat="35.0734958" lon="32.4780024">
<ele>17.95</ele>
<time>2015-04-25T18:29:18Z</time>
</trkpt>
<trkpt lat="35.0735334" lon="32.4780477">
<ele>17.94</ele>
<time>2015-04-25T18:29:19Z</time>
</trkpt>
<trkpt lat="35.0735942" lon="32.4781319">
<ele>18.43</ele>
<time>2015-04-25T18:29:21Z</time>
</trkpt>
<trkpt lat="35.0736347" lon="32.4781753">
<ele>18.18</ele>
<time>2015-04-25T18:29:22Z</time>
</trkpt>
<trkpt lat="35.0736697" lon="32.4782167">
<ele>18.05</ele>
<time>2015-04-25T18:29:23Z</time>
</trkpt>
<trkpt lat="35.0737028" lon="32.4782666">
<ele>17.99</ele>
<time>2015-04-25T18:29:24Z</time>
</trkpt>
<trkpt lat="35.0737402" lon="32.4783122">
<ele>17.96</ele>
<time>2015-04-25T18:29:25Z</time>
</trkpt>
<trkpt lat="35.0738073" lon="32.4783983">
<ele>17.93</ele>
<time>2015-04-25T18:29:27Z</time>
</trkpt>
<trkpt lat="35.0738487" lon="32.4784396">
<ele>17.93</ele>
<time>2015-04-25T18:29:28Z</time>
</trkpt>
<trkpt lat="35.0738828" lon="32.4784792">
<ele>17.93</ele>
<time>2015-04-25T18:29:29Z</time>
</trkpt>
<trkpt lat="35.0739220" lon="32.4785195">
<ele>17.93</ele>
<time>2015-04-25T18:29:30Z</time>
</trkpt>
<trkpt lat="35.0739583" lon="32.4785603">
<ele>17.93</ele>
<time>2015-04-25T18:29:31Z</time>
</trkpt>
<trkpt lat="35.0739921" lon="32.4786042">
<ele>17.93</ele>
<time>2015-04-25T18:29:32Z</time>
</trkpt>
<trkpt lat="35.0740298" lon="32.4786452">
<ele>17.93</ele>
<time>2015-04-25T18:29:33Z</time>
</trkpt>
<trkpt lat="35.0740661" lon="32.4786812">
<ele>17.93</ele>
<time>2015-04-25T18:29:34Z</time>
</trkpt>
<trkpt lat="35.0741039" lon="32.4787222">
<ele>17.93</ele>
<time>2015-04-25T18:29:35Z</time>
</trkpt>
<trkpt lat="35.0741515" lon="32.4787702">
<ele>17.93</ele>
<time>2015-04-25T18:29:36Z</time>
</trkpt>
<trkpt lat="35.0741894" lon="32.4788096">
<ele>17.93</ele>
<time>2015-04-25T18:29:37Z</time>
</trkpt>
<trkpt lat="35.0742277" lon="32.4788555">
<ele>17.93</ele>
<time>2015-04-25T18:29:38Z</time>
</trkpt>
<trkpt lat="35.0742659" lon="32.4788953">
<ele>17.93</ele>
<time>2015-04-25T18:29:39Z</time>
</trkpt>
<trkpt lat="35.0743056" lon="32.4789286">
<ele>18.43</ele>
<time>2015-04-25T18:29:40Z</time>
</trkpt>
<trkpt lat="35.0743443" lon="32.4789697">
<ele>18.68</ele>
<time>2015-04-25T18:29:41Z</time>
</trkpt>
<trkpt lat="35.0743793" lon="32.4790123">
<ele>18.30</ele>
<time>2015-04-25T18:29:42Z</time>
</trkpt>
<trkpt lat="35.0744191" lon="32.4790535">
<ele>18.11</ele>
<time>2015-04-25T18:29:43Z</time>
</trkpt>
<trkpt lat="35.0744606" lon="32.4791009">
<ele>18.02</ele>
<time>2015-04-25T18:29:44Z</time>
</trkpt>
<trkpt lat="35.0744984" lon="32.4791436">
<ele>17.97</ele>
<time>2015-04-25T18:29:45Z</time>
</trkpt>
<trkpt lat="35.0745440" lon="32.4791820">
<ele>17.95</ele>
<time>2015-04-25T18:29:46Z</time>
</trkpt>
<trkpt lat="35.0745835" lon="32.4792216">
<ele>17.94</ele>
<time>2015-04-25T18:29:47Z</time>
</trkpt>
<trkpt lat="35.0746240" lon="32.4792582">
<ele>17.93</ele>
<time>2015-04-25T18:29:48Z</time>
</trkpt>
<trkpt lat="35.0746660" lon="32.4792960">
<ele>17.93</ele>
<time>2015-04-25T18:29:49Z</time>
</trkpt>
<trkpt lat="35.0746998" lon="32.4793388">
<ele>17.93</ele>
<time>2015-04-25T18:29:50Z</time>
</trkpt>
<trkpt lat="35.0747348" lon="32.4793767">
<ele>17.93</ele>
<time>2015-04-25T18:29:51Z</time>
</trkpt>
<trkpt lat="35.0747954" lon="32.4794443">
<ele>17.93</ele>
<time>2015-04-25T18:29:53Z</time>
</trkpt>
<trkpt lat="35.0748330" lon="32.4794776">
<ele>17.93</ele>
<time>2015-04-25T18:29:54Z</time>
</trkpt>
<trkpt lat="35.0748841" lon="32.4795517">
<ele>17.93</ele>
<time>2015-04-25T18:29:56Z</time>
</trkpt>
<trkpt lat="35.0749397" lon="32.4796109">
<ele>17.93</ele>
<time>2015-04-25T18:29:58Z</time>
</trkpt>
<trkpt lat="35.0750024" lon="32.4796851">
<ele>17.93</ele>
<time>2015-04-25T18:30:00Z</time>
</trkpt>
<trkpt lat="35.0750677" lon="32.4797568">
<ele>17.93</ele>
<time>2015-04-25T18:30:02Z</time>
</trkpt>
<trkpt lat="35.0751312" lon="32.4798232">
<ele>17.42</ele>
<time>2015-04-25T18:30:04Z</time>
</trkpt>
<trkpt lat="35.0751648" lon="32.4798635">
<ele>17.17</ele>
<time>2015-04-25T18:30:05Z</time>
</trkpt>
<trkpt lat="35.0752022" lon="32.4799076">
<ele>17.05</ele>
<time>2015-04-25T18:30:06Z</time>
</trkpt>
<trkpt lat="35.0752387" lon="32.4799493">
<ele>16.99</ele>
<time>2015-04-25T18:30:07Z</time>
</trkpt>
<trkpt lat="35.0752774" lon="32.4799880">
<ele>16.96</ele>
<time>2015-04-25T18:30:08Z</time>
</trkpt>
<trkpt lat="35.0753110" lon="32.4800264">
<ele>16.94</ele>
<time>2015-04-25T18:30:09Z</time>
</trkpt>
<trkpt lat="35.0753473" lon="32.4800738">
<ele>17.43</ele>
<time>2015-04-25T18:30:10Z</time>
</trkpt>
<trkpt lat="35.0753826" lon="32.4801155">
<ele>17.68</ele>
<time>2015-04-25T18:30:11Z</time>
</trkpt>
<trkpt lat="35.0754194" lon="32.4801601">
<ele>17.80</ele>
<time>2015-04-25T18:30:12Z</time>
</trkpt>
<trkpt lat="35.0754564" lon="32.4802055">
<ele>17.86</ele>
<time>2015-04-25T18:30:13Z</time>
</trkpt>
<trkpt lat="35.0754871" lon="32.4802473">
<ele>17.89</ele>
<time>2015-04-25T18:30:14Z</time>
</trkpt>
<trkpt lat="35.0755224" lon="32.4802895">
<ele>17.91</ele>
<time>2015-04-25T18:30:15Z</time>
</trkpt>
<trkpt lat="35.0755654" lon="32.4803250">
<ele>17.92</ele>
<time>2015-04-25T18:30:16Z</time>
</trkpt>
<trkpt lat="35.0756334" lon="32.4803935">
<ele>17.92</ele>
<time>2015-04-25T18:30:18Z</time>
</trkpt>
<trkpt lat="35.0756921" lon="32.4804569">
<ele>17.42</ele>
<time>2015-04-25T18:30:20Z</time>
</trkpt>
<trkpt lat="35.0757448" lon="32.4805247">
<ele>17.55</ele>
<time>2015-04-25T18:30:22Z</time>
</trkpt>
<trkpt lat="35.0758078" lon="32.4805923">
<ele>17.33</ele>
<time>2015-04-25T18:30:24Z</time>
</trkpt>
<trkpt lat="35.0758794" lon="32.4806661">
<ele>17.53</ele>
<time>2015-04-25T18:30:26Z</time>
</trkpt>
<trkpt lat="35.0759463" lon="32.4807434">
<ele>17.83</ele>
<time>2015-04-25T18:30:28Z</time>
</trkpt>
<trkpt lat="35.0759815" lon="32.4807813">
<ele>17.88</ele>
<time>2015-04-25T18:30:29Z</time>
</trkpt>
<trkpt lat="35.0760329" lon="32.4808492">
<ele>18.16</ele>
<time>2015-04-25T18:30:31Z</time>
</trkpt>
<trkpt lat="35.0760672" lon="32.4808897">
<ele>18.54</ele>
<time>2015-04-25T18:30:32Z</time>
</trkpt>
<trkpt lat="35.0761361" lon="32.4809630">
<ele>18.33</ele>
<time>2015-04-25T18:30:34Z</time>
</trkpt>
<trkpt lat="35.0761940" lon="32.4810369">
<ele>18.03</ele>
<time>2015-04-25T18:30:36Z</time>
</trkpt>
<trkpt lat="35.0762264" lon="32.4810780">
<ele>17.98</ele>
<time>2015-04-25T18:30:37Z</time>
</trkpt>
<trkpt lat="35.0762611" lon="32.4811249">
<ele>18.45</ele>
<time>2015-04-25T18:30:38Z</time>
</trkpt>
<trkpt lat="35.0762942" lon="32.4811704">
<ele>18.69</ele>
<time>2015-04-25T18:30:39Z</time>
</trkpt>
<trkpt lat="35.0763307" lon="32.4812144">
<ele>18.31</ele>
<time>2015-04-25T18:30:40Z</time>
</trkpt>
<trkpt lat="35.0763615" lon="32.4812560">
<ele>18.12</ele>
<time>2015-04-25T18:30:41Z</time>
</trkpt>
<trkpt lat="35.0763976" lon="32.4812996">
<ele>18.02</ele>
<time>2015-04-25T18:30:42Z</time>
</trkpt>
<trkpt lat="35.0764263" lon="32.4813426">
<ele>17.97</ele>
<time>2015-04-25T18:30:43Z</time>
</trkpt>
<trkpt lat="35.0764563" lon="32.4813879">
<ele>17.45</ele>
<time>2015-04-25T18:30:44Z</time>
</trkpt>
<trkpt lat="35.0764857" lon="32.4814325">
<ele>17.19</ele>
<time>2015-04-25T18:30:45Z</time>
</trkpt>
<trkpt lat="35.0765503" lon="32.4815033">
<ele>16.99</ele>
<time>2015-04-25T18:30:47Z</time>
</trkpt>
<trkpt lat="35.0766075" lon="32.4815725">
<ele>17.69</ele>
<time>2015-04-25T18:30:49Z</time>
</trkpt>
<trkpt lat="35.0766443" lon="32.4816183">
<ele>17.81</ele>
<time>2015-04-25T18:30:50Z</time>
</trkpt>
<trkpt lat="35.0766772" lon="32.4816574">
<ele>17.87</ele>
<time>2015-04-25T18:30:51Z</time>
</trkpt>
<trkpt lat="35.0767145" lon="32.4816979">
<ele>17.90</ele>
<time>2015-04-25T18:30:52Z</time>
</trkpt>
<trkpt lat="35.0767554" lon="32.4817386">
<ele>17.91</ele>
<time>2015-04-25T18:30:53Z</time>
</trkpt>
<trkpt lat="35.0768029" lon="32.4817703">
<ele>17.92</ele>
<time>2015-04-25T18:30:54Z</time>
</trkpt>
<trkpt lat="35.0768485" lon="32.4818075">
<ele>17.92</ele>
<time>2015-04-25T18:30:55Z</time>
</trkpt>
<trkpt lat="35.0768958" lon="32.4818300">
<ele>17.92</ele>
<time>2015-04-25T18:30:56Z</time>
</trkpt>
<trkpt lat="35.0769418" lon="32.4818557">
<ele>17.92</ele>
<time>2015-04-25T18:30:57Z</time>
</trkpt>
<trkpt lat="35.0769922" lon="32.4818779">
<ele>17.92</ele>
<time>2015-04-25T18:30:58Z</time>
</trkpt>
<trkpt lat="35.0770375" lon="32.4818976">
<ele>17.92</ele>
<time>2015-04-25T18:30:59Z</time>
</trkpt>
<trkpt lat="35.0770867" lon="32.4819183">
<ele>17.92</ele>
<time>2015-04-25T18:31:00Z</time>
</trkpt>
<trkpt lat="35.0771370" lon="32.4819408">
<ele>17.92</ele>
<time>2015-04-25T18:31:01Z</time>
</trkpt>
<trkpt lat="35.0771911" lon="32.4819623">
<ele>17.92</ele>
<time>2015-04-25T18:31:02Z</time>
</trkpt>
<trkpt lat="35.0772458" lon="32.4819846">
<ele>17.92</ele>
<time>2015-04-25T18:31:03Z</time>
</trkpt>
<trkpt lat="35.0772906" lon="32.4820162">
<ele>17.92</ele>
<time>2015-04-25T18:31:04Z</time>
</trkpt>
<trkpt lat="35.0773397" lon="32.4820429">
<ele>17.92</ele>
<time>2015-04-25T18:31:05Z</time>
</trkpt>
<trkpt lat="35.0773889" lon="32.4820774">
<ele>17.92</ele>
<time>2015-04-25T18:31:06Z</time>
</trkpt>
<trkpt lat="35.0774348" lon="32.4821082">
<ele>17.92</ele>
<time>2015-04-25T18:31:07Z</time>
</trkpt>
<trkpt lat="35.0774779" lon="32.4821492">
<ele>17.92</ele>
<time>2015-04-25T18:31:08Z</time>
</trkpt>
<trkpt lat="35.0775236" lon="32.4821895">
<ele>17.92</ele>
<time>2015-04-25T18:31:09Z</time>
</trkpt>
<trkpt lat="35.0775688" lon="32.4822331">
<ele>17.92</ele>
<time>2015-04-25T18:31:10Z</time>
</trkpt>
<trkpt lat="35.0776139" lon="32.4822780">
<ele>17.92</ele>
<time>2015-04-25T18:31:11Z</time>
</trkpt>
<trkpt lat="35.0776599" lon="32.4823244">
<ele>17.42</ele>
<time>2015-04-25T18:31:12Z</time>
</trkpt>
<trkpt lat="35.0777008" lon="32.4823671">
<ele>17.17</ele>
<time>2015-04-25T18:31:13Z</time>
</trkpt>
<trkpt lat="35.0777496" lon="32.4824183">
<ele>17.55</ele>
<time>2015-04-25T18:31:14Z</time>
</trkpt>
<trkpt lat="35.0777904" lon="32.4824634">
<ele>17.74</ele>
<time>2015-04-25T18:31:15Z</time>
</trkpt>
<trkpt lat="35.0778257" lon="32.4825152">
<ele>17.83</ele>
<time>2015-04-25T18:31:16Z</time>
</trkpt>
<trkpt lat="35.0778682" lon="32.4825636">
<ele>17.88</ele>
<time>2015-04-25T18:31:17Z</time>
</trkpt>
<trkpt lat="35.0779103" lon="32.4826138">
<ele>17.40</ele>
<time>2015-04-25T18:31:18Z</time>
</trkpt>
<trkpt lat="35.0779554" lon="32.4826604">
<ele>17.16</ele>
<time>2015-04-25T18:31:19Z</time>
</trkpt>
<trkpt lat="35.0780044" lon="32.4827106">
<ele>17.04</ele>
<time>2015-04-25T18:31:20Z</time>
</trkpt>
<trkpt lat="35.0780457" lon="32.4827542">
<ele>16.98</ele>
<time>2015-04-25T18:31:21Z</time>
</trkpt>
<trkpt lat="35.0780881" lon="32.4828066">
<ele>16.95</ele>
<time>2015-04-25T18:31:22Z</time>
</trkpt>
<trkpt lat="35.0781263" lon="32.4828506">
<ele>16.94</ele>
<time>2015-04-25T18:31:23Z</time>
</trkpt>
<trkpt lat="35.0781696" lon="32.4828874">
<ele>16.93</ele>
<time>2015-04-25T18:31:24Z</time>
</trkpt>
<trkpt lat="35.0782093" lon="32.4829352">
<ele>16.93</ele>
<time>2015-04-25T18:31:25Z</time>
</trkpt>
<trkpt lat="35.0782434" lon="32.4829807">
<ele>16.93</ele>
<time>2015-04-25T18:31:26Z</time>
</trkpt>
<trkpt lat="35.0782837" lon="32.4830308">
<ele>16.93</ele>
<time>2015-04-25T18:31:27Z</time>
</trkpt>
<trkpt lat="35.0783296" lon="32.4830786">
<ele>16.93</ele>
<time>2015-04-25T18:31:28Z</time>
</trkpt>
<trkpt lat="35.0783691" lon="32.4831247">
<ele>16.93</ele>
<time>2015-04-25T18:31:29Z</time>
</trkpt>
<trkpt lat="35.0784102" lon="32.4831808">
<ele>16.93</ele>
<time>2015-04-25T18:31:30Z</time>
</trkpt>
<trkpt lat="35.0784492" lon="32.4832278">
<ele>16.93</ele>
<time>2015-04-25T18:31:31Z</time>
</trkpt>
<trkpt lat="35.0784839" lon="32.4832733">
<ele>17.43</ele>
<time>2015-04-25T18:31:32Z</time>
</trkpt>
<trkpt lat="35.0785252" lon="32.4833238">
<ele>17.68</ele>
<time>2015-04-25T18:31:33Z</time>
</trkpt>
<trkpt lat="35.0785663" lon="32.4833682">
<ele>17.80</ele>
<time>2015-04-25T18:31:34Z</time>
</trkpt>
<trkpt lat="35.0786085" lon="32.4834178">
<ele>17.86</ele>
<time>2015-04-25T18:31:35Z</time>
</trkpt>
<trkpt lat="35.0786492" lon="32.4834670">
<ele>17.89</ele>
<time>2015-04-25T18:31:36Z</time>
</trkpt>
<trkpt lat="35.0786877" lon="32.4835140">
<ele>17.91</ele>
<time>2015-04-25T18:31:37Z</time>
</trkpt>
<trkpt lat="35.0787305" lon="32.4835554">
<ele>18.42</ele>
<time>2015-04-25T18:31:38Z</time>
</trkpt>
<trkpt lat="35.0787690" lon="32.4835998">
<ele>18.67</ele>
<time>2015-04-25T18:31:39Z</time>
</trkpt>
<trkpt lat="35.0788056" lon="32.4836386">
<ele>18.30</ele>
<time>2015-04-25T18:31:40Z</time>
</trkpt>
<trkpt lat="35.0788460" lon="32.4836860">
<ele>18.11</ele>
<time>2015-04-25T18:31:41Z</time>
</trkpt>
<trkpt lat="35.0788830" lon="32.4837328">
<ele>18.02</ele>
<time>2015-04-25T18:31:42Z</time>
</trkpt>
<trkpt lat="35.0789231" lon="32.4837805">
<ele>17.97</ele>
<time>2015-04-25T18:31:43Z</time>
</trkpt>
<trkpt lat="35.0789664" lon="32.4838311">
<ele>17.95</ele>
<time>2015-04-25T18:31:44Z</time>
</trkpt>
<trkpt lat="35.0790028" lon="32.4838750">
<ele>17.94</ele>
<time>2015-04-25T18:31:45Z</time>
</trkpt>
<trkpt lat="35.0790484" lon="32.4839174">
<ele>17.93</ele>
<time>2015-04-25T18:31:46Z</time>
</trkpt>
<trkpt lat="35.0790860" lon="32.4839588">
<ele>17.93</ele>
<time>2015-04-25T18:31:47Z</time>
</trkpt>
<trkpt lat="35.0791201" lon="32.4840002">
<ele>17.93</ele>
<time>2015-04-25T18:31:48Z</time>
</trkpt>
<trkpt lat="35.0791599" lon="32.4840469">
<ele>17.93</ele>
<time>2015-04-25T18:31:49Z</time>
</trkpt>
<trkpt lat="35.0791988" lon="32.4840961">
<ele>17.93</ele>
<time>2015-04-25T18:31:50Z</time>
</trkpt>
<trkpt lat="35.0792383" lon="32.4841431">
<ele>17.93</ele>
<time>2015-04-25T18:31:51Z</time>
</trkpt>
<trkpt lat="35.0792788" lon="32.4841837">
<ele>17.93</ele>
<time>2015-04-25T18:31:52Z</time>
</trkpt>
<trkpt lat="35.0793190" lon="32.4842249">
<ele>17.93</ele>
<time>2015-04-25T18:31:53Z</time>
</trkpt>
<trkpt lat="35.0793613" lon="32.4842676">
<ele>17.93</ele>
<time>2015-04-25T18:31:54Z</time>
</trkpt>
<trkpt lat="35.0794001" lon="32.4843083">
<ele>17.93</ele>
<time>2015-04-25T18:31:55Z</time>
</trkpt>
<trkpt lat="35.0794377" lon="32.4843505">
<ele>17.93</ele>
<time>2015-04-25T18:31:56Z</time>
</trkpt>
<trkpt lat="35.0794771" lon="32.4843950">
<ele>17.93</ele>
<time>2015-04-25T18:31:57Z</time>
</trkpt>
<trkpt lat="35.0795256" lon="32.4844390">
<ele>17.93</ele>
<time>2015-04-25T18:31:58Z</time>
</trkpt>
<trkpt lat="35.0795700" lon="32.4844813">
<ele>17.93</ele>
<time>2015-04-25T18:31:59Z</time>
</trkpt>
<trkpt lat="35.0796148" lon="32.4845258">
<ele>17.43</ele>
<time>2015-04-25T18:32:00Z</time>
</trkpt>
<trkpt lat="35.0796565" lon="32.4845679">
<ele>17.17</ele>
<time>2015-04-25T18:32:01Z</time>
</trkpt>
<trkpt lat="35.0797041" lon="32.4846095">
<ele>17.05</ele>
<time>2015-04-25T18:32:02Z</time>
</trkpt>
<trkpt lat="35.0797473" lon="32.4846496">
<ele>16.99</ele>
<time>2015-04-25T18:32:03Z</time>
</trkpt>
<trkpt lat="35.0797881" lon="32.4846975">
<ele>16.46</ele>
<time>2015-04-25T18:32:04Z</time>
</trkpt>
<trkpt lat="35.0798333" lon="32.4847414">
<ele>16.19</ele>
<time>2015-04-25T18:32:05Z</time>
</trkpt>
<trkpt lat="35.0798782" lon="32.4847850">
<ele>16.56</ele>
<time>2015-04-25T18:32:06Z</time>
</trkpt>
<trkpt lat="35.0799234" lon="32.4848298">
<ele>16.74</ele>
<time>2015-04-25T18:32:07Z</time>
</trkpt>
<trkpt lat="35.0799769" lon="32.4848740">
<ele>17.33</ele>
<time>2015-04-25T18:32:08Z</time>
</trkpt>
<trkpt lat="35.0800214" lon="32.4849145">
<ele>17.63</ele>
<time>2015-04-25T18:32:09Z</time>
</trkpt>
<trkpt lat="35.0800701" lon="32.4849601">
<ele>17.28</ele>
<time>2015-04-25T18:32:10Z</time>
</trkpt>
<trkpt lat="35.0801140" lon="32.4850012">
<ele>17.10</ele>
<time>2015-04-25T18:32:11Z</time>
</trkpt>
<trkpt lat="35.0801603" lon="32.4850364">
<ele>17.51</ele>
<time>2015-04-25T18:32:12Z</time>
</trkpt>
<trkpt lat="35.0802066" lon="32.4850768">
<ele>17.72</ele>
<time>2015-04-25T18:32:13Z</time>
</trkpt>
<trkpt lat="35.0802495" lon="32.4851179">
<ele>17.82</ele>
<time>2015-04-25T18:32:14Z</time>
</trkpt>
<trkpt lat="35.0802942" lon="32.4851622">
<ele>17.87</ele>
<time>2015-04-25T18:32:15Z</time>
</trkpt>
<trkpt lat="35.0803391" lon="32.4852059">
<ele>17.90</ele>
<time>2015-04-25T18:32:16Z</time>
</trkpt>
<trkpt lat="35.0803812" lon="32.4852470">
<ele>17.91</ele>
<time>2015-04-25T18:32:17Z</time>
</trkpt>
<trkpt lat="35.0804245" lon="32.4852947">
<ele>18.42</ele>
<time>2015-04-25T18:32:18Z</time>
</trkpt>
<trkpt lat="35.0804681" lon="32.4853355">
<ele>18.67</ele>
<time>2015-04-25T18:32:19Z</time>
</trkpt>
<trkpt lat="35.0805118" lon="32.4853739">
<ele>18.80</ele>
<time>2015-04-25T18:32:20Z</time>
</trkpt>
<trkpt lat="35.0805595" lon="32.4854181">
<ele>18.86</ele>
<time>2015-04-25T18:32:21Z</time>
</trkpt>
<trkpt lat="35.0806050" lon="32.4854642">
<ele>18.39</ele>
<time>2015-04-25T18:32:22Z</time>
</trkpt>
<trkpt lat="35.0806532" lon="32.4855092">
<ele>18.16</ele>
<time>2015-04-25T18:32:23Z</time>
</trkpt>
<trkpt lat="35.0806991" lon="32.4855539">
<ele>18.04</ele>
<time>2015-04-25T18:32:24Z</time>
</trkpt>
<trkpt lat="35.0807430" lon="32.4855974">
<ele>17.98</ele>
<time>2015-04-25T18:32:25Z</time>
</trkpt>
<trkpt lat="35.0807889" lon="32.4856436">
<ele>17.95</ele>
<time>2015-04-25T18:32:26Z</time>
</trkpt>
<trkpt lat="35.0808320" lon="32.4856844">
<ele>17.94</ele>
<time>2015-04-25T18:32:27Z</time>
</trkpt>
<trkpt lat="35.0808728" lon="32.4857259">
<ele>17.93</ele>
<time>2015-04-25T18:32:28Z</time>
</trkpt>
<trkpt lat="35.0809186" lon="32.4857682">
<ele>17.93</ele>
<time>2015-04-25T18:32:29Z</time>
</trkpt>
<trkpt lat="35.0809715" lon="32.4858132">
<ele>17.93</ele>
<time>2015-04-25T18:32:30Z</time>
</trkpt>
<trkpt lat="35.0810231" lon="32.4858619">
<ele>17.93</ele>
<time>2015-04-25T18:32:31Z</time>
</trkpt>
<trkpt lat="35.0810707" lon="32.4859072">
<ele>17.93</ele>
<time>2015-04-25T18:32:32Z</time>
</trkpt>
<trkpt lat="35.0811170" lon="32.4859494">
<ele>17.93</ele>
<time>2015-04-25T18:32:33Z</time>
</trkpt>
<trkpt lat="35.0811659" lon="32.4859943">
<ele>17.93</ele>
<time>2015-04-25T18:32:34Z</time>
</trkpt>
<trkpt lat="35.0812100" lon="32.4860367">
<ele>17.93</ele>
<time>2015-04-25T18:32:35Z</time>
</trkpt>
<trkpt lat="35.0812516" lon="32.4860733">
<ele>17.93</ele>
<time>2015-04-25T18:32:36Z</time>
</trkpt>
<trkpt lat="35.0812992" lon="32.4861157">
<ele>17.93</ele>
<time>2015-04-25T18:32:37Z</time>
</trkpt>
<trkpt lat="35.0813470" lon="32.4861574">
<ele>17.93</ele>
<time>2015-04-25T18:32:38Z</time>
</trkpt>
<trkpt lat="35.0813888" lon="32.4861956">
<ele>17.93</ele>
<time>2015-04-25T18:32:39Z</time>
</trkpt>
<trkpt lat="35.0814305" lon="32.4862340">
<ele>17.93</ele>
<time>2015-04-25T18:32:40Z</time>
</trkpt>
<trkpt lat="35.0814703" lon="32.4862695">
<ele>17.93</ele>
<time>2015-04-25T18:32:41Z</time>
</trkpt>
<trkpt lat="35.0815140" lon="32.4863114">
<ele>17.93</ele>
<time>2015-04-25T18:32:42Z</time>
</trkpt>
<trkpt lat="35.0815567" lon="32.4863499">
<ele>17.93</ele>
<time>2015-04-25T18:32:43Z</time>
</trkpt>
<trkpt lat="35.0816001" lon="32.4863948">
<ele>17.92</ele>
<time>2015-04-25T18:32:44Z</time>
</trkpt>
<trkpt lat="35.0816486" lon="32.4864398">
<ele>17.92</ele>
<time>2015-04-25T18:32:45Z</time>
</trkpt>
<trkpt lat="35.0817006" lon="32.4864864">
<ele>17.92</ele>
<time>2015-04-25T18:32:46Z</time>
</trkpt>
<trkpt lat="35.0817510" lon="32.4865292">
<ele>17.92</ele>
<time>2015-04-25T18:32:47Z</time>
</trkpt>
<trkpt lat="35.0818040" lon="32.4865738">
<ele>17.92</ele>
<time>2015-04-25T18:32:48Z</time>
</trkpt>
<trkpt lat="35.0818486" lon="32.4866226">
<ele>17.92</ele>
<time>2015-04-25T18:32:49Z</time>
</trkpt>
<trkpt lat="35.0818990" lon="32.4866764">
<ele>17.92</ele>
<time>2015-04-25T18:32:50Z</time>
</trkpt>
<trkpt lat="35.0819464" lon="32.4867203">
<ele>17.92</ele>
<time>2015-04-25T18:32:51Z</time>
</trkpt>
<trkpt lat="35.0819950" lon="32.4867673">
<ele>18.42</ele>
<time>2015-04-25T18:32:52Z</time>
</trkpt>
<trkpt lat="35.0820464" lon="32.4868129">
<ele>18.17</ele>
<time>2015-04-25T18:32:53Z</time>
</trkpt>
<trkpt lat="35.0820888" lon="32.4868550">
<ele>18.05</ele>
<time>2015-04-25T18:32:54Z</time>
</trkpt>
<trkpt lat="35.0821390" lon="32.4868940">
<ele>17.99</ele>
<time>2015-04-25T18:32:55Z</time>
</trkpt>
<trkpt lat="35.0821869" lon="32.4869425">
<ele>17.96</ele>
<time>2015-04-25T18:32:56Z</time>
</trkpt>
<trkpt lat="35.0822326" lon="32.4869830">
<ele>17.94</ele>
<time>2015-04-25T18:32:57Z</time>
</trkpt>
<trkpt lat="35.0822833" lon="32.4870273">
<ele>17.93</ele>
<time>2015-04-25T18:32:58Z</time>
</trkpt>
<trkpt lat="35.0823283" lon="32.4870704">
<ele>17.93</ele>
<time>2015-04-25T18:32:59Z</time>
</trkpt>
<trkpt lat="35.0823726" lon="32.4871116">
<ele>17.93</ele>
<time>2015-04-25T18:33:00Z</time>
</trkpt>
<trkpt lat="35.0824202" lon="32.4871559">
<ele>17.93</ele>
<time>2015-04-25T18:33:01Z</time>
</trkpt>
<trkpt lat="35.0824642" lon="32.4871953">
<ele>17.93</ele>
<time>2015-04-25T18:33:02Z</time>
</trkpt>
<trkpt lat="35.0825113" lon="32.4872379">
<ele>17.93</ele>
<time>2015-04-25T18:33:03Z</time>
</trkpt>
<trkpt lat="35.0825600" lon="32.4872876">
<ele>17.93</ele>
<time>2015-04-25T18:33:04Z</time>
</trkpt>
<trkpt lat="35.0826052" lon="32.4873291">
<ele>17.93</ele>
<time>2015-04-25T18:33:05Z</time>
</trkpt>
<trkpt lat="35.0826519" lon="32.4873662">
<ele>17.93</ele>
<time>2015-04-25T18:33:06Z</time>
</trkpt>
<trkpt lat="35.0826956" lon="32.4874078">
<ele>17.93</ele>
<time>2015-04-25T18:33:07Z</time>
</trkpt>
<trkpt lat="35.0827514" lon="32.4874492">
<ele>17.93</ele>
<time>2015-04-25T18:33:08Z</time>
</trkpt>
<trkpt lat="35.0828002" lon="32.4874933">
<ele>17.93</ele>
<time>2015-04-25T18:33:09Z</time>
</trkpt>
<trkpt lat="35.0828522" lon="32.4875392">
<ele>17.93</ele>
<time>2015-04-25T18:33:10Z</time>
</trkpt>
<trkpt lat="35.0829018" lon="32.4875835">
<ele>17.93</ele>
<time>2015-04-25T18:33:11Z</time>
</trkpt>
<trkpt lat="35.0829486" lon="32.4876208">
<ele>17.93</ele>
<time>2015-04-25T18:33:12Z</time>
</trkpt>
<trkpt lat="35.0829919" lon="32.4876595">
<ele>17.93</ele>
<time>2015-04-25T18:33:13Z</time>
</trkpt>
<trkpt lat="35.0830513" lon="32.4877009">
<ele>18.42</ele>
<time>2015-04-25T18:33:14Z</time>
</trkpt>
<trkpt lat="35.0830993" lon="32.4877386">
<ele>18.67</ele>
<time>2015-04-25T18:33:15Z</time>
</trkpt>
<trkpt lat="35.0831489" lon="32.4877758">
<ele>18.30</ele>
<time>2015-04-25T18:33:16Z</time>
</trkpt>
<trkpt lat="35.0832024" lon="32.4878191">
<ele>18.11</ele>
<time>2015-04-25T18:33:17Z</time>
</trkpt>
<trkpt lat="35.0832500" lon="32.4878611">
<ele>18.02</ele>
<time>2015-04-25T18:33:18Z</time>
</trkpt>
<trkpt lat="35.0833018" lon="32.4879017">
<ele>17.97</ele>
<time>2015-04-25T18:33:19Z</time>
</trkpt>
<trkpt lat="35.0833498" lon="32.4879384">
<ele>17.95</ele>
<time>2015-04-25T18:33:20Z</time>
</trkpt>
<trkpt lat="35.0833959" lon="32.4879756">
<ele>17.94</ele>
<time>2015-04-25T18:33:21Z</time>
</trkpt>
<trkpt lat="35.0834447" lon="32.4880094">
<ele>17.93</ele>
<time>2015-04-25T18:33:22Z</time>
</trkpt>
<trkpt lat="35.0834892" lon="32.4880438">
<ele>17.93</ele>
<time>2015-04-25T18:33:23Z</time>
</trkpt>
<trkpt lat="35.0835377" lon="32.4880768">
<ele>18.43</ele>
<time>2015-04-25T18:33:24Z</time>
</trkpt>
<trkpt lat="35.0835880" lon="32.4881125">
<ele>18.68</ele>
<time>2015-04-25T18:33:25Z</time>
</trkpt>
<trkpt lat="35.0836341" lon="32.4881500">
<ele>18.80</ele>
<time>2015-04-25T18:33:26Z</time>
</trkpt>
<trkpt lat="35.0836855" lon="32.4881895">
<ele>18.86</ele>
<time>2015-04-25T18:33:27Z</time>
</trkpt>
<trkpt lat="35.0837417" lon="32.4882358">
<ele>18.89</ele>
<time>2015-04-25T18:33:28Z</time>
</trkpt>
<trkpt lat="35.0837913" lon="32.4882757">
<ele>18.91</ele>
<time>2015-04-25T18:33:29Z</time>
</trkpt>
<trkpt lat="35.0838456" lon="32.4883160">
<ele>18.42</ele>
<time>2015-04-25T18:33:30Z</time>
</trkpt>
<trkpt lat="35.0838970" lon="32.4883538">
<ele>18.17</ele>
<time>2015-04-25T18:33:31Z</time>
</trkpt>
<trkpt lat="35.0839429" lon="32.4883966">
<ele>18.05</ele>
<time>2015-04-25T18:33:32Z</time>
</trkpt>
<trkpt lat="35.0839945" lon="32.4884373">
<ele>17.99</ele>
<time>2015-04-25T18:33:33Z</time>
</trkpt>
<trkpt lat="35.0840470" lon="32.4884832">
<ele>18.46</ele>
<time>2015-04-25T18:33:34Z</time>
</trkpt>
<trkpt lat="35.0840990" lon="32.4885259">
<ele>18.69</ele>
<time>2015-04-25T18:33:35Z</time>
</trkpt>
<trkpt lat="35.0841500" lon="32.4885698">
<ele>18.81</ele>
<time>2015-04-25T18:33:36Z</time>
</trkpt>
<trkpt lat="35.0841986" lon="32.4886090">
<ele>18.87</ele>
<time>2015-04-25T18:33:37Z</time>
</trkpt>
<trkpt lat="35.0842493" lon="32.4886451">
<ele>18.40</ele>
<time>2015-04-25T18:33:38Z</time>
</trkpt>
<trkpt lat="35.0842968" lon="32.4886834">
<ele>18.16</ele>
<time>2015-04-25T18:33:39Z</time>
</trkpt>
<trkpt lat="35.0843425" lon="32.4887211">
<ele>18.54</ele>
<time>2015-04-25T18:33:40Z</time>
</trkpt>
<trkpt lat="35.0843914" lon="32.4887636">
<ele>18.73</ele>
<time>2015-04-25T18:33:41Z</time>
</trkpt>
<trkpt lat="35.0844430" lon="32.4888068">
<ele>18.83</ele>
<time>2015-04-25T18:33:42Z</time>
</trkpt>
<trkpt lat="35.0844947" lon="32.4888494">
<ele>18.38</ele>
<time>2015-04-25T18:33:43Z</time>
</trkpt>
<trkpt lat="35.0845413" lon="32.4888924">
<ele>18.15</ele>
<time>2015-04-25T18:33:44Z</time>
</trkpt>
<trkpt lat="35.0845866" lon="32.4889334">
<ele>18.04</ele>
<time>2015-04-25T18:33:45Z</time>
</trkpt>
<trkpt lat="35.0846303" lon="32.4889650">
<ele>17.48</ele>
<time>2015-04-25T18:33:46Z</time>
</trkpt>
<trkpt lat="35.0846705" lon="32.4889991">
<ele>17.20</ele>
<time>2015-04-25T18:33:47Z</time>
</trkpt>
<trkpt lat="35.0847085" lon="32.4890391">
<ele>17.06</ele>
<time>2015-04-25T18:33:48Z</time>
</trkpt>
<trkpt lat="35.0847525" lon="32.4890801">
<ele>16.99</ele>
<time>2015-04-25T18:33:49Z</time>
</trkpt>
<trkpt lat="35.0847952" lon="32.4891224">
<ele>16.96</ele>
<time>2015-04-25T18:33:50Z</time>
</trkpt>
<trkpt lat="35.0848411" lon="32.4891634">
<ele>16.94</ele>
<time>2015-04-25T18:33:51Z</time>
</trkpt>
<trkpt lat="35.0848866" lon="32.4892065">
<ele>17.43</ele>
<time>2015-04-25T18:33:52Z</time>
</trkpt>
<trkpt lat="35.0849278" lon="32.4892450">
<ele>17.18</ele>
<time>2015-04-25T18:33:53Z</time>
</trkpt>
<trkpt lat="35.0849798" lon="32.4892893">
<ele>17.05</ele>
<time>2015-04-25T18:33:54Z</time>
</trkpt>
<trkpt lat="35.0850252" lon="32.4893304">
<ele>16.99</ele>
<time>2015-04-25T18:33:55Z</time>
</trkpt>
<trkpt lat="35.0850811" lon="32.4893814">
<ele>16.96</ele>
<time>2015-04-25T18:33:56Z</time>
</trkpt>
<trkpt lat="35.0851325" lon="32.4894267">
<ele>16.94</ele>
<time>2015-04-25T18:33:57Z</time>
</trkpt>
<trkpt lat="35.0851829" lon="32.4894727">
<ele>16.93</ele>
<time>2015-04-25T18:33:58Z</time>
</trkpt>
<trkpt lat="35.0852355" lon="32.4895213">
<ele>16.93</ele>
<time>2015-04-25T18:33:59Z</time>
</trkpt>
<trkpt lat="35.0852893" lon="32.4895722">
<ele>16.93</ele>
<time>2015-04-25T18:34:00Z</time>
</trkpt>
<trkpt lat="35.0853395" lon="32.4896182">
<ele>16.93</ele>
<time>2015-04-25T18:34:01Z</time>
</trkpt>
<trkpt lat="35.0853979" lon="32.4896711">
<ele>16.93</ele>
<time>2015-04-25T18:34:02Z</time>
</trkpt>
<trkpt lat="35.0854481" lon="32.4897163">
<ele>16.93</ele>
<time>2015-04-25T18:34:03Z</time>
</trkpt>
<trkpt lat="35.0854939" lon="32.4897635">
<ele>16.93</ele>
<time>2015-04-25T18:34:04Z</time>
</trkpt>
<trkpt lat="35.0855469" lon="32.4898136">
<ele>16.93</ele>
<time>2015-04-25T18:34:05Z</time>
</trkpt>
<trkpt lat="35.0855947" lon="32.4898593">
<ele>16.43</ele>
<time>2015-04-25T18:34:06Z</time>
</trkpt>
<trkpt lat="35.0856485" lon="32.4899079">
<ele>16.18</ele>
<time>2015-04-25T18:34:07Z</time>
</trkpt>
<trkpt lat="35.0857001" lon="32.4899599">
<ele>16.05</ele>
<time>2015-04-25T18:34:08Z</time>
</trkpt>
<trkpt lat="35.0857486" lon="32.4900052">
<ele>15.99</ele>
<time>2015-04-25T18:34:09Z</time>
</trkpt>
<trkpt lat="35.0857876" lon="32.4900545">
<ele>15.96</ele>
<time>2015-04-25T18:34:10Z</time>
</trkpt>
<trkpt lat="35.0858335" lon="32.4900981">
<ele>15.94</ele>
<time>2015-04-25T18:34:11Z</time>
</trkpt>
<trkpt lat="35.0858843" lon="32.4901408">
<ele>15.93</ele>
<time>2015-04-25T18:34:12Z</time>
</trkpt>
<trkpt lat="35.0859327" lon="32.4901871">
<ele>15.93</ele>
<time>2015-04-25T18:34:13Z</time>
</trkpt>
<trkpt lat="35.0859845" lon="32.4902351">
<ele>15.93</ele>
<time>2015-04-25T18:34:14Z</time>
</trkpt>
<trkpt lat="35.0860357" lon="32.4902822">
<ele>15.93</ele>
<time>2015-04-25T18:34:15Z</time>
</trkpt>
<trkpt lat="35.0860929" lon="32.4903300">
<ele>15.93</ele>
<time>2015-04-25T18:34:16Z</time>
</trkpt>
<trkpt lat="35.0861428" lon="32.4903754">
<ele>16.43</ele>
<time>2015-04-25T18:34:17Z</time>
</trkpt>
<trkpt lat="35.0861998" lon="32.4904232">
<ele>16.68</ele>
<time>2015-04-25T18:34:18Z</time>
</trkpt>
<trkpt lat="35.0862500" lon="32.4904702">
<ele>16.80</ele>
<time>2015-04-25T18:34:19Z</time>
</trkpt>
<trkpt lat="35.0863019" lon="32.4905174">
<ele>16.86</ele>
<time>2015-04-25T18:34:20Z</time>
</trkpt>
<trkpt lat="35.0863565" lon="32.4905667">
<ele>16.89</ele>
<time>2015-04-25T18:34:21Z</time>
</trkpt>
<trkpt lat="35.0864134" lon="32.4906134">
<ele>16.91</ele>
<time>2015-04-25T18:34:22Z</time>
</trkpt>
<trkpt lat="35.0864680" lon="32.4906606">
<ele>16.92</ele>
<time>2015-04-25T18:34:23Z</time>
</trkpt>
<trkpt lat="35.0865249" lon="32.4907104">
<ele>16.92</ele>
<time>2015-04-25T18:34:24Z</time>
</trkpt>
<trkpt lat="35.0865769" lon="32.4907527">
<ele>16.92</ele>
<time>2015-04-25T18:34:25Z</time>
</trkpt>
<trkpt lat="35.0866357" lon="32.4907934">
<ele>17.42</ele>
<time>2015-04-25T18:34:26Z</time>
</trkpt>
<trkpt lat="35.0866892" lon="32.4908328">
<ele>17.67</ele>
<time>2015-04-25T18:34:27Z</time>
</trkpt>
<trkpt lat="35.0867487" lon="32.4908693">
<ele>17.80</ele>
<time>2015-04-25T18:34:28Z</time>
</trkpt>
<trkpt lat="35.0868058" lon="32.4909114">
<ele>17.86</ele>
<time>2015-04-25T18:34:29Z</time>
</trkpt>
<trkpt lat="35.0868562" lon="32.4909529">
<ele>17.39</ele>
<time>2015-04-25T18:34:30Z</time>
</trkpt>
<trkpt lat="35.0869108" lon="32.4909955">
<ele>17.16</ele>
<time>2015-04-25T18:34:31Z</time>
</trkpt>
<trkpt lat="35.0869722" lon="32.4910336">
<ele>17.54</ele>
<time>2015-04-25T18:34:32Z</time>
</trkpt>
<trkpt lat="35.0870246" lon="32.4910700">
<ele>17.73</ele>
<time>2015-04-25T18:34:33Z</time>
</trkpt>
<trkpt lat="35.0870733" lon="32.4911062">
<ele>17.33</ele>
<time>2015-04-25T18:34:34Z</time>
</trkpt>
<trkpt lat="35.0871233" lon="32.4911428">
<ele>17.13</ele>
<time>2015-04-25T18:34:35Z</time>
</trkpt>
<trkpt lat="35.0871667" lon="32.4911822">
<ele>17.03</ele>
<time>2015-04-25T18:34:36Z</time>
</trkpt>
<trkpt lat="35.0872165" lon="32.4912207">
<ele>16.98</ele>
<time>2015-04-25T18:34:37Z</time>
</trkpt>
<trkpt lat="35.0872661" lon="32.4912530">
<ele>16.95</ele>
<time>2015-04-25T18:34:38Z</time>
</trkpt>
<trkpt lat="35.0873182" lon="32.4912898">
<ele>16.94</ele>
<time>2015-04-25T18:34:39Z</time>
</trkpt>
<trkpt lat="35.0873747" lon="32.4913290">
<ele>16.93</ele>
<time>2015-04-25T18:34:40Z</time>
</trkpt>
<trkpt lat="35.0874245" lon="32.4913666">
<ele>16.93</ele>
<time>2015-04-25T18:34:41Z</time>
</trkpt>
<trkpt lat="35.0874731" lon="32.4914078">
<ele>17.43</ele>
<time>2015-04-25T18:34:42Z</time>
</trkpt>
<trkpt lat="35.0875221" lon="32.4914450">
<ele>17.68</ele>
<time>2015-04-25T18:34:43Z</time>
</trkpt>
<trkpt lat="35.0875744" lon="32.4914789">
<ele>17.80</ele>
<time>2015-04-25T18:34:44Z</time>
</trkpt>
<trkpt lat="35.0876290" lon="32.4915109">
<ele>17.36</ele>
<time>2015-04-25T18:34:45Z</time>
</trkpt>
<trkpt lat="35.0876751" lon="32.4915483">
<ele>17.64</ele>
<time>2015-04-25T18:34:46Z</time>
</trkpt>
<trkpt lat="35.0877251" lon="32.4915864">
<ele>17.78</ele>
<time>2015-04-25T18:34:47Z</time>
</trkpt>
<trkpt lat="35.0877791" lon="32.4916256">
<ele>17.85</ele>
<time>2015-04-25T18:34:48Z</time>
</trkpt>
<trkpt lat="35.0878279" lon="32.4916608">
<ele>17.89</ele>
<time>2015-04-25T18:34:49Z</time>
</trkpt>
<trkpt lat="35.0878833" lon="32.4917020">
<ele>17.91</ele>
<time>2015-04-25T18:34:50Z</time>
</trkpt>
<trkpt lat="35.0879312" lon="32.4917377">
<ele>17.92</ele>
<time>2015-04-25T18:34:51Z</time>
</trkpt>
<trkpt lat="35.0879777" lon="32.4917722">
<ele>17.92</ele>
<time>2015-04-25T18:34:52Z</time>
</trkpt>
<trkpt lat="35.0880283" lon="32.4918086">
<ele>17.92</ele>
<time>2015-04-25T18:34:53Z</time>
</trkpt>
<trkpt lat="35.0880703" lon="32.4918426">
<ele>17.92</ele>
<time>2015-04-25T18:34:54Z</time>
</trkpt>
<trkpt lat="35.0881175" lon="32.4918782">
<ele>17.92</ele>
<time>2015-04-25T18:34:55Z</time>
</trkpt>
<trkpt lat="35.0881636" lon="32.4919140">
<ele>17.42</ele>
<time>2015-04-25T18:34:56Z</time>
</trkpt>
<trkpt lat="35.0882075" lon="32.4919483">
<ele>17.17</ele>
<time>2015-04-25T18:34:57Z</time>
</trkpt>
<trkpt lat="35.0882599" lon="32.4919802">
<ele>17.55</ele>
<time>2015-04-25T18:34:58Z</time>
</trkpt>
<trkpt lat="35.0883066" lon="32.4920136">
<ele>17.74</ele>
<time>2015-04-25T18:34:59Z</time>
</trkpt>
<trkpt lat="35.0883536" lon="32.4920506">
<ele>17.83</ele>
<time>2015-04-25T18:35:00Z</time>
</trkpt>
<trkpt lat="35.0884028" lon="32.4920875">
<ele>17.88</ele>
<time>2015-04-25T18:35:01Z</time>
</trkpt>
<trkpt lat="35.0884534" lon="32.4921176">
<ele>17.90</ele>
<time>2015-04-25T18:35:02Z</time>
</trkpt>
<trkpt lat="35.0885054" lon="32.4921568">
<ele>18.41</ele>
<time>2015-04-25T18:35:03Z</time>
</trkpt>
<trkpt lat="35.0885607" lon="32.4922051">
<ele>18.67</ele>
<time>2015-04-25T18:35:04Z</time>
</trkpt>
<trkpt lat="35.0886093" lon="32.4922433">
<ele>18.80</ele>
<time>2015-04-25T18:35:05Z</time>
</trkpt>
<trkpt lat="35.0886672" lon="32.4922855">
<ele>18.86</ele>
<time>2015-04-25T18:35:06Z</time>
</trkpt>
<trkpt lat="35.0887144" lon="32.4923244">
<ele>19.39</ele>
<time>2015-04-25T18:35:07Z</time>
</trkpt>
<trkpt lat="35.0887525" lon="32.4923655">
<ele>19.16</ele>
<time>2015-04-25T18:35:08Z</time>
</trkpt>
<trkpt lat="35.0887978" lon="32.4924048">
<ele>19.04</ele>
<time>2015-04-25T18:35:09Z</time>
</trkpt>
<trkpt lat="35.0888391" lon="32.4924432">
<ele>18.98</ele>
<time>2015-04-25T18:35:10Z</time>
</trkpt>
<trkpt lat="35.0888846" lon="32.4924852">
<ele>18.95</ele>
<time>2015-04-25T18:35:11Z</time>
</trkpt>
<trkpt lat="35.0889331" lon="32.4925240">
<ele>19.44</ele>
<time>2015-04-25T18:35:12Z</time>
</trkpt>
<trkpt lat="35.0889760" lon="32.4925645">
<ele>19.68</ele>
<time>2015-04-25T18:35:13Z</time>
</trkpt>
<trkpt lat="35.0890247" lon="32.4926166">
<ele>19.80</ele>
<time>2015-04-25T18:35:14Z</time>
</trkpt>
<trkpt lat="35.0890709" lon="32.4926602">
<ele>19.86</ele>
<time>2015-04-25T18:35:15Z</time>
</trkpt>
<trkpt lat="35.0891168" lon="32.4927067">
<ele>19.89</ele>
<time>2015-04-25T18:35:16Z</time>
</trkpt>
<trkpt lat="35.0891640" lon="32.4927535">
<ele>19.91</ele>
<time>2015-04-25T18:35:17Z</time>
</trkpt>
<trkpt lat="35.0892107" lon="32.4927916">
<ele>20.42</ele>
<time>2015-04-25T18:35:18Z</time>
</trkpt>
<trkpt lat="35.0892599" lon="32.4928378">
<ele>20.67</ele>
<time>2015-04-25T18:35:19Z</time>
</trkpt>
<trkpt lat="35.0893085" lon="32.4928827">
<ele>20.30</ele>
<time>2015-04-25T18:35:20Z</time>
</trkpt>
<trkpt lat="35.0893548" lon="32.4929245">
<ele>20.11</ele>
<time>2015-04-25T18:35:21Z</time>
</trkpt>
<trkpt lat="35.0894086" lon="32.4929727">
<ele>20.02</ele>
<time>2015-04-25T18:35:22Z</time>
</trkpt>
<trkpt lat="35.0894552" lon="32.4930171">
<ele>19.97</ele>
<time>2015-04-25T18:35:23Z</time>
</trkpt>
<trkpt lat="35.0895018" lon="32.4930598">
<ele>19.95</ele>
<time>2015-04-25T18:35:24Z</time>
</trkpt>
<trkpt lat="35.0895510" lon="32.4931061">
<ele>19.94</ele>
<time>2015-04-25T18:35:25Z</time>
</trkpt>
<trkpt lat="35.0895978" lon="32.4931479">
<ele>19.93</ele>
<time>2015-04-25T18:35:26Z</time>
</trkpt>
<trkpt lat="35.0896470" lon="32.4931934">
<ele>19.93</ele>
<time>2015-04-25T18:35:27Z</time>
</trkpt>
<trkpt lat="35.0896959" lon="32.4932409">
<ele>19.93</ele>
<time>2015-04-25T18:35:28Z</time>
</trkpt>
<trkpt lat="35.0897419" lon="32.4932836">
<ele>19.93</ele>
<time>2015-04-25T18:35:29Z</time>
</trkpt>
<trkpt lat="35.0897943" lon="32.4933266">
<ele>19.93</ele>
<time>2015-04-25T18:35:30Z</time>
</trkpt>
<trkpt lat="35.0898412" lon="32.4933696">
<ele>19.93</ele>
<time>2015-04-25T18:35:31Z</time>
</trkpt>
<trkpt lat="35.0898887" lon="32.4934137">
<ele>19.93</ele>
<time>2015-04-25T18:35:32Z</time>
</trkpt>
<trkpt lat="35.0899385" lon="32.4934606">
<ele>19.93</ele>
<time>2015-04-25T18:35:33Z</time>
</trkpt>
<trkpt lat="35.0899814" lon="32.4935082">
<ele>19.93</ele>
<time>2015-04-25T18:35:34Z</time>
</trkpt>
<trkpt lat="35.0900299" lon="32.4935528">
<ele>19.93</ele>
<time>2015-04-25T18:35:35Z</time>
</trkpt>
<trkpt lat="35.0900804" lon="32.4935988">
<ele>19.93</ele>
<time>2015-04-25T18:35:36Z</time>
</trkpt>
<trkpt lat="35.0901246" lon="32.4936411">
<ele>19.93</ele>
<time>2015-04-25T18:35:37Z</time>
</trkpt>
<trkpt lat="35.0901794" lon="32.4936887">
<ele>20.43</ele>
<time>2015-04-25T18:35:38Z</time>
</trkpt>
<trkpt lat="35.0902258" lon="32.4937309">
<ele>20.68</ele>
<time>2015-04-25T18:35:39Z</time>
</trkpt>
<trkpt lat="35.0902717" lon="32.4937827">
<ele>20.80</ele>
<time>2015-04-25T18:35:40Z</time>
</trkpt>
<trkpt lat="35.0903220" lon="32.4938309">
<ele>20.86</ele>
<time>2015-04-25T18:35:41Z</time>
</trkpt>
<trkpt lat="35.0903734" lon="32.4938738">
<ele>20.89</ele>
<time>2015-04-25T18:35:42Z</time>
</trkpt>
<trkpt lat="35.0904248" lon="32.4939205">
<ele>20.91</ele>
<time>2015-04-25T18:35:43Z</time>
</trkpt>
<trkpt lat="35.0904789" lon="32.4939685">
<ele>20.42</ele>
<time>2015-04-25T18:35:44Z</time>
</trkpt>
<trkpt lat="35.0905279" lon="32.4940140">
<ele>20.17</ele>
<time>2015-04-25T18:35:45Z</time>
</trkpt>
<trkpt lat="35.0905796" lon="32.4940626">
<ele>20.05</ele>
<time>2015-04-25T18:35:46Z</time>
</trkpt>
<trkpt lat="35.0906286" lon="32.4941056">
<ele>19.99</ele>
<time>2015-04-25T18:35:47Z</time>
</trkpt>
<trkpt lat="35.0906799" lon="32.4941545">
<ele>19.96</ele>
<time>2015-04-25T18:35:48Z</time>
</trkpt>
<trkpt lat="35.0907336" lon="32.4942028">
<ele>19.94</ele>
<time>2015-04-25T18:35:49Z</time>
</trkpt>
<trkpt lat="35.0907832" lon="32.4942520">
<ele>19.43</ele>
<time>2015-04-25T18:35:50Z</time>
</trkpt>
<trkpt lat="35.0908340" lon="32.4943028">
<ele>19.18</ele>
<time>2015-04-25T18:35:51Z</time>
</trkpt>
<trkpt lat="35.0908841" lon="32.4943485">
<ele>19.55</ele>
<time>2015-04-25T18:35:52Z</time>
</trkpt>
<trkpt lat="35.0909303" lon="32.4943918">
<ele>19.74</ele>
<time>2015-04-25T18:35:53Z</time>
</trkpt>
<trkpt lat="35.0909809" lon="32.4944386">
<ele>19.83</ele>
<time>2015-04-25T18:35:54Z</time>
</trkpt>
<trkpt lat="35.0910285" lon="32.4944819">
<ele>19.88</ele>
<time>2015-04-25T18:35:55Z</time>
</trkpt>
<trkpt lat="35.0910797" lon="32.4945301">
<ele>19.90</ele>
<time>2015-04-25T18:35:56Z</time>
</trkpt>
<trkpt lat="35.0911316" lon="32.4945778">
<ele>19.91</ele>
<time>2015-04-25T18:35:57Z</time>
</trkpt>
<trkpt lat="35.0911750" lon="32.4946195">
<ele>19.92</ele>
<time>2015-04-25T18:35:58Z</time>
</trkpt>
<trkpt lat="35.0912260" lon="32.4946671">
<ele>19.92</ele>
<time>2015-04-25T18:35:59Z</time>
</trkpt>
<trkpt lat="35.0912715" lon="32.4947158">
<ele>19.42</ele>
<time>2015-04-25T18:36:00Z</time>
</trkpt>
<trkpt lat="35.0913164" lon="32.4947596">
<ele>19.17</ele>
<time>2015-04-25T18:36:01Z</time>
</trkpt>
<trkpt lat="35.0913706" lon="32.4948059">
<ele>19.55</ele>
<time>2015-04-25T18:36:02Z</time>
</trkpt>
<trkpt lat="35.0914162" lon="32.4948494">
<ele>19.74</ele>
<time>2015-04-25T18:36:03Z</time>
</trkpt>
<trkpt lat="35.0914680" lon="32.4948875">
<ele>19.33</ele>
<time>2015-04-25T18:36:04Z</time>
</trkpt>
<trkpt lat="35.0915187" lon="32.4949312">
<ele>19.13</ele>
<time>2015-04-25T18:36:05Z</time>
</trkpt>
<trkpt lat="35.0915651" lon="32.4949744">
<ele>19.03</ele>
<time>2015-04-25T18:36:06Z</time>
</trkpt>
<trkpt lat="35.0916176" lon="32.4950202">
<ele>18.98</ele>
<time>2015-04-25T18:36:07Z</time>
</trkpt>
<trkpt lat="35.0916659" lon="32.4950668">
<ele>18.95</ele>
<time>2015-04-25T18:36:08Z</time>
</trkpt>
<trkpt lat="35.0917052" lon="32.4951114">
<ele>18.44</ele>
<time>2015-04-25T18:36:09Z</time>
</trkpt>
<trkpt lat="35.0917538" lon="32.4951545">
<ele>18.68</ele>
<time>2015-04-25T18:36:10Z</time>
</trkpt>
<trkpt lat="35.0917982" lon="32.4951956">
<ele>18.80</ele>
<time>2015-04-25T18:36:11Z</time>
</trkpt>
<trkpt lat="35.0918494" lon="32.4952355">
<ele>18.86</ele>
<time>2015-04-25T18:36:12Z</time>
</trkpt>
<trkpt lat="35.0918965" lon="32.4952778">
<ele>18.89</ele>
<time>2015-04-25T18:36:13Z</time>
</trkpt>
<trkpt lat="35.0919442" lon="32.4953205">
<ele>18.91</ele>
<time>2015-04-25T18:36:14Z</time>
</trkpt>
<trkpt lat="35.0919925" lon="32.4953621">
<ele>18.92</ele>
<time>2015-04-25T18:36:15Z</time>
</trkpt>
<trkpt lat="35.0920388" lon="32.4953996">
<ele>19.42</ele>
<time>2015-04-25T18:36:16Z</time>
</trkpt>
<trkpt lat="35.0920820" lon="32.4954358">
<ele>19.67</ele>
<time>2015-04-25T18:36:17Z</time>
</trkpt>
<trkpt lat="35.0921270" lon="32.4954754">
<ele>19.80</ele>
<time>2015-04-25T18:36:18Z</time>
</trkpt>
<trkpt lat="35.0921674" lon="32.4955106">
<ele>19.86</ele>
<time>2015-04-25T18:36:19Z</time>
</trkpt>
<trkpt lat="35.0922135" lon="32.4955445">
<ele>19.89</ele>
<time>2015-04-25T18:36:20Z</time>
</trkpt>
<trkpt lat="35.0922611" lon="32.4955831">
<ele>19.91</ele>
<time>2015-04-25T18:36:21Z</time>
</trkpt>
<trkpt lat="35.0923084" lon="32.4956240">
<ele>19.92</ele>
<time>2015-04-25T18:36:22Z</time>
</trkpt>
<trkpt lat="35.0923585" lon="32.4956650">
<ele>20.42</ele>
<time>2015-04-25T18:36:23Z</time>
</trkpt>
<trkpt lat="35.0924123" lon="32.4957100">
<ele>20.67</ele>
<time>2015-04-25T18:36:24Z</time>
</trkpt>
<trkpt lat="35.0924594" lon="32.4957495">
<ele>20.80</ele>
<time>2015-04-25T18:36:25Z</time>
</trkpt>
<trkpt lat="35.0925084" lon="32.4957884">
<ele>20.86</ele>
<time>2015-04-25T18:36:26Z</time>
</trkpt>
<trkpt lat="35.0925522" lon="32.4958265">
<ele>20.89</ele>
<time>2015-04-25T18:36:27Z</time>
</trkpt>
<trkpt lat="35.0925971" lon="32.4958586">
<ele>20.91</ele>
<time>2015-04-25T18:36:28Z</time>
</trkpt>
<trkpt lat="35.0926429" lon="32.4958932">
<ele>20.92</ele>
<time>2015-04-25T18:36:29Z</time>
</trkpt>
<trkpt lat="35.0926812" lon="32.4959268">
<ele>21.42</ele>
<time>2015-04-25T18:36:30Z</time>
</trkpt>
<trkpt lat="35.0927256" lon="32.4959646">
<ele>21.67</ele>
<time>2015-04-25T18:36:31Z</time>
</trkpt>
<trkpt lat="35.0927774" lon="32.4960120">
<ele>21.80</ele>
<time>2015-04-25T18:36:32Z</time>
</trkpt>
<trkpt lat="35.0928213" lon="32.4960481">
<ele>21.86</ele>
<time>2015-04-25T18:36:33Z</time>
</trkpt>
<trkpt lat="35.0928723" lon="32.4960908">
<ele>21.89</ele>
<time>2015-04-25T18:36:34Z</time>
</trkpt>
<trkpt lat="35.0929182" lon="32.4961281">
<ele>21.91</ele>
<time>2015-04-25T18:36:35Z</time>
</trkpt>
<trkpt lat="35.0929630" lon="32.4961690">
<ele>21.92</ele>
<time>2015-04-25T18:36:36Z</time>
</trkpt>
<trkpt lat="35.0930125" lon="32.4962118">
<ele>21.92</ele>
<time>2015-04-25T18:36:37Z</time>
</trkpt>
<trkpt lat="35.0930642" lon="32.4962510">
<ele>21.92</ele>
<time>2015-04-25T18:36:38Z</time>
</trkpt>
<trkpt lat="35.0931152" lon="32.4962917">
<ele>21.92</ele>
<time>2015-04-25T18:36:39Z</time>
</trkpt>
<trkpt lat="35.0931676" lon="32.4963342">
<ele>21.92</ele>
<time>2015-04-25T18:36:40Z</time>
</trkpt>
<trkpt lat="35.0932148" lon="32.4963726">
<ele>21.92</ele>
<time>2015-04-25T18:36:41Z</time>
</trkpt>
<trkpt lat="35.0932660" lon="32.4964180">
<ele>21.92</ele>
<time>2015-04-25T18:36:42Z</time>
</trkpt>
<trkpt lat="35.0933125" lon="32.4964568">
<ele>21.92</ele>
<time>2015-04-25T18:36:43Z</time>
</trkpt>
<trkpt lat="35.0933618" lon="32.4964941">
<ele>21.92</ele>
<time>2015-04-25T18:36:44Z</time>
</trkpt>
<trkpt lat="35.0934112" lon="32.4965352">
<ele>21.92</ele>
<time>2015-04-25T18:36:45Z</time>
</trkpt>
<trkpt lat="35.0934626" lon="32.4965757">
<ele>21.92</ele>
<time>2015-04-25T18:36:46Z</time>
</trkpt>
<trkpt lat="35.0935114" lon="32.4966180">
<ele>21.92</ele>
<time>2015-04-25T18:36:47Z</time>
</trkpt>
<trkpt lat="35.0935640" lon="32.4966585">
<ele>21.92</ele>
<time>2015-04-25T18:36:48Z</time>
</trkpt>
<trkpt lat="35.0936102" lon="32.4966965">
<ele>21.92</ele>
<time>2015-04-25T18:36:49Z</time>
</trkpt>
<trkpt lat="35.0936561" lon="32.4967365">
<ele>21.92</ele>
<time>2015-04-25T18:36:50Z</time>
</trkpt>
<trkpt lat="35.0937032" lon="32.4967732">
<ele>21.92</ele>
<time>2015-04-25T18:36:51Z</time>
</trkpt>
<trkpt lat="35.0937397" lon="32.4968104">
<ele>21.42</ele>
<time>2015-04-25T18:36:52Z</time>
</trkpt>
<trkpt lat="35.0937888" lon="32.4968502">
<ele>21.17</ele>
<time>2015-04-25T18:36:53Z</time>
</trkpt>
<trkpt lat="35.0938360" lon="32.4968842">
<ele>21.55</ele>
<time>2015-04-25T18:36:54Z</time>
</trkpt>
<trkpt lat="35.0938844" lon="32.4969235">
<ele>21.74</ele>
<time>2015-04-25T18:36:55Z</time>
</trkpt>
<trkpt lat="35.0939391" lon="32.4969603">
<ele>21.83</ele>
<time>2015-04-25T18:36:56Z</time>
</trkpt>
<trkpt lat="35.0939867" lon="32.4969959">
<ele>21.88</ele>
<time>2015-04-25T18:36:57Z</time>
</trkpt>
<trkpt lat="35.0940396" lon="32.4970310">
<ele>21.90</ele>
<time>2015-04-25T18:36:58Z</time>
</trkpt>
<trkpt lat="35.0940873" lon="32.4970617">
<ele>21.91</ele>
<time>2015-04-25T18:36:59Z</time>
</trkpt>
<trkpt lat="35.0941358" lon="32.4970940">
<ele>21.92</ele>
<time>2015-04-25T18:37:00Z</time>
</trkpt>
<trkpt lat="35.0941872" lon="32.4971256">
<ele>21.92</ele>
<time>2015-04-25T18:37:01Z</time>
</trkpt>
<trkpt lat="35.0942420" lon="32.4971497">
<ele>21.42</ele>
<time>2015-04-25T18:37:02Z</time>
</trkpt>
<trkpt lat="35.0942955" lon="32.4971799">
<ele>21.17</ele>
<time>2015-04-25T18:37:03Z</time>
</trkpt>
<trkpt lat="35.0943464" lon="32.4972140">
<ele>21.55</ele>
<time>2015-04-25T18:37:04Z</time>
</trkpt>
<trkpt lat="35.0943958" lon="32.4972427">
<ele>21.74</ele>
<time>2015-04-25T18:37:05Z</time>
</trkpt>
<trkpt lat="35.0944583" lon="32.4972758">
<ele>21.83</ele>
<time>2015-04-25T18:37:06Z</time>
</trkpt>
<trkpt lat="35.0945107" lon="32.4973032">
<ele>21.88</ele>
<time>2015-04-25T18:37:07Z</time>
</trkpt>
<trkpt lat="35.0945599" lon="32.4973306">
<ele>21.90</ele>
<time>2015-04-25T18:37:08Z</time>
</trkpt>
<trkpt lat="35.0946163" lon="32.4973638">
<ele>22.41</ele>
<time>2015-04-25T18:37:09Z</time>
</trkpt>
<trkpt lat="35.0946641" lon="32.4973937">
<ele>22.67</ele>
<time>2015-04-25T18:37:10Z</time>
</trkpt>
<trkpt lat="35.0947173" lon="32.4974248">
<ele>22.80</ele>
<time>2015-04-25T18:37:11Z</time>
</trkpt>
<trkpt lat="35.0947698" lon="32.4974544">
<ele>22.36</ele>
<time>2015-04-25T18:37:12Z</time>
</trkpt>
<trkpt lat="35.0948185" lon="32.4974826">
<ele>22.14</ele>
<time>2015-04-25T18:37:13Z</time>
</trkpt>
<trkpt lat="35.0948674" lon="32.4975122">
<ele>22.53</ele>
<time>2015-04-25T18:37:14Z</time>
</trkpt>
<trkpt lat="35.0949141" lon="32.4975375">
<ele>22.73</ele>
<time>2015-04-25T18:37:15Z</time>
</trkpt>
<trkpt lat="35.0949576" lon="32.4975612">
<ele>22.83</ele>
<time>2015-04-25T18:37:16Z</time>
</trkpt>
<trkpt lat="35.0950041" lon="32.4975869">
<ele>22.88</ele>
<time>2015-04-25T18:37:17Z</time>
</trkpt>
<trkpt lat="35.0950495" lon="32.4976088">
<ele>22.90</ele>
<time>2015-04-25T18:37:18Z</time>
</trkpt>
<trkpt lat="35.0951004" lon="32.4976251">
<ele>22.91</ele>
<time>2015-04-25T18:37:19Z</time>
</trkpt>
<trkpt lat="35.0951549" lon="32.4976493">
<ele>23.42</ele>
<time>2015-04-25T18:37:20Z</time>
</trkpt>
<trkpt lat="35.0952165" lon="32.4976754">
<ele>23.67</ele>
<time>2015-04-25T18:37:21Z</time>
</trkpt>
<trkpt lat="35.0952681" lon="32.4977088">
<ele>23.80</ele>
<time>2015-04-25T18:37:22Z</time>
</trkpt>
<trkpt lat="35.0953168" lon="32.4977400">
<ele>23.36</ele>
<time>2015-04-25T18:37:23Z</time>
</trkpt>
<trkpt lat="35.0953657" lon="32.4977696">
<ele>23.14</ele>
<time>2015-04-25T18:37:24Z</time>
</trkpt>
<trkpt lat="35.0954185" lon="32.4978008">
<ele>23.03</ele>
<time>2015-04-25T18:37:25Z</time>
</trkpt>
<trkpt lat="35.0954762" lon="32.4978402">
<ele>22.48</ele>
<time>2015-04-25T18:37:26Z</time>
</trkpt>
<trkpt lat="35.0955342" lon="32.4978758">
<ele>21.70</ele>
<time>2015-04-25T18:37:27Z</time>
</trkpt>
<trkpt lat="35.0955932" lon="32.4979138">
<ele>21.31</ele>
<time>2015-04-25T18:37:28Z</time>
</trkpt>
<trkpt lat="35.0956495" lon="32.4979507">
<ele>20.62</ele>
<time>2015-04-25T18:37:29Z</time>
</trkpt>
<trkpt lat="35.0957076" lon="32.4979905">
<ele>20.27</ele>
<time>2015-04-25T18:37:30Z</time>
</trkpt>
<trkpt lat="35.0957630" lon="32.4980235">
<ele>20.10</ele>
<time>2015-04-25T18:37:31Z</time>
</trkpt>
<trkpt lat="35.0958326" lon="32.4980632">
<ele>19.51</ele>
<time>2015-04-25T18:37:32Z</time>
</trkpt>
<trkpt lat="35.0959090" lon="32.4981064">
<ele>19.22</ele>
<time>2015-04-25T18:37:33Z</time>
</trkpt>
<trkpt lat="35.0959705" lon="32.4981405">
<ele>19.07</ele>
<time>2015-04-25T18:37:34Z</time>
</trkpt>
<trkpt lat="35.0960325" lon="32.4981770">
<ele>19.00</ele>
<time>2015-04-25T18:37:35Z</time>
</trkpt>
<trkpt lat="35.0961006" lon="32.4982235">
<ele>18.46</ele>
<time>2015-04-25T18:37:36Z</time>
</trkpt>
<trkpt lat="35.0961620" lon="32.4982722">
<ele>18.19</ele>
<time>2015-04-25T18:37:37Z</time>
</trkpt>
<trkpt lat="35.0962308" lon="32.4983163">
<ele>17.56</ele>
<time>2015-04-25T18:37:38Z</time>
</trkpt>
<trkpt lat="35.0962939" lon="32.4983627">
<ele>17.24</ele>
<time>2015-04-25T18:37:39Z</time>
</trkpt>
<trkpt lat="35.0963610" lon="32.4984116">
<ele>17.08</ele>
<time>2015-04-25T18:37:40Z</time>
</trkpt>
<trkpt lat="35.0964223" lon="32.4984458">
<ele>17.50</ele>
<time>2015-04-25T18:37:41Z</time>
</trkpt>
<trkpt lat="35.0964991" lon="32.4984790">
<ele>17.21</ele>
<time>2015-04-25T18:37:42Z</time>
</trkpt>
<trkpt lat="35.0965602" lon="32.4985165">
<ele>17.07</ele>
<time>2015-04-25T18:37:43Z</time>
</trkpt>
<trkpt lat="35.0966334" lon="32.4985674">
<ele>17.00</ele>
<time>2015-04-25T18:37:44Z</time>
</trkpt>
<trkpt lat="35.0967027" lon="32.4986086">
<ele>17.96</ele>
<time>2015-04-25T18:37:45Z</time>
</trkpt>
<trkpt lat="35.0967655" lon="32.4986475">
<ele>17.94</ele>
<time>2015-04-25T18:37:46Z</time>
</trkpt>
<trkpt lat="35.0968241" lon="32.4986932">
<ele>18.43</ele>
<time>2015-04-25T18:37:47Z</time>
</trkpt>
<trkpt lat="35.0968878" lon="32.4987420">
<ele>18.68</ele>
<time>2015-04-25T18:37:48Z</time>
</trkpt>
<trkpt lat="35.0969480" lon="32.4987854">
<ele>18.80</ele>
<time>2015-04-25T18:37:49Z</time>
</trkpt>
<trkpt lat="35.0970052" lon="32.4988248">
<ele>19.36</ele>
<time>2015-04-25T18:37:50Z</time>
</trkpt>
<trkpt lat="35.0970516" lon="32.4988635">
<ele>19.64</ele>
<time>2015-04-25T18:37:51Z</time>
</trkpt>
<trkpt lat="35.0971084" lon="32.4989050">
<ele>20.28</ele>
<time>2015-04-25T18:37:52Z</time>
</trkpt>
<trkpt lat="35.0971653" lon="32.4989540">
<ele>20.60</ele>
<time>2015-04-25T18:37:53Z</time>
</trkpt>
<trkpt lat="35.0972402" lon="32.4989940">
<ele>21.26</ele>
<time>2015-04-25T18:37:54Z</time>
</trkpt>
<trkpt lat="35.0972870" lon="32.4990393">
<ele>21.09</ele>
<time>2015-04-25T18:37:55Z</time>
</trkpt>
<trkpt lat="35.0973550" lon="32.4990894">
<ele>21.01</ele>
<time>2015-04-25T18:37:56Z</time>
</trkpt>
<trkpt lat="35.0974097" lon="32.4991353">
<ele>20.97</ele>
<time>2015-04-25T18:37:57Z</time>
</trkpt>
<trkpt lat="35.0974621" lon="32.4991722">
<ele>20.95</ele>
<time>2015-04-25T18:37:58Z</time>
</trkpt>
<trkpt lat="35.0975252" lon="32.4992145">
<ele>21.44</ele>
<time>2015-04-25T18:37:59Z</time>
</trkpt>
<trkpt lat="35.0975837" lon="32.4992541">
<ele>21.68</ele>
<time>2015-04-25T18:38:00Z</time>
</trkpt>
<trkpt lat="35.0976354" lon="32.4992876">
<ele>21.30</ele>
<time>2015-04-25T18:38:01Z</time>
</trkpt>
<trkpt lat="35.0976848" lon="32.4993339">
<ele>20.61</ele>
<time>2015-04-25T18:38:02Z</time>
</trkpt>
<trkpt lat="35.0977374" lon="32.4993731">
<ele>20.27</ele>
<time>2015-04-25T18:38:03Z</time>
</trkpt>
<trkpt lat="35.0977940" lon="32.4994101">
<ele>20.60</ele>
<time>2015-04-25T18:38:04Z</time>
</trkpt>
<trkpt lat="35.0978541" lon="32.4994508">
<ele>20.26</ele>
<time>2015-04-25T18:38:05Z</time>
</trkpt>
<trkpt lat="35.0979091" lon="32.4994920">
<ele>20.09</ele>
<time>2015-04-25T18:38:06Z</time>
</trkpt>
<trkpt lat="35.0979714" lon="32.4995395">
<ele>20.01</ele>
<time>2015-04-25T18:38:07Z</time>
</trkpt>
<trkpt lat="35.0980307" lon="32.4995811">
<ele>19.97</ele>
<time>2015-04-25T18:38:08Z</time>
</trkpt>
<trkpt lat="35.0980954" lon="32.4996153">
<ele>19.95</ele>
<time>2015-04-25T18:38:09Z</time>
</trkpt>
<trkpt lat="35.0981577" lon="32.4996630">
<ele>19.94</ele>
<time>2015-04-25T18:38:10Z</time>
</trkpt>
<trkpt lat="35.0982159" lon="32.4997042">
<ele>20.43</ele>
<time>2015-04-25T18:38:11Z</time>
</trkpt>
<trkpt lat="35.0982830" lon="32.4997473">
<ele>20.18</ele>
<time>2015-04-25T18:38:12Z</time>
</trkpt>
<trkpt lat="35.0983489" lon="32.4997892">
<ele>20.05</ele>
<time>2015-04-25T18:38:13Z</time>
</trkpt>
<trkpt lat="35.0984066" lon="32.4998364">
<ele>20.49</ele>
<time>2015-04-25T18:38:14Z</time>
</trkpt>
<trkpt lat="35.0984702" lon="32.4998742">
<ele>20.71</ele>
<time>2015-04-25T18:38:15Z</time>
</trkpt>
<trkpt lat="35.0985281" lon="32.4999054">
<ele>21.32</ele>
<time>2015-04-25T18:38:16Z</time>
</trkpt>
<trkpt lat="35.0985832" lon="32.4999404">
<ele>21.62</ele>
<time>2015-04-25T18:38:17Z</time>
</trkpt>
<trkpt lat="35.0986416" lon="32.4999699">
<ele>22.27</ele>
<time>2015-04-25T18:38:18Z</time>
</trkpt>
<trkpt lat="35.0986905" lon="32.5000120">
<ele>22.60</ele>
<time>2015-04-25T18:38:19Z</time>
</trkpt>
<trkpt lat="35.0987589" lon="32.5000636">
<ele>22.76</ele>
<time>2015-04-25T18:38:20Z</time>
</trkpt>
<trkpt lat="35.0988077" lon="32.5001137">
<ele>22.84</ele>
<time>2015-04-25T18:38:21Z</time>
</trkpt>
<trkpt lat="35.0988620" lon="32.5001486">
<ele>23.38</ele>
<time>2015-04-25T18:38:22Z</time>
</trkpt>
<trkpt lat="35.0989217" lon="32.5001918">
<ele>23.65</ele>
<time>2015-04-25T18:38:23Z</time>
</trkpt>
<trkpt lat="35.0989760" lon="32.5002394">
<ele>23.79</ele>
<time>2015-04-25T18:38:24Z</time>
</trkpt>
<trkpt lat="35.0990415" lon="32.5002864">
<ele>23.86</ele>
<time>2015-04-25T18:38:25Z</time>
</trkpt>
<trkpt lat="35.0991072" lon="32.5003293">
<ele>23.89</ele>
<time>2015-04-25T18:38:26Z</time>
</trkpt>
<trkpt lat="35.0991700" lon="32.5003656">
<ele>23.91</ele>
<time>2015-04-25T18:38:27Z</time>
</trkpt>
<trkpt lat="35.0992370" lon="32.5004166">
<ele>23.92</ele>
<time>2015-04-25T18:38:28Z</time>
</trkpt>
<trkpt lat="35.0992990" lon="32.5004565">
<ele>24.42</ele>
<time>2015-04-25T18:38:29Z</time>
</trkpt>
<trkpt lat="35.0993420" lon="32.5004985">
<ele>24.67</ele>
<time>2015-04-25T18:38:30Z</time>
</trkpt>
<trkpt lat="35.0994019" lon="32.5005396">
<ele>24.80</ele>
<time>2015-04-25T18:38:31Z</time>
</trkpt>
<trkpt lat="35.0994491" lon="32.5005839">
<ele>24.36</ele>
<time>2015-04-25T18:38:32Z</time>
</trkpt>
<trkpt lat="35.0995117" lon="32.5006172">
<ele>24.14</ele>
<time>2015-04-25T18:38:33Z</time>
</trkpt>
<trkpt lat="35.0995714" lon="32.5006542">
<ele>24.53</ele>
<time>2015-04-25T18:38:34Z</time>
</trkpt>
<trkpt lat="35.0996236" lon="32.5006953">
<ele>24.73</ele>
<time>2015-04-25T18:38:35Z</time>
</trkpt>
<trkpt lat="35.0996958" lon="32.5007282">
<ele>24.33</ele>
<time>2015-04-25T18:38:36Z</time>
</trkpt>
<trkpt lat="35.0997623" lon="32.5007730">
<ele>24.13</ele>
<time>2015-04-25T18:38:37Z</time>
</trkpt>
<trkpt lat="35.0998283" lon="32.5008142">
<ele>24.03</ele>
<time>2015-04-25T18:38:38Z</time>
</trkpt>
<trkpt lat="35.0998860" lon="32.5008553">
<ele>23.98</ele>
<time>2015-04-25T18:38:39Z</time>
</trkpt>
<trkpt lat="35.0999508" lon="32.5009058">
<ele>24.45</ele>
<time>2015-04-25T18:38:40Z</time>
</trkpt>
<trkpt lat="35.1000176" lon="32.5009537">
<ele>24.69</ele>
<time>2015-04-25T18:38:41Z</time>
</trkpt>
<trkpt lat="35.1000799" lon="32.5010045">
<ele>24.81</ele>
<time>2015-04-25T18:38:42Z</time>
</trkpt>
<trkpt lat="35.1001414" lon="32.5010487">
<ele>24.87</ele>
<time>2015-04-25T18:38:43Z</time>
</trkpt>
<trkpt lat="35.1002002" lon="32.5010993">
<ele>24.40</ele>
<time>2015-04-25T18:38:44Z</time>
</trkpt>
<trkpt lat="35.1002547" lon="32.5011361">
<ele>24.16</ele>
<time>2015-04-25T18:38:45Z</time>
</trkpt>
<trkpt lat="35.1003068" lon="32.5011788">
<ele>23.54</ele>
<time>2015-04-25T18:38:46Z</time>
</trkpt>
<trkpt lat="35.1003653" lon="32.5012242">
<ele>23.23</ele>
<time>2015-04-25T18:38:47Z</time>
</trkpt>
<trkpt lat="35.1004339" lon="32.5012690">
<ele>23.58</ele>
<time>2015-04-25T18:38:48Z</time>
</trkpt>
<trkpt lat="35.1004983" lon="32.5013057">
<ele>23.75</ele>
<time>2015-04-25T18:38:49Z</time>
</trkpt>
<trkpt lat="35.1005582" lon="32.5013507">
<ele>23.84</ele>
<time>2015-04-25T18:38:50Z</time>
</trkpt>
<trkpt lat="35.1006184" lon="32.5013942">
<ele>23.88</ele>
<time>2015-04-25T18:38:51Z</time>
</trkpt>
<trkpt lat="35.1006664" lon="32.5014398">
<ele>23.90</ele>
<time>2015-04-25T18:38:52Z</time>
</trkpt>
<trkpt lat="35.1007281" lon="32.5014836">
<ele>23.91</ele>
<time>2015-04-25T18:38:53Z</time>
</trkpt>
<trkpt lat="35.1007869" lon="32.5015229">
<ele>23.92</ele>
<time>2015-04-25T18:38:54Z</time>
</trkpt>
<trkpt lat="35.1008472" lon="32.5015560">
<ele>24.42</ele>
<time>2015-04-25T18:38:55Z</time>
</trkpt>
<trkpt lat="35.1009070" lon="32.5015908">
<ele>25.17</ele>
<time>2015-04-25T18:38:56Z</time>
</trkpt>
<trkpt lat="35.1009658" lon="32.5016274">
<ele>25.05</ele>
<time>2015-04-25T18:38:57Z</time>
</trkpt>
<trkpt lat="35.1010250" lon="32.5016608">
<ele>24.99</ele>
<time>2015-04-25T18:38:58Z</time>
</trkpt>
<trkpt lat="35.1010820" lon="32.5017012">
<ele>24.96</ele>
<time>2015-04-25T18:38:59Z</time>
</trkpt>
<trkpt lat="35.1011527" lon="32.5017332">
<ele>25.44</ele>
<time>2015-04-25T18:39:00Z</time>
</trkpt>
<trkpt lat="35.1012120" lon="32.5017721">
<ele>26.18</ele>
<time>2015-04-25T18:39:01Z</time>
</trkpt>
<trkpt lat="35.1012647" lon="32.5018117">
<ele>26.55</ele>
<time>2015-04-25T18:39:02Z</time>
</trkpt>
<trkpt lat="35.1013258" lon="32.5018538">
<ele>26.74</ele>
<time>2015-04-25T18:39:03Z</time>
</trkpt>
<trkpt lat="35.1013840" lon="32.5018958">
<ele>26.83</ele>
<time>2015-04-25T18:39:04Z</time>
</trkpt>
<trkpt lat="35.1014436" lon="32.5019322">
<ele>26.88</ele>
<time>2015-04-25T18:39:05Z</time>
</trkpt>
<trkpt lat="35.1014918" lon="32.5019740">
<ele>26.90</ele>
<time>2015-04-25T18:39:06Z</time>
</trkpt>
<trkpt lat="35.1015446" lon="32.5019986">
<ele>26.41</ele>
<time>2015-04-25T18:39:07Z</time>
</trkpt>
<trkpt lat="35.1016002" lon="32.5020300">
<ele>26.17</ele>
<time>2015-04-25T18:39:08Z</time>
</trkpt>
<trkpt lat="35.1016546" lon="32.5020553">
<ele>26.05</ele>
<time>2015-04-25T18:39:09Z</time>
</trkpt>
<trkpt lat="35.1017113" lon="32.5020876">
<ele>25.99</ele>
<time>2015-04-25T18:39:10Z</time>
</trkpt>
<trkpt lat="35.1017781" lon="32.5021290">
<ele>26.46</ele>
<time>2015-04-25T18:39:11Z</time>
</trkpt>
<trkpt lat="35.1018296" lon="32.5021674">
<ele>26.19</ele>
<time>2015-04-25T18:39:12Z</time>
</trkpt>
<trkpt lat="35.1018830" lon="32.5022028">
<ele>26.06</ele>
<time>2015-04-25T18:39:13Z</time>
</trkpt>
<trkpt lat="35.1019407" lon="32.5022313">
<ele>26.49</ele>
<time>2015-04-25T18:39:14Z</time>
</trkpt>
<trkpt lat="35.1019942" lon="32.5022614">
<ele>26.21</ele>
<time>2015-04-25T18:39:15Z</time>
</trkpt>
<trkpt lat="35.1020575" lon="32.5022971">
<ele>26.07</ele>
<time>2015-04-25T18:39:16Z</time>
</trkpt>
<trkpt lat="35.1021158" lon="32.5023334">
<ele>26.00</ele>
<time>2015-04-25T18:39:17Z</time>
</trkpt>
<trkpt lat="35.1021740" lon="32.5023631">
<ele>25.96</ele>
<time>2015-04-25T18:39:18Z</time>
</trkpt>
<trkpt lat="35.1022339" lon="32.5023952">
<ele>25.94</ele>
<time>2015-04-25T18:39:19Z</time>
</trkpt>
<trkpt lat="35.1022884" lon="32.5024309">
<ele>25.93</ele>
<time>2015-04-25T18:39:20Z</time>
</trkpt>
<trkpt lat="35.1023441" lon="32.5024688">
<ele>25.93</ele>
<time>2015-04-25T18:39:21Z</time>
</trkpt>
<trkpt lat="35.1023942" lon="32.5025099">
<ele>25.93</ele>
<time>2015-04-25T18:39:22Z</time>
</trkpt>
<trkpt lat="35.1024475" lon="32.5025364">
<ele>25.93</ele>
<time>2015-04-25T18:39:23Z</time>
</trkpt>
<trkpt lat="35.1025029" lon="32.5025679">
<ele>25.93</ele>
<time>2015-04-25T18:39:24Z</time>
</trkpt>
<trkpt lat="35.1025629" lon="32.5025985">
<ele>25.93</ele>
<time>2015-04-25T18:39:25Z</time>
</trkpt>
<trkpt lat="35.1026097" lon="32.5026142">
<ele>25.93</ele>
<time>2015-04-25T18:39:26Z</time>
</trkpt>
<trkpt lat="35.1026654" lon="32.5026457">
<ele>25.93</ele>
<time>2015-04-25T18:39:27Z</time>
</trkpt>
<trkpt lat="35.1027212" lon="32.5026729">
<ele>25.93</ele>
<time>2015-04-25T18:39:28Z</time>
</trkpt>
<trkpt lat="35.1027647" lon="32.5026997">
<ele>25.93</ele>
<time>2015-04-25T18:39:29Z</time>
</trkpt>
<trkpt lat="35.1028114" lon="32.5027413">
<ele>25.43</ele>
<time>2015-04-25T18:39:30Z</time>
</trkpt>
<trkpt lat="35.1028526" lon="32.5027731">
<ele>24.68</ele>
<time>2015-04-25T18:39:31Z</time>
</trkpt>
<trkpt lat="35.1029147" lon="32.5028176">
<ele>24.30</ele>
<time>2015-04-25T18:39:32Z</time>
</trkpt>
<trkpt lat="35.1029694" lon="32.5028530">
<ele>24.61</ele>
<time>2015-04-25T18:39:33Z</time>
</trkpt>
<trkpt lat="35.1030136" lon="32.5028821">
<ele>24.77</ele>
<time>2015-04-25T18:39:34Z</time>
</trkpt>
<trkpt lat="35.1030636" lon="32.5029184">
<ele>24.85</ele>
<time>2015-04-25T18:39:35Z</time>
</trkpt>
<trkpt lat="35.1031150" lon="32.5029604">
<ele>24.39</ele>
<time>2015-04-25T18:39:36Z</time>
</trkpt>
<trkpt lat="35.1031612" lon="32.5029933">
<ele>24.66</ele>
<time>2015-04-25T18:39:37Z</time>
</trkpt>
<trkpt lat="35.1032207" lon="32.5030268">
<ele>24.79</ele>
<time>2015-04-25T18:39:38Z</time>
</trkpt>
<trkpt lat="35.1032687" lon="32.5030647">
<ele>24.86</ele>
<time>2015-04-25T18:39:39Z</time>
</trkpt>
<trkpt lat="35.1033220" lon="32.5031045">
<ele>24.89</ele>
<time>2015-04-25T18:39:40Z</time>
</trkpt>
<trkpt lat="35.1033759" lon="32.5031396">
<ele>24.41</ele>
<time>2015-04-25T18:39:41Z</time>
</trkpt>
<trkpt lat="35.1034218" lon="32.5031760">
<ele>24.17</ele>
<time>2015-04-25T18:39:42Z</time>
</trkpt>
<trkpt lat="35.1034718" lon="32.5032193">
<ele>24.05</ele>
<time>2015-04-25T18:39:43Z</time>
</trkpt>
<trkpt lat="35.1035233" lon="32.5032587">
<ele>23.99</ele>
<time>2015-04-25T18:39:44Z</time>
</trkpt>
<trkpt lat="35.1035742" lon="32.5032976">
<ele>23.96</ele>
<time>2015-04-25T18:39:45Z</time>
</trkpt>
<trkpt lat="35.1036196" lon="32.5033312">
<ele>23.94</ele>
<time>2015-04-25T18:39:46Z</time>
</trkpt>
<trkpt lat="35.1036643" lon="32.5033637">
<ele>24.43</ele>
<time>2015-04-25T18:39:47Z</time>
</trkpt>
<trkpt lat="35.1037142" lon="32.5034051">
<ele>24.68</ele>
<time>2015-04-25T18:39:48Z</time>
</trkpt>
<trkpt lat="35.1037651" lon="32.5034458">
<ele>24.80</ele>
<time>2015-04-25T18:39:49Z</time>
</trkpt>
<trkpt lat="35.1038124" lon="32.5034714">
<ele>25.36</ele>
<time>2015-04-25T18:39:50Z</time>
</trkpt>
<trkpt lat="35.1038580" lon="32.5035041">
<ele>25.64</ele>
<time>2015-04-25T18:39:51Z</time>
</trkpt>
<trkpt lat="35.1039051" lon="32.5035386">
<ele>25.78</ele>
<time>2015-04-25T18:39:52Z</time>
</trkpt>
<trkpt lat="35.1039497" lon="32.5035686">
<ele>25.85</ele>
<time>2015-04-25T18:39:53Z</time>
</trkpt>
<trkpt lat="35.1039949" lon="32.5035927">
<ele>26.89</ele>
<time>2015-04-25T18:39:54Z</time>
</trkpt>
<trkpt lat="35.1040410" lon="32.5036231">
<ele>27.41</ele>
<time>2015-04-25T18:39:55Z</time>
</trkpt>
<trkpt lat="35.1040929" lon="32.5036546">
<ele>27.67</ele>
<time>2015-04-25T18:39:56Z</time>
</trkpt>
<trkpt lat="35.1041462" lon="32.5036801">
<ele>27.80</ele>
<time>2015-04-25T18:39:57Z</time>
</trkpt>
<trkpt lat="35.1041832" lon="32.5037170">
<ele>27.36</ele>
<time>2015-04-25T18:39:58Z</time>
</trkpt>
<trkpt lat="35.1042381" lon="32.5037399">
<ele>27.14</ele>
<time>2015-04-25T18:39:59Z</time>
</trkpt>
<trkpt lat="35.1043000" lon="32.5037681">
<ele>27.03</ele>
<time>2015-04-25T18:40:00Z</time>
</trkpt>
<trkpt lat="35.1043614" lon="32.5037931">
<ele>26.48</ele>
<time>2015-04-25T18:40:01Z</time>
</trkpt>
<trkpt lat="35.1044267" lon="32.5038101">
<ele>26.20</ele>
<time>2015-04-25T18:40:02Z</time>
</trkpt>
<trkpt lat="35.1044849" lon="32.5038333">
<ele>26.06</ele>
<time>2015-04-25T18:40:03Z</time>
</trkpt>
<trkpt lat="35.1045559" lon="32.5038524">
<ele>25.99</ele>
<time>2015-04-25T18:40:04Z</time>
</trkpt>
<trkpt lat="35.1046337" lon="32.5038721">
<ele>25.96</ele>
<time>2015-04-25T18:40:05Z</time>
</trkpt>
<trkpt lat="35.1047001" lon="32.5038920">
<ele>25.94</ele>
<time>2015-04-25T18:40:06Z</time>
</trkpt>
<trkpt lat="35.1047657" lon="32.5039083">
<ele>25.93</ele>
<time>2015-04-25T18:40:07Z</time>
</trkpt>
<trkpt lat="35.1048253" lon="32.5039207">
<ele>25.93</ele>
<time>2015-04-25T18:40:08Z</time>
</trkpt>
<trkpt lat="35.1048887" lon="32.5039335">
<ele>25.93</ele>
<time>2015-04-25T18:40:09Z</time>
</trkpt>
<trkpt lat="35.1049578" lon="32.5039438">
<ele>26.43</ele>
<time>2015-04-25T18:40:10Z</time>
</trkpt>
<trkpt lat="35.1050168" lon="32.5039505">
<ele>26.68</ele>
<time>2015-04-25T18:40:11Z</time>
</trkpt>
<trkpt lat="35.1050884" lon="32.5039688">
<ele>26.80</ele>
<time>2015-04-25T18:40:12Z</time>
</trkpt>
<trkpt lat="35.1051565" lon="32.5039805">
<ele>26.36</ele>
<time>2015-04-25T18:40:13Z</time>
</trkpt>
<trkpt lat="35.1052128" lon="32.5039949">
<ele>26.14</ele>
<time>2015-04-25T18:40:14Z</time>
</trkpt>
<trkpt lat="35.1052710" lon="32.5040057">
<ele>26.03</ele>
<time>2015-04-25T18:40:15Z</time>
</trkpt>
<trkpt lat="35.1053429" lon="32.5040140">
<ele>25.48</ele>
<time>2015-04-25T18:40:16Z</time>
</trkpt>
<trkpt lat="35.1054162" lon="32.5040277">
<ele>25.20</ele>
<time>2015-04-25T18:40:17Z</time>
</trkpt>
<trkpt lat="35.1054758" lon="32.5040466">
<ele>25.06</ele>
<time>2015-04-25T18:40:18Z</time>
</trkpt>
<trkpt lat="35.1055341" lon="32.5040686">
<ele>24.99</ele>
<time>2015-04-25T18:40:19Z</time>
</trkpt>
<trkpt lat="35.1056036" lon="32.5040843">
<ele>24.96</ele>
<time>2015-04-25T18:40:20Z</time>
</trkpt>
<trkpt lat="35.1056596" lon="32.5041089">
<ele>24.94</ele>
<time>2015-04-25T18:40:21Z</time>
</trkpt>
<trkpt lat="35.1057222" lon="32.5041379">
<ele>24.93</ele>
<time>2015-04-25T18:40:22Z</time>
</trkpt>
<trkpt lat="35.1057764" lon="32.5041696">
<ele>24.93</ele>
<time>2015-04-25T18:40:23Z</time>
</trkpt>
<trkpt lat="35.1058402" lon="32.5042108">
<ele>24.93</ele>
<time>2015-04-25T18:40:24Z</time>
</trkpt>
<trkpt lat="35.1059030" lon="32.5042570">
<ele>25.43</ele>
<time>2015-04-25T18:40:25Z</time>
</trkpt>
<trkpt lat="35.1059589" lon="32.5042982">
<ele>25.18</ele>
<time>2015-04-25T18:40:26Z</time>
</trkpt>
<trkpt lat="35.1060102" lon="32.5043345">
<ele>25.05</ele>
<time>2015-04-25T18:40:27Z</time>
</trkpt>
<trkpt lat="35.1060692" lon="32.5043656">
<ele>24.99</ele>
<time>2015-04-25T18:40:28Z</time>
</trkpt>
<trkpt lat="35.1061367" lon="32.5044038">
<ele>25.96</ele>
<time>2015-04-25T18:40:29Z</time>
</trkpt>
<trkpt lat="35.1061906" lon="32.5044358">
<ele>26.44</ele>
<time>2015-04-25T18:40:30Z</time>
</trkpt>
<trkpt lat="35.1062364" lon="32.5044708">
<ele>26.68</ele>
<time>2015-04-25T18:40:31Z</time>
</trkpt>
<trkpt lat="35.1062914" lon="32.5045052">
<ele>26.80</ele>
<time>2015-04-25T18:40:32Z</time>
</trkpt>
<trkpt lat="35.1063409" lon="32.5045390">
<ele>26.86</ele>
<time>2015-04-25T18:40:33Z</time>
</trkpt>
<trkpt lat="35.1063843" lon="32.5045744">
<ele>26.89</ele>
<time>2015-04-25T18:40:34Z</time>
</trkpt>
<trkpt lat="35.1064263" lon="32.5046051">
<ele>26.91</ele>
<time>2015-04-25T18:40:35Z</time>
</trkpt>
<trkpt lat="35.1064880" lon="32.5046370">
<ele>26.92</ele>
<time>2015-04-25T18:40:36Z</time>
</trkpt>
<trkpt lat="35.1065343" lon="32.5046747">
<ele>26.92</ele>
<time>2015-04-25T18:40:37Z</time>
</trkpt>
<trkpt lat="35.1065894" lon="32.5047150">
<ele>26.42</ele>
<time>2015-04-25T18:40:38Z</time>
</trkpt>
<trkpt lat="35.1066366" lon="32.5047519">
<ele>26.17</ele>
<time>2015-04-25T18:40:39Z</time>
</trkpt>
<trkpt lat="35.1066900" lon="32.5047917">
<ele>26.05</ele>
<time>2015-04-25T18:40:40Z</time>
</trkpt>
<trkpt lat="35.1067384" lon="32.5048264">
<ele>25.49</ele>
<time>2015-04-25T18:40:41Z</time>
</trkpt>
<trkpt lat="35.1067957" lon="32.5048526">
<ele>25.21</ele>
<time>2015-04-25T18:40:42Z</time>
</trkpt>
<trkpt lat="35.1068441" lon="32.5048862">
<ele>25.07</ele>
<time>2015-04-25T18:40:43Z</time>
</trkpt>
<trkpt lat="35.1068866" lon="32.5049238">
<ele>25.00</ele>
<time>2015-04-25T18:40:44Z</time>
</trkpt>
<trkpt lat="35.1069363" lon="32.5049465">
<ele>24.46</ele>
<time>2015-04-25T18:40:45Z</time>
</trkpt>
<trkpt lat="35.1069778" lon="32.5049775">
<ele>23.69</ele>
<time>2015-04-25T18:40:46Z</time>
</trkpt>
<trkpt lat="35.1070220" lon="32.5050150">
<ele>23.81</ele>
<time>2015-04-25T18:40:47Z</time>
</trkpt>
<trkpt lat="35.1070675" lon="32.5050518">
<ele>23.87</ele>
<time>2015-04-25T18:40:48Z</time>
</trkpt>
<trkpt lat="35.1071395" lon="32.5050990">
<ele>24.66</ele>
<time>2015-04-25T18:40:50Z</time>
</trkpt>
<trkpt lat="35.1072153" lon="32.5051420">
<ele>24.86</ele>
<time>2015-04-25T18:40:52Z</time>
</trkpt>
<trkpt lat="35.1072586" lon="32.5051754">
<ele>24.39</ele>
<time>2015-04-25T18:40:53Z</time>
</trkpt>
<trkpt lat="35.1073360" lon="32.5052267">
<ele>24.29</ele>
<time>2015-04-25T18:40:55Z</time>
</trkpt>
<trkpt lat="35.1073825" lon="32.5052493">
<ele>24.11</ele>
<time>2015-04-25T18:40:56Z</time>
</trkpt>
<trkpt lat="35.1074400" lon="32.5052692">
<ele>25.02</ele>
<time>2015-04-25T18:40:57Z</time>
</trkpt>
<trkpt lat="35.1074929" lon="32.5052920">
<ele>25.47</ele>
<time>2015-04-25T18:40:58Z</time>
</trkpt>
<trkpt lat="35.1075348" lon="32.5053244">
<ele>25.70</ele>
<time>2015-04-25T18:40:59Z</time>
</trkpt>
<trkpt lat="35.1075832" lon="32.5053571">
<ele>25.31</ele>
<time>2015-04-25T18:41:00Z</time>
</trkpt>
<trkpt lat="35.1076263" lon="32.5053898">
<ele>24.62</ele>
<time>2015-04-25T18:41:01Z</time>
</trkpt>
<trkpt lat="35.1076638" lon="32.5054206">
<ele>24.27</ele>
<time>2015-04-25T18:41:02Z</time>
</trkpt>
<trkpt lat="35.1077107" lon="32.5054364">
<ele>23.60</ele>
<time>2015-04-25T18:41:03Z</time>
</trkpt>
<trkpt lat="35.1077842" lon="32.5054891">
<ele>23.09</ele>
<time>2015-04-25T18:41:05Z</time>
</trkpt>
<trkpt lat="35.1078251" lon="32.5055215">
<ele>23.01</ele>
<time>2015-04-25T18:41:06Z</time>
</trkpt>
<trkpt lat="35.1078678" lon="32.5055450">
<ele>23.47</ele>
<time>2015-04-25T18:41:07Z</time>
</trkpt>
<trkpt lat="35.1079234" lon="32.5055774">
<ele>23.70</ele>
<time>2015-04-25T18:41:08Z</time>
</trkpt>
<trkpt lat="35.1079783" lon="32.5056179">
<ele>23.81</ele>
<time>2015-04-25T18:41:09Z</time>
</trkpt>
<trkpt lat="35.1080354" lon="32.5056664">
<ele>23.87</ele>
<time>2015-04-25T18:41:10Z</time>
</trkpt>
<trkpt lat="35.1080890" lon="32.5057149">
<ele>23.40</ele>
<time>2015-04-25T18:41:11Z</time>
</trkpt>
<trkpt lat="35.1081409" lon="32.5057573">
<ele>23.16</ele>
<time>2015-04-25T18:41:12Z</time>
</trkpt>
<trkpt lat="35.1081981" lon="32.5057947">
<ele>23.54</ele>
<time>2015-04-25T18:41:13Z</time>
</trkpt>
<trkpt lat="35.1082594" lon="32.5058335">
<ele>23.23</ele>
<time>2015-04-25T18:41:14Z</time>
</trkpt>
<trkpt lat="35.1083104" lon="32.5058735">
<ele>23.58</ele>
<time>2015-04-25T18:41:15Z</time>
</trkpt>
<trkpt lat="35.1083674" lon="32.5059104">
<ele>23.75</ele>
<time>2015-04-25T18:41:16Z</time>
</trkpt>
<trkpt lat="35.1084203" lon="32.5059475">
<ele>23.84</ele>
<time>2015-04-25T18:41:17Z</time>
</trkpt>
<trkpt lat="35.1084696" lon="32.5059852">
<ele>23.38</ele>
<time>2015-04-25T18:41:18Z</time>
</trkpt>
<trkpt lat="35.1085243" lon="32.5060270">
<ele>23.65</ele>
<time>2015-04-25T18:41:19Z</time>
</trkpt>
<trkpt lat="35.1085738" lon="32.5060698">
<ele>23.29</ele>
<time>2015-04-25T18:41:20Z</time>
</trkpt>
<trkpt lat="35.1086283" lon="32.5061106">
<ele>23.61</ele>
<time>2015-04-25T18:41:21Z</time>
</trkpt>
<trkpt lat="35.1086797" lon="32.5061429">
<ele>23.77</ele>
<time>2015-04-25T18:41:22Z</time>
</trkpt>
<trkpt lat="35.1087391" lon="32.5061766">
<ele>23.85</ele>
<time>2015-04-25T18:41:23Z</time>
</trkpt>
<trkpt lat="35.1087988" lon="32.5062158">
<ele>24.39</ele>
<time>2015-04-25T18:41:24Z</time>
</trkpt>
<trkpt lat="35.1088514" lon="32.5062505">
<ele>25.16</ele>
<time>2015-04-25T18:41:25Z</time>
</trkpt>
<trkpt lat="35.1089118" lon="32.5062837">
<ele>25.54</ele>
<time>2015-04-25T18:41:26Z</time>
</trkpt>
<trkpt lat="35.1089624" lon="32.5063282">
<ele>25.23</ele>
<time>2015-04-25T18:41:27Z</time>
</trkpt>
<trkpt lat="35.1090192" lon="32.5063758">
<ele>25.08</ele>
<time>2015-04-25T18:41:28Z</time>
</trkpt>
<trkpt lat="35.1090794" lon="32.5064096">
<ele>25.00</ele>
<time>2015-04-25T18:41:29Z</time>
</trkpt>
<trkpt lat="35.1091330" lon="32.5064473">
<ele>24.96</ele>
<time>2015-04-25T18:41:30Z</time>
</trkpt>
<trkpt lat="35.1091817" lon="32.5064829">
<ele>25.44</ele>
<time>2015-04-25T18:41:31Z</time>
</trkpt>
<trkpt lat="35.1092255" lon="32.5065289">
<ele>26.68</ele>
<time>2015-04-25T18:41:32Z</time>
</trkpt>
<trkpt lat="35.1092683" lon="32.5065591">
<ele>27.30</ele>
<time>2015-04-25T18:41:33Z</time>
</trkpt>
<trkpt lat="35.1093169" lon="32.5065884">
<ele>27.61</ele>
<time>2015-04-25T18:41:34Z</time>
</trkpt>
<trkpt lat="35.1093599" lon="32.5066170">
<ele>27.77</ele>
<time>2015-04-25T18:41:35Z</time>
</trkpt>
<trkpt lat="35.1094395" lon="32.5066723">
<ele>27.89</ele>
<time>2015-04-25T18:41:37Z</time>
</trkpt>
<trkpt lat="35.1094870" lon="32.5067035">
<ele>27.91</ele>
<time>2015-04-25T18:41:38Z</time>
</trkpt>
<trkpt lat="35.1095677" lon="32.5067634">
<ele>27.17</ele>
<time>2015-04-25T18:41:40Z</time>
</trkpt>
<trkpt lat="35.1096464" lon="32.5068115">
<ele>27.49</ele>
<time>2015-04-25T18:41:42Z</time>
</trkpt>
<trkpt lat="35.1097234" lon="32.5068638">
<ele>27.32</ele>
<time>2015-04-25T18:41:44Z</time>
</trkpt>
<trkpt lat="35.1097789" lon="32.5069097">
<ele>27.02</ele>
<time>2015-04-25T18:41:46Z</time>
</trkpt>
<trkpt lat="35.1098473" lon="32.5069483">
<ele>26.20</ele>
<time>2015-04-25T18:41:48Z</time>
</trkpt>
<trkpt lat="35.1099218" lon="32.5069912">
<ele>25.99</ele>
<time>2015-04-25T18:41:50Z</time>
</trkpt>
<trkpt lat="35.1099660" lon="32.5070164">
<ele>25.96</ele>
<time>2015-04-25T18:41:51Z</time>
</trkpt>
<trkpt lat="35.1100076" lon="32.5070459">
<ele>26.44</ele>
<time>2015-04-25T18:41:52Z</time>
</trkpt>
<trkpt lat="35.1100724" lon="32.5071065">
<ele>28.30</ele>
<time>2015-04-25T18:41:54Z</time>
</trkpt>
<trkpt lat="35.1101593" lon="32.5071636">
<ele>28.27</ele>
<time>2015-04-25T18:41:56Z</time>
</trkpt>
<trkpt lat="35.1102148" lon="32.5071996">
<ele>28.10</ele>
<time>2015-04-25T18:41:57Z</time>
</trkpt>
<trkpt lat="35.1102679" lon="32.5072403">
<ele>28.01</ele>
<time>2015-04-25T18:41:58Z</time>
</trkpt>
<trkpt lat="35.1103240" lon="32.5072728">
<ele>27.97</ele>
<time>2015-04-25T18:41:59Z</time>
</trkpt>
<trkpt lat="35.1103819" lon="32.5073131">
<ele>27.95</ele>
<time>2015-04-25T18:42:00Z</time>
</trkpt>
<trkpt lat="35.1104328" lon="32.5073456">
<ele>27.44</ele>
<time>2015-04-25T18:42:01Z</time>
</trkpt>
<trkpt lat="35.1104787" lon="32.5073777">
<ele>26.68</ele>
<time>2015-04-25T18:42:02Z</time>
</trkpt>
<trkpt lat="35.1105274" lon="32.5074019">
<ele>25.80</ele>
<time>2015-04-25T18:42:03Z</time>
</trkpt>
<trkpt lat="35.1105705" lon="32.5074409">
<ele>25.36</ele>
<time>2015-04-25T18:42:04Z</time>
</trkpt>
<trkpt lat="35.1106101" lon="32.5074815">
<ele>25.14</ele>
<time>2015-04-25T18:42:05Z</time>
</trkpt>
<trkpt lat="35.1106493" lon="32.5075227">
<ele>25.03</ele>
<time>2015-04-25T18:42:06Z</time>
</trkpt>
<trkpt lat="35.1106919" lon="32.5075650">
<ele>24.98</ele>
<time>2015-04-25T18:42:07Z</time>
</trkpt>
<trkpt lat="35.1107342" lon="32.5075895">
<ele>24.45</ele>
<time>2015-04-25T18:42:08Z</time>
</trkpt>
<trkpt lat="35.1108132" lon="32.5076426">
<ele>25.81</ele>
<time>2015-04-25T18:42:10Z</time>
</trkpt>
<trkpt lat="35.1108661" lon="32.5077156">
<ele>24.65</ele>
<time>2015-04-25T18:42:12Z</time>
</trkpt>
<trkpt lat="35.1108707" lon="32.5077735">
<ele>23.36</ele>
<time>2015-04-25T18:42:14Z</time>
</trkpt>
<trkpt lat="35.1108508" lon="32.5078372">
<ele>23.03</ele>
<time>2015-04-25T18:42:16Z</time>
</trkpt>
<trkpt lat="35.1108326" lon="32.5078891">
<ele>23.45</ele>
<time>2015-04-25T18:42:18Z</time>
</trkpt>
<trkpt lat="35.1108132" lon="32.5079473">
<ele>23.81</ele>
<time>2015-04-25T18:42:20Z</time>
</trkpt>
<trkpt lat="35.1107909" lon="32.5079957">
<ele>23.90</ele>
<time>2015-04-25T18:42:22Z</time>
</trkpt>
</trkseg>
</trk>
</gpx>
